<?xml version='1.0' encoding='UTF-8'?><gpx version="1.1" creator="JPX - https://github.com/jenetics/jpx" xmlns="http://www.topografix.com/GPX/1/1"><trk><trkseg><trkpt lat="37.60404846645291" lon="12.96351408330272"><ele>127.00000000000001</ele><time>2026-04-18T07:49:04.999Z</time></trkpt><trkpt lat="37.60399018126404" lon="12.963467568413567"><ele>127.0</ele><time>2026-04-18T07:49:09.999Z</time></trkpt><trkpt lat="37.603931689363904" lon="12.963379653131751"><ele>127.0</ele><time>2026-04-18T07:49:12.999Z</time></trkpt><trkpt lat="37.60386907045133" lon="12.96332876104635"><ele>127.0</ele><time>2026-04-18T07:49:14.999Z</time></trkpt><trkpt lat="37.603795952123974" lon="12.963265828678757"><ele>127.00000000000001</ele><time>2026-04-18T07:49:16.999Z</time></trkpt><trkpt lat="37.60370915090978" lon="12.963193614709146"><ele>127.0</ele><time>2026-04-18T07:49:18.999Z</time></trkpt><trkpt lat="37.60362653103058" lon="12.963126737852063"><ele>126.66666666666667</ele><time>2026-04-18T07:49:20.999Z</time></trkpt><trkpt lat="37.60355884876776" lon="12.963053635341486"><ele>126.33333333333334</ele><time>2026-04-18T07:49:22.999Z</time></trkpt><trkpt lat="37.6035080652485" lon="12.96298866036957"><ele>126.0</ele><time>2026-04-18T07:49:23.999Z</time></trkpt><trkpt lat="37.60344694639672" lon="12.962945979509202"><ele>125.66666666666666</ele><time>2026-04-18T07:49:24.999Z</time></trkpt><trkpt lat="37.60339502989782" lon="12.962898070338822"><ele>125.33333333333333</ele><time>2026-04-18T07:49:25.999Z</time></trkpt><trkpt lat="37.603343883047806" lon="12.962849038144043"><ele>125.0</ele><time>2026-04-18T07:49:26.999Z</time></trkpt><trkpt lat="37.603264859889784" lon="12.962764974953878"><ele>125.0</ele><time>2026-04-18T07:49:28.999Z</time></trkpt><trkpt lat="37.603192295525545" lon="12.962705714590415"><ele>125.0</ele><time>2026-04-18T07:49:30.999Z</time></trkpt><trkpt lat="37.603122674168354" lon="12.96263519043317"><ele>125.0</ele><time>2026-04-18T07:49:33.999Z</time></trkpt><trkpt lat="37.60316062960853" lon="12.962508884376913"><ele>125.0</ele><time>2026-04-18T07:49:36.999Z</time></trkpt><trkpt lat="37.60321835903552" lon="12.962414601240821"><ele>125.0</ele><time>2026-04-18T07:49:37.999Z</time></trkpt><trkpt lat="37.60329985523817" lon="12.962292737851602"><ele>124.75</ele><time>2026-04-18T07:49:38.999Z</time></trkpt><trkpt lat="37.6033792921982" lon="12.962175284530623"><ele>124.5</ele><time>2026-04-18T07:49:39.999Z</time></trkpt><trkpt lat="37.60346502182309" lon="12.962054610815633"><ele>124.25</ele><time>2026-04-18T07:49:40.999Z</time></trkpt><trkpt lat="37.60353447453824" lon="12.96193858977833"><ele>124.0</ele><time>2026-04-18T07:49:41.999Z</time></trkpt><trkpt lat="37.60359257492727" lon="12.961850275369425"><ele>124.0</ele><time>2026-04-18T07:49:42.999Z</time></trkpt><trkpt lat="37.60364743686839" lon="12.961771794386642"><ele>124.0</ele><time>2026-04-18T07:49:43.999Z</time></trkpt><trkpt lat="37.60371221354099" lon="12.961670010228652"><ele>124.0</ele><time>2026-04-18T07:49:44.999Z</time></trkpt><trkpt lat="37.60381518024576" lon="12.961519164826425"><ele>124.0</ele><time>2026-04-18T07:49:45.999Z</time></trkpt><trkpt lat="37.603927864554436" lon="12.961351639478547"><ele>123.66666666666667</ele><time>2026-04-18T07:49:46.999Z</time></trkpt><trkpt lat="37.604053902908205" lon="12.961191213788354"><ele>123.33333333333334</ele><time>2026-04-18T07:49:47.999Z</time></trkpt><trkpt lat="37.60413836235125" lon="12.961032457432509"><ele>123.0</ele><time>2026-04-18T07:49:48.999Z</time></trkpt><trkpt lat="37.60421865244509" lon="12.96090921726012"><ele>122.80000000000001</ele><time>2026-04-18T07:49:49.999Z</time></trkpt><trkpt lat="37.60428926364351" lon="12.960820813344096"><ele>122.60000000000001</ele><time>2026-04-18T07:49:50.999Z</time></trkpt><trkpt lat="37.604362340966794" lon="12.960755536205152"><ele>122.39999999999999</ele><time>2026-04-18T07:49:51.999Z</time></trkpt><trkpt lat="37.60446727197025" lon="12.960731691713198"><ele>122.19999999999999</ele><time>2026-04-18T07:49:52.999Z</time></trkpt><trkpt lat="37.60458812582844" lon="12.960680786872807"><ele>122.0</ele><time>2026-04-18T07:49:53.999Z</time></trkpt><trkpt lat="37.604696967571776" lon="12.96058194016066"><ele>122.0</ele><time>2026-04-18T07:49:54.999Z</time></trkpt><trkpt lat="37.60476382890353" lon="12.960437643928277"><ele>122.0</ele><time>2026-04-18T07:49:55.999Z</time></trkpt><trkpt lat="37.60484882763762" lon="12.960286917194079"><ele>122.0</ele><time>2026-04-18T07:49:56.999Z</time></trkpt><trkpt lat="37.60494802126045" lon="12.960093818969298"><ele>121.66666666666666</ele><time>2026-04-18T07:49:57.999Z</time></trkpt><trkpt lat="37.605048989675495" lon="12.959874847097813"><ele>121.33333333333334</ele><time>2026-04-18T07:49:58.999Z</time></trkpt><trkpt lat="37.605165418654856" lon="12.959641885623574"><ele>121.0</ele><time>2026-04-18T07:49:59.999Z</time></trkpt><trkpt lat="37.605282874255934" lon="12.959417819413892"><ele>121.0</ele><time>2026-04-18T07:50:00.999Z</time></trkpt><trkpt lat="37.605388500503395" lon="12.95921745830563"><ele>121.0</ele><time>2026-04-18T07:50:01.999Z</time></trkpt><trkpt lat="37.60548301080986" lon="12.959032559090316"><ele>121.0</ele><time>2026-04-18T07:50:02.999Z</time></trkpt><trkpt lat="37.60557315915747" lon="12.958869515546722"><ele>120.75</ele><time>2026-04-18T07:50:03.999Z</time></trkpt><trkpt lat="37.60565925171518" lon="12.958698864605235"><ele>120.5</ele><time>2026-04-18T07:50:04.999Z</time></trkpt><trkpt lat="37.60573361626993" lon="12.958557737606732"><ele>120.25</ele><time>2026-04-18T07:50:05.999Z</time></trkpt><trkpt lat="37.60580447252324" lon="12.958415358814138"><ele>120.0</ele><time>2026-04-18T07:50:06.999Z</time></trkpt><trkpt lat="37.60586743410345" lon="12.958294088016574"><ele>120.0</ele><time>2026-04-18T07:50:07.999Z</time></trkpt><trkpt lat="37.60592059494018" lon="12.958192518189486"><ele>120.0</ele><time>2026-04-18T07:50:08.999Z</time></trkpt><trkpt lat="37.60598186740235" lon="12.958116784901074"><ele>120.0</ele><time>2026-04-18T07:50:09.999Z</time></trkpt><trkpt lat="37.60603839828345" lon="12.95806956376015"><ele>120.0</ele><time>2026-04-18T07:50:10.999Z</time></trkpt><trkpt lat="37.60614033349478" lon="12.958061967185879"><ele>120.0</ele><time>2026-04-18T07:50:12.999Z</time></trkpt><trkpt lat="37.60622692792403" lon="12.95813192213659"><ele>120.0</ele><time>2026-04-18T07:50:14.999Z</time></trkpt><trkpt lat="37.606331849210136" lon="12.95821717504795"><ele>120.0</ele><time>2026-04-18T07:50:16.999Z</time></trkpt><trkpt lat="37.606460783083804" lon="12.958270966164516"><ele>120.0</ele><time>2026-04-18T07:50:18.999Z</time></trkpt><trkpt lat="37.6065245797747" lon="12.958276110906235"><ele>120.0</ele><time>2026-04-18T07:50:19.999Z</time></trkpt><trkpt lat="37.60657850682679" lon="12.958399475151513"><ele>120.0</ele><time>2026-04-18T07:50:22.999Z</time></trkpt><trkpt lat="37.60662449576757" lon="12.958459737092902"><ele>120.0</ele><time>2026-04-18T07:50:24.999Z</time></trkpt><trkpt lat="37.60668067133772" lon="12.958396424492758"><ele>120.0</ele><time>2026-04-18T07:50:25.999Z</time></trkpt><trkpt lat="37.60665298259839" lon="12.95832215150324"><ele>120.0</ele><time>2026-04-18T07:50:27.999Z</time></trkpt><trkpt lat="37.60662085722739" lon="12.958259743611555"><ele>120.0</ele><time>2026-04-18T07:54:41Z</time></trkpt><trkpt lat="37.60653800055037" lon="12.958096248988467"><ele>120.0</ele><time>2026-04-18T07:54:45Z</time></trkpt><trkpt lat="37.60648439078173" lon="12.958194901168419"><ele>120.0</ele><time>2026-04-18T07:54:46Z</time></trkpt><trkpt lat="37.60641514670972" lon="12.958251585780328"><ele>120.0</ele><time>2026-04-18T07:54:49Z</time></trkpt><trkpt lat="37.60636178311324" lon="12.958204704549052"><ele>120.0</ele><time>2026-04-18T07:54:51Z</time></trkpt><trkpt lat="37.60633709958553" lon="12.958124745388806"><ele>120.0</ele><time>2026-04-18T07:54:53Z</time></trkpt><trkpt lat="37.6063214558329" lon="12.958047501186169"><ele>120.0</ele><time>2026-04-18T07:54:55Z</time></trkpt><trkpt lat="37.60626811477371" lon="12.957945192095085"><ele>120.0</ele><time>2026-04-18T07:54:58Z</time></trkpt><trkpt lat="37.60619384255106" lon="12.957863051771678"><ele>120.0</ele><time>2026-04-18T07:55:00Z</time></trkpt><trkpt lat="37.60612391223379" lon="12.957754009438444"><ele>119.75</ele><time>2026-04-18T07:55:02.001Z</time></trkpt><trkpt lat="37.60606359140278" lon="12.957654653285134"><ele>119.5</ele><time>2026-04-18T07:55:04.001Z</time></trkpt><trkpt lat="37.6059929576682" lon="12.957544752349571"><ele>119.25</ele><time>2026-04-18T07:55:06.001Z</time></trkpt><trkpt lat="37.60590896396446" lon="12.957435891688684"><ele>119.0</ele><time>2026-04-18T07:55:08.001Z</time></trkpt><trkpt lat="37.605814100358515" lon="12.957345671058873"><ele>118.2</ele><time>2026-04-18T07:55:10Z</time></trkpt><trkpt lat="37.605704548702704" lon="12.957249813205367"><ele>117.4</ele><time>2026-04-18T07:55:12Z</time></trkpt><trkpt lat="37.605632738846914" lon="12.957203762271641"><ele>116.6</ele><time>2026-04-18T07:55:13Z</time></trkpt><trkpt lat="37.605551517562276" lon="12.95715908758831"><ele>115.8</ele><time>2026-04-18T07:55:14Z</time></trkpt><trkpt lat="37.605466688198284" lon="12.957121088885636"><ele>115.0</ele><time>2026-04-18T07:55:15Z</time></trkpt><trkpt lat="37.60537622431857" lon="12.957081393890407"><ele>112.75</ele><time>2026-04-18T07:55:16Z</time></trkpt><trkpt lat="37.60527609600267" lon="12.957047149176217"><ele>110.5</ele><time>2026-04-18T07:55:17Z</time></trkpt><trkpt lat="37.605164267491936" lon="12.957030374571108"><ele>108.25</ele><time>2026-04-18T07:55:18Z</time></trkpt><trkpt lat="37.60503308684836" lon="12.957023447532942"><ele>106.0</ele><time>2026-04-18T07:55:19Z</time></trkpt><trkpt lat="37.60489408381592" lon="12.957035570298471"><ele>106.0</ele><time>2026-04-18T07:55:20Z</time></trkpt><trkpt lat="37.60473627114028" lon="12.957039932074847"><ele>106.0</ele><time>2026-04-18T07:55:21Z</time></trkpt><trkpt lat="37.60457801993519" lon="12.957099676328573"><ele>106.0</ele><time>2026-04-18T07:55:22Z</time></trkpt><trkpt lat="37.60441421770422" lon="12.957199061460805"><ele>102.0</ele><time>2026-04-18T07:55:23Z</time></trkpt><trkpt lat="37.604223824067056" lon="12.95730538167672"><ele>98.0</ele><time>2026-04-18T07:55:24Z</time></trkpt><trkpt lat="37.60401753058971" lon="12.957401184760599"><ele>94.0</ele><time>2026-04-18T07:55:25Z</time></trkpt><trkpt lat="37.60381664925623" lon="12.957517677199176"><ele>97.33333333333333</ele><time>2026-04-18T07:55:26Z</time></trkpt><trkpt lat="37.603636023033516" lon="12.957618440952297"><ele>100.66666666666666</ele><time>2026-04-18T07:55:27Z</time></trkpt><trkpt lat="37.60347725074226" lon="12.957708979408503"><ele>104.0</ele><time>2026-04-18T07:55:28Z</time></trkpt><trkpt lat="37.60333722931425" lon="12.957789524422921"><ele>104.0</ele><time>2026-04-18T07:55:29Z</time></trkpt><trkpt lat="37.60322297129921" lon="12.957853434250579"><ele>104.0</ele><time>2026-04-18T07:55:30Z</time></trkpt><trkpt lat="37.603127800861984" lon="12.957928386424381"><ele>104.0</ele><time>2026-04-18T07:55:31Z</time></trkpt><trkpt lat="37.60303106814292" lon="12.957969305468248"><ele>104.0</ele><time>2026-04-18T07:55:32Z</time></trkpt><trkpt lat="37.60292290409996" lon="12.958000494210284"><ele>106.66666666666666</ele><time>2026-04-18T07:55:33Z</time></trkpt><trkpt lat="37.60279043221911" lon="12.958008960667529"><ele>109.33333333333334</ele><time>2026-04-18T07:55:34Z</time></trkpt><trkpt lat="37.60263209964364" lon="12.958004393151402"><ele>112.0</ele><time>2026-04-18T07:55:35Z</time></trkpt><trkpt lat="37.60246242638527" lon="12.957984189574436"><ele>112.0</ele><time>2026-04-18T07:55:36Z</time></trkpt><trkpt lat="37.602296939222434" lon="12.958030770312542"><ele>112.0</ele><time>2026-04-18T07:55:37Z</time></trkpt><trkpt lat="37.60212769022128" lon="12.95810612947474"><ele>112.0</ele><time>2026-04-18T07:55:38Z</time></trkpt><trkpt lat="37.60195980413834" lon="12.958178099673278"><ele>111.33333333333334</ele><time>2026-04-18T07:55:39Z</time></trkpt><trkpt lat="37.60178575738333" lon="12.958248862601616"><ele>110.66666666666666</ele><time>2026-04-18T07:55:40Z</time></trkpt><trkpt lat="37.6016183725553" lon="12.958314131174504"><ele>110.0</ele><time>2026-04-18T07:55:41Z</time></trkpt><trkpt lat="37.60146157268222" lon="12.958378872473096"><ele>110.0</ele><time>2026-04-18T07:55:42Z</time></trkpt><trkpt lat="37.60131776095612" lon="12.958442290111282"><ele>110.0</ele><time>2026-04-18T07:55:43Z</time></trkpt><trkpt lat="37.601178773563646" lon="12.958513278148898"><ele>110.0</ele><time>2026-04-18T07:55:44Z</time></trkpt><trkpt lat="37.60104322494626" lon="12.958549470934566"><ele>110.0</ele><time>2026-04-18T07:55:45Z</time></trkpt><trkpt lat="37.600911906212474" lon="12.958528993281625"><ele>109.25</ele><time>2026-04-18T07:55:46Z</time></trkpt><trkpt lat="37.60078231267827" lon="12.958500810009522"><ele>108.5</ele><time>2026-04-18T07:55:47Z</time></trkpt><trkpt lat="37.60064807376918" lon="12.958455966234173"><ele>107.75</ele><time>2026-04-18T07:55:48Z</time></trkpt><trkpt lat="37.60051606157394" lon="12.958388218524565"><ele>107.0</ele><time>2026-04-18T07:55:49Z</time></trkpt><trkpt lat="37.600388798700976" lon="12.95829767797068"><ele>105.25</ele><time>2026-04-18T07:55:50Z</time></trkpt><trkpt lat="37.60027098266468" lon="12.95818533907033"><ele>103.5</ele><time>2026-04-18T07:55:51Z</time></trkpt><trkpt lat="37.60015578379161" lon="12.958071069395473"><ele>101.75</ele><time>2026-04-18T07:55:52Z</time></trkpt><trkpt lat="37.600071234408524" lon="12.957936913957068"><ele>100.0</ele><time>2026-04-18T07:55:53Z</time></trkpt><trkpt lat="37.599996662375545" lon="12.957777856329768"><ele>100.0</ele><time>2026-04-18T07:55:54Z</time></trkpt><trkpt lat="37.599923004212144" lon="12.957582802865327"><ele>100.0</ele><time>2026-04-18T07:55:55Z</time></trkpt><trkpt lat="37.599849925608446" lon="12.957353857791"><ele>100.0</ele><time>2026-04-18T07:55:56Z</time></trkpt><trkpt lat="37.599771419581664" lon="12.957092929483354"><ele>98.5</ele><time>2026-04-18T07:55:57Z</time></trkpt><trkpt lat="37.59969311948253" lon="12.956825883068163"><ele>97.0</ele><time>2026-04-18T07:55:58Z</time></trkpt><trkpt lat="37.59960521328469" lon="12.956538665559346"><ele>96.0</ele><time>2026-04-18T07:55:59Z</time></trkpt><trkpt lat="37.59951482896009" lon="12.956266137046704"><ele>95.0</ele><time>2026-04-18T07:56:00Z</time></trkpt><trkpt lat="37.599427292481394" lon="12.956013932155045"><ele>93.0</ele><time>2026-04-18T07:56:01Z</time></trkpt><trkpt lat="37.599342989097686" lon="12.95576964968498"><ele>91.0</ele><time>2026-04-18T07:56:02Z</time></trkpt><trkpt lat="37.59926562533266" lon="12.955540455042973"><ele>89.0</ele><time>2026-04-18T07:56:03Z</time></trkpt><trkpt lat="37.59919334524422" lon="12.955322859388968"><ele>89.0</ele><time>2026-04-18T07:56:04Z</time></trkpt><trkpt lat="37.59912500610631" lon="12.955113696255598"><ele>89.0</ele><time>2026-04-18T07:56:05Z</time></trkpt><trkpt lat="37.59905359271763" lon="12.954916131135425"><ele>89.0</ele><time>2026-04-18T07:56:06Z</time></trkpt><trkpt lat="37.59897053046247" lon="12.95473806085386"><ele>89.0</ele><time>2026-04-18T07:56:07Z</time></trkpt><trkpt lat="37.59887666735372" lon="12.954587885748216"><ele>89.0</ele><time>2026-04-18T07:56:08Z</time></trkpt><trkpt lat="37.59877992702512" lon="12.954479286467594"><ele>89.0</ele><time>2026-04-18T07:56:09Z</time></trkpt><trkpt lat="37.598708657684455" lon="12.95437431600769"><ele>89.0</ele><time>2026-04-18T07:56:10Z</time></trkpt><trkpt lat="37.59864165425656" lon="12.954289817848357"><ele>89.0</ele><time>2026-04-18T07:56:11Z</time></trkpt><trkpt lat="37.59858966449074" lon="12.954224253449077"><ele>89.0</ele><time>2026-04-18T07:56:12Z</time></trkpt><trkpt lat="37.59845091439138" lon="12.954210067738705"><ele>89.0</ele><time>2026-04-18T07:56:14Z</time></trkpt><trkpt lat="37.59847346214866" lon="12.954093772978661"><ele>89.0</ele><time>2026-04-18T07:56:16Z</time></trkpt><trkpt lat="37.5985871189385" lon="12.95405977945538"><ele>89.0</ele><time>2026-04-18T07:56:18Z</time></trkpt><trkpt lat="37.598694224539294" lon="12.95410543650011"><ele>88.25</ele><time>2026-04-18T07:56:20Z</time></trkpt><trkpt lat="37.598807675069736" lon="12.95413048088234"><ele>87.5</ele><time>2026-04-18T07:56:22Z</time></trkpt><trkpt lat="37.59899049858445" lon="12.954206023378752"><ele>86.75</ele><time>2026-04-18T07:56:25Z</time></trkpt><trkpt lat="37.599048322324684" lon="12.954242288296342"><ele>86.0</ele><time>2026-04-18T07:56:26Z</time></trkpt><trkpt lat="37.59915636806202" lon="12.954324707793898"><ele>86.00000000000001</ele><time>2026-04-18T07:56:28Z</time></trkpt><trkpt lat="37.59921309383247" lon="12.95437724152884"><ele>86.0</ele><time>2026-04-18T07:56:29Z</time></trkpt><trkpt lat="37.59926811547354" lon="12.954440462200994"><ele>86.0</ele><time>2026-04-18T07:56:30Z</time></trkpt><trkpt lat="37.599320262231" lon="12.954514049862462"><ele>86.0</ele><time>2026-04-18T07:56:31Z</time></trkpt><trkpt lat="37.599364598305364" lon="12.954590491298362"><ele>86.0</ele><time>2026-04-18T07:56:32Z</time></trkpt><trkpt lat="37.59940984355324" lon="12.954664169437306"><ele>86.00000000000001</ele><time>2026-04-18T07:56:33Z</time></trkpt><trkpt lat="37.59945483699853" lon="12.95473273094845"><ele>86.0</ele><time>2026-04-18T07:56:34Z</time></trkpt><trkpt lat="37.599550896581924" lon="12.954816498343257"><ele>83.39999999999999</ele><time>2026-04-18T07:56:36Z</time></trkpt><trkpt lat="37.599657941908546" lon="12.95480114879402"><ele>80.8</ele><time>2026-04-18T07:56:38Z</time></trkpt><trkpt lat="37.59970415077047" lon="12.954664724962267"><ele>78.19999999999999</ele><time>2026-04-18T07:56:40Z</time></trkpt><trkpt lat="37.599675935522725" lon="12.954567563945792"><ele>75.6</ele><time>2026-04-18T07:56:41Z</time></trkpt><trkpt lat="37.59960595190233" lon="12.954491723067473"><ele>73.0</ele><time>2026-04-18T07:56:42Z</time></trkpt><trkpt lat="37.59955660321239" lon="12.954397327736837"><ele>73.6</ele><time>2026-04-18T07:56:43Z</time></trkpt><trkpt lat="37.59948163232731" lon="12.954317405115498"><ele>74.19999999999999</ele><time>2026-04-18T07:56:44Z</time></trkpt><trkpt lat="37.599415727368246" lon="12.954217019909887"><ele>74.8</ele><time>2026-04-18T07:56:45Z</time></trkpt><trkpt lat="37.59933927335541" lon="12.95410657377586"><ele>75.39999999999999</ele><time>2026-04-18T07:56:46Z</time></trkpt><trkpt lat="37.59926230333682" lon="12.953991646116569"><ele>76.0</ele><time>2026-04-18T07:56:47Z</time></trkpt><trkpt lat="37.59918341578578" lon="12.953873061189215"><ele>76.0</ele><time>2026-04-18T07:56:48Z</time></trkpt><trkpt lat="37.599098876627664" lon="12.953754358792262"><ele>76.0</ele><time>2026-04-18T07:56:49Z</time></trkpt><trkpt lat="37.599010533724076" lon="12.95363775542857"><ele>76.0</ele><time>2026-04-18T07:56:50Z</time></trkpt><trkpt lat="37.598911408395956" lon="12.953530734494086"><ele>76.0</ele><time>2026-04-18T07:56:51Z</time></trkpt><trkpt lat="37.59880446375594" lon="12.953432652857051"><ele>74.0</ele><time>2026-04-18T07:56:52Z</time></trkpt><trkpt lat="37.598694531697696" lon="12.95334076821888"><ele>72.0</ele><time>2026-04-18T07:56:53Z</time></trkpt><trkpt lat="37.5985806721366" lon="12.953249179719625"><ele>70.0</ele><time>2026-04-18T07:56:54Z</time></trkpt><trkpt lat="37.59846462816728" lon="12.95316381135966"><ele>68.0</ele><time>2026-04-18T07:56:55Z</time></trkpt><trkpt lat="37.59834800914273" lon="12.953091621802354"><ele>68.0</ele><time>2026-04-18T07:56:56Z</time></trkpt><trkpt lat="37.59823496160463" lon="12.953022387906282"><ele>68.0</ele><time>2026-04-18T07:56:57Z</time></trkpt><trkpt lat="37.59811845840167" lon="12.95296968045173"><ele>68.0</ele><time>2026-04-18T07:56:58Z</time></trkpt><trkpt lat="37.597996772038385" lon="12.952947818104223"><ele>68.0</ele><time>2026-04-18T07:56:59Z</time></trkpt><trkpt lat="37.59787520501101" lon="12.952951836014503"><ele>68.0</ele><time>2026-04-18T07:57:00Z</time></trkpt><trkpt lat="37.59774781942184" lon="12.952967698742718"><ele>68.0</ele><time>2026-04-18T07:57:01Z</time></trkpt><trkpt lat="37.597617351472124" lon="12.952986633226457"><ele>68.0</ele><time>2026-04-18T07:57:02Z</time></trkpt><trkpt lat="37.59748085603254" lon="12.952977674297863"><ele>68.0</ele><time>2026-04-18T07:57:03Z</time></trkpt><trkpt lat="37.597348974289616" lon="12.953005110578108"><ele>68.0</ele><time>2026-04-18T07:57:04Z</time></trkpt><trkpt lat="37.59721044315315" lon="12.953005004509746"><ele>68.0</ele><time>2026-04-18T07:57:05Z</time></trkpt><trkpt lat="37.59707010308917" lon="12.953003489712982"><ele>68.0</ele><time>2026-04-18T07:57:06Z</time></trkpt><trkpt lat="37.596924745671934" lon="12.95297973143159"><ele>68.0</ele><time>2026-04-18T07:57:07Z</time></trkpt><trkpt lat="37.59677727533244" lon="12.952946958187844"><ele>66.33333333333334</ele><time>2026-04-18T07:57:07.999Z</time></trkpt><trkpt lat="37.59663438585293" lon="12.952891530970538"><ele>64.66666666666667</ele><time>2026-04-18T07:57:08.999Z</time></trkpt><trkpt lat="37.5964902464732" lon="12.952858098024572"><ele>63.0</ele><time>2026-04-18T07:57:09.999Z</time></trkpt><trkpt lat="37.59633515052504" lon="12.9528414833915"><ele>63.0</ele><time>2026-04-18T07:57:10.999Z</time></trkpt><trkpt lat="37.59618148467027" lon="12.952800512672681"><ele>63.0</ele><time>2026-04-18T07:57:11.999Z</time></trkpt><trkpt lat="37.596031703824806" lon="12.952752331158056"><ele>63.0</ele><time>2026-04-18T07:57:12.999Z</time></trkpt><trkpt lat="37.59588869635663" lon="12.95269926107442"><ele>60.75</ele><time>2026-04-18T07:57:13.999Z</time></trkpt><trkpt lat="37.59575436250295" lon="12.952640242184472"><ele>58.5</ele><time>2026-04-18T07:57:14.999Z</time></trkpt><trkpt lat="37.59562998479597" lon="12.952572172327525"><ele>56.25</ele><time>2026-04-18T07:57:16Z</time></trkpt><trkpt lat="37.595534929252395" lon="12.952473845002565"><ele>54.0</ele><time>2026-04-18T07:57:17Z</time></trkpt><trkpt lat="37.59544638294465" lon="12.952391745436564"><ele>53.6</ele><time>2026-04-18T07:57:18Z</time></trkpt><trkpt lat="37.59537358383174" lon="12.952301410166323"><ele>53.2</ele><time>2026-04-18T07:57:19Z</time></trkpt><trkpt lat="37.5953091790504" lon="12.95221716057462"><ele>52.800000000000004</ele><time>2026-04-18T07:57:20Z</time></trkpt><trkpt lat="37.59528437762753" lon="12.95210420928027"><ele>52.400000000000006</ele><time>2026-04-18T07:57:21Z</time></trkpt><trkpt lat="37.595282979796714" lon="12.951986768747828"><ele>52.0</ele><time>2026-04-18T07:57:22Z</time></trkpt><trkpt lat="37.59531024290787" lon="12.951877269927886"><ele>52.0</ele><time>2026-04-18T07:57:23Z</time></trkpt><trkpt lat="37.59536110850943" lon="12.95178744446522"><ele>52.0</ele><time>2026-04-18T07:57:24Z</time></trkpt><trkpt lat="37.59544146225521" lon="12.951703674126607"><ele>52.0</ele><time>2026-04-18T07:57:25Z</time></trkpt><trkpt lat="37.595550364768165" lon="12.951625901781718"><ele>52.0</ele><time>2026-04-18T07:57:26Z</time></trkpt><trkpt lat="37.59568823476375" lon="12.951547184015787"><ele>51.25</ele><time>2026-04-18T07:57:27Z</time></trkpt><trkpt lat="37.59581945223562" lon="12.951467286402519"><ele>50.5</ele><time>2026-04-18T07:57:28Z</time></trkpt><trkpt lat="37.595940991773716" lon="12.951408148898409"><ele>49.75</ele><time>2026-04-18T07:57:29Z</time></trkpt><trkpt lat="37.59606010494528" lon="12.951369254156514"><ele>49.0</ele><time>2026-04-18T07:57:30Z</time></trkpt><trkpt lat="37.59615009889142" lon="12.951332664787838"><ele>49.166666666666664</ele><time>2026-04-18T07:57:31Z</time></trkpt><trkpt lat="37.59622283946118" lon="12.951286513132063"><ele>49.33333333333333</ele><time>2026-04-18T07:57:32Z</time></trkpt><trkpt lat="37.59626764948643" lon="12.951226995796045"><ele>49.5</ele><time>2026-04-18T07:57:33Z</time></trkpt><trkpt lat="37.59629069284229" lon="12.951149953748326"><ele>49.66666666666667</ele><time>2026-04-18T07:57:34Z</time></trkpt><trkpt lat="37.59630743813236" lon="12.951049484647827"><ele>49.833333333333336</ele><time>2026-04-18T07:57:35Z</time></trkpt><trkpt lat="37.596263883304225" lon="12.950931286670533"><ele>50.0</ele><time>2026-04-18T07:57:36Z</time></trkpt><trkpt lat="37.59616359482034" lon="12.950845524299227"><ele>48.333333333333336</ele><time>2026-04-18T07:57:37Z</time></trkpt><trkpt lat="37.59604514572189" lon="12.950730739156182"><ele>46.66666666666667</ele><time>2026-04-18T07:57:38Z</time></trkpt><trkpt lat="37.59590259052309" lon="12.950614022215598"><ele>45.0</ele><time>2026-04-18T07:57:39Z</time></trkpt><trkpt lat="37.59573972941405" lon="12.95045805617753"><ele>45.0</ele><time>2026-04-18T07:57:40Z</time></trkpt><trkpt lat="37.59554690851746" lon="12.950291948545763"><ele>45.0</ele><time>2026-04-18T07:57:41Z</time></trkpt><trkpt lat="37.59535469238872" lon="12.950149441185726"><ele>43.333333333333336</ele><time>2026-04-18T07:57:42Z</time></trkpt><trkpt lat="37.59519193761643" lon="12.950005316437109"><ele>41.66666666666667</ele><time>2026-04-18T07:57:43Z</time></trkpt><trkpt lat="37.59504649447189" lon="12.949859307371783"><ele>40.0</ele><time>2026-04-18T07:57:44Z</time></trkpt><trkpt lat="37.59491734389569" lon="12.949737137806935"><ele>40.0</ele><time>2026-04-18T07:57:45Z</time></trkpt><trkpt lat="37.59478841703457" lon="12.949646967231239"><ele>40.0</ele><time>2026-04-18T07:57:46Z</time></trkpt><trkpt lat="37.59469088919132" lon="12.949536017588999"><ele>40.0</ele><time>2026-04-18T07:57:47Z</time></trkpt><trkpt lat="37.59461295030876" lon="12.94941564329044"><ele>40.0</ele><time>2026-04-18T07:57:48Z</time></trkpt><trkpt lat="37.59456192162032" lon="12.949278868779912"><ele>39.333333333333336</ele><time>2026-04-18T07:57:49Z</time></trkpt><trkpt lat="37.59455188900552" lon="12.949112918859154"><ele>38.666666666666664</ele><time>2026-04-18T07:57:50Z</time></trkpt><trkpt lat="37.594524154049076" lon="12.948907445680849"><ele>38.0</ele><time>2026-04-18T07:57:51Z</time></trkpt><trkpt lat="37.594522150710496" lon="12.948710790688434"><ele>37.25</ele><time>2026-04-18T07:57:52Z</time></trkpt><trkpt lat="37.59450239337817" lon="12.948545267389063"><ele>36.5</ele><time>2026-04-18T07:57:53Z</time></trkpt><trkpt lat="37.59445131783834" lon="12.948397810193741"><ele>35.75</ele><time>2026-04-18T07:57:54Z</time></trkpt><trkpt lat="37.594366753305" lon="12.94826785106692"><ele>35.0</ele><time>2026-04-18T07:57:55Z</time></trkpt><trkpt lat="37.5942525285093" lon="12.948152475038071"><ele>35.0</ele><time>2026-04-18T07:57:56Z</time></trkpt><trkpt lat="37.59410098545192" lon="12.948041976988634"><ele>35.0</ele><time>2026-04-18T07:57:57Z</time></trkpt><trkpt lat="37.59392991238516" lon="12.94793542189813"><ele>35.0</ele><time>2026-04-18T07:57:58Z</time></trkpt><trkpt lat="37.593750901254865" lon="12.947811888159274"><ele>34.0</ele><time>2026-04-18T07:57:59Z</time></trkpt><trkpt lat="37.59355521517101" lon="12.94767017295069"><ele>33.0</ele><time>2026-04-18T07:58:00Z</time></trkpt><trkpt lat="37.59336273130579" lon="12.947513981879819"><ele>34.0</ele><time>2026-04-18T07:58:01Z</time></trkpt><trkpt lat="37.593153920512705" lon="12.947391920594379"><ele>35.0</ele><time>2026-04-18T07:58:02Z</time></trkpt><trkpt lat="37.59298627835863" lon="12.9472497122305"><ele>36.0</ele><time>2026-04-18T07:58:03Z</time></trkpt><trkpt lat="37.592830625024575" lon="12.947132803427788"><ele>36.0</ele><time>2026-04-18T07:58:04Z</time></trkpt><trkpt lat="37.59269818011053" lon="12.947017937367244"><ele>36.0</ele><time>2026-04-18T07:58:05Z</time></trkpt><trkpt lat="37.59257782539263" lon="12.946914368247665"><ele>36.0</ele><time>2026-04-18T07:58:06Z</time></trkpt><trkpt lat="37.59249106092666" lon="12.946781814480007"><ele>36.0</ele><time>2026-04-18T07:58:07Z</time></trkpt><trkpt lat="37.59242933334841" lon="12.94663668172277"><ele>38.0</ele><time>2026-04-18T07:58:08Z</time></trkpt><trkpt lat="37.592385227157806" lon="12.946458825836903"><ele>40.0</ele><time>2026-04-18T07:58:09Z</time></trkpt><trkpt lat="37.592347741178116" lon="12.946254892207806"><ele>42.0</ele><time>2026-04-18T07:58:10Z</time></trkpt><trkpt lat="37.592308688025255" lon="12.946033029347655"><ele>42.333333333333336</ele><time>2026-04-18T07:58:11Z</time></trkpt><trkpt lat="37.59226406533477" lon="12.945787129982163"><ele>42.66666666666667</ele><time>2026-04-18T07:58:12Z</time></trkpt><trkpt lat="37.59220987118199" lon="12.945517309258362"><ele>43.0</ele><time>2026-04-18T07:58:13Z</time></trkpt><trkpt lat="37.592153476173344" lon="12.945227520104249"><ele>44.0</ele><time>2026-04-18T07:58:14Z</time></trkpt><trkpt lat="37.59209703711784" lon="12.944946594054775"><ele>45.0</ele><time>2026-04-18T07:58:15Z</time></trkpt><trkpt lat="37.59203858527128" lon="12.944652602303893"><ele>41.0</ele><time>2026-04-18T07:58:16Z</time></trkpt><trkpt lat="37.59198183577501" lon="12.94435120295029"><ele>37.0</ele><time>2026-04-18T07:58:17Z</time></trkpt><trkpt lat="37.59192349229808" lon="12.944042407857603"><ele>36.0</ele><time>2026-04-18T07:58:18Z</time></trkpt><trkpt lat="37.59186946305649" lon="12.94371768373406"><ele>35.0</ele><time>2026-04-18T07:58:19Z</time></trkpt><trkpt lat="37.59183375178846" lon="12.943370550873334"><ele>34.5</ele><time>2026-04-18T07:58:20Z</time></trkpt><trkpt lat="37.59181390096085" lon="12.94300371408879"><ele>34.0</ele><time>2026-04-18T07:58:21Z</time></trkpt><trkpt lat="37.5918047848811" lon="12.942640643888062"><ele>34.0</ele><time>2026-04-18T07:58:22Z</time></trkpt><trkpt lat="37.59179566530313" lon="12.94230941602121"><ele>34.0</ele><time>2026-04-18T07:58:23Z</time></trkpt><trkpt lat="37.59178318205218" lon="12.941999438447501"><ele>33.0</ele><time>2026-04-18T07:58:24Z</time></trkpt><trkpt lat="37.591772842200484" lon="12.94170414807691"><ele>32.0</ele><time>2026-04-18T07:58:25Z</time></trkpt><trkpt lat="37.59175149833745" lon="12.941422107798966"><ele>32.0</ele><time>2026-04-18T07:58:26Z</time></trkpt><trkpt lat="37.59172403798482" lon="12.941128202771289"><ele>32.0</ele><time>2026-04-18T07:58:27Z</time></trkpt><trkpt lat="37.59164102671887" lon="12.94083384881271"><ele>34.0</ele><time>2026-04-18T07:58:28Z</time></trkpt><trkpt lat="37.59155987014477" lon="12.940532783247297"><ele>36.0</ele><time>2026-04-18T07:58:29Z</time></trkpt><trkpt lat="37.59147201572648" lon="12.94023473531634"><ele>36.0</ele><time>2026-04-18T07:58:30Z</time></trkpt><trkpt lat="37.59140115996829" lon="12.93992601591772"><ele>36.0</ele><time>2026-04-18T07:58:31Z</time></trkpt><trkpt lat="37.59131370592922" lon="12.93961852991005"><ele>36.0</ele><time>2026-04-18T07:58:32Z</time></trkpt><trkpt lat="37.591209897429515" lon="12.939304616515766"><ele>36.0</ele><time>2026-04-18T07:58:33Z</time></trkpt><trkpt lat="37.591117215946085" lon="12.9389758618425"><ele>32.5</ele><time>2026-04-18T07:58:34Z</time></trkpt><trkpt lat="37.591021144084245" lon="12.938646497456087"><ele>29.0</ele><time>2026-04-18T07:58:35Z</time></trkpt><trkpt lat="37.590932787424315" lon="12.938320410005156"><ele>29.0</ele><time>2026-04-18T07:58:36Z</time></trkpt><trkpt lat="37.590853885185375" lon="12.938015348943214"><ele>29.0</ele><time>2026-04-18T07:58:37Z</time></trkpt><trkpt lat="37.59077608287446" lon="12.93773001574489"><ele>30.333333333333332</ele><time>2026-04-18T07:58:38Z</time></trkpt><trkpt lat="37.59070200021182" lon="12.93746173993682"><ele>31.666666666666664</ele><time>2026-04-18T07:58:39Z</time></trkpt><trkpt lat="37.5906308365241" lon="12.937207999337847"><ele>33.0</ele><time>2026-04-18T07:58:40Z</time></trkpt><trkpt lat="37.59055618251727" lon="12.936971353540356"><ele>33.0</ele><time>2026-04-18T07:58:41Z</time></trkpt><trkpt lat="37.59046818511995" lon="12.936750489077628"><ele>33.0</ele><time>2026-04-18T07:58:42Z</time></trkpt><trkpt lat="37.59036474437514" lon="12.936545376621302"><ele>33.0</ele><time>2026-04-18T07:58:43Z</time></trkpt><trkpt lat="37.590246529503204" lon="12.93635560116174"><ele>32.333333333333336</ele><time>2026-04-18T07:58:44Z</time></trkpt><trkpt lat="37.590108333459774" lon="12.936179963097985"><ele>31.666666666666668</ele><time>2026-04-18T07:58:45Z</time></trkpt><trkpt lat="37.58994353647495" lon="12.936005205039798"><ele>31.0</ele><time>2026-04-18T07:58:46Z</time></trkpt><trkpt lat="37.589759341723045" lon="12.93582581708453"><ele>31.0</ele><time>2026-04-18T07:58:47Z</time></trkpt><trkpt lat="37.58957847000916" lon="12.935646631643047"><ele>31.0</ele><time>2026-04-18T07:58:48Z</time></trkpt><trkpt lat="37.5894064127017" lon="12.935470731772817"><ele>29.333333333333336</ele><time>2026-04-18T07:58:49Z</time></trkpt><trkpt lat="37.589243814552674" lon="12.93529939356593"><ele>27.666666666666664</ele><time>2026-04-18T07:58:50Z</time></trkpt><trkpt lat="37.58908790370442" lon="12.9351292950934"><ele>26.0</ele><time>2026-04-18T07:58:51Z</time></trkpt><trkpt lat="37.58894246770298" lon="12.934948251352292"><ele>26.0</ele><time>2026-04-18T07:58:52Z</time></trkpt><trkpt lat="37.588814272832536" lon="12.934756809384453"><ele>26.0</ele><time>2026-04-18T07:58:53Z</time></trkpt><trkpt lat="37.5887026487023" lon="12.934552894098822"><ele>26.0</ele><time>2026-04-18T07:58:54Z</time></trkpt><trkpt lat="37.58860875097776" lon="12.934339049056403"><ele>26.0</ele><time>2026-04-18T07:58:55Z</time></trkpt><trkpt lat="37.58853344137043" lon="12.934111399954963"><ele>26.0</ele><time>2026-04-18T07:58:56Z</time></trkpt><trkpt lat="37.58847463275259" lon="12.93386908350567"><ele>26.0</ele><time>2026-04-18T07:58:57Z</time></trkpt><trkpt lat="37.58843217004284" lon="12.933621925292641"><ele>26.0</ele><time>2026-04-18T07:58:58Z</time></trkpt><trkpt lat="37.58839862069345" lon="12.933394365983583"><ele>26.0</ele><time>2026-04-18T07:58:59Z</time></trkpt><trkpt lat="37.588364336807054" lon="12.93317874464764"><ele>26.0</ele><time>2026-04-18T07:59:00Z</time></trkpt><trkpt lat="37.58833809808999" lon="12.932990458145182"><ele>25.5</ele><time>2026-04-18T07:59:01Z</time></trkpt><trkpt lat="37.588321555641876" lon="12.93281916535382"><ele>25.0</ele><time>2026-04-18T07:59:02Z</time></trkpt><trkpt lat="37.588300160583834" lon="12.932644145987329"><ele>24.5</ele><time>2026-04-18T07:59:03Z</time></trkpt><trkpt lat="37.58825608217143" lon="12.93244817658764"><ele>24.0</ele><time>2026-04-18T07:59:04Z</time></trkpt><trkpt lat="37.58820778194059" lon="12.932228014853607"><ele>23.666666666666668</ele><time>2026-04-18T07:59:05Z</time></trkpt><trkpt lat="37.58816640266974" lon="12.931998459801195"><ele>23.333333333333336</ele><time>2026-04-18T07:59:06Z</time></trkpt><trkpt lat="37.58813861960715" lon="12.931784835089172"><ele>23.0</ele><time>2026-04-18T07:59:07Z</time></trkpt><trkpt lat="37.58809894160899" lon="12.931585657979292"><ele>23.0</ele><time>2026-04-18T07:59:08Z</time></trkpt><trkpt lat="37.58807682702431" lon="12.931399726800842"><ele>23.0</ele><time>2026-04-18T07:59:09Z</time></trkpt><trkpt lat="37.58799526631983" lon="12.931244221040505"><ele>23.0</ele><time>2026-04-18T07:59:10Z</time></trkpt><trkpt lat="37.58794146077055" lon="12.931089256675072"><ele>23.0</ele><time>2026-04-18T07:59:11Z</time></trkpt><trkpt lat="37.587910828417506" lon="12.930923432462347"><ele>22.0</ele><time>2026-04-18T07:59:12Z</time></trkpt><trkpt lat="37.587911704006686" lon="12.930721887134826"><ele>21.0</ele><time>2026-04-18T07:59:13Z</time></trkpt><trkpt lat="37.5879169716001" lon="12.930496535774399"><ele>20.0</ele><time>2026-04-18T07:59:14Z</time></trkpt><trkpt lat="37.58789870454469" lon="12.930245059205504"><ele>19.666666666666668</ele><time>2026-04-18T07:59:15Z</time></trkpt><trkpt lat="37.587853120981286" lon="12.929970436297053"><ele>19.333333333333332</ele><time>2026-04-18T07:59:16Z</time></trkpt><trkpt lat="37.58780318361841" lon="12.929690893116483"><ele>19.0</ele><time>2026-04-18T07:59:17Z</time></trkpt><trkpt lat="37.587763232442235" lon="12.929435437984857"><ele>18.333333333333332</ele><time>2026-04-18T07:59:18Z</time></trkpt><trkpt lat="37.587712874961134" lon="12.929203660609232"><ele>17.666666666666668</ele><time>2026-04-18T07:59:19Z</time></trkpt><trkpt lat="37.58764366743514" lon="12.928981625250316"><ele>17.0</ele><time>2026-04-18T07:59:20Z</time></trkpt><trkpt lat="37.5875523261642" lon="12.928774873963311"><ele>17.0</ele><time>2026-04-18T07:59:21Z</time></trkpt><trkpt lat="37.5874352591824" lon="12.928571539294985"><ele>17.0</ele><time>2026-04-18T07:59:22Z</time></trkpt><trkpt lat="37.58729601031696" lon="12.928359497734924"><ele>17.0</ele><time>2026-04-18T07:59:23Z</time></trkpt><trkpt lat="37.58714143891722" lon="12.928134475050355"><ele>17.0</ele><time>2026-04-18T07:59:24Z</time></trkpt><trkpt lat="37.586995436266086" lon="12.927920815317066"><ele>17.0</ele><time>2026-04-18T07:59:25Z</time></trkpt><trkpt lat="37.58686643072043" lon="12.927720748297242"><ele>17.0</ele><time>2026-04-18T07:59:26Z</time></trkpt><trkpt lat="37.58675210915007" lon="12.927533362844816"><ele>17.0</ele><time>2026-04-18T07:59:27Z</time></trkpt><trkpt lat="37.586652127600644" lon="12.927363233454225"><ele>17.0</ele><time>2026-04-18T07:59:28Z</time></trkpt><trkpt lat="37.58655815965859" lon="12.927223584888829"><ele>17.0</ele><time>2026-04-18T07:59:29Z</time></trkpt><trkpt lat="37.586460393678855" lon="12.927115410930366"><ele>17.0</ele><time>2026-04-18T07:59:30Z</time></trkpt><trkpt lat="37.58635390629047" lon="12.927041630856003"><ele>17.0</ele><time>2026-04-18T07:59:31Z</time></trkpt><trkpt lat="37.586240088867406" lon="12.926995890221933"><ele>17.0</ele><time>2026-04-18T07:59:32Z</time></trkpt><trkpt lat="37.58609836028695" lon="12.926973256872358"><ele>17.0</ele><time>2026-04-18T07:59:33Z</time></trkpt><trkpt lat="37.58592463223192" lon="12.926972099321345"><ele>17.0</ele><time>2026-04-18T07:59:34Z</time></trkpt><trkpt lat="37.5857190999511" lon="12.926988145332684"><ele>17.0</ele><time>2026-04-18T07:59:35Z</time></trkpt><trkpt lat="37.58549921877031" lon="12.926995072407264"><ele>17.0</ele><time>2026-04-18T07:59:36Z</time></trkpt><trkpt lat="37.585300422780726" lon="12.926990455218755"><ele>17.0</ele><time>2026-04-18T07:59:37Z</time></trkpt><trkpt lat="37.58511588176825" lon="12.926965762331983"><ele>17.0</ele><time>2026-04-18T07:59:38Z</time></trkpt><trkpt lat="37.58494124225212" lon="12.926918717321318"><ele>17.0</ele><time>2026-04-18T07:59:39Z</time></trkpt><trkpt lat="37.58477007276133" lon="12.92684511981401"><ele>17.0</ele><time>2026-04-18T07:59:40Z</time></trkpt><trkpt lat="37.584587552463475" lon="12.926735513032751"><ele>18.333333333333336</ele><time>2026-04-18T07:59:41Z</time></trkpt><trkpt lat="37.58439458666847" lon="12.92660729175656"><ele>19.666666666666668</ele><time>2026-04-18T07:59:42Z</time></trkpt><trkpt lat="37.58421328566515" lon="12.926491325370408"><ele>21.0</ele><time>2026-04-18T07:59:43Z</time></trkpt><trkpt lat="37.58405385805197" lon="12.92639390995513"><ele>21.0</ele><time>2026-04-18T07:59:44Z</time></trkpt><trkpt lat="37.58391369521072" lon="12.926302711553898"><ele>21.0</ele><time>2026-04-18T07:59:45Z</time></trkpt><trkpt lat="37.58379881861022" lon="12.92619979491143"><ele>21.0</ele><time>2026-04-18T07:59:46Z</time></trkpt><trkpt lat="37.58370189463778" lon="12.926085223113272"><ele>21.0</ele><time>2026-04-18T07:59:47Z</time></trkpt><trkpt lat="37.58363294045781" lon="12.925955908320624"><ele>21.333333333333332</ele><time>2026-04-18T07:59:48Z</time></trkpt><trkpt lat="37.58357615555693" lon="12.925793557122857"><ele>21.666666666666664</ele><time>2026-04-18T07:59:49Z</time></trkpt><trkpt lat="37.58352186738064" lon="12.925587795637162"><ele>22.0</ele><time>2026-04-18T07:59:50Z</time></trkpt><trkpt lat="37.58346492114682" lon="12.92533961181508"><ele>22.0</ele><time>2026-04-18T07:59:51Z</time></trkpt><trkpt lat="37.583400407226065" lon="12.925071334738245"><ele>22.0</ele><time>2026-04-18T07:59:52Z</time></trkpt><trkpt lat="37.583334514033545" lon="12.924800483036474"><ele>22.0</ele><time>2026-04-18T07:59:53Z</time></trkpt><trkpt lat="37.58326348916545" lon="12.924509000833197"><ele>23.0</ele><time>2026-04-18T07:59:54Z</time></trkpt><trkpt lat="37.5831930767612" lon="12.924227406776073"><ele>24.0</ele><time>2026-04-18T07:59:55Z</time></trkpt><trkpt lat="37.58312725439779" lon="12.92395655823945"><ele>24.0</ele><time>2026-04-18T07:59:56Z</time></trkpt><trkpt lat="37.583063493581975" lon="12.923694444634688"><ele>24.0</ele><time>2026-04-18T07:59:57Z</time></trkpt><trkpt lat="37.58300183915119" lon="12.923442774901853"><ele>24.0</ele><time>2026-04-18T07:59:58Z</time></trkpt><trkpt lat="37.58294180936823" lon="12.923208236444665"><ele>23.666666666666668</ele><time>2026-04-18T07:59:59Z</time></trkpt><trkpt lat="37.58287661110546" lon="12.92298813464706"><ele>23.333333333333336</ele><time>2026-04-18T08:00:00Z</time></trkpt><trkpt lat="37.582795020706804" lon="12.92278016173419"><ele>23.0</ele><time>2026-04-18T08:00:01Z</time></trkpt><trkpt lat="37.582691168888054" lon="12.922575180293212"><ele>22.333333333333336</ele><time>2026-04-18T08:00:02Z</time></trkpt><trkpt lat="37.58257529457441" lon="12.922375148065898"><ele>21.666666666666668</ele><time>2026-04-18T08:00:03Z</time></trkpt><trkpt lat="37.58245188593596" lon="12.922169281853101"><ele>21.0</ele><time>2026-04-18T08:00:04Z</time></trkpt><trkpt lat="37.582319973365195" lon="12.921944689871681"><ele>19.5</ele><time>2026-04-18T08:00:05Z</time></trkpt><trkpt lat="37.58218725281255" lon="12.921709612575642"><ele>18.0</ele><time>2026-04-18T08:00:06Z</time></trkpt><trkpt lat="37.58205445353545" lon="12.92147763697808"><ele>20.5</ele><time>2026-04-18T08:00:07Z</time></trkpt><trkpt lat="37.58191449709277" lon="12.92123182165804"><ele>23.0</ele><time>2026-04-18T08:00:08Z</time></trkpt><trkpt lat="37.58177043116928" lon="12.920979981543043"><ele>21.5</ele><time>2026-04-18T08:00:09Z</time></trkpt><trkpt lat="37.58162614345238" lon="12.920730260392471"><ele>20.0</ele><time>2026-04-18T08:00:10Z</time></trkpt><trkpt lat="37.58148624326873" lon="12.92048959898647"><ele>20.0</ele><time>2026-04-18T08:00:11Z</time></trkpt><trkpt lat="37.581343625680205" lon="12.920249414769257"><ele>20.0</ele><time>2026-04-18T08:00:12Z</time></trkpt><trkpt lat="37.5812171146247" lon="12.91999972288136"><ele>18.0</ele><time>2026-04-18T08:00:13Z</time></trkpt><trkpt lat="37.58106609264363" lon="12.919775546532504"><ele>16.0</ele><time>2026-04-18T08:00:14Z</time></trkpt><trkpt lat="37.58093132701543" lon="12.919540607672104"><ele>16.0</ele><time>2026-04-18T08:00:15Z</time></trkpt><trkpt lat="37.580796085996035" lon="12.919311273104563"><ele>16.0</ele><time>2026-04-18T08:00:16Z</time></trkpt><trkpt lat="37.58066235977623" lon="12.919081098847643"><ele>16.333333333333332</ele><time>2026-04-18T08:00:17Z</time></trkpt><trkpt lat="37.580535367556" lon="12.91885738276609"><ele>16.666666666666668</ele><time>2026-04-18T08:00:18Z</time></trkpt><trkpt lat="37.58040758390268" lon="12.918636297806804"><ele>17.0</ele><time>2026-04-18T08:00:19Z</time></trkpt><trkpt lat="37.5802840762584" lon="12.918422433229297"><ele>15.333333333333334</ele><time>2026-04-18T08:00:20Z</time></trkpt><trkpt lat="37.58016592829993" lon="12.918215804091174"><ele>13.666666666666668</ele><time>2026-04-18T08:00:21Z</time></trkpt><trkpt lat="37.58005418792549" lon="12.918019945929624"><ele>12.0</ele><time>2026-04-18T08:00:22Z</time></trkpt><trkpt lat="37.57994125400381" lon="12.917823821128849"><ele>12.0</ele><time>2026-04-18T08:00:23Z</time></trkpt><trkpt lat="37.57983314446539" lon="12.91764026345796"><ele>12.0</ele><time>2026-04-18T08:00:24Z</time></trkpt><trkpt lat="37.57973552783207" lon="12.917463044818195"><ele>12.0</ele><time>2026-04-18T08:00:25Z</time></trkpt><trkpt lat="37.57964563558949" lon="12.917286384135274"><ele>12.0</ele><time>2026-04-18T08:00:26Z</time></trkpt><trkpt lat="37.57956791181177" lon="12.91710162508155"><ele>12.0</ele><time>2026-04-18T08:00:27Z</time></trkpt><trkpt lat="37.57950077851311" lon="12.916896881938333"><ele>12.0</ele><time>2026-04-18T08:00:28Z</time></trkpt><trkpt lat="37.57945214542478" lon="12.916668381182026"><ele>12.0</ele><time>2026-04-18T08:00:29Z</time></trkpt><trkpt lat="37.57939217234667" lon="12.916425563506385"><ele>12.0</ele><time>2026-04-18T08:00:30Z</time></trkpt><trkpt lat="37.5793316996671" lon="12.916170266651923"><ele>12.0</ele><time>2026-04-18T08:00:31Z</time></trkpt><trkpt lat="37.579272824063075" lon="12.915915229029554"><ele>11.333333333333334</ele><time>2026-04-18T08:00:32Z</time></trkpt><trkpt lat="37.579216163722755" lon="12.915668889865916"><ele>10.666666666666668</ele><time>2026-04-18T08:00:33Z</time></trkpt><trkpt lat="37.57916164099261" lon="12.915431844279865"><ele>10.0</ele><time>2026-04-18T08:00:34Z</time></trkpt><trkpt lat="37.579109834554906" lon="12.915202910941398"><ele>10.0</ele><time>2026-04-18T08:00:35Z</time></trkpt><trkpt lat="37.5790592864669" lon="12.914978622133283"><ele>10.0</ele><time>2026-04-18T08:00:36Z</time></trkpt><trkpt lat="37.579010604516185" lon="12.914761073171174"><ele>10.0</ele><time>2026-04-18T08:00:37Z</time></trkpt><trkpt lat="37.578956635619036" lon="12.914547652497378"><ele>10.0</ele><time>2026-04-18T08:00:38Z</time></trkpt><trkpt lat="37.57889811249424" lon="12.91434204570895"><ele>10.0</ele><time>2026-04-18T08:00:39Z</time></trkpt><trkpt lat="37.578836357585175" lon="12.914143131027403"><ele>10.0</ele><time>2026-04-18T08:00:40Z</time></trkpt><trkpt lat="37.57877475621941" lon="12.913948420036624"><ele>10.666666666666668</ele><time>2026-04-18T08:00:41Z</time></trkpt><trkpt lat="37.578716222577825" lon="12.913763405576935"><ele>11.333333333333334</ele><time>2026-04-18T08:00:42Z</time></trkpt><trkpt lat="37.57865909266396" lon="12.913582828054189"><ele>12.0</ele><time>2026-04-18T08:00:43Z</time></trkpt><trkpt lat="37.57860410531235" lon="12.913409022788825"><ele>12.5</ele><time>2026-04-18T08:00:44Z</time></trkpt><trkpt lat="37.578548833446796" lon="12.91323983604718"><ele>13.0</ele><time>2026-04-18T08:00:45Z</time></trkpt><trkpt lat="37.57849781002029" lon="12.913083716254517"><ele>13.5</ele><time>2026-04-18T08:00:46Z</time></trkpt><trkpt lat="37.57845449706493" lon="12.912945894256952"><ele>14.0</ele><time>2026-04-18T08:00:47Z</time></trkpt><trkpt lat="37.57841747634874" lon="12.912828094187969"><ele>14.0</ele><time>2026-04-18T08:00:48Z</time></trkpt><trkpt lat="37.57839208455685" lon="12.912735128244064"><ele>13.999999999999998</ele><time>2026-04-18T08:00:49Z</time></trkpt><trkpt lat="37.57836916046418" lon="12.91258944443263"><ele>13.999999999999998</ele><time>2026-04-18T08:00:51Z</time></trkpt><trkpt lat="37.57832229053979" lon="12.912476816449505"><ele>14.0</ele><time>2026-04-18T08:00:53Z</time></trkpt><trkpt lat="37.57831316781574" lon="12.91236623559954"><ele>14.0</ele><time>2026-04-18T08:00:55Z</time></trkpt><trkpt lat="37.57831237983172" lon="12.912272553834812"><ele>14.2</ele><time>2026-04-18T08:00:57Z</time></trkpt><trkpt lat="37.57830173604805" lon="12.912143821643394"><ele>14.399999999999999</ele><time>2026-04-18T08:00:59Z</time></trkpt><trkpt lat="37.578278099181546" lon="12.912014321494084"><ele>14.6</ele><time>2026-04-18T08:01:01Z</time></trkpt><trkpt lat="37.57825836254353" lon="12.911888189591362"><ele>14.8</ele><time>2026-04-18T08:01:03Z</time></trkpt><trkpt lat="37.57824259779748" lon="12.91175697909045"><ele>15.0</ele><time>2026-04-18T08:01:05Z</time></trkpt><trkpt lat="37.57822737289493" lon="12.911616876823391"><ele>14.666666666666666</ele><time>2026-04-18T08:01:07Z</time></trkpt><trkpt lat="37.57821458615142" lon="12.911472472288095"><ele>14.333333333333332</ele><time>2026-04-18T08:01:09Z</time></trkpt><trkpt lat="37.57819168781984" lon="12.911319389104902"><ele>14.0</ele><time>2026-04-18T08:01:11Z</time></trkpt><trkpt lat="37.578179515826626" lon="12.911237651265823"><ele>13.666666666666666</ele><time>2026-04-18T08:01:12Z</time></trkpt><trkpt lat="37.57816605334783" lon="12.911154740444287"><ele>13.333333333333332</ele><time>2026-04-18T08:01:13Z</time></trkpt><trkpt lat="37.578152183424045" lon="12.911062392936019"><ele>13.0</ele><time>2026-04-18T08:01:14Z</time></trkpt><trkpt lat="37.57812693365848" lon="12.91093763081365"><ele>14.0</ele><time>2026-04-18T08:01:15Z</time></trkpt><trkpt lat="37.57810482025349" lon="12.91078273931771"><ele>15.0</ele><time>2026-04-18T08:01:16Z</time></trkpt><trkpt lat="37.57804494986837" lon="12.91060661971862"><ele>16.0</ele><time>2026-04-18T08:01:17Z</time></trkpt><trkpt lat="37.57796611838528" lon="12.910426293073874"><ele>17.0</ele><time>2026-04-18T08:01:18Z</time></trkpt><trkpt lat="37.57790278184838" lon="12.910189479500016"><ele>14.0</ele><time>2026-04-18T08:01:19Z</time></trkpt><trkpt lat="37.57783771119913" lon="12.90992735868635"><ele>11.0</ele><time>2026-04-18T08:01:20Z</time></trkpt><trkpt lat="37.57778484134429" lon="12.909645800461778"><ele>8.0</ele><time>2026-04-18T08:01:21Z</time></trkpt><trkpt lat="37.57773413184021" lon="12.90939700538761"><ele>8.0</ele><time>2026-04-18T08:01:22Z</time></trkpt><trkpt lat="37.57767967405404" lon="12.909169214979794"><ele>8.0</ele><time>2026-04-18T08:01:23Z</time></trkpt><trkpt lat="37.57762972658574" lon="12.90895651804254"><ele>8.0</ele><time>2026-04-18T08:01:24Z</time></trkpt><trkpt lat="37.57758772520107" lon="12.908756855824361"><ele>8.0</ele><time>2026-04-18T08:01:25Z</time></trkpt><trkpt lat="37.57755612187221" lon="12.908567835675676"><ele>8.0</ele><time>2026-04-18T08:01:26Z</time></trkpt><trkpt lat="37.57751725407094" lon="12.908394177357284"><ele>8.0</ele><time>2026-04-18T08:01:27Z</time></trkpt><trkpt lat="37.57745987794631" lon="12.90822730204625"><ele>8.0</ele><time>2026-04-18T08:01:28Z</time></trkpt><trkpt lat="37.577388073558716" lon="12.908064253812597"><ele>9.0</ele><time>2026-04-18T08:01:29Z</time></trkpt><trkpt lat="37.57730774489313" lon="12.90790085654925"><ele>10.0</ele><time>2026-04-18T08:01:30Z</time></trkpt><trkpt lat="37.577235931232934" lon="12.907741251705112"><ele>11.0</ele><time>2026-04-18T08:01:31Z</time></trkpt><trkpt lat="37.577163723255" lon="12.907589227756688"><ele>12.0</ele><time>2026-04-18T08:01:32Z</time></trkpt><trkpt lat="37.57709327280634" lon="12.907441476942168"><ele>13.25</ele><time>2026-04-18T08:01:33Z</time></trkpt><trkpt lat="37.577028026516025" lon="12.907299255550981"><ele>14.5</ele><time>2026-04-18T08:01:34Z</time></trkpt><trkpt lat="37.57695634773585" lon="12.907160115324668"><ele>15.75</ele><time>2026-04-18T08:01:35Z</time></trkpt><trkpt lat="37.57687686292272" lon="12.90702682591613"><ele>17.0</ele><time>2026-04-18T08:01:36Z</time></trkpt><trkpt lat="37.576789883610935" lon="12.906899547775664"><ele>16.0</ele><time>2026-04-18T08:01:37Z</time></trkpt><trkpt lat="37.576720662773354" lon="12.906753253678103"><ele>15.0</ele><time>2026-04-18T08:01:38Z</time></trkpt><trkpt lat="37.57662987166731" lon="12.906640638494522"><ele>14.0</ele><time>2026-04-18T08:01:39Z</time></trkpt><trkpt lat="37.57654937035517" lon="12.906531394766803"><ele>13.0</ele><time>2026-04-18T08:01:40Z</time></trkpt><trkpt lat="37.57647280205346" lon="12.90643780989019"><ele>13.0</ele><time>2026-04-18T08:01:41Z</time></trkpt><trkpt lat="37.5764087104107" lon="12.906373716730702"><ele>13.0</ele><time>2026-04-18T08:01:42Z</time></trkpt><trkpt lat="37.57632961603523" lon="12.906258299014922"><ele>13.0</ele><time>2026-04-18T08:01:44Z</time></trkpt><trkpt lat="37.576189332507255" lon="12.90630141474482"><ele>13.0</ele><time>2026-04-18T08:01:45Z</time></trkpt><trkpt lat="37.57609950786514" lon="12.906368159354482"><ele>11.5</ele><time>2026-04-18T08:01:46Z</time></trkpt><trkpt lat="37.57597627412967" lon="12.906449984728763"><ele>10.0</ele><time>2026-04-18T08:01:47Z</time></trkpt><trkpt lat="37.575863959132334" lon="12.906543560474837"><ele>8.5</ele><time>2026-04-18T08:01:48Z</time></trkpt><trkpt lat="37.57577192118003" lon="12.906644644914694"><ele>7.0</ele><time>2026-04-18T08:01:49Z</time></trkpt><trkpt lat="37.5756789536536" lon="12.906758864814117"><ele>6.500000000000001</ele><time>2026-04-18T08:01:50Z</time></trkpt><trkpt lat="37.57558718524116" lon="12.906827500828506"><ele>6.0</ele><time>2026-04-18T08:01:51Z</time></trkpt><trkpt lat="37.57551714601789" lon="12.906895904518688"><ele>5.5</ele><time>2026-04-18T08:01:52Z</time></trkpt><trkpt lat="37.57546602511419" lon="12.90696387949112"><ele>5.0</ele><time>2026-04-18T08:01:53Z</time></trkpt><trkpt lat="37.57538082452786" lon="12.907010812824087"><ele>4.5</ele><time>2026-04-18T08:01:55Z</time></trkpt><trkpt lat="37.57530195849393" lon="12.907050977384623"><ele>4.0</ele><time>2026-04-18T08:01:58Z</time></trkpt><trkpt lat="37.57516074834106" lon="12.906821725825516"><ele>3.9999999999999996</ele><time>2026-04-18T08:01:59Z</time></trkpt><trkpt lat="37.57507010917154" lon="12.90678359628651"><ele>4.0</ele><time>2026-04-18T08:02:00Z</time></trkpt><trkpt lat="37.57499955794188" lon="12.906715298070043"><ele>4.0</ele><time>2026-04-18T08:02:01Z</time></trkpt><trkpt lat="37.57493486679147" lon="12.906646691458667"><ele>4.0</ele><time>2026-04-18T08:02:02Z</time></trkpt><trkpt lat="37.57487684678913" lon="12.906580443696889"><ele>3.9999999999999996</ele><time>2026-04-18T08:02:03Z</time></trkpt><trkpt lat="37.57482018970774" lon="12.906517595100322"><ele>4.0</ele><time>2026-04-18T08:02:04Z</time></trkpt><trkpt lat="37.57476364220433" lon="12.906461759063768"><ele>3.9999999999999996</ele><time>2026-04-18T08:02:05Z</time></trkpt><trkpt lat="37.574712861065485" lon="12.906406715369384"><ele>4.0</ele><time>2026-04-18T08:02:06Z</time></trkpt><trkpt lat="37.57465953194987" lon="12.906353444269874"><ele>4.0</ele><time>2026-04-18T08:02:07Z</time></trkpt><trkpt lat="37.574608493933894" lon="12.906303755629635"><ele>4.0</ele><time>2026-04-18T08:02:08Z</time></trkpt><trkpt lat="37.574569931524515" lon="12.906237026069142"><ele>3.9999999999999996</ele><time>2026-04-18T08:02:09Z</time></trkpt><trkpt lat="37.57449370675388" lon="12.906136396788114"><ele>4.0</ele><time>2026-04-18T08:02:11Z</time></trkpt><trkpt lat="37.5744244162433" lon="12.906037808557992"><ele>3.8000000000000003</ele><time>2026-04-18T08:02:13Z</time></trkpt><trkpt lat="37.57434926485074" lon="12.905959048213653"><ele>3.6000000000000005</ele><time>2026-04-18T08:02:15Z</time></trkpt><trkpt lat="37.574257354376066" lon="12.905899020390743"><ele>3.4</ele><time>2026-04-18T08:02:17Z</time></trkpt><trkpt lat="37.57420248382817" lon="12.905840202134113"><ele>3.2</ele><time>2026-04-18T08:02:19Z</time></trkpt><trkpt lat="37.57417858790248" lon="12.90596112335417"><ele>3.0</ele><time>2026-04-18T08:02:23Z</time></trkpt><trkpt lat="37.574253348613986" lon="12.906017165674522"><ele>3.0</ele><time>2026-04-18T08:02:26Z</time></trkpt><trkpt lat="37.574368174752934" lon="12.906115469261927"><ele>3.0</ele><time>2026-04-18T08:02:28Z</time></trkpt><trkpt lat="37.57442374803802" lon="12.906176078201064"><ele>3.0</ele><time>2026-04-18T08:02:29Z</time></trkpt><trkpt lat="37.57448285425934" lon="12.906235892551143"><ele>3.0</ele><time>2026-04-18T08:02:30Z</time></trkpt><trkpt lat="37.57453859165727" lon="12.906301243623751"><ele>3.0</ele><time>2026-04-18T08:02:31Z</time></trkpt><trkpt lat="37.57457765179325" lon="12.906378010119923"><ele>3.0</ele><time>2026-04-18T08:02:32Z</time></trkpt><trkpt lat="37.574645623178746" lon="12.906457244951026"><ele>4.0</ele><time>2026-04-18T08:02:34Z</time></trkpt></trkseg><trkseg><trkpt lat="37.57514018568916" lon="12.90680754930983"><ele>4.0</ele><time>2026-04-18T08:16:37.001Z</time></trkpt><trkpt lat="37.57519169248415" lon="12.906860439118843"><ele>4.0</ele><time>2026-04-18T08:16:39.001Z</time></trkpt><trkpt lat="37.57524282209349" lon="12.906908048328857"><ele>4.0</ele><time>2026-04-18T08:16:41.001Z</time></trkpt><trkpt lat="37.57530945822371" lon="12.90695121513019"><ele>4.0</ele><time>2026-04-18T08:16:43.001Z</time></trkpt><trkpt lat="37.57532160595877" lon="12.907060607684723"><ele>4.0</ele><time>2026-04-18T08:16:45.001Z</time></trkpt><trkpt lat="37.57547874991018" lon="12.906972026440409"><ele>3.9999999999999996</ele><time>2026-04-18T08:16:50.001Z</time></trkpt><trkpt lat="37.57555416264263" lon="12.90691280418781"><ele>4.0</ele><time>2026-04-18T08:16:52.001Z</time></trkpt><trkpt lat="37.57564383162523" lon="12.906824488850283"><ele>4.0</ele><time>2026-04-18T08:16:54Z</time></trkpt><trkpt lat="37.575693360084855" lon="12.906774883366321"><ele>4.0</ele><time>2026-04-18T08:16:55Z</time></trkpt><trkpt lat="37.57575572485416" lon="12.90669457682434"><ele>3.9999999999999996</ele><time>2026-04-18T08:16:56Z</time></trkpt><trkpt lat="37.57581440530254" lon="12.906640568527791"><ele>4.0</ele><time>2026-04-18T08:16:57Z</time></trkpt><trkpt lat="37.57586991584964" lon="12.90658469269523"><ele>4.5</ele><time>2026-04-18T08:16:58Z</time></trkpt><trkpt lat="37.575927562502365" lon="12.906532197231712"><ele>5.0</ele><time>2026-04-18T08:16:59Z</time></trkpt><trkpt lat="37.57598802152841" lon="12.906477665816697"><ele>5.5</ele><time>2026-04-18T08:17:00Z</time></trkpt><trkpt lat="37.57606151852987" lon="12.906431258949429"><ele>6.0</ele><time>2026-04-18T08:17:01Z</time></trkpt><trkpt lat="37.576143495600725" lon="12.90640300751078"><ele>6.500000000000001</ele><time>2026-04-18T08:17:02Z</time></trkpt><trkpt lat="37.57620145111266" lon="12.906363911644048"><ele>7.0</ele><time>2026-04-18T08:17:03Z</time></trkpt><trkpt lat="37.57628478397985" lon="12.906314434509568"><ele>6.8</ele><time>2026-04-18T08:17:05Z</time></trkpt><trkpt lat="37.576351663503246" lon="12.906518247129462"><ele>6.6</ele><time>2026-04-18T08:17:06Z</time></trkpt><trkpt lat="37.57640598867339" lon="12.906585780419977"><ele>6.3999999999999995</ele><time>2026-04-18T08:17:07Z</time></trkpt><trkpt lat="37.57648019802486" lon="12.90666750782628"><ele>6.199999999999999</ele><time>2026-04-18T08:17:08Z</time></trkpt><trkpt lat="37.576539476362385" lon="12.906750091437978"><ele>6.0</ele><time>2026-04-18T08:17:09Z</time></trkpt><trkpt lat="37.576603017615795" lon="12.906835216575397"><ele>6.0</ele><time>2026-04-18T08:17:10Z</time></trkpt><trkpt lat="37.57666210437941" lon="12.906925697186969"><ele>6.0</ele><time>2026-04-18T08:17:11Z</time></trkpt><trkpt lat="37.57671600486123" lon="12.90702612589061"><ele>6.0</ele><time>2026-04-18T08:17:12Z</time></trkpt><trkpt lat="37.57676652413915" lon="12.907132807011635"><ele>6.0</ele><time>2026-04-18T08:17:13Z</time></trkpt><trkpt lat="37.576822371669756" lon="12.907243382763038"><ele>6.0</ele><time>2026-04-18T08:17:14Z</time></trkpt><trkpt lat="37.57688150318274" lon="12.907353824538193"><ele>6.0</ele><time>2026-04-18T08:17:15Z</time></trkpt><trkpt lat="37.576946024304895" lon="12.90747175566497"><ele>6.0</ele><time>2026-04-18T08:17:16Z</time></trkpt><trkpt lat="37.57700987167979" lon="12.907584547934325"><ele>6.0</ele><time>2026-04-18T08:17:17Z</time></trkpt><trkpt lat="37.57707085782928" lon="12.90769800596241"><ele>6.0</ele><time>2026-04-18T08:17:18Z</time></trkpt><trkpt lat="37.57713023769229" lon="12.90780801696695"><ele>6.0</ele><time>2026-04-18T08:17:19Z</time></trkpt><trkpt lat="37.577187538476196" lon="12.907917901218545"><ele>6.4</ele><time>2026-04-18T08:17:20Z</time></trkpt><trkpt lat="37.57724538946509" lon="12.908027012102826"><ele>6.8</ele><time>2026-04-18T08:17:21Z</time></trkpt><trkpt lat="37.57730340474988" lon="12.908136001938793"><ele>7.200000000000001</ele><time>2026-04-18T08:17:22Z</time></trkpt><trkpt lat="37.577357323675876" lon="12.908248197018882"><ele>7.6000000000000005</ele><time>2026-04-18T08:17:23Z</time></trkpt><trkpt lat="37.57738748278211" lon="12.908372690580007"><ele>8.0</ele><time>2026-04-18T08:17:24Z</time></trkpt><trkpt lat="37.57741177231866" lon="12.9085057738087"><ele>8.0</ele><time>2026-04-18T08:17:25Z</time></trkpt><trkpt lat="37.57743725610639" lon="12.908643500950847"><ele>8.0</ele><time>2026-04-18T08:17:26Z</time></trkpt><trkpt lat="37.57746629542581" lon="12.908777180774752"><ele>8.0</ele><time>2026-04-18T08:17:27Z</time></trkpt><trkpt lat="37.57749430859001" lon="12.908917359858437"><ele>8.0</ele><time>2026-04-18T08:17:28Z</time></trkpt><trkpt lat="37.577521566933434" lon="12.909060556157389"><ele>8.0</ele><time>2026-04-18T08:17:29Z</time></trkpt><trkpt lat="37.577553116744994" lon="12.909205539469223"><ele>8.0</ele><time>2026-04-18T08:17:30Z</time></trkpt><trkpt lat="37.57757875590264" lon="12.909350005729827"><ele>8.0</ele><time>2026-04-18T08:17:31Z</time></trkpt><trkpt lat="37.57760685749606" lon="12.909489556744152"><ele>8.0</ele><time>2026-04-18T08:17:32Z</time></trkpt><trkpt lat="37.57764179987487" lon="12.90962946058146"><ele>8.0</ele><time>2026-04-18T08:17:33Z</time></trkpt><trkpt lat="37.5776688041873" lon="12.909767575538043"><ele>8.0</ele><time>2026-04-18T08:17:34Z</time></trkpt><trkpt lat="37.57769407317719" lon="12.909907942380242"><ele>8.0</ele><time>2026-04-18T08:17:35Z</time></trkpt><trkpt lat="37.57772294514868" lon="12.910039783609779"><ele>8.0</ele><time>2026-04-18T08:17:36Z</time></trkpt><trkpt lat="37.577753923377685" lon="12.910175064529069"><ele>8.0</ele><time>2026-04-18T08:17:37Z</time></trkpt><trkpt lat="37.57778182063519" lon="12.910303736273624"><ele>7.5</ele><time>2026-04-18T08:17:38Z</time></trkpt><trkpt lat="37.57781043489544" lon="12.910438319726879"><ele>7.0</ele><time>2026-04-18T08:17:39Z</time></trkpt><trkpt lat="37.577837222323005" lon="12.910576494988481"><ele>6.5</ele><time>2026-04-18T08:17:40Z</time></trkpt><trkpt lat="37.57786667198265" lon="12.91071421744407"><ele>6.0</ele><time>2026-04-18T08:17:41Z</time></trkpt><trkpt lat="37.57789670947834" lon="12.91085591456659"><ele>7.75</ele><time>2026-04-18T08:17:42Z</time></trkpt><trkpt lat="37.577920712910164" lon="12.911003443763038"><ele>9.5</ele><time>2026-04-18T08:17:43Z</time></trkpt><trkpt lat="37.5779552054933" lon="12.911142288895103"><ele>11.25</ele><time>2026-04-18T08:17:44Z</time></trkpt><trkpt lat="37.57798713815821" lon="12.911287902866528"><ele>13.0</ele><time>2026-04-18T08:17:45Z</time></trkpt><trkpt lat="37.57801062449927" lon="12.91142817189298"><ele>13.0</ele><time>2026-04-18T08:17:46Z</time></trkpt><trkpt lat="37.57804334111118" lon="12.911570257550013"><ele>13.0</ele><time>2026-04-18T08:17:47Z</time></trkpt><trkpt lat="37.57807292753852" lon="12.911704969771128"><ele>13.0</ele><time>2026-04-18T08:17:48Z</time></trkpt><trkpt lat="37.57810045704989" lon="12.911841314194783"><ele>13.0</ele><time>2026-04-18T08:17:49Z</time></trkpt><trkpt lat="37.57812739769243" lon="12.911973429980454"><ele>13.0</ele><time>2026-04-18T08:17:50Z</time></trkpt><trkpt lat="37.57815575446614" lon="12.912104223613772"><ele>13.2</ele><time>2026-04-18T08:17:51Z</time></trkpt><trkpt lat="37.578195368752944" lon="12.91222324991701"><ele>13.4</ele><time>2026-04-18T08:17:52Z</time></trkpt><trkpt lat="37.57824927316934" lon="12.912315992658918"><ele>13.599999999999998</ele><time>2026-04-18T08:17:53Z</time></trkpt><trkpt lat="37.57828357186598" lon="12.912399525416873"><ele>13.799999999999999</ele><time>2026-04-18T08:17:54Z</time></trkpt><trkpt lat="37.578331091451936" lon="12.91249594890419"><ele>14.0</ele><time>2026-04-18T08:17:56Z</time></trkpt><trkpt lat="37.578374416391846" lon="12.912609198529008"><ele>14.000000000000002</ele><time>2026-04-18T08:17:58Z</time></trkpt><trkpt lat="37.57835194839559" lon="12.912705012086416"><ele>14.0</ele><time>2026-04-18T08:17:59Z</time></trkpt><trkpt lat="37.5783724361834" lon="12.912793419296845"><ele>14.0</ele><time>2026-04-18T08:18:00Z</time></trkpt><trkpt lat="37.57839979146823" lon="12.91289138281392"><ele>14.0</ele><time>2026-04-18T08:18:01Z</time></trkpt><trkpt lat="37.57843326518613" lon="12.912992382713458"><ele>14.000000000000002</ele><time>2026-04-18T08:18:02Z</time></trkpt><trkpt lat="37.57846537211699" lon="12.913094547097915"><ele>14.0</ele><time>2026-04-18T08:18:03Z</time></trkpt><trkpt lat="37.578498931459386" lon="12.91319858617031"><ele>14.0</ele><time>2026-04-18T08:18:04Z</time></trkpt><trkpt lat="37.57853512142885" lon="12.913307102864197"><ele>13.999999999999998</ele><time>2026-04-18T08:18:05Z</time></trkpt><trkpt lat="37.578572178007654" lon="12.913418218214824"><ele>13.999999999999998</ele><time>2026-04-18T08:18:06Z</time></trkpt><trkpt lat="37.578607499839414" lon="12.913533144210964"><ele>14.0</ele><time>2026-04-18T08:18:07Z</time></trkpt><trkpt lat="37.57864402942678" lon="12.913648607756013"><ele>14.0</ele><time>2026-04-18T08:18:08Z</time></trkpt><trkpt lat="37.57868145686924" lon="12.913766909268654"><ele>14.0</ele><time>2026-04-18T08:18:09Z</time></trkpt><trkpt lat="37.578718450936236" lon="12.91388384095543"><ele>13.999999999999998</ele><time>2026-04-18T08:18:10Z</time></trkpt><trkpt lat="37.57877130264892" lon="12.9140003861735"><ele>13.999999999999998</ele><time>2026-04-18T08:18:11Z</time></trkpt><trkpt lat="37.57881183422761" lon="12.914126956595771"><ele>14.0</ele><time>2026-04-18T08:18:12Z</time></trkpt><trkpt lat="37.57883836711696" lon="12.914262874741489"><ele>14.0</ele><time>2026-04-18T08:18:13Z</time></trkpt><trkpt lat="37.57887824941538" lon="12.914394906413122"><ele>13.0</ele><time>2026-04-18T08:18:14Z</time></trkpt><trkpt lat="37.578915618687894" lon="12.914526460401884"><ele>12.0</ele><time>2026-04-18T08:18:15Z</time></trkpt><trkpt lat="37.57895386691061" lon="12.914665370673937"><ele>11.0</ele><time>2026-04-18T08:18:16Z</time></trkpt><trkpt lat="37.57899638827755" lon="12.914799836999341"><ele>10.0</ele><time>2026-04-18T08:18:17Z</time></trkpt><trkpt lat="37.57902634716838" lon="12.914943056432323"><ele>10.0</ele><time>2026-04-18T08:18:18Z</time></trkpt><trkpt lat="37.5790566421546" lon="12.915084910620745"><ele>10.0</ele><time>2026-04-18T08:18:19Z</time></trkpt><trkpt lat="37.579090959593515" lon="12.915224010804277"><ele>10.0</ele><time>2026-04-18T08:18:20Z</time></trkpt><trkpt lat="37.57912782995186" lon="12.91536585717738"><ele>10.0</ele><time>2026-04-18T08:18:21Z</time></trkpt><trkpt lat="37.579145828041796" lon="12.915513963066442"><ele>10.0</ele><time>2026-04-18T08:18:22Z</time></trkpt><trkpt lat="37.579178396825654" lon="12.915655560639832"><ele>10.0</ele><time>2026-04-18T08:18:23Z</time></trkpt><trkpt lat="37.5792109427905" lon="12.915797059007195"><ele>10.0</ele><time>2026-04-18T08:18:24Z</time></trkpt><trkpt lat="37.579244352618616" lon="12.915942313147898"><ele>10.0</ele><time>2026-04-18T08:18:25Z</time></trkpt><trkpt lat="37.579277558540326" lon="12.916086680772594"><ele>10.5</ele><time>2026-04-18T08:18:26Z</time></trkpt><trkpt lat="37.57932645830277" lon="12.916233396626001"><ele>11.0</ele><time>2026-04-18T08:18:27Z</time></trkpt><trkpt lat="37.5793512342704" lon="12.916384303576741"><ele>11.5</ele><time>2026-04-18T08:18:28Z</time></trkpt><trkpt lat="37.57938979867606" lon="12.916530353774704"><ele>12.0</ele><time>2026-04-18T08:18:29Z</time></trkpt><trkpt lat="37.57943150197153" lon="12.916676722515426"><ele>12.5</ele><time>2026-04-18T08:18:30Z</time></trkpt><trkpt lat="37.5794724845432" lon="12.916820815006268"><ele>13.0</ele><time>2026-04-18T08:18:31Z</time></trkpt><trkpt lat="37.57951265326974" lon="12.916959957106174"><ele>13.5</ele><time>2026-04-18T08:18:32Z</time></trkpt><trkpt lat="37.57956433630315" lon="12.91710704607448"><ele>14.0</ele><time>2026-04-18T08:18:33Z</time></trkpt><trkpt lat="37.579614750916654" lon="12.917266533427723"><ele>13.333333333333334</ele><time>2026-04-18T08:18:34Z</time></trkpt><trkpt lat="37.579678153448214" lon="12.917421835309993"><ele>12.666666666666668</ele><time>2026-04-18T08:18:35Z</time></trkpt><trkpt lat="37.57977026515277" lon="12.917592605231846"><ele>12.0</ele><time>2026-04-18T08:18:36.001Z</time></trkpt><trkpt lat="37.57988561085988" lon="12.917787289089171"><ele>12.0</ele><time>2026-04-18T08:18:37.001Z</time></trkpt><trkpt lat="37.580018249904626" lon="12.918006655407284"><ele>12.0</ele><time>2026-04-18T08:18:38.001Z</time></trkpt><trkpt lat="37.58014695452871" lon="12.91823062532194"><ele>12.0</ele><time>2026-04-18T08:18:39.001Z</time></trkpt><trkpt lat="37.580278421364596" lon="12.91845913263375"><ele>12.5</ele><time>2026-04-18T08:18:40.001Z</time></trkpt><trkpt lat="37.5804164836031" lon="12.918693607273555"><ele>13.0</ele><time>2026-04-18T08:18:41.001Z</time></trkpt><trkpt lat="37.58055718198767" lon="12.918930775720973"><ele>13.0</ele><time>2026-04-18T08:18:42Z</time></trkpt><trkpt lat="37.580697429246264" lon="12.9191638393463"><ele>13.0</ele><time>2026-04-18T08:18:43Z</time></trkpt><trkpt lat="37.58083542792675" lon="12.919401124412808"><ele>14.5</ele><time>2026-04-18T08:18:44Z</time></trkpt><trkpt lat="37.58097389723412" lon="12.919641074342396"><ele>16.0</ele><time>2026-04-18T08:18:45Z</time></trkpt><trkpt lat="37.58111105208489" lon="12.919878821522996"><ele>18.0</ele><time>2026-04-18T08:18:46Z</time></trkpt><trkpt lat="37.58124765284597" lon="12.920113344367266"><ele>20.0</ele><time>2026-04-18T08:18:47Z</time></trkpt><trkpt lat="37.581379986419584" lon="12.920344201361"><ele>20.0</ele><time>2026-04-18T08:18:48Z</time></trkpt><trkpt lat="37.581509794923065" lon="12.920567116607124"><ele>20.0</ele><time>2026-04-18T08:18:49Z</time></trkpt><trkpt lat="37.58163962325721" lon="12.920787534138867"><ele>20.0</ele><time>2026-04-18T08:18:50Z</time></trkpt><trkpt lat="37.581770020971675" lon="12.92100379985853"><ele>19.333333333333336</ele><time>2026-04-18T08:18:51Z</time></trkpt><trkpt lat="37.58189569785472" lon="12.921219443679567"><ele>18.666666666666668</ele><time>2026-04-18T08:18:52Z</time></trkpt><trkpt lat="37.58201919340356" lon="12.921433065437048"><ele>18.0</ele><time>2026-04-18T08:18:53Z</time></trkpt><trkpt lat="37.58214063231356" lon="12.921643797985817"><ele>19.0</ele><time>2026-04-18T08:18:54Z</time></trkpt><trkpt lat="37.58225637737789" lon="12.921847148801174"><ele>20.0</ele><time>2026-04-18T08:18:55Z</time></trkpt><trkpt lat="37.58237071141314" lon="12.92204393536418"><ele>21.0</ele><time>2026-04-18T08:18:56Z</time></trkpt><trkpt lat="37.582481717612225" lon="12.922231606441079"><ele>21.0</ele><time>2026-04-18T08:18:57Z</time></trkpt><trkpt lat="37.582593213744005" lon="12.922413362464091"><ele>21.0</ele><time>2026-04-18T08:18:58Z</time></trkpt><trkpt lat="37.58269384120897" lon="12.922586236132968"><ele>21.0</ele><time>2026-04-18T08:18:59Z</time></trkpt><trkpt lat="37.58277943412822" lon="12.922762245967526"><ele>21.666666666666668</ele><time>2026-04-18T08:19:00Z</time></trkpt><trkpt lat="37.58286056647903" lon="12.922959181616772"><ele>22.333333333333336</ele><time>2026-04-18T08:19:01Z</time></trkpt><trkpt lat="37.58291381471589" lon="12.923191095425093"><ele>23.0</ele><time>2026-04-18T08:19:02Z</time></trkpt><trkpt lat="37.58298640592017" lon="12.923430679447895"><ele>23.5</ele><time>2026-04-18T08:19:03Z</time></trkpt><trkpt lat="37.58304866112737" lon="12.92369568457047"><ele>24.0</ele><time>2026-04-18T08:19:04Z</time></trkpt><trkpt lat="37.583117775820945" lon="12.923984538212592"><ele>23.0</ele><time>2026-04-18T08:19:05Z</time></trkpt><trkpt lat="37.583189070730725" lon="12.92426892325719"><ele>22.0</ele><time>2026-04-18T08:19:06Z</time></trkpt><trkpt lat="37.583257337490885" lon="12.924537840087899"><ele>22.0</ele><time>2026-04-18T08:19:07Z</time></trkpt><trkpt lat="37.583319027217456" lon="12.924790902760938"><ele>22.0</ele><time>2026-04-18T08:19:08Z</time></trkpt><trkpt lat="37.583375297822144" lon="12.925024854720105"><ele>22.0</ele><time>2026-04-18T08:19:09Z</time></trkpt><trkpt lat="37.583427825911386" lon="12.925246051963619"><ele>22.0</ele><time>2026-04-18T08:19:10Z</time></trkpt><trkpt lat="37.583479411350815" lon="12.925457613146488"><ele>22.0</ele><time>2026-04-18T08:19:11Z</time></trkpt><trkpt lat="37.58352963182258" lon="12.925646429026179"><ele>22.0</ele><time>2026-04-18T08:19:12Z</time></trkpt><trkpt lat="37.583575449686116" lon="12.925822242163246"><ele>22.25</ele><time>2026-04-18T08:19:13Z</time></trkpt><trkpt lat="37.583620709102746" lon="12.925971963425816"><ele>22.5</ele><time>2026-04-18T08:19:14Z</time></trkpt><trkpt lat="37.5836784459718" lon="12.926098934368484"><ele>22.75</ele><time>2026-04-18T08:19:15Z</time></trkpt><trkpt lat="37.58375179953841" lon="12.926206869214319"><ele>23.0</ele><time>2026-04-18T08:19:16Z</time></trkpt><trkpt lat="37.58385267577685" lon="12.926304074805008"><ele>22.333333333333336</ele><time>2026-04-18T08:19:17Z</time></trkpt><trkpt lat="37.58398706723726" lon="12.926382295345261"><ele>21.666666666666668</ele><time>2026-04-18T08:19:18Z</time></trkpt><trkpt lat="37.58412917229347" lon="12.926469289264798"><ele>21.0</ele><time>2026-04-18T08:19:19Z</time></trkpt><trkpt lat="37.58429388461811" lon="12.926564013963352"><ele>21.0</ele><time>2026-04-18T08:19:20Z</time></trkpt><trkpt lat="37.58448035759734" lon="12.926687989950398"><ele>21.0</ele><time>2026-04-18T08:19:21Z</time></trkpt><trkpt lat="37.58465092343329" lon="12.926797314628041"><ele>21.0</ele><time>2026-04-18T08:19:22Z</time></trkpt><trkpt lat="37.58480909723642" lon="12.926885622914698"><ele>19.666666666666668</ele><time>2026-04-18T08:19:23Z</time></trkpt><trkpt lat="37.58496509747381" lon="12.926952289568845"><ele>18.333333333333336</ele><time>2026-04-18T08:19:24Z</time></trkpt><trkpt lat="37.58512672027578" lon="12.926996403436073"><ele>17.0</ele><time>2026-04-18T08:19:25Z</time></trkpt><trkpt lat="37.585292221638156" lon="12.92701287313662"><ele>17.333333333333336</ele><time>2026-04-18T08:19:26Z</time></trkpt><trkpt lat="37.585456742045274" lon="12.927014690133214"><ele>17.666666666666668</ele><time>2026-04-18T08:19:27Z</time></trkpt><trkpt lat="37.58561882269452" lon="12.927008709231513"><ele>18.0</ele><time>2026-04-18T08:19:28Z</time></trkpt><trkpt lat="37.58577347205744" lon="12.927001949734098"><ele>18.0</ele><time>2026-04-18T08:19:29Z</time></trkpt><trkpt lat="37.585920451036976" lon="12.927005558275443"><ele>18.0</ele><time>2026-04-18T08:19:30Z</time></trkpt><trkpt lat="37.586063170938516" lon="12.927002418510792"><ele>18.0</ele><time>2026-04-18T08:19:31Z</time></trkpt><trkpt lat="37.586200253343364" lon="12.927014681504486"><ele>18.0</ele><time>2026-04-18T08:19:32Z</time></trkpt><trkpt lat="37.58632937622033" lon="12.92705300128622"><ele>17.75</ele><time>2026-04-18T08:19:33Z</time></trkpt><trkpt lat="37.58644958545556" lon="12.927125124269413"><ele>17.5</ele><time>2026-04-18T08:19:34Z</time></trkpt><trkpt lat="37.58654864488215" lon="12.927228316251163"><ele>17.25</ele><time>2026-04-18T08:19:35Z</time></trkpt><trkpt lat="37.586634925907155" lon="12.927353709188345"><ele>17.0</ele><time>2026-04-18T08:19:36Z</time></trkpt><trkpt lat="37.58672007341906" lon="12.92749261813642"><ele>17.666666666666668</ele><time>2026-04-18T08:19:37Z</time></trkpt><trkpt lat="37.58680717264837" lon="12.92763686282929"><ele>18.333333333333332</ele><time>2026-04-18T08:19:38Z</time></trkpt><trkpt lat="37.58690241707382" lon="12.927785935658104"><ele>19.0</ele><time>2026-04-18T08:19:39Z</time></trkpt><trkpt lat="37.58700210911851" lon="12.92794354433547"><ele>19.666666666666664</ele><time>2026-04-18T08:19:40Z</time></trkpt><trkpt lat="37.587109726544554" lon="12.92810937694136"><ele>20.333333333333332</ele><time>2026-04-18T08:19:41Z</time></trkpt><trkpt lat="37.5872189869705" lon="12.928274732828653"><ele>21.0</ele><time>2026-04-18T08:19:42Z</time></trkpt><trkpt lat="37.58732813943082" lon="12.92844045121779"><ele>19.666666666666668</ele><time>2026-04-18T08:19:43Z</time></trkpt><trkpt lat="37.58743339669795" lon="12.928607172944869"><ele>18.333333333333336</ele><time>2026-04-18T08:19:44Z</time></trkpt><trkpt lat="37.587534225194894" lon="12.928778001688295"><ele>17.0</ele><time>2026-04-18T08:19:45Z</time></trkpt><trkpt lat="37.58760369475903" lon="12.928969093851329"><ele>17.0</ele><time>2026-04-18T08:19:46Z</time></trkpt><trkpt lat="37.58767649204452" lon="12.929148610995169"><ele>17.0</ele><time>2026-04-18T08:19:47Z</time></trkpt><trkpt lat="37.587720193251684" lon="12.929342520956459"><ele>17.0</ele><time>2026-04-18T08:19:48Z</time></trkpt><trkpt lat="37.58775214946413" lon="12.929535646179508"><ele>17.0</ele><time>2026-04-18T08:19:49Z</time></trkpt><trkpt lat="37.587778341979494" lon="12.929726578991604"><ele>17.0</ele><time>2026-04-18T08:19:50Z</time></trkpt><trkpt lat="37.587803319666904" lon="12.929901683006294"><ele>17.0</ele><time>2026-04-18T08:19:51Z</time></trkpt><trkpt lat="37.58783074522229" lon="12.93006181304605"><ele>17.0</ele><time>2026-04-18T08:19:52Z</time></trkpt><trkpt lat="37.587853340063745" lon="12.930211833638447"><ele>17.0</ele><time>2026-04-18T08:19:53Z</time></trkpt><trkpt lat="37.587871757129804" lon="12.930349115693874"><ele>17.0</ele><time>2026-04-18T08:19:54Z</time></trkpt><trkpt lat="37.58788682446421" lon="12.930460916185858"><ele>17.0</ele><time>2026-04-18T08:19:55Z</time></trkpt><trkpt lat="37.587890005128926" lon="12.930550852424634"><ele>17.0</ele><time>2026-04-18T08:19:56Z</time></trkpt><trkpt lat="37.58784945930299" lon="12.93066853975786"><ele>17.0</ele><time>2026-04-18T08:19:58Z</time></trkpt><trkpt lat="37.587697853451175" lon="12.930633092824715"><ele>17.0</ele><time>2026-04-18T08:20:00Z</time></trkpt><trkpt lat="37.58760779034546" lon="12.930636126998381"><ele>17.0</ele><time>2026-04-18T08:20:01Z</time></trkpt><trkpt lat="37.58750552589362" lon="12.930611817448412"><ele>17.0</ele><time>2026-04-18T08:20:02Z</time></trkpt><trkpt lat="37.58739271594986" lon="12.930628129382404"><ele>17.0</ele><time>2026-04-18T08:20:03Z</time></trkpt><trkpt lat="37.58727664805682" lon="12.93068150483569"><ele>17.0</ele><time>2026-04-18T08:20:04Z</time></trkpt><trkpt lat="37.58716788076801" lon="12.9307871394229"><ele>17.25</ele><time>2026-04-18T08:20:05Z</time></trkpt><trkpt lat="37.58707907669077" lon="12.93091299478199"><ele>17.5</ele><time>2026-04-18T08:20:06Z</time></trkpt><trkpt lat="37.58702048766603" lon="12.931073612027665"><ele>17.75</ele><time>2026-04-18T08:20:07Z</time></trkpt><trkpt lat="37.586931318612635" lon="12.931230016055762"><ele>18.0</ele><time>2026-04-18T08:20:08Z</time></trkpt><trkpt lat="37.58685042875888" lon="12.931409340363157"><ele>17.0</ele><time>2026-04-18T08:20:09Z</time></trkpt><trkpt lat="37.58676694203514" lon="12.931594421618682"><ele>16.0</ele><time>2026-04-18T08:20:10Z</time></trkpt><trkpt lat="37.58667919215148" lon="12.931785251190439"><ele>15.0</ele><time>2026-04-18T08:20:11Z</time></trkpt><trkpt lat="37.5865927575763" lon="12.931974334670427"><ele>15.0</ele><time>2026-04-18T08:20:12Z</time></trkpt><trkpt lat="37.58650521005007" lon="12.93216987691507"><ele>15.0</ele><time>2026-04-18T08:20:13Z</time></trkpt><trkpt lat="37.58641627708867" lon="12.93236851360906"><ele>15.0</ele><time>2026-04-18T08:20:14Z</time></trkpt><trkpt lat="37.586323857856286" lon="12.932573219135135"><ele>15.0</ele><time>2026-04-18T08:20:15Z</time></trkpt><trkpt lat="37.58622952381908" lon="12.93277886416789"><ele>15.0</ele><time>2026-04-18T08:20:16Z</time></trkpt><trkpt lat="37.58613460352358" lon="12.932985787220744"><ele>15.0</ele><time>2026-04-18T08:20:17Z</time></trkpt><trkpt lat="37.58603917219858" lon="12.93319382430317"><ele>15.666666666666668</ele><time>2026-04-18T08:20:18Z</time></trkpt><trkpt lat="37.58594597495015" lon="12.933396991172238"><ele>16.333333333333336</ele><time>2026-04-18T08:20:19Z</time></trkpt><trkpt lat="37.585859099204136" lon="12.93358582247364"><ele>17.0</ele><time>2026-04-18T08:20:20Z</time></trkpt><trkpt lat="37.585778000099076" lon="12.933760439922262"><ele>17.0</ele><time>2026-04-18T08:20:21Z</time></trkpt><trkpt lat="37.58570299109813" lon="12.93392787565097"><ele>17.0</ele><time>2026-04-18T08:20:22Z</time></trkpt><trkpt lat="37.58563649337314" lon="12.934088585056935"><ele>17.0</ele><time>2026-04-18T08:20:23Z</time></trkpt><trkpt lat="37.5855865976488" lon="12.934248511033074"><ele>17.0</ele><time>2026-04-18T08:20:24Z</time></trkpt><trkpt lat="37.585584156032255" lon="12.934420248969323"><ele>17.25</ele><time>2026-04-18T08:20:25Z</time></trkpt><trkpt lat="37.58558352780669" lon="12.93460475353348"><ele>17.5</ele><time>2026-04-18T08:20:26Z</time></trkpt><trkpt lat="37.58559244591605" lon="12.93478783620261"><ele>17.75</ele><time>2026-04-18T08:20:27Z</time></trkpt><trkpt lat="37.585599224675605" lon="12.934983381141528"><ele>18.0</ele><time>2026-04-18T08:20:28Z</time></trkpt><trkpt lat="37.5856069843758" lon="12.935194573094146"><ele>17.333333333333332</ele><time>2026-04-18T08:20:29Z</time></trkpt><trkpt lat="37.585607286756506" lon="12.935414549211755"><ele>16.666666666666664</ele><time>2026-04-18T08:20:30Z</time></trkpt><trkpt lat="37.585616905591145" lon="12.935647547216309"><ele>16.0</ele><time>2026-04-18T08:20:31Z</time></trkpt><trkpt lat="37.5856274190411" lon="12.935885210409548"><ele>15.666666666666666</ele><time>2026-04-18T08:20:32Z</time></trkpt><trkpt lat="37.58563657309877" lon="12.936124859835957"><ele>15.333333333333332</ele><time>2026-04-18T08:20:33Z</time></trkpt><trkpt lat="37.585644835784734" lon="12.936371423182885"><ele>15.0</ele><time>2026-04-18T08:20:34Z</time></trkpt><trkpt lat="37.58565589284242" lon="12.936620488718644"><ele>15.0</ele><time>2026-04-18T08:20:35Z</time></trkpt><trkpt lat="37.585665704550145" lon="12.936873673258662"><ele>15.0</ele><time>2026-04-18T08:20:36Z</time></trkpt><trkpt lat="37.585674225773865" lon="12.93712715856006"><ele>15.0</ele><time>2026-04-18T08:20:37Z</time></trkpt><trkpt lat="37.58568287769757" lon="12.93737852469335"><ele>15.333333333333332</ele><time>2026-04-18T08:20:38Z</time></trkpt><trkpt lat="37.58569232250839" lon="12.937630078768848"><ele>15.666666666666666</ele><time>2026-04-18T08:20:39Z</time></trkpt><trkpt lat="37.58570179863321" lon="12.937882466851947"><ele>16.0</ele><time>2026-04-18T08:20:40Z</time></trkpt><trkpt lat="37.585711218285134" lon="12.93813335084191"><ele>16.0</ele><time>2026-04-18T08:20:41Z</time></trkpt><trkpt lat="37.58572062143938" lon="12.938383795408054"><ele>16.0</ele><time>2026-04-18T08:20:42Z</time></trkpt><trkpt lat="37.58572982618955" lon="12.938628955645733"><ele>16.0</ele><time>2026-04-18T08:20:43Z</time></trkpt><trkpt lat="37.58573944907276" lon="12.938871976185553"><ele>15.0</ele><time>2026-04-18T08:20:44Z</time></trkpt><trkpt lat="37.58575059781365" lon="12.939115252804328"><ele>14.0</ele><time>2026-04-18T08:20:45Z</time></trkpt><trkpt lat="37.585761056304236" lon="12.939361542904617"><ele>13.0</ele><time>2026-04-18T08:20:46Z</time></trkpt><trkpt lat="37.58577137581619" lon="12.939612774531616"><ele>13.0</ele><time>2026-04-18T08:20:47Z</time></trkpt><trkpt lat="37.5857812659911" lon="12.939864477415966"><ele>13.0</ele><time>2026-04-18T08:20:48Z</time></trkpt><trkpt lat="37.58579124797418" lon="12.940118516790868"><ele>13.0</ele><time>2026-04-18T08:20:49Z</time></trkpt><trkpt lat="37.58580096903406" lon="12.940365915733155"><ele>12.666666666666666</ele><time>2026-04-18T08:20:50Z</time></trkpt><trkpt lat="37.58581055186842" lon="12.940609796862985"><ele>12.333333333333332</ele><time>2026-04-18T08:20:51Z</time></trkpt><trkpt lat="37.585820295452955" lon="12.94085605345878"><ele>12.0</ele><time>2026-04-18T08:20:52Z</time></trkpt><trkpt lat="37.585829809290395" lon="12.941095180089961"><ele>11.666666666666666</ele><time>2026-04-18T08:20:53Z</time></trkpt><trkpt lat="37.5858392422255" lon="12.941332273288266"><ele>11.333333333333332</ele><time>2026-04-18T08:20:54Z</time></trkpt><trkpt lat="37.58584870664604" lon="12.941570157842385"><ele>11.0</ele><time>2026-04-18T08:20:55Z</time></trkpt><trkpt lat="37.58585813463157" lon="12.941807126614767"><ele>12.0</ele><time>2026-04-18T08:20:56Z</time></trkpt><trkpt lat="37.58586804146904" lon="12.942041968155083"><ele>13.0</ele><time>2026-04-18T08:20:57Z</time></trkpt><trkpt lat="37.58587824767835" lon="12.942275865300905"><ele>14.0</ele><time>2026-04-18T08:20:58Z</time></trkpt><trkpt lat="37.58588818585214" lon="12.942503619825054"><ele>15.333333333333334</ele><time>2026-04-18T08:20:59Z</time></trkpt><trkpt lat="37.585897519290604" lon="12.942725976278624"><ele>16.666666666666668</ele><time>2026-04-18T08:21:00Z</time></trkpt><trkpt lat="37.58590345307196" lon="12.94294256976826"><ele>18.0</ele><time>2026-04-18T08:21:01Z</time></trkpt><trkpt lat="37.58592171204268" lon="12.943146159137415"><ele>18.0</ele><time>2026-04-18T08:21:02Z</time></trkpt><trkpt lat="37.58590860123691" lon="12.943335768307648"><ele>18.0</ele><time>2026-04-18T08:21:03Z</time></trkpt><trkpt lat="37.58586104876824" lon="12.943509603203735"><ele>18.0</ele><time>2026-04-18T08:21:04Z</time></trkpt><trkpt lat="37.585821225555" lon="12.9436884354755"><ele>18.0</ele><time>2026-04-18T08:21:05Z</time></trkpt><trkpt lat="37.58578676479071" lon="12.943869368340112"><ele>18.666666666666668</ele><time>2026-04-18T08:21:06Z</time></trkpt><trkpt lat="37.58573387075167" lon="12.944057324603204"><ele>19.333333333333336</ele><time>2026-04-18T08:21:07Z</time></trkpt><trkpt lat="37.585679125718706" lon="12.944260838111814"><ele>20.0</ele><time>2026-04-18T08:21:08Z</time></trkpt><trkpt lat="37.585618963610386" lon="12.944469308618762"><ele>21.333333333333336</ele><time>2026-04-18T08:21:09Z</time></trkpt><trkpt lat="37.58553419037868" lon="12.944676894859501"><ele>22.666666666666668</ele><time>2026-04-18T08:21:10Z</time></trkpt><trkpt lat="37.58547578386536" lon="12.944879369357446"><ele>24.0</ele><time>2026-04-18T08:21:11Z</time></trkpt><trkpt lat="37.58541871860757" lon="12.9450771942051"><ele>24.0</ele><time>2026-04-18T08:21:12Z</time></trkpt><trkpt lat="37.585361191863285" lon="12.94527662263919"><ele>24.0</ele><time>2026-04-18T08:21:13Z</time></trkpt><trkpt lat="37.585301699460416" lon="12.945483166268994"><ele>24.0</ele><time>2026-04-18T08:21:14Z</time></trkpt><trkpt lat="37.58524064008119" lon="12.945680732155987"><ele>24.0</ele><time>2026-04-18T08:21:15Z</time></trkpt><trkpt lat="37.58516806917197" lon="12.945876409829257"><ele>24.0</ele><time>2026-04-18T08:21:16Z</time></trkpt><trkpt lat="37.58509041621073" lon="12.9460668095767"><ele>24.0</ele><time>2026-04-18T08:21:17Z</time></trkpt><trkpt lat="37.585004351150644" lon="12.946256557635495"><ele>24.0</ele><time>2026-04-18T08:21:18Z</time></trkpt><trkpt lat="37.5849152317283" lon="12.946457938557186"><ele>24.0</ele><time>2026-04-18T08:21:19Z</time></trkpt><trkpt lat="37.58482629862472" lon="12.946660193140543"><ele>24.0</ele><time>2026-04-18T08:21:20Z</time></trkpt><trkpt lat="37.584732828396305" lon="12.946865610269016"><ele>23.666666666666668</ele><time>2026-04-18T08:21:21Z</time></trkpt><trkpt lat="37.58463919967113" lon="12.94707329955552"><ele>23.333333333333336</ele><time>2026-04-18T08:21:22Z</time></trkpt><trkpt lat="37.58454388266642" lon="12.947287278050917"><ele>23.0</ele><time>2026-04-18T08:21:23Z</time></trkpt><trkpt lat="37.58444947033657" lon="12.947496193537892"><ele>22.666666666666668</ele><time>2026-04-18T08:21:24Z</time></trkpt><trkpt lat="37.58435329705356" lon="12.947706389594444"><ele>22.333333333333332</ele><time>2026-04-18T08:21:25Z</time></trkpt><trkpt lat="37.58425859209542" lon="12.947911939942067"><ele>22.0</ele><time>2026-04-18T08:21:26Z</time></trkpt><trkpt lat="37.58416112834762" lon="12.948123478047238"><ele>22.0</ele><time>2026-04-18T08:21:27Z</time></trkpt><trkpt lat="37.58406719701697" lon="12.948327349291885"><ele>22.0</ele><time>2026-04-18T08:21:28Z</time></trkpt><trkpt lat="37.58397325454881" lon="12.948533927412427"><ele>22.0</ele><time>2026-04-18T08:21:29Z</time></trkpt><trkpt lat="37.583882028267666" lon="12.948737082618822"><ele>21.333333333333332</ele><time>2026-04-18T08:21:30Z</time></trkpt><trkpt lat="37.583790623539734" lon="12.948940635193145"><ele>20.666666666666668</ele><time>2026-04-18T08:21:31Z</time></trkpt><trkpt lat="37.58370657798506" lon="12.949140260849221"><ele>20.0</ele><time>2026-04-18T08:21:32Z</time></trkpt><trkpt lat="37.58363343010354" lon="12.949355446241796"><ele>19.333333333333336</ele><time>2026-04-18T08:21:33Z</time></trkpt><trkpt lat="37.5835679334048" lon="12.949575245043516"><ele>18.666666666666668</ele><time>2026-04-18T08:21:34Z</time></trkpt><trkpt lat="37.5835037715854" lon="12.949801257249707"><ele>18.0</ele><time>2026-04-18T08:21:35Z</time></trkpt><trkpt lat="37.583441394722925" lon="12.95002312464983"><ele>17.666666666666668</ele><time>2026-04-18T08:21:36Z</time></trkpt><trkpt lat="37.58339265006964" lon="12.950255016015618"><ele>17.333333333333336</ele><time>2026-04-18T08:21:37Z</time></trkpt><trkpt lat="37.583331107688686" lon="12.950481029912755"><ele>17.0</ele><time>2026-04-18T08:21:38Z</time></trkpt><trkpt lat="37.583253488235" lon="12.950699005244918"><ele>16.0</ele><time>2026-04-18T08:21:39Z</time></trkpt><trkpt lat="37.583189663803175" lon="12.950928729788096"><ele>15.0</ele><time>2026-04-18T08:21:40Z</time></trkpt><trkpt lat="37.58312705078118" lon="12.951154094081629"><ele>14.0</ele><time>2026-04-18T08:21:41Z</time></trkpt><trkpt lat="37.5830641655274" lon="12.951379558109707"><ele>14.0</ele><time>2026-04-18T08:21:42Z</time></trkpt><trkpt lat="37.58301557809407" lon="12.951610852897561"><ele>14.0</ele><time>2026-04-18T08:21:43Z</time></trkpt><trkpt lat="37.58293597866152" lon="12.951825836671299"><ele>14.0</ele><time>2026-04-18T08:21:44Z</time></trkpt><trkpt lat="37.58287306672938" lon="12.952050210360383"><ele>14.0</ele><time>2026-04-18T08:21:45Z</time></trkpt><trkpt lat="37.58282580802591" lon="12.952279098674948"><ele>14.0</ele><time>2026-04-18T08:21:46Z</time></trkpt><trkpt lat="37.58276305202864" lon="12.952495690516898"><ele>14.0</ele><time>2026-04-18T08:21:47Z</time></trkpt><trkpt lat="37.582698332866954" lon="12.952710873916358"><ele>14.0</ele><time>2026-04-18T08:21:48Z</time></trkpt><trkpt lat="37.58264230261729" lon="12.952907571104124"><ele>14.0</ele><time>2026-04-18T08:21:49Z</time></trkpt><trkpt lat="37.58259446068505" lon="12.953093037271596"><ele>14.0</ele><time>2026-04-18T08:21:50Z</time></trkpt><trkpt lat="37.58254915315345" lon="12.953258822662809"><ele>13.799999999999999</ele><time>2026-04-18T08:21:51Z</time></trkpt><trkpt lat="37.5825061486229" lon="12.95340765403521"><ele>13.599999999999998</ele><time>2026-04-18T08:21:52Z</time></trkpt><trkpt lat="37.58245065955483" lon="12.953532032650024"><ele>13.4</ele><time>2026-04-18T08:21:53Z</time></trkpt><trkpt lat="37.582413790775476" lon="12.953647597451193"><ele>13.2</ele><time>2026-04-18T08:21:54Z</time></trkpt><trkpt lat="37.58238080430487" lon="12.953760251219851"><ele>13.0</ele><time>2026-04-18T08:21:55Z</time></trkpt><trkpt lat="37.58235774210409" lon="12.953891434423962"><ele>13.0</ele><time>2026-04-18T08:21:56Z</time></trkpt><trkpt lat="37.58231845941417" lon="12.954026468862619"><ele>13.0</ele><time>2026-04-18T08:21:57Z</time></trkpt><trkpt lat="37.58228074568666" lon="12.954169066180793"><ele>13.0</ele><time>2026-04-18T08:21:58Z</time></trkpt><trkpt lat="37.58223739333649" lon="12.954321943375179"><ele>13.0</ele><time>2026-04-18T08:21:59Z</time></trkpt><trkpt lat="37.58219077916586" lon="12.95448169544015"><ele>13.0</ele><time>2026-04-18T08:22:00Z</time></trkpt><trkpt lat="37.58214354530217" lon="12.954650180368892"><ele>13.0</ele><time>2026-04-18T08:22:01Z</time></trkpt><trkpt lat="37.58209527336507" lon="12.95482705353006"><ele>13.0</ele><time>2026-04-18T08:22:02Z</time></trkpt><trkpt lat="37.5820443054298" lon="12.955007638310633"><ele>13.0</ele><time>2026-04-18T08:22:03Z</time></trkpt><trkpt lat="37.58199254825623" lon="12.955187860150135"><ele>13.0</ele><time>2026-04-18T08:22:04Z</time></trkpt><trkpt lat="37.581941511160444" lon="12.955367409489584"><ele>13.0</ele><time>2026-04-18T08:22:05Z</time></trkpt><trkpt lat="37.5818902337379" lon="12.955546373949023"><ele>13.0</ele><time>2026-04-18T08:22:06Z</time></trkpt><trkpt lat="37.581840973039455" lon="12.955727167066108"><ele>12.333333333333332</ele><time>2026-04-18T08:22:07Z</time></trkpt><trkpt lat="37.58178899929807" lon="12.955910182320482"><ele>11.666666666666666</ele><time>2026-04-18T08:22:08Z</time></trkpt><trkpt lat="37.58174084468383" lon="12.956095082117493"><ele>11.0</ele><time>2026-04-18T08:22:09Z</time></trkpt><trkpt lat="37.58167173164449" lon="12.9562787675229"><ele>11.0</ele><time>2026-04-18T08:22:10Z</time></trkpt><trkpt lat="37.58161791213107" lon="12.956470461005102"><ele>11.0</ele><time>2026-04-18T08:22:11Z</time></trkpt><trkpt lat="37.58156228512825" lon="12.956668592368862"><ele>11.0</ele><time>2026-04-18T08:22:12Z</time></trkpt><trkpt lat="37.58150590931108" lon="12.956869390840275"><ele>11.0</ele><time>2026-04-18T08:22:13Z</time></trkpt><trkpt lat="37.58144818101764" lon="12.957074791361151"><ele>11.0</ele><time>2026-04-18T08:22:14Z</time></trkpt><trkpt lat="37.581386818139976" lon="12.957282740004269"><ele>11.0</ele><time>2026-04-18T08:22:15Z</time></trkpt><trkpt lat="37.58132481394376" lon="12.95749664061643"><ele>11.333333333333332</ele><time>2026-04-18T08:22:16Z</time></trkpt><trkpt lat="37.5812652347922" lon="12.957708544594027"><ele>11.666666666666666</ele><time>2026-04-18T08:22:17Z</time></trkpt><trkpt lat="37.58120687388561" lon="12.957918265341313"><ele>12.0</ele><time>2026-04-18T08:22:18Z</time></trkpt><trkpt lat="37.581146443256166" lon="12.95812903857187"><ele>11.0</ele><time>2026-04-18T08:22:19Z</time></trkpt><trkpt lat="37.581086603518195" lon="12.958341743430568"><ele>10.0</ele><time>2026-04-18T08:22:20Z</time></trkpt><trkpt lat="37.58102827302084" lon="12.958557307544156"><ele>9.0</ele><time>2026-04-18T08:22:21Z</time></trkpt><trkpt lat="37.58096974088858" lon="12.95877361681309"><ele>9.0</ele><time>2026-04-18T08:22:22Z</time></trkpt><trkpt lat="37.58090722163007" lon="12.958989564164616"><ele>9.0</ele><time>2026-04-18T08:22:23Z</time></trkpt><trkpt lat="37.58084315286307" lon="12.959206583539853"><ele>9.0</ele><time>2026-04-18T08:22:24Z</time></trkpt><trkpt lat="37.580780059706846" lon="12.959427510081044"><ele>9.0</ele><time>2026-04-18T08:22:25Z</time></trkpt><trkpt lat="37.580716840715326" lon="12.959649487952143"><ele>9.0</ele><time>2026-04-18T08:22:26Z</time></trkpt><trkpt lat="37.58065234609776" lon="12.959868830475848"><ele>9.0</ele><time>2026-04-18T08:22:27Z</time></trkpt><trkpt lat="37.58058917575531" lon="12.960087414556114"><ele>8.666666666666666</ele><time>2026-04-18T08:22:28Z</time></trkpt><trkpt lat="37.58052660935024" lon="12.960303908882379"><ele>8.333333333333332</ele><time>2026-04-18T08:22:29Z</time></trkpt><trkpt lat="37.58046568861576" lon="12.960521549256477"><ele>8.0</ele><time>2026-04-18T08:22:30Z</time></trkpt><trkpt lat="37.580405484270166" lon="12.96073502845746"><ele>8.666666666666666</ele><time>2026-04-18T08:22:31Z</time></trkpt><trkpt lat="37.58034770546736" lon="12.960940373117964"><ele>9.333333333333334</ele><time>2026-04-18T08:22:32Z</time></trkpt><trkpt lat="37.58029339552584" lon="12.961136601691203"><ele>10.0</ele><time>2026-04-18T08:22:33Z</time></trkpt><trkpt lat="37.58024249037678" lon="12.961319491954328"><ele>10.0</ele><time>2026-04-18T08:22:34Z</time></trkpt><trkpt lat="37.580208754055015" lon="12.961499062273552"><ele>10.0</ele><time>2026-04-18T08:22:35Z</time></trkpt><trkpt lat="37.58015050051707" lon="12.961648233727255"><ele>10.0</ele><time>2026-04-18T08:22:36Z</time></trkpt><trkpt lat="37.58014174683207" lon="12.961794789939152"><ele>10.0</ele><time>2026-04-18T08:22:37Z</time></trkpt><trkpt lat="37.580134711775486" lon="12.961920886969393"><ele>10.4</ele><time>2026-04-18T08:22:38Z</time></trkpt><trkpt lat="37.58014574132778" lon="12.962032289113344"><ele>10.8</ele><time>2026-04-18T08:22:39Z</time></trkpt><trkpt lat="37.58018023736119" lon="12.962148634941425"><ele>11.2</ele><time>2026-04-18T08:22:40Z</time></trkpt><trkpt lat="37.580202434120885" lon="12.962266428705831"><ele>11.6</ele><time>2026-04-18T08:22:41Z</time></trkpt><trkpt lat="37.580236809246315" lon="12.96237552370693"><ele>12.0</ele><time>2026-04-18T08:22:42Z</time></trkpt><trkpt lat="37.58028201129708" lon="12.962467363564281"><ele>12.2</ele><time>2026-04-18T08:22:43Z</time></trkpt><trkpt lat="37.580317718339664" lon="12.962585233253918"><ele>12.399999999999999</ele><time>2026-04-18T08:22:44Z</time></trkpt><trkpt lat="37.58036021942042" lon="12.962716366639347"><ele>12.600000000000001</ele><time>2026-04-18T08:22:45Z</time></trkpt><trkpt lat="37.58038775862534" lon="12.962858333067047"><ele>12.8</ele><time>2026-04-18T08:22:46Z</time></trkpt><trkpt lat="37.58044675060352" lon="12.962991155718797"><ele>13.0</ele><time>2026-04-18T08:22:47Z</time></trkpt><trkpt lat="37.58048137889293" lon="12.963138628943929"><ele>13.0</ele><time>2026-04-18T08:22:48Z</time></trkpt><trkpt lat="37.580494393385536" lon="12.963298255441602"><ele>13.0</ele><time>2026-04-18T08:22:49Z</time></trkpt><trkpt lat="37.58050344697799" lon="12.963469910342294"><ele>13.0</ele><time>2026-04-18T08:22:50Z</time></trkpt><trkpt lat="37.58050274483186" lon="12.963654462853514"><ele>13.0</ele><time>2026-04-18T08:22:51Z</time></trkpt><trkpt lat="37.58050717911701" lon="12.963846569785815"><ele>13.5</ele><time>2026-04-18T08:22:52Z</time></trkpt><trkpt lat="37.58051492750751" lon="12.964040726210118"><ele>14.0</ele><time>2026-04-18T08:22:53Z</time></trkpt><trkpt lat="37.580524790951316" lon="12.964227393519534"><ele>14.5</ele><time>2026-04-18T08:22:54.001Z</time></trkpt><trkpt lat="37.58052040900308" lon="12.964411643603936"><ele>15.0</ele><time>2026-04-18T08:22:55.001Z</time></trkpt><trkpt lat="37.58050677258133" lon="12.964585327540197"><ele>15.5</ele><time>2026-04-18T08:22:56.001Z</time></trkpt><trkpt lat="37.58047507684649" lon="12.964752760990795"><ele>16.0</ele><time>2026-04-18T08:22:57.001Z</time></trkpt><trkpt lat="37.5804308392966" lon="12.96490935512143"><ele>16.5</ele><time>2026-04-18T08:22:58.001Z</time></trkpt><trkpt lat="37.58038224717733" lon="12.965057770405998"><ele>17.0</ele><time>2026-04-18T08:22:59.001Z</time></trkpt><trkpt lat="37.580334533425486" lon="12.965187566452805"><ele>17.5</ele><time>2026-04-18T08:23:00.001Z</time></trkpt><trkpt lat="37.58029698052181" lon="12.965299964130915"><ele>18.0</ele><time>2026-04-18T08:23:01.001Z</time></trkpt><trkpt lat="37.58025421178958" lon="12.965423854085243"><ele>18.5</ele><time>2026-04-18T08:23:03.001Z</time></trkpt><trkpt lat="37.58021813433038" lon="12.965510304171907"><ele>19.0</ele><time>2026-04-18T08:23:06.001Z</time></trkpt><trkpt lat="37.58018997811921" lon="12.9655846531698"><ele>19.5</ele><time>2026-04-18T08:23:08.001Z</time></trkpt><trkpt lat="37.5801611985342" lon="12.965663936622814"><ele>20.0</ele><time>2026-04-18T08:23:10Z</time></trkpt><trkpt lat="37.580134320450206" lon="12.9657450219273"><ele>20.0</ele><time>2026-04-18T08:23:13Z</time></trkpt><trkpt lat="37.58010704882429" lon="12.965827294697077"><ele>20.0</ele><time>2026-04-18T08:23:16Z</time></trkpt><trkpt lat="37.58008068260341" lon="12.965918424506578"><ele>20.0</ele><time>2026-04-18T08:23:18Z</time></trkpt><trkpt lat="37.58003606390892" lon="12.966061740281209"><ele>20.0</ele><time>2026-04-18T08:23:21Z</time></trkpt><trkpt lat="37.58000185893059" lon="12.966171609796353"><ele>20.0</ele><time>2026-04-18T08:23:22Z</time></trkpt><trkpt lat="37.57994718903441" lon="12.96633310953182"><ele>20.333333333333336</ele><time>2026-04-18T08:23:23Z</time></trkpt><trkpt lat="37.5798792270815" lon="12.966527903085188"><ele>20.666666666666668</ele><time>2026-04-18T08:23:24Z</time></trkpt><trkpt lat="37.57980375647549" lon="12.966758687560862"><ele>21.0</ele><time>2026-04-18T08:23:25Z</time></trkpt><trkpt lat="37.57973363304657" lon="12.967020099104152"><ele>22.0</ele><time>2026-04-18T08:23:26Z</time></trkpt><trkpt lat="37.579638444837286" lon="12.967300624541224"><ele>23.0</ele><time>2026-04-18T08:23:27Z</time></trkpt><trkpt lat="37.579541134851375" lon="12.96759430446176"><ele>23.0</ele><time>2026-04-18T08:23:28Z</time></trkpt><trkpt lat="37.57945146400989" lon="12.967860467696068"><ele>23.0</ele><time>2026-04-18T08:23:29Z</time></trkpt><trkpt lat="37.57936649885621" lon="12.968109044035828"><ele>23.0</ele><time>2026-04-18T08:23:30Z</time></trkpt><trkpt lat="37.579286391647024" lon="12.96834813979909"><ele>22.666666666666668</ele><time>2026-04-18T08:23:31Z</time></trkpt><trkpt lat="37.57921803870276" lon="12.96855883229654"><ele>22.333333333333332</ele><time>2026-04-18T08:23:32Z</time></trkpt><trkpt lat="37.579162257781896" lon="12.968750531349206"><ele>22.0</ele><time>2026-04-18T08:23:33Z</time></trkpt><trkpt lat="37.57913500707592" lon="12.968925407834242"><ele>22.0</ele><time>2026-04-18T08:23:34Z</time></trkpt><trkpt lat="37.57912405128241" lon="12.969079941283987"><ele>22.0</ele><time>2026-04-18T08:23:35Z</time></trkpt><trkpt lat="37.57912615044318" lon="12.969228123328046"><ele>22.0</ele><time>2026-04-18T08:23:36Z</time></trkpt><trkpt lat="37.57911523168671" lon="12.969391266061878"><ele>22.0</ele><time>2026-04-18T08:23:37Z</time></trkpt><trkpt lat="37.5791152316867" lon="12.969559651773912"><ele>22.5</ele><time>2026-04-18T08:23:38Z</time></trkpt><trkpt lat="37.57911336232511" lon="12.969733630385782"><ele>23.0</ele><time>2026-04-18T08:23:39Z</time></trkpt><trkpt lat="37.579110895763634" lon="12.969914015127204"><ele>23.5</ele><time>2026-04-18T08:23:40Z</time></trkpt><trkpt lat="37.579109931686325" lon="12.970100879531627"><ele>24.0</ele><time>2026-04-18T08:23:41Z</time></trkpt><trkpt lat="37.57912424272621" lon="12.970284434207002"><ele>24.25</ele><time>2026-04-18T08:23:42Z</time></trkpt><trkpt lat="37.579119247357184" lon="12.970467776606071"><ele>24.5</ele><time>2026-04-18T08:23:43Z</time></trkpt><trkpt lat="37.57911721130759" lon="12.970645612670204"><ele>24.75</ele><time>2026-04-18T08:23:44Z</time></trkpt><trkpt lat="37.57911625764623" lon="12.970819072487322"><ele>25.0</ele><time>2026-04-18T08:23:45Z</time></trkpt><trkpt lat="37.57911448244504" lon="12.970990139364941"><ele>25.0</ele><time>2026-04-18T08:23:46Z</time></trkpt><trkpt lat="37.579106459435" lon="12.971162929107537"><ele>25.0</ele><time>2026-04-18T08:23:47Z</time></trkpt><trkpt lat="37.579098769331175" lon="12.971330999066396"><ele>25.0</ele><time>2026-04-18T08:23:48Z</time></trkpt><trkpt lat="37.57910322438921" lon="12.971506223054595"><ele>25.0</ele><time>2026-04-18T08:23:49Z</time></trkpt><trkpt lat="37.57909979782952" lon="12.971681807722172"><ele>25.25</ele><time>2026-04-18T08:23:50Z</time></trkpt><trkpt lat="37.57908332511237" lon="12.97185050170007"><ele>25.5</ele><time>2026-04-18T08:23:51Z</time></trkpt><trkpt lat="37.57906097197088" lon="12.972016780663536"><ele>25.75</ele><time>2026-04-18T08:23:52Z</time></trkpt><trkpt lat="37.57908834336256" lon="12.972236381998767"><ele>26.0</ele><time>2026-04-18T08:23:53Z</time></trkpt><trkpt lat="37.579093878481984" lon="12.972433799952231"><ele>26.666666666666664</ele><time>2026-04-18T08:23:54Z</time></trkpt><trkpt lat="37.57909757283161" lon="12.972627731910695"><ele>27.333333333333336</ele><time>2026-04-18T08:23:55Z</time></trkpt><trkpt lat="37.57909512093333" lon="12.972826427662637"><ele>28.0</ele><time>2026-04-18T08:23:56Z</time></trkpt><trkpt lat="37.57909626645902" lon="12.973026980848854"><ele>28.0</ele><time>2026-04-18T08:23:57Z</time></trkpt><trkpt lat="37.5790991926741" lon="12.973225624780017"><ele>28.0</ele><time>2026-04-18T08:23:58Z</time></trkpt><trkpt lat="37.57910296161902" lon="12.973414734144102"><ele>28.0</ele><time>2026-04-18T08:23:59Z</time></trkpt><trkpt lat="37.57910361364712" lon="12.973598422188191"><ele>28.0</ele><time>2026-04-18T08:24:00Z</time></trkpt><trkpt lat="37.57908574523706" lon="12.97376613220086"><ele>28.0</ele><time>2026-04-18T08:24:01Z</time></trkpt><trkpt lat="37.57909390547389" lon="12.973913208474602"><ele>28.0</ele><time>2026-04-18T08:24:02Z</time></trkpt><trkpt lat="37.57907344231857" lon="12.974050354635489"><ele>28.0</ele><time>2026-04-18T08:24:03Z</time></trkpt><trkpt lat="37.57901414499742" lon="12.974166368668913"><ele>28.25</ele><time>2026-04-18T08:24:04Z</time></trkpt><trkpt lat="37.57893218113187" lon="12.974273621735179"><ele>28.5</ele><time>2026-04-18T08:24:05Z</time></trkpt><trkpt lat="37.578832299164816" lon="12.974391320027774"><ele>28.75</ele><time>2026-04-18T08:24:06Z</time></trkpt><trkpt lat="37.578736690151096" lon="12.974530250214618"><ele>29.0</ele><time>2026-04-18T08:24:07Z</time></trkpt><trkpt lat="37.5786264956814" lon="12.97465407824566"><ele>28.333333333333332</ele><time>2026-04-18T08:24:08Z</time></trkpt><trkpt lat="37.57851047163487" lon="12.974789075978556"><ele>27.666666666666664</ele><time>2026-04-18T08:24:09Z</time></trkpt><trkpt lat="37.578386698913064" lon="12.974922486289303"><ele>27.0</ele><time>2026-04-18T08:24:10Z</time></trkpt><trkpt lat="37.57826925677067" lon="12.975068576338153"><ele>27.0</ele><time>2026-04-18T08:24:11Z</time></trkpt><trkpt lat="37.57814668838979" lon="12.9752178503854"><ele>27.0</ele><time>2026-04-18T08:24:12Z</time></trkpt><trkpt lat="37.578020721010205" lon="12.975369651483684"><ele>27.0</ele><time>2026-04-18T08:24:13Z</time></trkpt><trkpt lat="37.57789835213718" lon="12.975519932543419"><ele>26.333333333333336</ele><time>2026-04-18T08:24:14Z</time></trkpt><trkpt lat="37.57777156766386" lon="12.975672533724948"><ele>25.666666666666668</ele><time>2026-04-18T08:24:15Z</time></trkpt><trkpt lat="37.57764508405141" lon="12.975822474217336"><ele>25.0</ele><time>2026-04-18T08:24:16Z</time></trkpt><trkpt lat="37.57751686089875" lon="12.975972217000193"><ele>25.0</ele><time>2026-04-18T08:24:17Z</time></trkpt><trkpt lat="37.57738828490672" lon="12.976119028215322"><ele>25.0</ele><time>2026-04-18T08:24:18Z</time></trkpt><trkpt lat="37.5772579572534" lon="12.976264520259987"><ele>25.0</ele><time>2026-04-18T08:24:19Z</time></trkpt><trkpt lat="37.57713387927872" lon="12.976414641433296"><ele>24.666666666666668</ele><time>2026-04-18T08:24:20Z</time></trkpt><trkpt lat="37.57701094830147" lon="12.976560446140834"><ele>24.333333333333336</ele><time>2026-04-18T08:24:21Z</time></trkpt><trkpt lat="37.57689324548022" lon="12.976690446392158"><ele>24.0</ele><time>2026-04-18T08:24:22Z</time></trkpt><trkpt lat="37.57678667764961" lon="12.976806717146017"><ele>24.6</ele><time>2026-04-18T08:24:23Z</time></trkpt><trkpt lat="37.57670503590314" lon="12.976917520488858"><ele>25.2</ele><time>2026-04-18T08:24:24Z</time></trkpt><trkpt lat="37.57665157758167" lon="12.977034654997354"><ele>25.800000000000004</ele><time>2026-04-18T08:24:25Z</time></trkpt><trkpt lat="37.576619579102" lon="12.977165468847595"><ele>26.400000000000002</ele><time>2026-04-18T08:24:26Z</time></trkpt><trkpt lat="37.57660499799388" lon="12.97730780111379"><ele>27.0</ele><time>2026-04-18T08:24:27Z</time></trkpt><trkpt lat="37.57662247508699" lon="12.977453156469696"><ele>28.0</ele><time>2026-04-18T08:24:28Z</time></trkpt><trkpt lat="37.576663621773854" lon="12.977608526632988"><ele>29.0</ele><time>2026-04-18T08:24:29Z</time></trkpt><trkpt lat="37.57671188246871" lon="12.977778179161138"><ele>30.0</ele><time>2026-04-18T08:24:30Z</time></trkpt><trkpt lat="37.57676254891763" lon="12.977954865052697"><ele>31.0</ele><time>2026-04-18T08:24:31Z</time></trkpt><trkpt lat="37.57680960026239" lon="12.978147512006004"><ele>31.0</ele><time>2026-04-18T08:24:32Z</time></trkpt><trkpt lat="37.57686641062115" lon="12.978332059843513"><ele>31.0</ele><time>2026-04-18T08:24:33Z</time></trkpt><trkpt lat="37.576912963419126" lon="12.978514626847458"><ele>31.0</ele><time>2026-04-18T08:24:34Z</time></trkpt><trkpt lat="37.57695881644606" lon="12.978681430419858"><ele>31.0</ele><time>2026-04-18T08:24:35Z</time></trkpt><trkpt lat="37.57700244557528" lon="12.97882600294251"><ele>31.4</ele><time>2026-04-18T08:24:36Z</time></trkpt><trkpt lat="37.57704261791667" lon="12.978958582151417"><ele>31.8</ele><time>2026-04-18T08:24:37Z</time></trkpt><trkpt lat="37.577073966938926" lon="12.979095273213689"><ele>32.199999999999996</ele><time>2026-04-18T08:24:38Z</time></trkpt><trkpt lat="37.5770820649536" lon="12.979235534826032"><ele>32.6</ele><time>2026-04-18T08:24:39Z</time></trkpt><trkpt lat="37.57707400572522" lon="12.979375521613902"><ele>33.0</ele><time>2026-04-18T08:24:40Z</time></trkpt><trkpt lat="37.57704048596989" lon="12.97950227281412"><ele>33.0</ele><time>2026-04-18T08:24:41Z</time></trkpt><trkpt lat="37.57696805437642" lon="12.979606227836562"><ele>33.0</ele><time>2026-04-18T08:24:42Z</time></trkpt><trkpt lat="37.57689551985046" lon="12.979729259682811"><ele>33.0</ele><time>2026-04-18T08:24:43Z</time></trkpt><trkpt lat="37.57682729405528" lon="12.979867917779423"><ele>33.0</ele><time>2026-04-18T08:24:44Z</time></trkpt><trkpt lat="37.57673856575088" lon="12.98001244091988"><ele>32.333333333333336</ele><time>2026-04-18T08:24:45Z</time></trkpt><trkpt lat="37.57664452581489" lon="12.98016303641008"><ele>31.666666666666668</ele><time>2026-04-18T08:24:46Z</time></trkpt><trkpt lat="37.57654431267901" lon="12.980323073693889"><ele>31.0</ele><time>2026-04-18T08:24:47Z</time></trkpt><trkpt lat="37.57644075501916" lon="12.98048823028567"><ele>31.0</ele><time>2026-04-18T08:24:48Z</time></trkpt><trkpt lat="37.576335406669244" lon="12.980657520861032"><ele>31.0</ele><time>2026-04-18T08:24:49Z</time></trkpt><trkpt lat="37.576230597872666" lon="12.9808235563113"><ele>31.0</ele><time>2026-04-18T08:24:50Z</time></trkpt><trkpt lat="37.57612742750318" lon="12.980987803735312"><ele>31.333333333333336</ele><time>2026-04-18T08:24:51Z</time></trkpt><trkpt lat="37.576025497762785" lon="12.981152326985887"><ele>31.666666666666664</ele><time>2026-04-18T08:24:52Z</time></trkpt><trkpt lat="37.57592758914735" lon="12.981309629455543"><ele>32.0</ele><time>2026-04-18T08:24:53Z</time></trkpt><trkpt lat="37.57583036087328" lon="12.981441349412234"><ele>32.0</ele><time>2026-04-18T08:24:54Z</time></trkpt><trkpt lat="37.575725768953" lon="12.981556193579262"><ele>32.0</ele><time>2026-04-18T08:24:55Z</time></trkpt><trkpt lat="37.57561083286972" lon="12.981655277321902"><ele>32.0</ele><time>2026-04-18T08:24:56Z</time></trkpt><trkpt lat="37.57548189096831" lon="12.981736654864733"><ele>32.0</ele><time>2026-04-18T08:24:57Z</time></trkpt><trkpt lat="37.57533967435536" lon="12.98179834268177"><ele>34.33333333333333</ele><time>2026-04-18T08:24:58Z</time></trkpt><trkpt lat="37.575183838122015" lon="12.981825179151016"><ele>36.666666666666664</ele><time>2026-04-18T08:24:59Z</time></trkpt><trkpt lat="37.5750193206282" lon="12.981885624856318"><ele>39.0</ele><time>2026-04-18T08:25:00.001Z</time></trkpt><trkpt lat="37.57484212531427" lon="12.981915854109303"><ele>39.0</ele><time>2026-04-18T08:25:01.001Z</time></trkpt><trkpt lat="37.574656031950944" lon="12.981947046994856"><ele>39.0</ele><time>2026-04-18T08:25:02.001Z</time></trkpt><trkpt lat="37.574473056881395" lon="12.981994964763718"><ele>39.0</ele><time>2026-04-18T08:25:03.001Z</time></trkpt><trkpt lat="37.57429875541785" lon="12.982039642693907"><ele>41.666666666666664</ele><time>2026-04-18T08:25:04.001Z</time></trkpt><trkpt lat="37.57413751269612" lon="12.982059214856966"><ele>44.33333333333333</ele><time>2026-04-18T08:25:05.001Z</time></trkpt><trkpt lat="37.57397457424837" lon="12.982049820088426"><ele>47.0</ele><time>2026-04-18T08:25:06.001Z</time></trkpt><trkpt lat="37.573806274716226" lon="12.982016935009618"><ele>49.0</ele><time>2026-04-18T08:25:07.001Z</time></trkpt><trkpt lat="37.57362512692609" lon="12.981972713873509"><ele>51.0</ele><time>2026-04-18T08:25:08.001Z</time></trkpt><trkpt lat="37.57345453790807" lon="12.981908978612593"><ele>53.0</ele><time>2026-04-18T08:25:09.001Z</time></trkpt><trkpt lat="37.57329157470111" lon="12.981867829481669"><ele>53.0</ele><time>2026-04-18T08:25:10.001Z</time></trkpt><trkpt lat="37.57314683930095" lon="12.981842786553463"><ele>53.0</ele><time>2026-04-18T08:25:11.001Z</time></trkpt><trkpt lat="37.573025114967855" lon="12.981809343299737"><ele>53.0</ele><time>2026-04-18T08:25:12.001Z</time></trkpt><trkpt lat="37.57291931884734" lon="12.98180704480768"><ele>53.0</ele><time>2026-04-18T08:25:13.001Z</time></trkpt><trkpt lat="37.57282501776907" lon="12.981834862820278"><ele>54.2</ele><time>2026-04-18T08:25:14.001Z</time></trkpt><trkpt lat="37.572753918360824" lon="12.981906861985928"><ele>55.4</ele><time>2026-04-18T08:25:15.001Z</time></trkpt><trkpt lat="37.57270031776997" lon="12.98202033176523"><ele>56.60000000000001</ele><time>2026-04-18T08:25:16.001Z</time></trkpt><trkpt lat="37.572678415623315" lon="12.982170074950687"><ele>57.800000000000004</ele><time>2026-04-18T08:25:17.001Z</time></trkpt><trkpt lat="37.57268450410541" lon="12.98230857658277"><ele>59.0</ele><time>2026-04-18T08:25:18.001Z</time></trkpt><trkpt lat="37.572712913880046" lon="12.982446328838412"><ele>59.25</ele><time>2026-04-18T08:25:19.001Z</time></trkpt><trkpt lat="37.572787725600634" lon="12.982556762100767"><ele>59.5</ele><time>2026-04-18T08:25:20.001Z</time></trkpt><trkpt lat="37.57287677815844" lon="12.982659839422208"><ele>59.75</ele><time>2026-04-18T08:25:21.001Z</time></trkpt><trkpt lat="37.57296882046086" lon="12.982769678192453"><ele>60.0</ele><time>2026-04-18T08:25:22.001Z</time></trkpt><trkpt lat="37.57303196243307" lon="12.982873661593688"><ele>60.0</ele><time>2026-04-18T08:25:23.001Z</time></trkpt><trkpt lat="37.57312442250669" lon="12.983026451022043"><ele>60.0</ele><time>2026-04-18T08:25:24Z</time></trkpt><trkpt lat="37.57321662266795" lon="12.983184860342682"><ele>60.0</ele><time>2026-04-18T08:25:25Z</time></trkpt><trkpt lat="37.57330660948868" lon="12.983340423997516"><ele>61.5</ele><time>2026-04-18T08:25:26Z</time></trkpt><trkpt lat="37.57339955693309" lon="12.983487158632956"><ele>63.0</ele><time>2026-04-18T08:25:27Z</time></trkpt><trkpt lat="37.573485604380814" lon="12.983630020949661"><ele>64.5</ele><time>2026-04-18T08:25:28Z</time></trkpt><trkpt lat="37.57355636227146" lon="12.9837736809443"><ele>66.0</ele><time>2026-04-18T08:25:29Z</time></trkpt><trkpt lat="37.57360597199088" lon="12.983913273485202"><ele>66.0</ele><time>2026-04-18T08:25:30Z</time></trkpt><trkpt lat="37.57363608764094" lon="12.984044937927553"><ele>66.0</ele><time>2026-04-18T08:25:31Z</time></trkpt><trkpt lat="37.57365942299456" lon="12.984192451854783"><ele>66.0</ele><time>2026-04-18T08:25:32Z</time></trkpt><trkpt lat="37.57366738157465" lon="12.98434779604265"><ele>66.0</ele><time>2026-04-18T08:25:33Z</time></trkpt><trkpt lat="37.57365942235449" lon="12.984509170239846"><ele>66.33333333333333</ele><time>2026-04-18T08:25:34Z</time></trkpt><trkpt lat="37.57364769983442" lon="12.984650542992608"><ele>66.66666666666667</ele><time>2026-04-18T08:25:35Z</time></trkpt><trkpt lat="37.57363546119072" lon="12.98476476876085"><ele>67.0</ele><time>2026-04-18T08:25:36Z</time></trkpt><trkpt lat="37.573597496585364" lon="12.984860318395251"><ele>67.33333333333334</ele><time>2026-04-18T08:25:37Z</time></trkpt><trkpt lat="37.57357769774752" lon="12.984946095047125"><ele>67.66666666666667</ele><time>2026-04-18T08:25:38Z</time></trkpt><trkpt lat="37.57351032404095" lon="12.985005515142339"><ele>68.0</ele><time>2026-04-18T08:25:39Z</time></trkpt><trkpt lat="37.573444874811955" lon="12.985060178748318"><ele>69.0</ele><time>2026-04-18T08:25:40Z</time></trkpt><trkpt lat="37.57338499700929" lon="12.985156394911767"><ele>70.0</ele><time>2026-04-18T08:25:41Z</time></trkpt><trkpt lat="37.573297534351845" lon="12.98522035961105"><ele>71.0</ele><time>2026-04-18T08:25:42Z</time></trkpt><trkpt lat="37.573204307151926" lon="12.985295496968252"><ele>72.0</ele><time>2026-04-18T08:25:43Z</time></trkpt><trkpt lat="37.573110892128746" lon="12.98537315221299"><ele>73.0</ele><time>2026-04-18T08:25:44Z</time></trkpt><trkpt lat="37.57302844404019" lon="12.98544284975671"><ele>73.0</ele><time>2026-04-18T08:25:45Z</time></trkpt><trkpt lat="37.57293309864178" lon="12.985491391530221"><ele>73.0</ele><time>2026-04-18T08:25:46Z</time></trkpt><trkpt lat="37.57285602527597" lon="12.985555401747588"><ele>73.0</ele><time>2026-04-18T08:25:47Z</time></trkpt><trkpt lat="37.572780813075475" lon="12.985616609200417"><ele>73.0</ele><time>2026-04-18T08:25:48Z</time></trkpt><trkpt lat="37.57269697043969" lon="12.98568516332398"><ele>73.0</ele><time>2026-04-18T08:25:49Z</time></trkpt><trkpt lat="37.57261390419827" lon="12.985773529606215"><ele>73.75</ele><time>2026-04-18T08:25:50Z</time></trkpt><trkpt lat="37.57250709338276" lon="12.985860263877509"><ele>74.5</ele><time>2026-04-18T08:25:51Z</time></trkpt><trkpt lat="37.57240374538394" lon="12.985953924226141"><ele>75.25</ele><time>2026-04-18T08:25:52Z</time></trkpt><trkpt lat="37.57229504865712" lon="12.986044000696952"><ele>76.0</ele><time>2026-04-18T08:25:53Z</time></trkpt><trkpt lat="37.5721903495035" lon="12.986120750298545"><ele>76.0</ele><time>2026-04-18T08:25:54Z</time></trkpt><trkpt lat="37.57210173299117" lon="12.986206443652959"><ele>76.0</ele><time>2026-04-18T08:25:55Z</time></trkpt><trkpt lat="37.57201064663631" lon="12.986302771099677"><ele>76.0</ele><time>2026-04-18T08:25:56Z</time></trkpt><trkpt lat="37.57191644260346" lon="12.986405020300838"><ele>76.0</ele><time>2026-04-18T08:25:57Z</time></trkpt><trkpt lat="37.57182385691729" lon="12.986513706127493"><ele>74.25</ele><time>2026-04-18T08:25:58Z</time></trkpt><trkpt lat="37.57173417697797" lon="12.98663030635327"><ele>72.5</ele><time>2026-04-18T08:25:59Z</time></trkpt><trkpt lat="37.5716452149412" lon="12.986752303896168"><ele>70.75</ele><time>2026-04-18T08:26:00Z</time></trkpt><trkpt lat="37.57155406695292" lon="12.98687400771946"><ele>69.0</ele><time>2026-04-18T08:26:01Z</time></trkpt><trkpt lat="37.571460497537515" lon="12.98699900739448"><ele>69.0</ele><time>2026-04-18T08:26:02Z</time></trkpt><trkpt lat="37.57136832436162" lon="12.987123480005652"><ele>69.0</ele><time>2026-04-18T08:26:03Z</time></trkpt><trkpt lat="37.57128570096019" lon="12.98724181070554"><ele>69.0</ele><time>2026-04-18T08:26:04Z</time></trkpt><trkpt lat="37.57120507910946" lon="12.98735304716708"><ele>69.0</ele><time>2026-04-18T08:26:05Z</time></trkpt><trkpt lat="37.5711208102708" lon="12.987467495141654"><ele>67.25</ele><time>2026-04-18T08:26:06Z</time></trkpt><trkpt lat="37.57103355158059" lon="12.987583864111457"><ele>65.5</ele><time>2026-04-18T08:26:07Z</time></trkpt><trkpt lat="37.57094666161307" lon="12.98769925519234"><ele>63.75</ele><time>2026-04-18T08:26:08Z</time></trkpt><trkpt lat="37.5708632291795" lon="12.987810168024723"><ele>62.0</ele><time>2026-04-18T08:26:09Z</time></trkpt><trkpt lat="37.57078182762131" lon="12.987912570948572"><ele>62.0</ele><time>2026-04-18T08:26:10Z</time></trkpt><trkpt lat="37.570707275321205" lon="12.988011368470472"><ele>62.0</ele><time>2026-04-18T08:26:11Z</time></trkpt><trkpt lat="37.570640320135695" lon="12.988108012350363"><ele>62.0</ele><time>2026-04-18T08:26:12Z</time></trkpt><trkpt lat="37.570572991447854" lon="12.988192020939788"><ele>62.0</ele><time>2026-04-18T08:26:13Z</time></trkpt><trkpt lat="37.57050517077187" lon="12.988263597945314"><ele>62.0</ele><time>2026-04-18T08:26:14Z</time></trkpt><trkpt lat="37.57044934617422" lon="12.988385308118461"><ele>62.400000000000006</ele><time>2026-04-18T08:26:15Z</time></trkpt><trkpt lat="37.570379783673594" lon="12.988474009099354"><ele>62.800000000000004</ele><time>2026-04-18T08:26:16Z</time></trkpt><trkpt lat="37.57030040657565" lon="12.988542426905077"><ele>63.2</ele><time>2026-04-18T08:26:17Z</time></trkpt><trkpt lat="37.57022654275011" lon="12.988609857061585"><ele>63.6</ele><time>2026-04-18T08:26:18Z</time></trkpt><trkpt lat="37.57013993897342" lon="12.988684446079562"><ele>64.0</ele><time>2026-04-18T08:26:19Z</time></trkpt><trkpt lat="37.57005504572759" lon="12.98875116128426"><ele>63.33333333333333</ele><time>2026-04-18T08:26:20Z</time></trkpt><trkpt lat="37.56998307532491" lon="12.98880343400807"><ele>62.666666666666664</ele><time>2026-04-18T08:26:21Z</time></trkpt><trkpt lat="37.569923582131025" lon="12.988868167479273"><ele>62.0</ele><time>2026-04-18T08:26:22Z</time></trkpt><trkpt lat="37.56985154663447" lon="12.988897782927726"><ele>61.33333333333333</ele><time>2026-04-18T08:26:23Z</time></trkpt><trkpt lat="37.56978111141332" lon="12.988951864100292"><ele>60.666666666666664</ele><time>2026-04-18T08:26:24Z</time></trkpt><trkpt lat="37.56970555864673" lon="12.989003943904315"><ele>60.0</ele><time>2026-04-18T08:26:25Z</time></trkpt><trkpt lat="37.56962260062763" lon="12.989064184766425"><ele>60.0</ele><time>2026-04-18T08:26:26Z</time></trkpt><trkpt lat="37.569543290827184" lon="12.989121890172141"><ele>60.0</ele><time>2026-04-18T08:26:27Z</time></trkpt><trkpt lat="37.569459665712685" lon="12.989186823796825"><ele>60.0</ele><time>2026-04-18T08:26:28Z</time></trkpt><trkpt lat="37.56938337806936" lon="12.989245470483699"><ele>60.0</ele><time>2026-04-18T08:26:29Z</time></trkpt><trkpt lat="37.56930533643359" lon="12.989301746686754"><ele>60.0</ele><time>2026-04-18T08:26:30Z</time></trkpt><trkpt lat="37.56920806577393" lon="12.989364907014213"><ele>57.25</ele><time>2026-04-18T08:26:31Z</time></trkpt><trkpt lat="37.569119368734846" lon="12.989432649477802"><ele>54.5</ele><time>2026-04-18T08:26:32Z</time></trkpt><trkpt lat="37.569035981752734" lon="12.989523217574714"><ele>51.75</ele><time>2026-04-18T08:26:33Z</time></trkpt><trkpt lat="37.56895530655911" lon="12.989642116375215"><ele>49.0</ele><time>2026-04-18T08:26:34Z</time></trkpt><trkpt lat="37.56889024492758" lon="12.989767035213726"><ele>48.99999999999999</ele><time>2026-04-18T08:26:35Z</time></trkpt><trkpt lat="37.56884928034283" lon="12.98986380600962"><ele>49.0</ele><time>2026-04-18T08:26:36Z</time></trkpt><trkpt lat="37.56882838146563" lon="12.989940278054144"><ele>49.0</ele><time>2026-04-18T08:26:37Z</time></trkpt><trkpt lat="37.56877549938206" lon="12.990054069750798"><ele>49.0</ele><time>2026-04-18T08:26:39Z</time></trkpt><trkpt lat="37.56874936022033" lon="12.990152390127436"><ele>48.99999999999999</ele><time>2026-04-18T08:26:42Z</time></trkpt><trkpt lat="37.56869986854298" lon="12.990257978690959"><ele>49.0</ele><time>2026-04-18T08:26:45Z</time></trkpt><trkpt lat="37.568665534659544" lon="12.990356611094946"><ele>48.666666666666664</ele><time>2026-04-18T08:26:47Z</time></trkpt><trkpt lat="37.568622387306455" lon="12.990478301130796"><ele>48.33333333333333</ele><time>2026-04-18T08:26:49Z</time></trkpt><trkpt lat="37.56859642153823" lon="12.990551533308802"><ele>48.0</ele><time>2026-04-18T08:26:50Z</time></trkpt><trkpt lat="37.568568367929025" lon="12.99063065395078"><ele>47.666666666666664</ele><time>2026-04-18T08:26:51Z</time></trkpt><trkpt lat="37.568537168360606" lon="12.990719803454446"><ele>47.33333333333333</ele><time>2026-04-18T08:26:52Z</time></trkpt><trkpt lat="37.56850424452701" lon="12.99081777658814"><ele>47.0</ele><time>2026-04-18T08:26:53Z</time></trkpt><trkpt lat="37.56847552264602" lon="12.9909032458234"><ele>47.0</ele><time>2026-04-18T08:26:54Z</time></trkpt><trkpt lat="37.568434448724055" lon="12.991025471654307"><ele>47.0</ele><time>2026-04-18T08:26:56Z</time></trkpt><trkpt lat="37.56840210883009" lon="12.991120769058595"><ele>47.0</ele><time>2026-04-18T08:26:58Z</time></trkpt><trkpt lat="37.56837615754013" lon="12.99119438064048"><ele>47.0</ele><time>2026-04-18T08:26:59Z</time></trkpt><trkpt lat="37.56834431072389" lon="12.991282153755977"><ele>47.0</ele><time>2026-04-18T08:27:00Z</time></trkpt><trkpt lat="37.56832252208689" lon="12.99136797253403"><ele>47.0</ele><time>2026-04-18T08:27:01Z</time></trkpt><trkpt lat="37.56827190129725" lon="12.991446250871945"><ele>47.0</ele><time>2026-04-18T08:27:02Z</time></trkpt><trkpt lat="37.56819798608145" lon="12.991512858327951"><ele>47.0</ele><time>2026-04-18T08:27:03Z</time></trkpt><trkpt lat="37.56810948822026" lon="12.99154730808701"><ele>47.0</ele><time>2026-04-18T08:27:04Z</time></trkpt><trkpt lat="37.56801406655962" lon="12.991533096395955"><ele>47.0</ele><time>2026-04-18T08:27:05Z</time></trkpt><trkpt lat="37.56791775417347" lon="12.991534290910511"><ele>47.0</ele><time>2026-04-18T08:27:06.001Z</time></trkpt><trkpt lat="37.56782514523056" lon="12.991565471804083"><ele>47.2</ele><time>2026-04-18T08:27:07.001Z</time></trkpt><trkpt lat="37.567736642769134" lon="12.991593089520762"><ele>47.400000000000006</ele><time>2026-04-18T08:27:08.001Z</time></trkpt><trkpt lat="37.567641066559645" lon="12.991652875888175"><ele>47.599999999999994</ele><time>2026-04-18T08:27:09.001Z</time></trkpt><trkpt lat="37.567547681656805" lon="12.991740606498745"><ele>47.8</ele><time>2026-04-18T08:27:10.001Z</time></trkpt><trkpt lat="37.56744957261586" lon="12.991840889953542"><ele>48.0</ele><time>2026-04-18T08:27:11.001Z</time></trkpt><trkpt lat="37.56733955384934" lon="12.991927973782502"><ele>50.25</ele><time>2026-04-18T08:27:12.001Z</time></trkpt><trkpt lat="37.56724560954199" lon="12.992023698078084"><ele>52.5</ele><time>2026-04-18T08:27:13.001Z</time></trkpt><trkpt lat="37.56716200911227" lon="12.992139362606036"><ele>54.75</ele><time>2026-04-18T08:27:14.001Z</time></trkpt><trkpt lat="37.56706311778589" lon="12.992215550283332"><ele>57.0</ele><time>2026-04-18T08:27:15Z</time></trkpt><trkpt lat="37.56698391479564" lon="12.992289364927046"><ele>57.0</ele><time>2026-04-18T08:27:16Z</time></trkpt><trkpt lat="37.566909116252546" lon="12.99232562505073"><ele>57.0</ele><time>2026-04-18T08:27:17Z</time></trkpt><trkpt lat="37.56683810075673" lon="12.992349208452328"><ele>57.0</ele><time>2026-04-18T08:27:18Z</time></trkpt><trkpt lat="37.566768176668496" lon="12.992335670733894"><ele>57.0</ele><time>2026-04-18T08:27:19Z</time></trkpt><trkpt lat="37.5667062532801" lon="12.992291301173225"><ele>57.0</ele><time>2026-04-18T08:27:20Z</time></trkpt><trkpt lat="37.5666425963221" lon="12.992229882107823"><ele>57.0</ele><time>2026-04-18T08:27:21Z</time></trkpt><trkpt lat="37.56658326426164" lon="12.992133621764351"><ele>57.0</ele><time>2026-04-18T08:27:22Z</time></trkpt><trkpt lat="37.566514019754734" lon="12.992013880675517"><ele>57.0</ele><time>2026-04-18T08:27:23Z</time></trkpt><trkpt lat="37.56643998841432" lon="12.99188359289322"><ele>57.0</ele><time>2026-04-18T08:27:24Z</time></trkpt><trkpt lat="37.56634888092659" lon="12.991761039015113"><ele>57.0</ele><time>2026-04-18T08:27:25Z</time></trkpt><trkpt lat="37.56627708284679" lon="12.991609482671011"><ele>59.5</ele><time>2026-04-18T08:27:26Z</time></trkpt><trkpt lat="37.566187744644836" lon="12.99147013245001"><ele>62.0</ele><time>2026-04-18T08:27:27Z</time></trkpt><trkpt lat="37.56609120388697" lon="12.991355987024914"><ele>64.5</ele><time>2026-04-18T08:27:28Z</time></trkpt><trkpt lat="37.56601233598969" lon="12.99124874919963"><ele>67.0</ele><time>2026-04-18T08:27:29Z</time></trkpt><trkpt lat="37.5659219235132" lon="12.991164942893846"><ele>67.0</ele><time>2026-04-18T08:27:30Z</time></trkpt><trkpt lat="37.56582063083957" lon="12.9911191649861"><ele>67.0</ele><time>2026-04-18T08:27:31Z</time></trkpt><trkpt lat="37.56571465499013" lon="12.991110812475567"><ele>67.0</ele><time>2026-04-18T08:27:32Z</time></trkpt><trkpt lat="37.56559149127365" lon="12.991124488368252"><ele>67.0</ele><time>2026-04-18T08:27:33Z</time></trkpt><trkpt lat="37.56545686564409" lon="12.991148303698735"><ele>68.0</ele><time>2026-04-18T08:27:34Z</time></trkpt><trkpt lat="37.5653185443669" lon="12.991148553742974"><ele>69.0</ele><time>2026-04-18T08:27:35Z</time></trkpt><trkpt lat="37.5651768597945" lon="12.991171594429167"><ele>70.0</ele><time>2026-04-18T08:27:36Z</time></trkpt><trkpt lat="37.56502935588915" lon="12.991194698520152"><ele>71.0</ele><time>2026-04-18T08:27:37Z</time></trkpt><trkpt lat="37.56487805782749" lon="12.991225305206921"><ele>71.0</ele><time>2026-04-18T08:27:38Z</time></trkpt><trkpt lat="37.56472755376455" lon="12.99127563267924"><ele>71.0</ele><time>2026-04-18T08:27:39Z</time></trkpt><trkpt lat="37.56457707854544" lon="12.991320694921155"><ele>71.0</ele><time>2026-04-18T08:27:40Z</time></trkpt><trkpt lat="37.56444025040787" lon="12.991389751527405"><ele>72.0</ele><time>2026-04-18T08:27:41Z</time></trkpt><trkpt lat="37.564311989874355" lon="12.991481487566968"><ele>73.0</ele><time>2026-04-18T08:27:42Z</time></trkpt><trkpt lat="37.56417778156086" lon="12.99157309929334"><ele>74.0</ele><time>2026-04-18T08:27:43Z</time></trkpt><trkpt lat="37.56404434546384" lon="12.991671198691183"><ele>74.0</ele><time>2026-04-18T08:27:44Z</time></trkpt><trkpt lat="37.56392511644494" lon="12.991782635344931"><ele>74.0</ele><time>2026-04-18T08:27:45Z</time></trkpt><trkpt lat="37.56381931051078" lon="12.991900137554843"><ele>74.0</ele><time>2026-04-18T08:27:46Z</time></trkpt><trkpt lat="37.56372998480706" lon="12.9920314754437"><ele>74.0</ele><time>2026-04-18T08:27:47Z</time></trkpt><trkpt lat="37.5636448502886" lon="12.992160302245912"><ele>74.0</ele><time>2026-04-18T08:27:48Z</time></trkpt><trkpt lat="37.5635684324303" lon="12.99228280755839"><ele>74.0</ele><time>2026-04-18T08:27:49Z</time></trkpt><trkpt lat="37.563493392171914" lon="12.99239559723038"><ele>74.0</ele><time>2026-04-18T08:27:50Z</time></trkpt><trkpt lat="37.5634218255236" lon="12.992494834377522"><ele>74.0</ele><time>2026-04-18T08:27:51Z</time></trkpt><trkpt lat="37.56336209355999" lon="12.99258885038338"><ele>74.0</ele><time>2026-04-18T08:27:52Z</time></trkpt><trkpt lat="37.563295588927076" lon="12.992667821918607"><ele>73.75</ele><time>2026-04-18T08:27:53Z</time></trkpt><trkpt lat="37.563256695783345" lon="12.99279051887983"><ele>73.5</ele><time>2026-04-18T08:27:54Z</time></trkpt><trkpt lat="37.563241834677534" lon="12.992942191242056"><ele>73.25</ele><time>2026-04-18T08:27:55Z</time></trkpt><trkpt lat="37.563212883479885" lon="12.993101810989014"><ele>73.0</ele><time>2026-04-18T08:27:56Z</time></trkpt><trkpt lat="37.56318311794979" lon="12.9932748347028"><ele>72.25</ele><time>2026-04-18T08:27:57Z</time></trkpt><trkpt lat="37.5631615574826" lon="12.993460227416321"><ele>71.5</ele><time>2026-04-18T08:27:58Z</time></trkpt><trkpt lat="37.563134630656535" lon="12.993648500934636"><ele>70.75</ele><time>2026-04-18T08:27:59Z</time></trkpt><trkpt lat="37.56312007765048" lon="12.993834175188987"><ele>70.0</ele><time>2026-04-18T08:28:00Z</time></trkpt><trkpt lat="37.56309587462282" lon="12.994031093565031"><ele>68.66666666666666</ele><time>2026-04-18T08:28:01Z</time></trkpt><trkpt lat="37.563078621665326" lon="12.994233398804905"><ele>67.33333333333333</ele><time>2026-04-18T08:28:02Z</time></trkpt><trkpt lat="37.56306071037367" lon="12.994438389922093"><ele>66.0</ele><time>2026-04-18T08:28:03Z</time></trkpt><trkpt lat="37.56304394962143" lon="12.99464884252148"><ele>66.0</ele><time>2026-04-18T08:28:04Z</time></trkpt><trkpt lat="37.56302531831396" lon="12.994866628787115"><ele>66.0</ele><time>2026-04-18T08:28:05Z</time></trkpt><trkpt lat="37.5630088315081" lon="12.995091500361207"><ele>66.0</ele><time>2026-04-18T08:28:06Z</time></trkpt><trkpt lat="37.56299058355432" lon="12.99531175894879"><ele>65.66666666666667</ele><time>2026-04-18T08:28:07Z</time></trkpt><trkpt lat="37.56296993602513" lon="12.995533312695287"><ele>65.33333333333334</ele><time>2026-04-18T08:28:08Z</time></trkpt><trkpt lat="37.56295202918502" lon="12.995749849305968"><ele>65.0</ele><time>2026-04-18T08:28:09Z</time></trkpt><trkpt lat="37.5629350465463" lon="12.995962431915155"><ele>65.66666666666667</ele><time>2026-04-18T08:28:10Z</time></trkpt><trkpt lat="37.56291434066896" lon="12.996173859428716"><ele>66.33333333333333</ele><time>2026-04-18T08:28:11Z</time></trkpt><trkpt lat="37.562891254628994" lon="12.996385056704533"><ele>67.0</ele><time>2026-04-18T08:28:12Z</time></trkpt><trkpt lat="37.56287304413023" lon="12.996590515552878"><ele>65.33333333333333</ele><time>2026-04-18T08:28:13Z</time></trkpt><trkpt lat="37.56285519683116" lon="12.996792636234792"><ele>63.66666666666667</ele><time>2026-04-18T08:28:14Z</time></trkpt><trkpt lat="37.562847249279685" lon="12.996993318960074"><ele>62.0</ele><time>2026-04-18T08:28:15Z</time></trkpt><trkpt lat="37.56285241569878" lon="12.997195327984114"><ele>62.333333333333336</ele><time>2026-04-18T08:28:16Z</time></trkpt><trkpt lat="37.56287092966358" lon="12.99739748117162"><ele>62.66666666666667</ele><time>2026-04-18T08:28:17Z</time></trkpt><trkpt lat="37.56289489284738" lon="12.997604027476902"><ele>63.0</ele><time>2026-04-18T08:28:18Z</time></trkpt><trkpt lat="37.56291432080011" lon="12.997811226320602"><ele>63.0</ele><time>2026-04-18T08:28:19Z</time></trkpt><trkpt lat="37.562936019443654" lon="12.998021208251146"><ele>63.0</ele><time>2026-04-18T08:28:20Z</time></trkpt><trkpt lat="37.562954963316955" lon="12.998225535766782"><ele>63.0</ele><time>2026-04-18T08:28:21Z</time></trkpt><trkpt lat="37.56296892565878" lon="12.998414149907477"><ele>62.25</ele><time>2026-04-18T08:28:22Z</time></trkpt><trkpt lat="37.56297950359575" lon="12.998589461979863"><ele>61.5</ele><time>2026-04-18T08:28:23Z</time></trkpt><trkpt lat="37.56298484638526" lon="12.998756596677556"><ele>60.75</ele><time>2026-04-18T08:28:24Z</time></trkpt><trkpt lat="37.56298104903119" lon="12.998919735806416"><ele>60.0</ele><time>2026-04-18T08:28:25Z</time></trkpt><trkpt lat="37.56297946318801" lon="12.999084616587709"><ele>59.75</ele><time>2026-04-18T08:28:26Z</time></trkpt><trkpt lat="37.562971222009615" lon="12.999266784477733"><ele>59.5</ele><time>2026-04-18T08:28:27Z</time></trkpt><trkpt lat="37.56296079757173" lon="12.999452134152426"><ele>59.25</ele><time>2026-04-18T08:28:28Z</time></trkpt><trkpt lat="37.56294878000141" lon="12.999630318911535"><ele>59.0</ele><time>2026-04-18T08:28:29Z</time></trkpt><trkpt lat="37.562940571436606" lon="12.99979581000143"><ele>59.0</ele><time>2026-04-18T08:28:30Z</time></trkpt><trkpt lat="37.56292295268619" lon="12.999960056149435"><ele>59.0</ele><time>2026-04-18T08:28:31Z</time></trkpt><trkpt lat="37.56286939849948" lon="13.00010861357954"><ele>59.0</ele><time>2026-04-18T08:28:32Z</time></trkpt><trkpt lat="37.56282153564835" lon="13.000258392880125"><ele>59.0</ele><time>2026-04-18T08:28:33Z</time></trkpt><trkpt lat="37.562773486072274" lon="13.000414099989003"><ele>57.25</ele><time>2026-04-18T08:28:34Z</time></trkpt><trkpt lat="37.56270715391991" lon="13.000559927542612"><ele>55.5</ele><time>2026-04-18T08:28:35Z</time></trkpt><trkpt lat="37.562652111651424" lon="13.000696578653365"><ele>53.75</ele><time>2026-04-18T08:28:36Z</time></trkpt><trkpt lat="37.562604437019274" lon="13.000814931513094"><ele>52.0</ele><time>2026-04-18T08:28:37Z</time></trkpt><trkpt lat="37.56255996547734" lon="13.000920242704845"><ele>51.83333333333333</ele><time>2026-04-18T08:28:38Z</time></trkpt><trkpt lat="37.56252868428839" lon="13.001012489349524"><ele>51.666666666666664</ele><time>2026-04-18T08:28:39Z</time></trkpt><trkpt lat="37.562507813642334" lon="13.001115134694276"><ele>51.5</ele><time>2026-04-18T08:28:40Z</time></trkpt><trkpt lat="37.56250936007368" lon="13.00121439329554"><ele>51.33333333333333</ele><time>2026-04-18T08:28:41Z</time></trkpt><trkpt lat="37.56251887284913" lon="13.001314877632547"><ele>51.166666666666664</ele><time>2026-04-18T08:28:42Z</time></trkpt><trkpt lat="37.562575425999064" lon="13.00139429409781"><ele>51.0</ele><time>2026-04-18T08:28:43Z</time></trkpt><trkpt lat="37.56262794721634" lon="13.001466029350915"><ele>51.0</ele><time>2026-04-18T08:28:44Z</time></trkpt><trkpt lat="37.56268748950686" lon="13.001520356592561"><ele>51.0</ele><time>2026-04-18T08:28:45Z</time></trkpt><trkpt lat="37.56277073000295" lon="13.001560818054852"><ele>51.0</ele><time>2026-04-18T08:28:46Z</time></trkpt><trkpt lat="37.562881212993275" lon="13.001592303637176"><ele>51.0</ele><time>2026-04-18T08:28:47Z</time></trkpt><trkpt lat="37.562985400907245" lon="13.001612766701529"><ele>51.0</ele><time>2026-04-18T08:28:48Z</time></trkpt><trkpt lat="37.56308845418689" lon="13.001634161856188"><ele>52.5</ele><time>2026-04-18T08:28:49Z</time></trkpt><trkpt lat="37.56319848367722" lon="13.001663998513708"><ele>54.0</ele><time>2026-04-18T08:28:50Z</time></trkpt><trkpt lat="37.56331382729563" lon="13.0016793636297"><ele>55.5</ele><time>2026-04-18T08:28:51Z</time></trkpt><trkpt lat="37.563428602191706" lon="13.00169647655182"><ele>57.0</ele><time>2026-04-18T08:28:52Z</time></trkpt><trkpt lat="37.56354932072867" lon="13.001715345024806"><ele>54.0</ele><time>2026-04-18T08:28:53Z</time></trkpt><trkpt lat="37.56367312262792" lon="13.00173546669137"><ele>51.0</ele><time>2026-04-18T08:28:54Z</time></trkpt><trkpt lat="37.563796604507786" lon="13.00175553635449"><ele>48.0</ele><time>2026-04-18T08:28:55Z</time></trkpt><trkpt lat="37.56391723780007" lon="13.00177514303741"><ele>45.0</ele><time>2026-04-18T08:28:56Z</time></trkpt><trkpt lat="37.56402775276873" lon="13.00179273017033"><ele>44.8</ele><time>2026-04-18T08:28:57Z</time></trkpt><trkpt lat="37.56413647420282" lon="13.001806693628678"><ele>44.6</ele><time>2026-04-18T08:28:58Z</time></trkpt><trkpt lat="37.56423602212889" lon="13.001786850240617"><ele>44.400000000000006</ele><time>2026-04-18T08:28:59Z</time></trkpt><trkpt lat="37.564329287887475" lon="13.00179520849685"><ele>44.2</ele><time>2026-04-18T08:29:00Z</time></trkpt><trkpt lat="37.56443122972198" lon="13.001766773207049"><ele>44.0</ele><time>2026-04-18T08:29:01Z</time></trkpt><trkpt lat="37.56452345337353" lon="13.001690036378934"><ele>43.666666666666664</ele><time>2026-04-18T08:29:02Z</time></trkpt><trkpt lat="37.564618801976394" lon="13.001663798741804"><ele>43.33333333333333</ele><time>2026-04-18T08:29:03Z</time></trkpt><trkpt lat="37.564703298735715" lon="13.001671582273742"><ele>43.0</ele><time>2026-04-18T08:29:04Z</time></trkpt><trkpt lat="37.564785623868815" lon="13.001698082719011"><ele>42.666666666666664</ele><time>2026-04-18T08:29:05Z</time></trkpt><trkpt lat="37.56485236250163" lon="13.001765049324451"><ele>42.333333333333336</ele><time>2026-04-18T08:29:06Z</time></trkpt><trkpt lat="37.564926261209195" lon="13.00181880636191"><ele>42.0</ele><time>2026-04-18T08:29:07Z</time></trkpt><trkpt lat="37.564981123646604" lon="13.001913838140634"><ele>42.0</ele><time>2026-04-18T08:29:08Z</time></trkpt><trkpt lat="37.565018724317135" lon="13.002015945537606"><ele>42.0</ele><time>2026-04-18T08:29:09Z</time></trkpt><trkpt lat="37.56503894396219" lon="13.002119718959458"><ele>42.0</ele><time>2026-04-18T08:29:10Z</time></trkpt><trkpt lat="37.56505043304155" lon="13.002233584377143"><ele>42.0</ele><time>2026-04-18T08:29:11Z</time></trkpt><trkpt lat="37.56504956834349" lon="13.002350989603892"><ele>42.0</ele><time>2026-04-18T08:29:12Z</time></trkpt><trkpt lat="37.565031135709134" lon="13.002468334308492"><ele>41.2</ele><time>2026-04-18T08:29:13Z</time></trkpt><trkpt lat="37.56501227723823" lon="13.002587773266622"><ele>40.400000000000006</ele><time>2026-04-18T08:29:14Z</time></trkpt><trkpt lat="37.56499153793484" lon="13.002711506543923"><ele>39.599999999999994</ele><time>2026-04-18T08:29:15Z</time></trkpt><trkpt lat="37.56496613646953" lon="13.002830361371027"><ele>38.8</ele><time>2026-04-18T08:29:16Z</time></trkpt><trkpt lat="37.56494719092302" lon="13.002938274330889"><ele>38.0</ele><time>2026-04-18T08:29:17Z</time></trkpt><trkpt lat="37.5649608561398" lon="13.003052313525652"><ele>38.0</ele><time>2026-04-18T08:29:18Z</time></trkpt><trkpt lat="37.56497471144372" lon="13.003168056761162"><ele>38.0</ele><time>2026-04-18T08:29:19Z</time></trkpt><trkpt lat="37.564977713728524" lon="13.00329600253814"><ele>38.0</ele><time>2026-04-18T08:29:20Z</time></trkpt><trkpt lat="37.56501157752424" lon="13.003416495496165"><ele>38.0</ele><time>2026-04-18T08:29:21Z</time></trkpt><trkpt lat="37.56506161062716" lon="13.003526991793358"><ele>38.0</ele><time>2026-04-18T08:29:22Z</time></trkpt><trkpt lat="37.565100913762755" lon="13.003643368126847"><ele>38.25</ele><time>2026-04-18T08:29:23Z</time></trkpt><trkpt lat="37.565140070988114" lon="13.003763143831657"><ele>38.5</ele><time>2026-04-18T08:29:24Z</time></trkpt><trkpt lat="37.56516709337183" lon="13.00388927711189"><ele>38.75</ele><time>2026-04-18T08:29:25Z</time></trkpt><trkpt lat="37.56520822982348" lon="13.004025894542345"><ele>39.0</ele><time>2026-04-18T08:29:26Z</time></trkpt><trkpt lat="37.56526292858583" lon="13.004186676472779"><ele>38.25</ele><time>2026-04-18T08:29:27Z</time></trkpt><trkpt lat="37.565338334254754" lon="13.004362192066694"><ele>37.5</ele><time>2026-04-18T08:29:28Z</time></trkpt><trkpt lat="37.565348300906294" lon="13.004449685360976"><ele>36.75</ele><time>2026-04-18T08:29:29Z</time></trkpt><trkpt lat="37.56543695680359" lon="13.004585613879822"><ele>36.0</ele><time>2026-04-18T08:29:30Z</time></trkpt><trkpt lat="37.565521431194945" lon="13.004725333714537"><ele>36.25</ele><time>2026-04-18T08:29:31Z</time></trkpt><trkpt lat="37.565605682873894" lon="13.004869483021915"><ele>36.5</ele><time>2026-04-18T08:29:32Z</time></trkpt><trkpt lat="37.56568730118329" lon="13.005017909932867"><ele>36.75</ele><time>2026-04-18T08:29:33Z</time></trkpt><trkpt lat="37.565771733303286" lon="13.005159580632323"><ele>37.0</ele><time>2026-04-18T08:29:34Z</time></trkpt><trkpt lat="37.565853303607746" lon="13.005297757580324"><ele>37.0</ele><time>2026-04-18T08:29:35Z</time></trkpt><trkpt lat="37.56592954765739" lon="13.005430870875513"><ele>37.0</ele><time>2026-04-18T08:29:36Z</time></trkpt><trkpt lat="37.566003097715324" lon="13.00554422522076"><ele>37.0</ele><time>2026-04-18T08:29:37Z</time></trkpt><trkpt lat="37.56608836619949" lon="13.00563593606861"><ele>37.0</ele><time>2026-04-18T08:29:38Z</time></trkpt><trkpt lat="37.56617244383793" lon="13.005710384021233"><ele>36.833333333333336</ele><time>2026-04-18T08:29:39Z</time></trkpt><trkpt lat="37.56624413244301" lon="13.005761653891708"><ele>36.66666666666667</ele><time>2026-04-18T08:29:40Z</time></trkpt><trkpt lat="37.56630522233687" lon="13.005806591886552"><ele>36.5</ele><time>2026-04-18T08:29:41Z</time></trkpt><trkpt lat="37.56635591685148" lon="13.005859638084539"><ele>36.333333333333336</ele><time>2026-04-18T08:29:46Z</time></trkpt><trkpt lat="37.56637045830845" lon="13.005938898075726"><ele>36.166666666666664</ele><time>2026-04-18T08:29:49Z</time></trkpt><trkpt lat="37.566264916269695" lon="13.006061268874463"><ele>36.0</ele><time>2026-04-18T08:29:50Z</time></trkpt><trkpt lat="37.566192658196215" lon="13.006188345036646"><ele>34.0</ele><time>2026-04-18T08:29:51Z</time></trkpt><trkpt lat="37.566095290346674" lon="13.006412481617382"><ele>32.0</ele><time>2026-04-18T08:29:52Z</time></trkpt><trkpt lat="37.56599772583336" lon="13.006592910946013"><ele>30.0</ele><time>2026-04-18T08:29:53Z</time></trkpt><trkpt lat="37.56588874275682" lon="13.006806865560872"><ele>30.0</ele><time>2026-04-18T08:29:54Z</time></trkpt><trkpt lat="37.565771558241636" lon="13.00703937813474"><ele>30.0</ele><time>2026-04-18T08:29:55Z</time></trkpt><trkpt lat="37.56566290413298" lon="13.007274361452074"><ele>30.0</ele><time>2026-04-18T08:29:56Z</time></trkpt><trkpt lat="37.565554830949026" lon="13.007503394080171"><ele>30.0</ele><time>2026-04-18T08:29:57Z</time></trkpt><trkpt lat="37.56544853675766" lon="13.00772583013664"><ele>30.0</ele><time>2026-04-18T08:29:58Z</time></trkpt><trkpt lat="37.565340273422336" lon="13.007951184880786"><ele>30.0</ele><time>2026-04-18T08:29:59Z</time></trkpt><trkpt lat="37.565227743607096" lon="13.008177889323026"><ele>30.333333333333336</ele><time>2026-04-18T08:30:00Z</time></trkpt><trkpt lat="37.565124215894805" lon="13.008393384967237"><ele>30.666666666666668</ele><time>2026-04-18T08:30:01Z</time></trkpt><trkpt lat="37.56502300183968" lon="13.008607194562531"><ele>31.0</ele><time>2026-04-18T08:30:02Z</time></trkpt><trkpt lat="37.56492199307107" lon="13.00881760159365"><ele>31.0</ele><time>2026-04-18T08:30:03Z</time></trkpt><trkpt lat="37.564820034004555" lon="13.00902080638318"><ele>31.0</ele><time>2026-04-18T08:30:04Z</time></trkpt><trkpt lat="37.56471716640401" lon="13.009222667264408"><ele>31.0</ele><time>2026-04-18T08:30:05Z</time></trkpt><trkpt lat="37.564606844929095" lon="13.009429003156093"><ele>30.333333333333336</ele><time>2026-04-18T08:30:06Z</time></trkpt><trkpt lat="37.564473665077045" lon="13.009617793968467"><ele>29.666666666666664</ele><time>2026-04-18T08:30:07Z</time></trkpt><trkpt lat="37.56435292929462" lon="13.009832720712858"><ele>29.0</ele><time>2026-04-18T08:30:08Z</time></trkpt><trkpt lat="37.56424806311225" lon="13.010065315615607"><ele>29.0</ele><time>2026-04-18T08:30:09Z</time></trkpt><trkpt lat="37.564126915341426" lon="13.01028049330281"><ele>29.0</ele><time>2026-04-18T08:30:10Z</time></trkpt><trkpt lat="37.56401021207541" lon="13.010486863423292"><ele>29.0</ele><time>2026-04-18T08:30:11Z</time></trkpt><trkpt lat="37.5639033708383" lon="13.01067988565722"><ele>29.0</ele><time>2026-04-18T08:30:12Z</time></trkpt><trkpt lat="37.56379945844631" lon="13.010865137655449"><ele>29.0</ele><time>2026-04-18T08:30:13Z</time></trkpt><trkpt lat="37.56369640688618" lon="13.01104638279724"><ele>29.0</ele><time>2026-04-18T08:30:14Z</time></trkpt><trkpt lat="37.56359351247491" lon="13.01122306165225"><ele>29.25</ele><time>2026-04-18T08:30:15Z</time></trkpt><trkpt lat="37.56350112780811" lon="13.011383849660437"><ele>29.5</ele><time>2026-04-18T08:30:16Z</time></trkpt><trkpt lat="37.563416867591954" lon="13.011532875784189"><ele>29.75</ele><time>2026-04-18T08:30:17Z</time></trkpt><trkpt lat="37.5633474532838" lon="13.01165225490776"><ele>30.0</ele><time>2026-04-18T08:30:18Z</time></trkpt><trkpt lat="37.5632929866607" lon="13.011751503256502"><ele>30.4</ele><time>2026-04-18T08:30:19Z</time></trkpt><trkpt lat="37.563225274139185" lon="13.011828183236434"><ele>30.8</ele><time>2026-04-18T08:30:20Z</time></trkpt><trkpt lat="37.563156829876135" lon="13.011919739582552"><ele>31.200000000000003</ele><time>2026-04-18T08:30:21Z</time></trkpt><trkpt lat="37.56306242649022" lon="13.011984461822385"><ele>31.6</ele><time>2026-04-18T08:30:22Z</time></trkpt><trkpt lat="37.56294875858121" lon="13.012023859415008"><ele>32.0</ele><time>2026-04-18T08:30:23Z</time></trkpt><trkpt lat="37.562816982304085" lon="13.012041877398378"><ele>32.666666666666664</ele><time>2026-04-18T08:30:24Z</time></trkpt><trkpt lat="37.56265908024139" lon="13.012053202536153"><ele>33.333333333333336</ele><time>2026-04-18T08:30:25Z</time></trkpt><trkpt lat="37.56249059605916" lon="13.012066275368198"><ele>34.0</ele><time>2026-04-18T08:30:26Z</time></trkpt><trkpt lat="37.56231387879357" lon="13.012079987025505"><ele>34.0</ele><time>2026-04-18T08:30:27Z</time></trkpt><trkpt lat="37.562129381314584" lon="13.012091533105181"><ele>34.0</ele><time>2026-04-18T08:30:28Z</time></trkpt><trkpt lat="37.56194702319562" lon="13.012104302495898"><ele>34.0</ele><time>2026-04-18T08:30:29Z</time></trkpt><trkpt lat="37.56177135049234" lon="13.012141786791704"><ele>34.66666666666667</ele><time>2026-04-18T08:30:30Z</time></trkpt><trkpt lat="37.56158828487256" lon="13.012167187049293"><ele>35.333333333333336</ele><time>2026-04-18T08:30:31Z</time></trkpt><trkpt lat="37.56140943624701" lon="13.01221441108725"><ele>36.0</ele><time>2026-04-18T08:30:32Z</time></trkpt><trkpt lat="37.56123870305814" lon="13.012270181619883"><ele>36.666666666666664</ele><time>2026-04-18T08:30:33Z</time></trkpt><trkpt lat="37.56107149065742" lon="13.012333230897823"><ele>37.33333333333333</ele><time>2026-04-18T08:30:34Z</time></trkpt><trkpt lat="37.56091359577477" lon="13.012392703543822"><ele>38.0</ele><time>2026-04-18T08:30:35Z</time></trkpt><trkpt lat="37.56075651862347" lon="13.01242280469847"><ele>38.0</ele><time>2026-04-18T08:30:36Z</time></trkpt><trkpt lat="37.56060706373327" lon="13.012465904965454"><ele>38.0</ele><time>2026-04-18T08:30:37Z</time></trkpt><trkpt lat="37.560470967920494" lon="13.012491916007509"><ele>38.0</ele><time>2026-04-18T08:30:38Z</time></trkpt><trkpt lat="37.56032673320939" lon="13.012488334373515"><ele>38.0</ele><time>2026-04-18T08:30:39Z</time></trkpt><trkpt lat="37.560174758010575" lon="13.012461398186849"><ele>38.25</ele><time>2026-04-18T08:30:40Z</time></trkpt><trkpt lat="37.560020946312186" lon="13.012435755985136"><ele>38.5</ele><time>2026-04-18T08:30:41Z</time></trkpt><trkpt lat="37.55987801794882" lon="13.012429459087965"><ele>38.75</ele><time>2026-04-18T08:30:42Z</time></trkpt><trkpt lat="37.55974552762073" lon="13.012431704499317"><ele>39.0</ele><time>2026-04-18T08:30:43Z</time></trkpt><trkpt lat="37.559622199511566" lon="13.012457816858605"><ele>42.25</ele><time>2026-04-18T08:30:44Z</time></trkpt><trkpt lat="37.55950713556509" lon="13.012526755493917"><ele>45.5</ele><time>2026-04-18T08:30:45Z</time></trkpt><trkpt lat="37.55939067761474" lon="13.012619438345894"><ele>48.75</ele><time>2026-04-18T08:30:46Z</time></trkpt><trkpt lat="37.55926480560871" lon="13.012669419512562"><ele>52.0</ele><time>2026-04-18T08:30:47Z</time></trkpt><trkpt lat="37.5591336190125" lon="13.012704058884934"><ele>52.0</ele><time>2026-04-18T08:30:48Z</time></trkpt><trkpt lat="37.5590184342155" lon="13.012702550621775"><ele>52.0</ele><time>2026-04-18T08:30:49Z</time></trkpt><trkpt lat="37.55890988987708" lon="13.012671533848978"><ele>52.0</ele><time>2026-04-18T08:30:50Z</time></trkpt><trkpt lat="37.55880322988755" lon="13.012609828616384"><ele>52.0</ele><time>2026-04-18T08:30:51Z</time></trkpt><trkpt lat="37.5586863162909" lon="13.012602222375525"><ele>52.0</ele><time>2026-04-18T08:30:52Z</time></trkpt><trkpt lat="37.55857256394675" lon="13.012624360316593"><ele>52.0</ele><time>2026-04-18T08:30:53Z</time></trkpt><trkpt lat="37.55845881496177" lon="13.012694487855306"><ele>52.0</ele><time>2026-04-18T08:30:54Z</time></trkpt><trkpt lat="37.558339684093546" lon="13.012799394180494"><ele>52.0</ele><time>2026-04-18T08:30:55Z</time></trkpt><trkpt lat="37.55820424429495" lon="13.012917155741125"><ele>52.0</ele><time>2026-04-18T08:30:56Z</time></trkpt><trkpt lat="37.558062008128154" lon="13.013045259446278"><ele>52.0</ele><time>2026-04-18T08:30:57Z</time></trkpt><trkpt lat="37.55792902721081" lon="13.013145393737464"><ele>52.0</ele><time>2026-04-18T08:30:58Z</time></trkpt><trkpt lat="37.55780015262634" lon="13.013240239057845"><ele>55.33333333333333</ele><time>2026-04-18T08:30:59Z</time></trkpt><trkpt lat="37.55767103492668" lon="13.013338563549741"><ele>58.66666666666667</ele><time>2026-04-18T08:31:00Z</time></trkpt><trkpt lat="37.55754176829069" lon="13.013440409928728"><ele>62.0</ele><time>2026-04-18T08:31:01Z</time></trkpt><trkpt lat="37.55741627584168" lon="13.013539302803894"><ele>62.0</ele><time>2026-04-18T08:31:02Z</time></trkpt><trkpt lat="37.557304784364966" lon="13.01363724622844"><ele>62.0</ele><time>2026-04-18T08:31:03Z</time></trkpt><trkpt lat="37.557213296078714" lon="13.013744027233274"><ele>62.0</ele><time>2026-04-18T08:31:04Z</time></trkpt><trkpt lat="37.55715668431381" lon="13.01387280116315"><ele>62.0</ele><time>2026-04-18T08:31:05Z</time></trkpt><trkpt lat="37.55712977627583" lon="13.014008528680028"><ele>64.25</ele><time>2026-04-18T08:31:06Z</time></trkpt><trkpt lat="37.557132286714584" lon="13.014161169810988"><ele>66.5</ele><time>2026-04-18T08:31:07Z</time></trkpt><trkpt lat="37.557159095775994" lon="13.014315009268126"><ele>68.75</ele><time>2026-04-18T08:31:08Z</time></trkpt><trkpt lat="37.557178908724396" lon="13.01446440576242"><ele>71.0</ele><time>2026-04-18T08:31:09Z</time></trkpt><trkpt lat="37.55716341319391" lon="13.014609833799762"><ele>71.0</ele><time>2026-04-18T08:31:10Z</time></trkpt><trkpt lat="37.55710717540562" lon="13.01474681786424"><ele>71.0</ele><time>2026-04-18T08:31:11Z</time></trkpt><trkpt lat="37.55700607487101" lon="13.014857113171436"><ele>71.0</ele><time>2026-04-18T08:31:12Z</time></trkpt><trkpt lat="37.55690713554116" lon="13.014982957795818"><ele>71.0</ele><time>2026-04-18T08:31:13Z</time></trkpt><trkpt lat="37.556766298168476" lon="13.015024166174028"><ele>71.75</ele><time>2026-04-18T08:31:14Z</time></trkpt><trkpt lat="37.55662292652712" lon="13.015061698469404"><ele>72.5</ele><time>2026-04-18T08:31:15Z</time></trkpt><trkpt lat="37.55647323202392" lon="13.015081999642764"><ele>73.25</ele><time>2026-04-18T08:31:16Z</time></trkpt><trkpt lat="37.55632815679725" lon="13.015064197647227"><ele>74.0</ele><time>2026-04-18T08:31:17Z</time></trkpt><trkpt lat="37.55617700897802" lon="13.015017416079768"><ele>74.75</ele><time>2026-04-18T08:31:18Z</time></trkpt><trkpt lat="37.55602960701035" lon="13.01495415324635"><ele>75.5</ele><time>2026-04-18T08:31:19Z</time></trkpt><trkpt lat="37.55589961336518" lon="13.014939733245745"><ele>76.25</ele><time>2026-04-18T08:31:20Z</time></trkpt><trkpt lat="37.55578369395218" lon="13.014937796293768"><ele>77.0</ele><time>2026-04-18T08:31:21Z</time></trkpt><trkpt lat="37.55566564602463" lon="13.014991830310146"><ele>77.0</ele><time>2026-04-18T08:31:22Z</time></trkpt><trkpt lat="37.555548752161265" lon="13.015092565946082"><ele>77.0</ele><time>2026-04-18T08:31:23Z</time></trkpt><trkpt lat="37.55540482387264" lon="13.01516413415356"><ele>77.0</ele><time>2026-04-18T08:31:24Z</time></trkpt><trkpt lat="37.55524570821446" lon="13.015219300182228"><ele>78.33333333333334</ele><time>2026-04-18T08:31:25Z</time></trkpt><trkpt lat="37.555080114421806" lon="13.015277026350933"><ele>79.66666666666667</ele><time>2026-04-18T08:31:26Z</time></trkpt><trkpt lat="37.55491378928949" lon="13.015336923151976"><ele>81.0</ele><time>2026-04-18T08:31:27Z</time></trkpt><trkpt lat="37.55475674224884" lon="13.015425642436963"><ele>81.0</ele><time>2026-04-18T08:31:28Z</time></trkpt><trkpt lat="37.55459639640419" lon="13.015470949095667"><ele>81.0</ele><time>2026-04-18T08:31:29Z</time></trkpt><trkpt lat="37.55443848140982" lon="13.015510849922661"><ele>81.0</ele><time>2026-04-18T08:31:30Z</time></trkpt><trkpt lat="37.55427553146683" lon="13.015548138349489"><ele>80.33333333333333</ele><time>2026-04-18T08:31:31Z</time></trkpt><trkpt lat="37.554118544727245" lon="13.015584062146939"><ele>79.66666666666666</ele><time>2026-04-18T08:31:32Z</time></trkpt><trkpt lat="37.553974422092374" lon="13.015637086376325"><ele>79.0</ele><time>2026-04-18T08:31:33Z</time></trkpt><trkpt lat="37.55383386021959" lon="13.015676691792638"><ele>78.5</ele><time>2026-04-18T08:31:34Z</time></trkpt><trkpt lat="37.553702396264654" lon="13.01574193028961"><ele>78.0</ele><time>2026-04-18T08:31:35Z</time></trkpt><trkpt lat="37.55358295774556" lon="13.01584437510566"><ele>77.5</ele><time>2026-04-18T08:31:36Z</time></trkpt><trkpt lat="37.55345989142732" lon="13.015968340875895"><ele>77.0</ele><time>2026-04-18T08:31:37Z</time></trkpt><trkpt lat="37.55332314561549" lon="13.016089326441165"><ele>81.66666666666667</ele><time>2026-04-18T08:31:38Z</time></trkpt><trkpt lat="37.55318075044894" lon="13.016210865337442"><ele>86.33333333333333</ele><time>2026-04-18T08:31:39Z</time></trkpt><trkpt lat="37.553040209873124" lon="13.016331029791917"><ele>91.0</ele><time>2026-04-18T08:31:40Z</time></trkpt><trkpt lat="37.55290342356864" lon="13.016449001069175"><ele>89.0</ele><time>2026-04-18T08:31:41Z</time></trkpt><trkpt lat="37.55276528802975" lon="13.016562346832737"><ele>87.0</ele><time>2026-04-18T08:31:42Z</time></trkpt><trkpt lat="37.552626687966864" lon="13.01666812324404"><ele>85.0</ele><time>2026-04-18T08:31:43Z</time></trkpt><trkpt lat="37.552488950763994" lon="13.016768293828266"><ele>89.33333333333333</ele><time>2026-04-18T08:31:44Z</time></trkpt><trkpt lat="37.552354611540046" lon="13.016870764724377"><ele>93.66666666666666</ele><time>2026-04-18T08:31:45Z</time></trkpt><trkpt lat="37.552216640931604" lon="13.016961159778015"><ele>98.0</ele><time>2026-04-18T08:31:46Z</time></trkpt><trkpt lat="37.55209077297359" lon="13.017064481712234"><ele>97.25</ele><time>2026-04-18T08:31:47Z</time></trkpt><trkpt lat="37.551963853994934" lon="13.017150992394072"><ele>96.5</ele><time>2026-04-18T08:31:48Z</time></trkpt><trkpt lat="37.55183036433281" lon="13.01722309247158"><ele>95.75</ele><time>2026-04-18T08:31:49Z</time></trkpt><trkpt lat="37.551695520294174" lon="13.017253864347271"><ele>95.0</ele><time>2026-04-18T08:31:50Z</time></trkpt><trkpt lat="37.55155689877334" lon="13.017264934050809"><ele>95.0</ele><time>2026-04-18T08:31:51Z</time></trkpt><trkpt lat="37.551415853088095" lon="13.017270264073197"><ele>95.0</ele><time>2026-04-18T08:31:52Z</time></trkpt><trkpt lat="37.551266955922095" lon="13.017274019467502"><ele>95.0</ele><time>2026-04-18T08:31:53Z</time></trkpt><trkpt lat="37.551124190659905" lon="13.017278450550323"><ele>95.0</ele><time>2026-04-18T08:31:54Z</time></trkpt><trkpt lat="37.550977943175134" lon="13.01728689999251"><ele>93.66666666666667</ele><time>2026-04-18T08:31:55Z</time></trkpt><trkpt lat="37.55082917881934" lon="13.017327596070302"><ele>92.33333333333333</ele><time>2026-04-18T08:31:56Z</time></trkpt><trkpt lat="37.55067851809923" lon="13.017372134073293"><ele>91.0</ele><time>2026-04-18T08:31:57Z</time></trkpt><trkpt lat="37.5505298178771" lon="13.017455912213247"><ele>94.0</ele><time>2026-04-18T08:31:58Z</time></trkpt><trkpt lat="37.55037933454727" lon="13.017555368987633"><ele>97.0</ele><time>2026-04-18T08:31:59Z</time></trkpt><trkpt lat="37.550234938237445" lon="13.017644572981638"><ele>100.0</ele><time>2026-04-18T08:32:00Z</time></trkpt><trkpt lat="37.550090244120305" lon="13.017738017474551"><ele>100.0</ele><time>2026-04-18T08:32:01Z</time></trkpt><trkpt lat="37.549939042535556" lon="13.017839602711604"><ele>100.0</ele><time>2026-04-18T08:32:02Z</time></trkpt><trkpt lat="37.5497854039956" lon="13.017935984346046"><ele>100.0</ele><time>2026-04-18T08:32:03Z</time></trkpt><trkpt lat="37.54963223283684" lon="13.018027112746614"><ele>98.33333333333334</ele><time>2026-04-18T08:32:04Z</time></trkpt><trkpt lat="37.54947808350089" lon="13.018126340223551"><ele>96.66666666666667</ele><time>2026-04-18T08:32:05Z</time></trkpt><trkpt lat="37.54932359291927" lon="13.01822202332667"><ele>95.0</ele><time>2026-04-18T08:32:06Z</time></trkpt><trkpt lat="37.5491704482448" lon="13.018306047945652"><ele>98.33333333333334</ele><time>2026-04-18T08:32:07Z</time></trkpt><trkpt lat="37.54900952920007" lon="13.018346708655459"><ele>101.66666666666667</ele><time>2026-04-18T08:32:08Z</time></trkpt><trkpt lat="37.54884990294057" lon="13.018373688831158"><ele>105.0</ele><time>2026-04-18T08:32:09Z</time></trkpt><trkpt lat="37.548681661018584" lon="13.018389271661666"><ele>105.33333333333334</ele><time>2026-04-18T08:32:10Z</time></trkpt><trkpt lat="37.54850361572291" lon="13.018400793085704"><ele>105.66666666666667</ele><time>2026-04-18T08:32:11Z</time></trkpt><trkpt lat="37.548326353521894" lon="13.01840946771512"><ele>106.0</ele><time>2026-04-18T08:32:12Z</time></trkpt><trkpt lat="37.54815355492614" lon="13.01843708408198"><ele>106.0</ele><time>2026-04-18T08:32:13Z</time></trkpt><trkpt lat="37.547970353360746" lon="13.018447064212882"><ele>106.0</ele><time>2026-04-18T08:32:14Z</time></trkpt><trkpt lat="37.547791135064735" lon="13.018455475020241"><ele>106.0</ele><time>2026-04-18T08:32:15Z</time></trkpt><trkpt lat="37.547610575399844" lon="13.018462297845133"><ele>106.66666666666667</ele><time>2026-04-18T08:32:16Z</time></trkpt><trkpt lat="37.54742916863449" lon="13.018470600455156"><ele>107.33333333333334</ele><time>2026-04-18T08:32:17Z</time></trkpt><trkpt lat="37.54724256121347" lon="13.01848668550937"><ele>108.0</ele><time>2026-04-18T08:32:18Z</time></trkpt><trkpt lat="37.54705882622799" lon="13.018498492385097"><ele>106.66666666666666</ele><time>2026-04-18T08:32:19Z</time></trkpt><trkpt lat="37.54687658916663" lon="13.018515364632801"><ele>105.33333333333333</ele><time>2026-04-18T08:32:20Z</time></trkpt><trkpt lat="37.54669089333318" lon="13.018544512321439"><ele>104.0</ele><time>2026-04-18T08:32:21Z</time></trkpt><trkpt lat="37.546505895920575" lon="13.018574911400103"><ele>104.0</ele><time>2026-04-18T08:32:22Z</time></trkpt><trkpt lat="37.546318136987445" lon="13.018605079956929"><ele>104.0</ele><time>2026-04-18T08:32:23Z</time></trkpt><trkpt lat="37.54612737418004" lon="13.018636928888112"><ele>104.0</ele><time>2026-04-18T08:32:24Z</time></trkpt><trkpt lat="37.54593580323085" lon="13.018667582815945"><ele>103.0</ele><time>2026-04-18T08:32:25Z</time></trkpt><trkpt lat="37.545745937297674" lon="13.018693728280134"><ele>102.0</ele><time>2026-04-18T08:32:26Z</time></trkpt><trkpt lat="37.54555882318168" lon="13.018723596298067"><ele>101.0</ele><time>2026-04-18T08:32:27Z</time></trkpt><trkpt lat="37.545373480973936" lon="13.018756453851283"><ele>101.0</ele><time>2026-04-18T08:32:28Z</time></trkpt><trkpt lat="37.5451936251008" lon="13.018787450247459"><ele>101.0</ele><time>2026-04-18T08:32:29Z</time></trkpt><trkpt lat="37.54502008826107" lon="13.018820402536129"><ele>101.0</ele><time>2026-04-18T08:32:30Z</time></trkpt><trkpt lat="37.54485208740666" lon="13.018829289631924"><ele>101.0</ele><time>2026-04-18T08:32:31Z</time></trkpt><trkpt lat="37.544691078158145" lon="13.01887199830499"><ele>101.0</ele><time>2026-04-18T08:32:32Z</time></trkpt><trkpt lat="37.5445423085485" lon="13.018870336154666"><ele>101.0</ele><time>2026-04-18T08:32:33Z</time></trkpt><trkpt lat="37.54440704888231" lon="13.018813061226554"><ele>102.0</ele><time>2026-04-18T08:32:34Z</time></trkpt><trkpt lat="37.54429902796656" lon="13.018727442824746"><ele>103.0</ele><time>2026-04-18T08:32:35Z</time></trkpt><trkpt lat="37.544179840011516" lon="13.018629729647555"><ele>104.0</ele><time>2026-04-18T08:32:36Z</time></trkpt><trkpt lat="37.54405129459038" lon="13.018518128355318"><ele>105.0</ele><time>2026-04-18T08:32:37Z</time></trkpt><trkpt lat="37.54391163148774" lon="13.018396283347869"><ele>103.66666666666666</ele><time>2026-04-18T08:32:38Z</time></trkpt><trkpt lat="37.543776979313975" lon="13.018278810017435"><ele>102.33333333333333</ele><time>2026-04-18T08:32:39Z</time></trkpt><trkpt lat="37.543646524831544" lon="13.018164998683192"><ele>101.0</ele><time>2026-04-18T08:32:40Z</time></trkpt><trkpt lat="37.54351902918446" lon="13.018053768843766"><ele>101.0</ele><time>2026-04-18T08:32:41Z</time></trkpt><trkpt lat="37.54339568876907" lon="13.017942326445066"><ele>101.0</ele><time>2026-04-18T08:32:42Z</time></trkpt><trkpt lat="37.54326383299772" lon="13.01785134358159"><ele>101.0</ele><time>2026-04-18T08:32:43Z</time></trkpt><trkpt lat="37.54313766394948" lon="13.017742858564684"><ele>101.0</ele><time>2026-04-18T08:32:44Z</time></trkpt><trkpt lat="37.5430005888217" lon="13.017656747024624"><ele>101.0</ele><time>2026-04-18T08:32:45Z</time></trkpt><trkpt lat="37.54284911448142" lon="13.017595789927942"><ele>101.0</ele><time>2026-04-18T08:32:46Z</time></trkpt><trkpt lat="37.54268282219941" lon="13.01756111965071"><ele>102.33333333333333</ele><time>2026-04-18T08:32:47Z</time></trkpt><trkpt lat="37.54250628552774" lon="13.01752160440763"><ele>103.66666666666666</ele><time>2026-04-18T08:32:48Z</time></trkpt><trkpt lat="37.54232162932086" lon="13.01752383945498"><ele>105.0</ele><time>2026-04-18T08:32:49Z</time></trkpt><trkpt lat="37.54213934729631" lon="13.017497137287307"><ele>101.0</ele><time>2026-04-18T08:32:50Z</time></trkpt><trkpt lat="37.5419534645134" lon="13.01747050135316"><ele>97.0</ele><time>2026-04-18T08:32:51Z</time></trkpt><trkpt lat="37.54176487082571" lon="13.01744904444109"><ele>93.0</ele><time>2026-04-18T08:32:52Z</time></trkpt><trkpt lat="37.541583949632766" lon="13.017393574363256"><ele>93.0</ele><time>2026-04-18T08:32:53Z</time></trkpt><trkpt lat="37.54140592846578" lon="13.017369437243035"><ele>93.0</ele><time>2026-04-18T08:32:54Z</time></trkpt><trkpt lat="37.5412225794866" lon="13.017346600497776"><ele>93.0</ele><time>2026-04-18T08:32:55Z</time></trkpt><trkpt lat="37.54103849790095" lon="13.017349485488225"><ele>93.0</ele><time>2026-04-18T08:32:56Z</time></trkpt><trkpt lat="37.540856421896606" lon="13.017342706937892"><ele>93.0</ele><time>2026-04-18T08:32:57Z</time></trkpt><trkpt lat="37.54066547238952" lon="13.017363186591218"><ele>93.0</ele><time>2026-04-18T08:32:58Z</time></trkpt><trkpt lat="37.54047577994674" lon="13.017398725209654"><ele>92.0</ele><time>2026-04-18T08:32:59Z</time></trkpt><trkpt lat="37.540281532639206" lon="13.017416534387138"><ele>91.0</ele><time>2026-04-18T08:33:00Z</time></trkpt><trkpt lat="37.54009014750792" lon="13.017449823853509"><ele>90.0</ele><time>2026-04-18T08:33:01Z</time></trkpt><trkpt lat="37.53989570690155" lon="13.017481022577368"><ele>93.33333333333334</ele><time>2026-04-18T08:33:02Z</time></trkpt><trkpt lat="37.539700673186935" lon="13.017505227230094"><ele>96.66666666666667</ele><time>2026-04-18T08:33:03Z</time></trkpt><trkpt lat="37.53949862794447" lon="13.017522551545202"><ele>100.0</ele><time>2026-04-18T08:33:04Z</time></trkpt><trkpt lat="37.539294090592165" lon="13.017536653984331"><ele>100.0</ele><time>2026-04-18T08:33:05Z</time></trkpt><trkpt lat="37.539086556667726" lon="13.017549908314715"><ele>100.0</ele><time>2026-04-18T08:33:06Z</time></trkpt><trkpt lat="37.53888433998648" lon="13.017562823038505"><ele>100.0</ele><time>2026-04-18T08:33:07Z</time></trkpt><trkpt lat="37.53867633637767" lon="13.017577516715049"><ele>100.33333333333334</ele><time>2026-04-18T08:33:08Z</time></trkpt><trkpt lat="37.53847468084952" lon="13.01759451581168"><ele>100.66666666666666</ele><time>2026-04-18T08:33:09Z</time></trkpt><trkpt lat="37.53827986732584" lon="13.01761196734359"><ele>101.0</ele><time>2026-04-18T08:33:10Z</time></trkpt><trkpt lat="37.53808407066571" lon="13.017631493644345"><ele>101.0</ele><time>2026-04-18T08:33:11Z</time></trkpt><trkpt lat="37.53788677343151" lon="13.017673945080867"><ele>101.0</ele><time>2026-04-18T08:33:12Z</time></trkpt><trkpt lat="37.53767955049463" lon="13.017676291808261"><ele>101.0</ele><time>2026-04-18T08:33:13Z</time></trkpt><trkpt lat="37.53747544523221" lon="13.017703778616509"><ele>101.33333333333333</ele><time>2026-04-18T08:33:14Z</time></trkpt><trkpt lat="37.53725875075823" lon="13.017741617322601"><ele>101.66666666666666</ele><time>2026-04-18T08:33:15Z</time></trkpt><trkpt lat="37.53704028094355" lon="13.017810708429728"><ele>102.0</ele><time>2026-04-18T08:33:16Z</time></trkpt><trkpt lat="37.53679832479378" lon="13.01785277595204"><ele>102.5</ele><time>2026-04-18T08:33:17Z</time></trkpt><trkpt lat="37.53654691004198" lon="13.017923140389467"><ele>103.0</ele><time>2026-04-18T08:33:18Z</time></trkpt><trkpt lat="37.5363006165195" lon="13.017990323664785"><ele>103.0</ele><time>2026-04-18T08:33:19Z</time></trkpt><trkpt lat="37.536064895856036" lon="13.018052795219825"><ele>103.0</ele><time>2026-04-18T08:33:20Z</time></trkpt><trkpt lat="37.53583840537452" lon="13.018112963819"><ele>103.0</ele><time>2026-04-18T08:33:21Z</time></trkpt><trkpt lat="37.53561870749028" lon="13.018172494201941"><ele>103.0</ele><time>2026-04-18T08:33:22Z</time></trkpt><trkpt lat="37.535403346418434" lon="13.018230849447717"><ele>103.0</ele><time>2026-04-18T08:33:23Z</time></trkpt><trkpt lat="37.535192641553515" lon="13.018287943039754"><ele>102.66666666666667</ele><time>2026-04-18T08:33:24Z</time></trkpt><trkpt lat="37.53498724780035" lon="13.018343401131826"><ele>102.33333333333334</ele><time>2026-04-18T08:33:25Z</time></trkpt><trkpt lat="37.534787411125386" lon="13.01839549530125"><ele>102.0</ele><time>2026-04-18T08:33:26Z</time></trkpt><trkpt lat="37.53458300426604" lon="13.018448663594034"><ele>102.0</ele><time>2026-04-18T08:33:27Z</time></trkpt><trkpt lat="37.53436894384293" lon="13.018504314473986"><ele>102.0</ele><time>2026-04-18T08:33:28Z</time></trkpt><trkpt lat="37.53414733033656" lon="13.01856171035375"><ele>102.0</ele><time>2026-04-18T08:33:29Z</time></trkpt><trkpt lat="37.53392372118047" lon="13.018619534662033"><ele>102.0</ele><time>2026-04-18T08:33:30Z</time></trkpt><trkpt lat="37.533700209818534" lon="13.018677333678367"><ele>102.0</ele><time>2026-04-18T08:33:31Z</time></trkpt><trkpt lat="37.533479751149706" lon="13.018734343283276"><ele>102.0</ele><time>2026-04-18T08:33:32Z</time></trkpt><trkpt lat="37.53326215812646" lon="13.018789852190533"><ele>102.0</ele><time>2026-04-18T08:33:33Z</time></trkpt><trkpt lat="37.533048416438916" lon="13.01884524669138"><ele>102.0</ele><time>2026-04-18T08:33:34Z</time></trkpt><trkpt lat="37.53283913326333" lon="13.018899487628206"><ele>101.33333333333334</ele><time>2026-04-18T08:33:35Z</time></trkpt><trkpt lat="37.53263190485422" lon="13.018952817347655"><ele>100.66666666666667</ele><time>2026-04-18T08:33:36Z</time></trkpt><trkpt lat="37.532426553167234" lon="13.019006694261265"><ele>100.0</ele><time>2026-04-18T08:33:37Z</time></trkpt><trkpt lat="37.5322244929124" lon="13.019059707624882"><ele>100.0</ele><time>2026-04-18T08:33:38Z</time></trkpt><trkpt lat="37.53202602617577" lon="13.019111778168291"><ele>100.0</ele><time>2026-04-18T08:33:39Z</time></trkpt><trkpt lat="37.53183606136468" lon="13.019160769201983"><ele>100.0</ele><time>2026-04-18T08:33:40Z</time></trkpt><trkpt lat="37.53166005069438" lon="13.019226893310309"><ele>100.33333333333334</ele><time>2026-04-18T08:33:41Z</time></trkpt><trkpt lat="37.531489846409805" lon="13.019270038234922"><ele>100.66666666666666</ele><time>2026-04-18T08:33:42Z</time></trkpt><trkpt lat="37.53133209572776" lon="13.019309734567107"><ele>101.0</ele><time>2026-04-18T08:33:43Z</time></trkpt><trkpt lat="37.53118714294407" lon="13.019353345574574"><ele>100.5</ele><time>2026-04-18T08:33:44Z</time></trkpt><trkpt lat="37.5310679412596" lon="13.019404726931684"><ele>100.0</ele><time>2026-04-18T08:33:45Z</time></trkpt><trkpt lat="37.53096910728154" lon="13.019480529232911"><ele>99.5</ele><time>2026-04-18T08:33:46Z</time></trkpt><trkpt lat="37.530883653219796" lon="13.01956304300152"><ele>99.0</ele><time>2026-04-18T08:33:47Z</time></trkpt><trkpt lat="37.53084463750002" lon="13.019710402950786"><ele>99.0</ele><time>2026-04-18T08:33:48Z</time></trkpt><trkpt lat="37.53081012124613" lon="13.019883805701165"><ele>99.0</ele><time>2026-04-18T08:33:49Z</time></trkpt><trkpt lat="37.53078244012373" lon="13.020081738561476"><ele>99.0</ele><time>2026-04-18T08:33:50Z</time></trkpt><trkpt lat="37.53073000185397" lon="13.020291714197887"><ele>98.66666666666666</ele><time>2026-04-18T08:33:51Z</time></trkpt><trkpt lat="37.530688500745384" lon="13.020512132509063"><ele>98.33333333333333</ele><time>2026-04-18T08:33:52Z</time></trkpt><trkpt lat="37.53064425532216" lon="13.02074581536871"><ele>98.0</ele><time>2026-04-18T08:33:53Z</time></trkpt><trkpt lat="37.53059593131217" lon="13.02100103932256"><ele>98.0</ele><time>2026-04-18T08:33:54Z</time></trkpt><trkpt lat="37.53054076646277" lon="13.021292393275466"><ele>98.0</ele><time>2026-04-18T08:33:55Z</time></trkpt><trkpt lat="37.53050015386854" lon="13.021589504541584"><ele>98.33333333333333</ele><time>2026-04-18T08:33:56Z</time></trkpt><trkpt lat="37.530434748102564" lon="13.021852760155914"><ele>98.66666666666666</ele><time>2026-04-18T08:33:57Z</time></trkpt><trkpt lat="37.5303877601369" lon="13.022100342000845"><ele>99.0</ele><time>2026-04-18T08:33:58Z</time></trkpt><trkpt lat="37.53034301904421" lon="13.022331336191598"><ele>99.25</ele><time>2026-04-18T08:33:59Z</time></trkpt><trkpt lat="37.53030376143109" lon="13.022530355204564"><ele>99.5</ele><time>2026-04-18T08:34:00Z</time></trkpt><trkpt lat="37.530267292418884" lon="13.022708024722366"><ele>99.75</ele><time>2026-04-18T08:34:01Z</time></trkpt><trkpt lat="37.53021766282613" lon="13.022855988743633"><ele>100.0</ele><time>2026-04-18T08:34:02Z</time></trkpt><trkpt lat="37.53015377917863" lon="13.023001741444398"><ele>100.0</ele><time>2026-04-18T08:34:03Z</time></trkpt><trkpt lat="37.530052371686246" lon="13.023122926792565"><ele>100.0</ele><time>2026-04-18T08:34:04Z</time></trkpt><trkpt lat="37.52992892597192" lon="13.023228087420206"><ele>100.0</ele><time>2026-04-18T08:34:05Z</time></trkpt><trkpt lat="37.52978340989601" lon="13.023324800302458"><ele>100.0</ele><time>2026-04-18T08:34:06Z</time></trkpt><trkpt lat="37.52962301396774" lon="13.02341984560292"><ele>100.0</ele><time>2026-04-18T08:34:07Z</time></trkpt><trkpt lat="37.52945740180133" lon="13.023525832494496"><ele>100.0</ele><time>2026-04-18T08:34:08Z</time></trkpt><trkpt lat="37.52928013318134" lon="13.023640471225002"><ele>100.0</ele><time>2026-04-18T08:34:09Z</time></trkpt><trkpt lat="37.529101966097016" lon="13.023751141153815"><ele>100.0</ele><time>2026-04-18T08:34:10Z</time></trkpt><trkpt lat="37.52892983172319" lon="13.023856559917546"><ele>100.0</ele><time>2026-04-18T08:34:11Z</time></trkpt><trkpt lat="37.52875702730455" lon="13.023965123278083"><ele>100.33333333333334</ele><time>2026-04-18T08:34:12Z</time></trkpt><trkpt lat="37.528581353274774" lon="13.02407978820725"><ele>100.66666666666666</ele><time>2026-04-18T08:34:13Z</time></trkpt><trkpt lat="37.52840259074312" lon="13.024195991300415"><ele>101.0</ele><time>2026-04-18T08:34:14Z</time></trkpt><trkpt lat="37.528228289116704" lon="13.024309244794495"><ele>101.0</ele><time>2026-04-18T08:34:15Z</time></trkpt><trkpt lat="37.52805072692547" lon="13.024395989118391"><ele>101.0</ele><time>2026-04-18T08:34:16Z</time></trkpt><trkpt lat="37.52788254345763" lon="13.024511244248556"><ele>101.0</ele><time>2026-04-18T08:34:17Z</time></trkpt><trkpt lat="37.527729199986105" lon="13.02464800621345"><ele>100.66666666666666</ele><time>2026-04-18T08:34:18Z</time></trkpt><trkpt lat="37.52755824146093" lon="13.024765395744755"><ele>100.33333333333334</ele><time>2026-04-18T08:34:19Z</time></trkpt><trkpt lat="37.52739775973761" lon="13.024908337682563"><ele>100.0</ele><time>2026-04-18T08:34:20Z</time></trkpt><trkpt lat="37.52723904700086" lon="13.02507055526597"><ele>100.0</ele><time>2026-04-18T08:34:21Z</time></trkpt><trkpt lat="37.52708263054263" lon="13.025242959103974"><ele>100.0</ele><time>2026-04-18T08:34:22Z</time></trkpt><trkpt lat="37.52692551311662" lon="13.02541724897452"><ele>100.0</ele><time>2026-04-18T08:34:23Z</time></trkpt><trkpt lat="37.52677906224044" lon="13.025610949393016"><ele>99.33333333333334</ele><time>2026-04-18T08:34:24Z</time></trkpt><trkpt lat="37.52660694838665" lon="13.025777858208881"><ele>98.66666666666666</ele><time>2026-04-18T08:34:25Z</time></trkpt><trkpt lat="37.52644414323412" lon="13.0259564290186"><ele>98.0</ele><time>2026-04-18T08:34:26Z</time></trkpt><trkpt lat="37.52628601486481" lon="13.026137389977276"><ele>98.0</ele><time>2026-04-18T08:34:27Z</time></trkpt><trkpt lat="37.52613980199735" lon="13.026333017353542"><ele>98.0</ele><time>2026-04-18T08:34:28Z</time></trkpt><trkpt lat="37.52597791792362" lon="13.026490411010956"><ele>98.0</ele><time>2026-04-18T08:34:29Z</time></trkpt><trkpt lat="37.525834231954214" lon="13.026651002128137"><ele>98.0</ele><time>2026-04-18T08:34:30Z</time></trkpt><trkpt lat="37.52569406228258" lon="13.026802235813427"><ele>98.0</ele><time>2026-04-18T08:34:31Z</time></trkpt><trkpt lat="37.525564680146275" lon="13.026955947523058"><ele>98.0</ele><time>2026-04-18T08:34:32Z</time></trkpt><trkpt lat="37.52542221106451" lon="13.027074284319912"><ele>98.66666666666666</ele><time>2026-04-18T08:34:33Z</time></trkpt><trkpt lat="37.52526645799587" lon="13.027170614472027"><ele>99.33333333333334</ele><time>2026-04-18T08:34:34Z</time></trkpt><trkpt lat="37.52510403255208" lon="13.02724782392958"><ele>100.0</ele><time>2026-04-18T08:34:35Z</time></trkpt><trkpt lat="37.524937553323475" lon="13.027315246170874"><ele>100.0</ele><time>2026-04-18T08:34:36Z</time></trkpt><trkpt lat="37.52477086672069" lon="13.027388462993567"><ele>100.0</ele><time>2026-04-18T08:34:37Z</time></trkpt><trkpt lat="37.5246021000779" lon="13.027467506692654"><ele>100.0</ele><time>2026-04-18T08:34:38Z</time></trkpt><trkpt lat="37.52443061771305" lon="13.027544724680475"><ele>99.33333333333334</ele><time>2026-04-18T08:34:39Z</time></trkpt><trkpt lat="37.524260016774036" lon="13.027619025813358"><ele>98.66666666666666</ele><time>2026-04-18T08:34:40Z</time></trkpt><trkpt lat="37.524089776413796" lon="13.02770066572186"><ele>98.0</ele><time>2026-04-18T08:34:41Z</time></trkpt><trkpt lat="37.52392272847273" lon="13.027806720212947"><ele>98.0</ele><time>2026-04-18T08:34:42Z</time></trkpt><trkpt lat="37.52375807281761" lon="13.027923447201207"><ele>98.0</ele><time>2026-04-18T08:34:43Z</time></trkpt><trkpt lat="37.52359226016163" lon="13.028044291888285"><ele>98.0</ele><time>2026-04-18T08:34:44Z</time></trkpt><trkpt lat="37.52342760046279" lon="13.02815660512101"><ele>98.33333333333333</ele><time>2026-04-18T08:34:45Z</time></trkpt><trkpt lat="37.52326298448567" lon="13.028278607185388"><ele>98.66666666666666</ele><time>2026-04-18T08:34:46Z</time></trkpt><trkpt lat="37.5230988523462" lon="13.028415130510364"><ele>99.0</ele><time>2026-04-18T08:34:47Z</time></trkpt><trkpt lat="37.52293520012389" lon="13.028529382200885"><ele>98.0</ele><time>2026-04-18T08:34:48Z</time></trkpt><trkpt lat="37.52277310975935" lon="13.028631916543999"><ele>97.0</ele><time>2026-04-18T08:34:49Z</time></trkpt><trkpt lat="37.522595206081824" lon="13.028803026812307"><ele>96.0</ele><time>2026-04-18T08:34:50Z</time></trkpt><trkpt lat="37.52242120465633" lon="13.028945425233937"><ele>96.0</ele><time>2026-04-18T08:34:51Z</time></trkpt><trkpt lat="37.5222522460629" lon="13.029086748151833"><ele>96.0</ele><time>2026-04-18T08:34:52Z</time></trkpt><trkpt lat="37.522078585878496" lon="13.029225556728116"><ele>96.0</ele><time>2026-04-18T08:34:53Z</time></trkpt><trkpt lat="37.521909312053914" lon="13.029357669829158"><ele>95.33333333333333</ele><time>2026-04-18T08:34:54Z</time></trkpt><trkpt lat="37.52174591948205" lon="13.029483330188127"><ele>94.66666666666666</ele><time>2026-04-18T08:34:55Z</time></trkpt><trkpt lat="37.52158402603486" lon="13.029610475060382"><ele>94.0</ele><time>2026-04-18T08:34:56Z</time></trkpt><trkpt lat="37.5214280516164" lon="13.029736450646116"><ele>94.0</ele><time>2026-04-18T08:34:57Z</time></trkpt><trkpt lat="37.52127589912398" lon="13.02985485471339"><ele>94.0</ele><time>2026-04-18T08:34:58Z</time></trkpt><trkpt lat="37.52113172602279" lon="13.029958234005601"><ele>94.0</ele><time>2026-04-18T08:34:59Z</time></trkpt><trkpt lat="37.52099677851945" lon="13.030053208394024"><ele>93.25</ele><time>2026-04-18T08:35:00Z</time></trkpt><trkpt lat="37.5208647367781" lon="13.030147587319828"><ele>92.5</ele><time>2026-04-18T08:35:01Z</time></trkpt><trkpt lat="37.52073158306197" lon="13.030226347383548"><ele>91.75</ele><time>2026-04-18T08:35:02Z</time></trkpt><trkpt lat="37.52059234179775" lon="13.030282726869796"><ele>91.0</ele><time>2026-04-18T08:35:03Z</time></trkpt><trkpt lat="37.52045152557242" lon="13.03031201493388"><ele>92.33333333333333</ele><time>2026-04-18T08:35:04Z</time></trkpt><trkpt lat="37.52030437024879" lon="13.030307549096188"><ele>93.66666666666667</ele><time>2026-04-18T08:35:05Z</time></trkpt><trkpt lat="37.520142803022225" lon="13.030283736144005"><ele>95.0</ele><time>2026-04-18T08:35:06Z</time></trkpt><trkpt lat="37.5199747386146" lon="13.030252191170732"><ele>95.0</ele><time>2026-04-18T08:35:07Z</time></trkpt><trkpt lat="37.51980492125717" lon="13.030217198318638"><ele>95.0</ele><time>2026-04-18T08:35:08Z</time></trkpt><trkpt lat="37.51964751648003" lon="13.030184272750247"><ele>95.0</ele><time>2026-04-18T08:35:09Z</time></trkpt><trkpt lat="37.51950410839182" lon="13.030140575695272"><ele>95.0</ele><time>2026-04-18T08:35:10Z</time></trkpt><trkpt lat="37.5193844355588" lon="13.03007478354302"><ele>95.0</ele><time>2026-04-18T08:35:11Z</time></trkpt><trkpt lat="37.519274141234895" lon="13.02998912614932"><ele>95.0</ele><time>2026-04-18T08:35:12Z</time></trkpt><trkpt lat="37.519170994362554" lon="13.029877505398142"><ele>95.0</ele><time>2026-04-18T08:35:13Z</time></trkpt><trkpt lat="37.51907034963319" lon="13.029736737551861"><ele>96.0</ele><time>2026-04-18T08:35:14Z</time></trkpt><trkpt lat="37.5189587355439" lon="13.029573581619255"><ele>97.0</ele><time>2026-04-18T08:35:15Z</time></trkpt><trkpt lat="37.51884135999572" lon="13.02939989133996"><ele>98.0</ele><time>2026-04-18T08:35:16Z</time></trkpt><trkpt lat="37.51871557548445" lon="13.029215657650674"><ele>96.0</ele><time>2026-04-18T08:35:17Z</time></trkpt><trkpt lat="37.518580596977976" lon="13.029024760476506"><ele>94.0</ele><time>2026-04-18T08:35:18Z</time></trkpt><trkpt lat="37.51844204513349" lon="13.028838449247454"><ele>92.0</ele><time>2026-04-18T08:35:19Z</time></trkpt><trkpt lat="37.5183035402588" lon="13.028657461988473"><ele>92.0</ele><time>2026-04-18T08:35:20Z</time></trkpt><trkpt lat="37.51817141115391" lon="13.028485907960931"><ele>92.0</ele><time>2026-04-18T08:35:21Z</time></trkpt><trkpt lat="37.51805245932403" lon="13.028331492088686"><ele>92.0</ele><time>2026-04-18T08:35:22Z</time></trkpt><trkpt lat="37.51793775897044" lon="13.02818747710404"><ele>91.33333333333334</ele><time>2026-04-18T08:35:23Z</time></trkpt><trkpt lat="37.517816700122474" lon="13.028062738909687"><ele>90.66666666666667</ele><time>2026-04-18T08:35:24Z</time></trkpt><trkpt lat="37.517679158117836" lon="13.027959451233352"><ele>90.0</ele><time>2026-04-18T08:35:25Z</time></trkpt><trkpt lat="37.51752694925749" lon="13.027870307096228"><ele>90.0</ele><time>2026-04-18T08:35:26Z</time></trkpt><trkpt lat="37.51737720248206" lon="13.027788923606373"><ele>90.0</ele><time>2026-04-18T08:35:27Z</time></trkpt><trkpt lat="37.51722957798513" lon="13.027728361034992"><ele>90.0</ele><time>2026-04-18T08:35:28Z</time></trkpt><trkpt lat="37.51708555220568" lon="13.027697476165136"><ele>90.0</ele><time>2026-04-18T08:35:29Z</time></trkpt><trkpt lat="37.516945878768816" lon="13.02769450284756"><ele>90.0</ele><time>2026-04-18T08:35:30Z</time></trkpt><trkpt lat="37.516802890230636" lon="13.027729106667682"><ele>90.0</ele><time>2026-04-18T08:35:31Z</time></trkpt><trkpt lat="37.51663805132545" lon="13.02777207961577"><ele>90.0</ele><time>2026-04-18T08:35:32Z</time></trkpt><trkpt lat="37.516468582366514" lon="13.02784007885209"><ele>90.0</ele><time>2026-04-18T08:35:33Z</time></trkpt><trkpt lat="37.516298769009765" lon="13.027901528398678"><ele>90.0</ele><time>2026-04-18T08:35:34Z</time></trkpt><trkpt lat="37.51613790316943" lon="13.027936272067306"><ele>90.66666666666667</ele><time>2026-04-18T08:35:35Z</time></trkpt><trkpt lat="37.51600092601224" lon="13.02792477804987"><ele>91.33333333333334</ele><time>2026-04-18T08:35:36Z</time></trkpt><trkpt lat="37.51586512964625" lon="13.027872826955797"><ele>92.0</ele><time>2026-04-18T08:35:37Z</time></trkpt><trkpt lat="37.5156698383083" lon="13.027793879362372"><ele>92.0</ele><time>2026-04-18T08:35:39Z</time></trkpt><trkpt lat="37.51550175690651" lon="13.027723459387875"><ele>92.0</ele><time>2026-04-18T08:35:40Z</time></trkpt><trkpt lat="37.51532009244354" lon="13.027646076065155"><ele>92.0</ele><time>2026-04-18T08:35:41Z</time></trkpt><trkpt lat="37.515132925325" lon="13.027568912906924"><ele>91.66666666666667</ele><time>2026-04-18T08:35:42Z</time></trkpt><trkpt lat="37.51495135033527" lon="13.027494055216286"><ele>91.33333333333333</ele><time>2026-04-18T08:35:43Z</time></trkpt><trkpt lat="37.51477061745628" lon="13.027419544685934"><ele>91.0</ele><time>2026-04-18T08:35:44Z</time></trkpt><trkpt lat="37.514594419086905" lon="13.027347585231801"><ele>90.66666666666666</ele><time>2026-04-18T08:35:45Z</time></trkpt><trkpt lat="37.51442135271826" lon="13.027283196814574"><ele>90.33333333333333</ele><time>2026-04-18T08:35:46Z</time></trkpt><trkpt lat="37.514245056236746" lon="13.027237545274724"><ele>90.0</ele><time>2026-04-18T08:35:47Z</time></trkpt><trkpt lat="37.51406688543138" lon="13.027232489570176"><ele>90.0</ele><time>2026-04-18T08:35:48Z</time></trkpt><trkpt lat="37.513894207737074" lon="13.027225571585921"><ele>90.0</ele><time>2026-04-18T08:35:49Z</time></trkpt><trkpt lat="37.51372245036577" lon="13.027237092997321"><ele>90.0</ele><time>2026-04-18T08:35:50Z</time></trkpt><trkpt lat="37.513549467005994" lon="13.02724021097609"><ele>90.0</ele><time>2026-04-18T08:35:51Z</time></trkpt><trkpt lat="37.513387041803306" lon="13.027240131472274"><ele>90.0</ele><time>2026-04-18T08:35:52Z</time></trkpt><trkpt lat="37.51322696382403" lon="13.027260081026133"><ele>90.0</ele><time>2026-04-18T08:35:53Z</time></trkpt><trkpt lat="37.513070031138454" lon="13.027290149930819"><ele>90.0</ele><time>2026-04-18T08:35:54Z</time></trkpt><trkpt lat="37.51292171971225" lon="13.027345853498053"><ele>90.0</ele><time>2026-04-18T08:35:55Z</time></trkpt><trkpt lat="37.51277485053522" lon="13.027430306042074"><ele>90.0</ele><time>2026-04-18T08:35:56Z</time></trkpt><trkpt lat="37.51264547695051" lon="13.027532670747417"><ele>89.0</ele><time>2026-04-18T08:35:57Z</time></trkpt><trkpt lat="37.512528184252226" lon="13.027643923159715"><ele>88.0</ele><time>2026-04-18T08:35:58Z</time></trkpt><trkpt lat="37.51241933794539" lon="13.027749544587833"><ele>87.0</ele><time>2026-04-18T08:35:59Z</time></trkpt><trkpt lat="37.51233466707818" lon="13.027867246772928"><ele>86.0</ele><time>2026-04-18T08:36:00Z</time></trkpt><trkpt lat="37.51222145684766" lon="13.027962435705255"><ele>86.0</ele><time>2026-04-18T08:36:01Z</time></trkpt><trkpt lat="37.51210535808736" lon="13.028057471592927"><ele>86.0</ele><time>2026-04-18T08:36:02Z</time></trkpt><trkpt lat="37.511986408628914" lon="13.028162551164755"><ele>86.0</ele><time>2026-04-18T08:36:03Z</time></trkpt><trkpt lat="37.511870808289416" lon="13.028282371811363"><ele>86.0</ele><time>2026-04-18T08:36:04Z</time></trkpt><trkpt lat="37.511762227681444" lon="13.028423359391754"><ele>86.33333333333334</ele><time>2026-04-18T08:36:05Z</time></trkpt><trkpt lat="37.511662099073774" lon="13.02859186250973"><ele>86.66666666666667</ele><time>2026-04-18T08:36:06Z</time></trkpt><trkpt lat="37.51156815846781" lon="13.028748058109803"><ele>87.0</ele><time>2026-04-18T08:36:07Z</time></trkpt><trkpt lat="37.511472985266614" lon="13.02889763526437"><ele>87.0</ele><time>2026-04-18T08:36:08Z</time></trkpt><trkpt lat="37.51137633217868" lon="13.029034230442955"><ele>87.0</ele><time>2026-04-18T08:36:09Z</time></trkpt><trkpt lat="37.511275346672704" lon="13.029152527490508"><ele>87.0</ele><time>2026-04-18T08:36:10Z</time></trkpt><trkpt lat="37.51116076950759" lon="13.029226130466496"><ele>87.0</ele><time>2026-04-18T08:36:11Z</time></trkpt><trkpt lat="37.5110392442745" lon="13.029298620089131"><ele>87.33333333333333</ele><time>2026-04-18T08:36:12Z</time></trkpt><trkpt lat="37.510894043450406" lon="13.029369880799937"><ele>87.66666666666666</ele><time>2026-04-18T08:36:13Z</time></trkpt><trkpt lat="37.51072518260248" lon="13.029464305938374"><ele>88.0</ele><time>2026-04-18T08:36:14Z</time></trkpt><trkpt lat="37.51054262183286" lon="13.029547787459618"><ele>87.66666666666666</ele><time>2026-04-18T08:36:15Z</time></trkpt><trkpt lat="37.51035709851179" lon="13.029642069230023"><ele>87.33333333333333</ele><time>2026-04-18T08:36:16Z</time></trkpt><trkpt lat="37.51017593245121" lon="13.029738729706862"><ele>87.0</ele><time>2026-04-18T08:36:17Z</time></trkpt><trkpt lat="37.510000260855854" lon="13.029821553098524"><ele>87.0</ele><time>2026-04-18T08:36:18Z</time></trkpt><trkpt lat="37.50983165238418" lon="13.02990077310833"><ele>87.0</ele><time>2026-04-18T08:36:19Z</time></trkpt><trkpt lat="37.50967361324155" lon="13.02997438779297"><ele>87.0</ele><time>2026-04-18T08:36:20Z</time></trkpt><trkpt lat="37.50952125750783" lon="13.030029431510975"><ele>86.0</ele><time>2026-04-18T08:36:21Z</time></trkpt><trkpt lat="37.509370434300195" lon="13.030041568194868"><ele>85.0</ele><time>2026-04-18T08:36:22Z</time></trkpt><trkpt lat="37.50922302086711" lon="13.030045419410989"><ele>84.0</ele><time>2026-04-18T08:36:23Z</time></trkpt><trkpt lat="37.509070228636425" lon="13.030039833383848"><ele>84.0</ele><time>2026-04-18T08:36:24Z</time></trkpt><trkpt lat="37.50890273069812" lon="13.030041845727379"><ele>84.0</ele><time>2026-04-18T08:36:25Z</time></trkpt><trkpt lat="37.50872356110647" lon="13.030014840068091"><ele>84.0</ele><time>2026-04-18T08:36:26Z</time></trkpt><trkpt lat="37.50855079419229" lon="13.029993979252033"><ele>84.5</ele><time>2026-04-18T08:36:27Z</time></trkpt><trkpt lat="37.50839520323426" lon="13.029972518630633"><ele>85.0</ele><time>2026-04-18T08:36:28Z</time></trkpt><trkpt lat="37.50825689782748" lon="13.029948296612403"><ele>85.5</ele><time>2026-04-18T08:36:29Z</time></trkpt><trkpt lat="37.50813269137484" lon="13.02987533006083"><ele>86.0</ele><time>2026-04-18T08:36:30Z</time></trkpt><trkpt lat="37.50800366807858" lon="13.029792196276581"><ele>82.66666666666667</ele><time>2026-04-18T08:36:31Z</time></trkpt><trkpt lat="37.5078668532966" lon="13.029701568812733"><ele>79.33333333333333</ele><time>2026-04-18T08:36:32Z</time></trkpt><trkpt lat="37.50771774389841" lon="13.029617116485417"><ele>76.0</ele><time>2026-04-18T08:36:33Z</time></trkpt><trkpt lat="37.507584737735634" lon="13.029525503469257"><ele>76.0</ele><time>2026-04-18T08:36:34Z</time></trkpt><trkpt lat="37.50745884333424" lon="13.029441517587351"><ele>76.0</ele><time>2026-04-18T08:36:35Z</time></trkpt><trkpt lat="37.507345048107354" lon="13.029375779560551"><ele>76.0</ele><time>2026-04-18T08:36:36Z</time></trkpt><trkpt lat="37.50723172153636" lon="13.029340310808582"><ele>76.0</ele><time>2026-04-18T08:36:37Z</time></trkpt><trkpt lat="37.5071301044229" lon="13.02934206837959"><ele>75.0</ele><time>2026-04-18T08:36:38Z</time></trkpt><trkpt lat="37.50703269546986" lon="13.029354310461628"><ele>74.0</ele><time>2026-04-18T08:36:39Z</time></trkpt><trkpt lat="37.50695413809023" lon="13.02944731516707"><ele>73.0</ele><time>2026-04-18T08:36:40Z</time></trkpt><trkpt lat="37.50688770797291" lon="13.029547721688862"><ele>72.0</ele><time>2026-04-18T08:36:41Z</time></trkpt><trkpt lat="37.50684009576789" lon="13.029664070248554"><ele>71.0</ele><time>2026-04-18T08:36:42Z</time></trkpt><trkpt lat="37.50683167607335" lon="13.029801978302537"><ele>71.0</ele><time>2026-04-18T08:36:43Z</time></trkpt><trkpt lat="37.50685126453422" lon="13.02995107369933"><ele>71.0</ele><time>2026-04-18T08:36:44Z</time></trkpt><trkpt lat="37.50689344783822" lon="13.03013013025457"><ele>71.0</ele><time>2026-04-18T08:36:45Z</time></trkpt><trkpt lat="37.50694760390908" lon="13.030322772971678"><ele>71.0</ele><time>2026-04-18T08:36:46Z</time></trkpt><trkpt lat="37.50699733304896" lon="13.03050462338248"><ele>71.0</ele><time>2026-04-18T08:36:47Z</time></trkpt><trkpt lat="37.50704783011412" lon="13.030674680692009"><ele>71.0</ele><time>2026-04-18T08:36:48Z</time></trkpt><trkpt lat="37.50709144842778" lon="13.030836557878086"><ele>71.0</ele><time>2026-04-18T08:36:49Z</time></trkpt><trkpt lat="37.507127746178426" lon="13.031004368535253"><ele>71.0</ele><time>2026-04-18T08:36:50Z</time></trkpt><trkpt lat="37.50715249618667" lon="13.031179359548794"><ele>69.33333333333334</ele><time>2026-04-18T08:36:51Z</time></trkpt><trkpt lat="37.50716384592257" lon="13.031371672117812"><ele>67.66666666666667</ele><time>2026-04-18T08:36:52Z</time></trkpt><trkpt lat="37.50714065698044" lon="13.031586999979991"><ele>66.0</ele><time>2026-04-18T08:36:53Z</time></trkpt><trkpt lat="37.507141276936096" lon="13.031832596767556"><ele>65.66666666666667</ele><time>2026-04-18T08:36:54Z</time></trkpt><trkpt lat="37.5071200175143" lon="13.032074554588467"><ele>65.33333333333334</ele><time>2026-04-18T08:36:55Z</time></trkpt><trkpt lat="37.50709686728082" lon="13.032310702543588"><ele>65.0</ele><time>2026-04-18T08:36:56Z</time></trkpt><trkpt lat="37.507078264398075" lon="13.032539760495753"><ele>66.33333333333334</ele><time>2026-04-18T08:36:57Z</time></trkpt><trkpt lat="37.50706025088716" lon="13.032766270489375"><ele>67.66666666666667</ele><time>2026-04-18T08:36:58Z</time></trkpt><trkpt lat="37.50704325490755" lon="13.032978403965458"><ele>69.0</ele><time>2026-04-18T08:36:59Z</time></trkpt><trkpt lat="37.50702623155062" lon="13.03318219696203"><ele>68.25</ele><time>2026-04-18T08:37:00Z</time></trkpt><trkpt lat="37.50701979063743" lon="13.033374753426063"><ele>67.5</ele><time>2026-04-18T08:37:01Z</time></trkpt><trkpt lat="37.50702580729129" lon="13.033563038475409"><ele>66.75</ele><time>2026-04-18T08:37:02Z</time></trkpt><trkpt lat="37.507049865567" lon="13.033743786228797"><ele>66.0</ele><time>2026-04-18T08:37:03Z</time></trkpt><trkpt lat="37.507094868889716" lon="13.033912921433968"><ele>64.33333333333333</ele><time>2026-04-18T08:37:04Z</time></trkpt><trkpt lat="37.50716313136605" lon="13.034076236539798"><ele>62.666666666666664</ele><time>2026-04-18T08:37:05Z</time></trkpt><trkpt lat="37.50725530415095" lon="13.034244933081938"><ele>61.0</ele><time>2026-04-18T08:37:06Z</time></trkpt><trkpt lat="37.50736543015806" lon="13.034412127534836"><ele>60.75</ele><time>2026-04-18T08:37:07Z</time></trkpt><trkpt lat="37.50746652022478" lon="13.034563389142523"><ele>60.5</ele><time>2026-04-18T08:37:08Z</time></trkpt><trkpt lat="37.507549257945364" lon="13.034701881553149"><ele>60.25</ele><time>2026-04-18T08:37:09Z</time></trkpt><trkpt lat="37.50761926836305" lon="13.034831665053542"><ele>60.0</ele><time>2026-04-18T08:37:10Z</time></trkpt><trkpt lat="37.507677017777866" lon="13.03497644059114"><ele>60.33333333333333</ele><time>2026-04-18T08:37:11Z</time></trkpt><trkpt lat="37.50773312955118" lon="13.035135605479493"><ele>60.666666666666664</ele><time>2026-04-18T08:37:12Z</time></trkpt><trkpt lat="37.50781582010414" lon="13.03528957609597"><ele>61.0</ele><time>2026-04-18T08:37:13Z</time></trkpt><trkpt lat="37.5079127940245" lon="13.035476641827492"><ele>61.0</ele><time>2026-04-18T08:37:14Z</time></trkpt><trkpt lat="37.50800301798305" lon="13.035706034220302"><ele>61.0</ele><time>2026-04-18T08:37:15Z</time></trkpt><trkpt lat="37.50808552504586" lon="13.035941164188973"><ele>61.0</ele><time>2026-04-18T08:37:16Z</time></trkpt><trkpt lat="37.508162677453605" lon="13.036151011498056"><ele>61.0</ele><time>2026-04-18T08:37:17Z</time></trkpt><trkpt lat="37.508228395098925" lon="13.036327115681425"><ele>61.0</ele><time>2026-04-18T08:37:18Z</time></trkpt><trkpt lat="37.50828691791032" lon="13.036471407956592"><ele>61.0</ele><time>2026-04-18T08:37:19Z</time></trkpt><trkpt lat="37.50833230434918" lon="13.036603634852312"><ele>61.0</ele><time>2026-04-18T08:37:20Z</time></trkpt><trkpt lat="37.50836678359068" lon="13.036718864640893"><ele>60.199999999999996</ele><time>2026-04-18T08:37:21Z</time></trkpt><trkpt lat="37.50838285149855" lon="13.036829584137658"><ele>59.39999999999999</ele><time>2026-04-18T08:37:22Z</time></trkpt><trkpt lat="37.508381597362714" lon="13.03696157017697"><ele>58.6</ele><time>2026-04-18T08:37:23Z</time></trkpt><trkpt lat="37.50835495428854" lon="13.037102565839621"><ele>57.8</ele><time>2026-04-18T08:37:24Z</time></trkpt><trkpt lat="37.50829454359295" lon="13.037246385359508"><ele>57.0</ele><time>2026-04-18T08:37:25Z</time></trkpt><trkpt lat="37.50822207294764" lon="13.037398153116694"><ele>54.33333333333333</ele><time>2026-04-18T08:37:26Z</time></trkpt><trkpt lat="37.50814222942907" lon="13.037547677457429"><ele>51.666666666666664</ele><time>2026-04-18T08:37:27Z</time></trkpt><trkpt lat="37.50806042485134" lon="13.037708820589819"><ele>49.0</ele><time>2026-04-18T08:37:28Z</time></trkpt><trkpt lat="37.507976977000204" lon="13.037876747428163"><ele>50.666666666666664</ele><time>2026-04-18T08:37:29Z</time></trkpt><trkpt lat="37.50788320580399" lon="13.038042668327826"><ele>52.33333333333333</ele><time>2026-04-18T08:37:30Z</time></trkpt><trkpt lat="37.50777578527318" lon="13.038200502228214"><ele>54.0</ele><time>2026-04-18T08:37:31Z</time></trkpt><trkpt lat="37.50767233628847" lon="13.038345990587136"><ele>54.0</ele><time>2026-04-18T08:37:32Z</time></trkpt><trkpt lat="37.507583597161975" lon="13.038484526956944"><ele>54.0</ele><time>2026-04-18T08:37:33Z</time></trkpt><trkpt lat="37.50751702216304" lon="13.038631198144465"><ele>54.0</ele><time>2026-04-18T08:37:34Z</time></trkpt><trkpt lat="37.50747823792018" lon="13.038797867115939"><ele>54.0</ele><time>2026-04-18T08:37:35Z</time></trkpt><trkpt lat="37.50746323378048" lon="13.038978238574177"><ele>51.5</ele><time>2026-04-18T08:37:36Z</time></trkpt><trkpt lat="37.50746283721841" lon="13.039151002256514"><ele>49.0</ele><time>2026-04-18T08:37:37Z</time></trkpt><trkpt lat="37.50744162182186" lon="13.039314344960216"><ele>46.5</ele><time>2026-04-18T08:37:38Z</time></trkpt><trkpt lat="37.507399490212805" lon="13.039468636768344"><ele>44.0</ele><time>2026-04-18T08:37:39Z</time></trkpt><trkpt lat="37.507308773500995" lon="13.039593244114695"><ele>44.0</ele><time>2026-04-18T08:37:40Z</time></trkpt><trkpt lat="37.50721561360224" lon="13.039732996178603"><ele>44.0</ele><time>2026-04-18T08:37:41Z</time></trkpt><trkpt lat="37.507109098985744" lon="13.039871640327945"><ele>44.0</ele><time>2026-04-18T08:37:42Z</time></trkpt><trkpt lat="37.50699508941716" lon="13.039994511835916"><ele>44.0</ele><time>2026-04-18T08:37:43Z</time></trkpt><trkpt lat="37.50685940225829" lon="13.040089309902605"><ele>43.666666666666664</ele><time>2026-04-18T08:37:44Z</time></trkpt><trkpt lat="37.50672326536124" lon="13.04017198442076"><ele>43.333333333333336</ele><time>2026-04-18T08:37:45Z</time></trkpt><trkpt lat="37.506569305774626" lon="13.040272522042446"><ele>43.0</ele><time>2026-04-18T08:37:46Z</time></trkpt><trkpt lat="37.50642285781013" lon="13.040356034999041"><ele>43.0</ele><time>2026-04-18T08:37:47Z</time></trkpt><trkpt lat="37.50629496893912" lon="13.040436864720585"><ele>43.0</ele><time>2026-04-18T08:37:48Z</time></trkpt><trkpt lat="37.50618718853531" lon="13.040520217850567"><ele>43.0</ele><time>2026-04-18T08:37:49Z</time></trkpt><trkpt lat="37.50610335499352" lon="13.040617664382692"><ele>43.0</ele><time>2026-04-18T08:37:50Z</time></trkpt><trkpt lat="37.5060433287774" lon="13.040734364364969"><ele>42.25</ele><time>2026-04-18T08:37:51Z</time></trkpt><trkpt lat="37.50600477576408" lon="13.040864347030782"><ele>41.5</ele><time>2026-04-18T08:37:52Z</time></trkpt><trkpt lat="37.50599361978616" lon="13.041010315972574"><ele>40.75</ele><time>2026-04-18T08:37:53Z</time></trkpt><trkpt lat="37.505999336700185" lon="13.041164744809375"><ele>40.0</ele><time>2026-04-18T08:37:54Z</time></trkpt><trkpt lat="37.506001252971465" lon="13.041336375786733"><ele>40.0</ele><time>2026-04-18T08:37:55Z</time></trkpt><trkpt lat="37.50599424244628" lon="13.041514042638566"><ele>40.0</ele><time>2026-04-18T08:37:56Z</time></trkpt><trkpt lat="37.50597380370849" lon="13.041692230191208"><ele>40.0</ele><time>2026-04-18T08:37:57Z</time></trkpt><trkpt lat="37.50591640670706" lon="13.041861400735518"><ele>40.0</ele><time>2026-04-18T08:37:58Z</time></trkpt><trkpt lat="37.50587232158136" lon="13.042045688929285"><ele>38.333333333333336</ele><time>2026-04-18T08:37:59Z</time></trkpt><trkpt lat="37.5058053108105" lon="13.042235082018875"><ele>36.666666666666664</ele><time>2026-04-18T08:38:00Z</time></trkpt><trkpt lat="37.50574478783016" lon="13.042428895816876"><ele>35.0</ele><time>2026-04-18T08:38:01Z</time></trkpt><trkpt lat="37.50568204888491" lon="13.042632952098971"><ele>31.666666666666664</ele><time>2026-04-18T08:38:02Z</time></trkpt><trkpt lat="37.50561768060977" lon="13.042837473152035"><ele>28.333333333333336</ele><time>2026-04-18T08:38:03Z</time></trkpt><trkpt lat="37.505552583853415" lon="13.04303855095906"><ele>25.0</ele><time>2026-04-18T08:38:04Z</time></trkpt><trkpt lat="37.50548656467505" lon="13.043241755581125"><ele>23.0</ele><time>2026-04-18T08:38:05Z</time></trkpt><trkpt lat="37.50541965549087" lon="13.04344325809025"><ele>21.0</ele><time>2026-04-18T08:38:06Z</time></trkpt><trkpt lat="37.505351484736956" lon="13.043639100676785"><ele>19.0</ele><time>2026-04-18T08:38:07Z</time></trkpt><trkpt lat="37.50529368294963" lon="13.043821740100377"><ele>23.0</ele><time>2026-04-18T08:38:08Z</time></trkpt><trkpt lat="37.50524936811931" lon="13.044001375337531"><ele>27.0</ele><time>2026-04-18T08:38:09Z</time></trkpt><trkpt lat="37.50523620163678" lon="13.044185096145844"><ele>31.0</ele><time>2026-04-18T08:38:10Z</time></trkpt><trkpt lat="37.50523686844521" lon="13.04438706776493"><ele>31.0</ele><time>2026-04-18T08:38:11Z</time></trkpt><trkpt lat="37.50525591958819" lon="13.044601966656552"><ele>31.0</ele><time>2026-04-18T08:38:12Z</time></trkpt><trkpt lat="37.50528579527502" lon="13.044819460423218"><ele>31.0</ele><time>2026-04-18T08:38:13Z</time></trkpt><trkpt lat="37.50531766211782" lon="13.045030400889594"><ele>30.0</ele><time>2026-04-18T08:38:14Z</time></trkpt><trkpt lat="37.50535091584609" lon="13.045232379050127"><ele>29.0</ele><time>2026-04-18T08:38:15Z</time></trkpt><trkpt lat="37.50537958348022" lon="13.04542951971584"><ele>28.0</ele><time>2026-04-18T08:38:16Z</time></trkpt><trkpt lat="37.505406371784545" lon="13.04563998295071"><ele>23.0</ele><time>2026-04-18T08:38:17Z</time></trkpt><trkpt lat="37.50543705327006" lon="13.045855153578763"><ele>18.0</ele><time>2026-04-18T08:38:18Z</time></trkpt><trkpt lat="37.5054730789469" lon="13.046058674826538"><ele>13.0</ele><time>2026-04-18T08:38:19Z</time></trkpt><trkpt lat="37.50552289632898" lon="13.046265572876285"><ele>13.0</ele><time>2026-04-18T08:38:20Z</time></trkpt><trkpt lat="37.505586176719284" lon="13.046478740992828"><ele>13.0</ele><time>2026-04-18T08:38:21Z</time></trkpt><trkpt lat="37.50566026487976" lon="13.046688286721173"><ele>13.0</ele><time>2026-04-18T08:38:22Z</time></trkpt><trkpt lat="37.505749357421074" lon="13.046884960796623"><ele>13.0</ele><time>2026-04-18T08:38:23Z</time></trkpt><trkpt lat="37.505841427868745" lon="13.047078492661507"><ele>13.0</ele><time>2026-04-18T08:38:24Z</time></trkpt><trkpt lat="37.50593178005166" lon="13.047270915876627"><ele>13.0</ele><time>2026-04-18T08:38:25Z</time></trkpt><trkpt lat="37.50602203931895" lon="13.047462995313689"><ele>13.0</ele><time>2026-04-18T08:38:26Z</time></trkpt><trkpt lat="37.50610773329567" lon="13.047646639111052"><ele>13.0</ele><time>2026-04-18T08:38:27Z</time></trkpt><trkpt lat="37.506192200789066" lon="13.047820710253502"><ele>13.0</ele><time>2026-04-18T08:38:28Z</time></trkpt><trkpt lat="37.50625396177232" lon="13.047998920348265"><ele>12.666666666666666</ele><time>2026-04-18T08:38:29Z</time></trkpt><trkpt lat="37.50633071763011" lon="13.04816635713205"><ele>12.333333333333332</ele><time>2026-04-18T08:38:30Z</time></trkpt><trkpt lat="37.506421733926864" lon="13.048358098015274"><ele>12.0</ele><time>2026-04-18T08:38:31Z</time></trkpt><trkpt lat="37.506519015047324" lon="13.048560225834972"><ele>11.666666666666666</ele><time>2026-04-18T08:38:32Z</time></trkpt><trkpt lat="37.506621741484466" lon="13.048782141677924"><ele>11.333333333333332</ele><time>2026-04-18T08:38:33Z</time></trkpt><trkpt lat="37.50673571427631" lon="13.048998713484659"><ele>11.0</ele><time>2026-04-18T08:38:34Z</time></trkpt><trkpt lat="37.506815241366525" lon="13.04921242107565"><ele>10.666666666666666</ele><time>2026-04-18T08:38:35Z</time></trkpt><trkpt lat="37.506896482362194" lon="13.049411452000044"><ele>10.333333333333334</ele><time>2026-04-18T08:38:36Z</time></trkpt><trkpt lat="37.50697980790884" lon="13.049598399373231"><ele>10.0</ele><time>2026-04-18T08:38:37Z</time></trkpt><trkpt lat="37.50705775815134" lon="13.049768667025312"><ele>11.25</ele><time>2026-04-18T08:38:38Z</time></trkpt><trkpt lat="37.50712582383351" lon="13.04991948256396"><ele>12.5</ele><time>2026-04-18T08:38:39Z</time></trkpt><trkpt lat="37.50718268231934" lon="13.050053624280332"><ele>13.75</ele><time>2026-04-18T08:38:40Z</time></trkpt><trkpt lat="37.507239515512765" lon="13.050172931247829"><ele>15.0</ele><time>2026-04-18T08:38:41Z</time></trkpt><trkpt lat="37.50728917253542" lon="13.050275664690192"><ele>15.0</ele><time>2026-04-18T08:38:42Z</time></trkpt><trkpt lat="37.50733114634077" lon="13.050368477963511"><ele>15.0</ele><time>2026-04-18T08:38:43Z</time></trkpt><trkpt lat="37.50736301047762" lon="13.05044025053544"><ele>15.0</ele><time>2026-04-18T08:38:44Z</time></trkpt><trkpt lat="37.507403951786024" lon="13.050532582858278"><ele>15.0</ele><time>2026-04-18T08:38:46Z</time></trkpt><trkpt lat="37.50744666584886" lon="13.050613519240782"><ele>15.0</ele><time>2026-04-18T08:39:08Z</time></trkpt><trkpt lat="37.507516093914944" lon="13.050760966221267"><ele>15.0</ele><time>2026-04-18T08:39:10Z</time></trkpt><trkpt lat="37.507555943150365" lon="13.050841155631769"><ele>14.2</ele><time>2026-04-18T08:39:11Z</time></trkpt><trkpt lat="37.50760427714722" lon="13.050946577348421"><ele>13.4</ele><time>2026-04-18T08:39:12Z</time></trkpt><trkpt lat="37.50765848390757" lon="13.051061979747798"><ele>12.600000000000001</ele><time>2026-04-18T08:39:13Z</time></trkpt><trkpt lat="37.507720223651106" lon="13.051190169317831"><ele>11.8</ele><time>2026-04-18T08:39:14Z</time></trkpt><trkpt lat="37.50777968164718" lon="13.05131823505842"><ele>11.0</ele><time>2026-04-18T08:39:15Z</time></trkpt><trkpt lat="37.50784886034101" lon="13.051460626661129"><ele>11.5</ele><time>2026-04-18T08:39:16Z</time></trkpt><trkpt lat="37.507918375522955" lon="13.051608327508026"><ele>12.0</ele><time>2026-04-18T08:39:17Z</time></trkpt><trkpt lat="37.50798879437917" lon="13.051765148640554"><ele>12.5</ele><time>2026-04-18T08:39:18Z</time></trkpt><trkpt lat="37.50806357451756" lon="13.051934674838256"><ele>13.0</ele><time>2026-04-18T08:39:19Z</time></trkpt><trkpt lat="37.50814453786257" lon="13.052110312569361"><ele>13.0</ele><time>2026-04-18T08:39:20Z</time></trkpt><trkpt lat="37.50822491709359" lon="13.052285710819334"><ele>13.0</ele><time>2026-04-18T08:39:21Z</time></trkpt><trkpt lat="37.508307540264134" lon="13.052471783499916"><ele>13.0</ele><time>2026-04-18T08:39:22Z</time></trkpt><trkpt lat="37.508392742847775" lon="13.052664376556713"><ele>13.0</ele><time>2026-04-18T08:39:23Z</time></trkpt><trkpt lat="37.5084816631559" lon="13.052859234199417"><ele>13.0</ele><time>2026-04-18T08:39:24Z</time></trkpt><trkpt lat="37.50857169334687" lon="13.053058953917159"><ele>13.0</ele><time>2026-04-18T08:39:25Z</time></trkpt><trkpt lat="37.50866572603815" lon="13.053266317847013"><ele>12.0</ele><time>2026-04-18T08:39:26Z</time></trkpt><trkpt lat="37.50876046004124" lon="13.053475716281804"><ele>11.0</ele><time>2026-04-18T08:39:27Z</time></trkpt><trkpt lat="37.50885829785825" lon="13.053688466888469"><ele>10.0</ele><time>2026-04-18T08:39:28Z</time></trkpt><trkpt lat="37.50895891107552" lon="13.05390193039054"><ele>10.0</ele><time>2026-04-18T08:39:29Z</time></trkpt><trkpt lat="37.509056803739284" lon="13.054116277250166"><ele>10.0</ele><time>2026-04-18T08:39:30Z</time></trkpt><trkpt lat="37.50915279612702" lon="13.054334088504193"><ele>10.0</ele><time>2026-04-18T08:39:31Z</time></trkpt><trkpt lat="37.50925251871032" lon="13.054548626030572"><ele>10.0</ele><time>2026-04-18T08:39:32Z</time></trkpt><trkpt lat="37.509354226349956" lon="13.054761018943392"><ele>10.0</ele><time>2026-04-18T08:39:33Z</time></trkpt><trkpt lat="37.509450342462976" lon="13.05497585584984"><ele>10.0</ele><time>2026-04-18T08:39:34Z</time></trkpt><trkpt lat="37.50954706115656" lon="13.055190575054672"><ele>10.333333333333334</ele><time>2026-04-18T08:39:35Z</time></trkpt><trkpt lat="37.509630134216344" lon="13.055401990881169"><ele>10.666666666666666</ele><time>2026-04-18T08:39:36Z</time></trkpt><trkpt lat="37.50972167560895" lon="13.055609297951916"><ele>11.0</ele><time>2026-04-18T08:39:37Z</time></trkpt><trkpt lat="37.5098142562628" lon="13.055810908765931"><ele>11.0</ele><time>2026-04-18T08:39:38Z</time></trkpt><trkpt lat="37.50990742875501" lon="13.056002841565013"><ele>11.0</ele><time>2026-04-18T08:39:39Z</time></trkpt><trkpt lat="37.509988155592964" lon="13.056178596392073"><ele>11.0</ele><time>2026-04-18T08:39:40Z</time></trkpt><trkpt lat="37.51006386624126" lon="13.056343876414632"><ele>11.0</ele><time>2026-04-18T08:39:41Z</time></trkpt><trkpt lat="37.51013359194661" lon="13.05649794807903"><ele>11.0</ele><time>2026-04-18T08:39:42Z</time></trkpt><trkpt lat="37.51019845716185" lon="13.056642456328102"><ele>11.0</ele><time>2026-04-18T08:39:43Z</time></trkpt><trkpt lat="37.510258450046386" lon="13.056778420490165"><ele>11.0</ele><time>2026-04-18T08:39:44Z</time></trkpt><trkpt lat="37.51031608591393" lon="13.05690961915057"><ele>11.166666666666666</ele><time>2026-04-18T08:39:45Z</time></trkpt><trkpt lat="37.51037346240657" lon="13.057030110124018"><ele>11.333333333333332</ele><time>2026-04-18T08:39:46Z</time></trkpt><trkpt lat="37.5104258086218" lon="13.057140878723704"><ele>11.5</ele><time>2026-04-18T08:39:47Z</time></trkpt><trkpt lat="37.51046866208643" lon="13.05723439688316"><ele>11.666666666666666</ele><time>2026-04-18T08:39:48Z</time></trkpt><trkpt lat="37.510501804909005" lon="13.057320178642135"><ele>11.833333333333334</ele><time>2026-04-18T08:39:49Z</time></trkpt><trkpt lat="37.51051091015673" lon="13.057409158407106"><ele>12.0</ele><time>2026-04-18T08:39:50Z</time></trkpt><trkpt lat="37.510488429869866" lon="13.0575608220931"><ele>12.6</ele><time>2026-04-18T08:39:52Z</time></trkpt><trkpt lat="37.51045342215143" lon="13.05764522433865"><ele>13.2</ele><time>2026-04-18T08:39:53Z</time></trkpt><trkpt lat="37.51038566240107" lon="13.057753899259518"><ele>13.8</ele><time>2026-04-18T08:39:54Z</time></trkpt><trkpt lat="37.51031853369017" lon="13.057879082737887"><ele>14.4</ele><time>2026-04-18T08:39:55Z</time></trkpt><trkpt lat="37.51025123930609" lon="13.058037262020735"><ele>15.0</ele><time>2026-04-18T08:39:56Z</time></trkpt><trkpt lat="37.510173038168524" lon="13.058247574239024"><ele>19.333333333333336</ele><time>2026-04-18T08:39:57Z</time></trkpt><trkpt lat="37.510105123805914" lon="13.058464553527616"><ele>23.666666666666668</ele><time>2026-04-18T08:39:58Z</time></trkpt><trkpt lat="37.51002909605732" lon="13.058702409651165"><ele>28.0</ele><time>2026-04-18T08:39:59Z</time></trkpt><trkpt lat="37.50993601226283" lon="13.058943739147301"><ele>30.75</ele><time>2026-04-18T08:40:00Z</time></trkpt><trkpt lat="37.50986027692457" lon="13.059139410780327"><ele>33.5</ele><time>2026-04-18T08:40:01Z</time></trkpt><trkpt lat="37.50979302070112" lon="13.059297330730196"><ele>36.25</ele><time>2026-04-18T08:40:02Z</time></trkpt><trkpt lat="37.50972622184585" lon="13.059420833910352"><ele>39.0</ele><time>2026-04-18T08:40:03Z</time></trkpt><trkpt lat="37.509667913700305" lon="13.059519543047225"><ele>39.0</ele><time>2026-04-18T08:40:04Z</time></trkpt><trkpt lat="37.509614956308916" lon="13.05957534275306"><ele>39.0</ele><time>2026-04-18T08:40:05Z</time></trkpt><trkpt lat="37.5095383888348" lon="13.059653483681563"><ele>39.0</ele><time>2026-04-18T08:40:07Z</time></trkpt><trkpt lat="37.509535414895204" lon="13.05978272502664"><ele>39.0</ele><time>2026-04-18T08:40:09Z</time></trkpt><trkpt lat="37.50955939558157" lon="13.059886092525444"><ele>39.0</ele><time>2026-04-18T08:40:10Z</time></trkpt><trkpt lat="37.509596919157886" lon="13.060023739290903"><ele>41.0</ele><time>2026-04-18T08:40:11Z</time></trkpt><trkpt lat="37.5096429042132" lon="13.060150269614109"><ele>43.0</ele><time>2026-04-18T08:40:12Z</time></trkpt><trkpt lat="37.509707237425395" lon="13.06031407140212"><ele>45.0</ele><time>2026-04-18T08:40:13Z</time></trkpt><trkpt lat="37.50976657217732" lon="13.060511101168299"><ele>47.0</ele><time>2026-04-18T08:40:14Z</time></trkpt><trkpt lat="37.50980525941227" lon="13.060681915806626"><ele>48.400000000000006</ele><time>2026-04-18T08:40:15Z</time></trkpt><trkpt lat="37.509849289222004" lon="13.060814817941765"><ele>49.800000000000004</ele><time>2026-04-18T08:40:16Z</time></trkpt><trkpt lat="37.50988030832973" lon="13.06092327378538"><ele>51.2</ele><time>2026-04-18T08:40:17Z</time></trkpt><trkpt lat="37.509930331935365" lon="13.061000292242236"><ele>52.6</ele><time>2026-04-18T08:40:18Z</time></trkpt><trkpt lat="37.50998470940952" lon="13.061094581309515"><ele>54.0</ele><time>2026-04-18T08:40:19Z</time></trkpt><trkpt lat="37.51002881307554" lon="13.06120904585788"><ele>54.0</ele><time>2026-04-18T08:40:20Z</time></trkpt><trkpt lat="37.51008573032549" lon="13.061312742985024"><ele>54.00000000000001</ele><time>2026-04-18T08:40:21Z</time></trkpt><trkpt lat="37.51013343934533" lon="13.061426287805705"><ele>54.00000000000001</ele><time>2026-04-18T08:40:22Z</time></trkpt><trkpt lat="37.51017915566266" lon="13.06155101726934"><ele>54.0</ele><time>2026-04-18T08:40:23Z</time></trkpt><trkpt lat="37.510225335186135" lon="13.06167844012819"><ele>54.0</ele><time>2026-04-18T08:40:24Z</time></trkpt><trkpt lat="37.51027442468008" lon="13.061807677137862"><ele>54.5</ele><time>2026-04-18T08:40:25Z</time></trkpt><trkpt lat="37.51032323955537" lon="13.061938158909866"><ele>55.0</ele><time>2026-04-18T08:40:26Z</time></trkpt><trkpt lat="37.51036846800053" lon="13.062071332798991"><ele>55.5</ele><time>2026-04-18T08:40:27Z</time></trkpt><trkpt lat="37.51040357653646" lon="13.0622107450866"><ele>56.0</ele><time>2026-04-18T08:40:28Z</time></trkpt><trkpt lat="37.51042681104807" lon="13.062360595419559"><ele>57.599999999999994</ele><time>2026-04-18T08:40:29Z</time></trkpt><trkpt lat="37.51043981331425" lon="13.062493767890468"><ele>59.199999999999996</ele><time>2026-04-18T08:40:30Z</time></trkpt><trkpt lat="37.510444178709804" lon="13.062616641968285"><ele>60.800000000000004</ele><time>2026-04-18T08:40:31Z</time></trkpt><trkpt lat="37.51044455864709" lon="13.06275635351044"><ele>62.400000000000006</ele><time>2026-04-18T08:40:32Z</time></trkpt><trkpt lat="37.510444648410775" lon="13.062912453397335"><ele>64.0</ele><time>2026-04-18T08:40:33Z</time></trkpt><trkpt lat="37.51044407535938" lon="13.06308074623944"><ele>64.0</ele><time>2026-04-18T08:40:34Z</time></trkpt><trkpt lat="37.5104467899174" lon="13.063259392061548"><ele>64.0</ele><time>2026-04-18T08:40:35Z</time></trkpt><trkpt lat="37.5104508364199" lon="13.063447348976053"><ele>64.0</ele><time>2026-04-18T08:40:36Z</time></trkpt><trkpt lat="37.510458033728696" lon="13.06363515687646"><ele>64.0</ele><time>2026-04-18T08:40:37Z</time></trkpt><trkpt lat="37.510455664689914" lon="13.063835617600061"><ele>64.5</ele><time>2026-04-18T08:40:38Z</time></trkpt><trkpt lat="37.510448943247404" lon="13.06401532406878"><ele>65.0</ele><time>2026-04-18T08:40:39Z</time></trkpt><trkpt lat="37.51044517069207" lon="13.06417244907476"><ele>65.5</ele><time>2026-04-18T08:40:40Z</time></trkpt><trkpt lat="37.51044432156832" lon="13.064314156862487"><ele>66.0</ele><time>2026-04-18T08:40:41Z</time></trkpt><trkpt lat="37.51044270957477" lon="13.064432837813792"><ele>66.0</ele><time>2026-04-18T08:40:42Z</time></trkpt><trkpt lat="37.51044050681243" lon="13.064544217343041"><ele>66.0</ele><time>2026-04-18T08:40:43Z</time></trkpt><trkpt lat="37.5104371388665" lon="13.064677137278494"><ele>66.0</ele><time>2026-04-18T08:40:44Z</time></trkpt><trkpt lat="37.51043705613901" lon="13.064832888511965"><ele>66.0</ele><time>2026-04-18T08:40:45Z</time></trkpt><trkpt lat="37.51044326302547" lon="13.06498264774126"><ele>66.0</ele><time>2026-04-18T08:40:46Z</time></trkpt><trkpt lat="37.510448901354046" lon="13.065135530479813"><ele>66.33333333333333</ele><time>2026-04-18T08:40:47Z</time></trkpt><trkpt lat="37.51044920180804" lon="13.065271754383877"><ele>66.66666666666667</ele><time>2026-04-18T08:40:48Z</time></trkpt><trkpt lat="37.510450699006554" lon="13.065401487798422"><ele>67.0</ele><time>2026-04-18T08:40:49Z</time></trkpt><trkpt lat="37.51044945508325" lon="13.065509628526753"><ele>67.33333333333334</ele><time>2026-04-18T08:40:50Z</time></trkpt><trkpt lat="37.51045264996731" lon="13.06560024990136"><ele>67.66666666666667</ele><time>2026-04-18T08:40:51Z</time></trkpt><trkpt lat="37.51046045999853" lon="13.065689556521807"><ele>68.0</ele><time>2026-04-18T08:40:54Z</time></trkpt><trkpt lat="37.510450757258916" lon="13.065793371154095"><ele>68.33333333333334</ele><time>2026-04-18T08:41:31Z</time></trkpt><trkpt lat="37.51045150511838" lon="13.065928568110833"><ele>68.66666666666667</ele><time>2026-04-18T08:41:33Z</time></trkpt><trkpt lat="37.51045203753422" lon="13.066009911171083"><ele>69.0</ele><time>2026-04-18T08:41:34Z</time></trkpt><trkpt lat="37.51045258187464" lon="13.066093076226283"><ele>69.33333333333333</ele><time>2026-04-18T08:41:35Z</time></trkpt><trkpt lat="37.510453214930685" lon="13.066189795475061"><ele>69.66666666666666</ele><time>2026-04-18T08:41:36Z</time></trkpt><trkpt lat="37.51045388946766" lon="13.066292851700155"><ele>70.0</ele><time>2026-04-18T08:41:37Z</time></trkpt><trkpt lat="37.51045466249007" lon="13.066410955429753"><ele>70.0</ele><time>2026-04-18T08:41:38Z</time></trkpt><trkpt lat="37.510455498202504" lon="13.066538636208946"><ele>70.0</ele><time>2026-04-18T08:41:39Z</time></trkpt><trkpt lat="37.51046800896989" lon="13.066676360037135"><ele>70.0</ele><time>2026-04-18T08:41:40Z</time></trkpt><trkpt lat="37.51046649902906" lon="13.066812778497743"><ele>70.0</ele><time>2026-04-18T08:41:41Z</time></trkpt><trkpt lat="37.51046863506676" lon="13.066956128159143"><ele>70.0</ele><time>2026-04-18T08:41:42Z</time></trkpt><trkpt lat="37.510468248618125" lon="13.067099805215229"><ele>69.5</ele><time>2026-04-18T08:41:43Z</time></trkpt><trkpt lat="37.510467491937426" lon="13.067246837716828"><ele>69.0</ele><time>2026-04-18T08:41:44Z</time></trkpt><trkpt lat="37.510468043590535" lon="13.067398123111513"><ele>68.5</ele><time>2026-04-18T08:41:45Z</time></trkpt><trkpt lat="37.510470224014334" lon="13.067555989663393"><ele>68.0</ele><time>2026-04-18T08:41:46Z</time></trkpt><trkpt lat="37.5104729665331" lon="13.067716128432243"><ele>67.75</ele><time>2026-04-18T08:41:47Z</time></trkpt><trkpt lat="37.51047454053658" lon="13.067881035386133"><ele>67.5</ele><time>2026-04-18T08:41:48Z</time></trkpt><trkpt lat="37.51047566352302" lon="13.068049300959837"><ele>67.25</ele><time>2026-04-18T08:41:49Z</time></trkpt><trkpt lat="37.510479487115525" lon="13.068217938716836"><ele>67.0</ele><time>2026-04-18T08:41:50Z</time></trkpt><trkpt lat="37.510479000628735" lon="13.06839569444696"><ele>67.0</ele><time>2026-04-18T08:41:51Z</time></trkpt><trkpt lat="37.51048511418387" lon="13.06857743850508"><ele>67.0</ele><time>2026-04-18T08:41:52Z</time></trkpt><trkpt lat="37.510483419087194" lon="13.06875749919133"><ele>67.0</ele><time>2026-04-18T08:41:53Z</time></trkpt><trkpt lat="37.510486198689065" lon="13.068934259275633"><ele>67.0</ele><time>2026-04-18T08:41:54Z</time></trkpt><trkpt lat="37.51048250514521" lon="13.069107509298835"><ele>66.75</ele><time>2026-04-18T08:41:55Z</time></trkpt><trkpt lat="37.51048640630831" lon="13.069273858233295"><ele>66.5</ele><time>2026-04-18T08:41:56Z</time></trkpt><trkpt lat="37.51048839126973" lon="13.06944309738035"><ele>66.25</ele><time>2026-04-18T08:41:57Z</time></trkpt><trkpt lat="37.51049269879519" lon="13.069604014480394"><ele>66.0</ele><time>2026-04-18T08:41:58Z</time></trkpt><trkpt lat="37.510496440823346" lon="13.069757044321536"><ele>66.0</ele><time>2026-04-18T08:41:59Z</time></trkpt><trkpt lat="37.51049920592115" lon="13.06989972767924"><ele>66.0</ele><time>2026-04-18T08:42:00Z</time></trkpt><trkpt lat="37.510499330980224" lon="13.070038052427554"><ele>66.0</ele><time>2026-04-18T08:42:01Z</time></trkpt><trkpt lat="37.51049824970934" lon="13.07016511995285"><ele>66.0</ele><time>2026-04-18T08:42:02Z</time></trkpt><trkpt lat="37.510495799370105" lon="13.070282210725667"><ele>66.0</ele><time>2026-04-18T08:42:03Z</time></trkpt><trkpt lat="37.51050399101886" lon="13.070399308092897"><ele>65.57142857142857</ele><time>2026-04-18T08:42:04Z</time></trkpt><trkpt lat="37.51051573483262" lon="13.070485216711074"><ele>65.14285714285714</ele><time>2026-04-18T08:42:05Z</time></trkpt><trkpt lat="37.51053307611126" lon="13.070579979578323"><ele>64.71428571428572</ele><time>2026-04-18T08:42:07Z</time></trkpt><trkpt lat="37.51054843002004" lon="13.070663670830852"><ele>64.28571428571428</ele><time>2026-04-18T08:42:09Z</time></trkpt><trkpt lat="37.510566995610496" lon="13.070753748821513"><ele>63.85714285714286</ele><time>2026-04-18T08:42:11Z</time></trkpt><trkpt lat="37.51059398134094" lon="13.070828246666219"><ele>63.42857142857143</ele><time>2026-04-18T08:42:17Z</time></trkpt><trkpt lat="37.51066395796673" lon="13.070897513670799"><ele>63.0</ele><time>2026-04-18T08:42:21Z</time></trkpt><trkpt lat="37.51078530287849" lon="13.070871435136967"><ele>63.0</ele><time>2026-04-18T08:42:23Z</time></trkpt><trkpt lat="37.510873396036644" lon="13.070881180171257"><ele>63.0</ele><time>2026-04-18T08:42:24Z</time></trkpt><trkpt lat="37.510971469723096" lon="13.07085738155841"><ele>63.0</ele><time>2026-04-18T08:42:25Z</time></trkpt><trkpt lat="37.51106015258556" lon="13.070816914234594"><ele>63.0</ele><time>2026-04-18T08:42:26Z</time></trkpt><trkpt lat="37.51116189342718" lon="13.070845938960517"><ele>63.0</ele><time>2026-04-18T08:42:27Z</time></trkpt><trkpt lat="37.51123343734188" lon="13.070832257909451"><ele>63.2</ele><time>2026-04-18T08:42:28Z</time></trkpt><trkpt lat="37.51133248700854" lon="13.07081331763931"><ele>63.4</ele><time>2026-04-18T08:42:30Z</time></trkpt><trkpt lat="37.51140715468067" lon="13.070777783888479"><ele>63.60000000000001</ele><time>2026-04-18T08:42:31Z</time></trkpt><trkpt lat="37.51150166280159" lon="13.07074585281905"><ele>63.800000000000004</ele><time>2026-04-18T08:42:32Z</time></trkpt><trkpt lat="37.51158722458132" lon="13.070710518222379"><ele>64.0</ele><time>2026-04-18T08:42:33Z</time></trkpt><trkpt lat="37.51169030231582" lon="13.070647879309396"><ele>64.4</ele><time>2026-04-18T08:42:35Z</time></trkpt><trkpt lat="37.51176111959738" lon="13.070622138819564"><ele>64.80000000000001</ele><time>2026-04-18T08:42:37Z</time></trkpt><trkpt lat="37.51188266753064" lon="13.070594720185014"><ele>65.19999999999999</ele><time>2026-04-18T08:42:39Z</time></trkpt><trkpt lat="37.51199305742081" lon="13.070554885136028"><ele>65.6</ele><time>2026-04-18T08:42:40Z</time></trkpt><trkpt lat="37.51210955862489" lon="13.070509491402657"><ele>66.0</ele><time>2026-04-18T08:42:41Z</time></trkpt><trkpt lat="37.51221141052423" lon="13.070468720270293"><ele>66.0</ele><time>2026-04-18T08:42:42Z</time></trkpt><trkpt lat="37.51229569190546" lon="13.070434984343771"><ele>66.0</ele><time>2026-04-18T08:42:43Z</time></trkpt><trkpt lat="37.51239663175757" lon="13.070389383700443"><ele>66.0</ele><time>2026-04-18T08:42:45Z</time></trkpt><trkpt lat="37.512457622676735" lon="13.070359211445423"><ele>66.0</ele><time>2026-04-18T08:42:48Z</time></trkpt><trkpt lat="37.51253240992503" lon="13.070321750202451"><ele>66.0</ele><time>2026-04-18T08:42:59Z</time></trkpt><trkpt lat="37.51261839666289" lon="13.070278678880019"><ele>66.0</ele><time>2026-04-18T08:43:01Z</time></trkpt><trkpt lat="37.5127124425385" lon="13.070228799018457"><ele>66.0</ele><time>2026-04-18T08:43:03Z</time></trkpt><trkpt lat="37.51282117405598" lon="13.070167559208455"><ele>66.0</ele><time>2026-04-18T08:43:05Z</time></trkpt><trkpt lat="37.51293270242181" lon="13.070095808804812"><ele>66.0</ele><time>2026-04-18T08:43:07Z</time></trkpt><trkpt lat="37.51298993547565" lon="13.070058924229532"><ele>66.0</ele><time>2026-04-18T08:43:08Z</time></trkpt><trkpt lat="37.51304734861839" lon="13.070024882723121"><ele>66.0</ele><time>2026-04-18T08:43:09Z</time></trkpt><trkpt lat="37.51310542042826" lon="13.069989620864035"><ele>66.0</ele><time>2026-04-18T08:43:10Z</time></trkpt><trkpt lat="37.5131641245434" lon="13.069953975057054"><ele>66.14285714285714</ele><time>2026-04-18T08:43:11Z</time></trkpt><trkpt lat="37.51322547804011" lon="13.069916720515536"><ele>66.28571428571429</ele><time>2026-04-18T08:43:12Z</time></trkpt><trkpt lat="37.51329136050083" lon="13.069876715830109"><ele>66.42857142857143</ele><time>2026-04-18T08:43:13Z</time></trkpt><trkpt lat="37.5133564991844" lon="13.069838261250478"><ele>66.57142857142857</ele><time>2026-04-18T08:43:14Z</time></trkpt><trkpt lat="37.5134213972021" lon="13.06979834214005"><ele>66.71428571428571</ele><time>2026-04-18T08:43:15Z</time></trkpt><trkpt lat="37.513484201244445" lon="13.069759096257588"><ele>66.85714285714286</ele><time>2026-04-18T08:43:16Z</time></trkpt><trkpt lat="37.513546665585885" lon="13.069720062489202"><ele>67.0</ele><time>2026-04-18T08:43:17Z</time></trkpt><trkpt lat="37.513607000605546" lon="13.069681831186681"><ele>67.0</ele><time>2026-04-18T08:43:18Z</time></trkpt><trkpt lat="37.513670195308656" lon="13.069641995978934"><ele>67.0</ele><time>2026-04-18T08:43:19Z</time></trkpt><trkpt lat="37.51373366112952" lon="13.069601989880539"><ele>67.0</ele><time>2026-04-18T08:43:20Z</time></trkpt><trkpt lat="37.513796886870104" lon="13.069562135103771"><ele>67.0</ele><time>2026-04-18T08:43:21Z</time></trkpt><trkpt lat="37.51390077500281" lon="13.069496648383092"><ele>67.0</ele><time>2026-04-18T08:43:23Z</time></trkpt><trkpt lat="37.513987623426104" lon="13.069444402117671"><ele>67.0</ele><time>2026-04-18T08:43:25Z</time></trkpt><trkpt lat="37.514044375918246" lon="13.069409852992962"><ele>66.83333333333333</ele><time>2026-04-18T08:43:26Z</time></trkpt><trkpt lat="37.51411248715741" lon="13.069366004445985"><ele>66.66666666666666</ele><time>2026-04-18T08:43:27Z</time></trkpt><trkpt lat="37.51418848341335" lon="13.069319380014282"><ele>66.5</ele><time>2026-04-18T08:43:28Z</time></trkpt><trkpt lat="37.51426958173714" lon="13.069272353774137"><ele>66.33333333333333</ele><time>2026-04-18T08:43:29Z</time></trkpt><trkpt lat="37.51435135988805" lon="13.069224933058845"><ele>66.16666666666667</ele><time>2026-04-18T08:43:30Z</time></trkpt><trkpt lat="37.5144381428337" lon="13.069171660678094"><ele>66.0</ele><time>2026-04-18T08:43:31Z</time></trkpt><trkpt lat="37.51453009412896" lon="13.069114430203506"><ele>66.75</ele><time>2026-04-18T08:43:32Z</time></trkpt><trkpt lat="37.51462455830396" lon="13.06905563570127"><ele>67.5</ele><time>2026-04-18T08:43:33Z</time></trkpt><trkpt lat="37.51472177389289" lon="13.068998563385476"><ele>68.25</ele><time>2026-04-18T08:43:34Z</time></trkpt><trkpt lat="37.514837744564055" lon="13.068932730241185"><ele>69.0</ele><time>2026-04-18T08:43:35Z</time></trkpt><trkpt lat="37.514965944734826" lon="13.068859867336364"><ele>69.0</ele><time>2026-04-18T08:43:36Z</time></trkpt><trkpt lat="37.51509575140207" lon="13.068789848835964"><ele>69.0</ele><time>2026-04-18T08:43:37Z</time></trkpt><trkpt lat="37.51522269479249" lon="13.068722797273985"><ele>69.0</ele><time>2026-04-18T08:43:38Z</time></trkpt><trkpt lat="37.5153405858108" lon="13.068664199989254"><ele>69.0</ele><time>2026-04-18T08:43:39Z</time></trkpt><trkpt lat="37.515437822641616" lon="13.06859052097023"><ele>68.4</ele><time>2026-04-18T08:43:40Z</time></trkpt><trkpt lat="37.51553072682201" lon="13.06854272930843"><ele>67.80000000000001</ele><time>2026-04-18T08:43:41Z</time></trkpt><trkpt lat="37.51560745053011" lon="13.068481047428827"><ele>67.19999999999999</ele><time>2026-04-18T08:43:42Z</time></trkpt><trkpt lat="37.51567940022399" lon="13.068429037577099"><ele>66.6</ele><time>2026-04-18T08:43:43Z</time></trkpt><trkpt lat="37.51575473307112" lon="13.068376969367776"><ele>66.0</ele><time>2026-04-18T08:43:44Z</time></trkpt><trkpt lat="37.515843172152465" lon="13.06833921031831"><ele>66.0</ele><time>2026-04-18T08:43:45Z</time></trkpt><trkpt lat="37.51595270741666" lon="13.068279039654938"><ele>66.0</ele><time>2026-04-18T08:43:46Z</time></trkpt><trkpt lat="37.51606870204" lon="13.068192846008406"><ele>66.0</ele><time>2026-04-18T08:43:47Z</time></trkpt><trkpt lat="37.51620216141513" lon="13.068122564588474"><ele>66.0</ele><time>2026-04-18T08:43:48Z</time></trkpt><trkpt lat="37.516340610534336" lon="13.068040095540427"><ele>66.33333333333333</ele><time>2026-04-18T08:43:49Z</time></trkpt><trkpt lat="37.516485081602866" lon="13.067939811912076"><ele>66.66666666666666</ele><time>2026-04-18T08:43:50Z</time></trkpt><trkpt lat="37.516616422566905" lon="13.067835723287308"><ele>67.0</ele><time>2026-04-18T08:43:51Z</time></trkpt><trkpt lat="37.516726527758216" lon="13.067737569239057"><ele>67.0</ele><time>2026-04-18T08:43:52Z</time></trkpt><trkpt lat="37.5168458592256" lon="13.067638957077998"><ele>67.0</ele><time>2026-04-18T08:43:53Z</time></trkpt><trkpt lat="37.516967774920055" lon="13.067554560415632"><ele>67.0</ele><time>2026-04-18T08:43:54Z</time></trkpt><trkpt lat="37.517073805242106" lon="13.067467025062568"><ele>67.0</ele><time>2026-04-18T08:43:55Z</time></trkpt><trkpt lat="37.51716860518627" lon="13.067378398216926"><ele>67.75</ele><time>2026-04-18T08:43:56Z</time></trkpt><trkpt lat="37.51725773901357" lon="13.067280560038244"><ele>68.5</ele><time>2026-04-18T08:43:57Z</time></trkpt><trkpt lat="37.51732982551189" lon="13.06716055534767"><ele>69.25</ele><time>2026-04-18T08:43:58Z</time></trkpt><trkpt lat="37.51741025623636" lon="13.06705460073446"><ele>70.0</ele><time>2026-04-18T08:43:59Z</time></trkpt><trkpt lat="37.517488293445645" lon="13.06694643768466"><ele>70.0</ele><time>2026-04-18T08:44:00Z</time></trkpt><trkpt lat="37.51756977246584" lon="13.066839030045946"><ele>70.0</ele><time>2026-04-18T08:44:01Z</time></trkpt><trkpt lat="37.517647536181734" lon="13.066727702007546"><ele>70.0</ele><time>2026-04-18T08:44:02Z</time></trkpt><trkpt lat="37.517729058535245" lon="13.06661307715374"><ele>70.0</ele><time>2026-04-18T08:44:03Z</time></trkpt><trkpt lat="37.517811124494486" lon="13.066500226209444"><ele>70.0</ele><time>2026-04-18T08:44:04Z</time></trkpt><trkpt lat="37.517892753880524" lon="13.06639651094085"><ele>70.0</ele><time>2026-04-18T08:44:05Z</time></trkpt><trkpt lat="37.51797357046345" lon="13.066291226492188"><ele>70.0</ele><time>2026-04-18T08:44:06Z</time></trkpt><trkpt lat="37.51805498070741" lon="13.066189844980276"><ele>70.0</ele><time>2026-04-18T08:44:07Z</time></trkpt><trkpt lat="37.518132298759625" lon="13.066094894939848"><ele>70.4</ele><time>2026-04-18T08:44:08Z</time></trkpt><trkpt lat="37.518211171026934" lon="13.065995379294113"><ele>70.8</ele><time>2026-04-18T08:44:09Z</time></trkpt><trkpt lat="37.51829681662162" lon="13.065912667185032"><ele>71.2</ele><time>2026-04-18T08:44:10Z</time></trkpt><trkpt lat="37.5183643530263" lon="13.065816693026136"><ele>71.6</ele><time>2026-04-18T08:44:11Z</time></trkpt><trkpt lat="37.51842633002011" lon="13.065678091070522"><ele>72.0</ele><time>2026-04-18T08:44:12Z</time></trkpt><trkpt lat="37.51849441470767" lon="13.06556272506821"><ele>72.0</ele><time>2026-04-18T08:44:13Z</time></trkpt><trkpt lat="37.51856154603573" lon="13.065458700050282"><ele>72.0</ele><time>2026-04-18T08:44:14Z</time></trkpt><trkpt lat="37.518635141527525" lon="13.065354419293122"><ele>72.0</ele><time>2026-04-18T08:44:15Z</time></trkpt><trkpt lat="37.51870589419054" lon="13.065253314402458"><ele>72.0</ele><time>2026-04-18T08:44:16Z</time></trkpt><trkpt lat="37.51876924544605" lon="13.065151800875736"><ele>72.0</ele><time>2026-04-18T08:44:17Z</time></trkpt><trkpt lat="37.51884263319931" lon="13.06507179727821"><ele>72.0</ele><time>2026-04-18T08:44:18Z</time></trkpt><trkpt lat="37.51890279514036" lon="13.064985878364409"><ele>72.0</ele><time>2026-04-18T08:44:19Z</time></trkpt><trkpt lat="37.518957583935794" lon="13.064903068451391"><ele>72.0</ele><time>2026-04-18T08:44:20Z</time></trkpt><trkpt lat="37.51899854060854" lon="13.064811748151348"><ele>72.0</ele><time>2026-04-18T08:44:21Z</time></trkpt><trkpt lat="37.519057710109415" lon="13.064760015169501"><ele>72.0</ele><time>2026-04-18T08:44:22Z</time></trkpt><trkpt lat="37.51913251840287" lon="13.06472575500305"><ele>72.0</ele><time>2026-04-18T08:44:23Z</time></trkpt><trkpt lat="37.5192213768182" lon="13.06474524609333"><ele>71.5</ele><time>2026-04-18T08:44:24Z</time></trkpt><trkpt lat="37.51931822014958" lon="13.064755496505645"><ele>71.0</ele><time>2026-04-18T08:44:25Z</time></trkpt><trkpt lat="37.519404078786806" lon="13.064765615192933"><ele>70.5</ele><time>2026-04-18T08:44:26Z</time></trkpt><trkpt lat="37.519485704847824" lon="13.06477637499465"><ele>70.0</ele><time>2026-04-18T08:44:27Z</time></trkpt><trkpt lat="37.5195708637297" lon="13.064776279409196"><ele>69.5</ele><time>2026-04-18T08:44:28Z</time></trkpt><trkpt lat="37.51965243704935" lon="13.064756958701187"><ele>69.0</ele><time>2026-04-18T08:44:29Z</time></trkpt><trkpt lat="37.51972485879398" lon="13.064682757464999"><ele>69.0</ele><time>2026-04-18T08:44:30Z</time></trkpt><trkpt lat="37.51979854242526" lon="13.064619969942305"><ele>69.0</ele><time>2026-04-18T08:44:31Z</time></trkpt><trkpt lat="37.51986380456908" lon="13.06455746580366"><ele>69.0</ele><time>2026-04-18T08:44:32Z</time></trkpt><trkpt lat="37.51992794361075" lon="13.064487670558597"><ele>69.0</ele><time>2026-04-18T08:44:33Z</time></trkpt><trkpt lat="37.5200066986689" lon="13.06444583105821"><ele>69.0</ele><time>2026-04-18T08:44:34Z</time></trkpt><trkpt lat="37.520061834648025" lon="13.064385766765641"><ele>69.0</ele><time>2026-04-18T08:44:35Z</time></trkpt><trkpt lat="37.52025369953504" lon="13.064483337745118"><ele>69.0</ele><time>2026-04-18T08:44:37Z</time></trkpt><trkpt lat="37.520339337415066" lon="13.064550046180726"><ele>69.0</ele><time>2026-04-18T08:44:38Z</time></trkpt><trkpt lat="37.52042385795047" lon="13.06464674002892"><ele>69.0</ele><time>2026-04-18T08:44:39Z</time></trkpt><trkpt lat="37.52051188381226" lon="13.064777075187122"><ele>69.0</ele><time>2026-04-18T08:44:40Z</time></trkpt><trkpt lat="37.52060309348074" lon="13.064937350565867"><ele>70.66666666666667</ele><time>2026-04-18T08:44:41Z</time></trkpt><trkpt lat="37.520692941742105" lon="13.065104351058345"><ele>72.33333333333334</ele><time>2026-04-18T08:44:42Z</time></trkpt><trkpt lat="37.52078501364118" lon="13.0652939560893"><ele>74.0</ele><time>2026-04-18T08:44:43Z</time></trkpt><trkpt lat="37.52088253640932" lon="13.065498919766114"><ele>74.0</ele><time>2026-04-18T08:44:44Z</time></trkpt><trkpt lat="37.52097346649585" lon="13.065707953917942"><ele>74.0</ele><time>2026-04-18T08:44:45Z</time></trkpt><trkpt lat="37.521060821047335" lon="13.065927348017322"><ele>74.0</ele><time>2026-04-18T08:44:46Z</time></trkpt><trkpt lat="37.52115339829683" lon="13.066128234027769"><ele>74.0</ele><time>2026-04-18T08:44:47Z</time></trkpt><trkpt lat="37.52124681237266" lon="13.066300117272421"><ele>74.0</ele><time>2026-04-18T08:44:48Z</time></trkpt><trkpt lat="37.52134256374265" lon="13.066448350275525"><ele>74.0</ele><time>2026-04-18T08:44:49Z</time></trkpt><trkpt lat="37.521450608540015" lon="13.066568117480916"><ele>74.60000000000001</ele><time>2026-04-18T08:44:50Z</time></trkpt><trkpt lat="37.521559466785014" lon="13.06665798861821"><ele>75.2</ele><time>2026-04-18T08:44:51Z</time></trkpt><trkpt lat="37.521650310321775" lon="13.066722643264105"><ele>75.80000000000001</ele><time>2026-04-18T08:44:52Z</time></trkpt><trkpt lat="37.52172559547078" lon="13.066766085299959"><ele>76.4</ele><time>2026-04-18T08:44:53Z</time></trkpt><trkpt lat="37.521808953402655" lon="13.066803494530078"><ele>77.0</ele><time>2026-04-18T08:44:54Z</time></trkpt><trkpt lat="37.52192088506784" lon="13.066863626408699"><ele>77.0</ele><time>2026-04-18T08:44:55Z</time></trkpt><trkpt lat="37.522043661369565" lon="13.066940997769395"><ele>77.0</ele><time>2026-04-18T08:44:56Z</time></trkpt><trkpt lat="37.522180089413624" lon="13.067029043045318"><ele>77.0</ele><time>2026-04-18T08:44:57Z</time></trkpt><trkpt lat="37.52234340507439" lon="13.067119147286563"><ele>76.66666666666667</ele><time>2026-04-18T08:44:58Z</time></trkpt><trkpt lat="37.52252179362344" lon="13.067218548213152"><ele>76.33333333333333</ele><time>2026-04-18T08:44:59Z</time></trkpt><trkpt lat="37.52269451500568" lon="13.067319295284824"><ele>76.0</ele><time>2026-04-18T08:45:00Z</time></trkpt><trkpt lat="37.522861251115685" lon="13.06742975807894"><ele>77.66666666666666</ele><time>2026-04-18T08:45:01Z</time></trkpt><trkpt lat="37.52301278073321" lon="13.067535145542823"><ele>79.33333333333333</ele><time>2026-04-18T08:45:02Z</time></trkpt><trkpt lat="37.523152860060904" lon="13.067634629822557"><ele>81.0</ele><time>2026-04-18T08:45:03Z</time></trkpt><trkpt lat="37.52327383156337" lon="13.067736507018516"><ele>81.0</ele><time>2026-04-18T08:45:04Z</time></trkpt><trkpt lat="37.52338065529225" lon="13.06786528772573"><ele>81.0</ele><time>2026-04-18T08:45:05Z</time></trkpt><trkpt lat="37.52347894254593" lon="13.068017150777516"><ele>81.0</ele><time>2026-04-18T08:45:06Z</time></trkpt><trkpt lat="37.52356646414595" lon="13.068171445436693"><ele>81.33333333333333</ele><time>2026-04-18T08:45:07Z</time></trkpt><trkpt lat="37.523643726672894" lon="13.068333417578488"><ele>81.66666666666666</ele><time>2026-04-18T08:45:08Z</time></trkpt><trkpt lat="37.52370095296031" lon="13.068506273092114"><ele>82.0</ele><time>2026-04-18T08:45:09Z</time></trkpt><trkpt lat="37.52374769195376" lon="13.068691888620897"><ele>82.0</ele><time>2026-04-18T08:45:10Z</time></trkpt><trkpt lat="37.52379010772529" lon="13.068870031751247"><ele>82.0</ele><time>2026-04-18T08:45:11Z</time></trkpt><trkpt lat="37.523854715229085" lon="13.069036877503793"><ele>82.0</ele><time>2026-04-18T08:45:12Z</time></trkpt><trkpt lat="37.52393232600119" lon="13.069201502860416"><ele>82.0</ele><time>2026-04-18T08:45:13Z</time></trkpt><trkpt lat="37.524035130315006" lon="13.069368071433185"><ele>80.66666666666666</ele><time>2026-04-18T08:45:14Z</time></trkpt><trkpt lat="37.524158710097716" lon="13.06954870773558"><ele>79.33333333333333</ele><time>2026-04-18T08:45:15Z</time></trkpt><trkpt lat="37.52429546810233" lon="13.069741753723784"><ele>78.0</ele><time>2026-04-18T08:45:16Z</time></trkpt><trkpt lat="37.52441538443279" lon="13.069916227447987"><ele>77.25</ele><time>2026-04-18T08:45:17Z</time></trkpt><trkpt lat="37.52451684736495" lon="13.070068879410332"><ele>76.5</ele><time>2026-04-18T08:45:18Z</time></trkpt><trkpt lat="37.524616016377564" lon="13.070221082534179"><ele>75.75</ele><time>2026-04-18T08:45:19Z</time></trkpt><trkpt lat="37.5246969197118" lon="13.07035486282006"><ele>75.0</ele><time>2026-04-18T08:45:20Z</time></trkpt><trkpt lat="37.52476649996093" lon="13.07046777683784"><ele>73.6</ele><time>2026-04-18T08:45:21Z</time></trkpt><trkpt lat="37.524821382436706" lon="13.070561650314708"><ele>72.2</ele><time>2026-04-18T08:45:22Z</time></trkpt><trkpt lat="37.524858654371975" lon="13.070650230776007"><ele>70.8</ele><time>2026-04-18T08:45:23Z</time></trkpt><trkpt lat="37.52488972566403" lon="13.070774851225295"><ele>69.4</ele><time>2026-04-18T08:45:25Z</time></trkpt><trkpt lat="37.524903771377524" lon="13.070861873147722"><ele>68.0</ele><time>2026-04-18T08:45:27Z</time></trkpt><trkpt lat="37.524909939510515" lon="13.071000452084474"><ele>68.0</ele><time>2026-04-18T08:45:30Z</time></trkpt><trkpt lat="37.52494273613416" lon="13.071085961937056"><ele>68.0</ele><time>2026-04-18T08:45:31Z</time></trkpt><trkpt lat="37.52484857033223" lon="13.071217719238447"><ele>68.0</ele><time>2026-04-18T08:45:32Z</time></trkpt><trkpt lat="37.52478697953083" lon="13.07134567165796"><ele>68.0</ele><time>2026-04-18T08:45:33Z</time></trkpt><trkpt lat="37.5247149452617" lon="13.071465310143466"><ele>68.0</ele><time>2026-04-18T08:45:34Z</time></trkpt><trkpt lat="37.52465450566924" lon="13.071570692140515"><ele>68.0</ele><time>2026-04-18T08:45:35Z</time></trkpt><trkpt lat="37.524605828489996" lon="13.071670390843316"><ele>68.0</ele><time>2026-04-18T08:45:36Z</time></trkpt><trkpt lat="37.52455794786721" lon="13.071772933999364"><ele>68.0</ele><time>2026-04-18T08:45:37Z</time></trkpt><trkpt lat="37.524505247758555" lon="13.071884458081394"><ele>68.0</ele><time>2026-04-18T08:45:38Z</time></trkpt><trkpt lat="37.52445865428812" lon="13.071986715088354"><ele>67.66666666666667</ele><time>2026-04-18T08:45:39Z</time></trkpt><trkpt lat="37.52441736445395" lon="13.072071333025198"><ele>67.33333333333334</ele><time>2026-04-18T08:45:40Z</time></trkpt><trkpt lat="37.524386351915126" lon="13.07214736270204"><ele>67.0</ele><time>2026-04-18T08:45:41Z</time></trkpt><trkpt lat="37.524315390255104" lon="13.072280412393805"><ele>66.66666666666667</ele><time>2026-04-18T08:45:43Z</time></trkpt><trkpt lat="37.52425462619509" lon="13.072352728628928"><ele>66.33333333333333</ele><time>2026-04-18T08:45:44Z</time></trkpt><trkpt lat="37.52419898655634" lon="13.072412513610518"><ele>66.0</ele><time>2026-04-18T08:45:45Z</time></trkpt><trkpt lat="37.524151219032944" lon="13.072486889582336"><ele>65.66666666666667</ele><time>2026-04-18T08:45:46Z</time></trkpt><trkpt lat="37.52411812988837" lon="13.072573450422848"><ele>65.33333333333333</ele><time>2026-04-18T08:45:47Z</time></trkpt><trkpt lat="37.524107450671735" lon="13.072675012595932"><ele>65.0</ele><time>2026-04-18T08:45:48Z</time></trkpt><trkpt lat="37.524126163077874" lon="13.07276538071999"><ele>64.66666666666666</ele><time>2026-04-18T08:45:49Z</time></trkpt><trkpt lat="37.52416051957544" lon="13.072860267843092"><ele>64.33333333333333</ele><time>2026-04-18T08:45:50Z</time></trkpt><trkpt lat="37.524179547747025" lon="13.072965655686138"><ele>64.0</ele><time>2026-04-18T08:45:51Z</time></trkpt><trkpt lat="37.5241434163628" lon="13.073066190210568"><ele>64.0</ele><time>2026-04-18T08:45:52Z</time></trkpt><trkpt lat="37.52409054914968" lon="13.073178622423569"><ele>64.0</ele><time>2026-04-18T08:45:53Z</time></trkpt><trkpt lat="37.524026074403444" lon="13.07333839242018"><ele>64.0</ele><time>2026-04-18T08:45:54Z</time></trkpt><trkpt lat="37.5239796457897" lon="13.073490522741402"><ele>64.0</ele><time>2026-04-18T08:45:55Z</time></trkpt><trkpt lat="37.52395567649385" lon="13.073637061768794"><ele>63.99999999999999</ele><time>2026-04-18T08:45:56Z</time></trkpt><trkpt lat="37.52392570549773" lon="13.073745708301644"><ele>64.0</ele><time>2026-04-18T08:45:57Z</time></trkpt><trkpt lat="37.523900985014315" lon="13.073832148466526"><ele>64.0</ele><time>2026-04-18T08:45:58Z</time></trkpt><trkpt lat="37.523877317514604" lon="13.073908272779594"><ele>64.0</ele><time>2026-04-18T08:45:59Z</time></trkpt><trkpt lat="37.523848397029994" lon="13.074004645940104"><ele>63.99999999999999</ele><time>2026-04-18T08:45:59.999Z</time></trkpt><trkpt lat="37.52382008054007" lon="13.074116852839262"><ele>64.0</ele><time>2026-04-18T08:46:00.999Z</time></trkpt><trkpt lat="37.52378466693372" lon="13.074208142011464"><ele>63.6</ele><time>2026-04-18T08:46:01.999Z</time></trkpt><trkpt lat="37.5237479311666" lon="13.074281954632548"><ele>63.2</ele><time>2026-04-18T08:46:02.999Z</time></trkpt><trkpt lat="37.523693226793384" lon="13.074451546179041"><ele>62.800000000000004</ele><time>2026-04-18T08:46:04.999Z</time></trkpt><trkpt lat="37.52370617239962" lon="13.07461149811721"><ele>62.400000000000006</ele><time>2026-04-18T08:46:05.999Z</time></trkpt><trkpt lat="37.52368128954259" lon="13.074700155545449"><ele>62.0</ele><time>2026-04-18T08:46:07Z</time></trkpt><trkpt lat="37.52365582194786" lon="13.074785145189683"><ele>61.2</ele><time>2026-04-18T08:46:08Z</time></trkpt><trkpt lat="37.52363216937965" lon="13.074881404207032"><ele>60.400000000000006</ele><time>2026-04-18T08:46:10Z</time></trkpt><trkpt lat="37.523610654364134" lon="13.074973926246606"><ele>59.599999999999994</ele><time>2026-04-18T08:46:13Z</time></trkpt><trkpt lat="37.523551208304404" lon="13.075133157959673"><ele>58.8</ele><time>2026-04-18T08:46:16Z</time></trkpt><trkpt lat="37.52351388794169" lon="13.075227391205742"><ele>58.0</ele><time>2026-04-18T08:46:17Z</time></trkpt><trkpt lat="37.5234905266021" lon="13.07531187025442"><ele>57.99999999999999</ele><time>2026-04-18T08:46:18Z</time></trkpt><trkpt lat="37.52346647124135" lon="13.075396171926943"><ele>58.0</ele><time>2026-04-18T08:46:19Z</time></trkpt><trkpt lat="37.52343793286726" lon="13.075506849403864"><ele>58.0</ele><time>2026-04-18T08:46:20Z</time></trkpt><trkpt lat="37.52341240630862" lon="13.075624485766621"><ele>58.0</ele><time>2026-04-18T08:46:21Z</time></trkpt><trkpt lat="37.52338260748339" lon="13.075723397259257"><ele>57.99999999999999</ele><time>2026-04-18T08:46:22Z</time></trkpt><trkpt lat="37.52335704948892" lon="13.075816905562487"><ele>58.0</ele><time>2026-04-18T08:46:23Z</time></trkpt><trkpt lat="37.52330819484666" lon="13.075922299410916"><ele>58.599999999999994</ele><time>2026-04-18T08:46:25Z</time></trkpt><trkpt lat="37.52326398989433" lon="13.075985360995082"><ele>59.199999999999996</ele><time>2026-04-18T08:46:28Z</time></trkpt><trkpt lat="37.523383668078935" lon="13.076075079232535"><ele>59.8</ele><time>2026-04-18T08:46:29Z</time></trkpt><trkpt lat="37.52345762739457" lon="13.076129919014521"><ele>60.4</ele><time>2026-04-18T08:46:31Z</time></trkpt><trkpt lat="37.52355305028209" lon="13.076202186627803"><ele>61.0</ele><time>2026-04-18T08:46:33Z</time></trkpt><trkpt lat="37.52364877089239" lon="13.076286201033762"><ele>60.99999999999999</ele><time>2026-04-18T08:46:35Z</time></trkpt><trkpt lat="37.52371221292184" lon="13.076348946216738"><ele>61.0</ele><time>2026-04-18T08:46:36Z</time></trkpt><trkpt lat="37.523773631015096" lon="13.076414709077582"><ele>61.0</ele><time>2026-04-18T08:46:37Z</time></trkpt><trkpt lat="37.523841515287366" lon="13.076484663353664"><ele>61.0</ele><time>2026-04-18T08:46:38Z</time></trkpt><trkpt lat="37.523907794933464" lon="13.076546452849664"><ele>60.99999999999999</ele><time>2026-04-18T08:46:39Z</time></trkpt><trkpt lat="37.523974584226465" lon="13.076618666344629"><ele>61.0</ele><time>2026-04-18T08:46:40Z</time></trkpt><trkpt lat="37.52403884116337" lon="13.076686108326902"><ele>60.99999999999999</ele><time>2026-04-18T08:46:41Z</time></trkpt><trkpt lat="37.52410542834144" lon="13.076754482579489"><ele>61.0</ele><time>2026-04-18T08:46:42Z</time></trkpt><trkpt lat="37.52417322164053" lon="13.076820120688284"><ele>61.0</ele><time>2026-04-18T08:46:43Z</time></trkpt><trkpt lat="37.5242409280278" lon="13.076886566181086"><ele>61.0</ele><time>2026-04-18T08:46:44Z</time></trkpt><trkpt lat="37.52430579210761" lon="13.076950409612454"><ele>60.99999999999999</ele><time>2026-04-18T08:46:45Z</time></trkpt><trkpt lat="37.524365173072674" lon="13.077008221517952"><ele>61.0</ele><time>2026-04-18T08:46:46Z</time></trkpt><trkpt lat="37.52442249566817" lon="13.077064471424114"><ele>61.0</ele><time>2026-04-18T08:46:47Z</time></trkpt><trkpt lat="37.52448541942446" lon="13.07711597048351"><ele>60.99999999999999</ele><time>2026-04-18T08:46:48Z</time></trkpt><trkpt lat="37.52453875037819" lon="13.077193702808742"><ele>60.99999999999999</ele><time>2026-04-18T08:46:49Z</time></trkpt><trkpt lat="37.524630079449274" lon="13.077257463658091"><ele>61.0</ele><time>2026-04-18T08:46:50Z</time></trkpt><trkpt lat="37.524726593460514" lon="13.077355794348009"><ele>61.0</ele><time>2026-04-18T08:46:51Z</time></trkpt><trkpt lat="37.52482257059941" lon="13.07745377102104"><ele>61.599999999999994</ele><time>2026-04-18T08:46:52Z</time></trkpt><trkpt lat="37.52491418671231" lon="13.07753875646266"><ele>62.199999999999996</ele><time>2026-04-18T08:46:53Z</time></trkpt><trkpt lat="37.52500088536088" lon="13.077613189821356"><ele>62.800000000000004</ele><time>2026-04-18T08:46:54Z</time></trkpt><trkpt lat="37.525065637728034" lon="13.077670835206751"><ele>63.400000000000006</ele><time>2026-04-18T08:46:55Z</time></trkpt><trkpt lat="37.525138791139966" lon="13.077734843397085"><ele>64.0</ele><time>2026-04-18T08:46:57Z</time></trkpt><trkpt lat="37.52519119667465" lon="13.077801669810484"><ele>64.0</ele><time>2026-04-18T08:47:02Z</time></trkpt><trkpt lat="37.525281994541466" lon="13.077886381803062"><ele>64.0</ele><time>2026-04-18T08:47:04Z</time></trkpt><trkpt lat="37.52538478644112" lon="13.077982283909888"><ele>64.0</ele><time>2026-04-18T08:47:05Z</time></trkpt><trkpt lat="37.52550359228739" lon="13.078095907439016"><ele>64.0</ele><time>2026-04-18T08:47:06Z</time></trkpt><trkpt lat="37.52564576550845" lon="13.078218534017244"><ele>64.66666666666666</ele><time>2026-04-18T08:47:07Z</time></trkpt><trkpt lat="37.525797333437595" lon="13.07836446561483"><ele>65.33333333333333</ele><time>2026-04-18T08:47:08Z</time></trkpt><trkpt lat="37.52594401453609" lon="13.078505556580694"><ele>66.0</ele><time>2026-04-18T08:47:09Z</time></trkpt><trkpt lat="37.526073317393674" lon="13.0786444166157"><ele>66.0</ele><time>2026-04-18T08:47:10Z</time></trkpt><trkpt lat="37.52620647380916" lon="13.078775951832478"><ele>66.0</ele><time>2026-04-18T08:47:11Z</time></trkpt><trkpt lat="37.52634426023846" lon="13.078906495755932"><ele>66.0</ele><time>2026-04-18T08:47:12Z</time></trkpt><trkpt lat="37.52648812156564" lon="13.079041581486365"><ele>67.33333333333333</ele><time>2026-04-18T08:47:13Z</time></trkpt><trkpt lat="37.526645234894694" lon="13.079181220525536"><ele>68.66666666666666</ele><time>2026-04-18T08:47:14Z</time></trkpt><trkpt lat="37.52679327767887" lon="13.079321444473331"><ele>70.0</ele><time>2026-04-18T08:47:15Z</time></trkpt><trkpt lat="37.526942018473505" lon="13.079469110907729"><ele>70.66666666666666</ele><time>2026-04-18T08:47:16Z</time></trkpt><trkpt lat="37.527081564252086" lon="13.0796168316703"><ele>71.33333333333333</ele><time>2026-04-18T08:47:17Z</time></trkpt><trkpt lat="37.52721155552245" lon="13.079754056957299"><ele>72.0</ele><time>2026-04-18T08:47:18Z</time></trkpt><trkpt lat="37.527334867321585" lon="13.079884581925922"><ele>73.0</ele><time>2026-04-18T08:47:19Z</time></trkpt><trkpt lat="37.52745451853561" lon="13.080005911557013"><ele>74.0</ele><time>2026-04-18T08:47:20Z</time></trkpt><trkpt lat="37.52757001791813" lon="13.080112799831968"><ele>75.0</ele><time>2026-04-18T08:47:21Z</time></trkpt><trkpt lat="37.52768517167901" lon="13.080205049996781"><ele>76.0</ele><time>2026-04-18T08:47:22Z</time></trkpt><trkpt lat="37.52779297126372" lon="13.080275285758159"><ele>78.0</ele><time>2026-04-18T08:47:23Z</time></trkpt><trkpt lat="37.52791090045704" lon="13.080325919046626"><ele>80.0</ele><time>2026-04-18T08:47:24Z</time></trkpt><trkpt lat="37.52804398964101" lon="13.08035641616958"><ele>82.0</ele><time>2026-04-18T08:47:25Z</time></trkpt><trkpt lat="37.52819615107224" lon="13.080372068596914"><ele>84.0</ele><time>2026-04-18T08:47:26Z</time></trkpt><trkpt lat="37.528360912586166" lon="13.080385399134405"><ele>84.0</ele><time>2026-04-18T08:47:27Z</time></trkpt><trkpt lat="37.52853623410106" lon="13.080401280189328"><ele>84.0</ele><time>2026-04-18T08:47:28Z</time></trkpt><trkpt lat="37.52872364326135" lon="13.080427633384721"><ele>84.0</ele><time>2026-04-18T08:47:29Z</time></trkpt><trkpt lat="37.52892786549734" lon="13.080454809287147"><ele>81.66666666666667</ele><time>2026-04-18T08:47:30Z</time></trkpt><trkpt lat="37.529139204714234" lon="13.080481491841391"><ele>79.33333333333334</ele><time>2026-04-18T08:47:31Z</time></trkpt><trkpt lat="37.529337761275364" lon="13.080508850378736"><ele>77.0</ele><time>2026-04-18T08:47:32Z</time></trkpt><trkpt lat="37.52953263239054" lon="13.080536814588484"><ele>77.33333333333334</ele><time>2026-04-18T08:47:33Z</time></trkpt><trkpt lat="37.52972208038609" lon="13.080565335769865"><ele>77.66666666666667</ele><time>2026-04-18T08:47:34Z</time></trkpt><trkpt lat="37.52990723120155" lon="13.080589402702849"><ele>78.0</ele><time>2026-04-18T08:47:35Z</time></trkpt><trkpt lat="37.5300863479782" lon="13.080613841118106"><ele>78.0</ele><time>2026-04-18T08:47:36Z</time></trkpt><trkpt lat="37.53025756749458" lon="13.080636419204598"><ele>78.0</ele><time>2026-04-18T08:47:37Z</time></trkpt><trkpt lat="37.530431693561" lon="13.080668020640873"><ele>78.0</ele><time>2026-04-18T08:47:38Z</time></trkpt><trkpt lat="37.53059894988014" lon="13.080709374130036"><ele>77.66666666666667</ele><time>2026-04-18T08:47:39Z</time></trkpt><trkpt lat="37.53076001167937" lon="13.080764114959551"><ele>77.33333333333334</ele><time>2026-04-18T08:47:40Z</time></trkpt><trkpt lat="37.530911002076536" lon="13.080837489537176"><ele>77.0</ele><time>2026-04-18T08:47:41Z</time></trkpt><trkpt lat="37.53105528728136" lon="13.080936432297365"><ele>78.33333333333334</ele><time>2026-04-18T08:47:42Z</time></trkpt><trkpt lat="37.531186247358676" lon="13.081060257543534"><ele>79.66666666666667</ele><time>2026-04-18T08:47:43Z</time></trkpt><trkpt lat="37.53133217001772" lon="13.081211943734672"><ele>81.0</ele><time>2026-04-18T08:47:44Z</time></trkpt><trkpt lat="37.53147017491643" lon="13.081369617209516"><ele>81.0</ele><time>2026-04-18T08:47:45Z</time></trkpt><trkpt lat="37.5315773918321" lon="13.081532675685471"><ele>81.0</ele><time>2026-04-18T08:47:46Z</time></trkpt><trkpt lat="37.53166296988036" lon="13.08173248102563"><ele>81.0</ele><time>2026-04-18T08:47:47Z</time></trkpt><trkpt lat="37.53177333595958" lon="13.081927042263354"><ele>82.66666666666667</ele><time>2026-04-18T08:47:48Z</time></trkpt><trkpt lat="37.531869686857895" lon="13.08213139697544"><ele>84.33333333333334</ele><time>2026-04-18T08:47:49Z</time></trkpt><trkpt lat="37.531965452710885" lon="13.08232167068886"><ele>86.0</ele><time>2026-04-18T08:47:50Z</time></trkpt><trkpt lat="37.53207525610365" lon="13.08251241112916"><ele>86.0</ele><time>2026-04-18T08:47:51Z</time></trkpt><trkpt lat="37.5321911053311" lon="13.08271555164655"><ele>86.0</ele><time>2026-04-18T08:47:52Z</time></trkpt><trkpt lat="37.53230457627942" lon="13.08291866204458"><ele>86.0</ele><time>2026-04-18T08:47:53Z</time></trkpt><trkpt lat="37.532419708378654" lon="13.083113309537046"><ele>87.66666666666667</ele><time>2026-04-18T08:47:54Z</time></trkpt><trkpt lat="37.53253124610059" lon="13.083308867002422"><ele>89.33333333333333</ele><time>2026-04-18T08:47:55Z</time></trkpt><trkpt lat="37.532639244260146" lon="13.083500517536935"><ele>91.0</ele><time>2026-04-18T08:47:56Z</time></trkpt><trkpt lat="37.5327498281613" lon="13.083690066657002"><ele>91.0</ele><time>2026-04-18T08:47:57Z</time></trkpt><trkpt lat="37.532854301074295" lon="13.08388009387324"><ele>91.0</ele><time>2026-04-18T08:47:58Z</time></trkpt><trkpt lat="37.53296446166544" lon="13.084072741291234"><ele>91.0</ele><time>2026-04-18T08:47:59Z</time></trkpt><trkpt lat="37.533073235301835" lon="13.084261993760988"><ele>91.33333333333333</ele><time>2026-04-18T08:48:00Z</time></trkpt><trkpt lat="37.53318433668733" lon="13.084455547375747"><ele>91.66666666666667</ele><time>2026-04-18T08:48:01Z</time></trkpt><trkpt lat="37.5332891580512" lon="13.084644552296552"><ele>92.0</ele><time>2026-04-18T08:48:02Z</time></trkpt><trkpt lat="37.533383333574974" lon="13.084825748972147"><ele>95.33333333333334</ele><time>2026-04-18T08:48:03Z</time></trkpt><trkpt lat="37.53343982985629" lon="13.085012785762931"><ele>98.66666666666667</ele><time>2026-04-18T08:48:04Z</time></trkpt><trkpt lat="37.53349383101668" lon="13.085197658729482"><ele>102.0</ele><time>2026-04-18T08:48:05Z</time></trkpt><trkpt lat="37.53355152695031" lon="13.085385504085727"><ele>102.0</ele><time>2026-04-18T08:48:06Z</time></trkpt><trkpt lat="37.53356045611779" lon="13.08559410517796"><ele>102.0</ele><time>2026-04-18T08:48:07Z</time></trkpt><trkpt lat="37.53357146008675" lon="13.085793659238925"><ele>102.0</ele><time>2026-04-18T08:48:08Z</time></trkpt><trkpt lat="37.53357571045143" lon="13.08599319016507"><ele>102.66666666666666</ele><time>2026-04-18T08:48:09Z</time></trkpt><trkpt lat="37.53359503995826" lon="13.086200223789598"><ele>103.33333333333333</ele><time>2026-04-18T08:48:10Z</time></trkpt><trkpt lat="37.53359195596098" lon="13.086415365356459"><ele>104.0</ele><time>2026-04-18T08:48:11Z</time></trkpt><trkpt lat="37.533594736446894" lon="13.086642063565764"><ele>105.66666666666666</ele><time>2026-04-18T08:48:12Z</time></trkpt><trkpt lat="37.53359903567646" lon="13.086867453879178"><ele>107.33333333333334</ele><time>2026-04-18T08:48:13Z</time></trkpt><trkpt lat="37.53360539152355" lon="13.087091482822006"><ele>109.0</ele><time>2026-04-18T08:48:14Z</time></trkpt><trkpt lat="37.533609974971284" lon="13.087316527896695"><ele>111.0</ele><time>2026-04-18T08:48:15Z</time></trkpt><trkpt lat="37.53361075491584" lon="13.087542648554837"><ele>113.0</ele><time>2026-04-18T08:48:16Z</time></trkpt><trkpt lat="37.533614075598344" lon="13.087763093245641"><ele>115.0</ele><time>2026-04-18T08:48:17Z</time></trkpt><trkpt lat="37.53362045043958" lon="13.087982346890442"><ele>115.0</ele><time>2026-04-18T08:48:18Z</time></trkpt><trkpt lat="37.5336276924146" lon="13.088192809563841"><ele>115.0</ele><time>2026-04-18T08:48:19Z</time></trkpt><trkpt lat="37.533628436624355" lon="13.088383799271968"><ele>115.0</ele><time>2026-04-18T08:48:20Z</time></trkpt><trkpt lat="37.53363063027165" lon="13.088560266700735"><ele>115.5</ele><time>2026-04-18T08:48:21Z</time></trkpt><trkpt lat="37.53363346348432" lon="13.088716844645468"><ele>116.0</ele><time>2026-04-18T08:48:22Z</time></trkpt><trkpt lat="37.53363761337919" lon="13.088874528634458"><ele>116.5</ele><time>2026-04-18T08:48:23Z</time></trkpt><trkpt lat="37.53365396448801" lon="13.089028950531267"><ele>117.0</ele><time>2026-04-18T08:48:24Z</time></trkpt><trkpt lat="37.53369091894705" lon="13.089172306297382"><ele>116.19999999999999</ele><time>2026-04-18T08:48:25Z</time></trkpt><trkpt lat="37.53375212960647" lon="13.0892887945647"><ele>115.39999999999999</ele><time>2026-04-18T08:48:26Z</time></trkpt><trkpt lat="37.5338264589512" lon="13.089380152466935"><ele>114.60000000000001</ele><time>2026-04-18T08:48:27Z</time></trkpt><trkpt lat="37.533918199127505" lon="13.089452927284304"><ele>113.80000000000001</ele><time>2026-04-18T08:48:28Z</time></trkpt><trkpt lat="37.53402605435478" lon="13.089509006484821"><ele>113.0</ele><time>2026-04-18T08:48:29Z</time></trkpt><trkpt lat="37.53413949983438" lon="13.08954047522948"><ele>113.0</ele><time>2026-04-18T08:48:30Z</time></trkpt><trkpt lat="37.53427494102076" lon="13.089557014385125"><ele>113.0</ele><time>2026-04-18T08:48:31Z</time></trkpt><trkpt lat="37.534427852336826" lon="13.089573245565356"><ele>113.0</ele><time>2026-04-18T08:48:32Z</time></trkpt><trkpt lat="37.53459989461401" lon="13.089596207217024"><ele>112.66666666666666</ele><time>2026-04-18T08:48:33Z</time></trkpt><trkpt lat="37.534798127209555" lon="13.089628218337591"><ele>112.33333333333334</ele><time>2026-04-18T08:48:34Z</time></trkpt><trkpt lat="37.5349916064444" lon="13.089656096843319"><ele>112.0</ele><time>2026-04-18T08:48:35Z</time></trkpt><trkpt lat="37.53517123516583" lon="13.089680121118237"><ele>112.0</ele><time>2026-04-18T08:48:36Z</time></trkpt><trkpt lat="37.53534664129621" lon="13.08971151424923"><ele>112.0</ele><time>2026-04-18T08:48:37Z</time></trkpt><trkpt lat="37.53551546274575" lon="13.08976032058884"><ele>112.0</ele><time>2026-04-18T08:48:38Z</time></trkpt><trkpt lat="37.53567403623557" lon="13.089841907586267"><ele>114.33333333333334</ele><time>2026-04-18T08:48:39Z</time></trkpt><trkpt lat="37.53581609916398" lon="13.089940610217473"><ele>116.66666666666666</ele><time>2026-04-18T08:48:40Z</time></trkpt><trkpt lat="37.53594101543738" lon="13.090052557128905"><ele>119.0</ele><time>2026-04-18T08:48:41Z</time></trkpt><trkpt lat="37.53605280657111" lon="13.090185707874744"><ele>119.0</ele><time>2026-04-18T08:48:42Z</time></trkpt><trkpt lat="37.53617371834516" lon="13.09033713867036"><ele>119.0</ele><time>2026-04-18T08:48:43Z</time></trkpt><trkpt lat="37.53629545417334" lon="13.090497328925101"><ele>119.0</ele><time>2026-04-18T08:48:44Z</time></trkpt><trkpt lat="37.53641118049067" lon="13.090653530289213"><ele>120.0</ele><time>2026-04-18T08:48:45Z</time></trkpt><trkpt lat="37.53653563299156" lon="13.090802892095562"><ele>121.0</ele><time>2026-04-18T08:48:46Z</time></trkpt><trkpt lat="37.536657212262966" lon="13.09094839229491"><ele>122.0</ele><time>2026-04-18T08:48:47Z</time></trkpt><trkpt lat="37.53678289887027" lon="13.091101093663696"><ele>122.0</ele><time>2026-04-18T08:48:48Z</time></trkpt><trkpt lat="37.53691387488213" lon="13.091253645674852"><ele>122.0</ele><time>2026-04-18T08:48:49Z</time></trkpt><trkpt lat="37.53705729169207" lon="13.091397214343338"><ele>122.0</ele><time>2026-04-18T08:48:50Z</time></trkpt><trkpt lat="37.537213722078626" lon="13.091525546494578"><ele>124.0</ele><time>2026-04-18T08:48:51Z</time></trkpt><trkpt lat="37.53737396200505" lon="13.091646904731011"><ele>126.0</ele><time>2026-04-18T08:48:52Z</time></trkpt><trkpt lat="37.53753014654417" lon="13.091749611659768"><ele>128.0</ele><time>2026-04-18T08:48:53Z</time></trkpt><trkpt lat="37.53766583729758" lon="13.091843762225139"><ele>128.0</ele><time>2026-04-18T08:48:54Z</time></trkpt><trkpt lat="37.5377891185047" lon="13.091952692558623"><ele>128.0</ele><time>2026-04-18T08:48:55Z</time></trkpt><trkpt lat="37.537906385235466" lon="13.092078833081452"><ele>128.0</ele><time>2026-04-18T08:48:56Z</time></trkpt><trkpt lat="37.53801379534579" lon="13.09221599337384"><ele>128.0</ele><time>2026-04-18T08:48:57Z</time></trkpt><trkpt lat="37.53811549641735" lon="13.092374553149124"><ele>128.0</ele><time>2026-04-18T08:48:58Z</time></trkpt><trkpt lat="37.538196084549334" lon="13.092558228130589"><ele>128.0</ele><time>2026-04-18T08:48:59Z</time></trkpt><trkpt lat="37.538280129847685" lon="13.092742365934628"><ele>128.0</ele><time>2026-04-18T08:49:00Z</time></trkpt><trkpt lat="37.53836959639478" lon="13.092938559506868"><ele>128.0</ele><time>2026-04-18T08:49:01Z</time></trkpt><trkpt lat="37.53845601723762" lon="13.093117743964116"><ele>128.0</ele><time>2026-04-18T08:49:02Z</time></trkpt><trkpt lat="37.53852953378306" lon="13.093275196904077"><ele>128.25</ele><time>2026-04-18T08:49:03Z</time></trkpt><trkpt lat="37.538594209949096" lon="13.093425045282219"><ele>128.5</ele><time>2026-04-18T08:49:04Z</time></trkpt><trkpt lat="37.53866324486432" lon="13.093584462068765"><ele>128.75</ele><time>2026-04-18T08:49:05Z</time></trkpt><trkpt lat="37.538737969219326" lon="13.093749797399916"><ele>129.0</ele><time>2026-04-18T08:49:06Z</time></trkpt><trkpt lat="37.538814911946666" lon="13.093917421934757"><ele>130.33333333333334</ele><time>2026-04-18T08:49:07Z</time></trkpt><trkpt lat="37.53889906010792" lon="13.094094555026228"><ele>131.66666666666669</ele><time>2026-04-18T08:49:08Z</time></trkpt><trkpt lat="37.53898799660261" lon="13.094288567357736"><ele>133.0</ele><time>2026-04-18T08:49:09Z</time></trkpt><trkpt lat="37.53907424556117" lon="13.09448671901686"><ele>133.0</ele><time>2026-04-18T08:49:10Z</time></trkpt><trkpt lat="37.53916700098257" lon="13.094692302533803"><ele>133.0</ele><time>2026-04-18T08:49:11Z</time></trkpt><trkpt lat="37.53926857334884" lon="13.094913602474877"><ele>133.0</ele><time>2026-04-18T08:49:12Z</time></trkpt><trkpt lat="37.53937059526974" lon="13.095137111809722"><ele>134.0</ele><time>2026-04-18T08:49:13Z</time></trkpt><trkpt lat="37.53946470363246" lon="13.095352610375128"><ele>135.0</ele><time>2026-04-18T08:49:14Z</time></trkpt><trkpt lat="37.5395602145374" lon="13.095555915057412"><ele>136.0</ele><time>2026-04-18T08:49:15Z</time></trkpt><trkpt lat="37.53966276398731" lon="13.095756528399189"><ele>137.0</ele><time>2026-04-18T08:49:16Z</time></trkpt><trkpt lat="37.53976703271965" lon="13.095937911882594"><ele>138.0</ele><time>2026-04-18T08:49:17Z</time></trkpt><trkpt lat="37.53987656003342" lon="13.096116890945352"><ele>139.0</ele><time>2026-04-18T08:49:18Z</time></trkpt><trkpt lat="37.53999765208131" lon="13.096301815731218"><ele>139.0</ele><time>2026-04-18T08:49:19Z</time></trkpt><trkpt lat="37.5401235032085" lon="13.096480257299609"><ele>139.0</ele><time>2026-04-18T08:49:20Z</time></trkpt><trkpt lat="37.54025138694975" lon="13.096651795462552"><ele>139.0</ele><time>2026-04-18T08:49:21Z</time></trkpt><trkpt lat="37.540378734701314" lon="13.096817532801097"><ele>140.66666666666669</ele><time>2026-04-18T08:49:22Z</time></trkpt><trkpt lat="37.54051117993757" lon="13.096993245546093"><ele>142.33333333333334</ele><time>2026-04-18T08:49:23Z</time></trkpt><trkpt lat="37.54065708855752" lon="13.0971747793812"><ele>144.0</ele><time>2026-04-18T08:49:24Z</time></trkpt><trkpt lat="37.540806686558376" lon="13.097359300925566"><ele>145.0</ele><time>2026-04-18T08:49:25Z</time></trkpt><trkpt lat="37.54095560915157" lon="13.097542862305218"><ele>146.0</ele><time>2026-04-18T08:49:26Z</time></trkpt><trkpt lat="37.54110223675153" lon="13.097727255308897"><ele>147.0</ele><time>2026-04-18T08:49:27Z</time></trkpt><trkpt lat="37.54124642993328" lon="13.097911656053455"><ele>147.0</ele><time>2026-04-18T08:49:28Z</time></trkpt><trkpt lat="37.54138285952693" lon="13.098086832669955"><ele>147.0</ele><time>2026-04-18T08:49:29Z</time></trkpt><trkpt lat="37.541513552552274" lon="13.098253925976733"><ele>147.0</ele><time>2026-04-18T08:49:30Z</time></trkpt><trkpt lat="37.541639469125485" lon="13.098412734812444"><ele>147.33333333333334</ele><time>2026-04-18T08:49:31Z</time></trkpt><trkpt lat="37.54176651906988" lon="13.098571482936766"><ele>147.66666666666669</ele><time>2026-04-18T08:49:32Z</time></trkpt><trkpt lat="37.54188866429113" lon="13.098722387193433"><ele>148.0</ele><time>2026-04-18T08:49:33Z</time></trkpt><trkpt lat="37.542004093815855" lon="13.09886573327313"><ele>148.33333333333334</ele><time>2026-04-18T08:49:34Z</time></trkpt><trkpt lat="37.54211741896693" lon="13.099006816493707"><ele>148.66666666666666</ele><time>2026-04-18T08:49:35Z</time></trkpt><trkpt lat="37.54222760892373" lon="13.099148001413635"><ele>149.0</ele><time>2026-04-18T08:49:36Z</time></trkpt><trkpt lat="37.54234410173977" lon="13.099296562441411"><ele>149.0</ele><time>2026-04-18T08:49:37Z</time></trkpt><trkpt lat="37.542463031974265" lon="13.09945222985569"><ele>149.0</ele><time>2026-04-18T08:49:38Z</time></trkpt><trkpt lat="37.54258629620821" lon="13.09961056087647"><ele>149.0</ele><time>2026-04-18T08:49:39Z</time></trkpt><trkpt lat="37.542709619241904" lon="13.09976430107202"><ele>147.66666666666666</ele><time>2026-04-18T08:49:40Z</time></trkpt><trkpt lat="37.54283357559288" lon="13.099921451484198"><ele>146.33333333333334</ele><time>2026-04-18T08:49:41Z</time></trkpt><trkpt lat="37.5429546889831" lon="13.100079279285296"><ele>145.0</ele><time>2026-04-18T08:49:42Z</time></trkpt><trkpt lat="37.54306784184589" lon="13.100226005735232"><ele>145.0</ele><time>2026-04-18T08:49:43Z</time></trkpt><trkpt lat="37.543173794973555" lon="13.100362682998279"><ele>145.0</ele><time>2026-04-18T08:49:44Z</time></trkpt><trkpt lat="37.54327695793765" lon="13.100495422155038"><ele>145.0</ele><time>2026-04-18T08:49:45Z</time></trkpt><trkpt lat="37.54338247227526" lon="13.100635975229366"><ele>145.33333333333334</ele><time>2026-04-18T08:49:46Z</time></trkpt><trkpt lat="37.54349598806946" lon="13.100777859094855"><ele>145.66666666666666</ele><time>2026-04-18T08:49:47Z</time></trkpt><trkpt lat="37.54360522661797" lon="13.10091942046884"><ele>146.0</ele><time>2026-04-18T08:49:48Z</time></trkpt><trkpt lat="37.543710563873255" lon="13.101055481726968"><ele>146.0</ele><time>2026-04-18T08:49:49Z</time></trkpt><trkpt lat="37.54380845338599" lon="13.101182168313583"><ele>146.0</ele><time>2026-04-18T08:49:50Z</time></trkpt><trkpt lat="37.54389522661412" lon="13.10129590790088"><ele>146.0</ele><time>2026-04-18T08:49:51Z</time></trkpt><trkpt lat="37.54397333572942" lon="13.101395429267779"><ele>146.0</ele><time>2026-04-18T08:49:52Z</time></trkpt><trkpt lat="37.54403272524225" lon="13.10147375110354"><ele>146.0</ele><time>2026-04-18T08:49:53Z</time></trkpt><trkpt lat="37.54408113691552" lon="13.101536209360603"><ele>146.0</ele><time>2026-04-18T08:49:54Z</time></trkpt><trkpt lat="37.54412629177517" lon="13.101610307835037"><ele>146.0</ele><time>2026-04-18T08:49:56Z</time></trkpt><trkpt lat="37.54413844804503" lon="13.101695450651771"><ele>146.0</ele><time>2026-04-18T08:49:59Z</time></trkpt><trkpt lat="37.54398470813992" lon="13.101789420145366"><ele>146.0</ele><time>2026-04-18T08:50:03Z</time></trkpt><trkpt lat="37.54393611540443" lon="13.101886631497623"><ele>145.75</ele><time>2026-04-18T08:50:05Z</time></trkpt><trkpt lat="37.54387478407503" lon="13.101999358476322"><ele>145.5</ele><time>2026-04-18T08:50:07Z</time></trkpt><trkpt lat="37.543802514644206" lon="13.102127858790816"><ele>145.25</ele><time>2026-04-18T08:50:09Z</time></trkpt><trkpt lat="37.5437265317034" lon="13.102248081999454"><ele>145.0</ele><time>2026-04-18T08:50:11Z</time></trkpt><trkpt lat="37.54365962596474" lon="13.102348823027235"><ele>145.0</ele><time>2026-04-18T08:50:13Z</time></trkpt></trkseg><trkseg><trkpt lat="37.54386045058142" lon="13.102594802919105"><ele>143.0</ele><time>2026-04-18T09:17:05.004Z</time></trkpt><trkpt lat="37.543791230004096" lon="13.102669183735232"><ele>143.0</ele><time>2026-04-18T09:17:08.003Z</time></trkpt><trkpt lat="37.543737830363085" lon="13.102615098840392"><ele>143.0</ele><time>2026-04-18T09:17:11.002Z</time></trkpt><trkpt lat="37.54371702600906" lon="13.10253813359145"><ele>143.0</ele><time>2026-04-18T09:17:15.002Z</time></trkpt><trkpt lat="37.54371032572045" lon="13.10245747493944"><ele>143.0</ele><time>2026-04-18T09:17:18.001Z</time></trkpt><trkpt lat="37.54373272968982" lon="13.102370326949595"><ele>143.0</ele><time>2026-04-18T09:17:22.001Z</time></trkpt><trkpt lat="37.54381055826665" lon="13.102301521989933"><ele>143.20000000000002</ele><time>2026-04-18T09:17:26.001Z</time></trkpt><trkpt lat="37.543868014740156" lon="13.102219947894746"><ele>143.4</ele><time>2026-04-18T09:17:28Z</time></trkpt><trkpt lat="37.54392886733182" lon="13.10213450986224"><ele>143.60000000000002</ele><time>2026-04-18T09:17:30Z</time></trkpt><trkpt lat="37.54398696400282" lon="13.102018146232764"><ele>143.8</ele><time>2026-04-18T09:17:32Z</time></trkpt><trkpt lat="37.54398780992256" lon="13.101861943727267"><ele>144.0</ele><time>2026-04-18T09:17:34Z</time></trkpt><trkpt lat="37.54403918777327" lon="13.101754879256655"><ele>144.0</ele><time>2026-04-18T09:17:36Z</time></trkpt><trkpt lat="37.54407812175227" lon="13.10166516443451"><ele>144.0</ele><time>2026-04-18T09:17:38Z</time></trkpt><trkpt lat="37.54417757941675" lon="13.101672735812546"><ele>144.0</ele><time>2026-04-18T09:18:02.999Z</time></trkpt><trkpt lat="37.544241929605214" lon="13.101721466451398"><ele>144.0</ele><time>2026-04-18T09:18:04.999Z</time></trkpt><trkpt lat="37.54428443269283" lon="13.101787707819277"><ele>144.0</ele><time>2026-04-18T09:18:05.999Z</time></trkpt><trkpt lat="37.54433391051483" lon="13.101854066934592"><ele>144.0</ele><time>2026-04-18T09:18:06.999Z</time></trkpt><trkpt lat="37.54438867453278" lon="13.101923467433457"><ele>144.0</ele><time>2026-04-18T09:18:07.999Z</time></trkpt><trkpt lat="37.54445332911283" lon="13.102005479335135"><ele>144.0</ele><time>2026-04-18T09:18:08.999Z</time></trkpt><trkpt lat="37.54452045683325" lon="13.102093760227614"><ele>144.0</ele><time>2026-04-18T09:18:09.999Z</time></trkpt><trkpt lat="37.54458630758496" lon="13.102176942192845"><ele>144.0</ele><time>2026-04-18T09:18:10.999Z</time></trkpt><trkpt lat="37.544660442170816" lon="13.102269064190818"><ele>144.0</ele><time>2026-04-18T09:18:11.999Z</time></trkpt><trkpt lat="37.544739713018366" lon="13.10236837916463"><ele>144.4</ele><time>2026-04-18T09:18:12.999Z</time></trkpt><trkpt lat="37.544821085984076" lon="13.10247235673727"><ele>144.8</ele><time>2026-04-18T09:18:13.999Z</time></trkpt><trkpt lat="37.544898669751646" lon="13.102571784729234"><ele>145.2</ele><time>2026-04-18T09:18:14.999Z</time></trkpt><trkpt lat="37.54497282890962" lon="13.102662491939865"><ele>145.6</ele><time>2026-04-18T09:18:15.999Z</time></trkpt><trkpt lat="37.54504555071454" lon="13.102755126180138"><ele>146.0</ele><time>2026-04-18T09:18:16.999Z</time></trkpt><trkpt lat="37.54511825458757" lon="13.102849087317221"><ele>146.0</ele><time>2026-04-18T09:18:17.999Z</time></trkpt><trkpt lat="37.54518903646637" lon="13.102943861327754"><ele>146.0</ele><time>2026-04-18T09:18:18.999Z</time></trkpt><trkpt lat="37.54526459265312" lon="13.103033913390483"><ele>146.0</ele><time>2026-04-18T09:18:19.999Z</time></trkpt><trkpt lat="37.54534100774604" lon="13.103130309976272"><ele>146.0</ele><time>2026-04-18T09:18:20.999Z</time></trkpt><trkpt lat="37.545425400321086" lon="13.103235068995154"><ele>146.0</ele><time>2026-04-18T09:18:21.999Z</time></trkpt><trkpt lat="37.54551863175363" lon="13.103353647846808"><ele>146.75</ele><time>2026-04-18T09:18:22.999Z</time></trkpt><trkpt lat="37.54562248575695" lon="13.103482511866188"><ele>147.5</ele><time>2026-04-18T09:18:23.999Z</time></trkpt><trkpt lat="37.54572103137914" lon="13.103606195287865"><ele>148.25</ele><time>2026-04-18T09:18:24.999Z</time></trkpt><trkpt lat="37.54582325566742" lon="13.103730867676889"><ele>149.0</ele><time>2026-04-18T09:18:25.999Z</time></trkpt><trkpt lat="37.54592366309163" lon="13.103854741794565"><ele>149.0</ele><time>2026-04-18T09:18:26.999Z</time></trkpt><trkpt lat="37.546025248614555" lon="13.103985413151529"><ele>149.0</ele><time>2026-04-18T09:18:27.999Z</time></trkpt><trkpt lat="37.54613152588116" lon="13.104114521161108"><ele>149.0</ele><time>2026-04-18T09:18:28.999Z</time></trkpt><trkpt lat="37.546232570291394" lon="13.104247889741043"><ele>149.0</ele><time>2026-04-18T09:18:29.999Z</time></trkpt><trkpt lat="37.54633428520367" lon="13.10437904057884"><ele>148.66666666666666</ele><time>2026-04-18T09:18:30.999Z</time></trkpt><trkpt lat="37.54643772157796" lon="13.104508113234498"><ele>148.33333333333334</ele><time>2026-04-18T09:18:31.999Z</time></trkpt><trkpt lat="37.546544972855976" lon="13.104641516931135"><ele>148.0</ele><time>2026-04-18T09:18:32.999Z</time></trkpt><trkpt lat="37.54665716895454" lon="13.104784764701979"><ele>147.75</ele><time>2026-04-18T09:18:33.999Z</time></trkpt><trkpt lat="37.54676816248115" lon="13.104927451190314"><ele>147.5</ele><time>2026-04-18T09:18:34.999Z</time></trkpt><trkpt lat="37.546871317492474" lon="13.105059760697198"><ele>147.25</ele><time>2026-04-18T09:18:35.999Z</time></trkpt><trkpt lat="37.54696647983015" lon="13.105182325924552"><ele>147.0</ele><time>2026-04-18T09:18:36.999Z</time></trkpt><trkpt lat="37.54705757742561" lon="13.105292744608658"><ele>147.75</ele><time>2026-04-18T09:18:37.999Z</time></trkpt><trkpt lat="37.54713659255816" lon="13.105397965680037"><ele>148.5</ele><time>2026-04-18T09:18:38.999Z</time></trkpt><trkpt lat="37.547222228098114" lon="13.105503172298375"><ele>149.25</ele><time>2026-04-18T09:18:39.999Z</time></trkpt><trkpt lat="37.547313901831835" lon="13.105619150647945"><ele>150.0</ele><time>2026-04-18T09:18:40.999Z</time></trkpt><trkpt lat="37.54741559739119" lon="13.105741935769322"><ele>149.33333333333334</ele><time>2026-04-18T09:18:41.999Z</time></trkpt><trkpt lat="37.54752069769237" lon="13.105876479011558"><ele>148.66666666666669</ele><time>2026-04-18T09:18:42.999Z</time></trkpt><trkpt lat="37.547641117310704" lon="13.106024043128334"><ele>148.0</ele><time>2026-04-18T09:18:43.999Z</time></trkpt><trkpt lat="37.547776355389196" lon="13.10618928507707"><ele>148.33333333333334</ele><time>2026-04-18T09:18:44.999Z</time></trkpt><trkpt lat="37.54791858702989" lon="13.106367084136854"><ele>148.66666666666666</ele><time>2026-04-18T09:18:45.999Z</time></trkpt><trkpt lat="37.548071136993116" lon="13.106555641915476"><ele>149.0</ele><time>2026-04-18T09:18:46.999Z</time></trkpt><trkpt lat="37.54822282064825" lon="13.106740637396076"><ele>147.66666666666666</ele><time>2026-04-18T09:18:47.999Z</time></trkpt><trkpt lat="37.54838053157072" lon="13.106932999595342"><ele>146.33333333333334</ele><time>2026-04-18T09:18:48.999Z</time></trkpt><trkpt lat="37.548532546381324" lon="13.10712107556782"><ele>145.0</ele><time>2026-04-18T09:18:49.999Z</time></trkpt><trkpt lat="37.54867741897007" lon="13.10729709913225"><ele>146.33333333333334</ele><time>2026-04-18T09:18:50.999Z</time></trkpt><trkpt lat="37.54880863477089" lon="13.107464308289797"><ele>147.66666666666666</ele><time>2026-04-18T09:18:51.999Z</time></trkpt><trkpt lat="37.54893956527885" lon="13.107631229243287"><ele>149.0</ele><time>2026-04-18T09:18:52.999Z</time></trkpt><trkpt lat="37.54906800921334" lon="13.107792839368694"><ele>149.0</ele><time>2026-04-18T09:18:53.999Z</time></trkpt><trkpt lat="37.549195927093415" lon="13.10795624641378"><ele>149.0</ele><time>2026-04-18T09:18:54.998Z</time></trkpt><trkpt lat="37.54932582043519" lon="13.108120610258242"><ele>149.0</ele><time>2026-04-18T09:18:55.998Z</time></trkpt><trkpt lat="37.54946099778876" lon="13.108283118970784"><ele>150.66666666666666</ele><time>2026-04-18T09:18:56.998Z</time></trkpt><trkpt lat="37.54959481218359" lon="13.108445588632533"><ele>152.33333333333334</ele><time>2026-04-18T09:18:57.998Z</time></trkpt><trkpt lat="37.549728608530366" lon="13.108604917029565"><ele>154.0</ele><time>2026-04-18T09:18:58.998Z</time></trkpt><trkpt lat="37.54986341357539" lon="13.108770012256958"><ele>154.0</ele><time>2026-04-18T09:18:59.998Z</time></trkpt><trkpt lat="37.54999536804323" lon="13.108934423433556"><ele>154.0</ele><time>2026-04-18T09:19:00.998Z</time></trkpt><trkpt lat="37.55012266376234" lon="13.109089853232918"><ele>154.0</ele><time>2026-04-18T09:19:01.998Z</time></trkpt><trkpt lat="37.5502473007937" lon="13.109243447808646"><ele>154.0</ele><time>2026-04-18T09:19:02.998Z</time></trkpt><trkpt lat="37.5503627470343" lon="13.109393669467773"><ele>154.0</ele><time>2026-04-18T09:19:03.999Z</time></trkpt><trkpt lat="37.55047380164815" lon="13.10953251249998"><ele>154.0</ele><time>2026-04-18T09:19:04.999Z</time></trkpt><trkpt lat="37.55058535828273" lon="13.109662980348666"><ele>154.75</ele><time>2026-04-18T09:19:05.999Z</time></trkpt><trkpt lat="37.55070247758844" lon="13.10977435274143"><ele>155.5</ele><time>2026-04-18T09:19:06.999Z</time></trkpt><trkpt lat="37.55083035384362" lon="13.10986352400633"><ele>156.25</ele><time>2026-04-18T09:19:07.999Z</time></trkpt><trkpt lat="37.55097078445281" lon="13.109919597677354"><ele>157.0</ele><time>2026-04-18T09:19:08.999Z</time></trkpt><trkpt lat="37.55112759898307" lon="13.109951027471777"><ele>158.33333333333334</ele><time>2026-04-18T09:19:09.999Z</time></trkpt><trkpt lat="37.55129808236798" lon="13.109971177522663"><ele>159.66666666666666</ele><time>2026-04-18T09:19:10.999Z</time></trkpt><trkpt lat="37.55146955218431" lon="13.109997722144923"><ele>161.0</ele><time>2026-04-18T09:19:11.999Z</time></trkpt><trkpt lat="37.55164677866226" lon="13.110021005902803"><ele>161.0</ele><time>2026-04-18T09:19:12.999Z</time></trkpt><trkpt lat="37.55182333176183" lon="13.110040792437726"><ele>161.0</ele><time>2026-04-18T09:19:13.999Z</time></trkpt><trkpt lat="37.55199216268974" lon="13.110065825859957"><ele>161.0</ele><time>2026-04-18T09:19:14.999Z</time></trkpt><trkpt lat="37.55215720053849" lon="13.11009892261867"><ele>162.5</ele><time>2026-04-18T09:19:15.999Z</time></trkpt><trkpt lat="37.55231380609349" lon="13.110129099878401"><ele>164.0</ele><time>2026-04-18T09:19:16.999Z</time></trkpt><trkpt lat="37.55246025114243" lon="13.110144447803213"><ele>165.5</ele><time>2026-04-18T09:19:17.999Z</time></trkpt><trkpt lat="37.55259369070227" lon="13.110140080366552"><ele>167.0</ele><time>2026-04-18T09:19:18.999Z</time></trkpt><trkpt lat="37.552724168807394" lon="13.110102815909398"><ele>167.0</ele><time>2026-04-18T09:19:19.999Z</time></trkpt><trkpt lat="37.55284999118162" lon="13.11003855052795"><ele>167.0</ele><time>2026-04-18T09:19:20.999Z</time></trkpt><trkpt lat="37.55297148494068" lon="13.109957524312696"><ele>167.0</ele><time>2026-04-18T09:19:21.999Z</time></trkpt><trkpt lat="37.55308915158401" lon="13.10986572258803"><ele>167.0</ele><time>2026-04-18T09:19:22.999Z</time></trkpt><trkpt lat="37.55320477232421" lon="13.1097708347535"><ele>167.5</ele><time>2026-04-18T09:19:23.999Z</time></trkpt><trkpt lat="37.55332343823068" lon="13.109680108063289"><ele>168.0</ele><time>2026-04-18T09:19:24.999Z</time></trkpt><trkpt lat="37.55344770434007" lon="13.109585414304691"><ele>168.5</ele><time>2026-04-18T09:19:25.999Z</time></trkpt><trkpt lat="37.55357859559011" lon="13.109482728254987"><ele>169.0</ele><time>2026-04-18T09:19:26.999Z</time></trkpt><trkpt lat="37.553709978953535" lon="13.109386493953608"><ele>169.0</ele><time>2026-04-18T09:19:27.999Z</time></trkpt><trkpt lat="37.55384358155704" lon="13.109289669706888"><ele>169.0</ele><time>2026-04-18T09:19:28.999Z</time></trkpt><trkpt lat="37.55396787926083" lon="13.10919903662705"><ele>169.0</ele><time>2026-04-18T09:19:29.999Z</time></trkpt><trkpt lat="37.554089624023334" lon="13.109112253201955"><ele>169.0</ele><time>2026-04-18T09:19:30.999Z</time></trkpt><trkpt lat="37.55420968236771" lon="13.10903205576983"><ele>170.75</ele><time>2026-04-18T09:19:31.999Z</time></trkpt><trkpt lat="37.55432160788883" lon="13.108981311515821"><ele>172.5</ele><time>2026-04-18T09:19:32.999Z</time></trkpt><trkpt lat="37.55442954265761" lon="13.108975547438309"><ele>174.25</ele><time>2026-04-18T09:19:33.999Z</time></trkpt><trkpt lat="37.554537238663315" lon="13.10900686830807"><ele>176.0</ele><time>2026-04-18T09:19:34.999Z</time></trkpt><trkpt lat="37.55463643355209" lon="13.109084858543394"><ele>176.0</ele><time>2026-04-18T09:19:35.999Z</time></trkpt><trkpt lat="37.55472949961293" lon="13.109165763194683"><ele>176.0</ele><time>2026-04-18T09:19:36.999Z</time></trkpt><trkpt lat="37.55483959729984" lon="13.109235674475908"><ele>176.0</ele><time>2026-04-18T09:19:37.999Z</time></trkpt><trkpt lat="37.55493414095042" lon="13.109333521745107"><ele>176.0</ele><time>2026-04-18T09:19:38.999Z</time></trkpt><trkpt lat="37.55502549020875" lon="13.109429344797446"><ele>176.0</ele><time>2026-04-18T09:19:39.999Z</time></trkpt><trkpt lat="37.55510926120187" lon="13.109546496059355"><ele>176.0</ele><time>2026-04-18T09:19:40.999Z</time></trkpt><trkpt lat="37.555169519250505" lon="13.109691795826263"><ele>176.0</ele><time>2026-04-18T09:19:41.999Z</time></trkpt><trkpt lat="37.55521845561669" lon="13.109841429019113"><ele>176.0</ele><time>2026-04-18T09:19:42.999Z</time></trkpt><trkpt lat="37.55524592085098" lon="13.109985882137194"><ele>175.0</ele><time>2026-04-18T09:19:43.999Z</time></trkpt><trkpt lat="37.555254874803296" lon="13.110138476112603"><ele>174.0</ele><time>2026-04-18T09:19:44.999Z</time></trkpt><trkpt lat="37.55524540790453" lon="13.110296475001029"><ele>173.0</ele><time>2026-04-18T09:19:45.999Z</time></trkpt><trkpt lat="37.555221126915114" lon="13.110451481552683"><ele>172.0</ele><time>2026-04-18T09:19:46.999Z</time></trkpt><trkpt lat="37.55518102501757" lon="13.110600962676829"><ele>173.25</ele><time>2026-04-18T09:19:47.999Z</time></trkpt><trkpt lat="37.55513288747006" lon="13.110748828827782"><ele>174.5</ele><time>2026-04-18T09:19:48.999Z</time></trkpt><trkpt lat="37.55509241741078" lon="13.110902036425799"><ele>175.75</ele><time>2026-04-18T09:19:49.999Z</time></trkpt><trkpt lat="37.55505931726573" lon="13.111061547637505"><ele>177.0</ele><time>2026-04-18T09:19:50.999Z</time></trkpt><trkpt lat="37.55504041743543" lon="13.111224887069694"><ele>177.0</ele><time>2026-04-18T09:19:51.999Z</time></trkpt><trkpt lat="37.55503784228328" lon="13.111385346513785"><ele>177.0</ele><time>2026-04-18T09:19:52.999Z</time></trkpt><trkpt lat="37.55505752051481" lon="13.111551943086578"><ele>177.0</ele><time>2026-04-18T09:19:53.999Z</time></trkpt><trkpt lat="37.55509376176622" lon="13.11171496804947"><ele>177.0</ele><time>2026-04-18T09:19:54.999Z</time></trkpt><trkpt lat="37.555138733432635" lon="13.111877455610266"><ele>179.0</ele><time>2026-04-18T09:19:55.999Z</time></trkpt><trkpt lat="37.55518922018975" lon="13.112041384340541"><ele>181.0</ele><time>2026-04-18T09:19:56.999Z</time></trkpt><trkpt lat="37.55524135425284" lon="13.112206027572793"><ele>183.0</ele><time>2026-04-18T09:19:57.999Z</time></trkpt><trkpt lat="37.55529138931263" lon="13.112371348465112"><ele>185.0</ele><time>2026-04-18T09:19:58.999Z</time></trkpt><trkpt lat="37.555337456867115" lon="13.112534504682879"><ele>189.25</ele><time>2026-04-18T09:19:59.999Z</time></trkpt><trkpt lat="37.55538311069367" lon="13.112692429876601"><ele>193.5</ele><time>2026-04-18T09:20:00.999Z</time></trkpt><trkpt lat="37.555429294443485" lon="13.112849709917857"><ele>197.75</ele><time>2026-04-18T09:20:01.999Z</time></trkpt><trkpt lat="37.55547410135812" lon="13.113006363709795"><ele>202.0</ele><time>2026-04-18T09:20:02.999Z</time></trkpt><trkpt lat="37.55550868626685" lon="13.113163528879014"><ele>201.75</ele><time>2026-04-18T09:20:03.999Z</time></trkpt><trkpt lat="37.555518487209994" lon="13.113322252998708"><ele>201.5</ele><time>2026-04-18T09:20:04.999Z</time></trkpt><trkpt lat="37.555504926891146" lon="13.113480788202862"><ele>201.25</ele><time>2026-04-18T09:20:05.999Z</time></trkpt><trkpt lat="37.555467749149905" lon="13.113655044181323"><ele>201.0</ele><time>2026-04-18T09:20:06.999Z</time></trkpt><trkpt lat="37.55542405205056" lon="13.113827033074118"><ele>201.0</ele><time>2026-04-18T09:20:07.999Z</time></trkpt><trkpt lat="37.55540168423102" lon="13.113988588412516"><ele>201.0</ele><time>2026-04-18T09:20:08.999Z</time></trkpt><trkpt lat="37.5554110633797" lon="13.114155469838424"><ele>201.0</ele><time>2026-04-18T09:20:09.999Z</time></trkpt><trkpt lat="37.55544612637211" lon="13.114314938792896"><ele>201.0</ele><time>2026-04-18T09:20:10.999Z</time></trkpt><trkpt lat="37.555503769052564" lon="13.114460027789184"><ele>201.25</ele><time>2026-04-18T09:20:11.999Z</time></trkpt><trkpt lat="37.55558313464534" lon="13.114579321895528"><ele>201.5</ele><time>2026-04-18T09:20:12.999Z</time></trkpt><trkpt lat="37.555677313641205" lon="13.114693529715236"><ele>201.75</ele><time>2026-04-18T09:20:13.999Z</time></trkpt><trkpt lat="37.555771952024756" lon="13.114820470483481"><ele>202.0</ele><time>2026-04-18T09:20:14.999Z</time></trkpt><trkpt lat="37.5558674818218" lon="13.114945270629082"><ele>202.0</ele><time>2026-04-18T09:20:15.999Z</time></trkpt><trkpt lat="37.55597715816804" lon="13.115059992067447"><ele>202.0</ele><time>2026-04-18T09:20:16.999Z</time></trkpt><trkpt lat="37.556097972866205" lon="13.11515396179033"><ele>202.0</ele><time>2026-04-18T09:20:17.999Z</time></trkpt><trkpt lat="37.55622718374726" lon="13.11522714770035"><ele>202.0</ele><time>2026-04-18T09:20:18.999Z</time></trkpt><trkpt lat="37.556363881354876" lon="13.115283438085289"><ele>205.75</ele><time>2026-04-18T09:20:19.999Z</time></trkpt><trkpt lat="37.55650131340982" lon="13.115319750035916"><ele>209.5</ele><time>2026-04-18T09:20:20.999Z</time></trkpt><trkpt lat="37.556632499992865" lon="13.115346768546813"><ele>213.25</ele><time>2026-04-18T09:20:21.999Z</time></trkpt><trkpt lat="37.55675267530685" lon="13.115374523797506"><ele>217.0</ele><time>2026-04-18T09:20:22.999Z</time></trkpt><trkpt lat="37.5568622253353" lon="13.11539912568642"><ele>216.99999999999997</ele><time>2026-04-18T09:20:23.999Z</time></trkpt><trkpt lat="37.5569601402165" lon="13.115423554998197"><ele>217.0</ele><time>2026-04-18T09:20:24.999Z</time></trkpt><trkpt lat="37.55704402959669" lon="13.115456899415086"><ele>217.0</ele><time>2026-04-18T09:20:25.999Z</time></trkpt><trkpt lat="37.55711205744473" lon="13.11550001835397"><ele>217.0</ele><time>2026-04-18T09:20:26.999Z</time></trkpt><trkpt lat="37.55715149832151" lon="13.115562440568091"><ele>216.99999999999997</ele><time>2026-04-18T09:20:27.999Z</time></trkpt><trkpt lat="37.55716255166297" lon="13.11564333894216"><ele>217.0</ele><time>2026-04-18T09:20:28.999Z</time></trkpt><trkpt lat="37.55714277597555" lon="13.115729800604935"><ele>216.33333333333331</ele><time>2026-04-18T09:20:29.999Z</time></trkpt><trkpt lat="37.55710081916513" lon="13.115809265884769"><ele>215.66666666666666</ele><time>2026-04-18T09:20:30.999Z</time></trkpt><trkpt lat="37.557038229005734" lon="13.115881184963115"><ele>215.0</ele><time>2026-04-18T09:20:31.999Z</time></trkpt><trkpt lat="37.556959813106545" lon="13.11593986499702"><ele>214.33333333333331</ele><time>2026-04-18T09:20:32.999Z</time></trkpt><trkpt lat="37.55688440282259" lon="13.116014617894121"><ele>213.66666666666666</ele><time>2026-04-18T09:20:33.999Z</time></trkpt><trkpt lat="37.55682067215369" lon="13.116111659192395"><ele>213.0</ele><time>2026-04-18T09:20:34.999Z</time></trkpt><trkpt lat="37.556772999666066" lon="13.116230789540225"><ele>213.0</ele><time>2026-04-18T09:20:35.999Z</time></trkpt><trkpt lat="37.55674394255004" lon="13.116361417516922"><ele>213.0</ele><time>2026-04-18T09:20:36.999Z</time></trkpt><trkpt lat="37.55674147568719" lon="13.116501845833318"><ele>213.0</ele><time>2026-04-18T09:20:37.999Z</time></trkpt><trkpt lat="37.55677509347208" lon="13.116644920967317"><ele>213.0</ele><time>2026-04-18T09:20:38.999Z</time></trkpt><trkpt lat="37.556838052520106" lon="13.116811402077005"><ele>213.75</ele><time>2026-04-18T09:20:39.999Z</time></trkpt><trkpt lat="37.556910764659904" lon="13.116973646362482"><ele>214.5</ele><time>2026-04-18T09:20:40.999Z</time></trkpt><trkpt lat="37.55696616703767" lon="13.117142826801436"><ele>215.25</ele><time>2026-04-18T09:20:41.999Z</time></trkpt><trkpt lat="37.556985740405935" lon="13.117302579958563"><ele>216.0</ele><time>2026-04-18T09:20:42.999Z</time></trkpt><trkpt lat="37.55697670504841" lon="13.117468906020349"><ele>216.5</ele><time>2026-04-18T09:20:43.999Z</time></trkpt><trkpt lat="37.55694724723815" lon="13.117635252705329"><ele>217.0</ele><time>2026-04-18T09:20:44.999Z</time></trkpt><trkpt lat="37.55691180257225" lon="13.117804687592404"><ele>217.5</ele><time>2026-04-18T09:20:45.999Z</time></trkpt><trkpt lat="37.55687916591839" lon="13.11797454275705"><ele>218.0</ele><time>2026-04-18T09:20:46.999Z</time></trkpt><trkpt lat="37.55685137719479" lon="13.118147683513195"><ele>219.0</ele><time>2026-04-18T09:20:47.999Z</time></trkpt><trkpt lat="37.556835062033564" lon="13.118325258548019"><ele>220.0</ele><time>2026-04-18T09:20:48.999Z</time></trkpt><trkpt lat="37.556828186682836" lon="13.118502520842593"><ele>221.0</ele><time>2026-04-18T09:20:49.999Z</time></trkpt><trkpt lat="37.556826287108954" lon="13.118680204430811"><ele>222.0</ele><time>2026-04-18T09:20:50.999Z</time></trkpt><trkpt lat="37.55682598579244" lon="13.118860507901763"><ele>222.0</ele><time>2026-04-18T09:20:51.999Z</time></trkpt><trkpt lat="37.55682338205269" lon="13.119044787218876"><ele>222.0</ele><time>2026-04-18T09:20:52.999Z</time></trkpt><trkpt lat="37.556820858880194" lon="13.119231137754573"><ele>222.0</ele><time>2026-04-18T09:20:53.999Z</time></trkpt><trkpt lat="37.55682474324565" lon="13.119413369511564"><ele>222.0</ele><time>2026-04-18T09:20:54.999Z</time></trkpt><trkpt lat="37.556836461796046" lon="13.119593457206646"><ele>222.5</ele><time>2026-04-18T09:20:55.999Z</time></trkpt><trkpt lat="37.556856374984726" lon="13.119772263412825"><ele>223.0</ele><time>2026-04-18T09:20:56.999Z</time></trkpt><trkpt lat="37.55688962556218" lon="13.119944141211175"><ele>223.5</ele><time>2026-04-18T09:20:57.999Z</time></trkpt><trkpt lat="37.55691876190613" lon="13.120108340806027"><ele>224.0</ele><time>2026-04-18T09:20:58.999Z</time></trkpt><trkpt lat="37.55693245260265" lon="13.120274059247771"><ele>224.5</ele><time>2026-04-18T09:20:59.999Z</time></trkpt><trkpt lat="37.556924047525904" lon="13.120436353599574"><ele>225.0</ele><time>2026-04-18T09:21:00.999Z</time></trkpt><trkpt lat="37.5568932063411" lon="13.12059663057089"><ele>225.5</ele><time>2026-04-18T09:21:01.999Z</time></trkpt><trkpt lat="37.55683973414129" lon="13.120756243888055"><ele>226.0</ele><time>2026-04-18T09:21:02.999Z</time></trkpt><trkpt lat="37.55678278514813" lon="13.12091160753942"><ele>228.25</ele><time>2026-04-18T09:21:03.999Z</time></trkpt><trkpt lat="37.55672478331067" lon="13.121065050589307"><ele>230.5</ele><time>2026-04-18T09:21:04.999Z</time></trkpt><trkpt lat="37.55666545815714" lon="13.121223094607338"><ele>232.75</ele><time>2026-04-18T09:21:05.999Z</time></trkpt><trkpt lat="37.55660757952398" lon="13.121376815319616"><ele>235.0</ele><time>2026-04-18T09:21:06.999Z</time></trkpt><trkpt lat="37.55655675058567" lon="13.121520364515792"><ele>236.8</ele><time>2026-04-18T09:21:07.999Z</time></trkpt><trkpt lat="37.556534923923735" lon="13.121649900008103"><ele>238.6</ele><time>2026-04-18T09:21:08.999Z</time></trkpt><trkpt lat="37.55654683867859" lon="13.12176602792684"><ele>240.39999999999998</ele><time>2026-04-18T09:21:09.999Z</time></trkpt><trkpt lat="37.55653566954855" lon="13.121925066361706"><ele>242.2</ele><time>2026-04-18T09:21:10.999Z</time></trkpt><trkpt lat="37.55658968189379" lon="13.122065326754718"><ele>244.0</ele><time>2026-04-18T09:21:11.999Z</time></trkpt><trkpt lat="37.55678942478011" lon="13.122152358796741"><ele>244.0</ele><time>2026-04-18T09:21:12.999Z</time></trkpt><trkpt lat="37.556894853461095" lon="13.122302124606747"><ele>244.0</ele><time>2026-04-18T09:21:13.999Z</time></trkpt><trkpt lat="37.556987540958424" lon="13.12246159346881"><ele>244.0</ele><time>2026-04-18T09:21:14.999Z</time></trkpt><trkpt lat="37.557065509288044" lon="13.122601178935849"><ele>247.33333333333331</ele><time>2026-04-18T09:21:15.999Z</time></trkpt><trkpt lat="37.55717273177035" lon="13.122719974172691"><ele>250.66666666666669</ele><time>2026-04-18T09:21:16.999Z</time></trkpt><trkpt lat="37.55730527140659" lon="13.12282184903717"><ele>254.0</ele><time>2026-04-18T09:21:17.999Z</time></trkpt><trkpt lat="37.55745290568787" lon="13.122910537344898"><ele>254.0</ele><time>2026-04-18T09:21:18.999Z</time></trkpt><trkpt lat="37.557588132991505" lon="13.122992821831886"><ele>254.0</ele><time>2026-04-18T09:21:19.999Z</time></trkpt><trkpt lat="37.55770394715339" lon="13.123073250824742"><ele>254.0</ele><time>2026-04-18T09:21:20.999Z</time></trkpt><trkpt lat="37.557798942833" lon="13.123158264651344"><ele>254.0</ele><time>2026-04-18T09:21:21.999Z</time></trkpt><trkpt lat="37.55786753005429" lon="13.123254846039881"><ele>255.39999999999998</ele><time>2026-04-18T09:21:22.999Z</time></trkpt><trkpt lat="37.557898921613344" lon="13.123370694630292"><ele>256.79999999999995</ele><time>2026-04-18T09:21:23.999Z</time></trkpt><trkpt lat="37.557893433819224" lon="13.123485806188054"><ele>258.20000000000005</ele><time>2026-04-18T09:21:24.999Z</time></trkpt><trkpt lat="37.55786992590395" lon="13.123595790952566"><ele>259.6</ele><time>2026-04-18T09:21:25.999Z</time></trkpt><trkpt lat="37.55784314263337" lon="13.123703435404702"><ele>261.0</ele><time>2026-04-18T09:21:26.999Z</time></trkpt><trkpt lat="37.557862726523666" lon="13.123809975084962"><ele>261.0</ele><time>2026-04-18T09:21:27.999Z</time></trkpt><trkpt lat="37.557918775426295" lon="13.123907520538863"><ele>261.0</ele><time>2026-04-18T09:21:28.999Z</time></trkpt><trkpt lat="37.55800753455049" lon="13.123999599685074"><ele>261.0</ele><time>2026-04-18T09:21:29.999Z</time></trkpt><trkpt lat="37.558131037069174" lon="13.12408906614817"><ele>261.0</ele><time>2026-04-18T09:21:30.999Z</time></trkpt><trkpt lat="37.55826355398175" lon="13.124191867508785"><ele>260.25</ele><time>2026-04-18T09:21:31.999Z</time></trkpt><trkpt lat="37.55838394599301" lon="13.124288462395114"><ele>259.5</ele><time>2026-04-18T09:21:32.999Z</time></trkpt><trkpt lat="37.558492616631696" lon="13.12437986520651"><ele>258.75</ele><time>2026-04-18T09:21:33.999Z</time></trkpt><trkpt lat="37.55859569665243" lon="13.124478476673158"><ele>258.0</ele><time>2026-04-18T09:21:34.999Z</time></trkpt><trkpt lat="37.55868903816185" lon="13.124593105024859"><ele>260.75</ele><time>2026-04-18T09:21:35.999Z</time></trkpt><trkpt lat="37.55876420638711" lon="13.124726455573938"><ele>263.5</ele><time>2026-04-18T09:21:36.999Z</time></trkpt><trkpt lat="37.558827459387864" lon="13.124859847235566"><ele>266.25</ele><time>2026-04-18T09:21:37.999Z</time></trkpt><trkpt lat="37.55888950967707" lon="13.12498904803518"><ele>269.0</ele><time>2026-04-18T09:21:38.999Z</time></trkpt><trkpt lat="37.55894228022126" lon="13.125125975103884"><ele>269.0</ele><time>2026-04-18T09:21:39.999Z</time></trkpt><trkpt lat="37.55896935958677" lon="13.125276149131283"><ele>269.0</ele><time>2026-04-18T09:21:40.999Z</time></trkpt><trkpt lat="37.55899004266686" lon="13.125442668661275"><ele>269.0</ele><time>2026-04-18T09:21:41.999Z</time></trkpt><trkpt lat="37.55901324520073" lon="13.125610997238333"><ele>269.0</ele><time>2026-04-18T09:21:42.999Z</time></trkpt><trkpt lat="37.559013180757006" lon="13.125780519765977"><ele>270.0</ele><time>2026-04-18T09:21:43.999Z</time></trkpt><trkpt lat="37.558978196518694" lon="13.125957391329964"><ele>271.0</ele><time>2026-04-18T09:21:44.999Z</time></trkpt><trkpt lat="37.558917018120276" lon="13.126138328728672"><ele>272.0</ele><time>2026-04-18T09:21:45.999Z</time></trkpt><trkpt lat="37.558842124346036" lon="13.126304780052195"><ele>272.0</ele><time>2026-04-18T09:21:47Z</time></trkpt><trkpt lat="37.55877867965977" lon="13.126455126594882"><ele>272.0</ele><time>2026-04-18T09:21:48Z</time></trkpt><trkpt lat="37.55874914207421" lon="13.126604605360473"><ele>272.0</ele><time>2026-04-18T09:21:49Z</time></trkpt><trkpt lat="37.55875067809111" lon="13.126736890464615"><ele>272.0</ele><time>2026-04-18T09:21:50Z</time></trkpt><trkpt lat="37.55879034313558" lon="13.126870482370695"><ele>272.75</ele><time>2026-04-18T09:21:51Z</time></trkpt><trkpt lat="37.55885529362774" lon="13.127016487825816"><ele>273.5</ele><time>2026-04-18T09:21:52Z</time></trkpt><trkpt lat="37.558941983359205" lon="13.127175161070081"><ele>274.25</ele><time>2026-04-18T09:21:53Z</time></trkpt><trkpt lat="37.55903209535697" lon="13.127336796768429"><ele>275.0</ele><time>2026-04-18T09:21:54Z</time></trkpt><trkpt lat="37.55911136349848" lon="13.12749877066952"><ele>275.0</ele><time>2026-04-18T09:21:55Z</time></trkpt><trkpt lat="37.55917018896232" lon="13.12767247762441"><ele>275.0</ele><time>2026-04-18T09:21:56Z</time></trkpt><trkpt lat="37.559200253423036" lon="13.127863816141291"><ele>275.0</ele><time>2026-04-18T09:21:57Z</time></trkpt><trkpt lat="37.55921596718654" lon="13.128063919182072"><ele>275.0</ele><time>2026-04-18T09:21:58Z</time></trkpt><trkpt lat="37.559232102951285" lon="13.128264775965025"><ele>275.0</ele><time>2026-04-18T09:21:59Z</time></trkpt><trkpt lat="37.55925585913454" lon="13.128449567197855"><ele>275.0</ele><time>2026-04-18T09:22:00Z</time></trkpt><trkpt lat="37.55928715386087" lon="13.128608240107448"><ele>275.0</ele><time>2026-04-18T09:22:01Z</time></trkpt><trkpt lat="37.55933271441164" lon="13.128742276219446"><ele>275.0</ele><time>2026-04-18T09:22:02Z</time></trkpt><trkpt lat="37.55939739050588" lon="13.128846100993778"><ele>275.0</ele><time>2026-04-18T09:22:03Z</time></trkpt><trkpt lat="37.55948098664504" lon="13.128924723205273"><ele>275.0</ele><time>2026-04-18T09:22:04Z</time></trkpt><trkpt lat="37.559588935457754" lon="13.128967948221936"><ele>275.0</ele><time>2026-04-18T09:22:05Z</time></trkpt><trkpt lat="37.55971416099992" lon="13.128977385321353"><ele>275.0</ele><time>2026-04-18T09:22:06Z</time></trkpt><trkpt lat="37.559841913913225" lon="13.128958538754258"><ele>278.5</ele><time>2026-04-18T09:22:07Z</time></trkpt><trkpt lat="37.55997140723957" lon="13.128930573421036"><ele>282.0</ele><time>2026-04-18T09:22:08Z</time></trkpt><trkpt lat="37.56010892886081" lon="13.128902302691731"><ele>285.5</ele><time>2026-04-18T09:22:09Z</time></trkpt><trkpt lat="37.56024988824308" lon="13.128880603223148"><ele>289.0</ele><time>2026-04-18T09:22:10Z</time></trkpt><trkpt lat="37.560392872652294" lon="13.128863304292436"><ele>291.5</ele><time>2026-04-18T09:22:11Z</time></trkpt><trkpt lat="37.56053425165872" lon="13.12884787487319"><ele>294.0</ele><time>2026-04-18T09:22:12Z</time></trkpt><trkpt lat="37.560677511958104" lon="13.128823850031186"><ele>296.5</ele><time>2026-04-18T09:22:13Z</time></trkpt><trkpt lat="37.56081915537144" lon="13.12880045893955"><ele>299.0</ele><time>2026-04-18T09:22:14Z</time></trkpt><trkpt lat="37.560959490369726" lon="13.12877277247016"><ele>299.0</ele><time>2026-04-18T09:22:15Z</time></trkpt><trkpt lat="37.56109783249959" lon="13.128746196588052"><ele>299.0</ele><time>2026-04-18T09:22:16Z</time></trkpt><trkpt lat="37.56122918271026" lon="13.128723451295414"><ele>299.0</ele><time>2026-04-18T09:22:17Z</time></trkpt><trkpt lat="37.56135039481043" lon="13.128707361585095"><ele>299.0</ele><time>2026-04-18T09:22:18Z</time></trkpt><trkpt lat="37.56146432099031" lon="13.12869849003311"><ele>299.83333333333337</ele><time>2026-04-18T09:22:19Z</time></trkpt><trkpt lat="37.56156425896091" lon="13.128706206378443"><ele>300.6666666666667</ele><time>2026-04-18T09:22:20Z</time></trkpt><trkpt lat="37.56165092532482" lon="13.128731844435087"><ele>301.5</ele><time>2026-04-18T09:22:21Z</time></trkpt><trkpt lat="37.56171969678238" lon="13.128784109810802"><ele>302.3333333333333</ele><time>2026-04-18T09:22:22Z</time></trkpt><trkpt lat="37.561775298020926" lon="13.128864116100877"><ele>303.16666666666663</ele><time>2026-04-18T09:22:23Z</time></trkpt><trkpt lat="37.56182030300665" lon="13.128959841500425"><ele>304.0</ele><time>2026-04-18T09:22:24Z</time></trkpt><trkpt lat="37.561857444522865" lon="13.129065494257258"><ele>305.0</ele><time>2026-04-18T09:22:25Z</time></trkpt><trkpt lat="37.56190392300507" lon="13.129173436805532"><ele>306.0</ele><time>2026-04-18T09:22:26Z</time></trkpt><trkpt lat="37.56196699419108" lon="13.129270768700147"><ele>307.0</ele><time>2026-04-18T09:22:27Z</time></trkpt><trkpt lat="37.56205015897132" lon="13.129354950507514"><ele>308.0</ele><time>2026-04-18T09:22:28Z</time></trkpt><trkpt lat="37.562137494009164" lon="13.129434769030116"><ele>309.0</ele><time>2026-04-18T09:22:29Z</time></trkpt><trkpt lat="37.56223127156336" lon="13.129509024934016"><ele>309.0</ele><time>2026-04-18T09:22:30Z</time></trkpt><trkpt lat="37.562318207581214" lon="13.12958857009741"><ele>309.0</ele><time>2026-04-18T09:22:31Z</time></trkpt><trkpt lat="37.56240494141085" lon="13.129685566917187"><ele>309.0</ele><time>2026-04-18T09:22:32Z</time></trkpt><trkpt lat="37.56248407312329" lon="13.129798842677262"><ele>309.0</ele><time>2026-04-18T09:22:33Z</time></trkpt><trkpt lat="37.56255188472941" lon="13.129918335386082"><ele>309.8</ele><time>2026-04-18T09:22:34Z</time></trkpt><trkpt lat="37.56261804378496" lon="13.130037750739094"><ele>310.59999999999997</ele><time>2026-04-18T09:22:35Z</time></trkpt><trkpt lat="37.56268499345286" lon="13.130151387221105"><ele>311.4</ele><time>2026-04-18T09:22:36Z</time></trkpt><trkpt lat="37.5627558407867" lon="13.130257962812607"><ele>312.2</ele><time>2026-04-18T09:22:37Z</time></trkpt><trkpt lat="37.56283418815341" lon="13.130345629658079"><ele>313.0</ele><time>2026-04-18T09:22:38Z</time></trkpt><trkpt lat="37.56292600233277" lon="13.130406207722073"><ele>313.0</ele><time>2026-04-18T09:22:39Z</time></trkpt><trkpt lat="37.56302414693795" lon="13.130443784014835"><ele>313.0</ele><time>2026-04-18T09:22:40Z</time></trkpt><trkpt lat="37.56312712681828" lon="13.130465654095143"><ele>313.0</ele><time>2026-04-18T09:22:41Z</time></trkpt><trkpt lat="37.563240525147826" lon="13.130491970531427"><ele>313.0</ele><time>2026-04-18T09:22:42Z</time></trkpt><trkpt lat="37.56337050789455" lon="13.130517278286204"><ele>313.0</ele><time>2026-04-18T09:22:43Z</time></trkpt><trkpt lat="37.56350341794675" lon="13.130563825333304"><ele>313.0</ele><time>2026-04-18T09:22:44Z</time></trkpt><trkpt lat="37.56363076929702" lon="13.13067151753199"><ele>313.0</ele><time>2026-04-18T09:22:45Z</time></trkpt><trkpt lat="37.56376820182387" lon="13.130753238972602"><ele>313.0</ele><time>2026-04-18T09:22:46Z</time></trkpt><trkpt lat="37.563872960116285" lon="13.13082943688412"><ele>313.8</ele><time>2026-04-18T09:22:47Z</time></trkpt><trkpt lat="37.56393831308218" lon="13.1308995400624"><ele>314.6</ele><time>2026-04-18T09:22:48Z</time></trkpt><trkpt lat="37.56398628904355" lon="13.131006742978922"><ele>315.4</ele><time>2026-04-18T09:22:49Z</time></trkpt><trkpt lat="37.563998299331416" lon="13.131150911038306"><ele>316.2</ele><time>2026-04-18T09:22:50Z</time></trkpt><trkpt lat="37.564042890141906" lon="13.131267659874556"><ele>317.0</ele><time>2026-04-18T09:22:51Z</time></trkpt><trkpt lat="37.56409990411354" lon="13.131363727503992"><ele>317.0</ele><time>2026-04-18T09:22:52Z</time></trkpt><trkpt lat="37.56418187938396" lon="13.131427553758886"><ele>317.0</ele><time>2026-04-18T09:22:53Z</time></trkpt><trkpt lat="37.5642818706369" lon="13.131461769633713"><ele>317.0</ele><time>2026-04-18T09:22:54Z</time></trkpt><trkpt lat="37.56440132882424" lon="13.131461239756858"><ele>317.0</ele><time>2026-04-18T09:22:55Z</time></trkpt><trkpt lat="37.56452960768107" lon="13.131433256058667"><ele>318.4</ele><time>2026-04-18T09:22:56Z</time></trkpt><trkpt lat="37.56465389374167" lon="13.131401994960024"><ele>319.79999999999995</ele><time>2026-04-18T09:22:57Z</time></trkpt><trkpt lat="37.56476314340628" lon="13.1313930462801"><ele>321.2</ele><time>2026-04-18T09:22:58Z</time></trkpt><trkpt lat="37.56484548022459" lon="13.13142660531211"><ele>322.59999999999997</ele><time>2026-04-18T09:22:59Z</time></trkpt><trkpt lat="37.564901196528055" lon="13.131478311963715"><ele>324.0</ele><time>2026-04-18T09:23:00Z</time></trkpt><trkpt lat="37.564905481226745" lon="13.13160990245718"><ele>324.0</ele><time>2026-04-18T09:23:02Z</time></trkpt><trkpt lat="37.56487056842496" lon="13.131709529505155"><ele>324.0</ele><time>2026-04-18T09:23:03Z</time></trkpt><trkpt lat="37.56482337508565" lon="13.13181639339811"><ele>324.0</ele><time>2026-04-18T09:23:04Z</time></trkpt><trkpt lat="37.564773869619124" lon="13.131930510615291"><ele>324.0</ele><time>2026-04-18T09:23:05Z</time></trkpt><trkpt lat="37.56473052254586" lon="13.132051965457489"><ele>324.0</ele><time>2026-04-18T09:23:06Z</time></trkpt><trkpt lat="37.56468344487764" lon="13.13217318716147"><ele>324.0</ele><time>2026-04-18T09:23:07Z</time></trkpt><trkpt lat="37.56462146131355" lon="13.132289442912704"><ele>324.0</ele><time>2026-04-18T09:23:08Z</time></trkpt><trkpt lat="37.56456828405321" lon="13.132416683436402"><ele>324.0</ele><time>2026-04-18T09:23:09Z</time></trkpt><trkpt lat="37.56452866335442" lon="13.132551636019423"><ele>324.0</ele><time>2026-04-18T09:23:10Z</time></trkpt><trkpt lat="37.564469287470395" lon="13.132674921305675"><ele>323.0</ele><time>2026-04-18T09:23:11Z</time></trkpt><trkpt lat="37.564406327106475" lon="13.132794505410944"><ele>322.0</ele><time>2026-04-18T09:23:12Z</time></trkpt><trkpt lat="37.56434263826772" lon="13.132899636774301"><ele>321.0</ele><time>2026-04-18T09:23:13Z</time></trkpt><trkpt lat="37.564274590155904" lon="13.132994294299143"><ele>320.0</ele><time>2026-04-18T09:23:14Z</time></trkpt><trkpt lat="37.56421373143047" lon="13.133093381860641"><ele>319.0</ele><time>2026-04-18T09:23:15Z</time></trkpt><trkpt lat="37.56418214044439" lon="13.133204925111265"><ele>321.0</ele><time>2026-04-18T09:23:16Z</time></trkpt><trkpt lat="37.56416264729938" lon="13.133332839369627"><ele>323.0</ele><time>2026-04-18T09:23:17Z</time></trkpt><trkpt lat="37.56415708341061" lon="13.133467183623342"><ele>325.0</ele><time>2026-04-18T09:23:18Z</time></trkpt><trkpt lat="37.564166173810186" lon="13.13374404640423"><ele>327.0</ele><time>2026-04-18T09:23:20Z</time></trkpt><trkpt lat="37.5641503235492" lon="13.133890667557834"><ele>329.0</ele><time>2026-04-18T09:23:21Z</time></trkpt><trkpt lat="37.564164701389274" lon="13.134185481916033"><ele>331.0</ele><time>2026-04-18T09:23:23Z</time></trkpt><trkpt lat="37.564172916652346" lon="13.134339183437186"><ele>333.0</ele><time>2026-04-18T09:23:24Z</time></trkpt><trkpt lat="37.564190346693906" lon="13.134500784484338"><ele>333.0</ele><time>2026-04-18T09:23:25Z</time></trkpt><trkpt lat="37.564216680056646" lon="13.134663086169489"><ele>333.0</ele><time>2026-04-18T09:23:26Z</time></trkpt><trkpt lat="37.56425245099237" lon="13.134828913328661"><ele>333.0</ele><time>2026-04-18T09:23:27Z</time></trkpt><trkpt lat="37.56429392987658" lon="13.134991846672763"><ele>333.0</ele><time>2026-04-18T09:23:28Z</time></trkpt><trkpt lat="37.56433606602021" lon="13.13514557260717"><ele>333.0</ele><time>2026-04-18T09:23:29Z</time></trkpt><trkpt lat="37.56439528463745" lon="13.13528063617385"><ele>333.0</ele><time>2026-04-18T09:23:30Z</time></trkpt><trkpt lat="37.56447622831574" lon="13.135395592660517"><ele>333.0</ele><time>2026-04-18T09:23:31Z</time></trkpt><trkpt lat="37.56458427196307" lon="13.135495261107945"><ele>333.0</ele><time>2026-04-18T09:23:32Z</time></trkpt><trkpt lat="37.564706877460374" lon="13.135579593225147"><ele>336.0</ele><time>2026-04-18T09:23:33Z</time></trkpt><trkpt lat="37.56483810250764" lon="13.135663887699836"><ele>339.0</ele><time>2026-04-18T09:23:34Z</time></trkpt><trkpt lat="37.564976932017935" lon="13.135781303647823"><ele>342.0</ele><time>2026-04-18T09:23:35Z</time></trkpt><trkpt lat="37.56510985553568" lon="13.135929108063456"><ele>342.0</ele><time>2026-04-18T09:23:36Z</time></trkpt><trkpt lat="37.56524151157799" lon="13.136109536523119"><ele>342.0</ele><time>2026-04-18T09:23:37Z</time></trkpt><trkpt lat="37.56536544169023" lon="13.13629899980382"><ele>342.0</ele><time>2026-04-18T09:23:38Z</time></trkpt><trkpt lat="37.56547371861029" lon="13.136473381989708"><ele>344.0</ele><time>2026-04-18T09:23:39Z</time></trkpt><trkpt lat="37.565581147626084" lon="13.136628635675487"><ele>346.0</ele><time>2026-04-18T09:23:40Z</time></trkpt><trkpt lat="37.56569486839105" lon="13.136767811853629"><ele>348.0</ele><time>2026-04-18T09:23:41Z</time></trkpt><trkpt lat="37.56580893889403" lon="13.136892273640196"><ele>348.0</ele><time>2026-04-18T09:23:42Z</time></trkpt><trkpt lat="37.565919132323174" lon="13.1370021206592"><ele>348.0</ele><time>2026-04-18T09:23:43Z</time></trkpt><trkpt lat="37.56601630982962" lon="13.13710173692949"><ele>348.0</ele><time>2026-04-18T09:23:44Z</time></trkpt><trkpt lat="37.566105928951934" lon="13.137200229523232"><ele>348.0</ele><time>2026-04-18T09:23:45Z</time></trkpt><trkpt lat="37.56619323344926" lon="13.137301001948583"><ele>350.75</ele><time>2026-04-18T09:23:46Z</time></trkpt><trkpt lat="37.56627717191624" lon="13.137402046920693"><ele>353.5</ele><time>2026-04-18T09:23:47Z</time></trkpt><trkpt lat="37.5663606465722" lon="13.137502976599832"><ele>356.25</ele><time>2026-04-18T09:23:48Z</time></trkpt><trkpt lat="37.566438269693805" lon="13.137609270409683"><ele>359.0</ele><time>2026-04-18T09:23:49Z</time></trkpt><trkpt lat="37.56651448573238" lon="13.137719612161797"><ele>359.0</ele><time>2026-04-18T09:23:50Z</time></trkpt><trkpt lat="37.566589406026395" lon="13.137829617109071"><ele>359.0</ele><time>2026-04-18T09:23:51Z</time></trkpt><trkpt lat="37.566657310348695" lon="13.137945991237082"><ele>359.0</ele><time>2026-04-18T09:23:52Z</time></trkpt><trkpt lat="37.56671133795148" lon="13.13807225174587"><ele>359.0</ele><time>2026-04-18T09:23:53Z</time></trkpt><trkpt lat="37.566749525571986" lon="13.138209216694353"><ele>358.25</ele><time>2026-04-18T09:23:54Z</time></trkpt><trkpt lat="37.56677989102477" lon="13.138346088523155"><ele>357.5</ele><time>2026-04-18T09:23:55Z</time></trkpt><trkpt lat="37.566803106961125" lon="13.138489088227656"><ele>356.75</ele><time>2026-04-18T09:23:56Z</time></trkpt><trkpt lat="37.5668326725028" lon="13.138639980944607"><ele>356.0</ele><time>2026-04-18T09:23:57Z</time></trkpt><trkpt lat="37.56686660170381" lon="13.138796332327008"><ele>356.0</ele><time>2026-04-18T09:23:58Z</time></trkpt><trkpt lat="37.56689857345277" lon="13.138959523328838"><ele>356.0</ele><time>2026-04-18T09:23:59Z</time></trkpt><trkpt lat="37.56692920811681" lon="13.139133814692931"><ele>356.0</ele><time>2026-04-18T09:24:00Z</time></trkpt><trkpt lat="37.566957120166165" lon="13.139312433242763"><ele>356.0</ele><time>2026-04-18T09:24:01Z</time></trkpt><trkpt lat="37.56698093323579" lon="13.139500200764934"><ele>356.0</ele><time>2026-04-18T09:24:02Z</time></trkpt><trkpt lat="37.567002142715204" lon="13.139690233456102"><ele>356.0</ele><time>2026-04-18T09:24:03Z</time></trkpt><trkpt lat="37.567023789292236" lon="13.13987881944109"><ele>356.0</ele><time>2026-04-18T09:24:04Z</time></trkpt><trkpt lat="37.567043409406395" lon="13.140067997372311"><ele>372.33333333333337</ele><time>2026-04-18T09:24:05Z</time></trkpt><trkpt lat="37.567063492258974" lon="13.140266213502816"><ele>388.6666666666667</ele><time>2026-04-18T09:24:06Z</time></trkpt><trkpt lat="37.567080054957714" lon="13.140486071356667"><ele>405.0</ele><time>2026-04-18T09:24:07Z</time></trkpt><trkpt lat="37.56710724436096" lon="13.140684112481097"><ele>405.25</ele><time>2026-04-18T09:24:08Z</time></trkpt><trkpt lat="37.56713063787449" lon="13.140882670755717"><ele>405.5</ele><time>2026-04-18T09:24:09Z</time></trkpt><trkpt lat="37.56715194930119" lon="13.14105799024767"><ele>405.75</ele><time>2026-04-18T09:24:10Z</time></trkpt><trkpt lat="37.567172240091566" lon="13.141212754207286"><ele>406.0</ele><time>2026-04-18T09:24:11Z</time></trkpt><trkpt lat="37.567192470263" lon="13.141348015429914"><ele>406.0</ele><time>2026-04-18T09:24:12Z</time></trkpt><trkpt lat="37.56719438123833" lon="13.141486778241488"><ele>406.0</ele><time>2026-04-18T09:24:13Z</time></trkpt><trkpt lat="37.56717615551727" lon="13.14162161558163"><ele>406.0</ele><time>2026-04-18T09:24:14Z</time></trkpt><trkpt lat="37.56713517177754" lon="13.14174794731144"><ele>406.0</ele><time>2026-04-18T09:24:15Z</time></trkpt><trkpt lat="37.5670718164083" lon="13.141863677488963"><ele>406.0</ele><time>2026-04-18T09:24:16Z</time></trkpt><trkpt lat="37.56699410240853" lon="13.141974172044122"><ele>399.5</ele><time>2026-04-18T09:24:17Z</time></trkpt><trkpt lat="37.566913520149335" lon="13.14208792632852"><ele>393.0</ele><time>2026-04-18T09:24:18Z</time></trkpt><trkpt lat="37.56682373511079" lon="13.142199296393642"><ele>386.5</ele><time>2026-04-18T09:24:19Z</time></trkpt><trkpt lat="37.56672897210024" lon="13.142307717647322"><ele>380.0</ele><time>2026-04-18T09:24:20Z</time></trkpt><trkpt lat="37.56662886976168" lon="13.142417194616067"><ele>380.0</ele><time>2026-04-18T09:24:21Z</time></trkpt><trkpt lat="37.56653060876997" lon="13.142532813430547"><ele>380.0</ele><time>2026-04-18T09:24:22Z</time></trkpt><trkpt lat="37.56643058207391" lon="13.142647203277335"><ele>380.0</ele><time>2026-04-18T09:24:23Z</time></trkpt><trkpt lat="37.56631716209183" lon="13.14273562691011"><ele>380.0</ele><time>2026-04-18T09:24:24Z</time></trkpt><trkpt lat="37.56619663283348" lon="13.14281012429486"><ele>379.25</ele><time>2026-04-18T09:24:25Z</time></trkpt><trkpt lat="37.56607536890968" lon="13.142878666859037"><ele>378.5</ele><time>2026-04-18T09:24:26Z</time></trkpt><trkpt lat="37.565952938317544" lon="13.142946756633208"><ele>377.75</ele><time>2026-04-18T09:24:27Z</time></trkpt><trkpt lat="37.565824649996216" lon="13.142981159917449"><ele>377.0</ele><time>2026-04-18T09:24:28Z</time></trkpt><trkpt lat="37.565698134027244" lon="13.142980794016902"><ele>377.0</ele><time>2026-04-18T09:24:29Z</time></trkpt><trkpt lat="37.565588079766414" lon="13.142958239115849"><ele>377.0</ele><time>2026-04-18T09:24:30Z</time></trkpt><trkpt lat="37.56549827874649" lon="13.142944615253283"><ele>377.0</ele><time>2026-04-18T09:24:31Z</time></trkpt><trkpt lat="37.56541912504617" lon="13.142966048596506"><ele>377.0</ele><time>2026-04-18T09:24:32Z</time></trkpt><trkpt lat="37.56534552998427" lon="13.143037449568023"><ele>377.0</ele><time>2026-04-18T09:24:33Z</time></trkpt><trkpt lat="37.565274959226045" lon="13.143150263035817"><ele>379.0</ele><time>2026-04-18T09:24:34Z</time></trkpt><trkpt lat="37.565211449074376" lon="13.143302467203346"><ele>381.0</ele><time>2026-04-18T09:24:35Z</time></trkpt><trkpt lat="37.56513422254681" lon="13.143479319432492"><ele>383.0</ele><time>2026-04-18T09:24:36Z</time></trkpt><trkpt lat="37.5650504653822" lon="13.143648450415839"><ele>383.0</ele><time>2026-04-18T09:24:37Z</time></trkpt><trkpt lat="37.56497675022746" lon="13.143801066096248"><ele>383.0</ele><time>2026-04-18T09:24:38Z</time></trkpt><trkpt lat="37.56491619167511" lon="13.143945655039733"><ele>383.0</ele><time>2026-04-18T09:24:39Z</time></trkpt><trkpt lat="37.56489101921246" lon="13.144104891965572"><ele>383.0</ele><time>2026-04-18T09:24:40Z</time></trkpt><trkpt lat="37.56489062273927" lon="13.144240480763571"><ele>385.75</ele><time>2026-04-18T09:24:41Z</time></trkpt><trkpt lat="37.56492391910176" lon="13.144364388377792"><ele>388.5</ele><time>2026-04-18T09:24:42Z</time></trkpt><trkpt lat="37.56499174696946" lon="13.144492152279938"><ele>391.25</ele><time>2026-04-18T09:24:43Z</time></trkpt><trkpt lat="37.565087137816484" lon="13.144624156605744"><ele>394.0</ele><time>2026-04-18T09:24:44Z</time></trkpt><trkpt lat="37.565207949779136" lon="13.144765583634909"><ele>391.33333333333337</ele><time>2026-04-18T09:24:45Z</time></trkpt><trkpt lat="37.56533063407032" lon="13.144903779163073"><ele>388.66666666666663</ele><time>2026-04-18T09:24:46Z</time></trkpt><trkpt lat="37.56546376715134" lon="13.145062587125919"><ele>386.0</ele><time>2026-04-18T09:24:47Z</time></trkpt><trkpt lat="37.56558609229768" lon="13.145213170995959"><ele>389.0</ele><time>2026-04-18T09:24:48Z</time></trkpt><trkpt lat="37.56569939275236" lon="13.14536487918172"><ele>392.0</ele><time>2026-04-18T09:24:49Z</time></trkpt><trkpt lat="37.56580031891528" lon="13.145505330780331"><ele>395.0</ele><time>2026-04-18T09:24:50Z</time></trkpt><trkpt lat="37.565894644162746" lon="13.145624938830984"><ele>398.0</ele><time>2026-04-18T09:24:51Z</time></trkpt><trkpt lat="37.56598175637432" lon="13.1457380589963"><ele>397.99999999999994</ele><time>2026-04-18T09:24:52Z</time></trkpt><trkpt lat="37.56603873191271" lon="13.14584357139135"><ele>398.0</ele><time>2026-04-18T09:24:53Z</time></trkpt><trkpt lat="37.56606254455473" lon="13.1459378251808"><ele>398.0</ele><time>2026-04-18T09:24:54Z</time></trkpt><trkpt lat="37.566052137269516" lon="13.146023101770187"><ele>398.0</ele><time>2026-04-18T09:24:55Z</time></trkpt><trkpt lat="37.56601293103635" lon="13.14612375147663"><ele>397.99999999999994</ele><time>2026-04-18T09:24:56Z</time></trkpt><trkpt lat="37.56596375582449" lon="13.146227442916729"><ele>398.0</ele><time>2026-04-18T09:24:57Z</time></trkpt><trkpt lat="37.565942867679944" lon="13.146351885401714"><ele>398.0</ele><time>2026-04-18T09:24:58Z</time></trkpt><trkpt lat="37.56595204061749" lon="13.146518047048064"><ele>398.0</ele><time>2026-04-18T09:24:59Z</time></trkpt><trkpt lat="37.56598518997998" lon="13.14671549810688"><ele>398.0</ele><time>2026-04-18T09:25:00Z</time></trkpt><trkpt lat="37.56603361576505" lon="13.146911456264988"><ele>398.0</ele><time>2026-04-18T09:25:01Z</time></trkpt><trkpt lat="37.56608406919569" lon="13.14709435092818"><ele>398.0</ele><time>2026-04-18T09:25:02Z</time></trkpt><trkpt lat="37.566155530723805" lon="13.147258732559733"><ele>398.0</ele><time>2026-04-18T09:25:03Z</time></trkpt><trkpt lat="37.56625302921115" lon="13.147398464939617"><ele>402.5</ele><time>2026-04-18T09:25:04Z</time></trkpt><trkpt lat="37.5663687662989" lon="13.147516678777647"><ele>407.0</ele><time>2026-04-18T09:25:05Z</time></trkpt><trkpt lat="37.566478823092794" lon="13.147622087441153"><ele>411.5</ele><time>2026-04-18T09:25:06Z</time></trkpt><trkpt lat="37.56655438857505" lon="13.14773895416869"><ele>416.0</ele><time>2026-04-18T09:25:07Z</time></trkpt><trkpt lat="37.56659699376472" lon="13.147871358282984"><ele>416.0</ele><time>2026-04-18T09:25:08Z</time></trkpt><trkpt lat="37.566646906048156" lon="13.147998636834938"><ele>416.0</ele><time>2026-04-18T09:25:09Z</time></trkpt><trkpt lat="37.566738399182626" lon="13.148103929409361"><ele>416.0</ele><time>2026-04-18T09:25:10Z</time></trkpt><trkpt lat="37.566869093146494" lon="13.148209211822847"><ele>416.0</ele><time>2026-04-18T09:25:11Z</time></trkpt><trkpt lat="37.56701459424641" lon="13.148328520117383"><ele>420.3333333333333</ele><time>2026-04-18T09:25:12Z</time></trkpt><trkpt lat="37.56716515416981" lon="13.148452298162486"><ele>424.66666666666663</ele><time>2026-04-18T09:25:13Z</time></trkpt><trkpt lat="37.567301723172186" lon="13.148566784511841"><ele>429.0</ele><time>2026-04-18T09:25:14Z</time></trkpt><trkpt lat="37.56743873554872" lon="13.148657658480081"><ele>429.0</ele><time>2026-04-18T09:25:15Z</time></trkpt><trkpt lat="37.567577211538904" lon="13.148717319832338"><ele>429.0</ele><time>2026-04-18T09:25:16Z</time></trkpt><trkpt lat="37.567700748652136" lon="13.148758350807821"><ele>429.0</ele><time>2026-04-18T09:25:17Z</time></trkpt><trkpt lat="37.567796678907825" lon="13.14881668983892"><ele>429.0</ele><time>2026-04-18T09:25:18Z</time></trkpt><trkpt lat="37.567855088679245" lon="13.148895813369517"><ele>431.0</ele><time>2026-04-18T09:25:19Z</time></trkpt><trkpt lat="37.567888109601746" lon="13.148994366086862"><ele>433.0</ele><time>2026-04-18T09:25:20Z</time></trkpt><trkpt lat="37.56789599676232" lon="13.14912219652189"><ele>435.0</ele><time>2026-04-18T09:25:21Z</time></trkpt><trkpt lat="37.56786839631132" lon="13.149250291435411"><ele>437.0</ele><time>2026-04-18T09:25:22Z</time></trkpt><trkpt lat="37.567804231368505" lon="13.149359137187588"><ele>439.0</ele><time>2026-04-18T09:25:23Z</time></trkpt><trkpt lat="37.56773525584779" lon="13.149447652715692"><ele>437.0</ele><time>2026-04-18T09:25:24Z</time></trkpt><trkpt lat="37.56763154736546" lon="13.149536185721887"><ele>435.0</ele><time>2026-04-18T09:25:25Z</time></trkpt><trkpt lat="37.56752225804241" lon="13.149671080664291"><ele>433.0</ele><time>2026-04-18T09:25:26Z</time></trkpt><trkpt lat="37.56742492154328" lon="13.14984715484089"><ele>431.0</ele><time>2026-04-18T09:25:27Z</time></trkpt><trkpt lat="37.567308547609805" lon="13.150038054063932"><ele>431.0</ele><time>2026-04-18T09:25:28Z</time></trkpt><trkpt lat="37.567199897931765" lon="13.150219235648857"><ele>431.0</ele><time>2026-04-18T09:25:29Z</time></trkpt><trkpt lat="37.56711558858523" lon="13.150398356027956"><ele>431.0</ele><time>2026-04-18T09:25:30Z</time></trkpt><trkpt lat="37.567049128467666" lon="13.150569836243427"><ele>428.0</ele><time>2026-04-18T09:25:31Z</time></trkpt><trkpt lat="37.56700320463698" lon="13.150732121104014"><ele>425.0</ele><time>2026-04-18T09:25:32Z</time></trkpt><trkpt lat="37.5669765466887" lon="13.150897947727902"><ele>422.0</ele><time>2026-04-18T09:25:33Z</time></trkpt><trkpt lat="37.56697187247507" lon="13.151071693933643"><ele>419.0</ele><time>2026-04-18T09:25:34Z</time></trkpt><trkpt lat="37.56699221374291" lon="13.151247478084615"><ele>427.66666666666663</ele><time>2026-04-18T09:25:35Z</time></trkpt><trkpt lat="37.567040294744096" lon="13.15142665662358"><ele>436.33333333333337</ele><time>2026-04-18T09:25:36Z</time></trkpt><trkpt lat="37.56709503937982" lon="13.151615882372129"><ele>445.0</ele><time>2026-04-18T09:25:37Z</time></trkpt><trkpt lat="37.56713498268883" lon="13.151819233154422"><ele>446.0</ele><time>2026-04-18T09:25:38Z</time></trkpt><trkpt lat="37.567153673592905" lon="13.152030892692396"><ele>447.0</ele><time>2026-04-18T09:25:39Z</time></trkpt><trkpt lat="37.5671651797825" lon="13.152266928563282"><ele>448.0</ele><time>2026-04-18T09:25:40Z</time></trkpt><trkpt lat="37.56716454800071" lon="13.152465505128488"><ele>448.0</ele><time>2026-04-18T09:25:41Z</time></trkpt><trkpt lat="37.5671635078536" lon="13.152645417791867"><ele>448.0</ele><time>2026-04-18T09:25:42Z</time></trkpt><trkpt lat="37.56717187490702" lon="13.152802067989722"><ele>448.0</ele><time>2026-04-18T09:25:43Z</time></trkpt><trkpt lat="37.567203136995275" lon="13.152927921193163"><ele>448.0</ele><time>2026-04-18T09:25:44Z</time></trkpt><trkpt lat="37.567248664555756" lon="13.153034471940524"><ele>448.0</ele><time>2026-04-18T09:25:45Z</time></trkpt><trkpt lat="37.56734446715615" lon="13.153114497654862"><ele>447.99999999999994</ele><time>2026-04-18T09:25:46Z</time></trkpt><trkpt lat="37.56746856602862" lon="13.153129162464072"><ele>447.99999999999994</ele><time>2026-04-18T09:25:47Z</time></trkpt><trkpt lat="37.567567466795744" lon="13.153181708593918"><ele>448.0</ele><time>2026-04-18T09:25:48Z</time></trkpt><trkpt lat="37.56763298101325" lon="13.153276783353492"><ele>448.0</ele><time>2026-04-18T09:25:49Z</time></trkpt><trkpt lat="37.56765860089852" lon="13.153405974052916"><ele>446.0</ele><time>2026-04-18T09:25:50Z</time></trkpt><trkpt lat="37.567683215729005" lon="13.153581276133243"><ele>444.0</ele><time>2026-04-18T09:25:51Z</time></trkpt><trkpt lat="37.56771993669096" lon="13.153790296946358"><ele>442.0</ele><time>2026-04-18T09:25:52Z</time></trkpt><trkpt lat="37.56773950426273" lon="13.154003641449677"><ele>441.6666666666667</ele><time>2026-04-18T09:25:53Z</time></trkpt><trkpt lat="37.56777156847042" lon="13.154220135061543"><ele>441.33333333333337</ele><time>2026-04-18T09:25:54Z</time></trkpt><trkpt lat="37.56777148053042" lon="13.154414525312413"><ele>441.0</ele><time>2026-04-18T09:25:55Z</time></trkpt><trkpt lat="37.56778195377034" lon="13.15458400979596"><ele>441.0</ele><time>2026-04-18T09:25:56Z</time></trkpt><trkpt lat="37.56775430798249" lon="13.154738939673493"><ele>441.0</ele><time>2026-04-18T09:25:57Z</time></trkpt><trkpt lat="37.56770193835281" lon="13.15489641959709"><ele>441.0</ele><time>2026-04-18T09:25:58Z</time></trkpt><trkpt lat="37.56763285469261" lon="13.15505959729707"><ele>441.0</ele><time>2026-04-18T09:25:59Z</time></trkpt><trkpt lat="37.56755791545317" lon="13.155228853305196"><ele>443.25</ele><time>2026-04-18T09:26:00Z</time></trkpt><trkpt lat="37.56748270584254" lon="13.155393138345667"><ele>445.5</ele><time>2026-04-18T09:26:01Z</time></trkpt><trkpt lat="37.567407372876595" lon="13.155540210510885"><ele>447.75</ele><time>2026-04-18T09:26:02Z</time></trkpt><trkpt lat="37.56732611200879" lon="13.155650709642275"><ele>450.0</ele><time>2026-04-18T09:26:03Z</time></trkpt><trkpt lat="37.56723830243283" lon="13.15573188984534"><ele>449.6</ele><time>2026-04-18T09:26:04Z</time></trkpt><trkpt lat="37.56713739895235" lon="13.155795099609396"><ele>449.2</ele><time>2026-04-18T09:26:05Z</time></trkpt><trkpt lat="37.56704934038212" lon="13.15587071247225"><ele>448.79999999999995</ele><time>2026-04-18T09:26:06Z</time></trkpt><trkpt lat="37.56698992206975" lon="13.155976297440054"><ele>448.4</ele><time>2026-04-18T09:26:07Z</time></trkpt><trkpt lat="37.56696172117981" lon="13.156096705723602"><ele>448.0</ele><time>2026-04-18T09:26:08Z</time></trkpt><trkpt lat="37.566965854612846" lon="13.156221052218228"><ele>448.0</ele><time>2026-04-18T09:26:09Z</time></trkpt><trkpt lat="37.566983293026055" lon="13.156349668741921"><ele>447.99999999999994</ele><time>2026-04-18T09:26:10Z</time></trkpt><trkpt lat="37.567061197625485" lon="13.156446515916645"><ele>447.99999999999994</ele><time>2026-04-18T09:26:11Z</time></trkpt><trkpt lat="37.56714717798806" lon="13.156524244594936"><ele>448.0</ele><time>2026-04-18T09:26:12Z</time></trkpt><trkpt lat="37.5672574409176" lon="13.156567667965213"><ele>448.0</ele><time>2026-04-18T09:26:13Z</time></trkpt><trkpt lat="37.56738674695096" lon="13.156581275048856"><ele>452.0</ele><time>2026-04-18T09:26:14Z</time></trkpt><trkpt lat="37.56751983512026" lon="13.156571307921036"><ele>456.0</ele><time>2026-04-18T09:26:15Z</time></trkpt><trkpt lat="37.56766581777605" lon="13.156530320463885"><ele>460.0</ele><time>2026-04-18T09:26:16Z</time></trkpt><trkpt lat="37.5678242565704" lon="13.156450423979193"><ele>464.0</ele><time>2026-04-18T09:26:17Z</time></trkpt><trkpt lat="37.567996729022056" lon="13.156341799028937"><ele>468.0</ele><time>2026-04-18T09:26:18Z</time></trkpt><trkpt lat="37.56816931781048" lon="13.156219508024432"><ele>472.0</ele><time>2026-04-18T09:26:19Z</time></trkpt><trkpt lat="37.56832109644819" lon="13.15611827216837"><ele>472.0</ele><time>2026-04-18T09:26:20Z</time></trkpt><trkpt lat="37.56845619408015" lon="13.156033828929372"><ele>472.0</ele><time>2026-04-18T09:26:21Z</time></trkpt><trkpt lat="37.56856864894115" lon="13.155976307441344"><ele>472.0</ele><time>2026-04-18T09:26:22Z</time></trkpt><trkpt lat="37.56866522013927" lon="13.15595454139412"><ele>472.0</ele><time>2026-04-18T09:26:23Z</time></trkpt><trkpt lat="37.56875100285927" lon="13.155966216578193"><ele>473.75</ele><time>2026-04-18T09:26:24Z</time></trkpt><trkpt lat="37.568844743772566" lon="13.156019740464966"><ele>475.5</ele><time>2026-04-18T09:26:25Z</time></trkpt><trkpt lat="37.568959931177886" lon="13.156112881299618"><ele>477.25</ele><time>2026-04-18T09:26:26Z</time></trkpt><trkpt lat="37.5690945853441" lon="13.15623511756717"><ele>479.0</ele><time>2026-04-18T09:26:27Z</time></trkpt><trkpt lat="37.569233366556325" lon="13.156366577114923"><ele>479.0</ele><time>2026-04-18T09:26:28Z</time></trkpt><trkpt lat="37.56938639851096" lon="13.156506961708553"><ele>479.0</ele><time>2026-04-18T09:26:29Z</time></trkpt><trkpt lat="37.5695477898019" lon="13.156654375453165"><ele>479.0</ele><time>2026-04-18T09:26:30Z</time></trkpt><trkpt lat="37.569710445552474" lon="13.156803131519638"><ele>480.66666666666663</ele><time>2026-04-18T09:26:31Z</time></trkpt><trkpt lat="37.5698727509919" lon="13.156931855756321"><ele>482.33333333333337</ele><time>2026-04-18T09:26:32Z</time></trkpt><trkpt lat="37.57002770140264" lon="13.157059487276914"><ele>484.0</ele><time>2026-04-18T09:26:33Z</time></trkpt><trkpt lat="37.570191606269724" lon="13.157120945717262"><ele>484.0</ele><time>2026-04-18T09:26:34Z</time></trkpt><trkpt lat="37.57032689057792" lon="13.157212440659817"><ele>484.0</ele><time>2026-04-18T09:26:35Z</time></trkpt><trkpt lat="37.570436006544874" lon="13.157329268109995"><ele>484.0</ele><time>2026-04-18T09:26:36Z</time></trkpt><trkpt lat="37.57052772994072" lon="13.157475376433183"><ele>484.0</ele><time>2026-04-18T09:26:37Z</time></trkpt><trkpt lat="37.57060515102943" lon="13.157654699445082"><ele>485.0</ele><time>2026-04-18T09:26:38Z</time></trkpt><trkpt lat="37.57066572943184" lon="13.15786161549883"><ele>486.0</ele><time>2026-04-18T09:26:39Z</time></trkpt><trkpt lat="37.57070472878465" lon="13.158050201234534"><ele>487.0</ele><time>2026-04-18T09:26:40Z</time></trkpt><trkpt lat="37.57076999529302" lon="13.158221371871269"><ele>487.0</ele><time>2026-04-18T09:26:41Z</time></trkpt><trkpt lat="37.57085422618711" lon="13.158368884741254"><ele>487.0</ele><time>2026-04-18T09:26:42Z</time></trkpt><trkpt lat="37.57094792649279" lon="13.158495748827077"><ele>487.0</ele><time>2026-04-18T09:26:43Z</time></trkpt><trkpt lat="37.5710238701467" lon="13.158623875803679"><ele>487.0</ele><time>2026-04-18T09:26:44Z</time></trkpt><trkpt lat="37.57106790649665" lon="13.158760425564562"><ele>487.0</ele><time>2026-04-18T09:26:45Z</time></trkpt><trkpt lat="37.57108470034313" lon="13.158922793886951"><ele>487.0</ele><time>2026-04-18T09:26:46Z</time></trkpt><trkpt lat="37.57108880874143" lon="13.159104577406682"><ele>487.0</ele><time>2026-04-18T09:26:47Z</time></trkpt><trkpt lat="37.57111628531891" lon="13.159275403165095"><ele>487.0</ele><time>2026-04-18T09:26:48Z</time></trkpt><trkpt lat="37.571177779461415" lon="13.15947131112067"><ele>491.6666666666667</ele><time>2026-04-18T09:26:49Z</time></trkpt><trkpt lat="37.57124971194393" lon="13.159666180913906"><ele>496.33333333333337</ele><time>2026-04-18T09:26:50Z</time></trkpt><trkpt lat="37.57132887658799" lon="13.159832462393293"><ele>501.0</ele><time>2026-04-18T09:26:51Z</time></trkpt><trkpt lat="37.5714325178492" lon="13.159977353456929"><ele>501.0</ele><time>2026-04-18T09:26:52Z</time></trkpt><trkpt lat="37.57155198044408" lon="13.160096376922136"><ele>501.0</ele><time>2026-04-18T09:26:53Z</time></trkpt><trkpt lat="37.57165135200318" lon="13.160212665218204"><ele>501.0</ele><time>2026-04-18T09:26:54Z</time></trkpt><trkpt lat="37.57172527249545" lon="13.160354882727363"><ele>501.0</ele><time>2026-04-18T09:26:55Z</time></trkpt><trkpt lat="37.571780431551275" lon="13.160527988610703"><ele>498.0</ele><time>2026-04-18T09:26:56Z</time></trkpt><trkpt lat="37.5718342331087" lon="13.16073518305866"><ele>495.0</ele><time>2026-04-18T09:26:57Z</time></trkpt><trkpt lat="37.57190587866302" lon="13.160966062239497"><ele>492.0</ele><time>2026-04-18T09:26:58Z</time></trkpt><trkpt lat="37.57198194451401" lon="13.16120283178232"><ele>497.66666666666663</ele><time>2026-04-18T09:26:59Z</time></trkpt><trkpt lat="37.57204761795231" lon="13.161453296196374"><ele>503.3333333333333</ele><time>2026-04-18T09:27:00Z</time></trkpt><trkpt lat="37.57209158350453" lon="13.16166879133867"><ele>509.0</ele><time>2026-04-18T09:27:01Z</time></trkpt><trkpt lat="37.57211770152547" lon="13.161866548293565"><ele>509.0</ele><time>2026-04-18T09:27:02Z</time></trkpt><trkpt lat="37.57214373132684" lon="13.16202993239069"><ele>509.0</ele><time>2026-04-18T09:27:03Z</time></trkpt><trkpt lat="37.57219137111666" lon="13.162159077036463"><ele>509.0</ele><time>2026-04-18T09:27:04Z</time></trkpt><trkpt lat="37.57226556957375" lon="13.162251747455366"><ele>509.0</ele><time>2026-04-18T09:27:05Z</time></trkpt><trkpt lat="37.572369231194784" lon="13.16232368973116"><ele>507.75</ele><time>2026-04-18T09:27:06Z</time></trkpt><trkpt lat="37.57249562073966" lon="13.162386160144894"><ele>506.5</ele><time>2026-04-18T09:27:07Z</time></trkpt><trkpt lat="37.57262266424452" lon="13.162443173362641"><ele>505.25</ele><time>2026-04-18T09:27:08Z</time></trkpt><trkpt lat="37.5727518140572" lon="13.162499532620432"><ele>504.0</ele><time>2026-04-18T09:27:09Z</time></trkpt><trkpt lat="37.57289022482547" lon="13.162558737373631"><ele>506.5</ele><time>2026-04-18T09:27:10Z</time></trkpt><trkpt lat="37.573028999841334" lon="13.162623565255881"><ele>509.0</ele><time>2026-04-18T09:27:11Z</time></trkpt><trkpt lat="37.573163311885835" lon="13.162683832693336"><ele>511.5</ele><time>2026-04-18T09:27:12Z</time></trkpt><trkpt lat="37.573292775281544" lon="13.16274612423455"><ele>514.0</ele><time>2026-04-18T09:27:13Z</time></trkpt><trkpt lat="37.57341825775092" lon="13.162806669636776"><ele>514.0</ele><time>2026-04-18T09:27:14Z</time></trkpt><trkpt lat="37.573540366695326" lon="13.16286569688124"><ele>514.0</ele><time>2026-04-18T09:27:15Z</time></trkpt><trkpt lat="37.5736586779319" lon="13.162925107754996"><ele>514.0</ele><time>2026-04-18T09:27:16Z</time></trkpt><trkpt lat="37.57377260335277" lon="13.162980307543538"><ele>514.0</ele><time>2026-04-18T09:27:17Z</time></trkpt><trkpt lat="37.573894532641425" lon="13.163028711447645"><ele>514.5</ele><time>2026-04-18T09:27:18Z</time></trkpt><trkpt lat="37.5740148603645" lon="13.163074777925326"><ele>515.0</ele><time>2026-04-18T09:27:19.001Z</time></trkpt><trkpt lat="37.57412073924839" lon="13.16313989421141"><ele>515.5</ele><time>2026-04-18T09:27:20.001Z</time></trkpt><trkpt lat="37.57421339741426" lon="13.16322927314049"><ele>516.0</ele><time>2026-04-18T09:27:21.001Z</time></trkpt><trkpt lat="37.57429892605967" lon="13.163336669127991"><ele>516.0</ele><time>2026-04-18T09:27:22.001Z</time></trkpt><trkpt lat="37.57438436577722" lon="13.163467937327436"><ele>516.0</ele><time>2026-04-18T09:27:23.001Z</time></trkpt><trkpt lat="37.57447799421398" lon="13.163623276650034"><ele>516.0</ele><time>2026-04-18T09:27:24.001Z</time></trkpt><trkpt lat="37.57458409017529" lon="13.163808881271567"><ele>519.0</ele><time>2026-04-18T09:27:25.001Z</time></trkpt><trkpt lat="37.57468814892684" lon="13.163988516724514"><ele>522.0</ele><time>2026-04-18T09:27:26.001Z</time></trkpt><trkpt lat="37.574791930192376" lon="13.164161159258434"><ele>525.0</ele><time>2026-04-18T09:27:27.001Z</time></trkpt><trkpt lat="37.574895015206096" lon="13.164342348669244"><ele>525.0</ele><time>2026-04-18T09:27:28.001Z</time></trkpt><trkpt lat="37.57499815913519" lon="13.164520275840905"><ele>525.0</ele><time>2026-04-18T09:27:29.001Z</time></trkpt><trkpt lat="37.57509695559592" lon="13.164679891316688"><ele>525.0</ele><time>2026-04-18T09:27:30.001Z</time></trkpt><trkpt lat="37.5751886740024" lon="13.164823400487657"><ele>523.75</ele><time>2026-04-18T09:27:31.001Z</time></trkpt><trkpt lat="37.57528405153298" lon="13.16493753360914"><ele>522.5</ele><time>2026-04-18T09:27:32.001Z</time></trkpt><trkpt lat="37.57538675377535" lon="13.165025516775202"><ele>521.25</ele><time>2026-04-18T09:27:33.001Z</time></trkpt><trkpt lat="37.575507068724" lon="13.165086800152642"><ele>520.0</ele><time>2026-04-18T09:27:34.001Z</time></trkpt><trkpt lat="37.5756424056658" lon="13.16513751479385"><ele>523.25</ele><time>2026-04-18T09:27:35.001Z</time></trkpt><trkpt lat="37.575783196504794" lon="13.16517125607311"><ele>526.5</ele><time>2026-04-18T09:27:36.001Z</time></trkpt><trkpt lat="37.575914292990845" lon="13.165211641856086"><ele>529.75</ele><time>2026-04-18T09:27:37.001Z</time></trkpt><trkpt lat="37.57603241847461" lon="13.165262069768536"><ele>533.0</ele><time>2026-04-18T09:27:38.001Z</time></trkpt><trkpt lat="37.57613380184277" lon="13.16533079448386"><ele>538.0</ele><time>2026-04-18T09:27:39.001Z</time></trkpt><trkpt lat="37.57622060887218" lon="13.165423817664704"><ele>543.0</ele><time>2026-04-18T09:27:40.001Z</time></trkpt><trkpt lat="37.57629206810304" lon="13.165533136424902"><ele>548.0</ele><time>2026-04-18T09:27:41.001Z</time></trkpt><trkpt lat="37.57634710665288" lon="13.165665113185378"><ele>553.0</ele><time>2026-04-18T09:27:42Z</time></trkpt><trkpt lat="37.576390722170835" lon="13.165831188233467"><ele>553.3333333333334</ele><time>2026-04-18T09:27:43Z</time></trkpt><trkpt lat="37.57643891877887" lon="13.166011847635245"><ele>553.6666666666666</ele><time>2026-04-18T09:27:44Z</time></trkpt><trkpt lat="37.57649664982347" lon="13.166217393332042"><ele>554.0</ele><time>2026-04-18T09:27:45Z</time></trkpt><trkpt lat="37.57655934357628" lon="13.166416494698181"><ele>553.25</ele><time>2026-04-18T09:27:46Z</time></trkpt><trkpt lat="37.576607793573274" lon="13.16658525100439"><ele>552.5</ele><time>2026-04-18T09:27:47Z</time></trkpt><trkpt lat="37.576658404303245" lon="13.166738448967099"><ele>551.75</ele><time>2026-04-18T09:27:48Z</time></trkpt><trkpt lat="37.57670439842256" lon="13.166871381787203"><ele>551.0</ele><time>2026-04-18T09:27:49Z</time></trkpt><trkpt lat="37.576739220972605" lon="13.16698954793518"><ele>551.0</ele><time>2026-04-18T09:27:50Z</time></trkpt><trkpt lat="37.5767692356709" lon="13.167099760588222"><ele>551.0</ele><time>2026-04-18T09:27:51Z</time></trkpt><trkpt lat="37.57679837433791" lon="13.167200827534968"><ele>551.0</ele><time>2026-04-18T09:27:52Z</time></trkpt><trkpt lat="37.5768266247291" lon="13.167298831451749"><ele>551.0</ele><time>2026-04-18T09:27:53Z</time></trkpt><trkpt lat="37.576854059178544" lon="13.167398308630341"><ele>551.0</ele><time>2026-04-18T09:27:54Z</time></trkpt><trkpt lat="37.576883748991044" lon="13.16750436473898"><ele>551.0</ele><time>2026-04-18T09:27:55Z</time></trkpt><trkpt lat="37.57691807449336" lon="13.167617740301242"><ele>549.6</ele><time>2026-04-18T09:27:56Z</time></trkpt><trkpt lat="37.57695097360615" lon="13.167741936957036"><ele>548.2</ele><time>2026-04-18T09:27:57Z</time></trkpt><trkpt lat="37.576977248736235" lon="13.167878664108192"><ele>546.8</ele><time>2026-04-18T09:27:58Z</time></trkpt><trkpt lat="37.57701778941624" lon="13.167994899612173"><ele>545.4</ele><time>2026-04-18T09:27:59Z</time></trkpt><trkpt lat="37.57705245900301" lon="13.16812472552716"><ele>544.0</ele><time>2026-04-18T09:28:00Z</time></trkpt><trkpt lat="37.57709024789125" lon="13.168265968100028"><ele>547.2</ele><time>2026-04-18T09:28:01Z</time></trkpt><trkpt lat="37.57712360972507" lon="13.168406571752982"><ele>550.4</ele><time>2026-04-18T09:28:02Z</time></trkpt><trkpt lat="37.577157037150364" lon="13.168538522773"><ele>553.6</ele><time>2026-04-18T09:28:03Z</time></trkpt><trkpt lat="37.577194701008736" lon="13.168661920739785"><ele>556.8</ele><time>2026-04-18T09:28:04Z</time></trkpt><trkpt lat="37.577226862223625" lon="13.168782315188958"><ele>560.0</ele><time>2026-04-18T09:28:05Z</time></trkpt><trkpt lat="37.57727100018365" lon="13.168906011954038"><ele>558.25</ele><time>2026-04-18T09:28:06Z</time></trkpt><trkpt lat="37.577327879748715" lon="13.169030694796977"><ele>556.5</ele><time>2026-04-18T09:28:07Z</time></trkpt><trkpt lat="37.57739471352393" lon="13.169143515294135"><ele>554.75</ele><time>2026-04-18T09:28:08Z</time></trkpt><trkpt lat="37.57746894174808" lon="13.169248777620048"><ele>553.0</ele><time>2026-04-18T09:28:09Z</time></trkpt><trkpt lat="37.57755216769589" lon="13.1693489374594"><ele>553.0</ele><time>2026-04-18T09:28:10Z</time></trkpt><trkpt lat="37.57761891840077" lon="13.169439745111873"><ele>553.0</ele><time>2026-04-18T09:28:11Z</time></trkpt><trkpt lat="37.57767551789248" lon="13.16952388375489"><ele>553.0</ele><time>2026-04-18T09:28:12Z</time></trkpt><trkpt lat="37.577732703141606" lon="13.169621413104116"><ele>553.0</ele><time>2026-04-18T09:28:13Z</time></trkpt><trkpt lat="37.57776523181293" lon="13.169728132442648"><ele>553.0</ele><time>2026-04-18T09:28:14Z</time></trkpt><trkpt lat="37.57777177469392" lon="13.169836491411472"><ele>552.6</ele><time>2026-04-18T09:28:15Z</time></trkpt><trkpt lat="37.577753542011145" lon="13.169948111338693"><ele>552.1999999999999</ele><time>2026-04-18T09:28:16Z</time></trkpt><trkpt lat="37.57773589943833" lon="13.170059198262603"><ele>551.8</ele><time>2026-04-18T09:28:17Z</time></trkpt><trkpt lat="37.577745892365755" lon="13.170188129039696"><ele>551.4</ele><time>2026-04-18T09:28:18Z</time></trkpt><trkpt lat="37.577771679316086" lon="13.17030627272205"><ele>551.0</ele><time>2026-04-18T09:28:19Z</time></trkpt><trkpt lat="37.57780094431196" lon="13.170411031481065"><ele>551.0</ele><time>2026-04-18T09:28:20Z</time></trkpt><trkpt lat="37.57783642842325" lon="13.170531408168676"><ele>551.0</ele><time>2026-04-18T09:28:21Z</time></trkpt><trkpt lat="37.577875582486094" lon="13.170670374289186"><ele>551.0</ele><time>2026-04-18T09:28:22Z</time></trkpt><trkpt lat="37.57791352716738" lon="13.17080544082883"><ele>551.0</ele><time>2026-04-18T09:28:23Z</time></trkpt><trkpt lat="37.57794736078082" lon="13.170927981956703"><ele>551.0</ele><time>2026-04-18T09:28:24Z</time></trkpt><trkpt lat="37.577980589103085" lon="13.171042768984353"><ele>554.5</ele><time>2026-04-18T09:28:25Z</time></trkpt><trkpt lat="37.57801179423739" lon="13.171151126584768"><ele>558.0</ele><time>2026-04-18T09:28:26Z</time></trkpt><trkpt lat="37.57804058896165" lon="13.171252242538525"><ele>561.5</ele><time>2026-04-18T09:28:27Z</time></trkpt><trkpt lat="37.57807096438631" lon="13.171358850169625"><ele>565.0</ele><time>2026-04-18T09:28:28Z</time></trkpt><trkpt lat="37.57809717576243" lon="13.171463601196203"><ele>568.5</ele><time>2026-04-18T09:28:29Z</time></trkpt><trkpt lat="37.57809698563976" lon="13.171574990204276"><ele>572.0</ele><time>2026-04-18T09:28:30Z</time></trkpt><trkpt lat="37.578102116705594" lon="13.171680534099883"><ele>572.4</ele><time>2026-04-18T09:28:31Z</time></trkpt><trkpt lat="37.578078223010124" lon="13.17179397414855"><ele>572.8000000000001</ele><time>2026-04-18T09:28:32Z</time></trkpt><trkpt lat="37.57805166040144" lon="13.17191465687894"><ele>573.2</ele><time>2026-04-18T09:28:33Z</time></trkpt><trkpt lat="37.578027292932646" lon="13.172036284605975"><ele>573.6</ele><time>2026-04-18T09:28:34Z</time></trkpt><trkpt lat="37.57800291502977" lon="13.172165634567783"><ele>574.0</ele><time>2026-04-18T09:28:35Z</time></trkpt><trkpt lat="37.57798208412109" lon="13.172296634976227"><ele>575.6</ele><time>2026-04-18T09:28:36Z</time></trkpt><trkpt lat="37.577941005711835" lon="13.172422430418438"><ele>577.2</ele><time>2026-04-18T09:28:37Z</time></trkpt><trkpt lat="37.577932261597404" lon="13.172556867051938"><ele>578.8000000000001</ele><time>2026-04-18T09:28:38Z</time></trkpt><trkpt lat="37.57790621822531" lon="13.172684011206682"><ele>580.4</ele><time>2026-04-18T09:28:39Z</time></trkpt><trkpt lat="37.577884647660404" lon="13.172812244832272"><ele>582.0</ele><time>2026-04-18T09:28:40Z</time></trkpt><trkpt lat="37.57787696568857" lon="13.172945197256835"><ele>582.0</ele><time>2026-04-18T09:28:41Z</time></trkpt><trkpt lat="37.57787966243987" lon="13.173076667089202"><ele>582.0</ele><time>2026-04-18T09:28:42Z</time></trkpt><trkpt lat="37.577885493736176" lon="13.173208277884212"><ele>582.0</ele><time>2026-04-18T09:28:43Z</time></trkpt><trkpt lat="37.577889930428164" lon="13.173333402778772"><ele>582.0</ele><time>2026-04-18T09:28:44Z</time></trkpt><trkpt lat="37.57787874973115" lon="13.173451009135453"><ele>582.0</ele><time>2026-04-18T09:28:45Z</time></trkpt><trkpt lat="37.5778705449243" lon="13.173562743568851"><ele>583.6666666666666</ele><time>2026-04-18T09:28:46Z</time></trkpt><trkpt lat="37.57786438595851" lon="13.173659233032588"><ele>585.3333333333334</ele><time>2026-04-18T09:28:47Z</time></trkpt><trkpt lat="37.57785192174358" lon="13.173763204895206"><ele>587.0</ele><time>2026-04-18T09:28:48Z</time></trkpt><trkpt lat="37.57783791879481" lon="13.17385869000503"><ele>588.6666666666667</ele><time>2026-04-18T09:28:49Z</time></trkpt><trkpt lat="37.57782780282439" lon="13.173963383526145"><ele>590.3333333333334</ele><time>2026-04-18T09:28:50Z</time></trkpt><trkpt lat="37.57782236573812" lon="13.17408063894916"><ele>592.0</ele><time>2026-04-18T09:28:51Z</time></trkpt><trkpt lat="37.577823309098285" lon="13.174201170701545"><ele>592.8000000000001</ele><time>2026-04-18T09:28:52Z</time></trkpt><trkpt lat="37.577819690487985" lon="13.174325979879802"><ele>593.6</ele><time>2026-04-18T09:28:53Z</time></trkpt><trkpt lat="37.577825783361405" lon="13.174452781161579"><ele>594.4000000000001</ele><time>2026-04-18T09:28:54Z</time></trkpt><trkpt lat="37.57783597648315" lon="13.17457343308037"><ele>595.2</ele><time>2026-04-18T09:28:55Z</time></trkpt><trkpt lat="37.57785203687853" lon="13.174684316167312"><ele>596.0</ele><time>2026-04-18T09:28:56Z</time></trkpt><trkpt lat="37.57785472226341" lon="13.17478560191082"><ele>592.0</ele><time>2026-04-18T09:28:57Z</time></trkpt><trkpt lat="37.57783565030905" lon="13.17488167783712"><ele>588.0</ele><time>2026-04-18T09:28:58Z</time></trkpt><trkpt lat="37.57778705388959" lon="13.174962146058219"><ele>584.0</ele><time>2026-04-18T09:28:59Z</time></trkpt><trkpt lat="37.57773067570476" lon="13.175033355463901"><ele>580.0</ele><time>2026-04-18T09:29:00Z</time></trkpt><trkpt lat="37.577667211501875" lon="13.175118177103473"><ele>576.0</ele><time>2026-04-18T09:29:01Z</time></trkpt><trkpt lat="37.577616412570386" lon="13.175224213058103"><ele>572.0</ele><time>2026-04-18T09:29:02Z</time></trkpt><trkpt lat="37.57759082005683" lon="13.17534885191277"><ele>572.0</ele><time>2026-04-18T09:29:03Z</time></trkpt><trkpt lat="37.577584725335235" lon="13.1754819705518"><ele>572.0</ele><time>2026-04-18T09:29:04Z</time></trkpt><trkpt lat="37.57759308379273" lon="13.175612467898098"><ele>572.0</ele><time>2026-04-18T09:29:05Z</time></trkpt><trkpt lat="37.577609336932426" lon="13.175742324728482"><ele>572.0</ele><time>2026-04-18T09:29:06Z</time></trkpt><trkpt lat="37.5776359428114" lon="13.175872664171628"><ele>572.0</ele><time>2026-04-18T09:29:07Z</time></trkpt><trkpt lat="37.577678723096184" lon="13.175996560964075"><ele>573.0</ele><time>2026-04-18T09:29:08Z</time></trkpt><trkpt lat="37.57773512629687" lon="13.176114607377105"><ele>574.0</ele><time>2026-04-18T09:29:09Z</time></trkpt><trkpt lat="37.57780025864144" lon="13.176224816872093"><ele>575.0</ele><time>2026-04-18T09:29:10Z</time></trkpt><trkpt lat="37.577862811789686" lon="13.176316758964845"><ele>576.0</ele><time>2026-04-18T09:29:11Z</time></trkpt><trkpt lat="37.57791833766006" lon="13.176392929103399"><ele>577.0</ele><time>2026-04-18T09:29:12Z</time></trkpt><trkpt lat="37.57798002964961" lon="13.17646612546538"><ele>579.6</ele><time>2026-04-18T09:29:13Z</time></trkpt><trkpt lat="37.5780339166587" lon="13.17654675559046"><ele>582.2</ele><time>2026-04-18T09:29:14Z</time></trkpt><trkpt lat="37.578059225221416" lon="13.176643993360267"><ele>584.8</ele><time>2026-04-18T09:29:15Z</time></trkpt><trkpt lat="37.57806305485296" lon="13.176755194343208"><ele>587.4</ele><time>2026-04-18T09:29:16Z</time></trkpt><trkpt lat="37.57804298351183" lon="13.176876539269937"><ele>590.0</ele><time>2026-04-18T09:29:17Z</time></trkpt><trkpt lat="37.5779930663084" lon="13.177001887073038"><ele>590.0</ele><time>2026-04-18T09:29:18Z</time></trkpt><trkpt lat="37.57790641558904" lon="13.17710127540913"><ele>590.0</ele><time>2026-04-18T09:29:19Z</time></trkpt><trkpt lat="37.577818385837965" lon="13.177194906214487"><ele>590.0</ele><time>2026-04-18T09:29:20Z</time></trkpt><trkpt lat="37.57772911606616" lon="13.177282876305684"><ele>590.0</ele><time>2026-04-18T09:29:21Z</time></trkpt><trkpt lat="37.577627528997155" lon="13.177343057446505"><ele>591.4</ele><time>2026-04-18T09:29:22Z</time></trkpt><trkpt lat="37.57752915313511" lon="13.177368594859248"><ele>592.8</ele><time>2026-04-18T09:29:23Z</time></trkpt><trkpt lat="37.57743942721332" lon="13.177379586901163"><ele>594.2</ele><time>2026-04-18T09:29:24Z</time></trkpt><trkpt lat="37.57734849911583" lon="13.177401741616016"><ele>595.6</ele><time>2026-04-18T09:29:24.999Z</time></trkpt><trkpt lat="37.57726273165773" lon="13.177411193296939"><ele>597.0</ele><time>2026-04-18T09:29:25.999Z</time></trkpt><trkpt lat="37.57718995417706" lon="13.17745715534156"><ele>597.0</ele><time>2026-04-18T09:29:26.999Z</time></trkpt><trkpt lat="37.5771341090724" lon="13.177536084332475"><ele>597.0</ele><time>2026-04-18T09:29:27.999Z</time></trkpt><trkpt lat="37.577103356627205" lon="13.177634432183561"><ele>597.0</ele><time>2026-04-18T09:29:28.999Z</time></trkpt><trkpt lat="37.577083947072325" lon="13.17774672205273"><ele>597.0</ele><time>2026-04-18T09:29:29.999Z</time></trkpt><trkpt lat="37.57707108403541" lon="13.177864938065952"><ele>597.0</ele><time>2026-04-18T09:29:30.999Z</time></trkpt><trkpt lat="37.57704266767481" lon="13.177983064236342"><ele>597.0</ele><time>2026-04-18T09:29:31.999Z</time></trkpt><trkpt lat="37.577029534312075" lon="13.17810180872375"><ele>597.0</ele><time>2026-04-18T09:29:32.999Z</time></trkpt><trkpt lat="37.57703206621974" lon="13.178220335676091"><ele>597.0</ele><time>2026-04-18T09:29:33.999Z</time></trkpt><trkpt lat="37.57701306646558" lon="13.178310097987342"><ele>597.0</ele><time>2026-04-18T09:29:34.999Z</time></trkpt><trkpt lat="37.576994708707794" lon="13.17839524608844"><ele>597.0</ele><time>2026-04-18T09:29:35.999Z</time></trkpt><trkpt lat="37.57696511742169" lon="13.178476386647777"><ele>597.0</ele><time>2026-04-18T09:29:36.999Z</time></trkpt><trkpt lat="37.57691344157116" lon="13.178538351729753"><ele>598.1666666666666</ele><time>2026-04-18T09:29:37.999Z</time></trkpt><trkpt lat="37.576845409328335" lon="13.178562733332026"><ele>599.3333333333334</ele><time>2026-04-18T09:29:38.999Z</time></trkpt><trkpt lat="37.57678767293684" lon="13.178528028114021"><ele>600.5</ele><time>2026-04-18T09:29:40Z</time></trkpt><trkpt lat="37.57671579701496" lon="13.178465597317048"><ele>601.6666666666667</ele><time>2026-04-18T09:29:42Z</time></trkpt><trkpt lat="37.576651345727846" lon="13.178415306109642"><ele>602.8333333333334</ele><time>2026-04-18T09:29:44Z</time></trkpt><trkpt lat="37.57654694400184" lon="13.17835397359508"><ele>604.0</ele><time>2026-04-18T09:29:46Z</time></trkpt><trkpt lat="37.57649351526979" lon="13.17830999282073"><ele>604.0000000000001</ele><time>2026-04-18T09:29:47Z</time></trkpt><trkpt lat="37.57643813391468" lon="13.178271402046525"><ele>604.0</ele><time>2026-04-18T09:29:48Z</time></trkpt><trkpt lat="37.576384792981116" lon="13.178226281495766"><ele>604.0</ele><time>2026-04-18T09:29:49Z</time></trkpt><trkpt lat="37.576324470651485" lon="13.178185907182288"><ele>604.0</ele><time>2026-04-18T09:29:50Z</time></trkpt><trkpt lat="37.57626207421082" lon="13.17813810431252"><ele>604.0</ele><time>2026-04-18T09:29:51Z</time></trkpt><trkpt lat="37.576197872609214" lon="13.178089671731609"><ele>604.0000000000001</ele><time>2026-04-18T09:29:52Z</time></trkpt><trkpt lat="37.57612261796133" lon="13.178042310136378"><ele>604.0</ele><time>2026-04-18T09:29:53Z</time></trkpt><trkpt lat="37.57602329721527" lon="13.177999581795753"><ele>604.0</ele><time>2026-04-18T09:29:54Z</time></trkpt><trkpt lat="37.575882350624596" lon="13.177973322060264"><ele>604.0</ele><time>2026-04-18T09:29:55Z</time></trkpt><trkpt lat="37.575716488022685" lon="13.177966705020667"><ele>604.0</ele><time>2026-04-18T09:29:56Z</time></trkpt><trkpt lat="37.575562284205105" lon="13.177960995497951"><ele>604.0</ele><time>2026-04-18T09:29:57Z</time></trkpt><trkpt lat="37.575438115798605" lon="13.17793041694148"><ele>604.0</ele><time>2026-04-18T09:29:58Z</time></trkpt><trkpt lat="37.57534474276754" lon="13.177855061756647"><ele>604.0</ele><time>2026-04-18T09:29:59Z</time></trkpt><trkpt lat="37.575300999181074" lon="13.177732767162096"><ele>604.0</ele><time>2026-04-18T09:30:00Z</time></trkpt><trkpt lat="37.57525102647425" lon="13.17764182764159"><ele>604.0</ele><time>2026-04-18T09:30:01Z</time></trkpt><trkpt lat="37.57518791582923" lon="13.177597057165551"><ele>604.0</ele><time>2026-04-18T09:30:02Z</time></trkpt><trkpt lat="37.575121301995964" lon="13.177595476408083"><ele>604.0</ele><time>2026-04-18T09:30:03Z</time></trkpt><trkpt lat="37.575059584032644" lon="13.177621422316623"><ele>604.0</ele><time>2026-04-18T09:30:04Z</time></trkpt><trkpt lat="37.575042299679275" lon="13.177728663741064"><ele>604.0</ele><time>2026-04-18T09:30:05Z</time></trkpt><trkpt lat="37.575063733373554" lon="13.177817049764506"><ele>604.0</ele><time>2026-04-18T09:30:06Z</time></trkpt><trkpt lat="37.575143075129" lon="13.177926715233278"><ele>604.0</ele><time>2026-04-18T09:30:07Z</time></trkpt><trkpt lat="37.575246172650694" lon="13.178058975353624"><ele>605.4</ele><time>2026-04-18T09:30:08Z</time></trkpt><trkpt lat="37.57534866925324" lon="13.178186279719418"><ele>606.8</ele><time>2026-04-18T09:30:09Z</time></trkpt><trkpt lat="37.575434502053604" lon="13.178277840223778"><ele>608.2</ele><time>2026-04-18T09:30:10Z</time></trkpt><trkpt lat="37.57551011718909" lon="13.178342646195652"><ele>609.6</ele><time>2026-04-18T09:30:11Z</time></trkpt><trkpt lat="37.575569758335405" lon="13.178407769805352"><ele>611.0</ele><time>2026-04-18T09:30:12Z</time></trkpt><trkpt lat="37.5756408700027" lon="13.178476746048567"><ele>611.0</ele><time>2026-04-18T09:30:13Z</time></trkpt><trkpt lat="37.575710191811" lon="13.178562520519485"><ele>611.0</ele><time>2026-04-18T09:30:14Z</time></trkpt><trkpt lat="37.57576844477736" lon="13.178672698539923"><ele>611.0</ele><time>2026-04-18T09:30:15Z</time></trkpt><trkpt lat="37.57579086151568" lon="13.178822213780403"><ele>611.0</ele><time>2026-04-18T09:30:16Z</time></trkpt><trkpt lat="37.57583037811249" lon="13.178984446831727"><ele>613.5</ele><time>2026-04-18T09:30:17Z</time></trkpt><trkpt lat="37.5758423590082" lon="13.179139079367985"><ele>616.0</ele><time>2026-04-18T09:30:18Z</time></trkpt><trkpt lat="37.57585009102638" lon="13.17928827556403"><ele>618.5</ele><time>2026-04-18T09:30:19Z</time></trkpt><trkpt lat="37.575861884878265" lon="13.179429423688644"><ele>621.0</ele><time>2026-04-18T09:30:20Z</time></trkpt><trkpt lat="37.57587857460513" lon="13.179557812858683"><ele>621.0</ele><time>2026-04-18T09:30:21Z</time></trkpt><trkpt lat="37.57589001771857" lon="13.179686965914566"><ele>621.0</ele><time>2026-04-18T09:30:22Z</time></trkpt><trkpt lat="37.57589394978208" lon="13.179816905259095"><ele>621.0</ele><time>2026-04-18T09:30:23Z</time></trkpt><trkpt lat="37.57586849714943" lon="13.179938016787512"><ele>621.0</ele><time>2026-04-18T09:30:24Z</time></trkpt><trkpt lat="37.57578539378873" lon="13.18006680951622"><ele>621.0</ele><time>2026-04-18T09:30:25Z</time></trkpt><trkpt lat="37.575681089938996" lon="13.180218266816732"><ele>621.6666666666666</ele><time>2026-04-18T09:30:26Z</time></trkpt><trkpt lat="37.57557698592851" lon="13.180413874208243"><ele>622.3333333333333</ele><time>2026-04-18T09:30:27Z</time></trkpt><trkpt lat="37.57546579530901" lon="13.180617243777448"><ele>623.0</ele><time>2026-04-18T09:30:28Z</time></trkpt><trkpt lat="37.57534960855346" lon="13.180852366756923"><ele>626.6666666666666</ele><time>2026-04-18T09:30:29Z</time></trkpt><trkpt lat="37.57520053513539" lon="13.181078107757529"><ele>630.3333333333334</ele><time>2026-04-18T09:30:30Z</time></trkpt><trkpt lat="37.575078109865174" lon="13.181296676731101"><ele>634.0</ele><time>2026-04-18T09:30:31Z</time></trkpt><trkpt lat="37.5749602417643" lon="13.181471492487564"><ele>633.5</ele><time>2026-04-18T09:30:32Z</time></trkpt><trkpt lat="37.57486310812663" lon="13.181627389749082"><ele>633.0</ele><time>2026-04-18T09:30:33Z</time></trkpt><trkpt lat="37.57479388389208" lon="13.181780873393725"><ele>632.5</ele><time>2026-04-18T09:30:34Z</time></trkpt><trkpt lat="37.57476001920127" lon="13.181947193756184"><ele>632.0</ele><time>2026-04-18T09:30:35Z</time></trkpt><trkpt lat="37.57475049944088" lon="13.182146002247338"><ele>633.0</ele><time>2026-04-18T09:30:36Z</time></trkpt><trkpt lat="37.5747557673879" lon="13.182385311927183"><ele>634.0</ele><time>2026-04-18T09:30:37Z</time></trkpt><trkpt lat="37.57476515906935" lon="13.1826298432764"><ele>635.0</ele><time>2026-04-18T09:30:38Z</time></trkpt><trkpt lat="37.574761053604604" lon="13.182834357003864"><ele>635.0</ele><time>2026-04-18T09:30:39Z</time></trkpt><trkpt lat="37.57476555536724" lon="13.182995906939444"><ele>635.0</ele><time>2026-04-18T09:30:40Z</time></trkpt><trkpt lat="37.57480316334459" lon="13.183119002845283"><ele>635.0</ele><time>2026-04-18T09:30:41Z</time></trkpt><trkpt lat="37.574869360094" lon="13.183216364654939"><ele>635.0</ele><time>2026-04-18T09:30:42Z</time></trkpt><trkpt lat="37.57497229562689" lon="13.183304551531254"><ele>636.3333333333333</ele><time>2026-04-18T09:30:43Z</time></trkpt><trkpt lat="37.575099228544524" lon="13.183384441699431"><ele>637.6666666666666</ele><time>2026-04-18T09:30:44Z</time></trkpt><trkpt lat="37.57523032863827" lon="13.183500519430696"><ele>639.0</ele><time>2026-04-18T09:30:45Z</time></trkpt><trkpt lat="37.57535779099214" lon="13.183667244803235"><ele>639.0</ele><time>2026-04-18T09:30:46Z</time></trkpt><trkpt lat="37.57549027667649" lon="13.183858098871998"><ele>639.0</ele><time>2026-04-18T09:30:47Z</time></trkpt><trkpt lat="37.57561392984605" lon="13.18403071968302"><ele>639.0</ele><time>2026-04-18T09:30:48Z</time></trkpt><trkpt lat="37.57573121202725" lon="13.184168549501237"><ele>640.4</ele><time>2026-04-18T09:30:49Z</time></trkpt><trkpt lat="37.57581819055164" lon="13.18428307351408"><ele>641.8</ele><time>2026-04-18T09:30:50Z</time></trkpt><trkpt lat="37.57587135469345" lon="13.18438484760943"><ele>643.1999999999999</ele><time>2026-04-18T09:30:51Z</time></trkpt><trkpt lat="37.5758956906345" lon="13.184500542967802"><ele>644.5999999999999</ele><time>2026-04-18T09:30:52Z</time></trkpt><trkpt lat="37.57589443288334" lon="13.18464673744408"><ele>646.0</ele><time>2026-04-18T09:30:53Z</time></trkpt><trkpt lat="37.57583249144651" lon="13.184811768191512"><ele>647.6666666666667</ele><time>2026-04-18T09:30:54Z</time></trkpt><trkpt lat="37.57578065542575" lon="13.185039152149411"><ele>649.3333333333334</ele><time>2026-04-18T09:30:55Z</time></trkpt><trkpt lat="37.57573562599521" lon="13.185258154617841"><ele>651.0</ele><time>2026-04-18T09:30:56Z</time></trkpt><trkpt lat="37.57569134609729" lon="13.185446736455518"><ele>651.0</ele><time>2026-04-18T09:30:57Z</time></trkpt><trkpt lat="37.575672813973874" lon="13.185625441399376"><ele>651.0</ele><time>2026-04-18T09:30:58Z</time></trkpt><trkpt lat="37.57568304254636" lon="13.185841272642891"><ele>651.0</ele><time>2026-04-18T09:30:59Z</time></trkpt><trkpt lat="37.57571176686221" lon="13.186057429998748"><ele>652.3333333333334</ele><time>2026-04-18T09:31:00Z</time></trkpt><trkpt lat="37.575725216243484" lon="13.186270198109558"><ele>653.6666666666667</ele><time>2026-04-18T09:31:01Z</time></trkpt><trkpt lat="37.57570754213021" lon="13.186470797755202"><ele>655.0</ele><time>2026-04-18T09:31:02Z</time></trkpt><trkpt lat="37.57564132643877" lon="13.18666137576264"><ele>656.25</ele><time>2026-04-18T09:31:03Z</time></trkpt><trkpt lat="37.575603186918364" lon="13.186865577890538"><ele>657.5</ele><time>2026-04-18T09:31:04Z</time></trkpt><trkpt lat="37.575548499344485" lon="13.187026024313731"><ele>658.75</ele><time>2026-04-18T09:31:05Z</time></trkpt><trkpt lat="37.57547520706234" lon="13.187151860839727"><ele>660.0</ele><time>2026-04-18T09:31:06Z</time></trkpt><trkpt lat="37.5753668968425" lon="13.18726120487183"><ele>656.75</ele><time>2026-04-18T09:31:07Z</time></trkpt><trkpt lat="37.57524101102387" lon="13.187367613532661"><ele>653.5</ele><time>2026-04-18T09:31:08Z</time></trkpt><trkpt lat="37.575139317220305" lon="13.187497696920975"><ele>650.25</ele><time>2026-04-18T09:31:09Z</time></trkpt><trkpt lat="37.575064910865336" lon="13.187655132325503"><ele>647.0</ele><time>2026-04-18T09:31:10Z</time></trkpt><trkpt lat="37.57501045525018" lon="13.187848349541209"><ele>647.0</ele><time>2026-04-18T09:31:11Z</time></trkpt><trkpt lat="37.57496021790853" lon="13.188087446665174"><ele>647.0</ele><time>2026-04-18T09:31:12Z</time></trkpt><trkpt lat="37.57490518818903" lon="13.188339977196573"><ele>647.0</ele><time>2026-04-18T09:31:13Z</time></trkpt><trkpt lat="37.574861277273826" lon="13.188547149695689"><ele>650.0</ele><time>2026-04-18T09:31:14Z</time></trkpt><trkpt lat="37.57481554413909" lon="13.18872853857379"><ele>653.0</ele><time>2026-04-18T09:31:15Z</time></trkpt><trkpt lat="37.57476315851857" lon="13.188871522244918"><ele>656.0</ele><time>2026-04-18T09:31:16Z</time></trkpt><trkpt lat="37.57468285768727" lon="13.188960565584363"><ele>659.0</ele><time>2026-04-18T09:31:17Z</time></trkpt><trkpt lat="37.574597280304445" lon="13.189018033206896"><ele>656.5</ele><time>2026-04-18T09:31:18Z</time></trkpt><trkpt lat="37.5745051586141" lon="13.189102132214884"><ele>654.0</ele><time>2026-04-18T09:31:19Z</time></trkpt><trkpt lat="37.57439786455085" lon="13.189215787967612"><ele>651.5</ele><time>2026-04-18T09:31:20Z</time></trkpt><trkpt lat="37.574278004081634" lon="13.189362206170044"><ele>649.0</ele><time>2026-04-18T09:31:21Z</time></trkpt><trkpt lat="37.57415813660645" lon="13.189539281023892"><ele>649.0</ele><time>2026-04-18T09:31:22Z</time></trkpt><trkpt lat="37.57404259215273" lon="13.18974652196692"><ele>649.0</ele><time>2026-04-18T09:31:23Z</time></trkpt><trkpt lat="37.57393098741381" lon="13.189974097847273"><ele>649.0</ele><time>2026-04-18T09:31:24Z</time></trkpt><trkpt lat="37.57383577993241" lon="13.190204646309168"><ele>648.3333333333334</ele><time>2026-04-18T09:31:25Z</time></trkpt><trkpt lat="37.57376576312306" lon="13.190417712019082"><ele>647.6666666666666</ele><time>2026-04-18T09:31:26Z</time></trkpt><trkpt lat="37.57370831413887" lon="13.190620927176631"><ele>647.0</ele><time>2026-04-18T09:31:27Z</time></trkpt><trkpt lat="37.57365305017367" lon="13.190811505719848"><ele>647.0</ele><time>2026-04-18T09:31:28Z</time></trkpt><trkpt lat="37.573600259166696" lon="13.190976623966423"><ele>647.0</ele><time>2026-04-18T09:31:29Z</time></trkpt><trkpt lat="37.573549884665276" lon="13.19113045580088"><ele>647.0</ele><time>2026-04-18T09:31:30Z</time></trkpt><trkpt lat="37.57349619745088" lon="13.191272204035391"><ele>647.0</ele><time>2026-04-18T09:31:31Z</time></trkpt><trkpt lat="37.57345819340796" lon="13.191405382134787"><ele>647.0</ele><time>2026-04-18T09:31:32Z</time></trkpt><trkpt lat="37.57340602824762" lon="13.191493312440292"><ele>647.0</ele><time>2026-04-18T09:31:33Z</time></trkpt><trkpt lat="37.573346525289715" lon="13.191564592997933"><ele>647.0</ele><time>2026-04-18T09:31:34Z</time></trkpt><trkpt lat="37.57324105482556" lon="13.191604615962712"><ele>647.0</ele><time>2026-04-18T09:31:35Z</time></trkpt><trkpt lat="37.57311838340587" lon="13.191615315061423"><ele>647.0</ele><time>2026-04-18T09:31:36Z</time></trkpt><trkpt lat="37.572971619911186" lon="13.191593171157022"><ele>644.3333333333333</ele><time>2026-04-18T09:31:37Z</time></trkpt><trkpt lat="37.57282757877468" lon="13.191548376834735"><ele>641.6666666666666</ele><time>2026-04-18T09:31:38Z</time></trkpt><trkpt lat="37.57266299669165" lon="13.191487594890498"><ele>639.0</ele><time>2026-04-18T09:31:39Z</time></trkpt><trkpt lat="37.572524709461895" lon="13.19142111742562"><ele>639.0</ele><time>2026-04-18T09:31:40Z</time></trkpt><trkpt lat="37.572407744120326" lon="13.191382736203607"><ele>639.0</ele><time>2026-04-18T09:31:41Z</time></trkpt><trkpt lat="37.57230130650553" lon="13.19138486274333"><ele>639.0</ele><time>2026-04-18T09:31:42Z</time></trkpt><trkpt lat="37.57221120912016" lon="13.191431884896328"><ele>639.0</ele><time>2026-04-18T09:31:43Z</time></trkpt><trkpt lat="37.57213031916365" lon="13.191518765050501"><ele>639.0</ele><time>2026-04-18T09:31:44Z</time></trkpt><trkpt lat="37.57207176915674" lon="13.191639966408164"><ele>642.0</ele><time>2026-04-18T09:31:45Z</time></trkpt><trkpt lat="37.57203213061173" lon="13.191793723409466"><ele>645.0</ele><time>2026-04-18T09:31:46Z</time></trkpt><trkpt lat="37.5719989067619" lon="13.191942961839057"><ele>648.0</ele><time>2026-04-18T09:31:47Z</time></trkpt><trkpt lat="37.571938342762486" lon="13.192063348669622"><ele>651.0</ele><time>2026-04-18T09:31:48Z</time></trkpt><trkpt lat="37.57185539643187" lon="13.192152470969932"><ele>651.0</ele><time>2026-04-18T09:31:49Z</time></trkpt><trkpt lat="37.57175316608918" lon="13.19221555007999"><ele>651.0</ele><time>2026-04-18T09:31:50Z</time></trkpt><trkpt lat="37.57164131341082" lon="13.192235279852076"><ele>651.0</ele><time>2026-04-18T09:31:51Z</time></trkpt><trkpt lat="37.57152302654261" lon="13.192217107535539"><ele>651.0</ele><time>2026-04-18T09:31:52Z</time></trkpt><trkpt lat="37.57138843428392" lon="13.192174520227312"><ele>651.0</ele><time>2026-04-18T09:31:53Z</time></trkpt><trkpt lat="37.57125834135686" lon="13.192139043965499"><ele>651.0</ele><time>2026-04-18T09:31:54Z</time></trkpt><trkpt lat="37.57114328566681" lon="13.192105317617875"><ele>651.0</ele><time>2026-04-18T09:31:55Z</time></trkpt><trkpt lat="37.57104164479276" lon="13.192090252509225"><ele>651.0</ele><time>2026-04-18T09:31:56Z</time></trkpt><trkpt lat="37.57095467220348" lon="13.192106499773473"><ele>651.0</ele><time>2026-04-18T09:31:57Z</time></trkpt><trkpt lat="37.57089591591512" lon="13.192136474947215"><ele>650.0</ele><time>2026-04-18T09:31:58Z</time></trkpt><trkpt lat="37.570882027571024" lon="13.192230891768608"><ele>649.0</ele><time>2026-04-18T09:31:59Z</time></trkpt><trkpt lat="37.570887315658354" lon="13.192347186454748"><ele>648.0</ele><time>2026-04-18T09:32:00Z</time></trkpt><trkpt lat="37.570909216481084" lon="13.19249935811826"><ele>647.0</ele><time>2026-04-18T09:32:01Z</time></trkpt><trkpt lat="37.5709103626402" lon="13.192673999994247"><ele>646.0</ele><time>2026-04-18T09:32:02Z</time></trkpt><trkpt lat="37.57087632636079" lon="13.192869697435118"><ele>650.3333333333334</ele><time>2026-04-18T09:32:03Z</time></trkpt><trkpt lat="37.5708364337707" lon="13.193093028593834"><ele>654.6666666666666</ele><time>2026-04-18T09:32:04Z</time></trkpt><trkpt lat="37.57079456964638" lon="13.193310163524878"><ele>659.0</ele><time>2026-04-18T09:32:05Z</time></trkpt><trkpt lat="37.57074582752822" lon="13.19350655517445"><ele>662.25</ele><time>2026-04-18T09:32:06Z</time></trkpt><trkpt lat="37.5706995926443" lon="13.193688856245513"><ele>665.5</ele><time>2026-04-18T09:32:07Z</time></trkpt><trkpt lat="37.570661709587505" lon="13.19386586947565"><ele>668.75</ele><time>2026-04-18T09:32:08Z</time></trkpt><trkpt lat="37.57062556433584" lon="13.194025562316956"><ele>672.0</ele><time>2026-04-18T09:32:09Z</time></trkpt><trkpt lat="37.570587212739206" lon="13.194188132057558"><ele>676.25</ele><time>2026-04-18T09:32:10Z</time></trkpt><trkpt lat="37.57053067867034" lon="13.194350203820662"><ele>680.5</ele><time>2026-04-18T09:32:11Z</time></trkpt><trkpt lat="37.57048598959058" lon="13.19451647917513"><ele>684.75</ele><time>2026-04-18T09:32:12Z</time></trkpt><trkpt lat="37.57042811627714" lon="13.194663564193856"><ele>689.0</ele><time>2026-04-18T09:32:13Z</time></trkpt><trkpt lat="37.57036715479444" lon="13.19479855030209"><ele>681.0</ele><time>2026-04-18T09:32:14Z</time></trkpt><trkpt lat="37.570306795176556" lon="13.194951396947289"><ele>673.0</ele><time>2026-04-18T09:32:15Z</time></trkpt><trkpt lat="37.5702593570448" lon="13.195075847606784"><ele>665.0</ele><time>2026-04-18T09:32:16Z</time></trkpt><trkpt lat="37.57024640095818" lon="13.195216363085837"><ele>657.0</ele><time>2026-04-18T09:32:17Z</time></trkpt><trkpt lat="37.570259173053046" lon="13.195388475861161"><ele>657.0</ele><time>2026-04-18T09:32:18Z</time></trkpt><trkpt lat="37.57026290442664" lon="13.195581662339034"><ele>657.0</ele><time>2026-04-18T09:32:19Z</time></trkpt><trkpt lat="37.57025517819087" lon="13.19578969156638"><ele>657.0</ele><time>2026-04-18T09:32:20Z</time></trkpt><trkpt lat="37.57022040633929" lon="13.196009442569382"><ele>658.6666666666666</ele><time>2026-04-18T09:32:21Z</time></trkpt><trkpt lat="37.570174099282184" lon="13.196257014140784"><ele>660.3333333333333</ele><time>2026-04-18T09:32:22Z</time></trkpt><trkpt lat="37.57012577258801" lon="13.196473668479262"><ele>662.0</ele><time>2026-04-18T09:32:23Z</time></trkpt><trkpt lat="37.57009826294367" lon="13.196644118059972"><ele>664.0</ele><time>2026-04-18T09:32:24Z</time></trkpt><trkpt lat="37.570095199215075" lon="13.196799413628517"><ele>666.0</ele><time>2026-04-18T09:32:25Z</time></trkpt><trkpt lat="37.570133353576594" lon="13.19693544432106"><ele>668.0</ele><time>2026-04-18T09:32:26Z</time></trkpt><trkpt lat="37.57021234002753" lon="13.197087954139663"><ele>670.0</ele><time>2026-04-18T09:32:27Z</time></trkpt><trkpt lat="37.57030012670033" lon="13.197218408087856"><ele>671.75</ele><time>2026-04-18T09:32:28Z</time></trkpt><trkpt lat="37.57034868892565" lon="13.197372219626391"><ele>673.5</ele><time>2026-04-18T09:32:29Z</time></trkpt><trkpt lat="37.57036662038954" lon="13.197555454463703"><ele>675.25</ele><time>2026-04-18T09:32:30Z</time></trkpt><trkpt lat="37.5703236199794" lon="13.19772037684064"><ele>677.0</ele><time>2026-04-18T09:32:31Z</time></trkpt><trkpt lat="37.57025774623091" lon="13.197879009045709"><ele>677.0</ele><time>2026-04-18T09:32:32Z</time></trkpt><trkpt lat="37.57020309606801" lon="13.19806436174899"><ele>677.0</ele><time>2026-04-18T09:32:33Z</time></trkpt><trkpt lat="37.570139038259086" lon="13.198217804476618"><ele>677.0</ele><time>2026-04-18T09:32:34Z</time></trkpt><trkpt lat="37.570120922158125" lon="13.19840695734844"><ele>677.0</ele><time>2026-04-18T09:32:35Z</time></trkpt><trkpt lat="37.570128616915866" lon="13.19864647894779"><ele>679.0</ele><time>2026-04-18T09:32:36Z</time></trkpt><trkpt lat="37.570155455557966" lon="13.198945981506965"><ele>681.0</ele><time>2026-04-18T09:32:37Z</time></trkpt><trkpt lat="37.57017245810674" lon="13.199253550450694"><ele>681.0</ele><time>2026-04-18T09:32:38Z</time></trkpt><trkpt lat="37.570186234473" lon="13.199563009895343"><ele>681.0</ele><time>2026-04-18T09:32:39Z</time></trkpt><trkpt lat="37.57020060427823" lon="13.199885811342767"><ele>682.5</ele><time>2026-04-18T09:32:40Z</time></trkpt><trkpt lat="37.570210660513595" lon="13.200197205052604"><ele>684.0</ele><time>2026-04-18T09:32:41Z</time></trkpt><trkpt lat="37.57022213746759" lon="13.200483104758279"><ele>683.6666666666666</ele><time>2026-04-18T09:32:42Z</time></trkpt><trkpt lat="37.57023770638283" lon="13.200739930956805"><ele>683.3333333333333</ele><time>2026-04-18T09:32:43Z</time></trkpt><trkpt lat="37.57025681651173" lon="13.200993364966193"><ele>683.0</ele><time>2026-04-18T09:32:44Z</time></trkpt><trkpt lat="37.57027011958586" lon="13.20124009617754"><ele>683.0</ele><time>2026-04-18T09:32:45Z</time></trkpt><trkpt lat="37.57028780959632" lon="13.201463012815847"><ele>683.0</ele><time>2026-04-18T09:32:46Z</time></trkpt><trkpt lat="37.57031493662062" lon="13.201661540639153"><ele>683.0</ele><time>2026-04-18T09:32:47Z</time></trkpt><trkpt lat="37.57034668694115" lon="13.201835134676836"><ele>683.0</ele><time>2026-04-18T09:32:48Z</time></trkpt><trkpt lat="37.57036643907231" lon="13.201982839290741"><ele>683.0</ele><time>2026-04-18T09:32:49Z</time></trkpt><trkpt lat="37.570366072948936" lon="13.202123275821835"><ele>683.0</ele><time>2026-04-18T09:32:50Z</time></trkpt><trkpt lat="37.57033520237475" lon="13.202269298601665"><ele>683.0</ele><time>2026-04-18T09:32:51Z</time></trkpt><trkpt lat="37.570285718488215" lon="13.202374454418653"><ele>683.0</ele><time>2026-04-18T09:32:52Z</time></trkpt><trkpt lat="37.570193165659965" lon="13.202426788397949"><ele>686.25</ele><time>2026-04-18T09:32:53Z</time></trkpt><trkpt lat="37.5701272678428" lon="13.202521338120533"><ele>689.5</ele><time>2026-04-18T09:32:54Z</time></trkpt><trkpt lat="37.57005855810044" lon="13.202628619500876"><ele>692.75</ele><time>2026-04-18T09:32:55Z</time></trkpt><trkpt lat="37.57002357458327" lon="13.202777146681976"><ele>696.0</ele><time>2026-04-18T09:32:56Z</time></trkpt><trkpt lat="37.570019707398785" lon="13.202942028902624"><ele>696.0</ele><time>2026-04-18T09:32:57Z</time></trkpt><trkpt lat="37.570052168705026" lon="13.203103814608543"><ele>696.0</ele><time>2026-04-18T09:32:58Z</time></trkpt><trkpt lat="37.570114889751906" lon="13.203290554009921"><ele>696.0</ele><time>2026-04-18T09:32:59Z</time></trkpt><trkpt lat="37.57019552870303" lon="13.203490940131044"><ele>698.3333333333334</ele><time>2026-04-18T09:33:00Z</time></trkpt><trkpt lat="37.57027090073314" lon="13.203714019874523"><ele>700.6666666666667</ele><time>2026-04-18T09:33:01Z</time></trkpt><trkpt lat="37.5703377925958" lon="13.203923350598515"><ele>703.0</ele><time>2026-04-18T09:33:02Z</time></trkpt><trkpt lat="37.570395923462705" lon="13.204099277510837"><ele>709.5</ele><time>2026-04-18T09:33:03Z</time></trkpt><trkpt lat="37.57044785917777" lon="13.204261988254862"><ele>716.0</ele><time>2026-04-18T09:33:04Z</time></trkpt><trkpt lat="37.570490614833716" lon="13.204432035394483"><ele>722.5</ele><time>2026-04-18T09:33:05Z</time></trkpt><trkpt lat="37.57054030037048" lon="13.204596392860305"><ele>729.0</ele><time>2026-04-18T09:33:06Z</time></trkpt><trkpt lat="37.570548133510734" lon="13.20476916499913"><ele>730.25</ele><time>2026-04-18T09:33:07Z</time></trkpt><trkpt lat="37.57056367973008" lon="13.20494138416273"><ele>731.5</ele><time>2026-04-18T09:33:08Z</time></trkpt><trkpt lat="37.57054182571947" lon="13.205117650059044"><ele>732.75</ele><time>2026-04-18T09:33:09Z</time></trkpt><trkpt lat="37.57052173133529" lon="13.205292343924231"><ele>734.0</ele><time>2026-04-18T09:33:10Z</time></trkpt><trkpt lat="37.570526886307604" lon="13.205452825145855"><ele>734.0</ele><time>2026-04-18T09:33:11Z</time></trkpt><trkpt lat="37.57055194477486" lon="13.205596707624318"><ele>734.0</ele><time>2026-04-18T09:33:12Z</time></trkpt><trkpt lat="37.57058188757051" lon="13.205757377795795"><ele>734.0</ele><time>2026-04-18T09:33:13Z</time></trkpt><trkpt lat="37.57057361173972" lon="13.205931925618048"><ele>734.0</ele><time>2026-04-18T09:33:14Z</time></trkpt><trkpt lat="37.570579568189586" lon="13.206095914097874"><ele>734.5</ele><time>2026-04-18T09:33:15Z</time></trkpt><trkpt lat="37.57057912204555" lon="13.206256098057583"><ele>735.0</ele><time>2026-04-18T09:33:16Z</time></trkpt><trkpt lat="37.57056807969416" lon="13.20641787780083"><ele>735.5</ele><time>2026-04-18T09:33:17Z</time></trkpt><trkpt lat="37.570567321549255" lon="13.206593136193217"><ele>736.0</ele><time>2026-04-18T09:33:18Z</time></trkpt><trkpt lat="37.57054797520791" lon="13.206770906866428"><ele>736.25</ele><time>2026-04-18T09:33:19Z</time></trkpt><trkpt lat="37.57054066905321" lon="13.206953532841988"><ele>736.5</ele><time>2026-04-18T09:33:20Z</time></trkpt><trkpt lat="37.57052886250931" lon="13.207134765299969"><ele>736.75</ele><time>2026-04-18T09:33:21Z</time></trkpt><trkpt lat="37.570522009434" lon="13.207307448012505"><ele>737.0</ele><time>2026-04-18T09:33:22Z</time></trkpt><trkpt lat="37.57051272882552" lon="13.207471814735564"><ele>737.5</ele><time>2026-04-18T09:33:23Z</time></trkpt><trkpt lat="37.570496725170386" lon="13.207642187765426"><ele>738.0</ele><time>2026-04-18T09:33:24Z</time></trkpt><trkpt lat="37.570442180919656" lon="13.20779746008137"><ele>738.5</ele><time>2026-04-18T09:33:25Z</time></trkpt><trkpt lat="37.5703913763106" lon="13.207958590681793"><ele>739.0</ele><time>2026-04-18T09:33:26Z</time></trkpt><trkpt lat="37.570311841592634" lon="13.208103587323814"><ele>730.75</ele><time>2026-04-18T09:33:27Z</time></trkpt><trkpt lat="37.57025162316111" lon="13.208258245551752"><ele>722.5</ele><time>2026-04-18T09:33:28Z</time></trkpt><trkpt lat="37.57022537044128" lon="13.208424327332704"><ele>714.25</ele><time>2026-04-18T09:33:29Z</time></trkpt><trkpt lat="37.570222423006456" lon="13.208586021584036"><ele>706.0</ele><time>2026-04-18T09:33:30Z</time></trkpt><trkpt lat="37.57024177395434" lon="13.208737292505962"><ele>706.0</ele><time>2026-04-18T09:33:31Z</time></trkpt><trkpt lat="37.57029137253611" lon="13.208869934537129"><ele>706.0</ele><time>2026-04-18T09:33:32Z</time></trkpt><trkpt lat="37.57036051190625" lon="13.208997409040085"><ele>706.0</ele><time>2026-04-18T09:33:33Z</time></trkpt><trkpt lat="37.570453065997654" lon="13.209111053520987"><ele>706.0</ele><time>2026-04-18T09:33:34Z</time></trkpt><trkpt lat="37.57054182381682" lon="13.209227749571884"><ele>712.0</ele><time>2026-04-18T09:33:35Z</time></trkpt><trkpt lat="37.5705742541509" lon="13.209387519865617"><ele>718.0</ele><time>2026-04-18T09:33:36Z</time></trkpt><trkpt lat="37.570625238456415" lon="13.209554557644518"><ele>724.0</ele><time>2026-04-18T09:33:37.001Z</time></trkpt><trkpt lat="37.57068605323598" lon="13.209700744890013"><ele>730.0</ele><time>2026-04-18T09:33:38.001Z</time></trkpt><trkpt lat="37.570736976079395" lon="13.209829622676029"><ele>730.0</ele><time>2026-04-18T09:33:39.001Z</time></trkpt><trkpt lat="37.57079994114572" lon="13.209941761845165"><ele>730.0</ele><time>2026-04-18T09:33:40.001Z</time></trkpt><trkpt lat="37.57087700837962" lon="13.210029524180936"><ele>730.0</ele><time>2026-04-18T09:33:41.001Z</time></trkpt><trkpt lat="37.57098024694897" lon="13.21008825486158"><ele>730.0</ele><time>2026-04-18T09:33:42.001Z</time></trkpt><trkpt lat="37.571093005802624" lon="13.210133142837353"><ele>730.0</ele><time>2026-04-18T09:33:43.001Z</time></trkpt><trkpt lat="37.571201549829176" lon="13.210178671124435"><ele>732.0</ele><time>2026-04-18T09:33:44.001Z</time></trkpt><trkpt lat="37.571306505664936" lon="13.21022300645631"><ele>734.0</ele><time>2026-04-18T09:33:45.001Z</time></trkpt><trkpt lat="37.57139727881977" lon="13.210299752244287"><ele>736.0</ele><time>2026-04-18T09:33:46.001Z</time></trkpt><trkpt lat="37.57147257878172" lon="13.210368378972118"><ele>738.0</ele><time>2026-04-18T09:33:47.001Z</time></trkpt><trkpt lat="37.5715435772455" lon="13.210421457944845"><ele>740.0</ele><time>2026-04-18T09:33:48.001Z</time></trkpt><trkpt lat="37.571594516592555" lon="13.210505273536635"><ele>740.0</ele><time>2026-04-18T09:33:49.001Z</time></trkpt><trkpt lat="37.57166032058986" lon="13.210593196165114"><ele>740.0</ele><time>2026-04-18T09:33:50.001Z</time></trkpt><trkpt lat="37.57172818129145" lon="13.210693745597645"><ele>740.0</ele><time>2026-04-18T09:33:51.001Z</time></trkpt><trkpt lat="37.57179182692889" lon="13.210771711095767"><ele>740.0</ele><time>2026-04-18T09:33:52.001Z</time></trkpt><trkpt lat="37.5718402633461" lon="13.210841788300307"><ele>740.0</ele><time>2026-04-18T09:33:53.001Z</time></trkpt><trkpt lat="37.5718925139382" lon="13.210952370344124"><ele>741.3333333333333</ele><time>2026-04-18T09:33:55.001Z</time></trkpt><trkpt lat="37.5719430895256" lon="13.211001169029078"><ele>742.6666666666666</ele><time>2026-04-18T09:33:57.001Z</time></trkpt><trkpt lat="37.5720208406558" lon="13.211120527561926"><ele>744.0</ele><time>2026-04-18T09:33:59.001Z</time></trkpt><trkpt lat="37.572053339660094" lon="13.211211441850823"><ele>745.3333333333334</ele><time>2026-04-18T09:34:00.001Z</time></trkpt><trkpt lat="37.572103708036046" lon="13.21130716748227"><ele>746.6666666666667</ele><time>2026-04-18T09:34:01.001Z</time></trkpt><trkpt lat="37.572145216058786" lon="13.211407416502366"><ele>748.0</ele><time>2026-04-18T09:34:02.001Z</time></trkpt><trkpt lat="37.57218784948232" lon="13.211503200125195"><ele>748.0</ele><time>2026-04-18T09:34:03.001Z</time></trkpt><trkpt lat="37.572245738031" lon="13.211588475275665"><ele>748.0</ele><time>2026-04-18T09:34:04Z</time></trkpt><trkpt lat="37.57230772187216" lon="13.21166003529036"><ele>748.0</ele><time>2026-04-18T09:34:05Z</time></trkpt><trkpt lat="37.572369508836" lon="13.211725940824522"><ele>748.0</ele><time>2026-04-18T09:34:06Z</time></trkpt><trkpt lat="37.57243281797835" lon="13.211792658018375"><ele>748.0</ele><time>2026-04-18T09:34:07Z</time></trkpt><trkpt lat="37.572496126823985" lon="13.211863641251073"><ele>748.0</ele><time>2026-04-18T09:34:08Z</time></trkpt><trkpt lat="37.57256129099432" lon="13.211937241090974"><ele>748.0</ele><time>2026-04-18T09:34:09Z</time></trkpt><trkpt lat="37.57262854489524" lon="13.212009731932055"><ele>748.0</ele><time>2026-04-18T09:34:10Z</time></trkpt><trkpt lat="37.57269600851899" lon="13.212081277800904"><ele>748.0</ele><time>2026-04-18T09:34:11Z</time></trkpt><trkpt lat="37.57276599715342" lon="13.212151648790028"><ele>748.0</ele><time>2026-04-18T09:34:12Z</time></trkpt><trkpt lat="37.57281967824879" lon="13.212242557563865"><ele>748.0</ele><time>2026-04-18T09:34:13Z</time></trkpt><trkpt lat="37.572892634707216" lon="13.212299133460006"><ele>748.0</ele><time>2026-04-18T09:34:14Z</time></trkpt><trkpt lat="37.5729538884353" lon="13.212375812754342"><ele>750.3333333333334</ele><time>2026-04-18T09:34:15Z</time></trkpt><trkpt lat="37.57299254310774" lon="13.212464184372136"><ele>752.6666666666667</ele><time>2026-04-18T09:34:16Z</time></trkpt><trkpt lat="37.57303174592075" lon="13.212549674064562"><ele>755.0</ele><time>2026-04-18T09:34:17Z</time></trkpt><trkpt lat="37.57305838263404" lon="13.212651483272733"><ele>757.3333333333334</ele><time>2026-04-18T09:34:18Z</time></trkpt><trkpt lat="37.5730666416075" lon="13.212751712615585"><ele>759.6666666666666</ele><time>2026-04-18T09:34:19Z</time></trkpt><trkpt lat="37.57305935601841" lon="13.212863262972686"><ele>762.0</ele><time>2026-04-18T09:34:20Z</time></trkpt><trkpt lat="37.573056462076224" lon="13.212972536163141"><ele>762.0</ele><time>2026-04-18T09:34:21Z</time></trkpt><trkpt lat="37.57305473021627" lon="13.213087551723735"><ele>762.0</ele><time>2026-04-18T09:34:22Z</time></trkpt><trkpt lat="37.57305437980884" lon="13.213185771985389"><ele>762.0</ele><time>2026-04-18T09:34:23Z</time></trkpt><trkpt lat="37.573054063428174" lon="13.213274453845598"><ele>762.0</ele><time>2026-04-18T09:34:24Z</time></trkpt><trkpt lat="37.573079584797235" lon="13.213427273802733"><ele>762.0</ele><time>2026-04-18T09:34:26Z</time></trkpt><trkpt lat="37.57310200987617" lon="13.21350926800924"><ele>762.0</ele><time>2026-04-18T09:34:27Z</time></trkpt><trkpt lat="37.57314529316569" lon="13.213587021588033"><ele>761.6666666666666</ele><time>2026-04-18T09:34:28Z</time></trkpt><trkpt lat="37.57320102689924" lon="13.213644289509546"><ele>761.3333333333334</ele><time>2026-04-18T09:34:29Z</time></trkpt><trkpt lat="37.57328048076288" lon="13.213723202126866"><ele>761.0</ele><time>2026-04-18T09:34:31Z</time></trkpt><trkpt lat="37.573359458390726" lon="13.213755490828383"><ele>760.6666666666667</ele><time>2026-04-18T09:34:33Z</time></trkpt><trkpt lat="37.573436516473286" lon="13.213777922598833"><ele>760.3333333333334</ele><time>2026-04-18T09:34:36Z</time></trkpt><trkpt lat="37.573540529290874" lon="13.213776993093383"><ele>760.0</ele><time>2026-04-18T09:34:38Z</time></trkpt><trkpt lat="37.573606640654816" lon="13.213770612159465"><ele>760.0</ele><time>2026-04-18T09:34:39Z</time></trkpt><trkpt lat="37.57367382981526" lon="13.213755667927993"><ele>760.0</ele><time>2026-04-18T09:34:40Z</time></trkpt><trkpt lat="37.57373899249543" lon="13.21373867462952"><ele>760.0</ele><time>2026-04-18T09:34:42Z</time></trkpt><trkpt lat="37.57383057699749" lon="13.213687631579841"><ele>760.0</ele><time>2026-04-18T09:34:47Z</time></trkpt><trkpt lat="37.573845505489636" lon="13.213801372679363"><ele>760.0</ele><time>2026-04-18T09:34:54Z</time></trkpt><trkpt lat="37.5738731386355" lon="13.213877696659365"><ele>760.0</ele><time>2026-04-18T09:35:10Z</time></trkpt><trkpt lat="37.57389087195051" lon="13.213784003793199"><ele>760.6666666666667</ele><time>2026-04-18T09:35:15Z</time></trkpt><trkpt lat="37.57385555717964" lon="13.213717154624437"><ele>761.3333333333334</ele><time>2026-04-18T09:35:19Z</time></trkpt><trkpt lat="37.57387225975409" lon="13.213637476469511"><ele>762.0</ele><time>2026-04-18T09:35:31Z</time></trkpt><trkpt lat="37.57395867943658" lon="13.213546994285716"><ele>762.6666666666666</ele><time>2026-04-18T09:35:33Z</time></trkpt><trkpt lat="37.574008161075454" lon="13.21348763131024"><ele>763.3333333333333</ele><time>2026-04-18T09:35:34Z</time></trkpt><trkpt lat="37.57405929646314" lon="13.213428161916111"><ele>764.0</ele><time>2026-04-18T09:35:35Z</time></trkpt><trkpt lat="37.5741101953066" lon="13.213364126872326"><ele>764.0</ele><time>2026-04-18T09:35:36Z</time></trkpt><trkpt lat="37.57415636661911" lon="13.213309220784316"><ele>764.0</ele><time>2026-04-18T09:35:37Z</time></trkpt><trkpt lat="37.57423956262507" lon="13.213203204627483"><ele>764.0</ele><time>2026-04-18T09:35:39Z</time></trkpt><trkpt lat="37.57430200940916" lon="13.213117898373584"><ele>764.0</ele><time>2026-04-18T09:35:41Z</time></trkpt><trkpt lat="37.57434889970568" lon="13.213046953908036"><ele>764.0</ele><time>2026-04-18T09:35:43.001Z</time></trkpt><trkpt lat="37.57439694735842" lon="13.212981532501635"><ele>764.0</ele><time>2026-04-18T09:35:45.001Z</time></trkpt><trkpt lat="37.574439345757874" lon="13.212920038505558"><ele>765.6</ele><time>2026-04-18T09:35:47.001Z</time></trkpt><trkpt lat="37.574496541870644" lon="13.21284003998293"><ele>767.2</ele><time>2026-04-18T09:35:49.001Z</time></trkpt><trkpt lat="37.57455686899271" lon="13.212758151585108"><ele>768.8000000000001</ele><time>2026-04-18T09:35:51.001Z</time></trkpt><trkpt lat="37.574652197347646" lon="13.21265929339363"><ele>770.4000000000001</ele><time>2026-04-18T09:35:53.001Z</time></trkpt><trkpt lat="37.57474658999387" lon="13.212571690367207"><ele>772.0</ele><time>2026-04-18T09:35:55.001Z</time></trkpt><trkpt lat="37.57484009222444" lon="13.212510335891395"><ele>772.0</ele><time>2026-04-18T09:35:57.001Z</time></trkpt><trkpt lat="37.57492514157818" lon="13.212445393284108"><ele>772.0</ele><time>2026-04-18T09:35:59.001Z</time></trkpt><trkpt lat="37.57500778989545" lon="13.21236537259154"><ele>772.0</ele><time>2026-04-18T09:36:01.001Z</time></trkpt><trkpt lat="37.575101100365444" lon="13.212301409407587"><ele>772.0</ele><time>2026-04-18T09:36:03.001Z</time></trkpt><trkpt lat="37.57521442133257" lon="13.21226929502794"><ele>772.0</ele><time>2026-04-18T09:36:05.001Z</time></trkpt><trkpt lat="37.575290333180085" lon="13.21226039847474"><ele>778.0</ele><time>2026-04-18T09:36:06.001Z</time></trkpt><trkpt lat="37.57536103613315" lon="13.212267165386509"><ele>784.0</ele><time>2026-04-18T09:36:07.001Z</time></trkpt><trkpt lat="37.57547821619486" lon="13.21227998751272"><ele>790.0</ele><time>2026-04-18T09:36:09.001Z</time></trkpt><trkpt lat="37.57559420425601" lon="13.212294900947112"><ele>796.0</ele><time>2026-04-18T09:36:11Z</time></trkpt><trkpt lat="37.57566292938667" lon="13.212288366388767"><ele>802.0</ele><time>2026-04-18T09:36:12Z</time></trkpt><trkpt lat="37.57575792979457" lon="13.212282154627472"><ele>802.0</ele><time>2026-04-18T09:36:13Z</time></trkpt><trkpt lat="37.57584812676371" lon="13.212281150698661"><ele>802.0</ele><time>2026-04-18T09:36:14Z</time></trkpt><trkpt lat="37.5759571205571" lon="13.212291665653682"><ele>802.0</ele><time>2026-04-18T09:36:15Z</time></trkpt><trkpt lat="37.57606439269129" lon="13.212411915462654"><ele>802.0</ele><time>2026-04-18T09:36:16Z</time></trkpt><trkpt lat="37.576133875661284" lon="13.212422905703848"><ele>802.0</ele><time>2026-04-18T09:36:17Z</time></trkpt><trkpt lat="37.57620655252274" lon="13.212455457308605"><ele>803.4999999999999</ele><time>2026-04-18T09:36:18Z</time></trkpt><trkpt lat="37.576279746204335" lon="13.212500550161142"><ele>805.0</ele><time>2026-04-18T09:36:19Z</time></trkpt><trkpt lat="37.576349088162836" lon="13.212545136606803"><ele>806.5</ele><time>2026-04-18T09:36:20Z</time></trkpt><trkpt lat="37.57644023541936" lon="13.212603743721289"><ele>808.0</ele><time>2026-04-18T09:36:22Z</time></trkpt><trkpt lat="37.5765260494813" lon="13.212637288283512"><ele>809.4999999999999</ele><time>2026-04-18T09:36:24Z</time></trkpt><trkpt lat="37.5765659943228" lon="13.212552051756118"><ele>811.0</ele><time>2026-04-18T09:36:26Z</time></trkpt><trkpt lat="37.57647804670408" lon="13.212437931503038"><ele>811.0</ele><time>2026-04-18T09:36:28Z</time></trkpt><trkpt lat="37.57641181905533" lon="13.212345067113452"><ele>811.0</ele><time>2026-04-18T09:36:30Z</time></trkpt><trkpt lat="37.57636375399698" lon="13.212273346780922"><ele>811.0</ele><time>2026-04-18T09:36:32Z</time></trkpt><trkpt lat="37.576414968335364" lon="13.212208500072222"><ele>811.0</ele><time>2026-04-18T09:36:35Z</time></trkpt><trkpt lat="37.57647929514712" lon="13.212345046578967"><ele>811.0</ele><time>2026-04-18T09:36:37Z</time></trkpt><trkpt lat="37.57656299746004" lon="13.21243147035687"><ele>810.9999999999999</ele><time>2026-04-18T09:36:38Z</time></trkpt><trkpt lat="37.57665212492185" lon="13.21250637942313"><ele>811.0</ele><time>2026-04-18T09:36:39Z</time></trkpt><trkpt lat="37.57672378568105" lon="13.212557456099503"><ele>811.0</ele><time>2026-04-18T09:36:40Z</time></trkpt><trkpt lat="37.57678868804478" lon="13.212596532183245"><ele>811.0</ele><time>2026-04-18T09:36:41Z</time></trkpt><trkpt lat="37.57687402476367" lon="13.212580490542212"><ele>810.9999999999999</ele><time>2026-04-18T09:36:42Z</time></trkpt><trkpt lat="37.57694594249763" lon="13.212592008951274"><ele>811.0</ele><time>2026-04-18T09:36:43Z</time></trkpt><trkpt lat="37.57701582627369" lon="13.21260826776867"><ele>814.6666666666666</ele><time>2026-04-18T09:36:44Z</time></trkpt><trkpt lat="37.57708415125692" lon="13.212636088181585"><ele>818.3333333333333</ele><time>2026-04-18T09:36:45Z</time></trkpt><trkpt lat="37.57715306445258" lon="13.212695572547544"><ele>822.0</ele><time>2026-04-18T09:36:46Z</time></trkpt><trkpt lat="37.57722623032126" lon="13.212735878939446"><ele>825.6666666666667</ele><time>2026-04-18T09:36:47Z</time></trkpt><trkpt lat="37.57728389298653" lon="13.212769736298435"><ele>829.3333333333334</ele><time>2026-04-18T09:36:48Z</time></trkpt><trkpt lat="37.57738365451749" lon="13.212823479171277"><ele>833.0</ele><time>2026-04-18T09:36:50Z</time></trkpt><trkpt lat="37.57744719190269" lon="13.212836115620041"><ele>833.0000000000001</ele><time>2026-04-18T09:36:52Z</time></trkpt><trkpt lat="37.57751135949031" lon="13.21288231215753"><ele>833.0</ele><time>2026-04-18T09:36:55Z</time></trkpt><trkpt lat="37.57753303995237" lon="13.212986025662548"><ele>833.0</ele><time>2026-04-18T09:36:57Z</time></trkpt><trkpt lat="37.57757817337884" lon="13.21309786561101"><ele>833.0</ele><time>2026-04-18T09:36:59Z</time></trkpt><trkpt lat="37.577607319830314" lon="13.213180538261204"><ele>833.0000000000001</ele><time>2026-04-18T09:37:01Z</time></trkpt><trkpt lat="37.57761687262432" lon="13.213267539693504"><ele>833.0</ele><time>2026-04-18T09:37:03Z</time></trkpt><trkpt lat="37.57761725730668" lon="13.213355493606327"><ele>831.3333333333334</ele><time>2026-04-18T09:37:05Z</time></trkpt><trkpt lat="37.5775985350069" lon="13.213448959542692"><ele>829.6666666666667</ele><time>2026-04-18T09:37:07Z</time></trkpt><trkpt lat="37.57758475971604" lon="13.213536596501697"><ele>828.0</ele><time>2026-04-18T09:37:09Z</time></trkpt><trkpt lat="37.57759344201952" lon="13.213639904926646"><ele>826.3333333333333</ele><time>2026-04-18T09:37:11Z</time></trkpt><trkpt lat="37.57756512911936" lon="13.213740262681792"><ele>824.6666666666666</ele><time>2026-04-18T09:37:13Z</time></trkpt><trkpt lat="37.577529535502904" lon="13.213829507589473"><ele>823.0</ele><time>2026-04-18T09:37:15Z</time></trkpt><trkpt lat="37.57748775224308" lon="13.213925447609418"><ele>823.5999999999999</ele><time>2026-04-18T09:37:17Z</time></trkpt><trkpt lat="37.57747735628966" lon="13.214027202815453"><ele>824.1999999999999</ele><time>2026-04-18T09:37:19Z</time></trkpt><trkpt lat="37.57744613859789" lon="13.21412898439744"><ele>824.8</ele><time>2026-04-18T09:37:21Z</time></trkpt><trkpt lat="37.57738599349682" lon="13.2142504773784"><ele>825.4</ele><time>2026-04-18T09:37:23Z</time></trkpt><trkpt lat="37.57733871414087" lon="13.214355669410871"><ele>826.0</ele><time>2026-04-18T09:37:25Z</time></trkpt><trkpt lat="37.577290020141746" lon="13.21445806472177"><ele>826.0</ele><time>2026-04-18T09:37:27Z</time></trkpt><trkpt lat="37.5772557189088" lon="13.214589213657835"><ele>826.0</ele><time>2026-04-18T09:37:29Z</time></trkpt><trkpt lat="37.577208197142525" lon="13.21471865162403"><ele>826.0</ele><time>2026-04-18T09:37:31Z</time></trkpt><trkpt lat="37.57717605437865" lon="13.21482582006585"><ele>826.0</ele><time>2026-04-18T09:37:33Z</time></trkpt><trkpt lat="37.57715318895518" lon="13.214941423501873"><ele>826.0</ele><time>2026-04-18T09:37:35Z</time></trkpt><trkpt lat="37.57709412459438" lon="13.215025115151839"><ele>828.5999999999999</ele><time>2026-04-18T09:37:37Z</time></trkpt><trkpt lat="37.57708039718912" lon="13.215125931028718"><ele>831.2</ele><time>2026-04-18T09:37:39Z</time></trkpt><trkpt lat="37.57712800526225" lon="13.215231888610658"><ele>833.8</ele><time>2026-04-18T09:37:41Z</time></trkpt><trkpt lat="37.57721487778347" lon="13.215271510911345"><ele>836.4000000000001</ele><time>2026-04-18T09:37:43Z</time></trkpt><trkpt lat="37.57727508874097" lon="13.215341708342919"><ele>839.0</ele><time>2026-04-18T09:37:45Z</time></trkpt><trkpt lat="37.57722812046563" lon="13.215485512899225"><ele>839.0000000000001</ele><time>2026-04-18T09:37:47Z</time></trkpt><trkpt lat="37.57725495223125" lon="13.215589628068162"><ele>839.0</ele><time>2026-04-18T09:37:49.001Z</time></trkpt><trkpt lat="37.57727203928697" lon="13.215691617379"><ele>839.0</ele><time>2026-04-18T09:37:51.001Z</time></trkpt><trkpt lat="37.57730914121951" lon="13.215796491164111"><ele>839.0</ele><time>2026-04-18T09:37:53.001Z</time></trkpt><trkpt lat="37.577353333782426" lon="13.215899560277393"><ele>839.0000000000001</ele><time>2026-04-18T09:37:55.001Z</time></trkpt><trkpt lat="37.5774210064021" lon="13.215971717276805"><ele>839.0</ele><time>2026-04-18T09:37:57.001Z</time></trkpt><trkpt lat="37.577482238292674" lon="13.216054465225403"><ele>839.3333333333334</ele><time>2026-04-18T09:37:59.001Z</time></trkpt><trkpt lat="37.57754069673859" lon="13.216134312413917"><ele>839.6666666666667</ele><time>2026-04-18T09:38:01.001Z</time></trkpt><trkpt lat="37.57761133716951" lon="13.216186622954192"><ele>840.0</ele><time>2026-04-18T09:38:03.001Z</time></trkpt><trkpt lat="37.577704988926264" lon="13.216227987964608"><ele>840.3333333333333</ele><time>2026-04-18T09:38:06Z</time></trkpt><trkpt lat="37.57778532260209" lon="13.216264633656083"><ele>840.6666666666666</ele><time>2026-04-18T09:38:08Z</time></trkpt><trkpt lat="37.57787281229224" lon="13.21628842031277"><ele>841.0</ele><time>2026-04-18T09:38:10Z</time></trkpt><trkpt lat="37.577935732273566" lon="13.216328205817826"><ele>843.4999999999999</ele><time>2026-04-18T09:38:12Z</time></trkpt><trkpt lat="37.57795251397239" lon="13.216431278250406"><ele>846.0</ele><time>2026-04-18T09:38:14Z</time></trkpt><trkpt lat="37.57800456801678" lon="13.216521025489657"><ele>848.5</ele><time>2026-04-18T09:38:16Z</time></trkpt><trkpt lat="37.57806725035805" lon="13.216613031947135"><ele>851.0</ele><time>2026-04-18T09:38:18Z</time></trkpt><trkpt lat="37.578104021937605" lon="13.216709860339257"><ele>853.4999999999999</ele><time>2026-04-18T09:38:20Z</time></trkpt><trkpt lat="37.578143696895786" lon="13.216799049411126"><ele>856.0</ele><time>2026-04-18T09:38:22Z</time></trkpt><trkpt lat="37.578158700919595" lon="13.216925654734446"><ele>856.0</ele><time>2026-04-18T09:38:24Z</time></trkpt><trkpt lat="37.57825591779873" lon="13.216991531973651"><ele>855.9999999999999</ele><time>2026-04-18T09:38:26Z</time></trkpt><trkpt lat="37.57834605361932" lon="13.217011142276254"><ele>855.9999999999999</ele><time>2026-04-18T09:38:28Z</time></trkpt><trkpt lat="37.578431661618346" lon="13.217061837190576"><ele>856.0</ele><time>2026-04-18T09:38:30Z</time></trkpt><trkpt lat="37.57850455410193" lon="13.217095119168592"><ele>856.0</ele><time>2026-04-18T09:38:32Z</time></trkpt><trkpt lat="37.57857824544399" lon="13.217136174438997"><ele>856.0000000000001</ele><time>2026-04-18T09:38:34Z</time></trkpt><trkpt lat="37.57865385354981" lon="13.217180411910284"><ele>856.0</ele><time>2026-04-18T09:38:36Z</time></trkpt><trkpt lat="37.57871858831009" lon="13.217229188926426"><ele>856.0</ele><time>2026-04-18T09:38:38Z</time></trkpt><trkpt lat="37.578758160404426" lon="13.217299218693302"><ele>856.0</ele><time>2026-04-18T09:38:40Z</time></trkpt><trkpt lat="37.57881440039163" lon="13.217359342146452"><ele>856.0</ele><time>2026-04-18T09:38:42Z</time></trkpt><trkpt lat="37.57883704391462" lon="13.217445041844387"><ele>856.0000000000001</ele><time>2026-04-18T09:38:44Z</time></trkpt><trkpt lat="37.57887360801216" lon="13.217524340983399"><ele>856.0</ele><time>2026-04-18T09:38:48Z</time></trkpt><trkpt lat="37.578906083748365" lon="13.217597241725993"><ele>855.1666666666666</ele><time>2026-04-18T09:39:11Z</time></trkpt><trkpt lat="37.57894097718213" lon="13.217685844925365"><ele>854.3333333333333</ele><time>2026-04-18T09:39:15Z</time></trkpt><trkpt lat="37.57897977012926" lon="13.217758301842508"><ele>853.5</ele><time>2026-04-18T09:39:18Z</time></trkpt><trkpt lat="37.57899293724496" lon="13.217870052808145"><ele>852.6666666666667</ele><time>2026-04-18T09:39:21Z</time></trkpt><trkpt lat="37.57901136861472" lon="13.217955083793399"><ele>851.8333333333334</ele><time>2026-04-18T09:39:23Z</time></trkpt><trkpt lat="37.57900684294628" lon="13.21804131441112"><ele>851.0</ele><time>2026-04-18T09:39:25Z</time></trkpt><trkpt lat="37.57903110570481" lon="13.21814454977877"><ele>851.0000000000001</ele><time>2026-04-18T09:39:27.999Z</time></trkpt><trkpt lat="37.579120232440694" lon="13.218068379169468"><ele>851.0</ele><time>2026-04-18T09:39:32.999Z</time></trkpt><trkpt lat="37.57915978429387" lon="13.21815040465281"><ele>851.0</ele><time>2026-04-18T09:40:35Z</time></trkpt><trkpt lat="37.579107589626496" lon="13.218104376942351"><ele>851.0</ele><time>2026-04-18T09:41:04Z</time></trkpt><trkpt lat="37.579027011818745" lon="13.218128043999997"><ele>851.0000000000001</ele><time>2026-04-18T09:41:22.999Z</time></trkpt><trkpt lat="37.57902913948544" lon="13.218210674275745"><ele>851.0</ele><time>2026-04-18T09:41:28.999Z</time></trkpt><trkpt lat="37.579026312521805" lon="13.21829838043283"><ele>851.4285714285714</ele><time>2026-04-18T09:41:39.999Z</time></trkpt><trkpt lat="37.579027364970436" lon="13.218384285493155"><ele>851.8571428571429</ele><time>2026-04-18T09:41:47.999Z</time></trkpt><trkpt lat="37.57900489152761" lon="13.218463933487213"><ele>852.2857142857142</ele><time>2026-04-18T09:42:31.999Z</time></trkpt><trkpt lat="37.57900061006627" lon="13.218562125438494"><ele>852.7142857142858</ele><time>2026-04-18T09:43:01.999Z</time></trkpt><trkpt lat="37.5789935906188" lon="13.21864179080742"><ele>853.1428571428571</ele><time>2026-04-18T09:43:07.999Z</time></trkpt><trkpt lat="37.57898617956645" lon="13.218724189588078"><ele>853.5714285714286</ele><time>2026-04-18T09:43:16.999Z</time></trkpt><trkpt lat="37.57899670027863" lon="13.218810785097796"><ele>854.0</ele><time>2026-04-18T09:43:28.999Z</time></trkpt><trkpt lat="37.57892774360508" lon="13.218801381094957"><ele>854.0</ele><time>2026-04-18T09:44:39.997Z</time></trkpt><trkpt lat="37.57885937991424" lon="13.21878757349252"><ele>854.0</ele><time>2026-04-18T09:44:46.998Z</time></trkpt><trkpt lat="37.578793525854756" lon="13.218787136496259"><ele>854.0</ele><time>2026-04-18T09:44:52.998Z</time></trkpt><trkpt lat="37.57872839843905" lon="13.21879077812234"><ele>854.0</ele><time>2026-04-18T09:45:04.999Z</time></trkpt><trkpt lat="37.578662414895334" lon="13.218829043895523"><ele>854.0</ele><time>2026-04-18T09:45:12.999Z</time></trkpt><trkpt lat="37.57870438719783" lon="13.218899474361312"><ele>854.0</ele><time>2026-04-18T09:45:16.999Z</time></trkpt><trkpt lat="37.57865335628321" lon="13.218955586330553"><ele>854.0</ele><time>2026-04-18T09:45:21.999Z</time></trkpt><trkpt lat="37.578586369703416" lon="13.218994312791954"><ele>851.1428571428571</ele><time>2026-04-18T09:45:27.999Z</time></trkpt><trkpt lat="37.57852915749175" lon="13.219034002734233"><ele>848.2857142857142</ele><time>2026-04-18T09:45:33.999Z</time></trkpt><trkpt lat="37.578477389712795" lon="13.219099491055104"><ele>845.4285714285714</ele><time>2026-04-18T09:45:39.999Z</time></trkpt><trkpt lat="37.57842326706371" lon="13.21914423654977"><ele>842.5714285714286</ele><time>2026-04-18T09:45:44.999Z</time></trkpt><trkpt lat="37.578358311530906" lon="13.219174138222492"><ele>839.7142857142857</ele><time>2026-04-18T09:45:50.999Z</time></trkpt><trkpt lat="37.57829531106793" lon="13.219208740040855"><ele>836.8571428571429</ele><time>2026-04-18T09:45:56.999Z</time></trkpt><trkpt lat="37.57822399028263" lon="13.219227145604172"><ele>834.0</ele><time>2026-04-18T09:46:02.999Z</time></trkpt><trkpt lat="37.57816006784048" lon="13.219220776144867"><ele>834.0</ele><time>2026-04-18T09:46:09.999Z</time></trkpt><trkpt lat="37.57823471136455" lon="13.219209565914054"><ele>834.0</ele><time>2026-04-18T09:46:53.999Z</time></trkpt><trkpt lat="37.57831242146582" lon="13.21920118526963"><ele>834.0</ele><time>2026-04-18T09:46:59.999Z</time></trkpt><trkpt lat="37.57837455434335" lon="13.21916449560151"><ele>834.0</ele><time>2026-04-18T09:47:07.999Z</time></trkpt><trkpt lat="37.57843286440285" lon="13.219126285840074"><ele>834.0</ele><time>2026-04-18T09:47:15.999Z</time></trkpt><trkpt lat="37.578492664175535" lon="13.219078087128048"><ele>834.0</ele><time>2026-04-18T09:47:25Z</time></trkpt><trkpt lat="37.578553577864746" lon="13.219032543809389"><ele>834.0</ele><time>2026-04-18T09:47:35Z</time></trkpt><trkpt lat="37.57861580721811" lon="13.218986405422656"><ele>836.8571428571429</ele><time>2026-04-18T09:48:10Z</time></trkpt><trkpt lat="37.57868564821292" lon="13.218967358430037"><ele>839.7142857142857</ele><time>2026-04-18T09:48:18Z</time></trkpt><trkpt lat="37.578730103665094" lon="13.218907393100167"><ele>842.5714285714286</ele><time>2026-04-18T09:48:24Z</time></trkpt><trkpt lat="37.5787884403038" lon="13.218860887417001"><ele>845.4285714285714</ele><time>2026-04-18T09:48:33Z</time></trkpt><trkpt lat="37.57884145942406" lon="13.218809087652867"><ele>848.2857142857142</ele><time>2026-04-18T09:48:40.999Z</time></trkpt><trkpt lat="37.578906456395764" lon="13.218802469586246"><ele>851.1428571428571</ele><time>2026-04-18T09:48:47.999Z</time></trkpt><trkpt lat="37.578980447184506" lon="13.218820598246834"><ele>854.0</ele><time>2026-04-18T09:48:54.999Z</time></trkpt><trkpt lat="37.57899165447647" lon="13.218733003562294"><ele>854.0</ele><time>2026-04-18T09:49:03Z</time></trkpt><trkpt lat="37.578997318149014" lon="13.218649122968968"><ele>854.0</ele><time>2026-04-18T09:49:09Z</time></trkpt><trkpt lat="37.579002117373065" lon="13.218552897017167"><ele>854.0</ele><time>2026-04-18T09:49:16Z</time></trkpt><trkpt lat="37.5790023373234" lon="13.218461537579326"><ele>854.0</ele><time>2026-04-18T09:49:21Z</time></trkpt><trkpt lat="37.57901392986545" lon="13.218371901980984"><ele>854.0</ele><time>2026-04-18T09:49:26Z</time></trkpt><trkpt lat="37.579016148019505" lon="13.218287391574675"><ele>854.0</ele><time>2026-04-18T09:49:31Z</time></trkpt><trkpt lat="37.5790245165436" lon="13.21820262754046"><ele>854.0</ele><time>2026-04-18T09:49:36Z</time></trkpt><trkpt lat="37.57906155608451" lon="13.21813081787869"><ele>853.5714285714286</ele><time>2026-04-18T09:49:41Z</time></trkpt><trkpt lat="37.579106728087766" lon="13.218070993205265"><ele>853.1428571428571</ele><time>2026-04-18T09:49:46Z</time></trkpt><trkpt lat="37.5790994876729" lon="13.217968428363488"><ele>852.7142857142858</ele><time>2026-04-18T09:53:37Z</time></trkpt><trkpt lat="37.57906591968204" lon="13.217891166974962"><ele>852.2857142857142</ele><time>2026-04-18T09:53:39Z</time></trkpt><trkpt lat="37.57902903401535" lon="13.217821553925026"><ele>851.8571428571429</ele><time>2026-04-18T09:53:41Z</time></trkpt><trkpt lat="37.57898433553131" lon="13.217749761125797"><ele>851.4285714285714</ele><time>2026-04-18T09:53:43Z</time></trkpt><trkpt lat="37.57894955931706" lon="13.217676148410156"><ele>851.0</ele><time>2026-04-18T09:53:45Z</time></trkpt><trkpt lat="37.57890291424996" lon="13.217550725050563"><ele>851.0000000000001</ele><time>2026-04-18T09:53:47Z</time></trkpt><trkpt lat="37.57884822430495" lon="13.217439439905107"><ele>851.0</ele><time>2026-04-18T09:53:49Z</time></trkpt><trkpt lat="37.57882563504846" lon="13.217344507018499"><ele>851.0</ele><time>2026-04-18T09:53:51Z</time></trkpt><trkpt lat="37.57877262064759" lon="13.217254463676491"><ele>851.0</ele><time>2026-04-18T09:53:54Z</time></trkpt><trkpt lat="37.57872829492066" lon="13.217192717212058"><ele>851.0000000000001</ele><time>2026-04-18T09:53:56Z</time></trkpt><trkpt lat="37.57864627387097" lon="13.217137003132214"><ele>851.0</ele><time>2026-04-18T09:53:59Z</time></trkpt><trkpt lat="37.5785827042" lon="13.217115478248493"><ele>851.8333333333334</ele><time>2026-04-18T09:54:01Z</time></trkpt><trkpt lat="37.57852133103137" lon="13.217059604830412"><ele>852.6666666666667</ele><time>2026-04-18T09:54:03.001Z</time></trkpt><trkpt lat="37.57845623124811" lon="13.217028574757116"><ele>853.5</ele><time>2026-04-18T09:54:06.001Z</time></trkpt><trkpt lat="37.578396535222275" lon="13.217003087511246"><ele>854.3333333333333</ele><time>2026-04-18T09:54:14.001Z</time></trkpt><trkpt lat="37.578302963905294" lon="13.216962261722287"><ele>855.1666666666666</ele><time>2026-04-18T09:54:17.001Z</time></trkpt><trkpt lat="37.57823543665445" lon="13.216924582723388"><ele>856.0</ele><time>2026-04-18T09:54:19.001Z</time></trkpt><trkpt lat="37.57816915613455" lon="13.216873200262524"><ele>855.9999999999999</ele><time>2026-04-18T09:54:22.001Z</time></trkpt><trkpt lat="37.57813612215509" lon="13.21679412543554"><ele>856.0</ele><time>2026-04-18T09:54:26.001Z</time></trkpt><trkpt lat="37.57809488719905" lon="13.216720373932052"><ele>856.0</ele><time>2026-04-18T09:54:28.001Z</time></trkpt><trkpt lat="37.578057395086084" lon="13.216630245628316"><ele>856.0</ele><time>2026-04-18T09:54:30.001Z</time></trkpt><trkpt lat="37.57803060947041" lon="13.21654045426902"><ele>855.9999999999999</ele><time>2026-04-18T09:54:32.001Z</time></trkpt><trkpt lat="37.57799555018713" lon="13.216460241412817"><ele>856.0</ele><time>2026-04-18T09:54:34.001Z</time></trkpt><trkpt lat="37.57795134240335" lon="13.216357126270772"><ele>858.1999999999999</ele><time>2026-04-18T09:54:37.001Z</time></trkpt><trkpt lat="37.57796564971311" lon="13.216263361099843"><ele>860.3999999999999</ele><time>2026-04-18T09:54:39.001Z</time></trkpt><trkpt lat="37.57792843151478" lon="13.216154085998541"><ele>862.6</ele><time>2026-04-18T09:54:41.001Z</time></trkpt><trkpt lat="37.5777810419798" lon="13.216214658354314"><ele>864.8</ele><time>2026-04-18T09:54:42.001Z</time></trkpt><trkpt lat="37.57770122965393" lon="13.216181462073614"><ele>867.0</ele><time>2026-04-18T09:54:44.001Z</time></trkpt><trkpt lat="37.57761102583333" lon="13.216140570106232"><ele>862.6666666666666</ele><time>2026-04-18T09:54:46.001Z</time></trkpt><trkpt lat="37.57753911710406" lon="13.216082025129232"><ele>858.3333333333333</ele><time>2026-04-18T09:54:48.001Z</time></trkpt><trkpt lat="37.57746028048146" lon="13.21602780203486"><ele>854.0</ele><time>2026-04-18T09:54:50.001Z</time></trkpt><trkpt lat="37.57741261830509" lon="13.215945663968647"><ele>849.6666666666666</ele><time>2026-04-18T09:54:52.001Z</time></trkpt><trkpt lat="37.57736210931663" lon="13.215867287276408"><ele>845.3333333333333</ele><time>2026-04-18T09:54:54.001Z</time></trkpt><trkpt lat="37.5773380527084" lon="13.215778867890963"><ele>841.0</ele><time>2026-04-18T09:54:56.001Z</time></trkpt><trkpt lat="37.577306179080985" lon="13.215693619876097"><ele>840.6666666666666</ele><time>2026-04-18T09:54:58.001Z</time></trkpt><trkpt lat="37.57728983185837" lon="13.21558982117288"><ele>840.3333333333333</ele><time>2026-04-18T09:55:00.999Z</time></trkpt><trkpt lat="37.57726702354562" lon="13.215495373435663"><ele>840.0</ele><time>2026-04-18T09:55:02.999Z</time></trkpt><trkpt lat="37.577235734969655" lon="13.215385737482476"><ele>839.6666666666667</ele><time>2026-04-18T09:55:05.999Z</time></trkpt><trkpt lat="37.57721346812479" lon="13.215309818778168"><ele>839.3333333333334</ele><time>2026-04-18T09:55:07.999Z</time></trkpt><trkpt lat="37.57718046977866" lon="13.215231037283578"><ele>839.0</ele><time>2026-04-18T09:55:10.999Z</time></trkpt><trkpt lat="37.5771513606886" lon="13.215336390085017"><ele>839.0000000000001</ele><time>2026-04-18T09:55:17Z</time></trkpt><trkpt lat="37.577188919369654" lon="13.215400867011528"><ele>839.0</ele><time>2026-04-18T09:55:19Z</time></trkpt><trkpt lat="37.57723205188771" lon="13.215491641108049"><ele>839.0</ele><time>2026-04-18T09:55:22Z</time></trkpt><trkpt lat="37.577181616737995" lon="13.21559385743708"><ele>839.0</ele><time>2026-04-18T09:55:25Z</time></trkpt><trkpt lat="37.57709529850146" lon="13.215633728323825"><ele>839.0000000000001</ele><time>2026-04-18T09:55:27Z</time></trkpt><trkpt lat="37.57704367612785" lon="13.215680322613757"><ele>839.0</ele><time>2026-04-18T09:55:29Z</time></trkpt><trkpt lat="37.57697526092819" lon="13.215732997679774"><ele>839.4000000000001</ele><time>2026-04-18T09:55:32Z</time></trkpt><trkpt lat="37.57695183494369" lon="13.215856120941112"><ele>839.8</ele><time>2026-04-18T09:55:35Z</time></trkpt><trkpt lat="37.57696441616391" lon="13.215970098944622"><ele>840.2</ele><time>2026-04-18T09:55:36Z</time></trkpt><trkpt lat="37.57698947929065" lon="13.216093025989306"><ele>840.5999999999999</ele><time>2026-04-18T09:55:38Z</time></trkpt><trkpt lat="37.577029819475264" lon="13.216177245890876"><ele>841.0</ele><time>2026-04-18T09:55:40Z</time></trkpt><trkpt lat="37.57704231787785" lon="13.21628078263627"><ele>841.0</ele><time>2026-04-18T09:55:42Z</time></trkpt><trkpt lat="37.57705011417226" lon="13.216386483809513"><ele>841.0</ele><time>2026-04-18T09:55:44Z</time></trkpt><trkpt lat="37.57705626462327" lon="13.216519199967626"><ele>841.0</ele><time>2026-04-18T09:55:46Z</time></trkpt><trkpt lat="37.57709270360855" lon="13.216633674313602"><ele>841.0</ele><time>2026-04-18T09:55:48Z</time></trkpt><trkpt lat="37.577127266068345" lon="13.216748698087414"><ele>841.0</ele><time>2026-04-18T09:55:50Z</time></trkpt><trkpt lat="37.57716957965415" lon="13.216878271257993"><ele>839.4999999999999</ele><time>2026-04-18T09:55:52Z</time></trkpt><trkpt lat="37.577207490334814" lon="13.216989521831785"><ele>838.0</ele><time>2026-04-18T09:55:54Z</time></trkpt><trkpt lat="37.57722441158532" lon="13.217086148913053"><ele>836.5</ele><time>2026-04-18T09:55:56Z</time></trkpt><trkpt lat="37.57728035314721" lon="13.217172223434247"><ele>835.0</ele><time>2026-04-18T09:55:58Z</time></trkpt><trkpt lat="37.57733740467978" lon="13.217245535115364"><ele>833.4999999999999</ele><time>2026-04-18T09:56:01Z</time></trkpt><trkpt lat="37.57737830966643" lon="13.21732088569293"><ele>832.0</ele><time>2026-04-18T09:56:03Z</time></trkpt><trkpt lat="37.577402813443165" lon="13.21741189263304"><ele>828.9999999999999</ele><time>2026-04-18T09:56:05Z</time></trkpt><trkpt lat="37.57743400045724" lon="13.217512306534339"><ele>826.0</ele><time>2026-04-18T09:56:07Z</time></trkpt><trkpt lat="37.577460442285734" lon="13.21761554711765"><ele>823.0</ele><time>2026-04-18T09:56:09Z</time></trkpt><trkpt lat="37.57748309905732" lon="13.217709870241642"><ele>820.0</ele><time>2026-04-18T09:56:11Z</time></trkpt><trkpt lat="37.57753678112411" lon="13.217771195244104"><ele>816.9999999999999</ele><time>2026-04-18T09:56:13Z</time></trkpt><trkpt lat="37.57756328239151" lon="13.217856896319459"><ele>814.0</ele><time>2026-04-18T09:56:15Z</time></trkpt><trkpt lat="37.57762184305062" lon="13.217932029553785"><ele>814.0</ele><time>2026-04-18T09:56:17Z</time></trkpt><trkpt lat="37.57766705149405" lon="13.218020083001258"><ele>814.0</ele><time>2026-04-18T09:56:19Z</time></trkpt><trkpt lat="37.57769063701257" lon="13.218116517734346"><ele>814.0</ele><time>2026-04-18T09:56:23Z</time></trkpt><trkpt lat="37.577710819000885" lon="13.218220748282144"><ele>814.0</ele><time>2026-04-18T09:56:25Z</time></trkpt><trkpt lat="37.577734359037635" lon="13.218346656464442"><ele>814.0</ele><time>2026-04-18T09:56:27Z</time></trkpt><trkpt lat="37.577742248667434" lon="13.218489910733835"><ele>809.8000000000001</ele><time>2026-04-18T09:56:29Z</time></trkpt><trkpt lat="37.57776189791328" lon="13.218617355065728"><ele>805.6</ele><time>2026-04-18T09:56:31Z</time></trkpt><trkpt lat="37.57772408532427" lon="13.218736736236682"><ele>801.4</ele><time>2026-04-18T09:56:33Z</time></trkpt><trkpt lat="37.577650072909975" lon="13.218845619320552"><ele>797.2</ele><time>2026-04-18T09:56:35Z</time></trkpt><trkpt lat="37.57760177764113" lon="13.218968998906004"><ele>793.0</ele><time>2026-04-18T09:56:37Z</time></trkpt><trkpt lat="37.57759431661799" lon="13.219120850861202"><ele>791.8571428571429</ele><time>2026-04-18T09:56:39.001Z</time></trkpt><trkpt lat="37.57759360292078" lon="13.219203183023767"><ele>790.7142857142858</ele><time>2026-04-18T09:56:40.001Z</time></trkpt><trkpt lat="37.57757230601197" lon="13.219279776821681"><ele>789.5714285714287</ele><time>2026-04-18T09:56:41.001Z</time></trkpt><trkpt lat="37.577568114526265" lon="13.219361431704936"><ele>788.4285714285714</ele><time>2026-04-18T09:56:42.001Z</time></trkpt><trkpt lat="37.57757798082772" lon="13.219445656040007"><ele>787.2857142857142</ele><time>2026-04-18T09:56:43.001Z</time></trkpt><trkpt lat="37.577564193009216" lon="13.219526867064022"><ele>786.1428571428572</ele><time>2026-04-18T09:56:44.001Z</time></trkpt><trkpt lat="37.57753978635932" lon="13.21960972132658"><ele>785.0</ele><time>2026-04-18T09:56:45.001Z</time></trkpt><trkpt lat="37.5775107192743" lon="13.219700696587015"><ele>785.0000000000001</ele><time>2026-04-18T09:56:46.001Z</time></trkpt><trkpt lat="37.577476438629404" lon="13.219791667424769"><ele>785.0</ele><time>2026-04-18T09:56:47.001Z</time></trkpt><trkpt lat="37.577442404301955" lon="13.219874226669143"><ele>785.0</ele><time>2026-04-18T09:56:48.001Z</time></trkpt><trkpt lat="37.57740847057797" lon="13.219946396267373"><ele>785.0</ele><time>2026-04-18T09:56:49.001Z</time></trkpt><trkpt lat="37.577336157061026" lon="13.220055045011165"><ele>785.0000000000001</ele><time>2026-04-18T09:56:51.001Z</time></trkpt><trkpt lat="37.577276051897556" lon="13.220116526526377"><ele>785.0</ele><time>2026-04-18T09:56:53.001Z</time></trkpt><trkpt lat="37.57721556802785" lon="13.220167481071947"><ele>785.2</ele><time>2026-04-18T09:56:55.001Z</time></trkpt><trkpt lat="37.577149016023924" lon="13.220244503980899"><ele>785.4</ele><time>2026-04-18T09:56:57.001Z</time></trkpt><trkpt lat="37.577092092818766" lon="13.220346507288909"><ele>785.5999999999999</ele><time>2026-04-18T09:56:59.001Z</time></trkpt><trkpt lat="37.57702487220274" lon="13.220436214494264"><ele>785.8</ele><time>2026-04-18T09:57:01.001Z</time></trkpt><trkpt lat="37.57693734316391" lon="13.22048932380079"><ele>786.0</ele><time>2026-04-18T09:57:03.001Z</time></trkpt><trkpt lat="37.57684417193257" lon="13.220537547550027"><ele>780.8</ele><time>2026-04-18T09:57:05Z</time></trkpt><trkpt lat="37.576753375703795" lon="13.220587241530637"><ele>775.5999999999999</ele><time>2026-04-18T09:57:07Z</time></trkpt><trkpt lat="37.57673671580953" lon="13.220666995828015"><ele>770.4</ele><time>2026-04-18T09:57:08Z</time></trkpt><trkpt lat="37.57670080866035" lon="13.220765367015531"><ele>765.2</ele><time>2026-04-18T09:57:10Z</time></trkpt><trkpt lat="37.57665991638325" lon="13.220875679733172"><ele>760.0</ele><time>2026-04-18T09:57:12Z</time></trkpt><trkpt lat="37.57659732919793" lon="13.220988367839286"><ele>760.0</ele><time>2026-04-18T09:57:14Z</time></trkpt><trkpt lat="37.57653770650331" lon="13.221074654127317"><ele>760.0</ele><time>2026-04-18T09:57:16Z</time></trkpt><trkpt lat="37.576496094511995" lon="13.221149200618084"><ele>760.0</ele><time>2026-04-18T09:57:18Z</time></trkpt><trkpt lat="37.57642668099603" lon="13.221187643277709"><ele>760.0</ele><time>2026-04-18T09:57:21Z</time></trkpt><trkpt lat="37.57647636025154" lon="13.221329808396572"><ele>760.0</ele><time>2026-04-18T09:57:22Z</time></trkpt><trkpt lat="37.576493499346334" lon="13.221482790186444"><ele>759.2857142857143</ele><time>2026-04-18T09:57:24Z</time></trkpt><trkpt lat="37.57650927795908" lon="13.221570001062036"><ele>758.5714285714287</ele><time>2026-04-18T09:57:25Z</time></trkpt><trkpt lat="37.576525927740065" lon="13.221661130452"><ele>757.8571428571429</ele><time>2026-04-18T09:57:26Z</time></trkpt><trkpt lat="37.57652383902575" lon="13.221756516140655"><ele>757.1428571428571</ele><time>2026-04-18T09:57:27Z</time></trkpt><trkpt lat="37.57653604922009" lon="13.221837111671805"><ele>756.4285714285714</ele><time>2026-04-18T09:57:28Z</time></trkpt><trkpt lat="37.57655200421166" lon="13.22192662972954"><ele>755.7142857142857</ele><time>2026-04-18T09:57:29Z</time></trkpt><trkpt lat="37.57657139890624" lon="13.222006618310854"><ele>755.0</ele><time>2026-04-18T09:57:30Z</time></trkpt><trkpt lat="37.57661341096135" lon="13.222084759510688"><ele>755.0</ele><time>2026-04-18T09:57:31Z</time></trkpt><trkpt lat="37.57663812867658" lon="13.222173220516574"><ele>755.0</ele><time>2026-04-18T09:57:32Z</time></trkpt><trkpt lat="37.57666224357093" lon="13.22226570814101"><ele>755.0</ele><time>2026-04-18T09:57:33Z</time></trkpt><trkpt lat="37.57669928573602" lon="13.222359042956414"><ele>755.0</ele><time>2026-04-18T09:57:34Z</time></trkpt><trkpt lat="37.57673688907494" lon="13.222459666781758"><ele>755.0</ele><time>2026-04-18T09:57:35Z</time></trkpt><trkpt lat="37.57677906798637" lon="13.222556316705774"><ele>755.0</ele><time>2026-04-18T09:57:36Z</time></trkpt><trkpt lat="37.57682022219388" lon="13.222652536954353"><ele>753.4</ele><time>2026-04-18T09:57:37Z</time></trkpt><trkpt lat="37.57686181002986" lon="13.22275054019721"><ele>751.8</ele><time>2026-04-18T09:57:38Z</time></trkpt><trkpt lat="37.576903666211166" lon="13.222851244143046"><ele>750.2</ele><time>2026-04-18T09:57:39Z</time></trkpt><trkpt lat="37.57694890955678" lon="13.222955223387622"><ele>748.6</ele><time>2026-04-18T09:57:40Z</time></trkpt><trkpt lat="37.57699374982226" lon="13.223063022071482"><ele>747.0</ele><time>2026-04-18T09:57:41Z</time></trkpt><trkpt lat="37.577034736871944" lon="13.223176291874273"><ele>747.0</ele><time>2026-04-18T09:57:42Z</time></trkpt><trkpt lat="37.57707020443249" lon="13.223292840946048"><ele>747.0</ele><time>2026-04-18T09:57:43Z</time></trkpt><trkpt lat="37.57710372023948" lon="13.223413885328828"><ele>747.0</ele><time>2026-04-18T09:57:44Z</time></trkpt><trkpt lat="37.577127376690505" lon="13.223536997723329"><ele>747.0</ele><time>2026-04-18T09:57:45Z</time></trkpt><trkpt lat="37.57713750165803" lon="13.223671324056763"><ele>747.0</ele><time>2026-04-18T09:57:46Z</time></trkpt><trkpt lat="37.57715192728046" lon="13.223797644014374"><ele>747.0</ele><time>2026-04-18T09:57:47Z</time></trkpt><trkpt lat="37.57715468542463" lon="13.223920812165803"><ele>747.0</ele><time>2026-04-18T09:57:48Z</time></trkpt><trkpt lat="37.57715465606939" lon="13.224038823376235"><ele>747.0</ele><time>2026-04-18T09:57:49Z</time></trkpt><trkpt lat="37.57715589089881" lon="13.224153010377472"><ele>747.0</ele><time>2026-04-18T09:57:50Z</time></trkpt><trkpt lat="37.57714956655337" lon="13.224271046258453"><ele>747.0</ele><time>2026-04-18T09:57:51Z</time></trkpt><trkpt lat="37.577140452883356" lon="13.224379463676163"><ele>745.0</ele><time>2026-04-18T09:57:52Z</time></trkpt><trkpt lat="37.577135771101496" lon="13.224486684361489"><ele>743.0</ele><time>2026-04-18T09:57:53Z</time></trkpt><trkpt lat="37.57712736888692" lon="13.224592118582093"><ele>741.0</ele><time>2026-04-18T09:57:54Z</time></trkpt><trkpt lat="37.57712045522602" lon="13.224693434192071"><ele>739.0</ele><time>2026-04-18T09:57:55Z</time></trkpt><trkpt lat="37.57710895286305" lon="13.224792696685789"><ele>737.0</ele><time>2026-04-18T09:57:56Z</time></trkpt><trkpt lat="37.57708756816201" lon="13.224885686167157"><ele>735.0</ele><time>2026-04-18T09:57:57Z</time></trkpt><trkpt lat="37.57705616719844" lon="13.224966960816776"><ele>731.3333333333334</ele><time>2026-04-18T09:57:58Z</time></trkpt><trkpt lat="37.577014394543944" lon="13.225075214026988"><ele>727.6666666666666</ele><time>2026-04-18T09:58:00Z</time></trkpt><trkpt lat="37.57695765977782" lon="13.225200444527863"><ele>724.0</ele><time>2026-04-18T09:58:02Z</time></trkpt><trkpt lat="37.57692561947151" lon="13.225276635018583"><ele>720.3333333333333</ele><time>2026-04-18T09:58:03Z</time></trkpt><trkpt lat="37.576895270889736" lon="13.225353607383267"><ele>716.6666666666666</ele><time>2026-04-18T09:58:04Z</time></trkpt><trkpt lat="37.576840567750345" lon="13.225402227565432"><ele>713.0</ele><time>2026-04-18T09:58:05Z</time></trkpt><trkpt lat="37.57679651483127" lon="13.225459959215016"><ele>713.0</ele><time>2026-04-18T09:58:06Z</time></trkpt><trkpt lat="37.57669237257236" lon="13.225536868714617"><ele>713.0</ele><time>2026-04-18T09:58:08Z</time></trkpt><trkpt lat="37.57662834560019" lon="13.225528736101838"><ele>713.0</ele><time>2026-04-18T09:58:09Z</time></trkpt><trkpt lat="37.576572564676" lon="13.225491033321813"><ele>713.0</ele><time>2026-04-18T09:58:10Z</time></trkpt><trkpt lat="37.57655577862279" lon="13.225405963762283"><ele>713.0</ele><time>2026-04-18T09:58:11Z</time></trkpt><trkpt lat="37.57652995944878" lon="13.225328261725902"><ele>713.0</ele><time>2026-04-18T09:58:12Z</time></trkpt><trkpt lat="37.576507094710045" lon="13.22524345573642"><ele>713.0</ele><time>2026-04-18T09:58:13Z</time></trkpt><trkpt lat="37.57648603845541" lon="13.225155478966844"><ele>713.0</ele><time>2026-04-18T09:58:14Z</time></trkpt><trkpt lat="37.57646646158626" lon="13.225064231939957"><ele>713.0</ele><time>2026-04-18T09:58:15Z</time></trkpt><trkpt lat="37.57644738480768" lon="13.224972594116332"><ele>713.0</ele><time>2026-04-18T09:58:16.001Z</time></trkpt><trkpt lat="37.57642987497734" lon="13.224888483371641"><ele>713.0</ele><time>2026-04-18T09:58:17.001Z</time></trkpt><trkpt lat="37.57639587157655" lon="13.224740918287079"><ele>713.0</ele><time>2026-04-18T09:58:19.001Z</time></trkpt><trkpt lat="37.576358101131476" lon="13.224645636724528"><ele>713.0</ele><time>2026-04-18T09:58:21.001Z</time></trkpt><trkpt lat="37.57631172333944" lon="13.224580772105815"><ele>713.0</ele><time>2026-04-18T09:58:27.001Z</time></trkpt><trkpt lat="37.576397844462605" lon="13.224740991491121"><ele>713.0</ele><time>2026-04-18T09:58:33.001Z</time></trkpt><trkpt lat="37.57642221466777" lon="13.224828503173098"><ele>713.0</ele><time>2026-04-18T09:58:34.001Z</time></trkpt><trkpt lat="37.57643740895848" lon="13.22491767564385"><ele>713.0</ele><time>2026-04-18T09:58:35.001Z</time></trkpt><trkpt lat="37.57608756570212" lon="13.22516011717516"><ele>711.5</ele><time>2026-04-18T09:58:37.001Z</time></trkpt><trkpt lat="37.576015001442805" lon="13.225202234240115"><ele>710.0</ele><time>2026-04-18T09:58:38.001Z</time></trkpt><trkpt lat="37.57593351700242" lon="13.225200509894258"><ele>708.5</ele><time>2026-04-18T09:58:39.001Z</time></trkpt><trkpt lat="37.57585779890401" lon="13.225165704350983"><ele>707.0</ele><time>2026-04-18T09:58:40.001Z</time></trkpt><trkpt lat="37.57579434850443" lon="13.225116354921418"><ele>705.5</ele><time>2026-04-18T09:58:41.001Z</time></trkpt><trkpt lat="37.57573201556809" lon="13.225057643788343"><ele>704.0</ele><time>2026-04-18T09:58:42.001Z</time></trkpt><trkpt lat="37.575664682945046" lon="13.22499121675489"><ele>704.0</ele><time>2026-04-18T09:58:43.001Z</time></trkpt><trkpt lat="37.57558708631211" lon="13.224936041317191"><ele>704.0</ele><time>2026-04-18T09:58:44.001Z</time></trkpt><trkpt lat="37.57551421204938" lon="13.224866901727612"><ele>704.0</ele><time>2026-04-18T09:58:45.001Z</time></trkpt><trkpt lat="37.57541975013076" lon="13.224844510231154"><ele>704.0</ele><time>2026-04-18T09:58:46.001Z</time></trkpt><trkpt lat="37.5753322167717" lon="13.22481263818871"><ele>704.0</ele><time>2026-04-18T09:58:47.001Z</time></trkpt><trkpt lat="37.575245041059475" lon="13.224791500689355"><ele>702.6</ele><time>2026-04-18T09:58:48.001Z</time></trkpt><trkpt lat="37.57515503712361" lon="13.224789231427248"><ele>701.2</ele><time>2026-04-18T09:58:49.001Z</time></trkpt><trkpt lat="37.575062409148444" lon="13.22481175034073"><ele>699.8000000000001</ele><time>2026-04-18T09:58:50.001Z</time></trkpt><trkpt lat="37.574974744033234" lon="13.224855217680565"><ele>698.4000000000001</ele><time>2026-04-18T09:58:51.001Z</time></trkpt><trkpt lat="37.57489746655858" lon="13.224913342883742"><ele>697.0</ele><time>2026-04-18T09:58:52.001Z</time></trkpt><trkpt lat="37.57481930734766" lon="13.224962547910453"><ele>697.0</ele><time>2026-04-18T09:58:53.001Z</time></trkpt><trkpt lat="37.57477635757239" lon="13.225079235866405"><ele>697.0</ele><time>2026-04-18T09:58:54.001Z</time></trkpt><trkpt lat="37.574729932903715" lon="13.225191986074778"><ele>697.0</ele><time>2026-04-18T09:58:55.001Z</time></trkpt><trkpt lat="37.57469631360416" lon="13.225319168233431"><ele>697.0</ele><time>2026-04-18T09:58:56.001Z</time></trkpt><trkpt lat="37.5746741594047" lon="13.225453772141238"><ele>697.0</ele><time>2026-04-18T09:58:57.001Z</time></trkpt><trkpt lat="37.574647687933336" lon="13.225583657759756"><ele>699.8</ele><time>2026-04-18T09:58:58.001Z</time></trkpt><trkpt lat="37.57463616567822" lon="13.225710854916988"><ele>702.6</ele><time>2026-04-18T09:58:59.001Z</time></trkpt><trkpt lat="37.574624149420984" lon="13.225834312967052"><ele>705.4</ele><time>2026-04-18T09:59:00.001Z</time></trkpt><trkpt lat="37.574617939036614" lon="13.225947296592121"><ele>708.1999999999999</ele><time>2026-04-18T09:59:01.001Z</time></trkpt><trkpt lat="37.57457858028162" lon="13.226044990943315"><ele>711.0</ele><time>2026-04-18T09:59:02.001Z</time></trkpt><trkpt lat="37.5745042011387" lon="13.226115927980786"><ele>705.0</ele><time>2026-04-18T09:59:03.001Z</time></trkpt><trkpt lat="37.574432473417346" lon="13.226212786832303"><ele>699.0</ele><time>2026-04-18T09:59:04.001Z</time></trkpt><trkpt lat="37.574369137007686" lon="13.226327349614536"><ele>693.0</ele><time>2026-04-18T09:59:05.001Z</time></trkpt><trkpt lat="37.57431601276304" lon="13.226452076118001"><ele>687.0</ele><time>2026-04-18T09:59:06.001Z</time></trkpt><trkpt lat="37.5742682187456" lon="13.226571517927079"><ele>681.0</ele><time>2026-04-18T09:59:07.001Z</time></trkpt><trkpt lat="37.57422762941662" lon="13.22669141873533"><ele>681.0</ele><time>2026-04-18T09:59:08.001Z</time></trkpt><trkpt lat="37.574194969051796" lon="13.22681738352743"><ele>681.0</ele><time>2026-04-18T09:59:09.001Z</time></trkpt><trkpt lat="37.574164578215935" lon="13.226949469998123"><ele>681.0</ele><time>2026-04-18T09:59:10.001Z</time></trkpt><trkpt lat="37.57413604332985" lon="13.227073490047633"><ele>681.0</ele><time>2026-04-18T09:59:11Z</time></trkpt><trkpt lat="37.57410813085064" lon="13.227188396074768"><ele>681.0</ele><time>2026-04-18T09:59:12Z</time></trkpt><trkpt lat="37.574061689981015" lon="13.227279192769187"><ele>683.3333333333334</ele><time>2026-04-18T09:59:13Z</time></trkpt><trkpt lat="37.5739822045827" lon="13.227321449855149"><ele>685.6666666666666</ele><time>2026-04-18T09:59:14Z</time></trkpt><trkpt lat="37.57390542417814" lon="13.227377661942581"><ele>688.0</ele><time>2026-04-18T09:59:15Z</time></trkpt><trkpt lat="37.57381413919457" lon="13.227358208562448"><ele>690.3333333333333</ele><time>2026-04-18T09:59:16Z</time></trkpt><trkpt lat="37.57372927916793" lon="13.227343655425742"><ele>692.6666666666666</ele><time>2026-04-18T09:59:17Z</time></trkpt><trkpt lat="37.57364855754864" lon="13.227286814645455"><ele>695.0</ele><time>2026-04-18T09:59:18Z</time></trkpt><trkpt lat="37.57356511883253" lon="13.22725915729202"><ele>692.0</ele><time>2026-04-18T09:59:19Z</time></trkpt><trkpt lat="37.5734687874145" lon="13.22727132972135"><ele>689.0</ele><time>2026-04-18T09:59:20Z</time></trkpt><trkpt lat="37.57336498841051" lon="13.227318720540174"><ele>686.0</ele><time>2026-04-18T09:59:21Z</time></trkpt><trkpt lat="37.57327014624821" lon="13.227393392849692"><ele>683.0</ele><time>2026-04-18T09:59:22Z</time></trkpt><trkpt lat="37.57318615594401" lon="13.22749313048272"><ele>680.0</ele><time>2026-04-18T09:59:23Z</time></trkpt><trkpt lat="37.573115966287936" lon="13.227615624469854"><ele>680.0</ele><time>2026-04-18T09:59:24Z</time></trkpt><trkpt lat="37.57306320773251" lon="13.227742881848132"><ele>680.0</ele><time>2026-04-18T09:59:25Z</time></trkpt><trkpt lat="37.57302946831608" lon="13.227873995252716"><ele>680.0</ele><time>2026-04-18T09:59:26Z</time></trkpt><trkpt lat="37.5730123577719" lon="13.22800518690999"><ele>680.0</ele><time>2026-04-18T09:59:27Z</time></trkpt><trkpt lat="37.57300476599561" lon="13.22812845429738"><ele>680.0</ele><time>2026-04-18T09:59:28Z</time></trkpt><trkpt lat="37.57299932659839" lon="13.228241660852175"><ele>682.6</ele><time>2026-04-18T09:59:29Z</time></trkpt><trkpt lat="37.57298497316357" lon="13.228347878566561"><ele>685.2</ele><time>2026-04-18T09:59:30Z</time></trkpt><trkpt lat="37.572975075269404" lon="13.228462890393018"><ele>687.8</ele><time>2026-04-18T09:59:31Z</time></trkpt><trkpt lat="37.57296135447423" lon="13.228581609093037"><ele>690.4</ele><time>2026-04-18T09:59:32Z</time></trkpt><trkpt lat="37.57293730812084" lon="13.228699670632208"><ele>693.0</ele><time>2026-04-18T09:59:33Z</time></trkpt><trkpt lat="37.57290775361961" lon="13.228817197651741"><ele>693.0</ele><time>2026-04-18T09:59:34Z</time></trkpt><trkpt lat="37.57287746125194" lon="13.228937178245232"><ele>693.0</ele><time>2026-04-18T09:59:35Z</time></trkpt><trkpt lat="37.572844949735924" lon="13.229058044007159"><ele>693.0</ele><time>2026-04-18T09:59:36Z</time></trkpt><trkpt lat="37.572816635406" lon="13.229177065390298"><ele>693.0</ele><time>2026-04-18T09:59:37Z</time></trkpt><trkpt lat="37.57279399173676" lon="13.229307436390885"><ele>693.0</ele><time>2026-04-18T09:59:38Z</time></trkpt><trkpt lat="37.572784122694635" lon="13.229444313155229"><ele>683.0</ele><time>2026-04-18T09:59:39Z</time></trkpt><trkpt lat="37.57278190688959" lon="13.22959432705433"><ele>673.0</ele><time>2026-04-18T09:59:40Z</time></trkpt><trkpt lat="37.57278368243183" lon="13.229751225335988"><ele>663.0</ele><time>2026-04-18T09:59:41Z</time></trkpt><trkpt lat="37.57278746670397" lon="13.229901795040748"><ele>653.0</ele><time>2026-04-18T09:59:42Z</time></trkpt><trkpt lat="37.572792762368344" lon="13.230040430664111"><ele>653.0</ele><time>2026-04-18T09:59:43Z</time></trkpt><trkpt lat="37.57280417088668" lon="13.230167111735016"><ele>653.0</ele><time>2026-04-18T09:59:44Z</time></trkpt><trkpt lat="37.57282513779978" lon="13.230285025352172"><ele>653.0</ele><time>2026-04-18T09:59:45Z</time></trkpt><trkpt lat="37.57285155849157" lon="13.230394107376702"><ele>653.0</ele><time>2026-04-18T09:59:46Z</time></trkpt><trkpt lat="37.57288022658093" lon="13.230490254190912"><ele>653.0</ele><time>2026-04-18T09:59:47Z</time></trkpt><trkpt lat="37.57290072832341" lon="13.230575125944732"><ele>653.0</ele><time>2026-04-18T09:59:48Z</time></trkpt><trkpt lat="37.57289298436226" lon="13.230716962500818"><ele>653.0</ele><time>2026-04-18T09:59:50Z</time></trkpt><trkpt lat="37.572794409747175" lon="13.230769966386221"><ele>653.0</ele><time>2026-04-18T09:59:52Z</time></trkpt><trkpt lat="37.57271765373343" lon="13.230678358287799"><ele>653.0</ele><time>2026-04-18T09:59:54Z</time></trkpt><trkpt lat="37.57270652028237" lon="13.230596316775374"><ele>653.0</ele><time>2026-04-18T09:59:55Z</time></trkpt><trkpt lat="37.5727096271368" lon="13.230515275209841"><ele>653.0</ele><time>2026-04-18T09:59:56Z</time></trkpt><trkpt lat="37.572713139089124" lon="13.230369360685213"><ele>653.0000000000001</ele><time>2026-04-18T09:59:58Z</time></trkpt><trkpt lat="37.572714069035925" lon="13.230281482697992"><ele>653.0</ele><time>2026-04-18T09:59:59Z</time></trkpt><trkpt lat="37.572707597146184" lon="13.230187533894679"><ele>653.0</ele><time>2026-04-18T10:00:00Z</time></trkpt><trkpt lat="37.572699211489216" lon="13.230095017723775"><ele>653.0</ele><time>2026-04-18T10:00:01Z</time></trkpt><trkpt lat="37.57269413114982" lon="13.230003617085005"><ele>653.0</ele><time>2026-04-18T10:00:02Z</time></trkpt><trkpt lat="37.572685919970574" lon="13.229909777537674"><ele>653.0000000000001</ele><time>2026-04-18T10:00:03Z</time></trkpt><trkpt lat="37.5726738994891" lon="13.22980674003757"><ele>653.0</ele><time>2026-04-18T10:00:04Z</time></trkpt><trkpt lat="37.5726689015559" lon="13.229706486843805"><ele>652.5</ele><time>2026-04-18T10:00:05Z</time></trkpt><trkpt lat="37.57266495567046" lon="13.229600953170365"><ele>652.0</ele><time>2026-04-18T10:00:06Z</time></trkpt><trkpt lat="37.57265982292221" lon="13.229499753372082"><ele>651.5</ele><time>2026-04-18T10:00:07Z</time></trkpt><trkpt lat="37.572650636131264" lon="13.229402130515968"><ele>651.0</ele><time>2026-04-18T10:00:08Z</time></trkpt><trkpt lat="37.572645076936034" lon="13.229316181866277"><ele>650.5</ele><time>2026-04-18T10:00:09Z</time></trkpt><trkpt lat="37.57264602897892" lon="13.229233638588902"><ele>650.0</ele><time>2026-04-18T10:00:10.001Z</time></trkpt><trkpt lat="37.572649656299824" lon="13.229133644370167"><ele>649.2</ele><time>2026-04-18T10:00:11.001Z</time></trkpt><trkpt lat="37.57267622887642" lon="13.228931915239103"><ele>648.4</ele><time>2026-04-18T10:00:13.001Z</time></trkpt><trkpt lat="37.57269238534582" lon="13.228833047962523"><ele>647.5999999999999</ele><time>2026-04-18T10:00:14.001Z</time></trkpt><trkpt lat="37.572710019117224" lon="13.228742012638156"><ele>646.8</ele><time>2026-04-18T10:00:15.001Z</time></trkpt><trkpt lat="37.57272212776755" lon="13.228647175362985"><ele>646.0</ele><time>2026-04-18T10:00:16.001Z</time></trkpt><trkpt lat="37.57273931198727" lon="13.228554840609034"><ele>646.0</ele><time>2026-04-18T10:00:17.001Z</time></trkpt><trkpt lat="37.57273800848333" lon="13.228454344904941"><ele>646.0</ele><time>2026-04-18T10:00:18.001Z</time></trkpt><trkpt lat="37.57273220093175" lon="13.22835055969493"><ele>646.0</ele><time>2026-04-18T10:00:19.001Z</time></trkpt><trkpt lat="37.57272367594242" lon="13.228243509490921"><ele>646.0</ele><time>2026-04-18T10:00:20.001Z</time></trkpt><trkpt lat="37.57271714230723" lon="13.228134953087618"><ele>646.0</ele><time>2026-04-18T10:00:21.001Z</time></trkpt><trkpt lat="37.572709824831115" lon="13.22802417972862"><ele>646.0</ele><time>2026-04-18T10:00:22.001Z</time></trkpt><trkpt lat="37.57270168466924" lon="13.227909724322936"><ele>644.8</ele><time>2026-04-18T10:00:23.001Z</time></trkpt><trkpt lat="37.57269723417123" lon="13.227795519649266"><ele>643.5999999999999</ele><time>2026-04-18T10:00:24.001Z</time></trkpt><trkpt lat="37.572705976358286" lon="13.227682367222313"><ele>642.4</ele><time>2026-04-18T10:00:25.001Z</time></trkpt><trkpt lat="37.572725445248764" lon="13.227559305834589"><ele>641.2</ele><time>2026-04-18T10:00:26.001Z</time></trkpt><trkpt lat="37.57275023425965" lon="13.227429439315115"><ele>640.0</ele><time>2026-04-18T10:00:27.001Z</time></trkpt><trkpt lat="37.57278191505126" lon="13.227297343399162"><ele>637.8</ele><time>2026-04-18T10:00:28.001Z</time></trkpt><trkpt lat="37.57283072822062" lon="13.227173324696569"><ele>635.6</ele><time>2026-04-18T10:00:29.001Z</time></trkpt><trkpt lat="37.57284729140246" lon="13.227053239632093"><ele>633.4</ele><time>2026-04-18T10:00:30.001Z</time></trkpt><trkpt lat="37.57287498765737" lon="13.226946571530055"><ele>631.2</ele><time>2026-04-18T10:00:31.001Z</time></trkpt><trkpt lat="37.57289865715379" lon="13.226838061375199"><ele>629.0</ele><time>2026-04-18T10:00:32.001Z</time></trkpt><trkpt lat="37.572923669385325" lon="13.226724082054933"><ele>632.0</ele><time>2026-04-18T10:00:33.001Z</time></trkpt><trkpt lat="37.57296218439413" lon="13.226613510925977"><ele>635.0</ele><time>2026-04-18T10:00:34.001Z</time></trkpt><trkpt lat="37.57299668281749" lon="13.226497494641766"><ele>638.0</ele><time>2026-04-18T10:00:35.001Z</time></trkpt><trkpt lat="37.573037925286485" lon="13.226393496318735"><ele>641.0</ele><time>2026-04-18T10:00:36.001Z</time></trkpt><trkpt lat="37.573093805702214" lon="13.226305954449485"><ele>644.0</ele><time>2026-04-18T10:00:37.001Z</time></trkpt><trkpt lat="37.57315651777803" lon="13.226226508292811"><ele>644.0</ele><time>2026-04-18T10:00:38.001Z</time></trkpt><trkpt lat="37.57321925172195" lon="13.2261502319511"><ele>644.0</ele><time>2026-04-18T10:00:39.001Z</time></trkpt><trkpt lat="37.57327761487987" lon="13.226074179874406"><ele>644.0</ele><time>2026-04-18T10:00:40.001Z</time></trkpt><trkpt lat="37.57331861831643" lon="13.22599773076965"><ele>644.0</ele><time>2026-04-18T10:00:41.001Z</time></trkpt><trkpt lat="37.57335204309495" lon="13.225915108820324"><ele>644.0</ele><time>2026-04-18T10:00:42.001Z</time></trkpt><trkpt lat="37.573376667852436" lon="13.225828701522724"><ele>644.0</ele><time>2026-04-18T10:00:43.001Z</time></trkpt><trkpt lat="37.573399396486494" lon="13.225743270630629"><ele>644.0</ele><time>2026-04-18T10:00:44.001Z</time></trkpt><trkpt lat="37.57342260636657" lon="13.225663250714561"><ele>644.0</ele><time>2026-04-18T10:00:45.001Z</time></trkpt><trkpt lat="37.5734458949011" lon="13.225587301051306"><ele>644.0</ele><time>2026-04-18T10:00:46.001Z</time></trkpt><trkpt lat="37.573468119963444" lon="13.225467961462178"><ele>644.0</ele><time>2026-04-18T10:00:48.001Z</time></trkpt><trkpt lat="37.5734906543255" lon="13.225392410151649"><ele>644.0</ele><time>2026-04-18T10:00:50.001Z</time></trkpt><trkpt lat="37.573544656387845" lon="13.225349803930117"><ele>644.0</ele><time>2026-04-18T10:00:54.001Z</time></trkpt><trkpt lat="37.573482662228116" lon="13.225394107111725"><ele>644.0</ele><time>2026-04-18T10:01:00.001Z</time></trkpt><trkpt lat="37.57340914747305" lon="13.225447901553304"><ele>644.0</ele><time>2026-04-18T10:01:03.001Z</time></trkpt><trkpt lat="37.573331387035886" lon="13.225504802773786"><ele>644.0</ele><time>2026-04-18T10:01:05.001Z</time></trkpt><trkpt lat="37.57312377283953" lon="13.225807223833865"><ele>644.0</ele><time>2026-04-18T10:01:10.001Z</time></trkpt><trkpt lat="37.57309234966975" lon="13.225902620106341"><ele>644.0</ele><time>2026-04-18T10:01:11.001Z</time></trkpt><trkpt lat="37.57305638236743" lon="13.225990884376188"><ele>644.0</ele><time>2026-04-18T10:01:12.001Z</time></trkpt><trkpt lat="37.5730120946108" lon="13.22607437493741"><ele>644.0</ele><time>2026-04-18T10:01:13.001Z</time></trkpt><trkpt lat="37.57294213440807" lon="13.22612598142192"><ele>644.0</ele><time>2026-04-18T10:01:14.001Z</time></trkpt><trkpt lat="37.572889193580686" lon="13.22621629184601"><ele>644.0</ele><time>2026-04-18T10:01:15.001Z</time></trkpt><trkpt lat="37.57282023232952" lon="13.226285955650017"><ele>644.0</ele><time>2026-04-18T10:01:16.001Z</time></trkpt><trkpt lat="37.57277465325047" lon="13.226386459631396"><ele>641.5</ele><time>2026-04-18T10:01:17Z</time></trkpt><trkpt lat="37.57273471805638" lon="13.226481178077135"><ele>639.0</ele><time>2026-04-18T10:01:18Z</time></trkpt><trkpt lat="37.57269876770335" lon="13.226570033158364"><ele>636.5</ele><time>2026-04-18T10:01:19Z</time></trkpt><trkpt lat="37.572680121273905" lon="13.22666532722292"><ele>634.0</ele><time>2026-04-18T10:01:20Z</time></trkpt><trkpt lat="37.5726517784375" lon="13.22674057417415"><ele>631.5</ele><time>2026-04-18T10:01:21Z</time></trkpt><trkpt lat="37.572620134630995" lon="13.226811792592638"><ele>629.0</ele><time>2026-04-18T10:01:22Z</time></trkpt><trkpt lat="37.572555051493985" lon="13.226945107874934"><ele>629.0</ele><time>2026-04-18T10:01:24Z</time></trkpt><trkpt lat="37.57252422387429" lon="13.227015910177338"><ele>629.0</ele><time>2026-04-18T10:01:25Z</time></trkpt><trkpt lat="37.57246705985953" lon="13.227151397854604"><ele>629.0</ele><time>2026-04-18T10:01:27Z</time></trkpt><trkpt lat="37.57240874743494" lon="13.227293279678516"><ele>629.0</ele><time>2026-04-18T10:01:29Z</time></trkpt><trkpt lat="37.572378978151896" lon="13.227371689412312"><ele>629.0</ele><time>2026-04-18T10:01:30Z</time></trkpt><trkpt lat="37.57235102478431" lon="13.227451664226697"><ele>630.8333333333333</ele><time>2026-04-18T10:01:31Z</time></trkpt><trkpt lat="37.572313828202105" lon="13.227526521615292"><ele>632.6666666666666</ele><time>2026-04-18T10:01:32Z</time></trkpt><trkpt lat="37.57229854039921" lon="13.227613203048161"><ele>634.5</ele><time>2026-04-18T10:01:33Z</time></trkpt><trkpt lat="37.57227976085149" lon="13.227696673198407"><ele>636.3333333333334</ele><time>2026-04-18T10:01:34Z</time></trkpt><trkpt lat="37.57226273272007" lon="13.227786821221478"><ele>638.1666666666667</ele><time>2026-04-18T10:01:35Z</time></trkpt><trkpt lat="37.57224295632119" lon="13.227893086845016"><ele>640.0</ele><time>2026-04-18T10:01:36Z</time></trkpt><trkpt lat="37.572225790109925" lon="13.228003975822523"><ele>640.0</ele><time>2026-04-18T10:01:37Z</time></trkpt><trkpt lat="37.57220087155498" lon="13.228117351955598"><ele>640.0</ele><time>2026-04-18T10:01:38Z</time></trkpt><trkpt lat="37.572171205808885" lon="13.22822491522132"><ele>640.0</ele><time>2026-04-18T10:01:39Z</time></trkpt><trkpt lat="37.572140173195635" lon="13.22832210772902"><ele>640.0</ele><time>2026-04-18T10:01:40Z</time></trkpt><trkpt lat="37.57210957093785" lon="13.228426667838363"><ele>640.0</ele><time>2026-04-18T10:01:41Z</time></trkpt><trkpt lat="37.57207290811022" lon="13.228541115819741"><ele>641.2</ele><time>2026-04-18T10:01:42Z</time></trkpt><trkpt lat="37.57203873383767" lon="13.228659075312626"><ele>642.4</ele><time>2026-04-18T10:01:43Z</time></trkpt><trkpt lat="37.57200449320372" lon="13.228781088245517"><ele>643.5999999999999</ele><time>2026-04-18T10:01:44Z</time></trkpt><trkpt lat="37.57197632534016" lon="13.22889853290218"><ele>644.8</ele><time>2026-04-18T10:01:45Z</time></trkpt><trkpt lat="37.571947890539484" lon="13.229020821651822"><ele>646.0</ele><time>2026-04-18T10:01:46Z</time></trkpt><trkpt lat="37.57192927274265" lon="13.229152253692584"><ele>637.5</ele><time>2026-04-18T10:01:47Z</time></trkpt><trkpt lat="37.57191672530726" lon="13.229301189606733"><ele>629.0</ele><time>2026-04-18T10:01:48Z</time></trkpt><trkpt lat="37.571906569548396" lon="13.229452712144038"><ele>620.5</ele><time>2026-04-18T10:01:49Z</time></trkpt><trkpt lat="37.57190244061114" lon="13.229609491316408"><ele>612.0</ele><time>2026-04-18T10:01:50Z</time></trkpt><trkpt lat="37.57188242883167" lon="13.229769895793899"><ele>611.25</ele><time>2026-04-18T10:01:51Z</time></trkpt><trkpt lat="37.57189752455323" lon="13.229935647728178"><ele>610.5</ele><time>2026-04-18T10:01:52Z</time></trkpt><trkpt lat="37.57189380080996" lon="13.230128811987992"><ele>609.75</ele><time>2026-04-18T10:01:53Z</time></trkpt><trkpt lat="37.57186978814159" lon="13.230333567018112"><ele>609.0</ele><time>2026-04-18T10:01:54Z</time></trkpt><trkpt lat="37.57184616933981" lon="13.230521558530375"><ele>608.6666666666666</ele><time>2026-04-18T10:01:55Z</time></trkpt><trkpt lat="37.57185351602828" lon="13.23074309284513"><ele>608.3333333333333</ele><time>2026-04-18T10:01:56Z</time></trkpt><trkpt lat="37.57187823763454" lon="13.230970554725202"><ele>608.0</ele><time>2026-04-18T10:01:57Z</time></trkpt><trkpt lat="37.57189928829484" lon="13.231172392567856"><ele>608.0</ele><time>2026-04-18T10:01:58Z</time></trkpt><trkpt lat="37.571906148899224" lon="13.231341718952423"><ele>608.0</ele><time>2026-04-18T10:01:59Z</time></trkpt><trkpt lat="37.57190135599787" lon="13.231495521401326"><ele>608.0</ele><time>2026-04-18T10:02:00Z</time></trkpt><trkpt lat="37.5718841884456" lon="13.231666143158836"><ele>608.0</ele><time>2026-04-18T10:02:01Z</time></trkpt><trkpt lat="37.57185770354738" lon="13.231849832943148"><ele>608.25</ele><time>2026-04-18T10:02:02Z</time></trkpt><trkpt lat="37.57182465027297" lon="13.232030353541017"><ele>608.5</ele><time>2026-04-18T10:02:03Z</time></trkpt><trkpt lat="37.57179162045158" lon="13.232194632994974"><ele>608.75</ele><time>2026-04-18T10:02:04Z</time></trkpt><trkpt lat="37.57175776587757" lon="13.232358441423715"><ele>609.0</ele><time>2026-04-18T10:02:05Z</time></trkpt><trkpt lat="37.571726194090544" lon="13.232524729952388"><ele>609.0</ele><time>2026-04-18T10:02:06Z</time></trkpt><trkpt lat="37.57169600529586" lon="13.23269380283967"><ele>609.0</ele><time>2026-04-18T10:02:07Z</time></trkpt><trkpt lat="37.5716715773129" lon="13.232864869731673"><ele>609.0</ele><time>2026-04-18T10:02:08Z</time></trkpt><trkpt lat="37.57165554437038" lon="13.233037305862855"><ele>609.0</ele><time>2026-04-18T10:02:09Z</time></trkpt><trkpt lat="37.57164081673134" lon="13.23320599060582"><ele>609.0</ele><time>2026-04-18T10:02:10Z</time></trkpt><trkpt lat="37.57162276388329" lon="13.233362433965496"><ele>609.0</ele><time>2026-04-18T10:02:11Z</time></trkpt><trkpt lat="37.57159998607764" lon="13.233502202087228"><ele>609.0</ele><time>2026-04-18T10:02:12Z</time></trkpt><trkpt lat="37.57157832486349" lon="13.233636971312446"><ele>609.0</ele><time>2026-04-18T10:02:13Z</time></trkpt><trkpt lat="37.57156778181185" lon="13.233772297932807"><ele>609.0</ele><time>2026-04-18T10:02:14Z</time></trkpt><trkpt lat="37.5715725969599" lon="13.233931044185859"><ele>609.0</ele><time>2026-04-18T10:02:15Z</time></trkpt><trkpt lat="37.57158261748906" lon="13.234101623585245"><ele>609.0</ele><time>2026-04-18T10:02:16Z</time></trkpt><trkpt lat="37.571594747383294" lon="13.234277359130756"><ele>609.0</ele><time>2026-04-18T10:02:17Z</time></trkpt><trkpt lat="37.57160679771168" lon="13.234433494612304"><ele>608.2</ele><time>2026-04-18T10:02:18Z</time></trkpt><trkpt lat="37.571612412008285" lon="13.234573106590377"><ele>607.4</ele><time>2026-04-18T10:02:19.001Z</time></trkpt><trkpt lat="37.571607817976734" lon="13.234700282113145"><ele>606.6</ele><time>2026-04-18T10:02:20.001Z</time></trkpt><trkpt lat="37.571613506128514" lon="13.234819069807385"><ele>605.8</ele><time>2026-04-18T10:02:21.001Z</time></trkpt><trkpt lat="37.57164550358312" lon="13.234938080594866"><ele>605.0</ele><time>2026-04-18T10:02:22.001Z</time></trkpt><trkpt lat="37.57169243966337" lon="13.235045596561312"><ele>603.3333333333333</ele><time>2026-04-18T10:02:23.001Z</time></trkpt><trkpt lat="37.57174595358759" lon="13.235123984973587"><ele>601.6666666666666</ele><time>2026-04-18T10:02:24.001Z</time></trkpt><trkpt lat="37.57177880871732" lon="13.23520536869045"><ele>600.0</ele><time>2026-04-18T10:02:26.001Z</time></trkpt><trkpt lat="37.571667507696645" lon="13.23523471895397"><ele>598.3333333333334</ele><time>2026-04-18T10:02:30.001Z</time></trkpt><trkpt lat="37.57162517745627" lon="13.235158220744326"><ele>596.6666666666667</ele><time>2026-04-18T10:02:31.001Z</time></trkpt><trkpt lat="37.57157384387287" lon="13.235058387207742"><ele>595.0</ele><time>2026-04-18T10:02:32.001Z</time></trkpt><trkpt lat="37.57155673639904" lon="13.234917475978214"><ele>597.5</ele><time>2026-04-18T10:02:33.001Z</time></trkpt><trkpt lat="37.57152079753845" lon="13.234794828878686"><ele>600.0</ele><time>2026-04-18T10:02:34.001Z</time></trkpt><trkpt lat="37.571497340472206" lon="13.234657249773596"><ele>602.5</ele><time>2026-04-18T10:02:35.001Z</time></trkpt><trkpt lat="37.57146219404367" lon="13.234505967068452"><ele>605.0</ele><time>2026-04-18T10:02:36.001Z</time></trkpt><trkpt lat="37.57142439905013" lon="13.234343806656126"><ele>605.0</ele><time>2026-04-18T10:02:37.001Z</time></trkpt><trkpt lat="37.57138265900703" lon="13.23417794050507"><ele>605.0</ele><time>2026-04-18T10:02:38.001Z</time></trkpt><trkpt lat="37.57133299837832" lon="13.234010727017278"><ele>605.0</ele><time>2026-04-18T10:02:39.001Z</time></trkpt><trkpt lat="37.571274314551204" lon="13.233843785772784"><ele>605.0</ele><time>2026-04-18T10:02:40.001Z</time></trkpt><trkpt lat="37.57122629647615" lon="13.233681195109302"><ele>597.75</ele><time>2026-04-18T10:02:41.001Z</time></trkpt><trkpt lat="37.57117532864715" lon="13.233537158577063"><ele>590.5</ele><time>2026-04-18T10:02:42.001Z</time></trkpt><trkpt lat="37.57113325758632" lon="13.233398552029051"><ele>583.25</ele><time>2026-04-18T10:02:43.001Z</time></trkpt><trkpt lat="37.57109474045254" lon="13.233267488834539"><ele>576.0</ele><time>2026-04-18T10:02:44.001Z</time></trkpt><trkpt lat="37.571071548946286" lon="13.233120143889828"><ele>576.0</ele><time>2026-04-18T10:02:45.001Z</time></trkpt><trkpt lat="37.571060069105215" lon="13.232923628284244"><ele>576.0</ele><time>2026-04-18T10:02:46.001Z</time></trkpt><trkpt lat="37.57106085466801" lon="13.232692528433821"><ele>576.0</ele><time>2026-04-18T10:02:47.001Z</time></trkpt><trkpt lat="37.571065327344" lon="13.232466160760762"><ele>574.6666666666666</ele><time>2026-04-18T10:02:48.001Z</time></trkpt><trkpt lat="37.57107072457023" lon="13.232259364491926"><ele>573.3333333333333</ele><time>2026-04-18T10:02:49.001Z</time></trkpt><trkpt lat="37.57107164675619" lon="13.232058204735646"><ele>572.0</ele><time>2026-04-18T10:02:50.001Z</time></trkpt><trkpt lat="37.571076030184784" lon="13.23186007917781"><ele>572.0</ele><time>2026-04-18T10:02:51.001Z</time></trkpt><trkpt lat="37.57107664248438" lon="13.231679912669746"><ele>572.0</ele><time>2026-04-18T10:02:52.001Z</time></trkpt><trkpt lat="37.57105983636355" lon="13.23150870293766"><ele>572.0</ele><time>2026-04-18T10:02:53.001Z</time></trkpt><trkpt lat="37.571029926251875" lon="13.231338123549255"><ele>572.0</ele><time>2026-04-18T10:02:54.001Z</time></trkpt><trkpt lat="37.57098230691174" lon="13.231187460262113"><ele>573.5</ele><time>2026-04-18T10:02:55.001Z</time></trkpt><trkpt lat="37.57091240322092" lon="13.231042158284176"><ele>575.0</ele><time>2026-04-18T10:02:56.001Z</time></trkpt><trkpt lat="37.57081456888453" lon="13.230910528666188"><ele>576.5</ele><time>2026-04-18T10:02:57.001Z</time></trkpt><trkpt lat="37.570722783737054" lon="13.230792676826987"><ele>578.0</ele><time>2026-04-18T10:02:58.001Z</time></trkpt><trkpt lat="37.57065467767222" lon="13.23066152900043"><ele>579.0</ele><time>2026-04-18T10:02:59.001Z</time></trkpt><trkpt lat="37.570611178159304" lon="13.230513184919156"><ele>580.0</ele><time>2026-04-18T10:03:00.001Z</time></trkpt><trkpt lat="37.57058936912557" lon="13.230338854686128"><ele>581.0</ele><time>2026-04-18T10:03:01.001Z</time></trkpt><trkpt lat="37.57058934003206" lon="13.230152799249455"><ele>582.0</ele><time>2026-04-18T10:03:02.001Z</time></trkpt><trkpt lat="37.57058095820671" lon="13.22998686909731"><ele>582.0</ele><time>2026-04-18T10:03:03.001Z</time></trkpt><trkpt lat="37.570546790530955" lon="13.229832256539495"><ele>582.0</ele><time>2026-04-18T10:03:04.001Z</time></trkpt><trkpt lat="37.57048375785625" lon="13.229677514275886"><ele>582.0</ele><time>2026-04-18T10:03:05.001Z</time></trkpt><trkpt lat="37.570402112727905" lon="13.229546461454575"><ele>582.0</ele><time>2026-04-18T10:03:06.001Z</time></trkpt><trkpt lat="37.57028982095869" lon="13.22941575983032"><ele>577.0</ele><time>2026-04-18T10:03:07.001Z</time></trkpt><trkpt lat="37.570155138246896" lon="13.229281336585212"><ele>572.0</ele><time>2026-04-18T10:03:08.001Z</time></trkpt><trkpt lat="37.570031688523464" lon="13.229154744164742"><ele>567.0</ele><time>2026-04-18T10:03:09.001Z</time></trkpt><trkpt lat="37.5699164464911" lon="13.22902871945061"><ele>568.75</ele><time>2026-04-18T10:03:10.001Z</time></trkpt><trkpt lat="37.569802927124115" lon="13.228902593154215"><ele>570.5</ele><time>2026-04-18T10:03:11.001Z</time></trkpt><trkpt lat="37.56969225960351" lon="13.228786531353714"><ele>572.25</ele><time>2026-04-18T10:03:12.001Z</time></trkpt><trkpt lat="37.569584287705005" lon="13.228676030068335"><ele>574.0</ele><time>2026-04-18T10:03:13.001Z</time></trkpt><trkpt lat="37.569484976564866" lon="13.22855965345699"><ele>569.75</ele><time>2026-04-18T10:03:14.001Z</time></trkpt><trkpt lat="37.569389855082676" lon="13.228418293306687"><ele>565.5</ele><time>2026-04-18T10:03:15.001Z</time></trkpt><trkpt lat="37.56930174599688" lon="13.228255656856065"><ele>561.25</ele><time>2026-04-18T10:03:16.001Z</time></trkpt><trkpt lat="37.56923290925968" lon="13.228105577978525"><ele>557.0</ele><time>2026-04-18T10:03:17.001Z</time></trkpt><trkpt lat="37.569185189388115" lon="13.227973095630766"><ele>557.0</ele><time>2026-04-18T10:03:18.001Z</time></trkpt><trkpt lat="37.569161118827154" lon="13.227847461295555"><ele>557.0</ele><time>2026-04-18T10:03:19.001Z</time></trkpt><trkpt lat="37.56916517200851" lon="13.227712532131827"><ele>557.0</ele><time>2026-04-18T10:03:20.001Z</time></trkpt><trkpt lat="37.569194786842964" lon="13.227558226925936"><ele>557.0</ele><time>2026-04-18T10:03:21.001Z</time></trkpt><trkpt lat="37.56922366967834" lon="13.227401316119378"><ele>556.0</ele><time>2026-04-18T10:03:22.001Z</time></trkpt><trkpt lat="37.56922022755195" lon="13.22723546555582"><ele>555.0</ele><time>2026-04-18T10:03:23Z</time></trkpt><trkpt lat="37.56919393337467" lon="13.227064197785962"><ele>554.0</ele><time>2026-04-18T10:03:24Z</time></trkpt><trkpt lat="37.569172870284206" lon="13.226891573251272"><ele>553.0</ele><time>2026-04-18T10:03:25Z</time></trkpt><trkpt lat="37.569181069374075" lon="13.22673579687384"><ele>553.0</ele><time>2026-04-18T10:03:26Z</time></trkpt><trkpt lat="37.56920956736122" lon="13.22661299550938"><ele>553.0</ele><time>2026-04-18T10:03:27Z</time></trkpt><trkpt lat="37.56923320751809" lon="13.226530137922856"><ele>553.0</ele><time>2026-04-18T10:03:28Z</time></trkpt><trkpt lat="37.56920933441353" lon="13.226405844274808"><ele>553.0</ele><time>2026-04-18T10:03:30Z</time></trkpt><trkpt lat="37.56911375753254" lon="13.226361214929575"><ele>553.0</ele><time>2026-04-18T10:03:32Z</time></trkpt><trkpt lat="37.56904977773842" lon="13.226384153169993"><ele>553.0</ele><time>2026-04-18T10:03:33Z</time></trkpt><trkpt lat="37.568978255410386" lon="13.226452333103298"><ele>553.0</ele><time>2026-04-18T10:03:34Z</time></trkpt><trkpt lat="37.56888982478589" lon="13.226551140464236"><ele>553.0</ele><time>2026-04-18T10:03:35Z</time></trkpt><trkpt lat="37.56878736122797" lon="13.226654574551967"><ele>553.0</ele><time>2026-04-18T10:03:36Z</time></trkpt><trkpt lat="37.56868494127173" lon="13.226741070398724"><ele>553.0</ele><time>2026-04-18T10:03:37Z</time></trkpt><trkpt lat="37.56859037316037" lon="13.226806691554811"><ele>550.4</ele><time>2026-04-18T10:03:38Z</time></trkpt><trkpt lat="37.56852136336956" lon="13.226873837254226"><ele>547.8</ele><time>2026-04-18T10:03:39Z</time></trkpt><trkpt lat="37.568484704916344" lon="13.22695942986739"><ele>545.2</ele><time>2026-04-18T10:03:40Z</time></trkpt><trkpt lat="37.56846923080629" lon="13.227067487303614"><ele>542.6</ele><time>2026-04-18T10:03:41Z</time></trkpt><trkpt lat="37.56847536894767" lon="13.227207226651164"><ele>540.0</ele><time>2026-04-18T10:03:42Z</time></trkpt><trkpt lat="37.56850208095856" lon="13.227383880419904"><ele>540.0</ele><time>2026-04-18T10:03:43Z</time></trkpt><trkpt lat="37.56853807267468" lon="13.227570828708817"><ele>540.0</ele><time>2026-04-18T10:03:44Z</time></trkpt><trkpt lat="37.568550754277325" lon="13.22777334457957"><ele>540.0</ele><time>2026-04-18T10:03:45Z</time></trkpt><trkpt lat="37.568579083519644" lon="13.227975948955658"><ele>539.0</ele><time>2026-04-18T10:03:46Z</time></trkpt><trkpt lat="37.56861803381738" lon="13.228182036840158"><ele>538.0</ele><time>2026-04-18T10:03:47Z</time></trkpt><trkpt lat="37.568646127286286" lon="13.22839131741843"><ele>537.0</ele><time>2026-04-18T10:03:48Z</time></trkpt><trkpt lat="37.56867167400388" lon="13.228583847381701"><ele>541.0</ele><time>2026-04-18T10:03:49Z</time></trkpt><trkpt lat="37.56869622684933" lon="13.228780208468518"><ele>545.0</ele><time>2026-04-18T10:03:50Z</time></trkpt><trkpt lat="37.56872137252564" lon="13.228978684411008"><ele>549.0</ele><time>2026-04-18T10:03:51Z</time></trkpt><trkpt lat="37.56874749817964" lon="13.22917052657865"><ele>549.0</ele><time>2026-04-18T10:03:52Z</time></trkpt><trkpt lat="37.56877298079509" lon="13.229359205091562"><ele>549.0</ele><time>2026-04-18T10:03:53Z</time></trkpt><trkpt lat="37.56879883739126" lon="13.229536247958638"><ele>549.0</ele><time>2026-04-18T10:03:54Z</time></trkpt><trkpt lat="37.5688211181295" lon="13.22970931291934"><ele>549.0</ele><time>2026-04-18T10:03:55Z</time></trkpt><trkpt lat="37.56884081016253" lon="13.229883258688963"><ele>546.5</ele><time>2026-04-18T10:03:56Z</time></trkpt><trkpt lat="37.568854768730695" lon="13.230063507411426"><ele>544.0</ele><time>2026-04-18T10:03:57Z</time></trkpt><trkpt lat="37.5688525045266" lon="13.230246378932236"><ele>541.5</ele><time>2026-04-18T10:03:58Z</time></trkpt><trkpt lat="37.56882847014988" lon="13.230440038163927"><ele>539.0</ele><time>2026-04-18T10:03:59Z</time></trkpt><trkpt lat="37.568791498403435" lon="13.230635976771119"><ele>538.0</ele><time>2026-04-18T10:04:00Z</time></trkpt><trkpt lat="37.568755764115984" lon="13.230843119764772"><ele>537.0</ele><time>2026-04-18T10:04:01Z</time></trkpt><trkpt lat="37.56872293548306" lon="13.231044809444592"><ele>536.0</ele><time>2026-04-18T10:04:02Z</time></trkpt><trkpt lat="37.56869494531871" lon="13.23123617819848"><ele>529.6666666666666</ele><time>2026-04-18T10:04:03Z</time></trkpt><trkpt lat="37.5686756132138" lon="13.231436385532115"><ele>523.3333333333334</ele><time>2026-04-18T10:04:04Z</time></trkpt><trkpt lat="37.56866430312205" lon="13.231640879376506"><ele>517.0</ele><time>2026-04-18T10:04:05Z</time></trkpt><trkpt lat="37.568655859343615" lon="13.231847087081633"><ele>516.0</ele><time>2026-04-18T10:04:06Z</time></trkpt><trkpt lat="37.568642761428805" lon="13.232050727406017"><ele>515.0</ele><time>2026-04-18T10:04:07Z</time></trkpt><trkpt lat="37.5686270005651" lon="13.232250970594619"><ele>514.0</ele><time>2026-04-18T10:04:08Z</time></trkpt><trkpt lat="37.5686136884892" lon="13.232439475719648"><ele>513.75</ele><time>2026-04-18T10:04:09Z</time></trkpt><trkpt lat="37.568595423529466" lon="13.232620387818315"><ele>513.5</ele><time>2026-04-18T10:04:10Z</time></trkpt><trkpt lat="37.56858287986029" lon="13.232779996208427"><ele>513.25</ele><time>2026-04-18T10:04:11Z</time></trkpt><trkpt lat="37.568576414399324" lon="13.232918387103405"><ele>513.0</ele><time>2026-04-18T10:04:12Z</time></trkpt><trkpt lat="37.56858326161157" lon="13.233034125914815"><ele>513.0</ele><time>2026-04-18T10:04:13Z</time></trkpt><trkpt lat="37.5686125941215" lon="13.23313493027795"><ele>513.0</ele><time>2026-04-18T10:04:14Z</time></trkpt><trkpt lat="37.568664906548776" lon="13.233213812249158"><ele>513.0</ele><time>2026-04-18T10:04:15Z</time></trkpt><trkpt lat="37.568736325436866" lon="13.233268832052353"><ele>513.0</ele><time>2026-04-18T10:04:16Z</time></trkpt><trkpt lat="37.568822512569795" lon="13.233319469970652"><ele>513.0</ele><time>2026-04-18T10:04:17Z</time></trkpt><trkpt lat="37.56890051254971" lon="13.2333747513595"><ele>513.0</ele><time>2026-04-18T10:04:18Z</time></trkpt><trkpt lat="37.568958230655475" lon="13.23343646414603"><ele>511.59999999999997</ele><time>2026-04-18T10:04:19Z</time></trkpt><trkpt lat="37.56898631612884" lon="13.233563380585089"><ele>510.19999999999993</ele><time>2026-04-18T10:04:21Z</time></trkpt><trkpt lat="37.56891060358416" lon="13.233653982257854"><ele>508.8</ele><time>2026-04-18T10:04:23Z</time></trkpt><trkpt lat="37.568827007753434" lon="13.233633553065228"><ele>507.4</ele><time>2026-04-18T10:04:24Z</time></trkpt><trkpt lat="37.56873206725721" lon="13.23361749306447"><ele>506.0</ele><time>2026-04-18T10:04:25Z</time></trkpt><trkpt lat="37.568622004550164" lon="13.233602019833773"><ele>506.0</ele><time>2026-04-18T10:04:26Z</time></trkpt><trkpt lat="37.56851919612725" lon="13.233552892172835"><ele>506.0</ele><time>2026-04-18T10:04:27Z</time></trkpt><trkpt lat="37.56842652032742" lon="13.233502627196316"><ele>506.0</ele><time>2026-04-18T10:04:28.001Z</time></trkpt><trkpt lat="37.56834491321116" lon="13.233441013769625"><ele>506.0</ele><time>2026-04-18T10:04:29.001Z</time></trkpt><trkpt lat="37.56826909755911" lon="13.233348626432035"><ele>506.0</ele><time>2026-04-18T10:04:30.001Z</time></trkpt><trkpt lat="37.56818692635807" lon="13.233214896759774"><ele>507.75</ele><time>2026-04-18T10:04:31.001Z</time></trkpt><trkpt lat="37.5681028271672" lon="13.233079534613156"><ele>509.5</ele><time>2026-04-18T10:04:32.001Z</time></trkpt><trkpt lat="37.5680192045474" lon="13.232953480189737"><ele>511.25</ele><time>2026-04-18T10:04:33.001Z</time></trkpt><trkpt lat="37.56794687243737" lon="13.232833958056382"><ele>513.0</ele><time>2026-04-18T10:04:34.001Z</time></trkpt><trkpt lat="37.56787472261838" lon="13.23271394729167"><ele>508.75</ele><time>2026-04-18T10:04:35.001Z</time></trkpt><trkpt lat="37.56781856654569" lon="13.232584660825157"><ele>504.5</ele><time>2026-04-18T10:04:36.001Z</time></trkpt><trkpt lat="37.5677778033836" lon="13.232445842524129"><ele>500.25</ele><time>2026-04-18T10:04:37.001Z</time></trkpt><trkpt lat="37.56775673726743" lon="13.23229628431318"><ele>496.0</ele><time>2026-04-18T10:04:38.001Z</time></trkpt><trkpt lat="37.5677547869707" lon="13.232145498889844"><ele>496.00000000000006</ele><time>2026-04-18T10:04:39.001Z</time></trkpt><trkpt lat="37.56776152346418" lon="13.23201639851709"><ele>496.0</ele><time>2026-04-18T10:04:40.001Z</time></trkpt><trkpt lat="37.56777476677532" lon="13.231913558673273"><ele>496.0</ele><time>2026-04-18T10:04:41.001Z</time></trkpt><trkpt lat="37.56776020996869" lon="13.23181862972401"><ele>496.0</ele><time>2026-04-18T10:04:42.001Z</time></trkpt><trkpt lat="37.56771017712233" lon="13.231728215264962"><ele>496.00000000000006</ele><time>2026-04-18T10:04:43.001Z</time></trkpt><trkpt lat="37.567630860504494" lon="13.231659940892087"><ele>496.0</ele><time>2026-04-18T10:04:44.001Z</time></trkpt><trkpt lat="37.567547868049694" lon="13.231589478826734"><ele>496.0</ele><time>2026-04-18T10:04:45.001Z</time></trkpt><trkpt lat="37.567470215040515" lon="13.231523000257493"><ele>496.0</ele><time>2026-04-18T10:04:46.001Z</time></trkpt><trkpt lat="37.56737164986319" lon="13.231522965463453"><ele>496.0</ele><time>2026-04-18T10:04:47.001Z</time></trkpt><trkpt lat="37.5672754518008" lon="13.231537344036145"><ele>496.0</ele><time>2026-04-18T10:04:48.001Z</time></trkpt><trkpt lat="37.56716279876662" lon="13.2315780049408"><ele>496.0</ele><time>2026-04-18T10:04:49.001Z</time></trkpt><trkpt lat="37.567038535697684" lon="13.231623846553932"><ele>494.5</ele><time>2026-04-18T10:04:50.001Z</time></trkpt><trkpt lat="37.566916752193" lon="13.231666007568235"><ele>493.0</ele><time>2026-04-18T10:04:51.001Z</time></trkpt><trkpt lat="37.566804700859976" lon="13.23170705313815"><ele>491.5</ele><time>2026-04-18T10:04:52.001Z</time></trkpt><trkpt lat="37.566694229894274" lon="13.231737968249503"><ele>490.0</ele><time>2026-04-18T10:04:53.001Z</time></trkpt><trkpt lat="37.56658469845158" lon="13.231768530048596"><ele>490.0</ele><time>2026-04-18T10:04:54.001Z</time></trkpt><trkpt lat="37.56646630640028" lon="13.231775198850693"><ele>490.0</ele><time>2026-04-18T10:04:55.001Z</time></trkpt><trkpt lat="37.566346571906905" lon="13.231765763397025"><ele>490.0</ele><time>2026-04-18T10:04:56.001Z</time></trkpt><trkpt lat="37.5662249808523" lon="13.231747295451251"><ele>490.0</ele><time>2026-04-18T10:04:57.001Z</time></trkpt><trkpt lat="37.56609993253473" lon="13.231732774819744"><ele>488.0</ele><time>2026-04-18T10:04:58.001Z</time></trkpt><trkpt lat="37.565972346630076" lon="13.231719207659298"><ele>486.0</ele><time>2026-04-18T10:04:59.001Z</time></trkpt><trkpt lat="37.56584394090685" lon="13.231700499236961"><ele>484.0</ele><time>2026-04-18T10:05:00.001Z</time></trkpt><trkpt lat="37.565722028918294" lon="13.231669782856278"><ele>482.0</ele><time>2026-04-18T10:05:01.001Z</time></trkpt><trkpt lat="37.5656092971135" lon="13.231621730492158"><ele>482.0</ele><time>2026-04-18T10:05:02.001Z</time></trkpt><trkpt lat="37.56549596635691" lon="13.231553600621053"><ele>482.0</ele><time>2026-04-18T10:05:03.001Z</time></trkpt><trkpt lat="37.565379995767195" lon="13.231465134328536"><ele>482.0</ele><time>2026-04-18T10:05:04.001Z</time></trkpt><trkpt lat="37.56526713258607" lon="13.231378241345825"><ele>482.0</ele><time>2026-04-18T10:05:05.001Z</time></trkpt><trkpt lat="37.565159453587455" lon="13.231298190548113"><ele>480.75</ele><time>2026-04-18T10:05:06.001Z</time></trkpt><trkpt lat="37.56506005410649" lon="13.231212884560959"><ele>479.5</ele><time>2026-04-18T10:05:07.001Z</time></trkpt><trkpt lat="37.56497759161532" lon="13.231108042173028"><ele>478.25</ele><time>2026-04-18T10:05:08.001Z</time></trkpt><trkpt lat="37.56490891138577" lon="13.230982269815692"><ele>477.0</ele><time>2026-04-18T10:05:09.001Z</time></trkpt><trkpt lat="37.564838739750336" lon="13.23084035274106"><ele>477.0</ele><time>2026-04-18T10:05:10.001Z</time></trkpt><trkpt lat="37.56476338501759" lon="13.23069622008195"><ele>477.0</ele><time>2026-04-18T10:05:11.001Z</time></trkpt><trkpt lat="37.56468376780792" lon="13.230548495824085"><ele>477.0</ele><time>2026-04-18T10:05:12.001Z</time></trkpt><trkpt lat="37.56460143598746" lon="13.230421679260488"><ele>477.0</ele><time>2026-04-18T10:05:13.001Z</time></trkpt><trkpt lat="37.56452793109052" lon="13.2303187648557"><ele>475.1666666666667</ele><time>2026-04-18T10:05:14.001Z</time></trkpt><trkpt lat="37.564463355374954" lon="13.230227026961469"><ele>473.33333333333337</ele><time>2026-04-18T10:05:15.001Z</time></trkpt><trkpt lat="37.56440290577328" lon="13.230145741465778"><ele>471.5</ele><time>2026-04-18T10:05:16.001Z</time></trkpt><trkpt lat="37.564342115920645" lon="13.230094858622632"><ele>469.6666666666667</ele><time>2026-04-18T10:05:17.001Z</time></trkpt><trkpt lat="37.56427753500822" lon="13.230080029892106"><ele>467.83333333333337</ele><time>2026-04-18T10:05:18.001Z</time></trkpt><trkpt lat="37.564176850553956" lon="13.230136911174021"><ele>466.0</ele><time>2026-04-18T10:05:20.001Z</time></trkpt><trkpt lat="37.564078417369565" lon="13.230196337067452"><ele>466.0</ele><time>2026-04-18T10:05:21.001Z</time></trkpt><trkpt lat="37.56418439320143" lon="13.230357288884106"><ele>466.0</ele><time>2026-04-18T10:05:22.001Z</time></trkpt><trkpt lat="37.56423331459459" lon="13.230502382889258"><ele>466.0</ele><time>2026-04-18T10:05:23.001Z</time></trkpt><trkpt lat="37.56429454424893" lon="13.230666664833203"><ele>466.0</ele><time>2026-04-18T10:05:24.001Z</time></trkpt><trkpt lat="37.56434566012317" lon="13.230817647141652"><ele>464.5</ele><time>2026-04-18T10:05:25.001Z</time></trkpt><trkpt lat="37.56437162005688" lon="13.230968575442231"><ele>463.0</ele><time>2026-04-18T10:05:26.001Z</time></trkpt><trkpt lat="37.564428880115344" lon="13.231102134679917"><ele>461.5</ele><time>2026-04-18T10:05:27.001Z</time></trkpt><trkpt lat="37.56446353273061" lon="13.231243108654196"><ele>460.0</ele><time>2026-04-18T10:05:28.001Z</time></trkpt><trkpt lat="37.56450516051064" lon="13.231386741208246"><ele>462.0</ele><time>2026-04-18T10:05:29Z</time></trkpt><trkpt lat="37.5645498602086" lon="13.23153362764383"><ele>464.0</ele><time>2026-04-18T10:05:30Z</time></trkpt><trkpt lat="37.56459682724413" lon="13.231683589114457"><ele>466.0</ele><time>2026-04-18T10:05:31Z</time></trkpt><trkpt lat="37.56463999575509" lon="13.231834196368837"><ele>468.0</ele><time>2026-04-18T10:05:32Z</time></trkpt><trkpt lat="37.56468053767329" lon="13.231976182087621"><ele>468.0</ele><time>2026-04-18T10:05:33Z</time></trkpt><trkpt lat="37.564719591567325" lon="13.23211557998325"><ele>468.0</ele><time>2026-04-18T10:05:34Z</time></trkpt><trkpt lat="37.564768259584525" lon="13.232242829285116"><ele>468.0</ele><time>2026-04-18T10:05:35Z</time></trkpt><trkpt lat="37.56484213705256" lon="13.232359947232803"><ele>468.0</ele><time>2026-04-18T10:05:36Z</time></trkpt><trkpt lat="37.56494349902653" lon="13.232477523011505"><ele>464.75</ele><time>2026-04-18T10:05:37Z</time></trkpt><trkpt lat="37.5650595622344" lon="13.232595409547164"><ele>461.5</ele><time>2026-04-18T10:05:38Z</time></trkpt><trkpt lat="37.56516221509533" lon="13.232700542581663"><ele>458.25</ele><time>2026-04-18T10:05:39Z</time></trkpt><trkpt lat="37.565259095171065" lon="13.23278349469178"><ele>455.0</ele><time>2026-04-18T10:05:40Z</time></trkpt><trkpt lat="37.565341640382066" lon="13.232849123764444"><ele>454.8333333333333</ele><time>2026-04-18T10:05:41Z</time></trkpt><trkpt lat="37.56541099944911" lon="13.232909940297606"><ele>454.66666666666663</ele><time>2026-04-18T10:05:42Z</time></trkpt><trkpt lat="37.56546972270578" lon="13.232967515362603"><ele>454.5</ele><time>2026-04-18T10:05:43Z</time></trkpt><trkpt lat="37.5655112956707" lon="13.233033696802554"><ele>454.33333333333337</ele><time>2026-04-18T10:05:44Z</time></trkpt><trkpt lat="37.56553561339377" lon="13.233111950789496"><ele>454.1666666666667</ele><time>2026-04-18T10:05:45Z</time></trkpt><trkpt lat="37.565528753153025" lon="13.2331943521863"><ele>454.0</ele><time>2026-04-18T10:05:46Z</time></trkpt><trkpt lat="37.56545184566514" lon="13.233272347025162"><ele>454.25</ele><time>2026-04-18T10:05:48Z</time></trkpt><trkpt lat="37.5653405769311" lon="13.233205291367407"><ele>454.5</ele><time>2026-04-18T10:05:50Z</time></trkpt><trkpt lat="37.565275029855655" lon="13.233075829902992"><ele>454.75</ele><time>2026-04-18T10:05:51Z</time></trkpt><trkpt lat="37.565190813017004" lon="13.23297360674702"><ele>455.0</ele><time>2026-04-18T10:05:52Z</time></trkpt><trkpt lat="37.56508331552546" lon="13.232923788654103"><ele>455.0</ele><time>2026-04-18T10:05:53Z</time></trkpt><trkpt lat="37.56497183871561" lon="13.232889195237268"><ele>455.0</ele><time>2026-04-18T10:05:54Z</time></trkpt><trkpt lat="37.5648683475168" lon="13.232883392791804"><ele>455.0</ele><time>2026-04-18T10:05:55Z</time></trkpt><trkpt lat="37.56477204110673" lon="13.23287832312634"><ele>455.0</ele><time>2026-04-18T10:05:56Z</time></trkpt><trkpt lat="37.564680207884265" lon="13.23285779174621"><ele>455.0</ele><time>2026-04-18T10:05:57Z</time></trkpt><trkpt lat="37.56460023115737" lon="13.232806758626184"><ele>451.4</ele><time>2026-04-18T10:05:58Z</time></trkpt><trkpt lat="37.56452757084583" lon="13.232720605546152"><ele>447.8</ele><time>2026-04-18T10:05:59Z</time></trkpt><trkpt lat="37.56445604608789" lon="13.23259574128586"><ele>444.20000000000005</ele><time>2026-04-18T10:06:00Z</time></trkpt><trkpt lat="37.56438554845446" lon="13.232494252023379"><ele>440.6</ele><time>2026-04-18T10:06:01Z</time></trkpt><trkpt lat="37.56429396410089" lon="13.23243645370679"><ele>437.0</ele><time>2026-04-18T10:06:02Z</time></trkpt><trkpt lat="37.564183877608386" lon="13.232384206732108"><ele>437.0</ele><time>2026-04-18T10:06:03Z</time></trkpt><trkpt lat="37.56404563507817" lon="13.232364950066886"><ele>437.0</ele><time>2026-04-18T10:06:04Z</time></trkpt><trkpt lat="37.56392021831106" lon="13.23229538298935"><ele>437.0</ele><time>2026-04-18T10:06:05Z</time></trkpt><trkpt lat="37.56381423745983" lon="13.232216237823787"><ele>437.0</ele><time>2026-04-18T10:06:06Z</time></trkpt><trkpt lat="37.56371321424629" lon="13.232138411470343"><ele>437.40000000000003</ele><time>2026-04-18T10:06:07Z</time></trkpt><trkpt lat="37.56361760909919" lon="13.232066634949067"><ele>437.80000000000007</ele><time>2026-04-18T10:06:08Z</time></trkpt><trkpt lat="37.56352918179638" lon="13.232000674723077"><ele>438.2</ele><time>2026-04-18T10:06:09Z</time></trkpt><trkpt lat="37.56344388920208" lon="13.231968321665272"><ele>438.6</ele><time>2026-04-18T10:06:10Z</time></trkpt><trkpt lat="37.56335004002676" lon="13.231985095502473"><ele>439.0</ele><time>2026-04-18T10:06:11Z</time></trkpt><trkpt lat="37.563218608992564" lon="13.232053393988718"><ele>439.0</ele><time>2026-04-18T10:06:12Z</time></trkpt><trkpt lat="37.563101579149446" lon="13.232133136578645"><ele>439.0</ele><time>2026-04-18T10:06:13Z</time></trkpt><trkpt lat="37.56299291810226" lon="13.232184781068279"><ele>439.0</ele><time>2026-04-18T10:06:14Z</time></trkpt><trkpt lat="37.56288553256935" lon="13.232204820601192"><ele>439.0</ele><time>2026-04-18T10:06:15Z</time></trkpt><trkpt lat="37.56279010314948" lon="13.232197434706285"><ele>436.6666666666667</ele><time>2026-04-18T10:06:16Z</time></trkpt><trkpt lat="37.56271108488942" lon="13.232160886957747"><ele>434.33333333333337</ele><time>2026-04-18T10:06:17Z</time></trkpt><trkpt lat="37.562649542489225" lon="13.232093444947553"><ele>432.0</ele><time>2026-04-18T10:06:18Z</time></trkpt><trkpt lat="37.56261546242691" lon="13.232007881086934"><ele>429.66666666666663</ele><time>2026-04-18T10:06:19Z</time></trkpt><trkpt lat="37.56258555185606" lon="13.231895731478089"><ele>427.3333333333333</ele><time>2026-04-18T10:06:20Z</time></trkpt><trkpt lat="37.562577908767615" lon="13.231752626648447"><ele>425.0</ele><time>2026-04-18T10:06:21Z</time></trkpt><trkpt lat="37.56257856344968" lon="13.231639390361778"><ele>424.99999999999994</ele><time>2026-04-18T10:06:22Z</time></trkpt><trkpt lat="37.56254872792592" lon="13.23155712120448"><ele>425.0</ele><time>2026-04-18T10:06:23Z</time></trkpt><trkpt lat="37.562485124373346" lon="13.231507498582722"><ele>425.0</ele><time>2026-04-18T10:06:24Z</time></trkpt><trkpt lat="37.56241522150697" lon="13.23150236338127"><ele>425.0</ele><time>2026-04-18T10:06:25Z</time></trkpt><trkpt lat="37.56233818345318" lon="13.231538776387147"><ele>424.99999999999994</ele><time>2026-04-18T10:06:26Z</time></trkpt><trkpt lat="37.56228070725025" lon="13.231618331167809"><ele>425.0</ele><time>2026-04-18T10:06:27Z</time></trkpt><trkpt lat="37.56222321118268" lon="13.231766105935277"><ele>425.0</ele><time>2026-04-18T10:06:28Z</time></trkpt><trkpt lat="37.562175415358766" lon="13.231958796682878"><ele>425.0</ele><time>2026-04-18T10:06:29Z</time></trkpt><trkpt lat="37.562121228490646" lon="13.232090184480892"><ele>425.0</ele><time>2026-04-18T10:06:30Z</time></trkpt><trkpt lat="37.56208958190518" lon="13.232191108440125"><ele>425.0</ele><time>2026-04-18T10:06:31Z</time></trkpt><trkpt lat="37.56206347734797" lon="13.232281903282802"><ele>425.0</ele><time>2026-04-18T10:06:32Z</time></trkpt><trkpt lat="37.5620860980677" lon="13.232390788904565"><ele>423.4</ele><time>2026-04-18T10:06:33Z</time></trkpt><trkpt lat="37.56211624845761" lon="13.232480099783757"><ele>421.8</ele><time>2026-04-18T10:06:34Z</time></trkpt><trkpt lat="37.56217606647049" lon="13.232551119943068"><ele>420.20000000000005</ele><time>2026-04-18T10:06:35Z</time></trkpt><trkpt lat="37.56225759172311" lon="13.232603419187955"><ele>418.6</ele><time>2026-04-18T10:06:36Z</time></trkpt><trkpt lat="37.56235659563716" lon="13.232622889826926"><ele>417.0</ele><time>2026-04-18T10:06:37Z</time></trkpt><trkpt lat="37.56246942073964" lon="13.232626104791454"><ele>417.0</ele><time>2026-04-18T10:06:38Z</time></trkpt><trkpt lat="37.56257858628404" lon="13.23263398600193"><ele>417.0</ele><time>2026-04-18T10:06:39.001Z</time></trkpt><trkpt lat="37.562692459300806" lon="13.232649190672692"><ele>417.0</ele><time>2026-04-18T10:06:40.001Z</time></trkpt><trkpt lat="37.562801751995885" lon="13.232679026582215"><ele>417.0</ele><time>2026-04-18T10:06:41.001Z</time></trkpt><trkpt lat="37.56291210758846" lon="13.232717726804308"><ele>418.25</ele><time>2026-04-18T10:06:42.001Z</time></trkpt><trkpt lat="37.5630141119674" lon="13.232769058416013"><ele>419.5</ele><time>2026-04-18T10:06:43.001Z</time></trkpt><trkpt lat="37.5631141269102" lon="13.232848789928612"><ele>420.75</ele><time>2026-04-18T10:06:44.001Z</time></trkpt><trkpt lat="37.563232088804135" lon="13.232985359154837"><ele>422.0</ele><time>2026-04-18T10:06:45.001Z</time></trkpt><trkpt lat="37.5633671148308" lon="13.233165330411676"><ele>421.3333333333333</ele><time>2026-04-18T10:06:46.001Z</time></trkpt><trkpt lat="37.56350948054223" lon="13.233340840696995"><ele>420.66666666666663</ele><time>2026-04-18T10:06:47.001Z</time></trkpt><trkpt lat="37.56363503659742" lon="13.233491645745925"><ele>420.0</ele><time>2026-04-18T10:06:48.001Z</time></trkpt><trkpt lat="37.56374564167015" lon="13.233628687066343"><ele>420.0</ele><time>2026-04-18T10:06:49.001Z</time></trkpt><trkpt lat="37.563841828555915" lon="13.233749697348353"><ele>420.0</ele><time>2026-04-18T10:06:50.001Z</time></trkpt><trkpt lat="37.56393624757878" lon="13.233841492223373"><ele>420.0</ele><time>2026-04-18T10:06:51.001Z</time></trkpt><trkpt lat="37.5640091543453" lon="13.233917023035088"><ele>420.0</ele><time>2026-04-18T10:06:52.001Z</time></trkpt><trkpt lat="37.564077761348294" lon="13.233973486082261"><ele>420.0</ele><time>2026-04-18T10:06:53.001Z</time></trkpt><trkpt lat="37.56411869945332" lon="13.234036194261684"><ele>415.6</ele><time>2026-04-18T10:06:54.001Z</time></trkpt><trkpt lat="37.56411373261066" lon="13.234185913051608"><ele>411.2</ele><time>2026-04-18T10:06:56.001Z</time></trkpt><trkpt lat="37.56406305788729" lon="13.234251499646009"><ele>406.79999999999995</ele><time>2026-04-18T10:06:57.001Z</time></trkpt><trkpt lat="37.56399515598755" lon="13.234270662032074"><ele>402.4</ele><time>2026-04-18T10:06:58.001Z</time></trkpt><trkpt lat="37.56391614884224" lon="13.234243891173247"><ele>398.0</ele><time>2026-04-18T10:06:59.001Z</time></trkpt><trkpt lat="37.56381137040964" lon="13.234147590539685"><ele>399.25</ele><time>2026-04-18T10:07:00.001Z</time></trkpt><trkpt lat="37.56367647802317" lon="13.234071672744292"><ele>400.5</ele><time>2026-04-18T10:07:01.001Z</time></trkpt><trkpt lat="37.56356616796815" lon="13.234005055344067"><ele>401.75</ele><time>2026-04-18T10:07:02.001Z</time></trkpt><trkpt lat="37.563466331490446" lon="13.233942395328196"><ele>403.0</ele><time>2026-04-18T10:07:03.001Z</time></trkpt><trkpt lat="37.56337426889465" lon="13.233878106330387"><ele>403.0</ele><time>2026-04-18T10:07:04.001Z</time></trkpt><trkpt lat="37.563282693332006" lon="13.233833243567588"><ele>403.0</ele><time>2026-04-18T10:07:05.001Z</time></trkpt><trkpt lat="37.56318580460651" lon="13.233823275897535"><ele>403.0</ele><time>2026-04-18T10:07:06.001Z</time></trkpt><trkpt lat="37.56309220297122" lon="13.233839072078567"><ele>403.0</ele><time>2026-04-18T10:07:07.001Z</time></trkpt><trkpt lat="37.563015962600595" lon="13.233884683037639"><ele>403.0</ele><time>2026-04-18T10:07:08.001Z</time></trkpt><trkpt lat="37.56295972873975" lon="13.233963815229966"><ele>399.59999999999997</ele><time>2026-04-18T10:07:09.001Z</time></trkpt><trkpt lat="37.56290450891386" lon="13.234111344868454"><ele>396.2</ele><time>2026-04-18T10:07:10.001Z</time></trkpt><trkpt lat="37.56285051437559" lon="13.234255665446023"><ele>392.8</ele><time>2026-04-18T10:07:11.001Z</time></trkpt><trkpt lat="37.56279369639286" lon="13.234345671461687"><ele>389.4</ele><time>2026-04-18T10:07:12.001Z</time></trkpt><trkpt lat="37.56273280176328" lon="13.234404254148068"><ele>386.0</ele><time>2026-04-18T10:07:13.001Z</time></trkpt><trkpt lat="37.56266379523363" lon="13.234418728836655"><ele>385.5</ele><time>2026-04-18T10:07:14.001Z</time></trkpt><trkpt lat="37.56256020273992" lon="13.234402460867935"><ele>385.0</ele><time>2026-04-18T10:07:15.001Z</time></trkpt><trkpt lat="37.56242389353228" lon="13.234314023536982"><ele>384.5</ele><time>2026-04-18T10:07:16.001Z</time></trkpt><trkpt lat="37.56228952060428" lon="13.234262104138843"><ele>384.0</ele><time>2026-04-18T10:07:17.001Z</time></trkpt><trkpt lat="37.56216222118381" lon="13.234188367094644"><ele>381.6666666666667</ele><time>2026-04-18T10:07:18.001Z</time></trkpt><trkpt lat="37.56200191013118" lon="13.234210501833777"><ele>379.33333333333337</ele><time>2026-04-18T10:07:19.001Z</time></trkpt><trkpt lat="37.56181408042969" lon="13.2341999628192"><ele>377.0</ele><time>2026-04-18T10:07:20.001Z</time></trkpt><trkpt lat="37.561639060714306" lon="13.234159251297786"><ele>377.0</ele><time>2026-04-18T10:07:21.001Z</time></trkpt><trkpt lat="37.56144184690949" lon="13.23410059593981"><ele>377.0</ele><time>2026-04-18T10:07:22.001Z</time></trkpt><trkpt lat="37.561289464033244" lon="13.234058474719783"><ele>377.0</ele><time>2026-04-18T10:07:23.001Z</time></trkpt><trkpt lat="37.56116782584213" lon="13.234031956075276"><ele>376.0</ele><time>2026-04-18T10:07:24.001Z</time></trkpt><trkpt lat="37.56107108447783" lon="13.234020990579836"><ele>375.0</ele><time>2026-04-18T10:07:25.001Z</time></trkpt><trkpt lat="37.56100139508263" lon="13.234019261773408"><ele>374.0</ele><time>2026-04-18T10:07:26.001Z</time></trkpt><trkpt lat="37.56090045163489" lon="13.234026701148315"><ele>373.0</ele><time>2026-04-18T10:07:28.001Z</time></trkpt><trkpt lat="37.56082424849667" lon="13.234035529835692"><ele>372.0</ele><time>2026-04-18T10:07:29.001Z</time></trkpt><trkpt lat="37.56075030423559" lon="13.234046374812761"><ele>371.0</ele><time>2026-04-18T10:07:30.001Z</time></trkpt><trkpt lat="37.560678449639894" lon="13.234053619789995"><ele>371.0</ele><time>2026-04-18T10:07:31.001Z</time></trkpt><trkpt lat="37.560562284610484" lon="13.234050729820792"><ele>371.0</ele><time>2026-04-18T10:07:33.001Z</time></trkpt><trkpt lat="37.560443024012685" lon="13.234012897058825"><ele>371.0</ele><time>2026-04-18T10:07:35Z</time></trkpt><trkpt lat="37.56033961552739" lon="13.233949896898714"><ele>371.0</ele><time>2026-04-18T10:07:37Z</time></trkpt><trkpt lat="37.560264608451256" lon="13.233894441991266"><ele>371.0</ele><time>2026-04-18T10:07:39Z</time></trkpt><trkpt lat="37.560198082524465" lon="13.233887505977057"><ele>370.4</ele><time>2026-04-18T10:07:43Z</time></trkpt><trkpt lat="37.56009570184249" lon="13.234043668622826"><ele>369.8</ele><time>2026-04-18T10:07:46Z</time></trkpt><trkpt lat="37.56005953853395" lon="13.234124050194136"><ele>369.2</ele><time>2026-04-18T10:07:48Z</time></trkpt><trkpt lat="37.56002216969471" lon="13.234204145083579"><ele>368.59999999999997</ele><time>2026-04-18T10:07:51Z</time></trkpt><trkpt lat="37.55998522082243" lon="13.234283339860651"><ele>368.0</ele><time>2026-04-18T10:07:54Z</time></trkpt><trkpt lat="37.560090926721124" lon="13.234386343117343"><ele>368.0</ele><time>2026-04-18T10:07:56Z</time></trkpt><trkpt lat="37.56016671144557" lon="13.234441736329693"><ele>368.0</ele><time>2026-04-18T10:07:59Z</time></trkpt><trkpt lat="37.560245374097214" lon="13.234497649386256"><ele>368.0</ele><time>2026-04-18T10:08:02Z</time></trkpt><trkpt lat="37.560316512683976" lon="13.234548601484414"><ele>368.0</ele><time>2026-04-18T10:08:04Z</time></trkpt><trkpt lat="37.56039930549557" lon="13.234589729358621"><ele>368.0</ele><time>2026-04-18T10:08:06Z</time></trkpt><trkpt lat="37.56045725616598" lon="13.234633131449995"><ele>368.0</ele><time>2026-04-18T10:08:08Z</time></trkpt><trkpt lat="37.56057404321177" lon="13.234708788249169"><ele>368.5</ele><time>2026-04-18T10:08:10Z</time></trkpt><trkpt lat="37.56066346588114" lon="13.234737108820186"><ele>369.0</ele><time>2026-04-18T10:08:12Z</time></trkpt><trkpt lat="37.560758326607434" lon="13.234760367148798"><ele>369.5</ele><time>2026-04-18T10:08:14Z</time></trkpt><trkpt lat="37.560830361357766" lon="13.234801611395103"><ele>370.0</ele><time>2026-04-18T10:08:16Z</time></trkpt><trkpt lat="37.56089739652682" lon="13.23484010691259"><ele>370.5</ele><time>2026-04-18T10:08:18Z</time></trkpt><trkpt lat="37.56095806962525" lon="13.234915702292458"><ele>371.0</ele><time>2026-04-18T10:08:20Z</time></trkpt><trkpt lat="37.56101848366131" lon="13.235033222707747"><ele>369.5</ele><time>2026-04-18T10:08:22Z</time></trkpt><trkpt lat="37.5610646256451" lon="13.235135640838891"><ele>368.0</ele><time>2026-04-18T10:08:24Z</time></trkpt><trkpt lat="37.56110725901969" lon="13.235205364326188"><ele>366.5</ele><time>2026-04-18T10:08:27Z</time></trkpt><trkpt lat="37.56101208591637" lon="13.23520182679815"><ele>365.0</ele><time>2026-04-18T10:08:33Z</time></trkpt><trkpt lat="37.56092926503457" lon="13.235145826257812"><ele>363.5</ele><time>2026-04-18T10:08:35Z</time></trkpt><trkpt lat="37.560840938809754" lon="13.235101471318849"><ele>362.0</ele><time>2026-04-18T10:08:37Z</time></trkpt><trkpt lat="37.56074737459342" lon="13.235026399328332"><ele>362.0</ele><time>2026-04-18T10:08:39Z</time></trkpt><trkpt lat="37.560654320095985" lon="13.234973593039937"><ele>362.0</ele><time>2026-04-18T10:08:41Z</time></trkpt><trkpt lat="37.56056232037237" lon="13.234916267628915"><ele>362.0</ele><time>2026-04-18T10:08:43Z</time></trkpt><trkpt lat="37.560465519242754" lon="13.234832772801022"><ele>362.0</ele><time>2026-04-18T10:08:45Z</time></trkpt><trkpt lat="37.560367431981994" lon="13.234766804714328"><ele>362.0</ele><time>2026-04-18T10:08:47Z</time></trkpt><trkpt lat="37.56028915944186" lon="13.23471416274013"><ele>363.0</ele><time>2026-04-18T10:08:49Z</time></trkpt><trkpt lat="37.560203645420685" lon="13.234686266707909"><ele>364.0</ele><time>2026-04-18T10:08:52.001Z</time></trkpt><trkpt lat="37.56014043477844" lon="13.23465349916116"><ele>365.0</ele><time>2026-04-18T10:08:54.001Z</time></trkpt><trkpt lat="37.560075022419674" lon="13.234617896075578"><ele>366.0</ele><time>2026-04-18T10:08:56.001Z</time></trkpt><trkpt lat="37.56000341431923" lon="13.234565818628484"><ele>367.0</ele><time>2026-04-18T10:08:58.001Z</time></trkpt><trkpt lat="37.55992062193813" lon="13.234520860219664"><ele>368.0</ele><time>2026-04-18T10:09:00.001Z</time></trkpt><trkpt lat="37.55983503174052" lon="13.234545907284609"><ele>368.0</ele><time>2026-04-18T10:09:03.001Z</time></trkpt><trkpt lat="37.55980874607768" lon="13.234703451770175"><ele>368.0</ele><time>2026-04-18T10:09:06.001Z</time></trkpt><trkpt lat="37.55983555540646" lon="13.234786259119124"><ele>368.0</ele><time>2026-04-18T10:09:08.001Z</time></trkpt><trkpt lat="37.55978062527646" lon="13.234856244018973"><ele>368.0</ele><time>2026-04-18T10:09:09.001Z</time></trkpt><trkpt lat="37.55972183499367" lon="13.234970101970072"><ele>368.0</ele><time>2026-04-18T10:09:11.001Z</time></trkpt><trkpt lat="37.55968701052336" lon="13.235038899527598"><ele>368.0</ele><time>2026-04-18T10:09:12.001Z</time></trkpt><trkpt lat="37.559650070823885" lon="13.235111673200482"><ele>367.1666666666667</ele><time>2026-04-18T10:09:13.001Z</time></trkpt><trkpt lat="37.55961983366858" lon="13.235196201596121"><ele>366.33333333333337</ele><time>2026-04-18T10:09:14.001Z</time></trkpt><trkpt lat="37.5595716878293" lon="13.235261261733376"><ele>365.5</ele><time>2026-04-18T10:09:15.001Z</time></trkpt><trkpt lat="37.55953286630287" lon="13.235347811420512"><ele>364.6666666666667</ele><time>2026-04-18T10:09:16.001Z</time></trkpt><trkpt lat="37.55949554766638" lon="13.23543292573218"><ele>363.8333333333333</ele><time>2026-04-18T10:09:17.001Z</time></trkpt><trkpt lat="37.55943491350522" lon="13.235568645686099"><ele>363.0</ele><time>2026-04-18T10:09:19.001Z</time></trkpt><trkpt lat="37.5594026557211" lon="13.235640710451621"><ele>361.5</ele><time>2026-04-18T10:09:20.001Z</time></trkpt><trkpt lat="37.55935017036829" lon="13.23575796416756"><ele>360.0</ele><time>2026-04-18T10:09:22.001Z</time></trkpt><trkpt lat="37.55934262913" lon="13.235854444428666"><ele>358.5</ele><time>2026-04-18T10:09:24.001Z</time></trkpt><trkpt lat="37.55934380655212" lon="13.235954797367821"><ele>357.0</ele><time>2026-04-18T10:09:28.001Z</time></trkpt><trkpt lat="37.55935093076785" lon="13.236038865748117"><ele>355.5</ele><time>2026-04-18T10:09:30.001Z</time></trkpt><trkpt lat="37.55936612407873" lon="13.236130304312796"><ele>354.0</ele><time>2026-04-18T10:09:31.001Z</time></trkpt><trkpt lat="37.55934877552308" lon="13.236224958496004"><ele>354.0</ele><time>2026-04-18T10:09:32.001Z</time></trkpt><trkpt lat="37.55934204696136" lon="13.236314316395314"><ele>354.0</ele><time>2026-04-18T10:09:33.001Z</time></trkpt><trkpt lat="37.55933413336268" lon="13.236403108505149"><ele>354.0</ele><time>2026-04-18T10:09:34.001Z</time></trkpt><trkpt lat="37.55933747995998" lon="13.236483070041515"><ele>354.0</ele><time>2026-04-18T10:09:35.001Z</time></trkpt><trkpt lat="37.5592507954017" lon="13.23662362101205"><ele>354.0</ele><time>2026-04-18T10:09:37.001Z</time></trkpt><trkpt lat="37.55916975225567" lon="13.23666621787893"><ele>354.0</ele><time>2026-04-18T10:09:38.001Z</time></trkpt><trkpt lat="37.55907150589234" lon="13.236694482379505"><ele>352.4</ele><time>2026-04-18T10:09:39.001Z</time></trkpt><trkpt lat="37.55898145307453" lon="13.236713894339648"><ele>350.79999999999995</ele><time>2026-04-18T10:09:40.001Z</time></trkpt><trkpt lat="37.558894075294326" lon="13.236728322597983"><ele>349.20000000000005</ele><time>2026-04-18T10:09:41Z</time></trkpt><trkpt lat="37.558791914378745" lon="13.23671855303725"><ele>347.6</ele><time>2026-04-18T10:09:42Z</time></trkpt><trkpt lat="37.55867886670685" lon="13.236679480124614"><ele>346.0</ele><time>2026-04-18T10:09:43Z</time></trkpt><trkpt lat="37.55855249199072" lon="13.236639422478817"><ele>344.6</ele><time>2026-04-18T10:09:44Z</time></trkpt><trkpt lat="37.5584308955989" lon="13.236620254358844"><ele>343.20000000000005</ele><time>2026-04-18T10:09:45Z</time></trkpt><trkpt lat="37.55832964720341" lon="13.236603367823474"><ele>341.79999999999995</ele><time>2026-04-18T10:09:46Z</time></trkpt><trkpt lat="37.558229714324305" lon="13.236570812133992"><ele>340.4</ele><time>2026-04-18T10:09:47Z</time></trkpt><trkpt lat="37.55812939203371" lon="13.236534377300387"><ele>339.0</ele><time>2026-04-18T10:09:48Z</time></trkpt><trkpt lat="37.558032051833926" lon="13.23650329576173"><ele>340.79999999999995</ele><time>2026-04-18T10:09:49Z</time></trkpt><trkpt lat="37.55793969910496" lon="13.236466306100802"><ele>342.59999999999997</ele><time>2026-04-18T10:09:50Z</time></trkpt><trkpt lat="37.557844579386156" lon="13.236413047399889"><ele>344.4</ele><time>2026-04-18T10:09:51Z</time></trkpt><trkpt lat="37.55775142911951" lon="13.236329030009147"><ele>346.2</ele><time>2026-04-18T10:09:52Z</time></trkpt><trkpt lat="37.55767157830299" lon="13.236228207617064"><ele>348.0</ele><time>2026-04-18T10:09:53Z</time></trkpt><trkpt lat="37.557612632253544" lon="13.236124604012158"><ele>343.4</ele><time>2026-04-18T10:09:54Z</time></trkpt><trkpt lat="37.55759409994284" lon="13.236003135978116"><ele>338.79999999999995</ele><time>2026-04-18T10:09:55Z</time></trkpt><trkpt lat="37.55758780763566" lon="13.235873726511686"><ele>334.2</ele><time>2026-04-18T10:09:56Z</time></trkpt><trkpt lat="37.557592579236626" lon="13.235721801959839"><ele>329.6</ele><time>2026-04-18T10:09:57Z</time></trkpt><trkpt lat="37.55759822213956" lon="13.235568993301888"><ele>325.0</ele><time>2026-04-18T10:09:58Z</time></trkpt><trkpt lat="37.557604022965485" lon="13.235411908090605"><ele>324.8</ele><time>2026-04-18T10:09:59Z</time></trkpt><trkpt lat="37.557593993397" lon="13.23526311715281"><ele>324.6</ele><time>2026-04-18T10:10:00Z</time></trkpt><trkpt lat="37.557597705477576" lon="13.235117133161257"><ele>324.4</ele><time>2026-04-18T10:10:01Z</time></trkpt><trkpt lat="37.55761080860128" lon="13.2349765732458"><ele>324.2</ele><time>2026-04-18T10:10:02Z</time></trkpt><trkpt lat="37.55760747455287" lon="13.234849810068887"><ele>324.0</ele><time>2026-04-18T10:10:03Z</time></trkpt><trkpt lat="37.55758756120759" lon="13.234723862224952"><ele>324.79999999999995</ele><time>2026-04-18T10:10:04Z</time></trkpt><trkpt lat="37.5575478451741" lon="13.234606221874877"><ele>325.59999999999997</ele><time>2026-04-18T10:10:05Z</time></trkpt><trkpt lat="37.55749405881823" lon="13.234500180666734"><ele>326.4</ele><time>2026-04-18T10:10:06Z</time></trkpt><trkpt lat="37.55742746693159" lon="13.23439190162675"><ele>327.2</ele><time>2026-04-18T10:10:07Z</time></trkpt><trkpt lat="37.55734274456382" lon="13.23428644596335"><ele>328.0</ele><time>2026-04-18T10:10:08Z</time></trkpt><trkpt lat="37.55724812427657" lon="13.234200652442935"><ele>328.0</ele><time>2026-04-18T10:10:09Z</time></trkpt><trkpt lat="37.55716090164256" lon="13.234147986164515"><ele>328.0</ele><time>2026-04-18T10:10:10Z</time></trkpt><trkpt lat="37.55707682327029" lon="13.234090949619977"><ele>328.0</ele><time>2026-04-18T10:10:11Z</time></trkpt><trkpt lat="37.55699758910948" lon="13.234019581300652"><ele>328.0</ele><time>2026-04-18T10:10:12Z</time></trkpt><trkpt lat="37.5569305683632" lon="13.23392842278101"><ele>328.0</ele><time>2026-04-18T10:10:13Z</time></trkpt><trkpt lat="37.556879029176834" lon="13.233815350451385"><ele>324.59999999999997</ele><time>2026-04-18T10:10:14Z</time></trkpt><trkpt lat="37.55683731777164" lon="13.233694070585607"><ele>321.2</ele><time>2026-04-18T10:10:15Z</time></trkpt><trkpt lat="37.55680111829497" lon="13.233568343913696"><ele>317.8</ele><time>2026-04-18T10:10:16Z</time></trkpt><trkpt lat="37.55676533662583" lon="13.2334471279361"><ele>314.4</ele><time>2026-04-18T10:10:17Z</time></trkpt><trkpt lat="37.55671710408778" lon="13.233331513923801"><ele>311.0</ele><time>2026-04-18T10:10:18Z</time></trkpt><trkpt lat="37.556648974890884" lon="13.23322631050692"><ele>311.0</ele><time>2026-04-18T10:10:19Z</time></trkpt><trkpt lat="37.55655955893352" lon="13.233144628905805"><ele>311.0</ele><time>2026-04-18T10:10:20Z</time></trkpt><trkpt lat="37.55646036045473" lon="13.2330851793487"><ele>311.0</ele><time>2026-04-18T10:10:21Z</time></trkpt><trkpt lat="37.556361937877284" lon="13.233028364281894"><ele>311.0</ele><time>2026-04-18T10:10:22Z</time></trkpt><trkpt lat="37.556278114948896" lon="13.232947812300557"><ele>311.0</ele><time>2026-04-18T10:10:23Z</time></trkpt><trkpt lat="37.55619120169165" lon="13.23287499517162"><ele>308.8</ele><time>2026-04-18T10:10:24Z</time></trkpt><trkpt lat="37.556100079003684" lon="13.232811518626349"><ele>306.6</ele><time>2026-04-18T10:10:25Z</time></trkpt><trkpt lat="37.55602560617728" lon="13.232721756686772"><ele>304.4</ele><time>2026-04-18T10:10:26Z</time></trkpt><trkpt lat="37.55597403569448" lon="13.232605736058227"><ele>302.2</ele><time>2026-04-18T10:10:27Z</time></trkpt><trkpt lat="37.55590484455331" lon="13.23251968004729"><ele>300.0</ele><time>2026-04-18T10:10:28Z</time></trkpt><trkpt lat="37.55583904335892" lon="13.232431691117103"><ele>300.0</ele><time>2026-04-18T10:10:29Z</time></trkpt><trkpt lat="37.55576123023938" lon="13.2323670795294"><ele>300.0</ele><time>2026-04-18T10:10:30Z</time></trkpt><trkpt lat="37.55568339058126" lon="13.232328339548932"><ele>300.0</ele><time>2026-04-18T10:10:31Z</time></trkpt><trkpt lat="37.55560950538271" lon="13.23229921026594"><ele>300.0</ele><time>2026-04-18T10:10:32Z</time></trkpt><trkpt lat="37.555523028997435" lon="13.232281538421885"><ele>300.0</ele><time>2026-04-18T10:10:33Z</time></trkpt><trkpt lat="37.55542331675617" lon="13.23226877009755"><ele>300.0</ele><time>2026-04-18T10:10:34Z</time></trkpt><trkpt lat="37.55532571917792" lon="13.232263843822887"><ele>300.2</ele><time>2026-04-18T10:10:35Z</time></trkpt><trkpt lat="37.55522886678674" lon="13.232279029476148"><ele>300.4</ele><time>2026-04-18T10:10:36Z</time></trkpt><trkpt lat="37.55513417383181" lon="13.232311493231036"><ele>300.6</ele><time>2026-04-18T10:10:37Z</time></trkpt><trkpt lat="37.555038980889414" lon="13.232363115622976"><ele>300.8</ele><time>2026-04-18T10:10:38Z</time></trkpt><trkpt lat="37.554946689483515" lon="13.232433931029192"><ele>301.0</ele><time>2026-04-18T10:10:39Z</time></trkpt><trkpt lat="37.55485954361428" lon="13.232514736390444"><ele>301.0</ele><time>2026-04-18T10:10:40Z</time></trkpt><trkpt lat="37.55478100721806" lon="13.232619112742714"><ele>301.0</ele><time>2026-04-18T10:10:41Z</time></trkpt><trkpt lat="37.554695859208834" lon="13.232739406616368"><ele>301.0</ele><time>2026-04-18T10:10:42Z</time></trkpt><trkpt lat="37.55459707074201" lon="13.232865896229294"><ele>301.0</ele><time>2026-04-18T10:10:43Z</time></trkpt><trkpt lat="37.55447792692177" lon="13.23291476439468"><ele>301.40000000000003</ele><time>2026-04-18T10:10:45Z</time></trkpt><trkpt lat="37.554395650534694" lon="13.232992812247703"><ele>301.8</ele><time>2026-04-18T10:10:46Z</time></trkpt><trkpt lat="37.55430871031662" lon="13.233071277640942"><ele>302.20000000000005</ele><time>2026-04-18T10:10:47Z</time></trkpt><trkpt lat="37.5542106390794" lon="13.233133389275071"><ele>302.6</ele><time>2026-04-18T10:10:48.001Z</time></trkpt><trkpt lat="37.55409670384197" lon="13.233184343719133"><ele>303.0</ele><time>2026-04-18T10:10:49.001Z</time></trkpt><trkpt lat="37.553983348447304" lon="13.233235185312413"><ele>303.0</ele><time>2026-04-18T10:10:50.001Z</time></trkpt><trkpt lat="37.55386855842837" lon="13.233284564718877"><ele>303.0</ele><time>2026-04-18T10:10:51.001Z</time></trkpt><trkpt lat="37.5537587738974" lon="13.233337308492652"><ele>303.0</ele><time>2026-04-18T10:10:52.001Z</time></trkpt><trkpt lat="37.55365250433391" lon="13.233387814382965"><ele>303.0</ele><time>2026-04-18T10:10:53.001Z</time></trkpt><trkpt lat="37.55354991931282" lon="13.233438645879923"><ele>303.2</ele><time>2026-04-18T10:10:54.001Z</time></trkpt><trkpt lat="37.553449421660325" lon="13.233480325996787"><ele>303.4</ele><time>2026-04-18T10:10:55.001Z</time></trkpt><trkpt lat="37.55335079619776" lon="13.233534137130146"><ele>303.59999999999997</ele><time>2026-04-18T10:10:56.001Z</time></trkpt><trkpt lat="37.55325116923857" lon="13.233582250235902"><ele>303.8</ele><time>2026-04-18T10:10:57.001Z</time></trkpt><trkpt lat="37.55314812699384" lon="13.233647768064158"><ele>304.0</ele><time>2026-04-18T10:10:58.001Z</time></trkpt><trkpt lat="37.55304211635076" lon="13.233729318869763"><ele>304.0</ele><time>2026-04-18T10:10:59.001Z</time></trkpt><trkpt lat="37.55292460707295" lon="13.23380914861195"><ele>304.0</ele><time>2026-04-18T10:11:00.001Z</time></trkpt><trkpt lat="37.55280815620554" lon="13.233897066515448"><ele>304.0</ele><time>2026-04-18T10:11:01.001Z</time></trkpt><trkpt lat="37.55268328798887" lon="13.23397871880097"><ele>304.0</ele><time>2026-04-18T10:11:02.001Z</time></trkpt><trkpt lat="37.552563660676824" lon="13.23406094157141"><ele>303.0</ele><time>2026-04-18T10:11:03.001Z</time></trkpt><trkpt lat="37.55244389919573" lon="13.234146612549509"><ele>302.0</ele><time>2026-04-18T10:11:04.001Z</time></trkpt><trkpt lat="37.55232077870353" lon="13.234237020487207"><ele>301.0</ele><time>2026-04-18T10:11:05.001Z</time></trkpt><trkpt lat="37.55220199019399" lon="13.234324213855327"><ele>300.0</ele><time>2026-04-18T10:11:06.001Z</time></trkpt><trkpt lat="37.55207323548093" lon="13.234407695359524"><ele>294.75</ele><time>2026-04-18T10:11:07.001Z</time></trkpt><trkpt lat="37.551944243652926" lon="13.234496481496672"><ele>289.5</ele><time>2026-04-18T10:11:08.001Z</time></trkpt><trkpt lat="37.55181926828459" lon="13.234589735224027"><ele>284.25</ele><time>2026-04-18T10:11:09.001Z</time></trkpt><trkpt lat="37.55169711822179" lon="13.234674675360377"><ele>279.0</ele><time>2026-04-18T10:11:10.001Z</time></trkpt><trkpt lat="37.55158368067712" lon="13.23477201678331"><ele>277.75</ele><time>2026-04-18T10:11:11.001Z</time></trkpt><trkpt lat="37.551471285921615" lon="13.234865690293974"><ele>276.5</ele><time>2026-04-18T10:11:12.001Z</time></trkpt><trkpt lat="37.55135152870516" lon="13.23496326215386"><ele>275.25</ele><time>2026-04-18T10:11:13.001Z</time></trkpt><trkpt lat="37.55121377252073" lon="13.23504865032731"><ele>274.0</ele><time>2026-04-18T10:11:14.001Z</time></trkpt><trkpt lat="37.5510818255712" lon="13.235143907152178"><ele>274.0</ele><time>2026-04-18T10:11:15.001Z</time></trkpt><trkpt lat="37.550959012795865" lon="13.235244965605403"><ele>274.0</ele><time>2026-04-18T10:11:16.001Z</time></trkpt><trkpt lat="37.5508365301476" lon="13.235334138999967"><ele>274.0</ele><time>2026-04-18T10:11:17.001Z</time></trkpt><trkpt lat="37.55072547513122" lon="13.23544154505501"><ele>274.0</ele><time>2026-04-18T10:11:18.001Z</time></trkpt><trkpt lat="37.55062078138868" lon="13.235558421326449"><ele>275.0</ele><time>2026-04-18T10:11:19.001Z</time></trkpt><trkpt lat="37.55051568644678" lon="13.235676631249303"><ele>276.0</ele><time>2026-04-18T10:11:20.001Z</time></trkpt><trkpt lat="37.550411234990065" lon="13.23579553722387"><ele>277.0</ele><time>2026-04-18T10:11:21.001Z</time></trkpt><trkpt lat="37.550308918844344" lon="13.235915424852424"><ele>278.0</ele><time>2026-04-18T10:11:22.001Z</time></trkpt><trkpt lat="37.55020244427003" lon="13.236036628127664"><ele>273.33333333333337</ele><time>2026-04-18T10:11:23.001Z</time></trkpt><trkpt lat="37.550078016634494" lon="13.236162980642506"><ele>268.6666666666667</ele><time>2026-04-18T10:11:24.001Z</time></trkpt><trkpt lat="37.549922006769464" lon="13.236282213205381"><ele>264.0</ele><time>2026-04-18T10:11:25.001Z</time></trkpt><trkpt lat="37.54974838595866" lon="13.236398740331813"><ele>261.6666666666667</ele><time>2026-04-18T10:11:26.001Z</time></trkpt><trkpt lat="37.54958414586003" lon="13.236505409303872"><ele>259.33333333333337</ele><time>2026-04-18T10:11:27.001Z</time></trkpt><trkpt lat="37.549427966897774" lon="13.23661127977741"><ele>257.0</ele><time>2026-04-18T10:11:28.001Z</time></trkpt><trkpt lat="37.54927777806417" lon="13.236711020198301"><ele>255.0</ele><time>2026-04-18T10:11:29.001Z</time></trkpt><trkpt lat="37.54913748717244" lon="13.236804690347764"><ele>253.0</ele><time>2026-04-18T10:11:30.001Z</time></trkpt><trkpt lat="37.549004368923804" lon="13.236897675138714"><ele>251.0</ele><time>2026-04-18T10:11:31.001Z</time></trkpt><trkpt lat="37.54886649513563" lon="13.236987822734417"><ele>251.0</ele><time>2026-04-18T10:11:32.001Z</time></trkpt><trkpt lat="37.54872110147279" lon="13.237089487207664"><ele>251.0</ele><time>2026-04-18T10:11:33.001Z</time></trkpt><trkpt lat="37.54857602109351" lon="13.237190563896217"><ele>251.0</ele><time>2026-04-18T10:11:34.001Z</time></trkpt><trkpt lat="37.54843941209875" lon="13.237281392347713"><ele>248.75</ele><time>2026-04-18T10:11:35.001Z</time></trkpt><trkpt lat="37.54830650302219" lon="13.237369949806725"><ele>246.5</ele><time>2026-04-18T10:11:36.001Z</time></trkpt><trkpt lat="37.54817666127009" lon="13.237459774336385"><ele>244.25</ele><time>2026-04-18T10:11:37.001Z</time></trkpt><trkpt lat="37.54804930236561" lon="13.237554828874112"><ele>242.0</ele><time>2026-04-18T10:11:38.001Z</time></trkpt><trkpt lat="37.54792688075863" lon="13.237666473060136"><ele>240.66666666666669</ele><time>2026-04-18T10:11:39.001Z</time></trkpt><trkpt lat="37.547815035552716" lon="13.237801924210615"><ele>239.33333333333331</ele><time>2026-04-18T10:11:40.001Z</time></trkpt><trkpt lat="37.54770162393856" lon="13.237961377192592"><ele>238.0</ele><time>2026-04-18T10:11:41.001Z</time></trkpt><trkpt lat="37.54759365182307" lon="13.23812269115813"><ele>240.0</ele><time>2026-04-18T10:11:42.001Z</time></trkpt><trkpt lat="37.547489733268215" lon="13.238277200743948"><ele>242.0</ele><time>2026-04-18T10:11:43.001Z</time></trkpt><trkpt lat="37.547387661825134" lon="13.238410108280075"><ele>244.0</ele><time>2026-04-18T10:11:44.001Z</time></trkpt><trkpt lat="37.547271150993424" lon="13.238528429690044"><ele>244.0</ele><time>2026-04-18T10:11:45.001Z</time></trkpt><trkpt lat="37.54713750040606" lon="13.23863170128334"><ele>244.0</ele><time>2026-04-18T10:11:46.001Z</time></trkpt><trkpt lat="37.54699590871873" lon="13.238705824970602"><ele>244.0</ele><time>2026-04-18T10:11:46.999Z</time></trkpt><trkpt lat="37.54682885844379" lon="13.238769006145656"><ele>242.66666666666666</ele><time>2026-04-18T10:11:47.999Z</time></trkpt><trkpt lat="37.54664210612989" lon="13.238827517361415"><ele>241.33333333333331</ele><time>2026-04-18T10:11:48.999Z</time></trkpt><trkpt lat="37.546457134347584" lon="13.238890326859782"><ele>240.0</ele><time>2026-04-18T10:11:49.999Z</time></trkpt><trkpt lat="37.54628021313017" lon="13.238955260572302"><ele>241.0</ele><time>2026-04-18T10:11:50.999Z</time></trkpt><trkpt lat="37.54612121040887" lon="13.239015165367046"><ele>242.0</ele><time>2026-04-18T10:11:51.999Z</time></trkpt><trkpt lat="37.545978228842834" lon="13.23907458080502"><ele>243.0</ele><time>2026-04-18T10:11:52.999Z</time></trkpt><trkpt lat="37.54583541261347" lon="13.239130371293454"><ele>243.0</ele><time>2026-04-18T10:11:53.999Z</time></trkpt><trkpt lat="37.54570577613297" lon="13.239175647760788"><ele>243.0</ele><time>2026-04-18T10:11:54.999Z</time></trkpt><trkpt lat="37.5455895829332" lon="13.239212030571988"><ele>243.0</ele><time>2026-04-18T10:11:55.999Z</time></trkpt><trkpt lat="37.545477210429844" lon="13.23923273767277"><ele>243.0</ele><time>2026-04-18T10:11:56.999Z</time></trkpt><trkpt lat="37.545363869828826" lon="13.239205282641924"><ele>241.5</ele><time>2026-04-18T10:11:57.999Z</time></trkpt><trkpt lat="37.54526052051453" lon="13.239178096550521"><ele>240.0</ele><time>2026-04-18T10:11:58.999Z</time></trkpt><trkpt lat="37.545170336333705" lon="13.239126063365193"><ele>238.5</ele><time>2026-04-18T10:11:59.999Z</time></trkpt><trkpt lat="37.545059191520856" lon="13.239071011643691"><ele>237.0</ele><time>2026-04-18T10:12:00.999Z</time></trkpt><trkpt lat="37.54496918731706" lon="13.23895495112682"><ele>236.25</ele><time>2026-04-18T10:12:01.999Z</time></trkpt><trkpt lat="37.54488023475137" lon="13.238841534094739"><ele>235.5</ele><time>2026-04-18T10:12:03Z</time></trkpt><trkpt lat="37.54478317794496" lon="13.238775231524611"><ele>234.75</ele><time>2026-04-18T10:12:04Z</time></trkpt><trkpt lat="37.544733232950065" lon="13.23861121214376"><ele>234.0</ele><time>2026-04-18T10:12:05Z</time></trkpt><trkpt lat="37.54461996798338" lon="13.238542861245644"><ele>233.0</ele><time>2026-04-18T10:12:06Z</time></trkpt><trkpt lat="37.54448173698565" lon="13.238500620858488"><ele>232.0</ele><time>2026-04-18T10:12:07Z</time></trkpt><trkpt lat="37.54432222649906" lon="13.238484256439303"><ele>231.0</ele><time>2026-04-18T10:12:08Z</time></trkpt><trkpt lat="37.54415337303102" lon="13.238475054990811"><ele>231.0</ele><time>2026-04-18T10:12:09Z</time></trkpt><trkpt lat="37.54398058250994" lon="13.238463618981438"><ele>231.0</ele><time>2026-04-18T10:12:10Z</time></trkpt><trkpt lat="37.5438097645888" lon="13.238450511671658"><ele>231.0</ele><time>2026-04-18T10:12:11Z</time></trkpt><trkpt lat="37.5436406665646" lon="13.23844307082758"><ele>230.33333333333331</ele><time>2026-04-18T10:12:12Z</time></trkpt><trkpt lat="37.54347305513023" lon="13.238437402606058"><ele>229.66666666666666</ele><time>2026-04-18T10:12:13Z</time></trkpt><trkpt lat="37.543306379601894" lon="13.238426524649517"><ele>229.0</ele><time>2026-04-18T10:12:14Z</time></trkpt><trkpt lat="37.5431427917182" lon="13.238415146915543"><ele>229.0</ele><time>2026-04-18T10:12:15Z</time></trkpt><trkpt lat="37.54297964751624" lon="13.238405217430406"><ele>229.0</ele><time>2026-04-18T10:12:16Z</time></trkpt><trkpt lat="37.54281585234654" lon="13.23839297499314"><ele>229.0</ele><time>2026-04-18T10:12:17Z</time></trkpt><trkpt lat="37.542647771155785" lon="13.238377241921388"><ele>227.66666666666666</ele><time>2026-04-18T10:12:18Z</time></trkpt><trkpt lat="37.542480680852535" lon="13.238359882507567"><ele>226.33333333333331</ele><time>2026-04-18T10:12:19Z</time></trkpt><trkpt lat="37.54231422668743" lon="13.238345243182437"><ele>225.0</ele><time>2026-04-18T10:12:20Z</time></trkpt><trkpt lat="37.542154057368684" lon="13.238335108279047"><ele>224.0</ele><time>2026-04-18T10:12:21Z</time></trkpt><trkpt lat="37.54199595132682" lon="13.238333213691062"><ele>223.0</ele><time>2026-04-18T10:12:22Z</time></trkpt><trkpt lat="37.541826455147984" lon="13.238354211139722"><ele>222.0</ele><time>2026-04-18T10:12:23Z</time></trkpt><trkpt lat="37.54164954004854" lon="13.238397935300288"><ele>222.0</ele><time>2026-04-18T10:12:24Z</time></trkpt><trkpt lat="37.54147091566738" lon="13.238443853361993"><ele>222.0</ele><time>2026-04-18T10:12:25Z</time></trkpt><trkpt lat="37.541286594828584" lon="13.238483038385592"><ele>222.0</ele><time>2026-04-18T10:12:26Z</time></trkpt><trkpt lat="37.541110430706475" lon="13.238522366026917"><ele>219.33333333333331</ele><time>2026-04-18T10:12:27Z</time></trkpt><trkpt lat="37.54094850378533" lon="13.238566195764474"><ele>216.66666666666666</ele><time>2026-04-18T10:12:28Z</time></trkpt><trkpt lat="37.540792083886245" lon="13.238612990913108"><ele>214.0</ele><time>2026-04-18T10:12:29Z</time></trkpt><trkpt lat="37.54063970126153" lon="13.238661591600408"><ele>214.0</ele><time>2026-04-18T10:12:30Z</time></trkpt><trkpt lat="37.540483278376215" lon="13.2387216636104"><ele>214.0</ele><time>2026-04-18T10:12:31Z</time></trkpt><trkpt lat="37.54032568135348" lon="13.238792804963733"><ele>214.0</ele><time>2026-04-18T10:12:32Z</time></trkpt><trkpt lat="37.5401775645153" lon="13.238863164053361"><ele>213.5</ele><time>2026-04-18T10:12:33Z</time></trkpt><trkpt lat="37.540037336346735" lon="13.23893141487531"><ele>213.0</ele><time>2026-04-18T10:12:34Z</time></trkpt><trkpt lat="37.539898888295674" lon="13.23899636482236"><ele>212.5</ele><time>2026-04-18T10:12:35Z</time></trkpt><trkpt lat="37.539761179475775" lon="13.23905988133507"><ele>212.0</ele><time>2026-04-18T10:12:36Z</time></trkpt><trkpt lat="37.539617092015774" lon="13.239109129954796"><ele>209.75</ele><time>2026-04-18T10:12:37Z</time></trkpt><trkpt lat="37.53947130973564" lon="13.239139817731594"><ele>207.5</ele><time>2026-04-18T10:12:38Z</time></trkpt><trkpt lat="37.53933219726704" lon="13.239152161102334"><ele>205.25</ele><time>2026-04-18T10:12:39Z</time></trkpt><trkpt lat="37.53919998515103" lon="13.239147835479645"><ele>203.0</ele><time>2026-04-18T10:12:40Z</time></trkpt><trkpt lat="37.53907621085955" lon="13.239129652353292"><ele>203.0</ele><time>2026-04-18T10:12:41Z</time></trkpt><trkpt lat="37.538947556935334" lon="13.239102301328357"><ele>203.0</ele><time>2026-04-18T10:12:42Z</time></trkpt><trkpt lat="37.53881220158078" lon="13.239075233555472"><ele>203.0</ele><time>2026-04-18T10:12:43Z</time></trkpt><trkpt lat="37.53867052167453" lon="13.239054024669908"><ele>203.0</ele><time>2026-04-18T10:12:44Z</time></trkpt><trkpt lat="37.53852248341609" lon="13.23902563781326"><ele>202.5</ele><time>2026-04-18T10:12:45Z</time></trkpt><trkpt lat="37.538377579804454" lon="13.238978859927792"><ele>202.0</ele><time>2026-04-18T10:12:46Z</time></trkpt><trkpt lat="37.538241671377385" lon="13.238918370731822"><ele>201.5</ele><time>2026-04-18T10:12:47Z</time></trkpt><trkpt lat="37.53811765908817" lon="13.238856024744742"><ele>201.0</ele><time>2026-04-18T10:12:48Z</time></trkpt><trkpt lat="37.538005717195425" lon="13.238792930441733"><ele>201.0</ele><time>2026-04-18T10:12:49Z</time></trkpt><trkpt lat="37.53790126872113" lon="13.238732499879944"><ele>201.0</ele><time>2026-04-18T10:12:50Z</time></trkpt><trkpt lat="37.53780241033461" lon="13.238676761163198"><ele>201.0</ele><time>2026-04-18T10:12:51Z</time></trkpt><trkpt lat="37.53771127680019" lon="13.238622677148241"><ele>201.0</ele><time>2026-04-18T10:12:52Z</time></trkpt><trkpt lat="37.537627404969946" lon="13.238568506888274"><ele>201.0</ele><time>2026-04-18T10:12:53Z</time></trkpt><trkpt lat="37.53754110997403" lon="13.238508687016338"><ele>201.0</ele><time>2026-04-18T10:12:54Z</time></trkpt><trkpt lat="37.537453197309134" lon="13.238435281478134"><ele>201.0</ele><time>2026-04-18T10:12:55Z</time></trkpt><trkpt lat="37.5373700052809" lon="13.238345611695651"><ele>201.0</ele><time>2026-04-18T10:12:56Z</time></trkpt><trkpt lat="37.53729516414407" lon="13.238247788738818"><ele>201.0</ele><time>2026-04-18T10:12:57Z</time></trkpt><trkpt lat="37.53722334832269" lon="13.238162089487867"><ele>201.0</ele><time>2026-04-18T10:12:58Z</time></trkpt><trkpt lat="37.537162244366236" lon="13.238082871481827"><ele>201.20000000000002</ele><time>2026-04-18T10:12:59Z</time></trkpt><trkpt lat="37.53710662289518" lon="13.238002639241136"><ele>201.4</ele><time>2026-04-18T10:13:00Z</time></trkpt><trkpt lat="37.537043958870484" lon="13.237911938349857"><ele>201.6</ele><time>2026-04-18T10:13:01Z</time></trkpt><trkpt lat="37.53696931917754" lon="13.237810241075909"><ele>201.8</ele><time>2026-04-18T10:13:02Z</time></trkpt><trkpt lat="37.53689734806963" lon="13.237716036501114"><ele>202.0</ele><time>2026-04-18T10:13:03Z</time></trkpt><trkpt lat="37.53683184425157" lon="13.237630550116391"><ele>202.0</ele><time>2026-04-18T10:13:04Z</time></trkpt><trkpt lat="37.53676732729732" lon="13.23755076883165"><ele>202.0</ele><time>2026-04-18T10:13:05Z</time></trkpt><trkpt lat="37.53669462354887" lon="13.237465135917647"><ele>202.0</ele><time>2026-04-18T10:13:06Z</time></trkpt><trkpt lat="37.536619300745066" lon="13.237382239932854"><ele>202.0</ele><time>2026-04-18T10:13:07Z</time></trkpt><trkpt lat="37.53653555418515" lon="13.237316386880844"><ele>202.0</ele><time>2026-04-18T10:13:08.001Z</time></trkpt><trkpt lat="37.53643837233818" lon="13.237267972930802"><ele>201.33333333333331</ele><time>2026-04-18T10:13:09.001Z</time></trkpt><trkpt lat="37.53630280675661" lon="13.237221602026825"><ele>200.66666666666669</ele><time>2026-04-18T10:13:10.001Z</time></trkpt><trkpt lat="37.53614839370108" lon="13.237172057103182"><ele>200.0</ele><time>2026-04-18T10:13:11.001Z</time></trkpt><trkpt lat="37.53597139902835" lon="13.237117468650037"><ele>199.33333333333334</ele><time>2026-04-18T10:13:12.001Z</time></trkpt><trkpt lat="37.53577758026689" lon="13.237045845483113"><ele>198.66666666666669</ele><time>2026-04-18T10:13:13.001Z</time></trkpt><trkpt lat="37.53560120924596" lon="13.236973067137274"><ele>198.0</ele><time>2026-04-18T10:13:14.001Z</time></trkpt><trkpt lat="37.53540893044554" lon="13.236893213578671"><ele>196.0</ele><time>2026-04-18T10:13:15.001Z</time></trkpt><trkpt lat="37.5352119934435" lon="13.236811392518513"><ele>194.0</ele><time>2026-04-18T10:13:16.001Z</time></trkpt><trkpt lat="37.535018651965395" lon="13.236752237510414"><ele>192.0</ele><time>2026-04-18T10:13:17.001Z</time></trkpt><trkpt lat="37.534811420559684" lon="13.236729839880208"><ele>192.0</ele><time>2026-04-18T10:13:18.001Z</time></trkpt><trkpt lat="37.53457317065997" lon="13.236717584563253"><ele>192.0</ele><time>2026-04-18T10:13:19.001Z</time></trkpt><trkpt lat="37.534326158622626" lon="13.236687040486888"><ele>194.5</ele><time>2026-04-18T10:13:20.001Z</time></trkpt><trkpt lat="37.534080358844484" lon="13.236672499290849"><ele>197.0</ele><time>2026-04-18T10:13:21.001Z</time></trkpt><trkpt lat="37.533852642470045" lon="13.236662741259556"><ele>197.0</ele><time>2026-04-18T10:13:22.001Z</time></trkpt><trkpt lat="37.53364528786679" lon="13.236650977705917"><ele>197.0</ele><time>2026-04-18T10:13:23.001Z</time></trkpt><trkpt lat="37.5334494254318" lon="13.236641636310905"><ele>197.0</ele><time>2026-04-18T10:13:24.001Z</time></trkpt><trkpt lat="37.53325947381548" lon="13.236651331376162"><ele>197.0</ele><time>2026-04-18T10:13:25.001Z</time></trkpt><trkpt lat="37.533074498538625" lon="13.236642065561625"><ele>197.0</ele><time>2026-04-18T10:13:26.001Z</time></trkpt><trkpt lat="37.532890682199074" lon="13.236627067561892"><ele>197.0</ele><time>2026-04-18T10:13:27.001Z</time></trkpt><trkpt lat="37.53272614617516" lon="13.236621193314138"><ele>199.66666666666669</ele><time>2026-04-18T10:13:28.001Z</time></trkpt><trkpt lat="37.532577578382146" lon="13.236636994406172"><ele>202.33333333333331</ele><time>2026-04-18T10:13:29.001Z</time></trkpt><trkpt lat="37.53241751977695" lon="13.236655940472813"><ele>205.0</ele><time>2026-04-18T10:13:30.001Z</time></trkpt><trkpt lat="37.53225741727421" lon="13.236763243588845"><ele>205.0</ele><time>2026-04-18T10:13:31.001Z</time></trkpt><trkpt lat="37.53207989320338" lon="13.236876636459236"><ele>205.0</ele><time>2026-04-18T10:13:32.001Z</time></trkpt><trkpt lat="37.531909325440246" lon="13.23699265064053"><ele>205.0</ele><time>2026-04-18T10:13:33.001Z</time></trkpt><trkpt lat="37.53175710383272" lon="13.237100151989427"><ele>207.33333333333331</ele><time>2026-04-18T10:13:34.001Z</time></trkpt><trkpt lat="37.53162356573224" lon="13.237197426527354"><ele>209.66666666666669</ele><time>2026-04-18T10:13:35.001Z</time></trkpt><trkpt lat="37.53148384117016" lon="13.237293625065403"><ele>212.0</ele><time>2026-04-18T10:13:36.001Z</time></trkpt><trkpt lat="37.53133764627101" lon="13.23739175508098"><ele>215.33333333333334</ele><time>2026-04-18T10:13:37.001Z</time></trkpt><trkpt lat="37.53119164989093" lon="13.237480315857884"><ele>218.66666666666669</ele><time>2026-04-18T10:13:38.001Z</time></trkpt><trkpt lat="37.53103028720291" lon="13.23755167615395"><ele>222.0</ele><time>2026-04-18T10:13:39.001Z</time></trkpt><trkpt lat="37.530859843642396" lon="13.237602088289979"><ele>222.0</ele><time>2026-04-18T10:13:40.001Z</time></trkpt><trkpt lat="37.530688263043366" lon="13.237636237186724"><ele>222.0</ele><time>2026-04-18T10:13:41.001Z</time></trkpt><trkpt lat="37.53051964165077" lon="13.237702167010534"><ele>222.0</ele><time>2026-04-18T10:13:42.001Z</time></trkpt><trkpt lat="37.5303573942155" lon="13.23779333433886"><ele>218.33333333333331</ele><time>2026-04-18T10:13:43.001Z</time></trkpt><trkpt lat="37.53020153522341" lon="13.237900051000281"><ele>214.66666666666666</ele><time>2026-04-18T10:13:44.001Z</time></trkpt><trkpt lat="37.530048482537595" lon="13.237999204600932"><ele>211.0</ele><time>2026-04-18T10:13:45.001Z</time></trkpt><trkpt lat="37.529904028859576" lon="13.238096464296614"><ele>212.0</ele><time>2026-04-18T10:13:46.001Z</time></trkpt><trkpt lat="37.52976644932286" lon="13.238192904699366"><ele>213.0</ele><time>2026-04-18T10:13:47.001Z</time></trkpt><trkpt lat="37.52962191732315" lon="13.238272395719846"><ele>214.0</ele><time>2026-04-18T10:13:48.001Z</time></trkpt><trkpt lat="37.529481195330064" lon="13.238366223959554"><ele>212.25</ele><time>2026-04-18T10:13:49.001Z</time></trkpt><trkpt lat="37.529339736932556" lon="13.238430695976858"><ele>210.5</ele><time>2026-04-18T10:13:50.001Z</time></trkpt><trkpt lat="37.52920083498711" lon="13.238457193685743"><ele>208.75</ele><time>2026-04-18T10:13:51.001Z</time></trkpt><trkpt lat="37.52905373805728" lon="13.238469583058512"><ele>207.0</ele><time>2026-04-18T10:13:52.001Z</time></trkpt><trkpt lat="37.52892296004941" lon="13.238479012670167"><ele>207.0</ele><time>2026-04-18T10:13:53Z</time></trkpt><trkpt lat="37.52879935883229" lon="13.238507526295471"><ele>207.0</ele><time>2026-04-18T10:13:54Z</time></trkpt><trkpt lat="37.528669901492265" lon="13.238522483089696"><ele>207.0</ele><time>2026-04-18T10:13:55Z</time></trkpt><trkpt lat="37.528529852598616" lon="13.238537393353102"><ele>207.0</ele><time>2026-04-18T10:13:56Z</time></trkpt><trkpt lat="37.52837362360998" lon="13.238545591679435"><ele>207.66666666666669</ele><time>2026-04-18T10:13:57Z</time></trkpt><trkpt lat="37.52821690592275" lon="13.238551103559509"><ele>208.33333333333334</ele><time>2026-04-18T10:13:58Z</time></trkpt><trkpt lat="37.528060270124165" lon="13.238559899891742"><ele>209.0</ele><time>2026-04-18T10:13:59Z</time></trkpt><trkpt lat="37.52790002904031" lon="13.238568195218841"><ele>209.0</ele><time>2026-04-18T10:14:00Z</time></trkpt><trkpt lat="37.527738436669374" lon="13.238571459311038"><ele>209.0</ele><time>2026-04-18T10:14:01Z</time></trkpt><trkpt lat="37.52757306623601" lon="13.238570690288208"><ele>209.0</ele><time>2026-04-18T10:14:02Z</time></trkpt><trkpt lat="37.52740849926133" lon="13.238563056976522"><ele>209.0</ele><time>2026-04-18T10:14:03Z</time></trkpt><trkpt lat="37.52724392095496" lon="13.238548494283359"><ele>209.0</ele><time>2026-04-18T10:14:04Z</time></trkpt><trkpt lat="37.52708874635735" lon="13.238531527834555"><ele>209.0</ele><time>2026-04-18T10:14:05Z</time></trkpt><trkpt lat="37.52693952672244" lon="13.238512253754493"><ele>208.66666666666669</ele><time>2026-04-18T10:14:06Z</time></trkpt><trkpt lat="37.526785938412615" lon="13.23849566975475"><ele>208.33333333333331</ele><time>2026-04-18T10:14:07Z</time></trkpt><trkpt lat="37.52663107830284" lon="13.238483564945508"><ele>208.0</ele><time>2026-04-18T10:14:08Z</time></trkpt><trkpt lat="37.52647569751304" lon="13.238476857810989"><ele>208.0</ele><time>2026-04-18T10:14:09Z</time></trkpt><trkpt lat="37.52633191084795" lon="13.238476078785512"><ele>208.0</ele><time>2026-04-18T10:14:10Z</time></trkpt><trkpt lat="37.526187838530106" lon="13.23847321307326"><ele>208.0</ele><time>2026-04-18T10:14:11Z</time></trkpt><trkpt lat="37.5260475460318" lon="13.238471238758812"><ele>208.0</ele><time>2026-04-18T10:14:12Z</time></trkpt><trkpt lat="37.525915071202924" lon="13.23847328694863"><ele>208.0</ele><time>2026-04-18T10:14:13Z</time></trkpt><trkpt lat="37.52578190608149" lon="13.238472672171907"><ele>208.0</ele><time>2026-04-18T10:14:14Z</time></trkpt><trkpt lat="37.52565107495291" lon="13.238476316312013"><ele>208.0</ele><time>2026-04-18T10:14:15Z</time></trkpt><trkpt lat="37.52553046267754" lon="13.2384786330871"><ele>208.0</ele><time>2026-04-18T10:14:16Z</time></trkpt><trkpt lat="37.525421883371166" lon="13.238481036752747"><ele>207.4</ele><time>2026-04-18T10:14:17Z</time></trkpt><trkpt lat="37.52532171847984" lon="13.238482825937544"><ele>206.8</ele><time>2026-04-18T10:14:18Z</time></trkpt><trkpt lat="37.525222225531785" lon="13.238488828340104"><ele>206.2</ele><time>2026-04-18T10:14:19Z</time></trkpt><trkpt lat="37.525131955031185" lon="13.238490397984734"><ele>205.6</ele><time>2026-04-18T10:14:20Z</time></trkpt><trkpt lat="37.52505015088571" lon="13.238489163407463"><ele>205.0</ele><time>2026-04-18T10:14:21Z</time></trkpt><trkpt lat="37.52497174146149" lon="13.238487931139327"><ele>204.99999999999997</ele><time>2026-04-18T10:14:22Z</time></trkpt><trkpt lat="37.524899023909036" lon="13.238489666574173"><ele>205.0</ele><time>2026-04-18T10:14:23Z</time></trkpt><trkpt lat="37.52477820247126" lon="13.238492874230548"><ele>205.0</ele><time>2026-04-18T10:14:25Z</time></trkpt><trkpt lat="37.524665180412875" lon="13.238488262555164"><ele>205.0</ele><time>2026-04-18T10:14:27Z</time></trkpt><trkpt lat="37.52460211658792" lon="13.238485027488599"><ele>204.99999999999997</ele><time>2026-04-18T10:14:28Z</time></trkpt><trkpt lat="37.52453203206571" lon="13.238481431711723"><ele>205.0</ele><time>2026-04-18T10:14:29Z</time></trkpt><trkpt lat="37.524459362659435" lon="13.238474798143494"><ele>204.0</ele><time>2026-04-18T10:14:30Z</time></trkpt><trkpt lat="37.52437882412116" lon="13.23846688788561"><ele>203.0</ele><time>2026-04-18T10:14:31Z</time></trkpt><trkpt lat="37.52427831689208" lon="13.238458519273879"><ele>202.0</ele><time>2026-04-18T10:14:32Z</time></trkpt><trkpt lat="37.52415588058136" lon="13.238435634737947"><ele>201.0</ele><time>2026-04-18T10:14:33Z</time></trkpt><trkpt lat="37.52401213249736" lon="13.238387016386953"><ele>201.0</ele><time>2026-04-18T10:14:34Z</time></trkpt><trkpt lat="37.52382568212805" lon="13.238307610029665"><ele>201.0</ele><time>2026-04-18T10:14:35Z</time></trkpt><trkpt lat="37.523618043938804" lon="13.238224224841261"><ele>201.0</ele><time>2026-04-18T10:14:36.001Z</time></trkpt><trkpt lat="37.52342010358406" lon="13.238166376224113"><ele>201.0</ele><time>2026-04-18T10:14:37.001Z</time></trkpt><trkpt lat="37.52324321429046" lon="13.238114780123574"><ele>201.0</ele><time>2026-04-18T10:14:38.001Z</time></trkpt><trkpt lat="37.523072122064356" lon="13.238053931584245"><ele>201.0</ele><time>2026-04-18T10:14:39.001Z</time></trkpt><trkpt lat="37.522890747825585" lon="13.237990916738442"><ele>201.66666666666669</ele><time>2026-04-18T10:14:40.001Z</time></trkpt><trkpt lat="37.52271288507817" lon="13.237936830246651"><ele>202.33333333333334</ele><time>2026-04-18T10:14:41.001Z</time></trkpt><trkpt lat="37.522548612072555" lon="13.2378805919388"><ele>203.0</ele><time>2026-04-18T10:14:42.001Z</time></trkpt><trkpt lat="37.52239954727142" lon="13.237821315876875"><ele>203.0</ele><time>2026-04-18T10:14:43.001Z</time></trkpt><trkpt lat="37.52225222296717" lon="13.237756139257066"><ele>203.0</ele><time>2026-04-18T10:14:44.001Z</time></trkpt><trkpt lat="37.52210997315215" lon="13.237690076825235"><ele>203.0</ele><time>2026-04-18T10:14:45.001Z</time></trkpt><trkpt lat="37.521974681829874" lon="13.237627227655508"><ele>202.66666666666669</ele><time>2026-04-18T10:14:46.001Z</time></trkpt><trkpt lat="37.521835054185026" lon="13.237568394958943"><ele>202.33333333333331</ele><time>2026-04-18T10:14:47.001Z</time></trkpt><trkpt lat="37.52166094310815" lon="13.23749249258925"><ele>202.0</ele><time>2026-04-18T10:14:48.001Z</time></trkpt><trkpt lat="37.52147086390165" lon="13.237389919700158"><ele>201.5</ele><time>2026-04-18T10:14:49.001Z</time></trkpt><trkpt lat="37.521270768585026" lon="13.237293925027924"><ele>201.0</ele><time>2026-04-18T10:14:50.001Z</time></trkpt><trkpt lat="37.52104161264821" lon="13.237219712718858"><ele>201.0</ele><time>2026-04-18T10:14:51.001Z</time></trkpt><trkpt lat="37.52081361127799" lon="13.237164179291023"><ele>201.0</ele><time>2026-04-18T10:14:52.001Z</time></trkpt><trkpt lat="37.52059219287541" lon="13.237105844640475"><ele>201.33333333333331</ele><time>2026-04-18T10:14:53.001Z</time></trkpt><trkpt lat="37.52039314063328" lon="13.237042617006553"><ele>201.66666666666666</ele><time>2026-04-18T10:14:54.001Z</time></trkpt><trkpt lat="37.52020498310833" lon="13.236974890171453"><ele>202.0</ele><time>2026-04-18T10:14:55.001Z</time></trkpt><trkpt lat="37.52001221512119" lon="13.236896577750437"><ele>202.0</ele><time>2026-04-18T10:14:56.001Z</time></trkpt><trkpt lat="37.519796530255064" lon="13.236828480158705"><ele>202.0</ele><time>2026-04-18T10:14:57.001Z</time></trkpt><trkpt lat="37.519571146440406" lon="13.236781512963772"><ele>201.33333333333331</ele><time>2026-04-18T10:14:58.001Z</time></trkpt><trkpt lat="37.51937016921933" lon="13.236746535564004"><ele>200.66666666666669</ele><time>2026-04-18T10:14:59.001Z</time></trkpt><trkpt lat="37.51919280847629" lon="13.23670590871884"><ele>200.0</ele><time>2026-04-18T10:15:00.001Z</time></trkpt><trkpt lat="37.51903160134563" lon="13.236671807090655"><ele>200.0</ele><time>2026-04-18T10:15:01.001Z</time></trkpt><trkpt lat="37.51887332499736" lon="13.23666167871867"><ele>200.0</ele><time>2026-04-18T10:15:02.001Z</time></trkpt><trkpt lat="37.51870015395613" lon="13.236678427187798"><ele>200.0</ele><time>2026-04-18T10:15:03.001Z</time></trkpt><trkpt lat="37.51850636678677" lon="13.236716905198644"><ele>198.33333333333334</ele><time>2026-04-18T10:15:04.001Z</time></trkpt><trkpt lat="37.518307582001164" lon="13.236768478866754"><ele>196.66666666666669</ele><time>2026-04-18T10:15:05.001Z</time></trkpt><trkpt lat="37.5181145804309" lon="13.2368275266822"><ele>195.0</ele><time>2026-04-18T10:15:06.001Z</time></trkpt><trkpt lat="37.51792725280932" lon="13.236898439065069"><ele>193.0</ele><time>2026-04-18T10:15:07.001Z</time></trkpt><trkpt lat="37.5177544540421" lon="13.236981974879065"><ele>191.0</ele><time>2026-04-18T10:15:08.001Z</time></trkpt><trkpt lat="37.51759269162644" lon="13.237084934352412"><ele>189.0</ele><time>2026-04-18T10:15:09.001Z</time></trkpt><trkpt lat="37.51744262882549" lon="13.23719013346055"><ele>189.0</ele><time>2026-04-18T10:15:10.001Z</time></trkpt><trkpt lat="37.51729318713391" lon="13.237274179597494"><ele>189.0</ele><time>2026-04-18T10:15:11.001Z</time></trkpt><trkpt lat="37.51711825694855" lon="13.237342344998272"><ele>189.0</ele><time>2026-04-18T10:15:12.001Z</time></trkpt><trkpt lat="37.516914669815364" lon="13.237401914653631"><ele>187.66666666666666</ele><time>2026-04-18T10:15:13.001Z</time></trkpt><trkpt lat="37.51670460320867" lon="13.237453923568983"><ele>186.33333333333331</ele><time>2026-04-18T10:15:14.001Z</time></trkpt><trkpt lat="37.51650891002186" lon="13.237507652531146"><ele>185.0</ele><time>2026-04-18T10:15:15.001Z</time></trkpt><trkpt lat="37.51630942484297" lon="13.237551621882835"><ele>183.66666666666666</ele><time>2026-04-18T10:15:16.001Z</time></trkpt><trkpt lat="37.516095125775415" lon="13.237565971739537"><ele>182.33333333333334</ele><time>2026-04-18T10:15:17.001Z</time></trkpt><trkpt lat="37.515867896046174" lon="13.237543929308513"><ele>181.0</ele><time>2026-04-18T10:15:18.001Z</time></trkpt><trkpt lat="37.515626583544574" lon="13.237503403471546"><ele>180.66666666666669</ele><time>2026-04-18T10:15:19.001Z</time></trkpt><trkpt lat="37.51539727929449" lon="13.237478148391888"><ele>180.33333333333334</ele><time>2026-04-18T10:15:20.001Z</time></trkpt><trkpt lat="37.51519245566068" lon="13.237479857555416"><ele>180.0</ele><time>2026-04-18T10:15:21.001Z</time></trkpt><trkpt lat="37.51500127458795" lon="13.237498215067705"><ele>180.0</ele><time>2026-04-18T10:15:22.001Z</time></trkpt><trkpt lat="37.51480588889461" lon="13.237522672577935"><ele>180.0</ele><time>2026-04-18T10:15:23.001Z</time></trkpt><trkpt lat="37.514605693146265" lon="13.237551328338684"><ele>180.0</ele><time>2026-04-18T10:15:24.001Z</time></trkpt><trkpt lat="37.51441166140329" lon="13.237574085422866"><ele>179.0</ele><time>2026-04-18T10:15:25.001Z</time></trkpt><trkpt lat="37.51422414832653" lon="13.237590363496082"><ele>178.0</ele><time>2026-04-18T10:15:26.001Z</time></trkpt><trkpt lat="37.5140168413842" lon="13.237597301351176"><ele>177.0</ele><time>2026-04-18T10:15:27.001Z</time></trkpt><trkpt lat="37.51378605269993" lon="13.237584099507753"><ele>175.5</ele><time>2026-04-18T10:15:28.001Z</time></trkpt><trkpt lat="37.51353770638703" lon="13.237548756691128"><ele>174.0</ele><time>2026-04-18T10:15:29.001Z</time></trkpt><trkpt lat="37.51329233553806" lon="13.23749924564421"><ele>174.0</ele><time>2026-04-18T10:15:30.001Z</time></trkpt><trkpt lat="37.51306541426478" lon="13.237450670947233"><ele>174.0</ele><time>2026-04-18T10:15:31.001Z</time></trkpt><trkpt lat="37.51285169322705" lon="13.23740986515931"><ele>174.0</ele><time>2026-04-18T10:15:32.001Z</time></trkpt><trkpt lat="37.51264028660556" lon="13.23736935479447"><ele>173.0</ele><time>2026-04-18T10:15:33.001Z</time></trkpt><trkpt lat="37.51242544921657" lon="13.23732450318332"><ele>172.0</ele><time>2026-04-18T10:15:34.001Z</time></trkpt><trkpt lat="37.51221267356379" lon="13.237278985309535"><ele>171.0</ele><time>2026-04-18T10:15:35.001Z</time></trkpt><trkpt lat="37.51200276460292" lon="13.23723898449699"><ele>169.33333333333334</ele><time>2026-04-18T10:15:36.001Z</time></trkpt><trkpt lat="37.511790815687455" lon="13.237199102508095"><ele>167.66666666666669</ele><time>2026-04-18T10:15:37.001Z</time></trkpt><trkpt lat="37.51158304829598" lon="13.23715683304892"><ele>166.0</ele><time>2026-04-18T10:15:38.001Z</time></trkpt><trkpt lat="37.511376462502206" lon="13.23711520643222"><ele>165.66666666666669</ele><time>2026-04-18T10:15:39.001Z</time></trkpt><trkpt lat="37.5111750066665" lon="13.237073057897677"><ele>165.33333333333334</ele><time>2026-04-18T10:15:40.001Z</time></trkpt><trkpt lat="37.510983064142394" lon="13.23702849838515"><ele>165.0</ele><time>2026-04-18T10:15:41.001Z</time></trkpt><trkpt lat="37.51078638306753" lon="13.236984992684667"><ele>165.0</ele><time>2026-04-18T10:15:42.001Z</time></trkpt><trkpt lat="37.5105844078151" lon="13.236938652680271"><ele>165.0</ele><time>2026-04-18T10:15:43.001Z</time></trkpt><trkpt lat="37.51037795349237" lon="13.236889966315559"><ele>165.0</ele><time>2026-04-18T10:15:44.001Z</time></trkpt><trkpt lat="37.51017300301229" lon="13.236843242431195"><ele>164.66666666666666</ele><time>2026-04-18T10:15:45.001Z</time></trkpt><trkpt lat="37.50997644303969" lon="13.236801079800044"><ele>164.33333333333331</ele><time>2026-04-18T10:15:46.001Z</time></trkpt><trkpt lat="37.50979086667895" lon="13.236767016471386"><ele>164.0</ele><time>2026-04-18T10:15:47.001Z</time></trkpt><trkpt lat="37.509615031333155" lon="13.236732708429034"><ele>164.66666666666666</ele><time>2026-04-18T10:15:48.001Z</time></trkpt><trkpt lat="37.50943887714554" lon="13.23671616703124"><ele>165.33333333333334</ele><time>2026-04-18T10:15:49.001Z</time></trkpt><trkpt lat="37.50925688633169" lon="13.236729722607516"><ele>166.0</ele><time>2026-04-18T10:15:50.001Z</time></trkpt><trkpt lat="37.509069730844544" lon="13.236778056204589"><ele>166.0</ele><time>2026-04-18T10:15:51.001Z</time></trkpt><trkpt lat="37.50887346179321" lon="13.236854495383236"><ele>166.0</ele><time>2026-04-18T10:15:52.001Z</time></trkpt><trkpt lat="37.50868486829655" lon="13.236942808187678"><ele>166.0</ele><time>2026-04-18T10:15:53.001Z</time></trkpt><trkpt lat="37.508501423442134" lon="13.237011359031369"><ele>164.0</ele><time>2026-04-18T10:15:54.001Z</time></trkpt><trkpt lat="37.5083257313994" lon="13.237052990559896"><ele>162.0</ele><time>2026-04-18T10:15:55.001Z</time></trkpt><trkpt lat="37.50815870418432" lon="13.237076938145094"><ele>160.0</ele><time>2026-04-18T10:15:56.001Z</time></trkpt><trkpt lat="37.50800260749666" lon="13.237083606029797"><ele>158.33333333333334</ele><time>2026-04-18T10:15:57.001Z</time></trkpt><trkpt lat="37.50784821711489" lon="13.23707390279917"><ele>156.66666666666666</ele><time>2026-04-18T10:15:58.001Z</time></trkpt><trkpt lat="37.50769416847555" lon="13.237048697710037"><ele>155.0</ele><time>2026-04-18T10:15:59.001Z</time></trkpt><trkpt lat="37.507531713699905" lon="13.237008033516831"><ele>155.0</ele><time>2026-04-18T10:16:00.001Z</time></trkpt><trkpt lat="37.50736367876288" lon="13.23695625824371"><ele>155.0</ele><time>2026-04-18T10:16:01.001Z</time></trkpt><trkpt lat="37.50719429901542" lon="13.236905465148487"><ele>155.0</ele><time>2026-04-18T10:16:02.001Z</time></trkpt><trkpt lat="37.50703021526985" lon="13.236858516373092"><ele>152.75</ele><time>2026-04-18T10:16:03.001Z</time></trkpt><trkpt lat="37.506871587601864" lon="13.236816670937538"><ele>150.5</ele><time>2026-04-18T10:16:04.001Z</time></trkpt><trkpt lat="37.50673164416216" lon="13.236777655114118"><ele>148.25</ele><time>2026-04-18T10:16:05.001Z</time></trkpt><trkpt lat="37.506602958584395" lon="13.236737929433861"><ele>146.0</ele><time>2026-04-18T10:16:06.001Z</time></trkpt><trkpt lat="37.50647965477237" lon="13.236693552460219"><ele>146.0</ele><time>2026-04-18T10:16:07.001Z</time></trkpt><trkpt lat="37.50636117320075" lon="13.236629087350016"><ele>146.0</ele><time>2026-04-18T10:16:08.001Z</time></trkpt><trkpt lat="37.50623995003152" lon="13.236534956236621"><ele>146.0</ele><time>2026-04-18T10:16:09.001Z</time></trkpt><trkpt lat="37.506120679057105" lon="13.236402424048519"><ele>146.0</ele><time>2026-04-18T10:16:10.001Z</time></trkpt><trkpt lat="37.506016135638234" lon="13.236239600862694"><ele>143.0</ele><time>2026-04-18T10:16:11.001Z</time></trkpt><trkpt lat="37.5059235875014" lon="13.236060637834093"><ele>140.0</ele><time>2026-04-18T10:16:12.001Z</time></trkpt><trkpt lat="37.50583260224342" lon="13.235887575482007"><ele>137.0</ele><time>2026-04-18T10:16:13.001Z</time></trkpt><trkpt lat="37.5057530212019" lon="13.235730990914936"><ele>136.66666666666666</ele><time>2026-04-18T10:16:14.001Z</time></trkpt><trkpt lat="37.50568763296499" lon="13.235560946155623"><ele>136.33333333333334</ele><time>2026-04-18T10:16:15.001Z</time></trkpt><trkpt lat="37.50562701361923" lon="13.235347723717652"><ele>136.0</ele><time>2026-04-18T10:16:16.001Z</time></trkpt><trkpt lat="37.505568434470774" lon="13.23509085053378"><ele>136.0</ele><time>2026-04-18T10:16:17.001Z</time></trkpt><trkpt lat="37.50551204884402" lon="13.234825369531043"><ele>136.0</ele><time>2026-04-18T10:16:18.001Z</time></trkpt><trkpt lat="37.50545339649629" lon="13.234564620303725"><ele>136.0</ele><time>2026-04-18T10:16:19.001Z</time></trkpt><trkpt lat="37.50539570740523" lon="13.23431670778888"><ele>128.33333333333334</ele><time>2026-04-18T10:16:20.001Z</time></trkpt><trkpt lat="37.50534153390739" lon="13.234080062182201"><ele>120.66666666666666</ele><time>2026-04-18T10:16:21.001Z</time></trkpt><trkpt lat="37.50528945182983" lon="13.233847143518673"><ele>113.0</ele><time>2026-04-18T10:16:22.001Z</time></trkpt><trkpt lat="37.505235829954934" lon="13.233623519304532"><ele>112.0</ele><time>2026-04-18T10:16:23.001Z</time></trkpt><trkpt lat="37.50518368044486" lon="13.233404893100445"><ele>111.0</ele><time>2026-04-18T10:16:24.001Z</time></trkpt><trkpt lat="37.505133668562024" lon="13.233191099264255"><ele>110.0</ele><time>2026-04-18T10:16:25.001Z</time></trkpt><trkpt lat="37.5050867674622" lon="13.232988774104742"><ele>108.66666666666666</ele><time>2026-04-18T10:16:26.001Z</time></trkpt><trkpt lat="37.505045822915314" lon="13.232802475215992"><ele>107.33333333333334</ele><time>2026-04-18T10:16:27.001Z</time></trkpt><trkpt lat="37.50501516973253" lon="13.232611337164128"><ele>106.0</ele><time>2026-04-18T10:16:28.001Z</time></trkpt><trkpt lat="37.50499735319476" lon="13.232413313056039"><ele>105.0</ele><time>2026-04-18T10:16:29.001Z</time></trkpt><trkpt lat="37.504992093907944" lon="13.232193939700021"><ele>104.0</ele><time>2026-04-18T10:16:30.001Z</time></trkpt><trkpt lat="37.504995818293125" lon="13.23195540925598"><ele>103.0</ele><time>2026-04-18T10:16:31.001Z</time></trkpt><trkpt lat="37.50499356188762" lon="13.231702443396811"><ele>101.66666666666667</ele><time>2026-04-18T10:16:32.001Z</time></trkpt><trkpt lat="37.50498878148543" lon="13.231469454964538"><ele>100.33333333333334</ele><time>2026-04-18T10:16:33.001Z</time></trkpt><trkpt lat="37.50498462907424" lon="13.23124806971119"><ele>99.0</ele><time>2026-04-18T10:16:34.001Z</time></trkpt><trkpt lat="37.50499013944016" lon="13.23102223356379"><ele>99.0</ele><time>2026-04-18T10:16:35.001Z</time></trkpt><trkpt lat="37.505011859007965" lon="13.230771908839674"><ele>99.0</ele><time>2026-04-18T10:16:36.001Z</time></trkpt><trkpt lat="37.505054136123526" lon="13.23048305829807"><ele>99.0</ele><time>2026-04-18T10:16:37.001Z</time></trkpt><trkpt lat="37.50509588562811" lon="13.230167599930134"><ele>95.0</ele><time>2026-04-18T10:16:38.001Z</time></trkpt><trkpt lat="37.505130954668466" lon="13.22986839000481"><ele>91.0</ele><time>2026-04-18T10:16:39.001Z</time></trkpt><trkpt lat="37.505163412169196" lon="13.229599395346266"><ele>90.33333333333333</ele><time>2026-04-18T10:16:40.001Z</time></trkpt><trkpt lat="37.505190325646986" lon="13.229372710781341"><ele>89.66666666666667</ele><time>2026-04-18T10:16:41.001Z</time></trkpt><trkpt lat="37.50520573662825" lon="13.22918364637532"><ele>89.0</ele><time>2026-04-18T10:16:42.001Z</time></trkpt><trkpt lat="37.505209304609764" lon="13.229022777153826"><ele>89.0</ele><time>2026-04-18T10:16:43.001Z</time></trkpt><trkpt lat="37.505196374379686" lon="13.228871789039818"><ele>89.0</ele><time>2026-04-18T10:16:44.001Z</time></trkpt><trkpt lat="37.50515854549515" lon="13.228738735155236"><ele>89.0</ele><time>2026-04-18T10:16:45.001Z</time></trkpt><trkpt lat="37.505098755806614" lon="13.228622949715229"><ele>89.0</ele><time>2026-04-18T10:16:46.001Z</time></trkpt><trkpt lat="37.50500401769935" lon="13.22851130368993"><ele>89.0</ele><time>2026-04-18T10:16:47.001Z</time></trkpt><trkpt lat="37.50488604911071" lon="13.228423701000198"><ele>89.0</ele><time>2026-04-18T10:16:48.001Z</time></trkpt><trkpt lat="37.504750236783025" lon="13.22837554089774"><ele>89.0</ele><time>2026-04-18T10:16:49.001Z</time></trkpt><trkpt lat="37.50459613690744" lon="13.228356060974733"><ele>89.0</ele><time>2026-04-18T10:16:50.001Z</time></trkpt><trkpt lat="37.504436567432045" lon="13.228375052090483"><ele>88.66666666666667</ele><time>2026-04-18T10:16:51.001Z</time></trkpt><trkpt lat="37.50426262249643" lon="13.228427743748975"><ele>88.33333333333333</ele><time>2026-04-18T10:16:52.001Z</time></trkpt><trkpt lat="37.50407861786497" lon="13.228461949591017"><ele>88.0</ele><time>2026-04-18T10:16:53.001Z</time></trkpt><trkpt lat="37.503870431343444" lon="13.228512009406394"><ele>88.0</ele><time>2026-04-18T10:16:54.001Z</time></trkpt><trkpt lat="37.503650413198336" lon="13.228564400722828"><ele>88.0</ele><time>2026-04-18T10:16:55.001Z</time></trkpt><trkpt lat="37.503435503966365" lon="13.228612947249015"><ele>88.0</ele><time>2026-04-18T10:16:56.001Z</time></trkpt><trkpt lat="37.50325508068888" lon="13.228651200321542"><ele>88.0</ele><time>2026-04-18T10:16:57.001Z</time></trkpt><trkpt lat="37.50308095261484" lon="13.228681114528692"><ele>88.0</ele><time>2026-04-18T10:16:58.001Z</time></trkpt><trkpt lat="37.502909066012855" lon="13.228700833505469"><ele>88.0</ele><time>2026-04-18T10:16:59.001Z</time></trkpt><trkpt lat="37.50273650474123" lon="13.228717783205395"><ele>87.33333333333333</ele><time>2026-04-18T10:17:00.001Z</time></trkpt><trkpt lat="37.502558301410104" lon="13.228744545643972"><ele>86.66666666666667</ele><time>2026-04-18T10:17:01.001Z</time></trkpt><trkpt lat="37.50238090095174" lon="13.228781971475494"><ele>86.0</ele><time>2026-04-18T10:17:02.001Z</time></trkpt><trkpt lat="37.502208518576815" lon="13.228833506374569"><ele>84.0</ele><time>2026-04-18T10:17:03.001Z</time></trkpt><trkpt lat="37.50202655579794" lon="13.228915008047464"><ele>82.0</ele><time>2026-04-18T10:17:04.001Z</time></trkpt><trkpt lat="37.50184286668415" lon="13.229018754875906"><ele>80.0</ele><time>2026-04-18T10:17:05.001Z</time></trkpt><trkpt lat="37.501672675530536" lon="13.229136322382676"><ele>79.66666666666667</ele><time>2026-04-18T10:17:06.001Z</time></trkpt><trkpt lat="37.501510866552714" lon="13.22923845912185"><ele>79.33333333333333</ele><time>2026-04-18T10:17:07.001Z</time></trkpt><trkpt lat="37.50135611949178" lon="13.22933935021042"><ele>79.0</ele><time>2026-04-18T10:17:08.001Z</time></trkpt><trkpt lat="37.50122466074441" lon="13.22943663881647"><ele>77.75</ele><time>2026-04-18T10:17:09.001Z</time></trkpt><trkpt lat="37.501108354042266" lon="13.229516350597896"><ele>76.5</ele><time>2026-04-18T10:17:10.001Z</time></trkpt><trkpt lat="37.50100225867879" lon="13.229589723419112"><ele>75.25</ele><time>2026-04-18T10:17:11.001Z</time></trkpt><trkpt lat="37.50090108652481" lon="13.229660196514912"><ele>74.0</ele><time>2026-04-18T10:17:12.001Z</time></trkpt><trkpt lat="37.500796363393334" lon="13.229715664918807"><ele>74.0</ele><time>2026-04-18T10:17:13.001Z</time></trkpt><trkpt lat="37.50068490250182" lon="13.229746072157736"><ele>74.0</ele><time>2026-04-18T10:17:14.001Z</time></trkpt><trkpt lat="37.50056190744373" lon="13.229747543437954"><ele>74.0</ele><time>2026-04-18T10:17:15.001Z</time></trkpt><trkpt lat="37.50043914301504" lon="13.229718645678433"><ele>74.0</ele><time>2026-04-18T10:17:16.001Z</time></trkpt><trkpt lat="37.500312712164074" lon="13.229652789883644"><ele>72.33333333333334</ele><time>2026-04-18T10:17:17.001Z</time></trkpt><trkpt lat="37.50018383711002" lon="13.229555225940993"><ele>70.66666666666667</ele><time>2026-04-18T10:17:18.001Z</time></trkpt><trkpt lat="37.500045637282426" lon="13.229439109402428"><ele>69.0</ele><time>2026-04-18T10:17:19.001Z</time></trkpt><trkpt lat="37.49989480592154" lon="13.229321804388722"><ele>69.0</ele><time>2026-04-18T10:17:20.001Z</time></trkpt><trkpt lat="37.49974706816766" lon="13.229204546593405"><ele>69.0</ele><time>2026-04-18T10:17:21.001Z</time></trkpt><trkpt lat="37.49960238677873" lon="13.229089045578773"><ele>69.0</ele><time>2026-04-18T10:17:22.001Z</time></trkpt><trkpt lat="37.499468086940716" lon="13.228976303997097"><ele>68.33333333333333</ele><time>2026-04-18T10:17:23.001Z</time></trkpt><trkpt lat="37.49934504020719" lon="13.228858809243297"><ele>67.66666666666666</ele><time>2026-04-18T10:17:24.001Z</time></trkpt><trkpt lat="37.49922318716374" lon="13.22872442077234"><ele>67.0</ele><time>2026-04-18T10:17:25.001Z</time></trkpt><trkpt lat="37.49910549662261" lon="13.228570803594582"><ele>67.0</ele><time>2026-04-18T10:17:26.001Z</time></trkpt><trkpt lat="37.498991906341566" lon="13.228403863381672"><ele>67.0</ele><time>2026-04-18T10:17:27.001Z</time></trkpt><trkpt lat="37.49888052918151" lon="13.228229009437996"><ele>67.0</ele><time>2026-04-18T10:17:28.001Z</time></trkpt><trkpt lat="37.49877412523313" lon="13.228062111637641"><ele>65.33333333333333</ele><time>2026-04-18T10:17:29.001Z</time></trkpt><trkpt lat="37.49867178449574" lon="13.227903563322307"><ele>63.66666666666667</ele><time>2026-04-18T10:17:30.001Z</time></trkpt><trkpt lat="37.49856519588981" lon="13.227740108920722"><ele>62.0</ele><time>2026-04-18T10:17:31.001Z</time></trkpt><trkpt lat="37.498461535410634" lon="13.227580937224506"><ele>62.0</ele><time>2026-04-18T10:17:32.001Z</time></trkpt><trkpt lat="37.49836235496943" lon="13.227428466551224"><ele>62.0</ele><time>2026-04-18T10:17:33.001Z</time></trkpt><trkpt lat="37.49826389781225" lon="13.227278235483137"><ele>62.0</ele><time>2026-04-18T10:17:34.001Z</time></trkpt><trkpt lat="37.49816145619331" lon="13.227121915463073"><ele>61.66666666666667</ele><time>2026-04-18T10:17:35.001Z</time></trkpt><trkpt lat="37.498065852111544" lon="13.226959514581845"><ele>61.33333333333333</ele><time>2026-04-18T10:17:36.001Z</time></trkpt><trkpt lat="37.49797631888037" lon="13.226788004935289"><ele>61.0</ele><time>2026-04-18T10:17:37.001Z</time></trkpt><trkpt lat="37.49789005428614" lon="13.226616454029427"><ele>60.33333333333333</ele><time>2026-04-18T10:17:38.001Z</time></trkpt><trkpt lat="37.497805141456595" lon="13.226439997070322"><ele>59.66666666666667</ele><time>2026-04-18T10:17:39.001Z</time></trkpt><trkpt lat="37.497725268751545" lon="13.226259915189706"><ele>59.0</ele><time>2026-04-18T10:17:40.001Z</time></trkpt><trkpt lat="37.497647610394104" lon="13.226079456767842"><ele>59.0</ele><time>2026-04-18T10:17:41.001Z</time></trkpt><trkpt lat="37.497570230229606" lon="13.22589110740146"><ele>59.0</ele><time>2026-04-18T10:17:42.001Z</time></trkpt><trkpt lat="37.49748777330163" lon="13.225684862992752"><ele>59.0</ele><time>2026-04-18T10:17:43.001Z</time></trkpt><trkpt lat="37.497401369037604" lon="13.22545637471698"><ele>59.0</ele><time>2026-04-18T10:17:44.001Z</time></trkpt><trkpt lat="37.4973142950395" lon="13.225244021069365"><ele>59.0</ele><time>2026-04-18T10:17:45.001Z</time></trkpt><trkpt lat="37.49722177191497" lon="13.225037275846853"><ele>59.0</ele><time>2026-04-18T10:17:46.001Z</time></trkpt><trkpt lat="37.497122666851524" lon="13.224834358074435"><ele>58.66666666666667</ele><time>2026-04-18T10:17:47.001Z</time></trkpt><trkpt lat="37.49702020124524" lon="13.224642744075412"><ele>58.33333333333333</ele><time>2026-04-18T10:17:48.001Z</time></trkpt><trkpt lat="37.496917252402525" lon="13.224450824806555"><ele>58.0</ele><time>2026-04-18T10:17:49.001Z</time></trkpt><trkpt lat="37.49681001993333" lon="13.224257939191148"><ele>58.0</ele><time>2026-04-18T10:17:50.001Z</time></trkpt><trkpt lat="37.49670476406492" lon="13.224069484318328"><ele>58.0</ele><time>2026-04-18T10:17:51.001Z</time></trkpt><trkpt lat="37.49660182904628" lon="13.223884580814403"><ele>58.0</ele><time>2026-04-18T10:17:52.001Z</time></trkpt><trkpt lat="37.49650106839024" lon="13.223705806573829"><ele>57.0</ele><time>2026-04-18T10:17:53.001Z</time></trkpt><trkpt lat="37.49640142657494" lon="13.223528479783752"><ele>56.0</ele><time>2026-04-18T10:17:54.001Z</time></trkpt><trkpt lat="37.4963079510504" lon="13.223353461170484"><ele>55.0</ele><time>2026-04-18T10:17:55.001Z</time></trkpt><trkpt lat="37.496217475244364" lon="13.22318450580603"><ele>53.666666666666664</ele><time>2026-04-18T10:17:56.001Z</time></trkpt><trkpt lat="37.49612995883972" lon="13.22302184180686"><ele>52.33333333333333</ele><time>2026-04-18T10:17:57.001Z</time></trkpt><trkpt lat="37.496041261373435" lon="13.222858063113739"><ele>51.0</ele><time>2026-04-18T10:17:58.001Z</time></trkpt><trkpt lat="37.4959524561738" lon="13.22269561234814"><ele>51.0</ele><time>2026-04-18T10:17:59.001Z</time></trkpt><trkpt lat="37.495863466169816" lon="13.222533815074645"><ele>51.0</ele><time>2026-04-18T10:18:00.001Z</time></trkpt><trkpt lat="37.49577732085608" lon="13.222369596510879"><ele>51.0</ele><time>2026-04-18T10:18:01.001Z</time></trkpt><trkpt lat="37.49568670233968" lon="13.22220638185132"><ele>50.0</ele><time>2026-04-18T10:18:02.001Z</time></trkpt><trkpt lat="37.49559616464971" lon="13.222036226309092"><ele>49.0</ele><time>2026-04-18T10:18:03.001Z</time></trkpt><trkpt lat="37.49550597312705" lon="13.22185250227744"><ele>48.0</ele><time>2026-04-18T10:18:04.001Z</time></trkpt><trkpt lat="37.495421555030745" lon="13.22166269013519"><ele>47.0</ele><time>2026-04-18T10:18:05.001Z</time></trkpt><trkpt lat="37.495338997698" lon="13.221472979355374"><ele>46.0</ele><time>2026-04-18T10:18:06.001Z</time></trkpt><trkpt lat="37.495256036970794" lon="13.22130038343163"><ele>45.0</ele><time>2026-04-18T10:18:07.001Z</time></trkpt><trkpt lat="37.49517668035163" lon="13.22112774661747"><ele>45.0</ele><time>2026-04-18T10:18:08.001Z</time></trkpt><trkpt lat="37.495095304223746" lon="13.220954505180273"><ele>45.0</ele><time>2026-04-18T10:18:09.001Z</time></trkpt><trkpt lat="37.495020970952645" lon="13.220818275202053"><ele>45.0</ele><time>2026-04-18T10:18:10.001Z</time></trkpt><trkpt lat="37.4949275631698" lon="13.22070082564116"><ele>45.0</ele><time>2026-04-18T10:18:11.001Z</time></trkpt><trkpt lat="37.49481011690676" lon="13.220613878157655"><ele>45.666666666666664</ele><time>2026-04-18T10:18:12.001Z</time></trkpt><trkpt lat="37.494669568577855" lon="13.220550335887872"><ele>46.33333333333333</ele><time>2026-04-18T10:18:13.001Z</time></trkpt><trkpt lat="37.494499224654945" lon="13.220508018875888"><ele>47.0</ele><time>2026-04-18T10:18:14.001Z</time></trkpt><trkpt lat="37.49429289271319" lon="13.220464114728614"><ele>45.666666666666664</ele><time>2026-04-18T10:18:15.001Z</time></trkpt><trkpt lat="37.49408073343462" lon="13.220407451226501"><ele>44.333333333333336</ele><time>2026-04-18T10:18:16.001Z</time></trkpt><trkpt lat="37.49388708378756" lon="13.220350003477375"><ele>43.0</ele><time>2026-04-18T10:18:17.001Z</time></trkpt><trkpt lat="37.493712982944345" lon="13.220293895806153"><ele>42.66666666666667</ele><time>2026-04-18T10:18:18.001Z</time></trkpt><trkpt lat="37.49355575759717" lon="13.220233493407514"><ele>42.333333333333336</ele><time>2026-04-18T10:18:19.001Z</time></trkpt><trkpt lat="37.493408810655886" lon="13.220172532446066"><ele>42.0</ele><time>2026-04-18T10:18:20.001Z</time></trkpt><trkpt lat="37.49326916988292" lon="13.22011847876257"><ele>42.0</ele><time>2026-04-18T10:18:21.001Z</time></trkpt><trkpt lat="37.49312649262458" lon="13.220063241319728"><ele>42.0</ele><time>2026-04-18T10:18:22.001Z</time></trkpt><trkpt lat="37.49297937809041" lon="13.220003808732393"><ele>42.0</ele><time>2026-04-18T10:18:23.001Z</time></trkpt><trkpt lat="37.49283255569321" lon="13.219950209771245"><ele>41.5</ele><time>2026-04-18T10:18:24.001Z</time></trkpt><trkpt lat="37.49269252970058" lon="13.219907038452082"><ele>41.0</ele><time>2026-04-18T10:18:25.001Z</time></trkpt><trkpt lat="37.49256333228904" lon="13.219875732847894"><ele>40.5</ele><time>2026-04-18T10:18:26.001Z</time></trkpt><trkpt lat="37.49244475914553" lon="13.219856282901958"><ele>40.0</ele><time>2026-04-18T10:18:27.001Z</time></trkpt><trkpt lat="37.49233771190755" lon="13.219842487811965"><ele>40.0</ele><time>2026-04-18T10:18:28.001Z</time></trkpt><trkpt lat="37.492238532890084" lon="13.219825508887102"><ele>40.0</ele><time>2026-04-18T10:18:29.001Z</time></trkpt><trkpt lat="37.49215201169558" lon="13.219807054677473"><ele>40.0</ele><time>2026-04-18T10:18:30.001Z</time></trkpt><trkpt lat="37.49207479331044" lon="13.219787496776727"><ele>40.0</ele><time>2026-04-18T10:18:31.001Z</time></trkpt><trkpt lat="37.492004194512944" lon="13.219766843759393"><ele>40.0</ele><time>2026-04-18T10:18:32.001Z</time></trkpt><trkpt lat="37.491938511478246" lon="13.219741649526163"><ele>40.0</ele><time>2026-04-18T10:18:33.001Z</time></trkpt><trkpt lat="37.49187604536821" lon="13.219693092134696"><ele>40.2</ele><time>2026-04-18T10:18:34.001Z</time></trkpt><trkpt lat="37.49182013949618" lon="13.219612988341469"><ele>40.4</ele><time>2026-04-18T10:18:35.001Z</time></trkpt><trkpt lat="37.49176712071263" lon="13.219506316478533"><ele>40.599999999999994</ele><time>2026-04-18T10:18:36.001Z</time></trkpt><trkpt lat="37.49173981740735" lon="13.21939492431915"><ele>40.8</ele><time>2026-04-18T10:18:37.001Z</time></trkpt><trkpt lat="37.49174155084199" lon="13.219251874890396"><ele>41.0</ele><time>2026-04-18T10:18:38.001Z</time></trkpt><trkpt lat="37.49176100877496" lon="13.219062493102953"><ele>41.666666666666664</ele><time>2026-04-18T10:18:39.001Z</time></trkpt><trkpt lat="37.491795998816734" lon="13.218850216382195"><ele>42.333333333333336</ele><time>2026-04-18T10:18:40.001Z</time></trkpt><trkpt lat="37.49183187775299" lon="13.218638850483602"><ele>43.0</ele><time>2026-04-18T10:18:41.001Z</time></trkpt><trkpt lat="37.49186490877971" lon="13.218437331829495"><ele>43.0</ele><time>2026-04-18T10:18:42.001Z</time></trkpt><trkpt lat="37.491900538925414" lon="13.218236976075415"><ele>43.0</ele><time>2026-04-18T10:18:43.001Z</time></trkpt><trkpt lat="37.49193616953137" lon="13.21803191031518"><ele>43.0</ele><time>2026-04-18T10:18:44.001Z</time></trkpt><trkpt lat="37.49196973261487" lon="13.217822579338248"><ele>43.66666666666667</ele><time>2026-04-18T10:18:45.001Z</time></trkpt><trkpt lat="37.492005571744116" lon="13.217609082012286"><ele>44.333333333333336</ele><time>2026-04-18T10:18:46.001Z</time></trkpt><trkpt lat="37.49204428470853" lon="13.217389417524718"><ele>45.0</ele><time>2026-04-18T10:18:47.001Z</time></trkpt><trkpt lat="37.49207898862609" lon="13.217173772412382"><ele>46.0</ele><time>2026-04-18T10:18:48.001Z</time></trkpt><trkpt lat="37.49211229300483" lon="13.216967786827885"><ele>47.0</ele><time>2026-04-18T10:18:49.001Z</time></trkpt><trkpt lat="37.49215010442784" lon="13.216751461401971"><ele>48.0</ele><time>2026-04-18T10:18:50.001Z</time></trkpt><trkpt lat="37.49218770881038" lon="13.216534554047312"><ele>48.33333333333333</ele><time>2026-04-18T10:18:51.001Z</time></trkpt><trkpt lat="37.49222445695154" lon="13.216316938489465"><ele>48.666666666666664</ele><time>2026-04-18T10:18:52.001Z</time></trkpt><trkpt lat="37.49225665587342" lon="13.216085300962495"><ele>49.0</ele><time>2026-04-18T10:18:53.001Z</time></trkpt><trkpt lat="37.49228556430919" lon="13.215819414841842"><ele>48.5</ele><time>2026-04-18T10:18:54.001Z</time></trkpt><trkpt lat="37.492332534236965" lon="13.21553124706003"><ele>48.0</ele><time>2026-04-18T10:18:55.001Z</time></trkpt><trkpt lat="37.49239275863971" lon="13.215237884022782"><ele>48.0</ele><time>2026-04-18T10:18:56.001Z</time></trkpt><trkpt lat="37.49243833598972" lon="13.214977296506232"><ele>48.0</ele><time>2026-04-18T10:18:57.001Z</time></trkpt><trkpt lat="37.49247353838571" lon="13.214742363080386"><ele>48.0</ele><time>2026-04-18T10:18:58.001Z</time></trkpt><trkpt lat="37.49251156064372" lon="13.21452780490759"><ele>48.33333333333333</ele><time>2026-04-18T10:18:59.001Z</time></trkpt><trkpt lat="37.492546819193024" lon="13.21432653430744"><ele>48.666666666666664</ele><time>2026-04-18T10:19:00.001Z</time></trkpt><trkpt lat="37.49257957517636" lon="13.21412128266151"><ele>49.0</ele><time>2026-04-18T10:19:01.001Z</time></trkpt><trkpt lat="37.492612361562905" lon="13.213892436241808"><ele>49.33333333333333</ele><time>2026-04-18T10:19:02.001Z</time></trkpt><trkpt lat="37.49265416566321" lon="13.213632202421445"><ele>49.66666666666667</ele><time>2026-04-18T10:19:03.001Z</time></trkpt><trkpt lat="37.492706296765846" lon="13.213346143604019"><ele>50.0</ele><time>2026-04-18T10:19:04.001Z</time></trkpt><trkpt lat="37.492757488954965" lon="13.213046384107667"><ele>50.0</ele><time>2026-04-18T10:19:05.001Z</time></trkpt><trkpt lat="37.49280584724892" lon="13.212763236432513"><ele>50.0</ele><time>2026-04-18T10:19:06.001Z</time></trkpt><trkpt lat="37.49284819497559" lon="13.21250539238014"><ele>50.0</ele><time>2026-04-18T10:19:07.001Z</time></trkpt><trkpt lat="37.49288927908259" lon="13.212258180718246"><ele>50.333333333333336</ele><time>2026-04-18T10:19:08.001Z</time></trkpt><trkpt lat="37.492930342173096" lon="13.212003743858913"><ele>50.66666666666667</ele><time>2026-04-18T10:19:09.001Z</time></trkpt><trkpt lat="37.4929725650414" lon="13.211748412034318"><ele>51.0</ele><time>2026-04-18T10:19:10.001Z</time></trkpt><trkpt lat="37.4930133179906" lon="13.211479234670264"><ele>51.5</ele><time>2026-04-18T10:19:11.001Z</time></trkpt><trkpt lat="37.493052279228195" lon="13.211179491896031"><ele>52.0</ele><time>2026-04-18T10:19:12.001Z</time></trkpt><trkpt lat="37.49309796679612" lon="13.21085309977388"><ele>52.5</ele><time>2026-04-18T10:19:13.001Z</time></trkpt><trkpt lat="37.49315320288526" lon="13.210521497748834"><ele>53.0</ele><time>2026-04-18T10:19:14.001Z</time></trkpt><trkpt lat="37.49321136475553" lon="13.21022100880353"><ele>53.0</ele><time>2026-04-18T10:19:15.001Z</time></trkpt><trkpt lat="37.49326717080507" lon="13.209926959610545"><ele>53.0</ele><time>2026-04-18T10:19:16.001Z</time></trkpt><trkpt lat="37.493316241711355" lon="13.20964635394125"><ele>53.333333333333336</ele><time>2026-04-18T10:19:17.001Z</time></trkpt><trkpt lat="37.49336217197771" lon="13.209373621302955"><ele>53.66666666666667</ele><time>2026-04-18T10:19:18.001Z</time></trkpt><trkpt lat="37.49340758009099" lon="13.20911519643658"><ele>54.0</ele><time>2026-04-18T10:19:19.001Z</time></trkpt><trkpt lat="37.49345038006706" lon="13.20887044672622"><ele>54.0</ele><time>2026-04-18T10:19:20.001Z</time></trkpt><trkpt lat="37.493491054894015" lon="13.208629518742079"><ele>54.0</ele><time>2026-04-18T10:19:21.001Z</time></trkpt><trkpt lat="37.493531752922294" lon="13.208387238429061"><ele>54.0</ele><time>2026-04-18T10:19:22.001Z</time></trkpt><trkpt lat="37.49357268899632" lon="13.20814564281182"><ele>54.0</ele><time>2026-04-18T10:19:23.001Z</time></trkpt><trkpt lat="37.49361597467355" lon="13.207892656444162"><ele>54.0</ele><time>2026-04-18T10:19:24.001Z</time></trkpt><trkpt lat="37.493658672849214" lon="13.207625686930019"><ele>54.0</ele><time>2026-04-18T10:19:25.001Z</time></trkpt><trkpt lat="37.493699445407664" lon="13.207362825398183"><ele>54.0</ele><time>2026-04-18T10:19:26.001Z</time></trkpt><trkpt lat="37.493740182410974" lon="13.207117652608162"><ele>54.0</ele><time>2026-04-18T10:19:27.001Z</time></trkpt><trkpt lat="37.493781109873346" lon="13.20688347119017"><ele>54.0</ele><time>2026-04-18T10:19:28.001Z</time></trkpt><trkpt lat="37.49382045644327" lon="13.206649495079544"><ele>56.0</ele><time>2026-04-18T10:19:29.001Z</time></trkpt><trkpt lat="37.4938570866822" lon="13.206420925905295"><ele>58.0</ele><time>2026-04-18T10:19:30.001Z</time></trkpt><trkpt lat="37.49389341353703" lon="13.206195078669833"><ele>60.0</ele><time>2026-04-18T10:19:31.001Z</time></trkpt><trkpt lat="37.493928296296396" lon="13.205982936560012"><ele>60.0</ele><time>2026-04-18T10:19:32.001Z</time></trkpt><trkpt lat="37.49396524513776" lon="13.205769646472795"><ele>60.0</ele><time>2026-04-18T10:19:33.001Z</time></trkpt><trkpt lat="37.494001910324286" lon="13.205559788011456"><ele>60.0</ele><time>2026-04-18T10:19:34.001Z</time></trkpt><trkpt lat="37.494037613615994" lon="13.205348977242718"><ele>60.0</ele><time>2026-04-18T10:19:35.001Z</time></trkpt><trkpt lat="37.49407566029606" lon="13.205134448877901"><ele>60.0</ele><time>2026-04-18T10:19:36.001Z</time></trkpt><trkpt lat="37.49411474815594" lon="13.204923587847505"><ele>60.0</ele><time>2026-04-18T10:19:37.001Z</time></trkpt><trkpt lat="37.49415163989033" lon="13.204712801612704"><ele>60.33333333333333</ele><time>2026-04-18T10:19:38.001Z</time></trkpt><trkpt lat="37.49417691992663" lon="13.204510336924217"><ele>60.666666666666664</ele><time>2026-04-18T10:19:39.001Z</time></trkpt><trkpt lat="37.49419157641495" lon="13.204305392059918"><ele>61.0</ele><time>2026-04-18T10:19:40.001Z</time></trkpt><trkpt lat="37.494188989578234" lon="13.204099992857154"><ele>62.33333333333333</ele><time>2026-04-18T10:19:41.001Z</time></trkpt><trkpt lat="37.494172732849684" lon="13.203891143611832"><ele>63.66666666666667</ele><time>2026-04-18T10:19:42.001Z</time></trkpt><trkpt lat="37.49414095853281" lon="13.203686085612512"><ele>65.0</ele><time>2026-04-18T10:19:43.001Z</time></trkpt><trkpt lat="37.494090990701004" lon="13.203488673970366"><ele>65.0</ele><time>2026-04-18T10:19:44.001Z</time></trkpt><trkpt lat="37.49403429966653" lon="13.203304816622563"><ele>65.0</ele><time>2026-04-18T10:19:45.001Z</time></trkpt><trkpt lat="37.49396078262683" lon="13.203119972320838"><ele>65.0</ele><time>2026-04-18T10:19:46.001Z</time></trkpt><trkpt lat="37.493870465346454" lon="13.202932245867787"><ele>65.33333333333334</ele><time>2026-04-18T10:19:47.001Z</time></trkpt><trkpt lat="37.49377148120781" lon="13.20274830728205"><ele>65.66666666666667</ele><time>2026-04-18T10:19:48.001Z</time></trkpt><trkpt lat="37.493671229398636" lon="13.202572781891778"><ele>66.0</ele><time>2026-04-18T10:19:49.001Z</time></trkpt><trkpt lat="37.49357216352025" lon="13.20238345030642"><ele>67.66666666666667</ele><time>2026-04-18T10:19:50.001Z</time></trkpt><trkpt lat="37.49347188521557" lon="13.202204000450653"><ele>69.33333333333334</ele><time>2026-04-18T10:19:51.001Z</time></trkpt><trkpt lat="37.493367136395484" lon="13.202017045540538"><ele>71.0</ele><time>2026-04-18T10:19:52.001Z</time></trkpt><trkpt lat="37.49325811093684" lon="13.201822759348367"><ele>71.0</ele><time>2026-04-18T10:19:53.001Z</time></trkpt><trkpt lat="37.493152488472504" lon="13.20163411834966"><ele>71.0</ele><time>2026-04-18T10:19:54.001Z</time></trkpt><trkpt lat="37.493050928636954" lon="13.201450274554379"><ele>71.0</ele><time>2026-04-18T10:19:55.001Z</time></trkpt><trkpt lat="37.49295723051382" lon="13.20128254797002"><ele>70.66666666666667</ele><time>2026-04-18T10:19:56.001Z</time></trkpt><trkpt lat="37.49286800408497" lon="13.201122443840562"><ele>70.33333333333333</ele><time>2026-04-18T10:19:57.001Z</time></trkpt><trkpt lat="37.49277784820564" lon="13.200961574930977"><ele>70.0</ele><time>2026-04-18T10:19:58.001Z</time></trkpt><trkpt lat="37.49268691364301" lon="13.200802239201083"><ele>71.0</ele><time>2026-04-18T10:19:59.001Z</time></trkpt><trkpt lat="37.492597247021976" lon="13.200641861979209"><ele>72.0</ele><time>2026-04-18T10:20:00.001Z</time></trkpt><trkpt lat="37.49251107388188" lon="13.20048533959125"><ele>73.0</ele><time>2026-04-18T10:20:01.001Z</time></trkpt><trkpt lat="37.49243131541311" lon="13.20033898372554"><ele>74.0</ele><time>2026-04-18T10:20:02.001Z</time></trkpt><trkpt lat="37.49235228924451" lon="13.200190193103696"><ele>74.0</ele><time>2026-04-18T10:20:03.001Z</time></trkpt><trkpt lat="37.4922705553069" lon="13.200025245082646"><ele>74.0</ele><time>2026-04-18T10:20:04.001Z</time></trkpt><trkpt lat="37.492196241671145" lon="13.199856543294919"><ele>74.0</ele><time>2026-04-18T10:20:05.001Z</time></trkpt><trkpt lat="37.49213278514558" lon="13.199690681177202"><ele>72.33333333333334</ele><time>2026-04-18T10:20:06.001Z</time></trkpt><trkpt lat="37.49207224248939" lon="13.199514940116966"><ele>70.66666666666667</ele><time>2026-04-18T10:20:07.001Z</time></trkpt><trkpt lat="37.49202155412493" lon="13.199332616946972"><ele>69.0</ele><time>2026-04-18T10:20:08.001Z</time></trkpt><trkpt lat="37.49197731623121" lon="13.199142818021581"><ele>67.66666666666667</ele><time>2026-04-18T10:20:09.001Z</time></trkpt><trkpt lat="37.49193485842874" lon="13.198950660701664"><ele>66.33333333333334</ele><time>2026-04-18T10:20:10.001Z</time></trkpt><trkpt lat="37.491901116204474" lon="13.198747268509566"><ele>65.0</ele><time>2026-04-18T10:20:11.001Z</time></trkpt><trkpt lat="37.49187582020693" lon="13.198522412269556"><ele>65.0</ele><time>2026-04-18T10:20:12.001Z</time></trkpt><trkpt lat="37.49185771239336" lon="13.198292880643072"><ele>65.0</ele><time>2026-04-18T10:20:13.001Z</time></trkpt><trkpt lat="37.491844499383866" lon="13.198061500247602"><ele>65.0</ele><time>2026-04-18T10:20:14.001Z</time></trkpt><trkpt lat="37.49183001705342" lon="13.197829750545694"><ele>65.0</ele><time>2026-04-18T10:20:15.001Z</time></trkpt><trkpt lat="37.491811256963025" lon="13.197597418241994"><ele>65.0</ele><time>2026-04-18T10:20:16.001Z</time></trkpt><trkpt lat="37.491794701717716" lon="13.19736190495268"><ele>65.0</ele><time>2026-04-18T10:20:17.001Z</time></trkpt><trkpt lat="37.49177853424118" lon="13.197126998078838"><ele>65.66666666666667</ele><time>2026-04-18T10:20:18.001Z</time></trkpt><trkpt lat="37.49175889426189" lon="13.196884402560013"><ele>66.33333333333333</ele><time>2026-04-18T10:20:19.001Z</time></trkpt><trkpt lat="37.4917387674355" lon="13.196637374581684"><ele>67.0</ele><time>2026-04-18T10:20:20.001Z</time></trkpt><trkpt lat="37.491720317284376" lon="13.196395019005465"><ele>67.0</ele><time>2026-04-18T10:20:21.001Z</time></trkpt><trkpt lat="37.491702096759646" lon="13.196156790445663"><ele>67.0</ele><time>2026-04-18T10:20:22.001Z</time></trkpt><trkpt lat="37.49168617839328" lon="13.195926678321538"><ele>67.0</ele><time>2026-04-18T10:20:23.001Z</time></trkpt><trkpt lat="37.49167064671321" lon="13.19570389194"><ele>67.66666666666666</ele><time>2026-04-18T10:20:24.001Z</time></trkpt><trkpt lat="37.49165086016068" lon="13.195488460347265"><ele>68.33333333333333</ele><time>2026-04-18T10:20:25.001Z</time></trkpt><trkpt lat="37.49162421323627" lon="13.195272550340551"><ele>69.0</ele><time>2026-04-18T10:20:26.001Z</time></trkpt><trkpt lat="37.49157660965623" lon="13.195069337755054"><ele>69.0</ele><time>2026-04-18T10:20:27.001Z</time></trkpt><trkpt lat="37.49151260009872" lon="13.19486803990712"><ele>69.0</ele><time>2026-04-18T10:20:28.001Z</time></trkpt><trkpt lat="37.49143072104991" lon="13.194681884563876"><ele>69.0</ele><time>2026-04-18T10:20:29.001Z</time></trkpt><trkpt lat="37.4913279021514" lon="13.194503167603512"><ele>69.33333333333333</ele><time>2026-04-18T10:20:30.001Z</time></trkpt><trkpt lat="37.49120062574411" lon="13.194324640036154"><ele>69.66666666666666</ele><time>2026-04-18T10:20:31.001Z</time></trkpt><trkpt lat="37.491055060911954" lon="13.194169082916284"><ele>70.0</ele><time>2026-04-18T10:20:32.001Z</time></trkpt><trkpt lat="37.49089523089822" lon="13.194028757501403"><ele>71.66666666666666</ele><time>2026-04-18T10:20:33.001Z</time></trkpt><trkpt lat="37.49072673724399" lon="13.19390727715575"><ele>73.33333333333333</ele><time>2026-04-18T10:20:34.001Z</time></trkpt><trkpt lat="37.490553964238785" lon="13.19378926008405"><ele>75.0</ele><time>2026-04-18T10:20:35.001Z</time></trkpt><trkpt lat="37.49038211931855" lon="13.193668006289542"><ele>75.0</ele><time>2026-04-18T10:20:36.001Z</time></trkpt><trkpt lat="37.49021105256571" lon="13.19354350290399"><ele>75.0</ele><time>2026-04-18T10:20:37.001Z</time></trkpt><trkpt lat="37.49003958928904" lon="13.193420364978799"><ele>75.0</ele><time>2026-04-18T10:20:38.001Z</time></trkpt><trkpt lat="37.48987990567778" lon="13.193309766735972"><ele>75.0</ele><time>2026-04-18T10:20:39.001Z</time></trkpt><trkpt lat="37.48972157800087" lon="13.193201201715915"><ele>75.0</ele><time>2026-04-18T10:20:40.001Z</time></trkpt><trkpt lat="37.48956050671209" lon="13.193087543350103"><ele>75.0</ele><time>2026-04-18T10:20:41.001Z</time></trkpt><trkpt lat="37.489402948201096" lon="13.192976286219936"><ele>77.33333333333333</ele><time>2026-04-18T10:20:42.001Z</time></trkpt><trkpt lat="37.48924779830719" lon="13.19287003270299"><ele>79.66666666666666</ele><time>2026-04-18T10:20:43.001Z</time></trkpt><trkpt lat="37.489098861359665" lon="13.192766147456538"><ele>82.0</ele><time>2026-04-18T10:20:44.001Z</time></trkpt><trkpt lat="37.48895296291918" lon="13.192659276789648"><ele>82.0</ele><time>2026-04-18T10:20:45.001Z</time></trkpt><trkpt lat="37.48879817205096" lon="13.192550414209922"><ele>82.0</ele><time>2026-04-18T10:20:46.001Z</time></trkpt><trkpt lat="37.48864220917021" lon="13.192441269264107"><ele>82.0</ele><time>2026-04-18T10:20:47.001Z</time></trkpt><trkpt lat="37.48848887590435" lon="13.192331340361887"><ele>81.33333333333333</ele><time>2026-04-18T10:20:48.001Z</time></trkpt><trkpt lat="37.488334077378234" lon="13.192222704762992"><ele>80.66666666666667</ele><time>2026-04-18T10:20:49.001Z</time></trkpt><trkpt lat="37.48817893496984" lon="13.192114302450204"><ele>80.0</ele><time>2026-04-18T10:20:50.001Z</time></trkpt><trkpt lat="37.488026325476355" lon="13.192000529416369"><ele>78.66666666666667</ele><time>2026-04-18T10:20:51.001Z</time></trkpt><trkpt lat="37.48787587943766" lon="13.191882961895702"><ele>77.33333333333333</ele><time>2026-04-18T10:20:52.001Z</time></trkpt><trkpt lat="37.48772444405153" lon="13.191761301456289"><ele>76.0</ele><time>2026-04-18T10:20:53.001Z</time></trkpt><trkpt lat="37.487568164359494" lon="13.191615576454302"><ele>76.33333333333333</ele><time>2026-04-18T10:20:54.001Z</time></trkpt><trkpt lat="37.48742520561605" lon="13.19145604838748"><ele>76.66666666666667</ele><time>2026-04-18T10:20:55.001Z</time></trkpt><trkpt lat="37.48729793284384" lon="13.191291643367109"><ele>77.0</ele><time>2026-04-18T10:20:56.001Z</time></trkpt><trkpt lat="37.48717758025462" lon="13.19112061923268"><ele>76.33333333333334</ele><time>2026-04-18T10:20:57.001Z</time></trkpt><trkpt lat="37.487068934963524" lon="13.190930696809172"><ele>75.66666666666667</ele><time>2026-04-18T10:20:58.001Z</time></trkpt><trkpt lat="37.486967727168796" lon="13.190730674194185"><ele>75.0</ele><time>2026-04-18T10:20:59.001Z</time></trkpt><trkpt lat="37.48686749879804" lon="13.190524100523517"><ele>75.0</ele><time>2026-04-18T10:21:00.001Z</time></trkpt><trkpt lat="37.48676643713966" lon="13.190318090114847"><ele>75.0</ele><time>2026-04-18T10:21:01.001Z</time></trkpt><trkpt lat="37.48667180322824" lon="13.19012049149645"><ele>75.0</ele><time>2026-04-18T10:21:02.001Z</time></trkpt><trkpt lat="37.48658009211224" lon="13.189934718708875"><ele>74.66666666666667</ele><time>2026-04-18T10:21:03.001Z</time></trkpt><trkpt lat="37.48648937351358" lon="13.18974897548815"><ele>74.33333333333334</ele><time>2026-04-18T10:21:04.001Z</time></trkpt><trkpt lat="37.48640028812156" lon="13.189564919254114"><ele>74.0</ele><time>2026-04-18T10:21:05.001Z</time></trkpt><trkpt lat="37.48631747883288" lon="13.189386671224085"><ele>73.66666666666667</ele><time>2026-04-18T10:21:06.001Z</time></trkpt><trkpt lat="37.48624164325452" lon="13.18921311133084"><ele>73.33333333333333</ele><time>2026-04-18T10:21:07.001Z</time></trkpt><trkpt lat="37.48617378831227" lon="13.189045048971009"><ele>73.0</ele><time>2026-04-18T10:21:08.001Z</time></trkpt><trkpt lat="37.48611503829433" lon="13.188873854686676"><ele>72.0</ele><time>2026-04-18T10:21:09.001Z</time></trkpt><trkpt lat="37.48606490919744" lon="13.188699231455816"><ele>71.0</ele><time>2026-04-18T10:21:10.001Z</time></trkpt><trkpt lat="37.48602609065506" lon="13.188506333026048"><ele>70.0</ele><time>2026-04-18T10:21:11.001Z</time></trkpt><trkpt lat="37.48600173050502" lon="13.188303150038438"><ele>69.33333333333333</ele><time>2026-04-18T10:21:12.001Z</time></trkpt><trkpt lat="37.48599485691594" lon="13.188098207184126"><ele>68.66666666666667</ele><time>2026-04-18T10:21:13.001Z</time></trkpt><trkpt lat="37.486000790286916" lon="13.187890648465288"><ele>68.0</ele><time>2026-04-18T10:21:14.001Z</time></trkpt><trkpt lat="37.48602096016928" lon="13.187682856541635"><ele>68.0</ele><time>2026-04-18T10:21:15.001Z</time></trkpt><trkpt lat="37.48605477403298" lon="13.187480801879243"><ele>68.0</ele><time>2026-04-18T10:21:16.001Z</time></trkpt><trkpt lat="37.48609355304909" lon="13.18728660274358"><ele>68.0</ele><time>2026-04-18T10:21:17.001Z</time></trkpt><trkpt lat="37.48613674388911" lon="13.187098462517328"><ele>67.33333333333334</ele><time>2026-04-18T10:21:18.001Z</time></trkpt><trkpt lat="37.4861782035448" lon="13.18691638774832"><ele>66.66666666666667</ele><time>2026-04-18T10:21:19.001Z</time></trkpt><trkpt lat="37.48621625160385" lon="13.186734519642268"><ele>66.0</ele><time>2026-04-18T10:21:20.001Z</time></trkpt><trkpt lat="37.4862547519589" lon="13.186550023952863"><ele>64.0</ele><time>2026-04-18T10:21:21.001Z</time></trkpt><trkpt lat="37.48629286820088" lon="13.186364905291999"><ele>62.0</ele><time>2026-04-18T10:21:22.001Z</time></trkpt><trkpt lat="37.4863280011932" lon="13.186188861235099"><ele>60.0</ele><time>2026-04-18T10:21:23.001Z</time></trkpt><trkpt lat="37.48636807085502" lon="13.186020906438099"><ele>58.0</ele><time>2026-04-18T10:21:24.001Z</time></trkpt><trkpt lat="37.48641764702508" lon="13.18586500896559"><ele>58.0</ele><time>2026-04-18T10:21:25.001Z</time></trkpt><trkpt lat="37.48647368883084" lon="13.185700753935457"><ele>58.0</ele><time>2026-04-18T10:21:26.001Z</time></trkpt><trkpt lat="37.486547321054296" lon="13.185529795393432"><ele>58.0</ele><time>2026-04-18T10:21:27.001Z</time></trkpt><trkpt lat="37.486632072134206" lon="13.18536586142887"><ele>57.0</ele><time>2026-04-18T10:21:28.001Z</time></trkpt><trkpt lat="37.48672499543175" lon="13.18519731728108"><ele>56.0</ele><time>2026-04-18T10:21:29.001Z</time></trkpt><trkpt lat="37.48681717040431" lon="13.185044229566273"><ele>55.0</ele><time>2026-04-18T10:21:30.001Z</time></trkpt><trkpt lat="37.486916435814734" lon="13.184903359464542"><ele>56.0</ele><time>2026-04-18T10:21:31.001Z</time></trkpt><trkpt lat="37.48702389579449" lon="13.184775342300773"><ele>57.0</ele><time>2026-04-18T10:21:32.001Z</time></trkpt><trkpt lat="37.48714886412185" lon="13.184659299218874"><ele>58.0</ele><time>2026-04-18T10:21:33.001Z</time></trkpt><trkpt lat="37.48728442070355" lon="13.184557977220138"><ele>53.5</ele><time>2026-04-18T10:21:34.001Z</time></trkpt><trkpt lat="37.48741787754001" lon="13.184466955398936"><ele>49.0</ele><time>2026-04-18T10:21:35.001Z</time></trkpt><trkpt lat="37.48754951497734" lon="13.184400414313092"><ele>44.5</ele><time>2026-04-18T10:21:36.001Z</time></trkpt><trkpt lat="37.48768319677741" lon="13.18433703303798"><ele>40.0</ele><time>2026-04-18T10:21:37.001Z</time></trkpt><trkpt lat="37.487825756732306" lon="13.184283437822993"><ele>37.66666666666667</ele><time>2026-04-18T10:21:38.001Z</time></trkpt><trkpt lat="37.487968744716284" lon="13.184232971737204"><ele>35.333333333333336</ele><time>2026-04-18T10:21:39.001Z</time></trkpt><trkpt lat="37.48811732611054" lon="13.184187736451149"><ele>33.0</ele><time>2026-04-18T10:21:40.001Z</time></trkpt><trkpt lat="37.48827079112056" lon="13.184141676611988"><ele>33.0</ele><time>2026-04-18T10:21:41.001Z</time></trkpt><trkpt lat="37.48842450970829" lon="13.184098603837219"><ele>33.0</ele><time>2026-04-18T10:21:42.001Z</time></trkpt><trkpt lat="37.48858781839796" lon="13.184059387946363"><ele>33.0</ele><time>2026-04-18T10:21:43.001Z</time></trkpt><trkpt lat="37.48876200701437" lon="13.184017772738189"><ele>29.666666666666668</ele><time>2026-04-18T10:21:44.001Z</time></trkpt><trkpt lat="37.4889467363316" lon="13.183976751005597"><ele>26.333333333333336</ele><time>2026-04-18T10:21:45.001Z</time></trkpt><trkpt lat="37.489135366365694" lon="13.183923254583021"><ele>23.0</ele><time>2026-04-18T10:21:46.001Z</time></trkpt><trkpt lat="37.48932280102288" lon="13.183876501375765"><ele>23.0</ele><time>2026-04-18T10:21:47.001Z</time></trkpt><trkpt lat="37.489510309968814" lon="13.18382379717"><ele>23.0</ele><time>2026-04-18T10:21:48.001Z</time></trkpt><trkpt lat="37.489698102396744" lon="13.183775975947"><ele>23.0</ele><time>2026-04-18T10:21:49.001Z</time></trkpt><trkpt lat="37.489887667814074" lon="13.183720940316025"><ele>22.666666666666668</ele><time>2026-04-18T10:21:50.001Z</time></trkpt><trkpt lat="37.49007794961685" lon="13.183670264134019"><ele>22.333333333333332</ele><time>2026-04-18T10:21:51.001Z</time></trkpt><trkpt lat="37.49026113947647" lon="13.183615062238424"><ele>22.0</ele><time>2026-04-18T10:21:52.001Z</time></trkpt><trkpt lat="37.490439900625866" lon="13.183567529591247"><ele>22.666666666666664</ele><time>2026-04-18T10:21:53.001Z</time></trkpt><trkpt lat="37.49061959994921" lon="13.183523107296292"><ele>23.333333333333332</ele><time>2026-04-18T10:21:54.001Z</time></trkpt><trkpt lat="37.49079892530026" lon="13.183476641274316"><ele>24.0</ele><time>2026-04-18T10:21:55.001Z</time></trkpt><trkpt lat="37.49097507898059" lon="13.183431142655483"><ele>24.0</ele><time>2026-04-18T10:21:56.001Z</time></trkpt><trkpt lat="37.49114987752617" lon="13.183388017193954"><ele>24.0</ele><time>2026-04-18T10:21:57.001Z</time></trkpt><trkpt lat="37.491320727450656" lon="13.183344077350112"><ele>24.0</ele><time>2026-04-18T10:21:58.001Z</time></trkpt><trkpt lat="37.49149209438084" lon="13.183297477744917"><ele>25.666666666666664</ele><time>2026-04-18T10:21:59.001Z</time></trkpt><trkpt lat="37.49166273198556" lon="13.183254538288631"><ele>27.333333333333332</ele><time>2026-04-18T10:22:00.001Z</time></trkpt><trkpt lat="37.491829981011236" lon="13.183213435044232"><ele>29.0</ele><time>2026-04-18T10:22:01.001Z</time></trkpt><trkpt lat="37.49199174533604" lon="13.183173739339132"><ele>32.33333333333333</ele><time>2026-04-18T10:22:02.001Z</time></trkpt><trkpt lat="37.49215530280002" lon="13.183130043103542"><ele>35.666666666666664</ele><time>2026-04-18T10:22:03.001Z</time></trkpt><trkpt lat="37.49231684836136" lon="13.183079718446464"><ele>39.0</ele><time>2026-04-18T10:22:04.001Z</time></trkpt><trkpt lat="37.492476795493054" lon="13.183024122381152"><ele>39.0</ele><time>2026-04-18T10:22:05.001Z</time></trkpt><trkpt lat="37.49263851921176" lon="13.1829403934599"><ele>39.0</ele><time>2026-04-18T10:22:06.001Z</time></trkpt><trkpt lat="37.49280638708168" lon="13.182838708780599"><ele>39.0</ele><time>2026-04-18T10:22:07.001Z</time></trkpt><trkpt lat="37.492960177602484" lon="13.18271626157288"><ele>39.666666666666664</ele><time>2026-04-18T10:22:08.001Z</time></trkpt><trkpt lat="37.4930995332843" lon="13.18258257415322"><ele>40.33333333333333</ele><time>2026-04-18T10:22:09.001Z</time></trkpt><trkpt lat="37.49322597097052" lon="13.182441166290186"><ele>41.0</ele><time>2026-04-18T10:22:10.001Z</time></trkpt><trkpt lat="37.49333887669425" lon="13.182285717326208"><ele>41.33333333333333</ele><time>2026-04-18T10:22:11.001Z</time></trkpt><trkpt lat="37.49343914577555" lon="13.182111495203126"><ele>41.666666666666664</ele><time>2026-04-18T10:22:12.001Z</time></trkpt><trkpt lat="37.49352760585368" lon="13.181929340822567"><ele>42.0</ele><time>2026-04-18T10:22:13.001Z</time></trkpt><trkpt lat="37.49360150777888" lon="13.181740671236243"><ele>42.0</ele><time>2026-04-18T10:22:14.001Z</time></trkpt><trkpt lat="37.493659363447875" lon="13.181526479025479"><ele>42.0</ele><time>2026-04-18T10:22:15.001Z</time></trkpt><trkpt lat="37.49370503760384" lon="13.181290819926932"><ele>42.0</ele><time>2026-04-18T10:22:16.001Z</time></trkpt><trkpt lat="37.49374654602985" lon="13.18102518110113"><ele>43.0</ele><time>2026-04-18T10:22:17.001Z</time></trkpt><trkpt lat="37.493795640200815" lon="13.180727544661224"><ele>44.0</ele><time>2026-04-18T10:22:18.001Z</time></trkpt><trkpt lat="37.493858475015415" lon="13.180407277078679"><ele>44.0</ele><time>2026-04-18T10:22:19.001Z</time></trkpt><trkpt lat="37.4939272818454" lon="13.180091173065325"><ele>44.0</ele><time>2026-04-18T10:22:20.001Z</time></trkpt><trkpt lat="37.49399045708144" lon="13.179798882479796"><ele>44.0</ele><time>2026-04-18T10:22:21.001Z</time></trkpt><trkpt lat="37.494043728366144" lon="13.179526159693669"><ele>44.0</ele><time>2026-04-18T10:22:22.001Z</time></trkpt><trkpt lat="37.494095298152445" lon="13.179258899986332"><ele>44.0</ele><time>2026-04-18T10:22:23.001Z</time></trkpt><trkpt lat="37.49414909050539" lon="13.178992790889907"><ele>43.666666666666664</ele><time>2026-04-18T10:22:24.001Z</time></trkpt><trkpt lat="37.494199917835125" lon="13.178728067717074"><ele>43.333333333333336</ele><time>2026-04-18T10:22:25.001Z</time></trkpt><trkpt lat="37.494247285916835" lon="13.178471598235694"><ele>43.0</ele><time>2026-04-18T10:22:26.001Z</time></trkpt><trkpt lat="37.494295848001386" lon="13.178216939956881"><ele>43.333333333333336</ele><time>2026-04-18T10:22:27.001Z</time></trkpt><trkpt lat="37.49434561269684" lon="13.177957041085694"><ele>43.666666666666664</ele><time>2026-04-18T10:22:28.001Z</time></trkpt><trkpt lat="37.49439793061283" lon="13.177688099703712"><ele>44.0</ele><time>2026-04-18T10:22:29.001Z</time></trkpt><trkpt lat="37.494448881011785" lon="13.177431626942699"><ele>44.0</ele><time>2026-04-18T10:22:30.001Z</time></trkpt><trkpt lat="37.494496062124995" lon="13.17718538887864"><ele>44.0</ele><time>2026-04-18T10:22:31.001Z</time></trkpt><trkpt lat="37.49454155372651" lon="13.17695014170203"><ele>44.0</ele><time>2026-04-18T10:22:32.001Z</time></trkpt><trkpt lat="37.49458875516783" lon="13.176714678597689"><ele>45.666666666666664</ele><time>2026-04-18T10:22:33.001Z</time></trkpt><trkpt lat="37.49463358908881" lon="13.176483938852398"><ele>47.33333333333333</ele><time>2026-04-18T10:22:34.001Z</time></trkpt><trkpt lat="37.49467839429616" lon="13.176254374756988"><ele>49.0</ele><time>2026-04-18T10:22:35.001Z</time></trkpt><trkpt lat="37.49472672385717" lon="13.176022517487091"><ele>49.0</ele><time>2026-04-18T10:22:36.001Z</time></trkpt><trkpt lat="37.49477764346096" lon="13.17579563874463"><ele>49.0</ele><time>2026-04-18T10:22:37.001Z</time></trkpt><trkpt lat="37.494829584987535" lon="13.175579664691474"><ele>49.0</ele><time>2026-04-18T10:22:38.001Z</time></trkpt><trkpt lat="37.494888703229" lon="13.175368907419823"><ele>49.33333333333333</ele><time>2026-04-18T10:22:39.001Z</time></trkpt><trkpt lat="37.49496936356444" lon="13.17515499286465"><ele>49.66666666666667</ele><time>2026-04-18T10:22:40Z</time></trkpt><trkpt lat="37.49507115113016" lon="13.174939593392093"><ele>50.0</ele><time>2026-04-18T10:22:41Z</time></trkpt><trkpt lat="37.4951855570402" lon="13.174741577282457"><ele>50.0</ele><time>2026-04-18T10:22:42Z</time></trkpt><trkpt lat="37.49531312173305" lon="13.174555542125457"><ele>50.0</ele><time>2026-04-18T10:22:43Z</time></trkpt><trkpt lat="37.49546189315891" lon="13.174375464573705"><ele>50.0</ele><time>2026-04-18T10:22:44Z</time></trkpt><trkpt lat="37.49562464813962" lon="13.174202980985294"><ele>51.0</ele><time>2026-04-18T10:22:45Z</time></trkpt><trkpt lat="37.495793743620574" lon="13.174066575363186"><ele>52.0</ele><time>2026-04-18T10:22:46Z</time></trkpt><trkpt lat="37.49596791096865" lon="13.173948446500612"><ele>53.0</ele><time>2026-04-18T10:22:47Z</time></trkpt><trkpt lat="37.49614751528752" lon="13.173837562117441"><ele>52.0</ele><time>2026-04-18T10:22:48Z</time></trkpt><trkpt lat="37.49632765745721" lon="13.17372593306054"><ele>51.0</ele><time>2026-04-18T10:22:49Z</time></trkpt><trkpt lat="37.496511680421065" lon="13.17361698381013"><ele>50.0</ele><time>2026-04-18T10:22:50Z</time></trkpt><trkpt lat="37.49669390954958" lon="13.173506084889473"><ele>50.0</ele><time>2026-04-18T10:22:51Z</time></trkpt><trkpt lat="37.49686340840175" lon="13.173396866316653"><ele>50.0</ele><time>2026-04-18T10:22:52Z</time></trkpt><trkpt lat="37.49703007666307" lon="13.17327509395041"><ele>50.0</ele><time>2026-04-18T10:22:53Z</time></trkpt><trkpt lat="37.49718656037956" lon="13.173141820877197"><ele>49.333333333333336</ele><time>2026-04-18T10:22:54Z</time></trkpt><trkpt lat="37.49732892059485" lon="13.17300931667321"><ele>48.66666666666667</ele><time>2026-04-18T10:22:55Z</time></trkpt><trkpt lat="37.497463053677585" lon="13.172873784765295"><ele>48.0</ele><time>2026-04-18T10:22:56Z</time></trkpt><trkpt lat="37.49759937591897" lon="13.17272502683718"><ele>48.0</ele><time>2026-04-18T10:22:57Z</time></trkpt><trkpt lat="37.4977279188264" lon="13.17256892961538"><ele>48.0</ele><time>2026-04-18T10:22:58Z</time></trkpt><trkpt lat="37.49784933530122" lon="13.172407258670411"><ele>48.0</ele><time>2026-04-18T10:22:59Z</time></trkpt><trkpt lat="37.49796664221672" lon="13.172241697365026"><ele>48.33333333333333</ele><time>2026-04-18T10:23:00Z</time></trkpt><trkpt lat="37.49808005686043" lon="13.172065624568544"><ele>48.666666666666664</ele><time>2026-04-18T10:23:01Z</time></trkpt><trkpt lat="37.49818874825862" lon="13.171879809619272"><ele>49.0</ele><time>2026-04-18T10:23:02Z</time></trkpt><trkpt lat="37.49829165298191" lon="13.17168185887335"><ele>47.0</ele><time>2026-04-18T10:23:03Z</time></trkpt><trkpt lat="37.49839346313304" lon="13.17147794950704"><ele>45.0</ele><time>2026-04-18T10:23:04Z</time></trkpt><trkpt lat="37.49849268408836" lon="13.171267251941435"><ele>43.0</ele><time>2026-04-18T10:23:05Z</time></trkpt><trkpt lat="37.498576143752594" lon="13.171046213395618"><ele>43.0</ele><time>2026-04-18T10:23:06Z</time></trkpt><trkpt lat="37.49864850905412" lon="13.1708255176279"><ele>43.0</ele><time>2026-04-18T10:23:07Z</time></trkpt><trkpt lat="37.49870968581726" lon="13.17059901524471"><ele>43.0</ele><time>2026-04-18T10:23:08Z</time></trkpt><trkpt lat="37.49876478448789" lon="13.17037554050812"><ele>43.333333333333336</ele><time>2026-04-18T10:23:09Z</time></trkpt><trkpt lat="37.498812171325035" lon="13.170152423395225"><ele>43.666666666666664</ele><time>2026-04-18T10:23:10Z</time></trkpt><trkpt lat="37.498853996532205" lon="13.169932864788358"><ele>44.0</ele><time>2026-04-18T10:23:11Z</time></trkpt><trkpt lat="37.498891718115345" lon="13.16970951956882"><ele>44.0</ele><time>2026-04-18T10:23:12Z</time></trkpt><trkpt lat="37.49893059496824" lon="13.169485581843773"><ele>44.0</ele><time>2026-04-18T10:23:13Z</time></trkpt><trkpt lat="37.49897263852541" lon="13.16925575244034"><ele>44.0</ele><time>2026-04-18T10:23:14Z</time></trkpt><trkpt lat="37.49901536076713" lon="13.169022759993531"><ele>44.33333333333333</ele><time>2026-04-18T10:23:15Z</time></trkpt><trkpt lat="37.499060415959434" lon="13.168790166805842"><ele>44.666666666666664</ele><time>2026-04-18T10:23:16Z</time></trkpt><trkpt lat="37.49910241679476" lon="13.168557568286095"><ele>45.0</ele><time>2026-04-18T10:23:17Z</time></trkpt><trkpt lat="37.49915563259783" lon="13.168333413824662"><ele>43.666666666666664</ele><time>2026-04-18T10:23:18Z</time></trkpt><trkpt lat="37.49921329114314" lon="13.168118521024889"><ele>42.33333333333333</ele><time>2026-04-18T10:23:19Z</time></trkpt><trkpt lat="37.49926403612196" lon="13.167888371193714"><ele>41.0</ele><time>2026-04-18T10:23:20Z</time></trkpt><trkpt lat="37.499313463622116" lon="13.167667643582009"><ele>41.0</ele><time>2026-04-18T10:23:21Z</time></trkpt><trkpt lat="37.49936644412182" lon="13.167452654817806"><ele>41.0</ele><time>2026-04-18T10:23:22Z</time></trkpt><trkpt lat="37.499421422086456" lon="13.167237676691979"><ele>41.0</ele><time>2026-04-18T10:23:23Z</time></trkpt><trkpt lat="37.49953357002289" lon="13.166807425640883"><ele>42.0</ele><time>2026-04-18T10:23:25Z</time></trkpt><trkpt lat="37.49958979494414" lon="13.166581815529803"><ele>43.0</ele><time>2026-04-18T10:23:26Z</time></trkpt><trkpt lat="37.49964429930137" lon="13.16636001322888"><ele>44.0</ele><time>2026-04-18T10:23:27Z</time></trkpt><trkpt lat="37.4996959530984" lon="13.166137279658868"><ele>44.0</ele><time>2026-04-18T10:23:28Z</time></trkpt><trkpt lat="37.499742692514985" lon="13.165914419737243"><ele>44.0</ele><time>2026-04-18T10:23:29Z</time></trkpt><trkpt lat="37.49979120365986" lon="13.165684178108016"><ele>44.0</ele><time>2026-04-18T10:23:30Z</time></trkpt><trkpt lat="37.49983920793224" lon="13.165450063984315"><ele>44.0</ele><time>2026-04-18T10:23:31Z</time></trkpt><trkpt lat="37.499887131113695" lon="13.16521187764056"><ele>44.0</ele><time>2026-04-18T10:23:32Z</time></trkpt><trkpt lat="37.49993341512879" lon="13.164962973452186"><ele>44.0</ele><time>2026-04-18T10:23:33Z</time></trkpt><trkpt lat="37.499981058334654" lon="13.164702668499269"><ele>44.0</ele><time>2026-04-18T10:23:34Z</time></trkpt><trkpt lat="37.50002704895223" lon="13.164437365051722"><ele>44.0</ele><time>2026-04-18T10:23:35Z</time></trkpt><trkpt lat="37.500078776289406" lon="13.164177298029841"><ele>44.0</ele><time>2026-04-18T10:23:36Z</time></trkpt><trkpt lat="37.50012634973854" lon="13.163919106842995"><ele>43.666666666666664</ele><time>2026-04-18T10:23:37Z</time></trkpt><trkpt lat="37.500172284246865" lon="13.163658536243059"><ele>43.333333333333336</ele><time>2026-04-18T10:23:38Z</time></trkpt><trkpt lat="37.50021698933773" lon="13.163396796673904"><ele>43.0</ele><time>2026-04-18T10:23:39Z</time></trkpt><trkpt lat="37.50026605788155" lon="13.16313052070426"><ele>43.0</ele><time>2026-04-18T10:23:40Z</time></trkpt><trkpt lat="37.50031674571086" lon="13.162863827522017"><ele>43.0</ele><time>2026-04-18T10:23:41Z</time></trkpt><trkpt lat="37.50036685764464" lon="13.162604242391614"><ele>43.0</ele><time>2026-04-18T10:23:42Z</time></trkpt><trkpt lat="37.500415619755856" lon="13.162346641786929"><ele>44.66666666666667</ele><time>2026-04-18T10:23:43Z</time></trkpt><trkpt lat="37.50046169550287" lon="13.162092944494463"><ele>46.333333333333336</ele><time>2026-04-18T10:23:44Z</time></trkpt><trkpt lat="37.500508532652496" lon="13.161838179769564"><ele>48.0</ele><time>2026-04-18T10:23:45Z</time></trkpt><trkpt lat="37.50055597549235" lon="13.161584693733365"><ele>47.333333333333336</ele><time>2026-04-18T10:23:46Z</time></trkpt><trkpt lat="37.50060562148009" lon="13.161333068138607"><ele>46.66666666666667</ele><time>2026-04-18T10:23:47Z</time></trkpt><trkpt lat="37.50065128371897" lon="13.161088168053988"><ele>46.0</ele><time>2026-04-18T10:23:48Z</time></trkpt><trkpt lat="37.50069714314427" lon="13.160847413869098"><ele>46.333333333333336</ele><time>2026-04-18T10:23:49Z</time></trkpt><trkpt lat="37.50074230801804" lon="13.160611969808294"><ele>46.666666666666664</ele><time>2026-04-18T10:23:50Z</time></trkpt><trkpt lat="37.50078455923763" lon="13.160375586018603"><ele>47.0</ele><time>2026-04-18T10:23:51Z</time></trkpt><trkpt lat="37.50082655306312" lon="13.160142174757512"><ele>47.0</ele><time>2026-04-18T10:23:52Z</time></trkpt><trkpt lat="37.500872285707786" lon="13.159902042740402"><ele>47.0</ele><time>2026-04-18T10:23:53Z</time></trkpt><trkpt lat="37.50091764151185" lon="13.159661415653485"><ele>47.0</ele><time>2026-04-18T10:23:54Z</time></trkpt><trkpt lat="37.50096011335214" lon="13.159429900232373"><ele>47.0</ele><time>2026-04-18T10:23:55Z</time></trkpt><trkpt lat="37.501003060190854" lon="13.159203243298734"><ele>47.0</ele><time>2026-04-18T10:23:56Z</time></trkpt><trkpt lat="37.50104613768208" lon="13.15897004216364"><ele>47.0</ele><time>2026-04-18T10:23:57Z</time></trkpt><trkpt lat="37.501087922085375" lon="13.1587435033025"><ele>47.0</ele><time>2026-04-18T10:23:58Z</time></trkpt><trkpt lat="37.50112844594018" lon="13.158517838378618"><ele>47.0</ele><time>2026-04-18T10:23:59Z</time></trkpt><trkpt lat="37.501166871569446" lon="13.15829516263448"><ele>47.0</ele><time>2026-04-18T10:24:00Z</time></trkpt><trkpt lat="37.50120140491101" lon="13.158071323541572"><ele>48.0</ele><time>2026-04-18T10:24:01Z</time></trkpt><trkpt lat="37.501232716082775" lon="13.157848836484183"><ele>49.0</ele><time>2026-04-18T10:24:02Z</time></trkpt><trkpt lat="37.501261548453144" lon="13.157624753403995"><ele>50.0</ele><time>2026-04-18T10:24:03Z</time></trkpt><trkpt lat="37.501287141321" lon="13.157400808502606"><ele>53.0</ele><time>2026-04-18T10:24:04Z</time></trkpt><trkpt lat="37.501311061998756" lon="13.157179498985112"><ele>56.0</ele><time>2026-04-18T10:24:05Z</time></trkpt><trkpt lat="37.50132745208541" lon="13.156948681322037"><ele>59.0</ele><time>2026-04-18T10:24:06Z</time></trkpt><trkpt lat="37.5013369874766" lon="13.156710991471686"><ele>59.0</ele><time>2026-04-18T10:24:07Z</time></trkpt><trkpt lat="37.501339766203955" lon="13.156475924287648"><ele>59.0</ele><time>2026-04-18T10:24:08Z</time></trkpt><trkpt lat="37.501334868533654" lon="13.15623086883836"><ele>59.0</ele><time>2026-04-18T10:24:09Z</time></trkpt><trkpt lat="37.501317274592644" lon="13.15597841923827"><ele>59.0</ele><time>2026-04-18T10:24:10Z</time></trkpt><trkpt lat="37.501288940739336" lon="13.1557223489154"><ele>59.0</ele><time>2026-04-18T10:24:11Z</time></trkpt><trkpt lat="37.5012562753608" lon="13.155470839954308"><ele>59.0</ele><time>2026-04-18T10:24:12Z</time></trkpt><trkpt lat="37.50122225502544" lon="13.155225184983205"><ele>60.333333333333336</ele><time>2026-04-18T10:24:13Z</time></trkpt><trkpt lat="37.50118422405419" lon="13.154987723173551"><ele>61.66666666666667</ele><time>2026-04-18T10:24:14Z</time></trkpt><trkpt lat="37.50114149735592" lon="13.154740642819327"><ele>63.0</ele><time>2026-04-18T10:24:15Z</time></trkpt><trkpt lat="37.50109055270521" lon="13.154498563252883"><ele>63.0</ele><time>2026-04-18T10:24:16Z</time></trkpt><trkpt lat="37.50103896428653" lon="13.15426417304551"><ele>63.0</ele><time>2026-04-18T10:24:17Z</time></trkpt><trkpt lat="37.50098909895884" lon="13.154048036936711"><ele>63.0</ele><time>2026-04-18T10:24:18Z</time></trkpt><trkpt lat="37.50094112940231" lon="13.153836522908977"><ele>64.0</ele><time>2026-04-18T10:24:19Z</time></trkpt><trkpt lat="37.50089067089618" lon="13.15363106866438"><ele>65.0</ele><time>2026-04-18T10:24:20Z</time></trkpt><trkpt lat="37.5008386527435" lon="13.15343150539133"><ele>66.0</ele><time>2026-04-18T10:24:21Z</time></trkpt><trkpt lat="37.50079250890062" lon="13.153244663069962"><ele>66.66666666666667</ele><time>2026-04-18T10:24:22.001Z</time></trkpt><trkpt lat="37.5007482923959" lon="13.15306745585669"><ele>67.33333333333334</ele><time>2026-04-18T10:24:23.001Z</time></trkpt><trkpt lat="37.50070300562693" lon="13.152883665975052"><ele>68.0</ele><time>2026-04-18T10:24:24.001Z</time></trkpt><trkpt lat="37.5006586703947" lon="13.152702715736087"><ele>68.0</ele><time>2026-04-18T10:24:25.001Z</time></trkpt><trkpt lat="37.50060961431471" lon="13.152511923138691"><ele>68.0</ele><time>2026-04-18T10:24:26.001Z</time></trkpt><trkpt lat="37.5005576911794" lon="13.152315355541502"><ele>68.0</ele><time>2026-04-18T10:24:27.001Z</time></trkpt><trkpt lat="37.5005090562302" lon="13.15210894603459"><ele>69.33333333333334</ele><time>2026-04-18T10:24:28.001Z</time></trkpt><trkpt lat="37.500460595604665" lon="13.15189967753457"><ele>70.66666666666667</ele><time>2026-04-18T10:24:29.001Z</time></trkpt><trkpt lat="37.500410228171624" lon="13.151688596093871"><ele>72.0</ele><time>2026-04-18T10:24:30.001Z</time></trkpt><trkpt lat="37.50036196608223" lon="13.151473251221487"><ele>67.0</ele><time>2026-04-18T10:24:31.001Z</time></trkpt><trkpt lat="37.500312332506454" lon="13.151256731943255"><ele>62.0</ele><time>2026-04-18T10:24:32.001Z</time></trkpt><trkpt lat="37.50026008242608" lon="13.151034388906087"><ele>57.0</ele><time>2026-04-18T10:24:33.001Z</time></trkpt><trkpt lat="37.5002085741304" lon="13.15081731633885"><ele>58.33333333333333</ele><time>2026-04-18T10:24:34.001Z</time></trkpt><trkpt lat="37.500158186583604" lon="13.150607545601414"><ele>59.666666666666664</ele><time>2026-04-18T10:24:35.001Z</time></trkpt><trkpt lat="37.50010957553136" lon="13.150397221091612"><ele>61.0</ele><time>2026-04-18T10:24:36.001Z</time></trkpt><trkpt lat="37.500057807656376" lon="13.15018573501828"><ele>61.0</ele><time>2026-04-18T10:24:37.001Z</time></trkpt><trkpt lat="37.50000824810352" lon="13.149975752314665"><ele>61.0</ele><time>2026-04-18T10:24:38.001Z</time></trkpt><trkpt lat="37.49995917603703" lon="13.149763231093079"><ele>61.0</ele><time>2026-04-18T10:24:39.001Z</time></trkpt><trkpt lat="37.499909720004304" lon="13.149553975749171"><ele>62.0</ele><time>2026-04-18T10:24:40.001Z</time></trkpt><trkpt lat="37.499862988690154" lon="13.149342491582114"><ele>63.0</ele><time>2026-04-18T10:24:41.001Z</time></trkpt><trkpt lat="37.49982372223867" lon="13.149129938130095"><ele>64.0</ele><time>2026-04-18T10:24:42.001Z</time></trkpt><trkpt lat="37.49978980408599" lon="13.148919643452144"><ele>64.0</ele><time>2026-04-18T10:24:43.001Z</time></trkpt><trkpt lat="37.49976846755234" lon="13.148716332803964"><ele>64.0</ele><time>2026-04-18T10:24:44.001Z</time></trkpt><trkpt lat="37.499753362894836" lon="13.14852180656172"><ele>64.0</ele><time>2026-04-18T10:24:45.001Z</time></trkpt><trkpt lat="37.49974542455312" lon="13.14832449099563"><ele>62.666666666666664</ele><time>2026-04-18T10:24:46.001Z</time></trkpt><trkpt lat="37.49974749501603" lon="13.148126864944674"><ele>61.33333333333333</ele><time>2026-04-18T10:24:47.001Z</time></trkpt><trkpt lat="37.49976005477474" lon="13.147930137835328"><ele>60.0</ele><time>2026-04-18T10:24:48.001Z</time></trkpt><trkpt lat="37.499787563596506" lon="13.147732748819804"><ele>60.0</ele><time>2026-04-18T10:24:49.001Z</time></trkpt><trkpt lat="37.499833207410646" lon="13.147539856752534"><ele>60.0</ele><time>2026-04-18T10:24:50.001Z</time></trkpt><trkpt lat="37.499893707234534" lon="13.147351264095594"><ele>60.0</ele><time>2026-04-18T10:24:51.001Z</time></trkpt><trkpt lat="37.49997176039981" lon="13.147174848854892"><ele>56.0</ele><time>2026-04-18T10:24:52.001Z</time></trkpt><trkpt lat="37.50005767207589" lon="13.146998705762751"><ele>52.0</ele><time>2026-04-18T10:24:53.001Z</time></trkpt><trkpt lat="37.500137925265314" lon="13.146844485959209"><ele>48.0</ele><time>2026-04-18T10:24:54.001Z</time></trkpt><trkpt lat="37.500238033308726" lon="13.146692221470365"><ele>46.666666666666664</ele><time>2026-04-18T10:24:55.001Z</time></trkpt><trkpt lat="37.5003502441526" lon="13.14653378111752"><ele>45.33333333333333</ele><time>2026-04-18T10:24:56Z</time></trkpt><trkpt lat="37.50046533469141" lon="13.14637814876732"><ele>44.0</ele><time>2026-04-18T10:24:57Z</time></trkpt><trkpt lat="37.50058227687769" lon="13.146222933792952"><ele>44.0</ele><time>2026-04-18T10:24:58Z</time></trkpt><trkpt lat="37.50069762445817" lon="13.14606792313706"><ele>44.0</ele><time>2026-04-18T10:24:59Z</time></trkpt><trkpt lat="37.500818510984885" lon="13.145916687939232"><ele>44.0</ele><time>2026-04-18T10:25:00Z</time></trkpt><trkpt lat="37.500935411440395" lon="13.145769726566744"><ele>44.33333333333333</ele><time>2026-04-18T10:25:01Z</time></trkpt><trkpt lat="37.50105506951078" lon="13.145619117796006"><ele>44.666666666666664</ele><time>2026-04-18T10:25:02Z</time></trkpt><trkpt lat="37.50118007583422" lon="13.145458187116624"><ele>45.0</ele><time>2026-04-18T10:25:03Z</time></trkpt><trkpt lat="37.50130917396197" lon="13.145294610062894"><ele>45.0</ele><time>2026-04-18T10:25:04Z</time></trkpt><trkpt lat="37.501444183841826" lon="13.145131447007893"><ele>45.0</ele><time>2026-04-18T10:25:05Z</time></trkpt><trkpt lat="37.50156040795722" lon="13.144957860106453"><ele>45.0</ele><time>2026-04-18T10:25:06Z</time></trkpt><trkpt lat="37.501673887117086" lon="13.144791240317806"><ele>41.666666666666664</ele><time>2026-04-18T10:25:07Z</time></trkpt><trkpt lat="37.50178535608921" lon="13.144614735664597"><ele>38.33333333333333</ele><time>2026-04-18T10:25:08Z</time></trkpt><trkpt lat="37.50189460881231" lon="13.144441330975859"><ele>35.0</ele><time>2026-04-18T10:25:09Z</time></trkpt><trkpt lat="37.50199583179699" lon="13.14426023522046"><ele>37.666666666666664</ele><time>2026-04-18T10:25:10Z</time></trkpt><trkpt lat="37.5020935141164" lon="13.144069339501986"><ele>40.333333333333336</ele><time>2026-04-18T10:25:11Z</time></trkpt><trkpt lat="37.50218480030559" lon="13.14387247650946"><ele>43.0</ele><time>2026-04-18T10:25:12Z</time></trkpt><trkpt lat="37.50226837402637" lon="13.143671439559352"><ele>44.66666666666667</ele><time>2026-04-18T10:25:13Z</time></trkpt><trkpt lat="37.50234772526245" lon="13.143448367572683"><ele>46.333333333333336</ele><time>2026-04-18T10:25:14Z</time></trkpt><trkpt lat="37.5024177138265" lon="13.143215980559821"><ele>48.0</ele><time>2026-04-18T10:25:15Z</time></trkpt><trkpt lat="37.5024811938581" lon="13.142974624103708"><ele>48.0</ele><time>2026-04-18T10:25:16Z</time></trkpt><trkpt lat="37.50253668473309" lon="13.142737566703863"><ele>48.0</ele><time>2026-04-18T10:25:17Z</time></trkpt><trkpt lat="37.50258385802309" lon="13.142500075931482"><ele>48.0</ele><time>2026-04-18T10:25:18Z</time></trkpt><trkpt lat="37.502623665404826" lon="13.142260576644174"><ele>47.333333333333336</ele><time>2026-04-18T10:25:19Z</time></trkpt><trkpt lat="37.50266062479412" lon="13.142009045192657"><ele>46.66666666666667</ele><time>2026-04-18T10:25:20Z</time></trkpt><trkpt lat="37.50269596209634" lon="13.141748999942372"><ele>46.0</ele><time>2026-04-18T10:25:21Z</time></trkpt><trkpt lat="37.502728405640404" lon="13.141481132019967"><ele>45.333333333333336</ele><time>2026-04-18T10:25:22Z</time></trkpt><trkpt lat="37.50275605339924" lon="13.141210347074601"><ele>44.666666666666664</ele><time>2026-04-18T10:25:23Z</time></trkpt><trkpt lat="37.50278450382006" lon="13.140936700321603"><ele>44.0</ele><time>2026-04-18T10:25:24Z</time></trkpt><trkpt lat="37.50280667604465" lon="13.140662705470938"><ele>43.0</ele><time>2026-04-18T10:25:25Z</time></trkpt><trkpt lat="37.50283149544377" lon="13.140388697092709"><ele>42.0</ele><time>2026-04-18T10:25:26Z</time></trkpt><trkpt lat="37.50285649911077" lon="13.140119325628342"><ele>41.0</ele><time>2026-04-18T10:25:27Z</time></trkpt><trkpt lat="37.50288211248475" lon="13.139846289614763"><ele>41.666666666666664</ele><time>2026-04-18T10:25:28Z</time></trkpt><trkpt lat="37.50290642994592" lon="13.139575018033332"><ele>42.333333333333336</ele><time>2026-04-18T10:25:29Z</time></trkpt><trkpt lat="37.50293148934773" lon="13.13930312307819"><ele>43.0</ele><time>2026-04-18T10:25:30Z</time></trkpt><trkpt lat="37.50295311005801" lon="13.139033404865124"><ele>43.0</ele><time>2026-04-18T10:25:31Z</time></trkpt><trkpt lat="37.502977689674445" lon="13.138770963424543"><ele>43.0</ele><time>2026-04-18T10:25:32Z</time></trkpt><trkpt lat="37.50300518277027" lon="13.138498823998672"><ele>43.0</ele><time>2026-04-18T10:25:33Z</time></trkpt><trkpt lat="37.503035527903194" lon="13.138220303023635"><ele>42.333333333333336</ele><time>2026-04-18T10:25:34Z</time></trkpt><trkpt lat="37.5030675598368" lon="13.1379419395186"><ele>41.666666666666664</ele><time>2026-04-18T10:25:35Z</time></trkpt><trkpt lat="37.50310852784444" lon="13.137665498136887"><ele>41.0</ele><time>2026-04-18T10:25:36Z</time></trkpt><trkpt lat="37.503153657788815" lon="13.137394321165631"><ele>40.0</ele><time>2026-04-18T10:25:37Z</time></trkpt><trkpt lat="37.503203693070326" lon="13.137131039334214"><ele>39.0</ele><time>2026-04-18T10:25:38Z</time></trkpt><trkpt lat="37.503265449256105" lon="13.136873883981275"><ele>38.0</ele><time>2026-04-18T10:25:39Z</time></trkpt><trkpt lat="37.50333731890814" lon="13.13662666903196"><ele>36.33333333333333</ele><time>2026-04-18T10:25:40Z</time></trkpt><trkpt lat="37.5034128600588" lon="13.136382782318435"><ele>34.666666666666664</ele><time>2026-04-18T10:25:41Z</time></trkpt><trkpt lat="37.50350073106646" lon="13.136150062162192"><ele>33.0</ele><time>2026-04-18T10:25:42Z</time></trkpt><trkpt lat="37.50359497311032" lon="13.135923205562351"><ele>34.0</ele><time>2026-04-18T10:25:43Z</time></trkpt><trkpt lat="37.50370093589704" lon="13.135712397398962"><ele>35.0</ele><time>2026-04-18T10:25:44Z</time></trkpt><trkpt lat="37.503817893674835" lon="13.135511737057564"><ele>36.0</ele><time>2026-04-18T10:25:45Z</time></trkpt><trkpt lat="37.50393997033998" lon="13.135320179857608"><ele>36.0</ele><time>2026-04-18T10:25:46Z</time></trkpt><trkpt lat="37.50407423802065" lon="13.135121777266518"><ele>36.0</ele><time>2026-04-18T10:25:47Z</time></trkpt><trkpt lat="37.50422146315041" lon="13.134943590441399"><ele>36.0</ele><time>2026-04-18T10:25:48Z</time></trkpt><trkpt lat="37.504388076019666" lon="13.134761019000093"><ele>31.0</ele><time>2026-04-18T10:25:49Z</time></trkpt><trkpt lat="37.504556933942894" lon="13.134577446774582"><ele>26.0</ele><time>2026-04-18T10:25:50Z</time></trkpt><trkpt lat="37.50473279560963" lon="13.134391291342872"><ele>25.0</ele><time>2026-04-18T10:25:51Z</time></trkpt><trkpt lat="37.50491584079456" lon="13.134208098355893"><ele>24.0</ele><time>2026-04-18T10:25:52Z</time></trkpt><trkpt lat="37.50509482115739" lon="13.134044802032161"><ele>24.333333333333336</ele><time>2026-04-18T10:25:53Z</time></trkpt><trkpt lat="37.50526316817641" lon="13.133889733607116"><ele>24.666666666666668</ele><time>2026-04-18T10:25:54Z</time></trkpt><trkpt lat="37.505428116689565" lon="13.133734798185785"><ele>25.0</ele><time>2026-04-18T10:25:55Z</time></trkpt><trkpt lat="37.50559660445446" lon="13.13358180988954"><ele>25.0</ele><time>2026-04-18T10:25:56Z</time></trkpt><trkpt lat="37.50575754871399" lon="13.133440200003639"><ele>25.0</ele><time>2026-04-18T10:25:57Z</time></trkpt><trkpt lat="37.5059142606302" lon="13.133302618753124"><ele>25.0</ele><time>2026-04-18T10:25:58Z</time></trkpt><trkpt lat="37.50606283927402" lon="13.133169003603351"><ele>25.0</ele><time>2026-04-18T10:25:59Z</time></trkpt><trkpt lat="37.506212641658955" lon="13.133037632418654"><ele>25.0</ele><time>2026-04-18T10:26:00Z</time></trkpt><trkpt lat="37.50635324284645" lon="13.132905358919503"><ele>25.0</ele><time>2026-04-18T10:26:01Z</time></trkpt><trkpt lat="37.50648167841351" lon="13.132789214881118"><ele>29.666666666666668</ele><time>2026-04-18T10:26:02Z</time></trkpt><trkpt lat="37.506608971108655" lon="13.132668856126987"><ele>34.333333333333336</ele><time>2026-04-18T10:26:03Z</time></trkpt><trkpt lat="37.506732318275816" lon="13.132548456106264"><ele>39.0</ele><time>2026-04-18T10:26:04Z</time></trkpt><trkpt lat="37.506854480692134" lon="13.132433150315736"><ele>39.666666666666664</ele><time>2026-04-18T10:26:05Z</time></trkpt><trkpt lat="37.50697455515456" lon="13.132310250307073"><ele>40.33333333333333</ele><time>2026-04-18T10:26:06Z</time></trkpt><trkpt lat="37.507086592295046" lon="13.132186954184403"><ele>41.0</ele><time>2026-04-18T10:26:07Z</time></trkpt><trkpt lat="37.50721096184144" lon="13.132050743319747"><ele>47.0</ele><time>2026-04-18T10:26:08Z</time></trkpt><trkpt lat="37.50733966138333" lon="13.131906114533393"><ele>53.0</ele><time>2026-04-18T10:26:09Z</time></trkpt><trkpt lat="37.50745951919831" lon="13.131754811573394"><ele>59.0</ele><time>2026-04-18T10:26:10Z</time></trkpt><trkpt lat="37.50757259923584" lon="13.131601133616607"><ele>60.333333333333336</ele><time>2026-04-18T10:26:11Z</time></trkpt><trkpt lat="37.50768443084056" lon="13.131437302848322"><ele>61.66666666666667</ele><time>2026-04-18T10:26:12Z</time></trkpt><trkpt lat="37.50779311968974" lon="13.131263268162769"><ele>63.0</ele><time>2026-04-18T10:26:13Z</time></trkpt><trkpt lat="37.507895854992626" lon="13.131081639221446"><ele>66.0</ele><time>2026-04-18T10:26:14Z</time></trkpt><trkpt lat="37.50797851775855" lon="13.130888359464413"><ele>69.0</ele><time>2026-04-18T10:26:15Z</time></trkpt><trkpt lat="37.50805183351344" lon="13.130696258669808"><ele>72.0</ele><time>2026-04-18T10:26:16Z</time></trkpt><trkpt lat="37.508126237534825" lon="13.13050031666205"><ele>72.0</ele><time>2026-04-18T10:26:17Z</time></trkpt><trkpt lat="37.508201373490394" lon="13.130290738602692"><ele>72.0</ele><time>2026-04-18T10:26:18Z</time></trkpt><trkpt lat="37.508266585905275" lon="13.130076557043656"><ele>72.0</ele><time>2026-04-18T10:26:19Z</time></trkpt><trkpt lat="37.50832471355051" lon="13.129857375868156"><ele>72.66666666666667</ele><time>2026-04-18T10:26:20Z</time></trkpt><trkpt lat="37.50837542348286" lon="13.129634452300316"><ele>73.33333333333334</ele><time>2026-04-18T10:26:21Z</time></trkpt><trkpt lat="37.50841792672692" lon="13.129420182655526"><ele>74.0</ele><time>2026-04-18T10:26:22Z</time></trkpt><trkpt lat="37.50845326807656" lon="13.129225189710452"><ele>74.33333333333334</ele><time>2026-04-18T10:26:23Z</time></trkpt><trkpt lat="37.508484183146244" lon="13.1290285547027"><ele>74.66666666666667</ele><time>2026-04-18T10:26:24Z</time></trkpt><trkpt lat="37.50851501381823" lon="13.128830285054502"><ele>75.0</ele><time>2026-04-18T10:26:25Z</time></trkpt><trkpt lat="37.50854718784724" lon="13.128626059191498"><ele>75.0</ele><time>2026-04-18T10:26:26Z</time></trkpt><trkpt lat="37.50857670676075" lon="13.128430786922694"><ele>75.0</ele><time>2026-04-18T10:26:27Z</time></trkpt><trkpt lat="37.50860360384737" lon="13.128250623934266"><ele>75.0</ele><time>2026-04-18T10:26:28.002Z</time></trkpt><trkpt lat="37.50862985386468" lon="13.128078512932179"><ele>75.0</ele><time>2026-04-18T10:26:29.002Z</time></trkpt><trkpt lat="37.50865776362429" lon="13.127899091963148"><ele>74.33333333333333</ele><time>2026-04-18T10:26:30.001Z</time></trkpt><trkpt lat="37.50868208229254" lon="13.127710015201338"><ele>73.66666666666666</ele><time>2026-04-18T10:26:31.001Z</time></trkpt><trkpt lat="37.50870752911877" lon="13.12751698055853"><ele>73.0</ele><time>2026-04-18T10:26:32.001Z</time></trkpt><trkpt lat="37.508733789842644" lon="13.127315621795994"><ele>76.33333333333333</ele><time>2026-04-18T10:26:33.001Z</time></trkpt><trkpt lat="37.50876235767418" lon="13.127107632945254"><ele>79.66666666666667</ele><time>2026-04-18T10:26:34.001Z</time></trkpt><trkpt lat="37.50878814518939" lon="13.126897273974503"><ele>83.0</ele><time>2026-04-18T10:26:35.001Z</time></trkpt><trkpt lat="37.50881151056361" lon="13.12667992388172"><ele>83.66666666666667</ele><time>2026-04-18T10:26:36.001Z</time></trkpt><trkpt lat="37.50883585156901" lon="13.126475271514797"><ele>84.33333333333333</ele><time>2026-04-18T10:26:37.001Z</time></trkpt><trkpt lat="37.5088566689183" lon="13.126267618632976"><ele>85.0</ele><time>2026-04-18T10:26:38.001Z</time></trkpt><trkpt lat="37.50887938640117" lon="13.126064631432257"><ele>85.0</ele><time>2026-04-18T10:26:39.001Z</time></trkpt><trkpt lat="37.508895528904716" lon="13.125867063547595"><ele>85.0</ele><time>2026-04-18T10:26:40.001Z</time></trkpt><trkpt lat="37.508910766939856" lon="13.12568213870803"><ele>85.0</ele><time>2026-04-18T10:26:41.001Z</time></trkpt><trkpt lat="37.508925886311665" lon="13.1254932175224"><ele>84.66666666666666</ele><time>2026-04-18T10:26:42.001Z</time></trkpt><trkpt lat="37.50893633431185" lon="13.125290329984196"><ele>84.33333333333333</ele><time>2026-04-18T10:26:43.001Z</time></trkpt><trkpt lat="37.50894617301466" lon="13.125076167302614"><ele>84.0</ele><time>2026-04-18T10:26:44.001Z</time></trkpt><trkpt lat="37.50895056451063" lon="13.124857197928216"><ele>83.66666666666667</ele><time>2026-04-18T10:26:45.001Z</time></trkpt><trkpt lat="37.50895346189021" lon="13.124653861287184"><ele>83.33333333333334</ele><time>2026-04-18T10:26:46.001Z</time></trkpt><trkpt lat="37.50895735522202" lon="13.12445785986729"><ele>83.0</ele><time>2026-04-18T10:26:47.001Z</time></trkpt><trkpt lat="37.50896045420511" lon="13.124259307952324"><ele>83.0</ele><time>2026-04-18T10:26:48.001Z</time></trkpt><trkpt lat="37.508958608909936" lon="13.124060242195613"><ele>83.0</ele><time>2026-04-18T10:26:49.001Z</time></trkpt><trkpt lat="37.508957903824864" lon="13.123861773820323"><ele>83.0</ele><time>2026-04-18T10:26:50.001Z</time></trkpt><trkpt lat="37.50895598862239" lon="13.123656942275582"><ele>83.0</ele><time>2026-04-18T10:26:51.001Z</time></trkpt><trkpt lat="37.508949779364535" lon="13.123443835970019"><ele>83.0</ele><time>2026-04-18T10:26:52.001Z</time></trkpt><trkpt lat="37.50894279700114" lon="13.123221277637413"><ele>83.0</ele><time>2026-04-18T10:26:53.001Z</time></trkpt><trkpt lat="37.508934904858414" lon="13.122990584200423"><ele>82.66666666666667</ele><time>2026-04-18T10:26:54.001Z</time></trkpt><trkpt lat="37.5089279127564" lon="13.12276119716904"><ele>82.33333333333333</ele><time>2026-04-18T10:26:55.001Z</time></trkpt><trkpt lat="37.508920401769025" lon="13.122529901044073"><ele>82.0</ele><time>2026-04-18T10:26:56.001Z</time></trkpt><trkpt lat="37.50891183698719" lon="13.122300225059213"><ele>81.66666666666666</ele><time>2026-04-18T10:26:57.001Z</time></trkpt><trkpt lat="37.50890457790285" lon="13.12207354122867"><ele>81.33333333333333</ele><time>2026-04-18T10:26:58.001Z</time></trkpt><trkpt lat="37.50889652273283" lon="13.121844796367029"><ele>81.0</ele><time>2026-04-18T10:26:59.001Z</time></trkpt><trkpt lat="37.508887716296776" lon="13.121609133721218"><ele>81.0</ele><time>2026-04-18T10:27:00.001Z</time></trkpt><trkpt lat="37.50887947312866" lon="13.121357805196512"><ele>81.0</ele><time>2026-04-18T10:27:01.001Z</time></trkpt><trkpt lat="37.508867843490705" lon="13.12109897557976"><ele>81.0</ele><time>2026-04-18T10:27:02.001Z</time></trkpt><trkpt lat="37.508860218364624" lon="13.120840440513435"><ele>80.33333333333333</ele><time>2026-04-18T10:27:03.001Z</time></trkpt><trkpt lat="37.50885205204525" lon="13.12058668877469"><ele>79.66666666666666</ele><time>2026-04-18T10:27:04.001Z</time></trkpt><trkpt lat="37.5088406223611" lon="13.120338041885697"><ele>79.0</ele><time>2026-04-18T10:27:05.001Z</time></trkpt><trkpt lat="37.508825669114145" lon="13.120095896946117"><ele>78.66666666666666</ele><time>2026-04-18T10:27:06.001Z</time></trkpt><trkpt lat="37.508806187323465" lon="13.119850121453151"><ele>78.33333333333333</ele><time>2026-04-18T10:27:07.001Z</time></trkpt><trkpt lat="37.508783406112954" lon="13.11960024416125"><ele>78.0</ele><time>2026-04-18T10:27:08.001Z</time></trkpt><trkpt lat="37.50875771116103" lon="13.119348867908867"><ele>76.66666666666667</ele><time>2026-04-18T10:27:09.001Z</time></trkpt><trkpt lat="37.50872653926741" lon="13.119103233020708"><ele>75.33333333333334</ele><time>2026-04-18T10:27:10Z</time></trkpt><trkpt lat="37.508693201473605" lon="13.118861269639742"><ele>74.0</ele><time>2026-04-18T10:27:11Z</time></trkpt><trkpt lat="37.508651753051815" lon="13.11861650147283"><ele>74.0</ele><time>2026-04-18T10:27:12Z</time></trkpt><trkpt lat="37.50860193038438" lon="13.118374953026802"><ele>74.0</ele><time>2026-04-18T10:27:13Z</time></trkpt><trkpt lat="37.50854385304745" lon="13.11813469917873"><ele>74.0</ele><time>2026-04-18T10:27:14Z</time></trkpt><trkpt lat="37.50848453825875" lon="13.117897837253702"><ele>74.0</ele><time>2026-04-18T10:27:15Z</time></trkpt><trkpt lat="37.50842344678476" lon="13.117660217905089"><ele>74.0</ele><time>2026-04-18T10:27:16Z</time></trkpt><trkpt lat="37.50835925460518" lon="13.117425247048986"><ele>74.0</ele><time>2026-04-18T10:27:17Z</time></trkpt><trkpt lat="37.50828766892704" lon="13.117188764099128"><ele>74.33333333333334</ele><time>2026-04-18T10:27:18Z</time></trkpt><trkpt lat="37.50820862876994" lon="13.116946522226923"><ele>74.66666666666667</ele><time>2026-04-18T10:27:19Z</time></trkpt><trkpt lat="37.50812388369647" lon="13.116698365050997"><ele>75.0</ele><time>2026-04-18T10:27:20Z</time></trkpt><trkpt lat="37.50804056074231" lon="13.11644634612054"><ele>74.0</ele><time>2026-04-18T10:27:21Z</time></trkpt><trkpt lat="37.50795897157134" lon="13.116207216872146"><ele>73.0</ele><time>2026-04-18T10:27:22Z</time></trkpt><trkpt lat="37.50787803347448" lon="13.115973188521169"><ele>72.0</ele><time>2026-04-18T10:27:23Z</time></trkpt><trkpt lat="37.50779476185097" lon="13.115733993782687"><ele>70.0</ele><time>2026-04-18T10:27:24Z</time></trkpt><trkpt lat="37.50771135216948" lon="13.11549399345859"><ele>68.0</ele><time>2026-04-18T10:27:25Z</time></trkpt><trkpt lat="37.50762428231613" lon="13.115252041382314"><ele>66.0</ele><time>2026-04-18T10:27:26Z</time></trkpt><trkpt lat="37.50754103032131" lon="13.11501765286143"><ele>66.66666666666667</ele><time>2026-04-18T10:27:27Z</time></trkpt><trkpt lat="37.507461372560456" lon="13.114790777895358"><ele>67.33333333333334</ele><time>2026-04-18T10:27:28Z</time></trkpt><trkpt lat="37.507385360365056" lon="13.114573580839938"><ele>68.0</ele><time>2026-04-18T10:27:29Z</time></trkpt><trkpt lat="37.50730924242574" lon="13.114354605329183"><ele>68.0</ele><time>2026-04-18T10:27:30Z</time></trkpt><trkpt lat="37.507233618451885" lon="13.114134366912287"><ele>68.0</ele><time>2026-04-18T10:27:31Z</time></trkpt><trkpt lat="37.507157881729796" lon="13.113912089835141"><ele>68.0</ele><time>2026-04-18T10:27:32Z</time></trkpt><trkpt lat="37.507083893146145" lon="13.113712034165887"><ele>66.33333333333334</ele><time>2026-04-18T10:27:33Z</time></trkpt><trkpt lat="37.50702286183684" lon="13.1135193177929"><ele>64.66666666666667</ele><time>2026-04-18T10:27:34Z</time></trkpt><trkpt lat="37.50695527439746" lon="13.113332090974827"><ele>63.0</ele><time>2026-04-18T10:27:35Z</time></trkpt><trkpt lat="37.50689918333764" lon="13.113163183515553"><ele>62.75</ele><time>2026-04-18T10:27:36Z</time></trkpt><trkpt lat="37.50684108676844" lon="13.11300232499383"><ele>62.5</ele><time>2026-04-18T10:27:37Z</time></trkpt><trkpt lat="37.50678350751388" lon="13.112840583587655"><ele>62.25</ele><time>2026-04-18T10:27:38Z</time></trkpt><trkpt lat="37.50672471978015" lon="13.11267869362322"><ele>62.0</ele><time>2026-04-18T10:27:39Z</time></trkpt><trkpt lat="37.5066693125133" lon="13.112511968653815"><ele>61.75</ele><time>2026-04-18T10:27:40Z</time></trkpt><trkpt lat="37.506624273285304" lon="13.11233734310182"><ele>61.5</ele><time>2026-04-18T10:27:41Z</time></trkpt><trkpt lat="37.50658318644301" lon="13.11215803056727"><ele>61.25</ele><time>2026-04-18T10:27:42Z</time></trkpt><trkpt lat="37.50654539095348" lon="13.111968761035044"><ele>61.0</ele><time>2026-04-18T10:27:43Z</time></trkpt><trkpt lat="37.50642534685924" lon="13.111768794116903"><ele>61.0</ele><time>2026-04-18T10:27:44Z</time></trkpt><trkpt lat="37.50634637714821" lon="13.111570776980546"><ele>61.0</ele><time>2026-04-18T10:27:45Z</time></trkpt><trkpt lat="37.50626908210277" lon="13.111367695720697"><ele>61.0</ele><time>2026-04-18T10:27:46Z</time></trkpt><trkpt lat="37.50619700610886" lon="13.111169763564146"><ele>60.33333333333333</ele><time>2026-04-18T10:27:47Z</time></trkpt><trkpt lat="37.506121210697515" lon="13.110965252893806"><ele>59.66666666666667</ele><time>2026-04-18T10:27:48Z</time></trkpt><trkpt lat="37.50604859676203" lon="13.110763193614622"><ele>59.0</ele><time>2026-04-18T10:27:49Z</time></trkpt><trkpt lat="37.50597879579844" lon="13.110555316762813"><ele>59.0</ele><time>2026-04-18T10:27:50Z</time></trkpt><trkpt lat="37.50590787032495" lon="13.110351305551527"><ele>59.0</ele><time>2026-04-18T10:27:51Z</time></trkpt><trkpt lat="37.50583380909719" lon="13.110148718592168"><ele>59.0</ele><time>2026-04-18T10:27:52Z</time></trkpt><trkpt lat="37.50576620984016" lon="13.109945471028787"><ele>59.333333333333336</ele><time>2026-04-18T10:27:53Z</time></trkpt><trkpt lat="37.505697208380134" lon="13.109750653880056"><ele>59.66666666666667</ele><time>2026-04-18T10:27:54Z</time></trkpt><trkpt lat="37.50562632814502" lon="13.1095461027474"><ele>60.0</ele><time>2026-04-18T10:27:55Z</time></trkpt><trkpt lat="37.50555351911594" lon="13.109343151836747"><ele>60.0</ele><time>2026-04-18T10:27:56Z</time></trkpt><trkpt lat="37.50548504982687" lon="13.109145769723952"><ele>60.0</ele><time>2026-04-18T10:27:57Z</time></trkpt><trkpt lat="37.50540963772783" lon="13.108944995319277"><ele>60.0</ele><time>2026-04-18T10:27:58Z</time></trkpt><trkpt lat="37.505343667301574" lon="13.108755936248425"><ele>58.66666666666667</ele><time>2026-04-18T10:27:59Z</time></trkpt><trkpt lat="37.50527949983486" lon="13.108573566468916"><ele>57.333333333333336</ele><time>2026-04-18T10:28:00Z</time></trkpt><trkpt lat="37.505213156663785" lon="13.10838877429015"><ele>56.0</ele><time>2026-04-18T10:28:01Z</time></trkpt><trkpt lat="37.505154422288555" lon="13.108204263508437"><ele>56.0</ele><time>2026-04-18T10:28:02Z</time></trkpt><trkpt lat="37.50509490958918" lon="13.108008969057597"><ele>56.0</ele><time>2026-04-18T10:28:03Z</time></trkpt><trkpt lat="37.505034018619476" lon="13.107822418666576"><ele>56.0</ele><time>2026-04-18T10:28:04Z</time></trkpt><trkpt lat="37.50498065327524" lon="13.107617626592395"><ele>56.0</ele><time>2026-04-18T10:28:05Z</time></trkpt><trkpt lat="37.504932967979066" lon="13.107412370948667"><ele>56.0</ele><time>2026-04-18T10:28:06Z</time></trkpt><trkpt lat="37.50488603734251" lon="13.107197147589995"><ele>56.0</ele><time>2026-04-18T10:28:07Z</time></trkpt><trkpt lat="37.50483519976058" lon="13.106977829771294"><ele>56.0</ele><time>2026-04-18T10:28:08Z</time></trkpt><trkpt lat="37.504801002804726" lon="13.106753033290168"><ele>56.0</ele><time>2026-04-18T10:28:09Z</time></trkpt><trkpt lat="37.5047750455108" lon="13.106530609230218"><ele>56.0</ele><time>2026-04-18T10:28:10Z</time></trkpt><trkpt lat="37.504754153492016" lon="13.106300826778995"><ele>56.0</ele><time>2026-04-18T10:28:11Z</time></trkpt><trkpt lat="37.504741151622675" lon="13.106059811333626"><ele>56.0</ele><time>2026-04-18T10:28:12Z</time></trkpt><trkpt lat="37.504732213920974" lon="13.105804025955411"><ele>56.0</ele><time>2026-04-18T10:28:13Z</time></trkpt><trkpt lat="37.50473173279191" lon="13.105547205729748"><ele>55.333333333333336</ele><time>2026-04-18T10:28:14Z</time></trkpt><trkpt lat="37.50473719961663" lon="13.10529763005339"><ele>54.66666666666667</ele><time>2026-04-18T10:28:15Z</time></trkpt><trkpt lat="37.504747456611746" lon="13.105049071214184"><ele>54.0</ele><time>2026-04-18T10:28:16Z</time></trkpt><trkpt lat="37.5047626877101" lon="13.104795479869859"><ele>53.66666666666667</ele><time>2026-04-18T10:28:17Z</time></trkpt><trkpt lat="37.50478549742205" lon="13.10453246534777"><ele>53.333333333333336</ele><time>2026-04-18T10:28:18Z</time></trkpt><trkpt lat="37.504808206997616" lon="13.104270346206816"><ele>53.0</ele><time>2026-04-18T10:28:19Z</time></trkpt><trkpt lat="37.50483667291636" lon="13.103994666688973"><ele>52.333333333333336</ele><time>2026-04-18T10:28:20Z</time></trkpt><trkpt lat="37.50486805196823" lon="13.10371703176283"><ele>51.66666666666667</ele><time>2026-04-18T10:28:21Z</time></trkpt><trkpt lat="37.504899419244545" lon="13.103461996418833"><ele>51.0</ele><time>2026-04-18T10:28:22Z</time></trkpt><trkpt lat="37.504929807115346" lon="13.103216709513292"><ele>51.0</ele><time>2026-04-18T10:28:23Z</time></trkpt><trkpt lat="37.50496150495604" lon="13.102975470697123"><ele>51.0</ele><time>2026-04-18T10:28:24Z</time></trkpt><trkpt lat="37.50499635601163" lon="13.102731880447378"><ele>51.0</ele><time>2026-04-18T10:28:25Z</time></trkpt><trkpt lat="37.5050290218421" lon="13.102492026464127"><ele>50.66666666666667</ele><time>2026-04-18T10:28:26Z</time></trkpt><trkpt lat="37.50506790186172" lon="13.102253152200376"><ele>50.333333333333336</ele><time>2026-04-18T10:28:27Z</time></trkpt><trkpt lat="37.50511522029438" lon="13.10201739659588"><ele>50.0</ele><time>2026-04-18T10:28:28Z</time></trkpt><trkpt lat="37.505170240543514" lon="13.101800979780677"><ele>50.0</ele><time>2026-04-18T10:28:29Z</time></trkpt><trkpt lat="37.505237450074716" lon="13.10159365220457"><ele>50.0</ele><time>2026-04-18T10:28:30Z</time></trkpt><trkpt lat="37.50531840897091" lon="13.101388408517733"><ele>50.0</ele><time>2026-04-18T10:28:31Z</time></trkpt><trkpt lat="37.505411908488036" lon="13.101189798084695"><ele>51.333333333333336</ele><time>2026-04-18T10:28:32Z</time></trkpt><trkpt lat="37.505518222672215" lon="13.101000916324981"><ele>52.66666666666667</ele><time>2026-04-18T10:28:33Z</time></trkpt><trkpt lat="37.505625012273285" lon="13.10082920491256"><ele>54.0</ele><time>2026-04-18T10:28:34.001Z</time></trkpt><trkpt lat="37.50574771186833" lon="13.10066473873416"><ele>54.0</ele><time>2026-04-18T10:28:35.001Z</time></trkpt><trkpt lat="37.50587516829674" lon="13.100511875032385"><ele>54.0</ele><time>2026-04-18T10:28:36.001Z</time></trkpt><trkpt lat="37.50600793565928" lon="13.100367894915236"><ele>54.0</ele><time>2026-04-18T10:28:37.001Z</time></trkpt><trkpt lat="37.50613872197499" lon="13.100233394641782"><ele>54.66666666666667</ele><time>2026-04-18T10:28:38.001Z</time></trkpt><trkpt lat="37.50625722837341" lon="13.100112622691283"><ele>55.333333333333336</ele><time>2026-04-18T10:28:39.001Z</time></trkpt><trkpt lat="37.50640074109461" lon="13.099987977368956"><ele>56.0</ele><time>2026-04-18T10:28:40.001Z</time></trkpt><trkpt lat="37.50653727832067" lon="13.099859121833756"><ele>56.0</ele><time>2026-04-18T10:28:41.001Z</time></trkpt><trkpt lat="37.50667578297579" lon="13.09973517041363"><ele>56.0</ele><time>2026-04-18T10:28:42.001Z</time></trkpt><trkpt lat="37.506811794414254" lon="13.0996001980921"><ele>56.0</ele><time>2026-04-18T10:28:43.001Z</time></trkpt><trkpt lat="37.50695243333173" lon="13.099466499135557"><ele>56.333333333333336</ele><time>2026-04-18T10:28:44.001Z</time></trkpt><trkpt lat="37.50709553529785" lon="13.0993311543794"><ele>56.66666666666667</ele><time>2026-04-18T10:28:45.001Z</time></trkpt><trkpt lat="37.507248160365315" lon="13.099194534244862"><ele>57.0</ele><time>2026-04-18T10:28:46.001Z</time></trkpt><trkpt lat="37.50740375207945" lon="13.099057607389478"><ele>57.0</ele><time>2026-04-18T10:28:47.001Z</time></trkpt><trkpt lat="37.507559367846184" lon="13.098918484957876"><ele>57.0</ele><time>2026-04-18T10:28:48.001Z</time></trkpt><trkpt lat="37.507724209748616" lon="13.09877344645447"><ele>57.0</ele><time>2026-04-18T10:28:49.001Z</time></trkpt><trkpt lat="37.50789328018946" lon="13.098622240173283"><ele>58.66666666666667</ele><time>2026-04-18T10:28:50.001Z</time></trkpt><trkpt lat="37.50806535242099" lon="13.098464004591175"><ele>60.333333333333336</ele><time>2026-04-18T10:28:51.001Z</time></trkpt><trkpt lat="37.5082454307519" lon="13.098303256168501"><ele>62.0</ele><time>2026-04-18T10:28:52.001Z</time></trkpt><trkpt lat="37.508422257771265" lon="13.09814014800973"><ele>62.0</ele><time>2026-04-18T10:28:53.001Z</time></trkpt><trkpt lat="37.50859938038249" lon="13.097975949402487"><ele>62.0</ele><time>2026-04-18T10:28:54.001Z</time></trkpt><trkpt lat="37.50877651864341" lon="13.097815747009527"><ele>62.0</ele><time>2026-04-18T10:28:55.001Z</time></trkpt><trkpt lat="37.50896259887907" lon="13.097657500644628"><ele>62.333333333333336</ele><time>2026-04-18T10:28:56.001Z</time></trkpt><trkpt lat="37.50914174578644" lon="13.097500761490213"><ele>62.66666666666667</ele><time>2026-04-18T10:28:57.001Z</time></trkpt><trkpt lat="37.5093244744288" lon="13.097347702582624"><ele>63.0</ele><time>2026-04-18T10:28:58.001Z</time></trkpt><trkpt lat="37.50948901489602" lon="13.097177980268286"><ele>64.33333333333333</ele><time>2026-04-18T10:28:59.001Z</time></trkpt><trkpt lat="37.50966932776796" lon="13.097021191925107"><ele>65.66666666666666</ele><time>2026-04-18T10:29:00.001Z</time></trkpt><trkpt lat="37.50985490979198" lon="13.096858048682753"><ele>67.0</ele><time>2026-04-18T10:29:01.001Z</time></trkpt><trkpt lat="37.510050883806116" lon="13.096672602529475"><ele>65.0</ele><time>2026-04-18T10:29:02.001Z</time></trkpt><trkpt lat="37.51025560998784" lon="13.096473122596388"><ele>63.0</ele><time>2026-04-18T10:29:03.001Z</time></trkpt><trkpt lat="37.510476378490786" lon="13.096267398482627"><ele>59.5</ele><time>2026-04-18T10:29:04.001Z</time></trkpt><trkpt lat="37.510709903517515" lon="13.096061038804757"><ele>56.0</ele><time>2026-04-18T10:29:05.001Z</time></trkpt><trkpt lat="37.510941007304424" lon="13.095867760385556"><ele>56.5</ele><time>2026-04-18T10:29:06.001Z</time></trkpt><trkpt lat="37.51117883900691" lon="13.095654793272534"><ele>57.0</ele><time>2026-04-18T10:29:07Z</time></trkpt><trkpt lat="37.511420681747694" lon="13.095448599417427"><ele>57.0</ele><time>2026-04-18T10:29:08Z</time></trkpt><trkpt lat="37.511661889898235" lon="13.09523342898814"><ele>57.0</ele><time>2026-04-18T10:29:09Z</time></trkpt><trkpt lat="37.511892745714654" lon="13.095030954446727"><ele>56.0</ele><time>2026-04-18T10:29:10Z</time></trkpt><trkpt lat="37.51211416714965" lon="13.094833682157022"><ele>55.0</ele><time>2026-04-18T10:29:11Z</time></trkpt><trkpt lat="37.51234144399514" lon="13.094632515667696"><ele>55.0</ele><time>2026-04-18T10:29:12Z</time></trkpt><trkpt lat="37.51256895359131" lon="13.094428879534373"><ele>55.0</ele><time>2026-04-18T10:29:13Z</time></trkpt><trkpt lat="37.512788941493476" lon="13.0942251877372"><ele>52.5</ele><time>2026-04-18T10:29:14Z</time></trkpt><trkpt lat="37.51300144941139" lon="13.09402945482381"><ele>50.0</ele><time>2026-04-18T10:29:15Z</time></trkpt><trkpt lat="37.513199238720425" lon="13.093859612280616"><ele>50.0</ele><time>2026-04-18T10:29:16Z</time></trkpt><trkpt lat="37.51339121690237" lon="13.093692298651657"><ele>50.0</ele><time>2026-04-18T10:29:17Z</time></trkpt><trkpt lat="37.51356914952355" lon="13.093532844167896"><ele>50.0</ele><time>2026-04-18T10:29:18Z</time></trkpt><trkpt lat="37.51373242018415" lon="13.093385182488875"><ele>50.0</ele><time>2026-04-18T10:29:19Z</time></trkpt><trkpt lat="37.51389145365287" lon="13.093235850167734"><ele>50.0</ele><time>2026-04-18T10:29:20Z</time></trkpt><trkpt lat="37.51403889483476" lon="13.093082120670179"><ele>54.0</ele><time>2026-04-18T10:29:21Z</time></trkpt><trkpt lat="37.51416615292803" lon="13.09292885090163"><ele>58.0</ele><time>2026-04-18T10:29:22Z</time></trkpt><trkpt lat="37.51428518298092" lon="13.092772650420095"><ele>62.0</ele><time>2026-04-18T10:29:23Z</time></trkpt><trkpt lat="37.514391923412056" lon="13.092620172494902"><ele>62.0</ele><time>2026-04-18T10:29:24Z</time></trkpt><trkpt lat="37.51449257012067" lon="13.092459465708545"><ele>62.0</ele><time>2026-04-18T10:29:25Z</time></trkpt><trkpt lat="37.514592349001255" lon="13.09227024461501"><ele>62.0</ele><time>2026-04-18T10:29:26Z</time></trkpt><trkpt lat="37.51469072806464" lon="13.092045967883479"><ele>64.0</ele><time>2026-04-18T10:29:27Z</time></trkpt><trkpt lat="37.51480952372673" lon="13.091791413337273"><ele>66.0</ele><time>2026-04-18T10:29:28Z</time></trkpt><trkpt lat="37.514940550877874" lon="13.091543817455417"><ele>66.0</ele><time>2026-04-18T10:29:29Z</time></trkpt><trkpt lat="37.51507630783701" lon="13.091278781885183"><ele>66.0</ele><time>2026-04-18T10:29:30Z</time></trkpt><trkpt lat="37.51520483563088" lon="13.09101751048973"><ele>68.5</ele><time>2026-04-18T10:29:31Z</time></trkpt><trkpt lat="37.51533066288289" lon="13.090749802191159"><ele>71.0</ele><time>2026-04-18T10:29:32Z</time></trkpt><trkpt lat="37.51545452502106" lon="13.09048378430907"><ele>76.5</ele><time>2026-04-18T10:29:33Z</time></trkpt><trkpt lat="37.515575319713136" lon="13.090225236249614"><ele>82.0</ele><time>2026-04-18T10:29:34Z</time></trkpt><trkpt lat="37.51569400460254" lon="13.08997119587018"><ele>84.0</ele><time>2026-04-18T10:29:35Z</time></trkpt><trkpt lat="37.51581005187817" lon="13.089716130437631"><ele>86.0</ele><time>2026-04-18T10:29:36Z</time></trkpt><trkpt lat="37.51592895267484" lon="13.089460403946179"><ele>86.0</ele><time>2026-04-18T10:29:37Z</time></trkpt><trkpt lat="37.51604454018318" lon="13.089211969615087"><ele>86.0</ele><time>2026-04-18T10:29:38Z</time></trkpt><trkpt lat="37.516160409185346" lon="13.088964919639535"><ele>90.66666666666667</ele><time>2026-04-18T10:29:39Z</time></trkpt><trkpt lat="37.516276009377144" lon="13.088719112176818"><ele>95.33333333333334</ele><time>2026-04-18T10:29:40Z</time></trkpt><trkpt lat="37.51638715076764" lon="13.088480752125959"><ele>100.0</ele><time>2026-04-18T10:29:41Z</time></trkpt><trkpt lat="37.51649677230522" lon="13.088249425882378"><ele>100.0</ele><time>2026-04-18T10:29:42Z</time></trkpt><trkpt lat="37.516600150582235" lon="13.088029547442394"><ele>100.0</ele><time>2026-04-18T10:29:43Z</time></trkpt><trkpt lat="37.51670509812491" lon="13.087818751579507"><ele>100.0</ele><time>2026-04-18T10:29:44Z</time></trkpt><trkpt lat="37.51680979578902" lon="13.087607507717266"><ele>98.0</ele><time>2026-04-18T10:29:45.016Z</time></trkpt><trkpt lat="37.51691241329679" lon="13.087399480130241"><ele>96.0</ele><time>2026-04-18T10:29:46.017Z</time></trkpt><trkpt lat="37.51701099843445" lon="13.087201068425745"><ele>94.0</ele><time>2026-04-18T10:29:47Z</time></trkpt><trkpt lat="37.517108075692825" lon="13.086997903775146"><ele>96.33333333333333</ele><time>2026-04-18T10:29:48Z</time></trkpt><trkpt lat="37.51719520803367" lon="13.086719722947073"><ele>98.66666666666666</ele><time>2026-04-18T10:29:49Z</time></trkpt><trkpt lat="37.51728723125106" lon="13.086491247449418"><ele>101.0</ele><time>2026-04-18T10:29:50Z</time></trkpt><trkpt lat="37.517371699809345" lon="13.086289637419082"><ele>101.0</ele><time>2026-04-18T10:29:51Z</time></trkpt><trkpt lat="37.51744799613211" lon="13.086095649262056"><ele>101.0</ele><time>2026-04-18T10:29:52Z</time></trkpt><trkpt lat="37.517519329145586" lon="13.085906618441431"><ele>101.0</ele><time>2026-04-18T10:29:53Z</time></trkpt><trkpt lat="37.517583806107574" lon="13.08573448082654"><ele>101.0</ele><time>2026-04-18T10:29:54Z</time></trkpt><trkpt lat="37.51764452628642" lon="13.085574371507406"><ele>101.0</ele><time>2026-04-18T10:29:55Z</time></trkpt><trkpt lat="37.517701663669754" lon="13.085421610540244"><ele>101.0</ele><time>2026-04-18T10:29:56Z</time></trkpt><trkpt lat="37.51775808436566" lon="13.085286167722186"><ele>101.0</ele><time>2026-04-18T10:29:57Z</time></trkpt><trkpt lat="37.51781032053689" lon="13.085156190884023"><ele>101.0</ele><time>2026-04-18T10:29:58Z</time></trkpt><trkpt lat="37.5178646553601" lon="13.08501994834164"><ele>101.0</ele><time>2026-04-18T10:29:59Z</time></trkpt><trkpt lat="37.5179139945566" lon="13.08488948379453"><ele>101.0</ele><time>2026-04-18T10:30:00Z</time></trkpt><trkpt lat="37.51796218417809" lon="13.08476197111888"><ele>101.0</ele><time>2026-04-18T10:30:01Z</time></trkpt><trkpt lat="37.51801038482576" lon="13.084636870059564"><ele>102.0</ele><time>2026-04-18T10:30:02Z</time></trkpt><trkpt lat="37.51805431328116" lon="13.08451643657408"><ele>103.0</ele><time>2026-04-18T10:30:03Z</time></trkpt><trkpt lat="37.518098733149756" lon="13.084394125576237"><ele>104.0</ele><time>2026-04-18T10:30:04Z</time></trkpt><trkpt lat="37.51813774320325" lon="13.08427698385553"><ele>105.0</ele><time>2026-04-18T10:30:05Z</time></trkpt><trkpt lat="37.51816959007041" lon="13.084167434582534"><ele>106.0</ele><time>2026-04-18T10:30:06Z</time></trkpt><trkpt lat="37.51820107105615" lon="13.084049968225283"><ele>107.25</ele><time>2026-04-18T10:30:07Z</time></trkpt><trkpt lat="37.51822396280453" lon="13.083919030162555"><ele>108.5</ele><time>2026-04-18T10:30:08Z</time></trkpt><trkpt lat="37.5182377956331" lon="13.083776025304182"><ele>109.75</ele><time>2026-04-18T10:30:09Z</time></trkpt><trkpt lat="37.518245085881574" lon="13.083620928840363"><ele>111.0</ele><time>2026-04-18T10:30:10Z</time></trkpt><trkpt lat="37.5182457825498" lon="13.083457490440473"><ele>111.0</ele><time>2026-04-18T10:30:11Z</time></trkpt><trkpt lat="37.51824025957294" lon="13.083286180822189"><ele>111.0</ele><time>2026-04-18T10:30:12Z</time></trkpt><trkpt lat="37.51822880361841" lon="13.083124843180434"><ele>111.0</ele><time>2026-04-18T10:30:13Z</time></trkpt><trkpt lat="37.51821046513779" lon="13.082976380729042"><ele>111.0</ele><time>2026-04-18T10:30:14Z</time></trkpt><trkpt lat="37.51817442918823" lon="13.082830459359666"><ele>110.33333333333334</ele><time>2026-04-18T10:30:15Z</time></trkpt><trkpt lat="37.5181301566659" lon="13.082681668799678"><ele>109.66666666666667</ele><time>2026-04-18T10:30:16.012Z</time></trkpt><trkpt lat="37.51806857617804" lon="13.082521642852354"><ele>109.0</ele><time>2026-04-18T10:30:17.015Z</time></trkpt><trkpt lat="37.518756757525274" lon="13.08109740727868"><ele>106.0</ele><time>2026-04-18T10:30:32Z</time></trkpt><trkpt lat="37.51876083645359" lon="13.080958369615896"><ele>103.0</ele><time>2026-04-18T10:30:33Z</time></trkpt><trkpt lat="37.518752240234704" lon="13.080808163809243"><ele>100.0</ele><time>2026-04-18T10:30:34Z</time></trkpt><trkpt lat="37.51875416903238" lon="13.080667548256377"><ele>97.0</ele><time>2026-04-18T10:30:35Z</time></trkpt><trkpt lat="37.5187631971299" lon="13.080511371041101"><ele>95.19999999999999</ele><time>2026-04-18T10:30:36Z</time></trkpt><trkpt lat="37.518766650319684" lon="13.080358282159256"><ele>93.4</ele><time>2026-04-18T10:30:37Z</time></trkpt><trkpt lat="37.51877283915383" lon="13.080226420384177"><ele>91.6</ele><time>2026-04-18T10:30:38Z</time></trkpt><trkpt lat="37.51877813967668" lon="13.080106154882422"><ele>89.80000000000001</ele><time>2026-04-18T10:30:39Z</time></trkpt><trkpt lat="37.518787264966676" lon="13.079990972100836"><ele>88.0</ele><time>2026-04-18T10:30:40.001Z</time></trkpt><trkpt lat="37.518795709673775" lon="13.079879955170028"><ele>86.60000000000001</ele><time>2026-04-18T10:30:41.001Z</time></trkpt><trkpt lat="37.51879621254066" lon="13.079777314934265"><ele>85.2</ele><time>2026-04-18T10:30:42.001Z</time></trkpt><trkpt lat="37.51880568274491" lon="13.079657729534308"><ele>83.8</ele><time>2026-04-18T10:30:43.001Z</time></trkpt><trkpt lat="37.51880919466992" lon="13.079539111305355"><ele>82.4</ele><time>2026-04-18T10:30:44.001Z</time></trkpt><trkpt lat="37.518808200414" lon="13.079415918414226"><ele>81.0</ele><time>2026-04-18T10:30:45.001Z</time></trkpt><trkpt lat="37.51881387450996" lon="13.079277871560855"><ele>81.0</ele><time>2026-04-18T10:30:46.001Z</time></trkpt><trkpt lat="37.51881982223293" lon="13.079142956168404"><ele>81.0</ele><time>2026-04-18T10:30:47.001Z</time></trkpt><trkpt lat="37.51882252287805" lon="13.079018483496661"><ele>81.0</ele><time>2026-04-18T10:30:48.001Z</time></trkpt><trkpt lat="37.51882130275835" lon="13.078904729470699"><ele>81.0</ele><time>2026-04-18T10:30:49.001Z</time></trkpt><trkpt lat="37.518821365869236" lon="13.078783528388497"><ele>81.0</ele><time>2026-04-18T10:30:50.001Z</time></trkpt><trkpt lat="37.51882448451152" lon="13.078662615559798"><ele>80.8</ele><time>2026-04-18T10:30:51Z</time></trkpt><trkpt lat="37.5188302896417" lon="13.078536396470096"><ele>80.6</ele><time>2026-04-18T10:30:52Z</time></trkpt><trkpt lat="37.51883547258391" lon="13.078413419313078"><ele>80.4</ele><time>2026-04-18T10:30:53Z</time></trkpt><trkpt lat="37.518843909213956" lon="13.078295928298637"><ele>80.2</ele><time>2026-04-18T10:30:54Z</time></trkpt><trkpt lat="37.518846966338465" lon="13.078174334625531"><ele>80.0</ele><time>2026-04-18T10:30:55Z</time></trkpt><trkpt lat="37.51885767855927" lon="13.078048180466991"><ele>79.8</ele><time>2026-04-18T10:30:56Z</time></trkpt><trkpt lat="37.51885538151101" lon="13.077929865549152"><ele>79.6</ele><time>2026-04-18T10:30:57Z</time></trkpt><trkpt lat="37.51885271279687" lon="13.077829153760675"><ele>79.4</ele><time>2026-04-18T10:30:58Z</time></trkpt><trkpt lat="37.518861117334026" lon="13.077713452501746"><ele>79.2</ele><time>2026-04-18T10:30:59Z</time></trkpt><trkpt lat="37.51885917442966" lon="13.077592939251778"><ele>79.0</ele><time>2026-04-18T10:31:00Z</time></trkpt><trkpt lat="37.51887503066964" lon="13.077468687704233"><ele>77.60000000000001</ele><time>2026-04-18T10:31:01Z</time></trkpt><trkpt lat="37.51889484633388" lon="13.077351727062648"><ele>76.2</ele><time>2026-04-18T10:31:02Z</time></trkpt><trkpt lat="37.51893297067493" lon="13.077231849250891"><ele>74.80000000000001</ele><time>2026-04-18T10:31:03Z</time></trkpt><trkpt lat="37.518974910232174" lon="13.077123900741029"><ele>73.4</ele><time>2026-04-18T10:31:04Z</time></trkpt><trkpt lat="37.51903079320065" lon="13.077032746495073"><ele>72.0</ele><time>2026-04-18T10:31:05Z</time></trkpt><trkpt lat="37.519080952705444" lon="13.076943164039383"><ele>72.0</ele><time>2026-04-18T10:31:06Z</time></trkpt><trkpt lat="37.519151348291125" lon="13.076846302068354"><ele>72.0</ele><time>2026-04-18T10:31:07Z</time></trkpt><trkpt lat="37.519232304294114" lon="13.07677229051043"><ele>72.0</ele><time>2026-04-18T10:31:08Z</time></trkpt><trkpt lat="37.519318285587936" lon="13.076689671983992"><ele>72.0</ele><time>2026-04-18T10:31:09Z</time></trkpt><trkpt lat="37.51940524311784" lon="13.076627561006607"><ele>72.0</ele><time>2026-04-18T10:31:10Z</time></trkpt><trkpt lat="37.51951014214968" lon="13.076577014161526"><ele>70.5</ele><time>2026-04-18T10:31:11Z</time></trkpt><trkpt lat="37.51960073079896" lon="13.076542408685954"><ele>69.0</ele><time>2026-04-18T10:31:12Z</time></trkpt><trkpt lat="37.5196860980335" lon="13.0765202615441"><ele>67.5</ele><time>2026-04-18T10:31:13Z</time></trkpt><trkpt lat="37.519805119406314" lon="13.0764615121687"><ele>66.0</ele><time>2026-04-18T10:31:14Z</time></trkpt><trkpt lat="37.51992686455393" lon="13.076372347138959"><ele>66.0</ele><time>2026-04-18T10:31:15Z</time></trkpt><trkpt lat="37.520065443100144" lon="13.076284001423604"><ele>66.0</ele><time>2026-04-18T10:31:16Z</time></trkpt><trkpt lat="37.52020572439486" lon="13.076174554534315"><ele>66.0</ele><time>2026-04-18T10:31:17Z</time></trkpt><trkpt lat="37.52033361894083" lon="13.076068301908752"><ele>65.66666666666667</ele><time>2026-04-18T10:31:18Z</time></trkpt><trkpt lat="37.52046432517658" lon="13.075955195245973"><ele>65.33333333333334</ele><time>2026-04-18T10:31:19Z</time></trkpt><trkpt lat="37.52058579131896" lon="13.075839327038402"><ele>65.0</ele><time>2026-04-18T10:31:20Z</time></trkpt><trkpt lat="37.520705513632386" lon="13.075733362733605"><ele>62.0</ele><time>2026-04-18T10:31:21Z</time></trkpt><trkpt lat="37.5208299353082" lon="13.075622180448462"><ele>59.0</ele><time>2026-04-18T10:31:22Z</time></trkpt><trkpt lat="37.52096268682414" lon="13.075507144738673"><ele>56.0</ele><time>2026-04-18T10:31:23Z</time></trkpt><trkpt lat="37.52109647028909" lon="13.075388654044767"><ele>56.0</ele><time>2026-04-18T10:31:24Z</time></trkpt><trkpt lat="37.52123204804592" lon="13.07526880479896"><ele>56.0</ele><time>2026-04-18T10:31:25Z</time></trkpt><trkpt lat="37.52137181019554" lon="13.075148131811833"><ele>56.0</ele><time>2026-04-18T10:31:26Z</time></trkpt><trkpt lat="37.52151431365676" lon="13.07502363125869"><ele>54.66666666666667</ele><time>2026-04-18T10:31:27Z</time></trkpt><trkpt lat="37.521657312919345" lon="13.074895636569831"><ele>53.33333333333333</ele><time>2026-04-18T10:31:28Z</time></trkpt><trkpt lat="37.521797949799364" lon="13.074765511886293"><ele>52.0</ele><time>2026-04-18T10:31:29Z</time></trkpt><trkpt lat="37.5219434975112" lon="13.074640288484161"><ele>52.666666666666664</ele><time>2026-04-18T10:31:30Z</time></trkpt><trkpt lat="37.52209285135115" lon="13.07451122645646"><ele>53.33333333333333</ele><time>2026-04-18T10:31:31Z</time></trkpt><trkpt lat="37.52224028821927" lon="13.074383809492861"><ele>54.0</ele><time>2026-04-18T10:31:32Z</time></trkpt><trkpt lat="37.52238531543943" lon="13.074251956422794"><ele>54.0</ele><time>2026-04-18T10:31:33Z</time></trkpt><trkpt lat="37.52253169792524" lon="13.074121499770028"><ele>54.0</ele><time>2026-04-18T10:31:34Z</time></trkpt><trkpt lat="37.52267929805628" lon="13.073987608395782"><ele>54.0</ele><time>2026-04-18T10:31:35Z</time></trkpt><trkpt lat="37.52283079491629" lon="13.073858525809287"><ele>56.66666666666667</ele><time>2026-04-18T10:31:36Z</time></trkpt><trkpt lat="37.52298160869089" lon="13.07372579627535"><ele>59.333333333333336</ele><time>2026-04-18T10:31:37Z</time></trkpt><trkpt lat="37.523130881808534" lon="13.073591859693064"><ele>62.0</ele><time>2026-04-18T10:31:38Z</time></trkpt><trkpt lat="37.52328024368063" lon="13.073457516932187"><ele>62.0</ele><time>2026-04-18T10:31:39Z</time></trkpt><trkpt lat="37.523430134916666" lon="13.073321291789496"><ele>62.0</ele><time>2026-04-18T10:31:40Z</time></trkpt><trkpt lat="37.523585241819504" lon="13.073186278816836"><ele>62.0</ele><time>2026-04-18T10:31:41Z</time></trkpt><trkpt lat="37.523740023266996" lon="13.073047072973369"><ele>62.66666666666667</ele><time>2026-04-18T10:31:42Z</time></trkpt><trkpt lat="37.52389420646205" lon="13.07290994969815"><ele>63.33333333333333</ele><time>2026-04-18T10:31:43Z</time></trkpt><trkpt lat="37.52404838359493" lon="13.07277053102122"><ele>64.0</ele><time>2026-04-18T10:31:44Z</time></trkpt><trkpt lat="37.52420227383848" lon="13.072637732774098"><ele>64.0</ele><time>2026-04-18T10:31:45Z</time></trkpt><trkpt lat="37.52436115529643" lon="13.072507312669114"><ele>64.0</ele><time>2026-04-18T10:31:46Z</time></trkpt><trkpt lat="37.52450801577741" lon="13.072363717934019"><ele>64.0</ele><time>2026-04-18T10:31:47Z</time></trkpt><trkpt lat="37.524659245928014" lon="13.072222149827589"><ele>65.0</ele><time>2026-04-18T10:31:48Z</time></trkpt><trkpt lat="37.52480534474067" lon="13.072083662929733"><ele>66.0</ele><time>2026-04-18T10:31:49Z</time></trkpt><trkpt lat="37.524954910428015" lon="13.071958138804511"><ele>67.0</ele><time>2026-04-18T10:31:50Z</time></trkpt><trkpt lat="37.525099208947616" lon="13.071836747285253"><ele>67.0</ele><time>2026-04-18T10:31:51Z</time></trkpt><trkpt lat="37.52524083727007" lon="13.07170935748662"><ele>67.0</ele><time>2026-04-18T10:31:52Z</time></trkpt><trkpt lat="37.525377143956305" lon="13.071587054112385"><ele>67.0</ele><time>2026-04-18T10:31:53Z</time></trkpt><trkpt lat="37.52550844606983" lon="13.07146566645499"><ele>67.0</ele><time>2026-04-18T10:31:54Z</time></trkpt><trkpt lat="37.52562989713087" lon="13.07135545964606"><ele>67.0</ele><time>2026-04-18T10:31:55Z</time></trkpt><trkpt lat="37.525763493355356" lon="13.071258252280431"><ele>67.0</ele><time>2026-04-18T10:31:56Z</time></trkpt><trkpt lat="37.52590486001247" lon="13.071132770735202"><ele>67.0</ele><time>2026-04-18T10:31:57Z</time></trkpt><trkpt lat="37.52605521698836" lon="13.070999881789861"><ele>67.0</ele><time>2026-04-18T10:31:58Z</time></trkpt><trkpt lat="37.52621624287658" lon="13.070857564509838"><ele>67.0</ele><time>2026-04-18T10:31:59Z</time></trkpt><trkpt lat="37.52637855325977" lon="13.070713696908014"><ele>65.0</ele><time>2026-04-18T10:32:00Z</time></trkpt><trkpt lat="37.52654916748378" lon="13.070562459163433"><ele>63.0</ele><time>2026-04-18T10:32:01Z</time></trkpt><trkpt lat="37.52671351744404" lon="13.070392297063494"><ele>61.0</ele><time>2026-04-18T10:32:02Z</time></trkpt><trkpt lat="37.52689311907195" lon="13.070233501520885"><ele>60.666666666666664</ele><time>2026-04-18T10:32:03Z</time></trkpt><trkpt lat="37.52707112474786" lon="13.07007590860534"><ele>60.33333333333333</ele><time>2026-04-18T10:32:04Z</time></trkpt><trkpt lat="37.52725419588882" lon="13.069918404714413"><ele>60.0</ele><time>2026-04-18T10:32:05Z</time></trkpt><trkpt lat="37.527437610554614" lon="13.069764917953272"><ele>60.0</ele><time>2026-04-18T10:32:06Z</time></trkpt><trkpt lat="37.52761698846001" lon="13.069614115555055"><ele>60.0</ele><time>2026-04-18T10:32:07Z</time></trkpt><trkpt lat="37.52779199013071" lon="13.069466580526118"><ele>60.0</ele><time>2026-04-18T10:32:08Z</time></trkpt><trkpt lat="37.52796699455386" lon="13.069308891919702"><ele>59.66666666666667</ele><time>2026-04-18T10:32:09Z</time></trkpt><trkpt lat="37.52814514273762" lon="13.069151135268617"><ele>59.333333333333336</ele><time>2026-04-18T10:32:10Z</time></trkpt><trkpt lat="37.52831894517753" lon="13.068995988369268"><ele>59.0</ele><time>2026-04-18T10:32:11Z</time></trkpt><trkpt lat="37.528488766526586" lon="13.068840183926874"><ele>59.0</ele><time>2026-04-18T10:32:12Z</time></trkpt><trkpt lat="37.52865372335772" lon="13.068681825526395"><ele>59.0</ele><time>2026-04-18T10:32:12.999Z</time></trkpt><trkpt lat="37.528810380560834" lon="13.06851356706073"><ele>59.0</ele><time>2026-04-18T10:32:13.999Z</time></trkpt><trkpt lat="37.52895709979026" lon="13.068327855603837"><ele>57.333333333333336</ele><time>2026-04-18T10:32:14.999Z</time></trkpt><trkpt lat="37.52909048149557" lon="13.068125819429463"><ele>55.66666666666667</ele><time>2026-04-18T10:32:15.999Z</time></trkpt><trkpt lat="37.52921067907129" lon="13.06791000073748"><ele>54.0</ele><time>2026-04-18T10:32:16.999Z</time></trkpt><trkpt lat="37.52931899724925" lon="13.067680637759526"><ele>55.0</ele><time>2026-04-18T10:32:17.999Z</time></trkpt><trkpt lat="37.5294164259188" lon="13.067440069718131"><ele>56.0</ele><time>2026-04-18T10:32:18.999Z</time></trkpt><trkpt lat="37.52950738646729" lon="13.06718202638178"><ele>57.0</ele><time>2026-04-18T10:32:19.999Z</time></trkpt><trkpt lat="37.52959730375537" lon="13.066921305431691"><ele>58.0</ele><time>2026-04-18T10:32:20.999Z</time></trkpt><trkpt lat="37.52968996554688" lon="13.066655155828313"><ele>59.0</ele><time>2026-04-18T10:32:21.999Z</time></trkpt><trkpt lat="37.52978772043955" lon="13.06638129776409"><ele>61.5</ele><time>2026-04-18T10:32:22.999Z</time></trkpt><trkpt lat="37.529885869213395" lon="13.0661035189399"><ele>64.0</ele><time>2026-04-18T10:32:23.999Z</time></trkpt><trkpt lat="37.52998536882653" lon="13.065821041128029"><ele>65.5</ele><time>2026-04-18T10:32:24.999Z</time></trkpt><trkpt lat="37.530083911682745" lon="13.065535640286756"><ele>67.0</ele><time>2026-04-18T10:32:25.999Z</time></trkpt><trkpt lat="37.53018314429968" lon="13.065253973010734"><ele>67.0</ele><time>2026-04-18T10:32:26.999Z</time></trkpt><trkpt lat="37.530279134209835" lon="13.064978861686596"><ele>67.0</ele><time>2026-04-18T10:32:27.999Z</time></trkpt><trkpt lat="37.53037396519358" lon="13.064706752848771"><ele>67.5</ele><time>2026-04-18T10:32:28.999Z</time></trkpt><trkpt lat="37.53046637633966" lon="13.064434717721316"><ele>68.0</ele><time>2026-04-18T10:32:29.999Z</time></trkpt><trkpt lat="37.53056105245262" lon="13.064165216614676"><ele>66.0</ele><time>2026-04-18T10:32:30.999Z</time></trkpt><trkpt lat="37.53065419895727" lon="13.063897744422254"><ele>64.0</ele><time>2026-04-18T10:32:31.999Z</time></trkpt><trkpt lat="37.53074873439102" lon="13.06363147762169"><ele>64.0</ele><time>2026-04-18T10:32:32.999Z</time></trkpt><trkpt lat="37.53084389471018" lon="13.06337072548904"><ele>64.0</ele><time>2026-04-18T10:32:33.999Z</time></trkpt><trkpt lat="37.530941425289114" lon="13.063110740337168"><ele>64.5</ele><time>2026-04-18T10:32:34.999Z</time></trkpt><trkpt lat="37.53103298854356" lon="13.062846164512843"><ele>65.0</ele><time>2026-04-18T10:32:35.999Z</time></trkpt><trkpt lat="37.53112407683921" lon="13.062582900571185"><ele>65.0</ele><time>2026-04-18T10:32:36.999Z</time></trkpt><trkpt lat="37.531216421809816" lon="13.062319621931533"><ele>65.0</ele><time>2026-04-18T10:32:37.999Z</time></trkpt><trkpt lat="37.531309107905265" lon="13.062052037288188"><ele>66.0</ele><time>2026-04-18T10:32:38.999Z</time></trkpt><trkpt lat="37.53140092004676" lon="13.06178486115411"><ele>67.0</ele><time>2026-04-18T10:32:39.999Z</time></trkpt><trkpt lat="37.53149146557283" lon="13.061518484183878"><ele>67.0</ele><time>2026-04-18T10:32:40.999Z</time></trkpt><trkpt lat="37.53158210754298" lon="13.061256195257538"><ele>67.0</ele><time>2026-04-18T10:32:41.999Z</time></trkpt><trkpt lat="37.53167546076987" lon="13.060997406593009"><ele>66.0</ele><time>2026-04-18T10:32:42.999Z</time></trkpt><trkpt lat="37.5317677871153" lon="13.060737261606354"><ele>65.0</ele><time>2026-04-18T10:32:43.999Z</time></trkpt><trkpt lat="37.53186069595369" lon="13.060477238695261"><ele>65.0</ele><time>2026-04-18T10:32:44.999Z</time></trkpt><trkpt lat="37.531951701360704" lon="13.060214164079754"><ele>65.0</ele><time>2026-04-18T10:32:46Z</time></trkpt><trkpt lat="37.532042296824756" lon="13.059958643444206"><ele>65.0</ele><time>2026-04-18T10:32:47Z</time></trkpt><trkpt lat="37.532127040428946" lon="13.059709156984482"><ele>65.0</ele><time>2026-04-18T10:32:48Z</time></trkpt><trkpt lat="37.53221411543411" lon="13.059466018286926"><ele>65.0</ele><time>2026-04-18T10:32:49Z</time></trkpt><trkpt lat="37.532302289776744" lon="13.059220454963144"><ele>63.0</ele><time>2026-04-18T10:32:50Z</time></trkpt><trkpt lat="37.5323909340136" lon="13.05897373859457"><ele>61.0</ele><time>2026-04-18T10:32:51Z</time></trkpt><trkpt lat="37.53247950164524" lon="13.058725324830704"><ele>59.0</ele><time>2026-04-18T10:32:52Z</time></trkpt><trkpt lat="37.532569194670515" lon="13.058474265830068"><ele>57.66666666666667</ele><time>2026-04-18T10:32:53Z</time></trkpt><trkpt lat="37.53265600530369" lon="13.058229471268852"><ele>56.33333333333333</ele><time>2026-04-18T10:32:54Z</time></trkpt><trkpt lat="37.53274331885474" lon="13.05798385083266"><ele>55.0</ele><time>2026-04-18T10:32:55Z</time></trkpt><trkpt lat="37.53283221828219" lon="13.0577417980355"><ele>55.33333333333333</ele><time>2026-04-18T10:32:56Z</time></trkpt><trkpt lat="37.53291993067462" lon="13.057498198741266"><ele>55.66666666666667</ele><time>2026-04-18T10:32:57Z</time></trkpt><trkpt lat="37.53300446659137" lon="13.057252664794099"><ele>56.0</ele><time>2026-04-18T10:32:58Z</time></trkpt><trkpt lat="37.53309110694404" lon="13.057006908608786"><ele>57.333333333333336</ele><time>2026-04-18T10:32:59Z</time></trkpt><trkpt lat="37.53317533792275" lon="13.05676517020523"><ele>58.66666666666667</ele><time>2026-04-18T10:33:00Z</time></trkpt><trkpt lat="37.5332604878509" lon="13.05652454424281"><ele>60.0</ele><time>2026-04-18T10:33:01Z</time></trkpt><trkpt lat="37.53334551027371" lon="13.056285542417463"><ele>63.0</ele><time>2026-04-18T10:33:02Z</time></trkpt><trkpt lat="37.53342769969988" lon="13.056048610269444"><ele>66.0</ele><time>2026-04-18T10:33:03Z</time></trkpt><trkpt lat="37.53350657791234" lon="13.055822298778798"><ele>69.0</ele><time>2026-04-18T10:33:04Z</time></trkpt><trkpt lat="37.53358533941144" lon="13.055606270241936"><ele>71.0</ele><time>2026-04-18T10:33:05Z</time></trkpt><trkpt lat="37.53366834647687" lon="13.055397622423373"><ele>73.0</ele><time>2026-04-18T10:33:06Z</time></trkpt><trkpt lat="37.533764153756266" lon="13.055197849997832"><ele>75.0</ele><time>2026-04-18T10:33:07Z</time></trkpt><trkpt lat="37.53387048408252" lon="13.055012418091886"><ele>80.0</ele><time>2026-04-18T10:33:08Z</time></trkpt><trkpt lat="37.53399353562468" lon="13.054844076470127"><ele>85.0</ele><time>2026-04-18T10:33:09Z</time></trkpt><trkpt lat="37.53412816952149" lon="13.054682887742134"><ele>90.0</ele><time>2026-04-18T10:33:10Z</time></trkpt><trkpt lat="37.5342766488149" lon="13.054531729691226"><ele>90.0</ele><time>2026-04-18T10:33:11Z</time></trkpt><trkpt lat="37.53443562362899" lon="13.054393779879877"><ele>90.0</ele><time>2026-04-18T10:33:12Z</time></trkpt><trkpt lat="37.5346076988971" lon="13.054267871041025"><ele>90.0</ele><time>2026-04-18T10:33:13Z</time></trkpt><trkpt lat="37.534792064720875" lon="13.054156757562875"><ele>91.0</ele><time>2026-04-18T10:33:14Z</time></trkpt><trkpt lat="37.53498689600111" lon="13.054061972093592"><ele>92.0</ele><time>2026-04-18T10:33:15Z</time></trkpt><trkpt lat="37.53518891567503" lon="13.053982282297657"><ele>93.0</ele><time>2026-04-18T10:33:16Z</time></trkpt><trkpt lat="37.535395153993306" lon="13.053908657656745"><ele>91.0</ele><time>2026-04-18T10:33:17Z</time></trkpt><trkpt lat="37.53560344127263" lon="13.053839635716871"><ele>89.0</ele><time>2026-04-18T10:33:18Z</time></trkpt><trkpt lat="37.53581533627011" lon="13.05376255188043"><ele>87.0</ele><time>2026-04-18T10:33:19Z</time></trkpt><trkpt lat="37.536026394237716" lon="13.053686941440237"><ele>86.66666666666667</ele><time>2026-04-18T10:33:20Z</time></trkpt><trkpt lat="37.53623900856929" lon="13.053609274088945"><ele>86.33333333333334</ele><time>2026-04-18T10:33:21Z</time></trkpt><trkpt lat="37.536451803379" lon="13.053531030684258"><ele>86.0</ele><time>2026-04-18T10:33:22Z</time></trkpt><trkpt lat="37.536673017400815" lon="13.05345398400698"><ele>86.0</ele><time>2026-04-18T10:33:23Z</time></trkpt><trkpt lat="37.53689312553151" lon="13.053374370729589"><ele>86.0</ele><time>2026-04-18T10:33:24Z</time></trkpt><trkpt lat="37.53711363271083" lon="13.05328832574571"><ele>96.5</ele><time>2026-04-18T10:33:25Z</time></trkpt><trkpt lat="37.53733323288881" lon="13.05319214411905"><ele>107.0</ele><time>2026-04-18T10:33:26Z</time></trkpt><trkpt lat="37.537552045884254" lon="13.053086971972542"><ele>107.0</ele><time>2026-04-18T10:33:27Z</time></trkpt><trkpt lat="37.53776965917831" lon="13.052976399109948"><ele>107.0</ele><time>2026-04-18T10:33:28Z</time></trkpt><trkpt lat="37.537986342368285" lon="13.052860328824508"><ele>109.5</ele><time>2026-04-18T10:33:29Z</time></trkpt><trkpt lat="37.538204840037885" lon="13.052741083766065"><ele>112.0</ele><time>2026-04-18T10:33:30Z</time></trkpt><trkpt lat="37.538421318441294" lon="13.05261969698381"><ele>112.0</ele><time>2026-04-18T10:33:31Z</time></trkpt><trkpt lat="37.53863968070493" lon="13.052497166296218"><ele>112.0</ele><time>2026-04-18T10:33:32Z</time></trkpt><trkpt lat="37.538853511666574" lon="13.052377176453176"><ele>116.5</ele><time>2026-04-18T10:33:33Z</time></trkpt><trkpt lat="37.53906314680304" lon="13.052256434450113"><ele>121.0</ele><time>2026-04-18T10:33:34Z</time></trkpt><trkpt lat="37.53927648077223" lon="13.052134388561353"><ele>121.0</ele><time>2026-04-18T10:33:35Z</time></trkpt><trkpt lat="37.539492199771566" lon="13.052011195181175"><ele>121.0</ele><time>2026-04-18T10:33:36Z</time></trkpt><trkpt lat="37.53970632875835" lon="13.051889654354701"><ele>118.5</ele><time>2026-04-18T10:33:37Z</time></trkpt><trkpt lat="37.53992231738583" lon="13.051761390781522"><ele>116.0</ele><time>2026-04-18T10:33:38Z</time></trkpt><trkpt lat="37.540138330657804" lon="13.051632493347599"><ele>120.5</ele><time>2026-04-18T10:33:39Z</time></trkpt><trkpt lat="37.54035674561868" lon="13.051507323370151"><ele>125.0</ele><time>2026-04-18T10:33:40Z</time></trkpt><trkpt lat="37.54057702861898" lon="13.051379761247714"><ele>126.0</ele><time>2026-04-18T10:33:41Z</time></trkpt><trkpt lat="37.54079957161499" lon="13.05124899838365"><ele>127.0</ele><time>2026-04-18T10:33:42Z</time></trkpt><trkpt lat="37.541027392987985" lon="13.051121177137736"><ele>126.5</ele><time>2026-04-18T10:33:43Z</time></trkpt><trkpt lat="37.54125357743746" lon="13.050994654817725"><ele>126.0</ele><time>2026-04-18T10:33:44Z</time></trkpt><trkpt lat="37.54147117401031" lon="13.05086875986393"><ele>126.5</ele><time>2026-04-18T10:33:45Z</time></trkpt><trkpt lat="37.54168554982413" lon="13.05074076460802"><ele>127.0</ele><time>2026-04-18T10:33:46Z</time></trkpt><trkpt lat="37.54190179039013" lon="13.050617264637065"><ele>128.0</ele><time>2026-04-18T10:33:47Z</time></trkpt><trkpt lat="37.54211799605277" lon="13.050492102705148"><ele>129.0</ele><time>2026-04-18T10:33:48Z</time></trkpt><trkpt lat="37.54233543403359" lon="13.050371689204995"><ele>129.0</ele><time>2026-04-18T10:33:49Z</time></trkpt><trkpt lat="37.542550091124134" lon="13.050254937797819"><ele>129.0</ele><time>2026-04-18T10:33:50Z</time></trkpt><trkpt lat="37.54276845176329" lon="13.050134129825762"><ele>130.0</ele><time>2026-04-18T10:33:51Z</time></trkpt><trkpt lat="37.542992129094515" lon="13.050003115239832"><ele>131.0</ele><time>2026-04-18T10:33:52Z</time></trkpt><trkpt lat="37.543219012824814" lon="13.049874660287085"><ele>131.0</ele><time>2026-04-18T10:33:53Z</time></trkpt><trkpt lat="37.543447289204956" lon="13.049744342221201"><ele>131.0</ele><time>2026-04-18T10:33:54Z</time></trkpt><trkpt lat="37.54367846690069" lon="13.049612915994278"><ele>131.5</ele><time>2026-04-18T10:33:55Z</time></trkpt><trkpt lat="37.543910810722096" lon="13.049477627656826"><ele>132.0</ele><time>2026-04-18T10:33:56Z</time></trkpt><trkpt lat="37.5441461237025" lon="13.049334462458683"><ele>132.0</ele><time>2026-04-18T10:33:57Z</time></trkpt><trkpt lat="37.54437912759827" lon="13.049192813679284"><ele>132.0</ele><time>2026-04-18T10:33:58Z</time></trkpt><trkpt lat="37.54461326639189" lon="13.04905224438938"><ele>131.5</ele><time>2026-04-18T10:33:59Z</time></trkpt><trkpt lat="37.54484448398588" lon="13.048907724718322"><ele>131.0</ele><time>2026-04-18T10:33:59.999Z</time></trkpt><trkpt lat="37.54506987313306" lon="13.048761323961502"><ele>131.0</ele><time>2026-04-18T10:34:00.999Z</time></trkpt><trkpt lat="37.54529336883866" lon="13.04861246746953"><ele>131.0</ele><time>2026-04-18T10:34:01.999Z</time></trkpt><trkpt lat="37.54551606029336" lon="13.048458106073253"><ele>131.5</ele><time>2026-04-18T10:34:02.999Z</time></trkpt><trkpt lat="37.54574229633998" lon="13.048302359247083"><ele>132.0</ele><time>2026-04-18T10:34:03.999Z</time></trkpt><trkpt lat="37.54597021686352" lon="13.048146271723068"><ele>132.0</ele><time>2026-04-18T10:34:04.999Z</time></trkpt><trkpt lat="37.54619900584779" lon="13.047989028981874"><ele>132.0</ele><time>2026-04-18T10:34:05.999Z</time></trkpt><trkpt lat="37.546425468673874" lon="13.04783614182161"><ele>132.0</ele><time>2026-04-18T10:34:06.999Z</time></trkpt><trkpt lat="37.54664678700706" lon="13.047686486427827"><ele>132.0</ele><time>2026-04-18T10:34:07.999Z</time></trkpt><trkpt lat="37.54686363049376" lon="13.047538362310702"><ele>133.5</ele><time>2026-04-18T10:34:08.999Z</time></trkpt><trkpt lat="37.54707776880613" lon="13.047391184183846"><ele>135.0</ele><time>2026-04-18T10:34:09.999Z</time></trkpt><trkpt lat="37.547288932676906" lon="13.047244784836794"><ele>135.0</ele><time>2026-04-18T10:34:10.999Z</time></trkpt><trkpt lat="37.547497002355854" lon="13.047100579752753"><ele>135.0</ele><time>2026-04-18T10:34:11.999Z</time></trkpt><trkpt lat="37.547705227409985" lon="13.046957253652574"><ele>135.0</ele><time>2026-04-18T10:34:12.999Z</time></trkpt><trkpt lat="37.54791144037626" lon="13.046813760951176"><ele>135.0</ele><time>2026-04-18T10:34:13.999Z</time></trkpt><trkpt lat="37.54811533260984" lon="13.046673891198937"><ele>134.5</ele><time>2026-04-18T10:34:14.999Z</time></trkpt><trkpt lat="37.54831989422048" lon="13.04653538792654"><ele>134.0</ele><time>2026-04-18T10:34:15.999Z</time></trkpt><trkpt lat="37.548524173334656" lon="13.046395279464644"><ele>134.5</ele><time>2026-04-18T10:34:16.999Z</time></trkpt><trkpt lat="37.54872977927604" lon="13.046252305032587"><ele>135.0</ele><time>2026-04-18T10:34:17.999Z</time></trkpt><trkpt lat="37.54893448543666" lon="13.046108502250881"><ele>135.0</ele><time>2026-04-18T10:34:18.999Z</time></trkpt><trkpt lat="37.5491424902984" lon="13.045965879791197"><ele>135.0</ele><time>2026-04-18T10:34:19.999Z</time></trkpt><trkpt lat="37.54935168132305" lon="13.04582474656671"><ele>136.0</ele><time>2026-04-18T10:34:20.999Z</time></trkpt><trkpt lat="37.54955641432711" lon="13.045684864247653"><ele>137.0</ele><time>2026-04-18T10:34:21.999Z</time></trkpt><trkpt lat="37.54975371209557" lon="13.045547189630296"><ele>137.0</ele><time>2026-04-18T10:34:22.999Z</time></trkpt><trkpt lat="37.55012720309224" lon="13.045286243899739"><ele>137.0</ele><time>2026-04-18T10:34:24.999Z</time></trkpt><trkpt lat="37.550314561613405" lon="13.045153628621836"><ele>137.33333333333331</ele><time>2026-04-18T10:34:25.999Z</time></trkpt><trkpt lat="37.550510395914785" lon="13.045022375342969"><ele>137.66666666666666</ele><time>2026-04-18T10:34:26.999Z</time></trkpt><trkpt lat="37.55070379820618" lon="13.044890507730267"><ele>138.0</ele><time>2026-04-18T10:34:27.999Z</time></trkpt><trkpt lat="37.55089905747512" lon="13.044755348977958"><ele>138.0</ele><time>2026-04-18T10:34:28.999Z</time></trkpt><trkpt lat="37.551096965107696" lon="13.044623290141216"><ele>138.0</ele><time>2026-04-18T10:34:29.999Z</time></trkpt><trkpt lat="37.551297050272524" lon="13.044485155139892"><ele>138.0</ele><time>2026-04-18T10:34:30.999Z</time></trkpt><trkpt lat="37.55149891219156" lon="13.044349411496132"><ele>138.0</ele><time>2026-04-18T10:34:31.999Z</time></trkpt><trkpt lat="37.551701142008355" lon="13.04421131459877"><ele>137.66666666666666</ele><time>2026-04-18T10:34:32.999Z</time></trkpt><trkpt lat="37.55189862545305" lon="13.044071425382464"><ele>137.33333333333331</ele><time>2026-04-18T10:34:33.999Z</time></trkpt><trkpt lat="37.552093315222784" lon="13.043934883359894"><ele>137.0</ele><time>2026-04-18T10:34:34.999Z</time></trkpt><trkpt lat="37.552285202925525" lon="13.04380400939442"><ele>137.0</ele><time>2026-04-18T10:34:35.999Z</time></trkpt><trkpt lat="37.552473612474856" lon="13.043673215277352"><ele>137.0</ele><time>2026-04-18T10:34:36.999Z</time></trkpt><trkpt lat="37.55265969135895" lon="13.043541244704246"><ele>137.0</ele><time>2026-04-18T10:34:37.999Z</time></trkpt><trkpt lat="37.552846322563525" lon="13.043409992129169"><ele>137.66666666666666</ele><time>2026-04-18T10:34:38.999Z</time></trkpt><trkpt lat="37.55303588423525" lon="13.04327924257046"><ele>138.33333333333334</ele><time>2026-04-18T10:34:39.999Z</time></trkpt><trkpt lat="37.55322576086719" lon="13.043156003521066"><ele>139.0</ele><time>2026-04-18T10:34:40.999Z</time></trkpt><trkpt lat="37.553413400990934" lon="13.04303466730597"><ele>139.0</ele><time>2026-04-18T10:34:41.999Z</time></trkpt><trkpt lat="37.55360292672875" lon="13.042913159466904"><ele>139.0</ele><time>2026-04-18T10:34:42.999Z</time></trkpt><trkpt lat="37.55379533506607" lon="13.042795909560892"><ele>139.0</ele><time>2026-04-18T10:34:43.999Z</time></trkpt><trkpt lat="37.553999229663866" lon="13.042689524748328"><ele>139.0</ele><time>2026-04-18T10:34:44.999Z</time></trkpt><trkpt lat="37.5541946827113" lon="13.042596557213702"><ele>139.0</ele><time>2026-04-18T10:34:45.999Z</time></trkpt><trkpt lat="37.55438815148049" lon="13.04251423234316"><ele>139.0</ele><time>2026-04-18T10:34:46.999Z</time></trkpt><trkpt lat="37.55457711355953" lon="13.04243428804549"><ele>139.0</ele><time>2026-04-18T10:34:47.999Z</time></trkpt><trkpt lat="37.55473280372358" lon="13.042122851926962"><ele>139.0</ele><time>2026-04-18T10:34:48.999Z</time></trkpt><trkpt lat="37.55491360767427" lon="13.041990969113"><ele>139.0</ele><time>2026-04-18T10:34:49.999Z</time></trkpt><trkpt lat="37.55510129891907" lon="13.041862379862772"><ele>139.0</ele><time>2026-04-18T10:34:50.999Z</time></trkpt><trkpt lat="37.55529109712068" lon="13.041733315163338"><ele>139.0</ele><time>2026-04-18T10:34:52Z</time></trkpt><trkpt lat="37.5554829915376" lon="13.041609973453847"><ele>138.66666666666669</ele><time>2026-04-18T10:34:53Z</time></trkpt><trkpt lat="37.5556671090842" lon="13.041479104789309"><ele>138.33333333333334</ele><time>2026-04-18T10:34:54Z</time></trkpt><trkpt lat="37.55584437486664" lon="13.041358732213238"><ele>138.0</ele><time>2026-04-18T10:34:55Z</time></trkpt><trkpt lat="37.55602266563834" lon="13.041235450428447"><ele>138.0</ele><time>2026-04-18T10:34:56Z</time></trkpt><trkpt lat="37.556202459721085" lon="13.041119057437244"><ele>138.0</ele><time>2026-04-18T10:34:57Z</time></trkpt><trkpt lat="37.55638157854462" lon="13.0410061025377"><ele>138.0</ele><time>2026-04-18T10:34:58Z</time></trkpt><trkpt lat="37.55655194553351" lon="13.040894985817387"><ele>138.33333333333334</ele><time>2026-04-18T10:34:59Z</time></trkpt><trkpt lat="37.55672216782678" lon="13.040792040038262"><ele>138.66666666666669</ele><time>2026-04-18T10:35:00Z</time></trkpt><trkpt lat="37.55687854389308" lon="13.040690474722538"><ele>139.0</ele><time>2026-04-18T10:35:01Z</time></trkpt><trkpt lat="37.55703647553694" lon="13.040586630426208"><ele>139.66666666666669</ele><time>2026-04-18T10:35:02Z</time></trkpt><trkpt lat="37.557192781076196" lon="13.04049167356937"><ele>140.33333333333334</ele><time>2026-04-18T10:35:03Z</time></trkpt><trkpt lat="37.55735930981581" lon="13.040391918282706"><ele>141.0</ele><time>2026-04-18T10:35:04Z</time></trkpt><trkpt lat="37.557535691397355" lon="13.040292770802147"><ele>141.0</ele><time>2026-04-18T10:35:05Z</time></trkpt><trkpt lat="37.55772500807772" lon="13.040201597268153"><ele>141.0</ele><time>2026-04-18T10:35:06Z</time></trkpt><trkpt lat="37.557910226858944" lon="13.04011033854233"><ele>141.0</ele><time>2026-04-18T10:35:07Z</time></trkpt><trkpt lat="37.55809514080716" lon="13.040012003963966"><ele>140.66666666666666</ele><time>2026-04-18T10:35:08Z</time></trkpt><trkpt lat="37.558279094440564" lon="13.039917929877705"><ele>140.33333333333331</ele><time>2026-04-18T10:35:09Z</time></trkpt><trkpt lat="37.55846025378677" lon="13.039829639058153"><ele>140.0</ele><time>2026-04-18T10:35:10Z</time></trkpt><trkpt lat="37.55863691819737" lon="13.039742095151706"><ele>141.66666666666666</ele><time>2026-04-18T10:35:11Z</time></trkpt><trkpt lat="37.558832320387005" lon="13.039644380382782"><ele>143.33333333333334</ele><time>2026-04-18T10:35:12Z</time></trkpt><trkpt lat="37.559007993606095" lon="13.039550408933192"><ele>145.0</ele><time>2026-04-18T10:35:13Z</time></trkpt><trkpt lat="37.55918440206261" lon="13.039467905900873"><ele>145.0</ele><time>2026-04-18T10:35:14Z</time></trkpt><trkpt lat="37.55938250342075" lon="13.039371414409107"><ele>145.0</ele><time>2026-04-18T10:35:15Z</time></trkpt><trkpt lat="37.55957369395892" lon="13.039286053535276"><ele>145.0</ele><time>2026-04-18T10:35:16Z</time></trkpt><trkpt lat="37.55975800146222" lon="13.039205715424474"><ele>144.66666666666669</ele><time>2026-04-18T10:35:17Z</time></trkpt><trkpt lat="37.55994016468896" lon="13.039124716812548"><ele>144.33333333333334</ele><time>2026-04-18T10:35:18Z</time></trkpt><trkpt lat="37.56012985374539" lon="13.039044016893804"><ele>144.0</ele><time>2026-04-18T10:35:19Z</time></trkpt><trkpt lat="37.56031501543777" lon="13.03897044863874"><ele>144.66666666666666</ele><time>2026-04-18T10:35:20Z</time></trkpt><trkpt lat="37.56050447499831" lon="13.038891525184663"><ele>145.33333333333331</ele><time>2026-04-18T10:35:21Z</time></trkpt><trkpt lat="37.56070747783846" lon="13.038803203811002"><ele>146.0</ele><time>2026-04-18T10:35:22Z</time></trkpt><trkpt lat="37.56089588878457" lon="13.038728966028891"><ele>146.0</ele><time>2026-04-18T10:35:23Z</time></trkpt><trkpt lat="37.561083856168295" lon="13.038654764833076"><ele>146.0</ele><time>2026-04-18T10:35:24Z</time></trkpt><trkpt lat="37.56128589979167" lon="13.03857066091118"><ele>146.0</ele><time>2026-04-18T10:35:25Z</time></trkpt><trkpt lat="37.561480293705" lon="13.038490006499282"><ele>145.33333333333331</ele><time>2026-04-18T10:35:26Z</time></trkpt><trkpt lat="37.56167395106121" lon="13.038410540051393"><ele>144.66666666666666</ele><time>2026-04-18T10:35:27Z</time></trkpt><trkpt lat="37.56186516498076" lon="13.038328944989576"><ele>144.0</ele><time>2026-04-18T10:35:28Z</time></trkpt><trkpt lat="37.56206299837588" lon="13.038242903272952"><ele>144.0</ele><time>2026-04-18T10:35:29Z</time></trkpt><trkpt lat="37.562266702505426" lon="13.038161042153158"><ele>144.0</ele><time>2026-04-18T10:35:30Z</time></trkpt><trkpt lat="37.562460551500536" lon="13.038082929427778"><ele>144.0</ele><time>2026-04-18T10:35:31Z</time></trkpt><trkpt lat="37.562648204130056" lon="13.038005444177214"><ele>144.0</ele><time>2026-04-18T10:35:32Z</time></trkpt><trkpt lat="37.56283851118037" lon="13.037927588679317"><ele>144.0</ele><time>2026-04-18T10:35:33Z</time></trkpt><trkpt lat="37.56302086864294" lon="13.037852942424642"><ele>144.0</ele><time>2026-04-18T10:35:34Z</time></trkpt><trkpt lat="37.56320535463709" lon="13.037777629016475"><ele>144.33333333333334</ele><time>2026-04-18T10:35:35Z</time></trkpt><trkpt lat="37.56339285439701" lon="13.037697631408683"><ele>144.66666666666669</ele><time>2026-04-18T10:35:36Z</time></trkpt><trkpt lat="37.56357299356772" lon="13.037622302712961"><ele>145.0</ele><time>2026-04-18T10:35:37Z</time></trkpt><trkpt lat="37.56375001071646" lon="13.037551110277402"><ele>145.0</ele><time>2026-04-18T10:35:38Z</time></trkpt><trkpt lat="37.563932657011414" lon="13.037475493329142"><ele>145.0</ele><time>2026-04-18T10:35:39Z</time></trkpt><trkpt lat="37.56410845281683" lon="13.037404786319124"><ele>145.0</ele><time>2026-04-18T10:35:40Z</time></trkpt><trkpt lat="37.564280825942255" lon="13.037333552616314"><ele>144.33333333333334</ele><time>2026-04-18T10:35:41Z</time></trkpt><trkpt lat="37.564451505376304" lon="13.03726513215671"><ele>143.66666666666666</ele><time>2026-04-18T10:35:42Z</time></trkpt><trkpt lat="37.564635016599645" lon="13.037185327583257"><ele>143.0</ele><time>2026-04-18T10:35:43Z</time></trkpt><trkpt lat="37.564817481576995" lon="13.037111023777372"><ele>143.0</ele><time>2026-04-18T10:35:44Z</time></trkpt><trkpt lat="37.56499452667577" lon="13.03703488264972"><ele>143.0</ele><time>2026-04-18T10:35:45Z</time></trkpt><trkpt lat="37.565172272845835" lon="13.036971751163414"><ele>143.0</ele><time>2026-04-18T10:35:46Z</time></trkpt><trkpt lat="37.56535518884937" lon="13.036890538595761"><ele>143.0</ele><time>2026-04-18T10:35:47Z</time></trkpt><trkpt lat="37.56554203565375" lon="13.036815907554267"><ele>143.0</ele><time>2026-04-18T10:35:48Z</time></trkpt><trkpt lat="37.56572842130717" lon="13.036732058598353"><ele>143.0</ele><time>2026-04-18T10:35:49Z</time></trkpt><trkpt lat="37.56591195829774" lon="13.036662519191903"><ele>142.66666666666666</ele><time>2026-04-18T10:35:50Z</time></trkpt><trkpt lat="37.56609799659394" lon="13.036595016642439"><ele>142.33333333333334</ele><time>2026-04-18T10:35:51Z</time></trkpt><trkpt lat="37.56628326244122" lon="13.036513209002408"><ele>142.0</ele><time>2026-04-18T10:35:52Z</time></trkpt><trkpt lat="37.5664746954898" lon="13.03642904908304"><ele>143.33333333333334</ele><time>2026-04-18T10:35:52.999Z</time></trkpt><trkpt lat="37.56666431222098" lon="13.036351762560079"><ele>144.66666666666666</ele><time>2026-04-18T10:35:53.999Z</time></trkpt><trkpt lat="37.56685586928287" lon="13.036270974598636"><ele>146.0</ele><time>2026-04-18T10:35:54.999Z</time></trkpt><trkpt lat="37.56704076734995" lon="13.036196911077177"><ele>147.0</ele><time>2026-04-18T10:35:55.999Z</time></trkpt><trkpt lat="37.56722540612233" lon="13.036124647516722"><ele>148.0</ele><time>2026-04-18T10:35:56.999Z</time></trkpt><trkpt lat="37.567412995264874" lon="13.036049258208518"><ele>149.0</ele><time>2026-04-18T10:35:57.999Z</time></trkpt><trkpt lat="37.56760713867794" lon="13.03596174601816"><ele>149.0</ele><time>2026-04-18T10:35:58.999Z</time></trkpt><trkpt lat="37.567802386496965" lon="13.035875726882837"><ele>149.0</ele><time>2026-04-18T10:35:59.999Z</time></trkpt><trkpt lat="37.56799893649353" lon="13.035793176431572"><ele>149.0</ele><time>2026-04-18T10:36:00.999Z</time></trkpt><trkpt lat="37.56819466273941" lon="13.035711830700631"><ele>148.66666666666666</ele><time>2026-04-18T10:36:01.999Z</time></trkpt><trkpt lat="37.568391680257584" lon="13.035631854067804"><ele>148.33333333333334</ele><time>2026-04-18T10:36:02.999Z</time></trkpt><trkpt lat="37.568583308292624" lon="13.035552362574057"><ele>148.0</ele><time>2026-04-18T10:36:03.999Z</time></trkpt><trkpt lat="37.568775127724905" lon="13.035473948788606"><ele>148.0</ele><time>2026-04-18T10:36:04.999Z</time></trkpt><trkpt lat="37.56897717550101" lon="13.035388080536789"><ele>148.0</ele><time>2026-04-18T10:36:05.999Z</time></trkpt><trkpt lat="37.56919739464274" lon="13.035287549875513"><ele>148.0</ele><time>2026-04-18T10:36:06.999Z</time></trkpt><trkpt lat="37.569434013491275" lon="13.0351843840134"><ele>148.0</ele><time>2026-04-18T10:36:07.999Z</time></trkpt><trkpt lat="37.56969006982714" lon="13.035085540641756"><ele>148.0</ele><time>2026-04-18T10:36:08.999Z</time></trkpt><trkpt lat="37.56994466786126" lon="13.034986470534657"><ele>147.5</ele><time>2026-04-18T10:36:09.999Z</time></trkpt><trkpt lat="37.57019080723671" lon="13.03488465073535"><ele>147.0</ele><time>2026-04-18T10:36:10.999Z</time></trkpt><trkpt lat="37.57043032496109" lon="13.034769611552699"><ele>147.0</ele><time>2026-04-18T10:36:11.999Z</time></trkpt><trkpt lat="37.570659251800706" lon="13.034653440340625"><ele>147.0</ele><time>2026-04-18T10:36:12.999Z</time></trkpt><trkpt lat="37.57088179183587" lon="13.034527829668042"><ele>147.0</ele><time>2026-04-18T10:36:13.999Z</time></trkpt><trkpt lat="37.57109788266061" lon="13.034395396561953"><ele>147.0</ele><time>2026-04-18T10:36:14.999Z</time></trkpt><trkpt lat="37.571308850786885" lon="13.034255694019594"><ele>148.0</ele><time>2026-04-18T10:36:15.999Z</time></trkpt><trkpt lat="37.571512481778576" lon="13.034109522166371"><ele>149.0</ele><time>2026-04-18T10:36:16.999Z</time></trkpt><trkpt lat="37.57171139554219" lon="13.033958028687497"><ele>149.0</ele><time>2026-04-18T10:36:17.999Z</time></trkpt><trkpt lat="37.57190601109338" lon="13.033796715257775"><ele>149.0</ele><time>2026-04-18T10:36:18.999Z</time></trkpt><trkpt lat="37.57209224808928" lon="13.033631706336308"><ele>148.66666666666666</ele><time>2026-04-18T10:36:19.999Z</time></trkpt><trkpt lat="37.57226331954665" lon="13.033467757683537"><ele>148.33333333333334</ele><time>2026-04-18T10:36:20.999Z</time></trkpt><trkpt lat="37.572422813566" lon="13.033305976181504"><ele>148.0</ele><time>2026-04-18T10:36:21.999Z</time></trkpt><trkpt lat="37.57257826934755" lon="13.033144230397996"><ele>148.0</ele><time>2026-04-18T10:36:22.999Z</time></trkpt><trkpt lat="37.572729206358055" lon="13.032975449266365"><ele>148.0</ele><time>2026-04-18T10:36:23.999Z</time></trkpt><trkpt lat="37.57287361943187" lon="13.03280322861868"><ele>148.0</ele><time>2026-04-18T10:36:24.999Z</time></trkpt><trkpt lat="37.57301617674082" lon="13.032623710313896"><ele>147.66666666666669</ele><time>2026-04-18T10:36:25.999Z</time></trkpt><trkpt lat="37.573159046119" lon="13.032442124146128"><ele>147.33333333333334</ele><time>2026-04-18T10:36:26.999Z</time></trkpt><trkpt lat="37.573292812000666" lon="13.032263833097437"><ele>147.0</ele><time>2026-04-18T10:36:27.999Z</time></trkpt><trkpt lat="37.57341891176946" lon="13.032085744419962"><ele>147.0</ele><time>2026-04-18T10:36:28.999Z</time></trkpt><trkpt lat="37.573543177356406" lon="13.031904774885723"><ele>147.0</ele><time>2026-04-18T10:36:29.999Z</time></trkpt><trkpt lat="37.573664773526325" lon="13.031720643032214"><ele>147.0</ele><time>2026-04-18T10:36:30.999Z</time></trkpt><trkpt lat="37.57378460767492" lon="13.031540336725826"><ele>145.66666666666666</ele><time>2026-04-18T10:36:31.999Z</time></trkpt><trkpt lat="37.57390370988561" lon="13.031356318233545"><ele>144.33333333333331</ele><time>2026-04-18T10:36:32.999Z</time></trkpt><trkpt lat="37.57402682628926" lon="13.031171656945821"><ele>143.0</ele><time>2026-04-18T10:36:33.999Z</time></trkpt><trkpt lat="37.574152766656574" lon="13.030990914695007"><ele>143.0</ele><time>2026-04-18T10:36:34.999Z</time></trkpt><trkpt lat="37.57428332197854" lon="13.030811192408457"><ele>143.0</ele><time>2026-04-18T10:36:35.999Z</time></trkpt><trkpt lat="37.57441038439006" lon="13.030629721366664"><ele>143.0</ele><time>2026-04-18T10:36:36.999Z</time></trkpt><trkpt lat="37.574540564271565" lon="13.030448137899683"><ele>141.0</ele><time>2026-04-18T10:36:37.999Z</time></trkpt><trkpt lat="37.5746745894862" lon="13.030278250290982"><ele>139.0</ele><time>2026-04-18T10:36:38.999Z</time></trkpt><trkpt lat="37.57480431361147" lon="13.03010351286078"><ele>137.0</ele><time>2026-04-18T10:36:39.999Z</time></trkpt><trkpt lat="37.57493846094009" lon="13.029937215540931"><ele>136.33333333333331</ele><time>2026-04-18T10:36:40.999Z</time></trkpt><trkpt lat="37.57507184557329" lon="13.029770893772845"><ele>135.66666666666666</ele><time>2026-04-18T10:36:41.999Z</time></trkpt><trkpt lat="37.57520634072255" lon="13.029609945964856"><ele>135.0</ele><time>2026-04-18T10:36:42.999Z</time></trkpt><trkpt lat="37.57534006913923" lon="13.029450445407802"><ele>134.33333333333334</ele><time>2026-04-18T10:36:43.999Z</time></trkpt><trkpt lat="37.57547418528501" lon="13.029294344394419"><ele>133.66666666666669</ele><time>2026-04-18T10:36:44.999Z</time></trkpt><trkpt lat="37.575608035330376" lon="13.029137590472141"><ele>133.0</ele><time>2026-04-18T10:36:45.999Z</time></trkpt><trkpt lat="37.575747960594164" lon="13.028981001435989"><ele>133.0</ele><time>2026-04-18T10:36:46.999Z</time></trkpt><trkpt lat="37.57589157972354" lon="13.028819792993147"><ele>133.0</ele><time>2026-04-18T10:36:47.999Z</time></trkpt><trkpt lat="37.57603600470728" lon="13.028669363579528"><ele>133.0</ele><time>2026-04-18T10:36:48.999Z</time></trkpt><trkpt lat="37.57617978304757" lon="13.028511788173775"><ele>132.66666666666669</ele><time>2026-04-18T10:36:49.999Z</time></trkpt><trkpt lat="37.576315555716405" lon="13.028359510834152"><ele>132.33333333333334</ele><time>2026-04-18T10:36:50.999Z</time></trkpt><trkpt lat="37.576458213222914" lon="13.028216196240512"><ele>132.0</ele><time>2026-04-18T10:36:51.999Z</time></trkpt><trkpt lat="37.57660247626216" lon="13.028063796357143"><ele>132.0</ele><time>2026-04-18T10:36:52.999Z</time></trkpt><trkpt lat="37.57674888557529" lon="13.027909317670584"><ele>132.0</ele><time>2026-04-18T10:36:53.999Z</time></trkpt><trkpt lat="37.5768936424143" lon="13.02775677212399"><ele>132.0</ele><time>2026-04-18T10:36:54.999Z</time></trkpt><trkpt lat="37.57703941407462" lon="13.027605118365823"><ele>126.33333333333334</ele><time>2026-04-18T10:36:55.999Z</time></trkpt><trkpt lat="37.57718652085964" lon="13.02744533059274"><ele>120.66666666666667</ele><time>2026-04-18T10:36:56.999Z</time></trkpt><trkpt lat="37.57733503035409" lon="13.027292233654563"><ele>115.0</ele><time>2026-04-18T10:36:58Z</time></trkpt><trkpt lat="37.57748238259192" lon="13.027141165458998"><ele>115.0</ele><time>2026-04-18T10:36:59Z</time></trkpt><trkpt lat="37.57763005347251" lon="13.026989011304254"><ele>115.0</ele><time>2026-04-18T10:37:00Z</time></trkpt><trkpt lat="37.577776289437736" lon="13.026832097624682"><ele>115.0</ele><time>2026-04-18T10:37:01Z</time></trkpt><trkpt lat="37.577921999124236" lon="13.026673990974539"><ele>107.66666666666667</ele><time>2026-04-18T10:37:02Z</time></trkpt><trkpt lat="37.57806683163501" lon="13.026517281153856"><ele>100.33333333333334</ele><time>2026-04-18T10:37:03Z</time></trkpt><trkpt lat="37.57821469772909" lon="13.026366749286336"><ele>93.0</ele><time>2026-04-18T10:37:04Z</time></trkpt><trkpt lat="37.578362104821565" lon="13.026219533266714"><ele>93.0</ele><time>2026-04-18T10:37:05Z</time></trkpt><trkpt lat="37.578513117275214" lon="13.026065171394201"><ele>93.0</ele><time>2026-04-18T10:37:06Z</time></trkpt><trkpt lat="37.57866441299605" lon="13.025914486128094"><ele>93.0</ele><time>2026-04-18T10:37:07Z</time></trkpt><trkpt lat="37.5788164647371" lon="13.025759379161604"><ele>86.33333333333333</ele><time>2026-04-18T10:37:08Z</time></trkpt><trkpt lat="37.57896752834257" lon="13.025608265516416"><ele>79.66666666666666</ele><time>2026-04-18T10:37:09Z</time></trkpt><trkpt lat="37.57912229632132" lon="13.025455956131351"><ele>73.0</ele><time>2026-04-18T10:37:10Z</time></trkpt><trkpt lat="37.579277838151" lon="13.025306095330128"><ele>73.0</ele><time>2026-04-18T10:37:11Z</time></trkpt><trkpt lat="37.57943362357076" lon="13.025154403590326"><ele>73.0</ele><time>2026-04-18T10:37:12Z</time></trkpt><trkpt lat="37.579586572066226" lon="13.025008118271522"><ele>73.0</ele><time>2026-04-18T10:37:13Z</time></trkpt><trkpt lat="37.57973826878344" lon="13.024865439700314"><ele>70.0</ele><time>2026-04-18T10:37:14Z</time></trkpt><trkpt lat="37.57989041473166" lon="13.024724282442827"><ele>67.0</ele><time>2026-04-18T10:37:15Z</time></trkpt><trkpt lat="37.58004074509237" lon="13.024584245245716"><ele>64.0</ele><time>2026-04-18T10:37:16Z</time></trkpt><trkpt lat="37.580191620252855" lon="13.024442865912079"><ele>64.0</ele><time>2026-04-18T10:37:17Z</time></trkpt><trkpt lat="37.58034432866581" lon="13.024303369442256"><ele>64.0</ele><time>2026-04-18T10:37:18Z</time></trkpt><trkpt lat="37.580498009029384" lon="13.024165342745002"><ele>64.0</ele><time>2026-04-18T10:37:19Z</time></trkpt><trkpt lat="37.5806534470441" lon="13.024028092860815"><ele>61.33333333333333</ele><time>2026-04-18T10:37:20Z</time></trkpt><trkpt lat="37.580809472614746" lon="13.023889814945406"><ele>58.66666666666667</ele><time>2026-04-18T10:37:21Z</time></trkpt><trkpt lat="37.580977388009934" lon="13.023739543140213"><ele>56.0</ele><time>2026-04-18T10:37:22Z</time></trkpt><trkpt lat="37.58115485884619" lon="13.023568921274538"><ele>54.5</ele><time>2026-04-18T10:37:23Z</time></trkpt><trkpt lat="37.58134348317752" lon="13.023396222514865"><ele>53.0</ele><time>2026-04-18T10:37:24Z</time></trkpt><trkpt lat="37.581560941860744" lon="13.023221084632226"><ele>52.5</ele><time>2026-04-18T10:37:25Z</time></trkpt><trkpt lat="37.58177969653562" lon="13.023049898854435"><ele>52.0</ele><time>2026-04-18T10:37:26Z</time></trkpt><trkpt lat="37.58200442881855" lon="13.022883008349538"><ele>51.5</ele><time>2026-04-18T10:37:27Z</time></trkpt><trkpt lat="37.58223634890143" lon="13.022705921725958"><ele>51.0</ele><time>2026-04-18T10:37:28Z</time></trkpt><trkpt lat="37.582476383027405" lon="13.022521786609717"><ele>51.5</ele><time>2026-04-18T10:37:29Z</time></trkpt><trkpt lat="37.58271549732578" lon="13.022336830134572"><ele>52.0</ele><time>2026-04-18T10:37:30Z</time></trkpt><trkpt lat="37.58296088741243" lon="13.02214871392227"><ele>52.5</ele><time>2026-04-18T10:37:31Z</time></trkpt><trkpt lat="37.58320741282929" lon="13.021964514951852"><ele>53.0</ele><time>2026-04-18T10:37:32Z</time></trkpt><trkpt lat="37.583452126759234" lon="13.021785688043737"><ele>51.0</ele><time>2026-04-18T10:37:33Z</time></trkpt><trkpt lat="37.58369694422643" lon="13.021609351866331"><ele>49.0</ele><time>2026-04-18T10:37:34Z</time></trkpt><trkpt lat="37.58394327754158" lon="13.02143615666028"><ele>49.0</ele><time>2026-04-18T10:37:35Z</time></trkpt><trkpt lat="37.58419200182744" lon="13.021263603573995"><ele>49.0</ele><time>2026-04-18T10:37:36Z</time></trkpt><trkpt lat="37.58444143976704" lon="13.021090637021327"><ele>49.0</ele><time>2026-04-18T10:37:37Z</time></trkpt><trkpt lat="37.58469328552196" lon="13.020920272887334"><ele>49.0</ele><time>2026-04-18T10:37:38Z</time></trkpt><trkpt lat="37.584951129254186" lon="13.0207506400289"><ele>49.0</ele><time>2026-04-18T10:37:39Z</time></trkpt><trkpt lat="37.58521071225049" lon="13.020577765048458"><ele>49.0</ele><time>2026-04-18T10:37:40Z</time></trkpt><trkpt lat="37.5854647914433" lon="13.020411688249249"><ele>51.5</ele><time>2026-04-18T10:37:41Z</time></trkpt><trkpt lat="37.58571879522072" lon="13.020251629668163"><ele>54.0</ele><time>2026-04-18T10:37:42Z</time></trkpt><trkpt lat="37.58597285466759" lon="13.02009559420931"><ele>59.5</ele><time>2026-04-18T10:37:43Z</time></trkpt><trkpt lat="37.58622934275477" lon="13.019937589652779"><ele>65.0</ele><time>2026-04-18T10:37:44Z</time></trkpt><trkpt lat="37.5864889323509" lon="13.01977867567945"><ele>65.0</ele><time>2026-04-18T10:37:45Z</time></trkpt><trkpt lat="37.58675439828668" lon="13.019613330337174"><ele>65.0</ele><time>2026-04-18T10:37:46Z</time></trkpt><trkpt lat="37.58702082668313" lon="13.019448695502088"><ele>71.0</ele><time>2026-04-18T10:37:47Z</time></trkpt><trkpt lat="37.587285059611744" lon="13.01928608147897"><ele>77.0</ele><time>2026-04-18T10:37:48Z</time></trkpt><trkpt lat="37.58754741460206" lon="13.019124857934083"><ele>77.0</ele><time>2026-04-18T10:37:49Z</time></trkpt><trkpt lat="37.58780924618658" lon="13.018965415713522"><ele>77.0</ele><time>2026-04-18T10:37:50Z</time></trkpt><trkpt lat="37.58807173578056" lon="13.018806128471361"><ele>83.0</ele><time>2026-04-18T10:37:51Z</time></trkpt><trkpt lat="37.588335953412724" lon="13.018646018235646"><ele>89.0</ele><time>2026-04-18T10:37:52Z</time></trkpt><trkpt lat="37.58860361903477" lon="13.018481047313111"><ele>91.5</ele><time>2026-04-18T10:37:53Z</time></trkpt><trkpt lat="37.588873333969474" lon="13.01831539648839"><ele>94.0</ele><time>2026-04-18T10:37:54Z</time></trkpt><trkpt lat="37.58914470110516" lon="13.01814874767092"><ele>94.0</ele><time>2026-04-18T10:37:55Z</time></trkpt><trkpt lat="37.58941639333394" lon="13.017980797865144"><ele>94.0</ele><time>2026-04-18T10:37:56Z</time></trkpt><trkpt lat="37.58968900874544" lon="13.017813507306224"><ele>97.0</ele><time>2026-04-18T10:37:57Z</time></trkpt><trkpt lat="37.589957461202516" lon="13.017650056261592"><ele>100.0</ele><time>2026-04-18T10:37:58Z</time></trkpt><trkpt lat="37.59022675802097" lon="13.01748836845501"><ele>110.0</ele><time>2026-04-18T10:37:59Z</time></trkpt><trkpt lat="37.59049527147437" lon="13.017326277624706"><ele>120.0</ele><time>2026-04-18T10:37:59.999Z</time></trkpt><trkpt lat="37.59076694535431" lon="13.017159410703487"><ele>120.0</ele><time>2026-04-18T10:38:00.999Z</time></trkpt><trkpt lat="37.59104034422268" lon="13.016989906384248"><ele>120.0</ele><time>2026-04-18T10:38:01.999Z</time></trkpt><trkpt lat="37.59131254450064" lon="13.016822345637513"><ele>124.0</ele><time>2026-04-18T10:38:02.999Z</time></trkpt><trkpt lat="37.59158385332519" lon="13.016656984323632"><ele>128.0</ele><time>2026-04-18T10:38:03.999Z</time></trkpt><trkpt lat="37.59184449479978" lon="13.016496974428655"><ele>134.0</ele><time>2026-04-18T10:38:04.999Z</time></trkpt><trkpt lat="37.592097494597915" lon="13.016343490660287"><ele>140.0</ele><time>2026-04-18T10:38:05.999Z</time></trkpt><trkpt lat="37.59235288488901" lon="13.016186577755127"><ele>140.0</ele><time>2026-04-18T10:38:06.999Z</time></trkpt><trkpt lat="37.59261340235451" lon="13.01602492633861"><ele>140.0</ele><time>2026-04-18T10:38:07.999Z</time></trkpt><trkpt lat="37.592875434436706" lon="13.015863988073427"><ele>142.5</ele><time>2026-04-18T10:38:08.999Z</time></trkpt><trkpt lat="37.59313954170126" lon="13.015702170305854"><ele>145.0</ele><time>2026-04-18T10:38:09.999Z</time></trkpt><trkpt lat="37.59341003768548" lon="13.015536487857249"><ele>146.5</ele><time>2026-04-18T10:38:10.999Z</time></trkpt><trkpt lat="37.59368343094033" lon="13.015369046835746"><ele>148.0</ele><time>2026-04-18T10:38:11.999Z</time></trkpt><trkpt lat="37.5939550079636" lon="13.015205614578475"><ele>148.0</ele><time>2026-04-18T10:38:12.999Z</time></trkpt><trkpt lat="37.59422251726661" lon="13.015044215622117"><ele>148.0</ele><time>2026-04-18T10:38:13.999Z</time></trkpt><trkpt lat="37.59448576402394" lon="13.014888306182328"><ele>149.0</ele><time>2026-04-18T10:38:14.999Z</time></trkpt><trkpt lat="37.594750743518915" lon="13.014731039721196"><ele>150.0</ele><time>2026-04-18T10:38:15.999Z</time></trkpt><trkpt lat="37.595016060664705" lon="13.014564636330071"><ele>150.0</ele><time>2026-04-18T10:38:16.999Z</time></trkpt><trkpt lat="37.59528201786029" lon="13.014395535283882"><ele>150.0</ele><time>2026-04-18T10:38:17.999Z</time></trkpt><trkpt lat="37.59554668417582" lon="13.014224985753186"><ele>152.0</ele><time>2026-04-18T10:38:18.999Z</time></trkpt><trkpt lat="37.59580696085647" lon="13.014054669863079"><ele>154.0</ele><time>2026-04-18T10:38:19.999Z</time></trkpt><trkpt lat="37.59607089108622" lon="13.013883027708346"><ele>154.0</ele><time>2026-04-18T10:38:20.999Z</time></trkpt><trkpt lat="37.59634139756658" lon="13.013702557149772"><ele>154.0</ele><time>2026-04-18T10:38:21.999Z</time></trkpt><trkpt lat="37.59661392480918" lon="13.013518878848693"><ele>154.0</ele><time>2026-04-18T10:38:22.999Z</time></trkpt><trkpt lat="37.596888548905866" lon="13.013331903392295"><ele>154.0</ele><time>2026-04-18T10:38:23.999Z</time></trkpt><trkpt lat="37.5971681241569" lon="13.013139907666789"><ele>153.0</ele><time>2026-04-18T10:38:24.999Z</time></trkpt><trkpt lat="37.597451162334934" lon="13.012941097282603"><ele>152.0</ele><time>2026-04-18T10:38:25.999Z</time></trkpt><trkpt lat="37.59773516267078" lon="13.012733196707897"><ele>152.0</ele><time>2026-04-18T10:38:26.999Z</time></trkpt><trkpt lat="37.59802161981858" lon="13.01252057969257"><ele>152.0</ele><time>2026-04-18T10:38:27.999Z</time></trkpt><trkpt lat="37.59830160863639" lon="13.01230783303013"><ele>152.0</ele><time>2026-04-18T10:38:28.999Z</time></trkpt><trkpt lat="37.59857467854712" lon="13.012094447559589"><ele>152.0</ele><time>2026-04-18T10:38:29.999Z</time></trkpt><trkpt lat="37.598841971563424" lon="13.011877951156384"><ele>155.0</ele><time>2026-04-18T10:38:30.999Z</time></trkpt><trkpt lat="37.599106400533394" lon="13.011654164892033"><ele>158.0</ele><time>2026-04-18T10:38:31.999Z</time></trkpt><trkpt lat="37.5993714042977" lon="13.011425171594457"><ele>160.0</ele><time>2026-04-18T10:38:32.999Z</time></trkpt><trkpt lat="37.59964057572426" lon="13.011182831754244"><ele>162.0</ele><time>2026-04-18T10:38:33.999Z</time></trkpt><trkpt lat="37.599912582974156" lon="13.010928696657839"><ele>161.5</ele><time>2026-04-18T10:38:34.999Z</time></trkpt><trkpt lat="37.60018045721294" lon="13.010670724352392"><ele>161.0</ele><time>2026-04-18T10:38:35.999Z</time></trkpt><trkpt lat="37.60043463382312" lon="13.010418887585733"><ele>161.0</ele><time>2026-04-18T10:38:36.999Z</time></trkpt><trkpt lat="37.600681898072516" lon="13.010164832876614"><ele>161.0</ele><time>2026-04-18T10:38:37.999Z</time></trkpt><trkpt lat="37.60092124205629" lon="13.009901204396744"><ele>161.0</ele><time>2026-04-18T10:38:38.999Z</time></trkpt><trkpt lat="37.60115604312659" lon="13.009628971714758"><ele>161.0</ele><time>2026-04-18T10:38:39.999Z</time></trkpt><trkpt lat="37.6013922821318" lon="13.009348006594688"><ele>159.5</ele><time>2026-04-18T10:38:40.999Z</time></trkpt><trkpt lat="37.60162896830261" lon="13.009054533666507"><ele>158.0</ele><time>2026-04-18T10:38:41.999Z</time></trkpt><trkpt lat="37.601865683756856" lon="13.008748342673675"><ele>160.0</ele><time>2026-04-18T10:38:42.999Z</time></trkpt><trkpt lat="37.60209744647476" lon="13.008428110038754"><ele>162.0</ele><time>2026-04-18T10:38:43.999Z</time></trkpt><trkpt lat="37.60232225271305" lon="13.008094039980802"><ele>162.0</ele><time>2026-04-18T10:38:44.999Z</time></trkpt><trkpt lat="37.60254001070744" lon="13.007750983046181"><ele>162.0</ele><time>2026-04-18T10:38:45.999Z</time></trkpt><trkpt lat="37.602744957205694" lon="13.00740728524398"><ele>161.0</ele><time>2026-04-18T10:38:46.999Z</time></trkpt><trkpt lat="37.602930256709556" lon="13.007075580807497"><ele>160.0</ele><time>2026-04-18T10:38:47.999Z</time></trkpt><trkpt lat="37.6031060973155" lon="13.00674400730311"><ele>158.0</ele><time>2026-04-18T10:38:48.999Z</time></trkpt><trkpt lat="37.60327856068877" lon="13.006407226363429"><ele>156.0</ele><time>2026-04-18T10:38:49.999Z</time></trkpt><trkpt lat="37.60345022301606" lon="13.00605958867942"><ele>156.5</ele><time>2026-04-18T10:38:50.999Z</time></trkpt><trkpt lat="37.603616780967286" lon="13.005700479346913"><ele>157.0</ele><time>2026-04-18T10:38:51.999Z</time></trkpt><trkpt lat="37.60377769243781" lon="13.005332002920257"><ele>159.5</ele><time>2026-04-18T10:38:52.999Z</time></trkpt><trkpt lat="37.60393429342047" lon="13.004952034527182"><ele>162.0</ele><time>2026-04-18T10:38:53.999Z</time></trkpt><trkpt lat="37.60408748054116" lon="13.004562271621978"><ele>162.0</ele><time>2026-04-18T10:38:54.999Z</time></trkpt><trkpt lat="37.60423460464396" lon="13.004167675425833"><ele>162.0</ele><time>2026-04-18T10:38:55.999Z</time></trkpt><trkpt lat="37.60437536721005" lon="13.003779780210419"><ele>161.5</ele><time>2026-04-18T10:38:56.999Z</time></trkpt><trkpt lat="37.604514077391684" lon="13.003380654102829"><ele>161.0</ele><time>2026-04-18T10:38:57.999Z</time></trkpt><trkpt lat="37.60464489995727" lon="13.002971762754878"><ele>158.0</ele><time>2026-04-18T10:38:58.999Z</time></trkpt><trkpt lat="37.60476788168477" lon="13.002567522266457"><ele>155.0</ele><time>2026-04-18T10:38:59.999Z</time></trkpt><trkpt lat="37.60489040738257" lon="13.002161750103575"><ele>149.0</ele><time>2026-04-18T10:39:00.999Z</time></trkpt><trkpt lat="37.60500935865639" lon="13.001751744212536"><ele>143.0</ele><time>2026-04-18T10:39:01.999Z</time></trkpt><trkpt lat="37.60512033987707" lon="13.001346998357434"><ele>140.5</ele><time>2026-04-18T10:39:02.999Z</time></trkpt><trkpt lat="37.605227122027" lon="13.00093578128639"><ele>138.0</ele><time>2026-04-18T10:39:04Z</time></trkpt><trkpt lat="37.60533198216476" lon="13.00051835487938"><ele>138.0</ele><time>2026-04-18T10:39:05Z</time></trkpt><trkpt lat="37.605434598182484" lon="13.000092515732414"><ele>138.0</ele><time>2026-04-18T10:39:06Z</time></trkpt><trkpt lat="37.6055348670495" lon="12.999659134941952"><ele>138.0</ele><time>2026-04-18T10:39:07Z</time></trkpt><trkpt lat="37.60563599287105" lon="12.999217763191298"><ele>138.0</ele><time>2026-04-18T10:39:08Z</time></trkpt><trkpt lat="37.605734813820824" lon="12.9987764047455"><ele>144.0</ele><time>2026-04-18T10:39:09Z</time></trkpt><trkpt lat="37.60583221150325" lon="12.998329128445183"><ele>150.0</ele><time>2026-04-18T10:39:10Z</time></trkpt><trkpt lat="37.605927161021796" lon="12.997882603640836"><ele>154.0</ele><time>2026-04-18T10:39:11Z</time></trkpt><trkpt lat="37.60601981782369" lon="12.99744177350368"><ele>158.0</ele><time>2026-04-18T10:39:12Z</time></trkpt><trkpt lat="37.60610877531731" lon="12.99701693014885"><ele>162.5</ele><time>2026-04-18T10:39:13Z</time></trkpt><trkpt lat="37.606195195196314" lon="12.996598782277646"><ele>167.0</ele><time>2026-04-18T10:39:14Z</time></trkpt><trkpt lat="37.606278746804165" lon="12.996191396132563"><ele>165.5</ele><time>2026-04-18T10:39:15Z</time></trkpt><trkpt lat="37.606361979402834" lon="12.995785761365225"><ele>164.0</ele><time>2026-04-18T10:39:16Z</time></trkpt><trkpt lat="37.60644414584459" lon="12.99538584878027"><ele>163.0</ele><time>2026-04-18T10:39:17Z</time></trkpt><trkpt lat="37.6065255272409" lon="12.994994079414642"><ele>162.0</ele><time>2026-04-18T10:39:18Z</time></trkpt><trkpt lat="37.60660502242424" lon="12.994606516218894"><ele>162.0</ele><time>2026-04-18T10:39:19Z</time></trkpt><trkpt lat="37.60668230590636" lon="12.994224986896974"><ele>162.0</ele><time>2026-04-18T10:39:20Z</time></trkpt><trkpt lat="37.60675799223388" lon="12.993861689964987"><ele>161.0</ele><time>2026-04-18T10:39:21Z</time></trkpt><trkpt lat="37.6068340887806" lon="12.993507646580891"><ele>160.0</ele><time>2026-04-18T10:39:22Z</time></trkpt><trkpt lat="37.60690932205585" lon="12.993156950428075"><ele>160.0</ele><time>2026-04-18T10:39:23Z</time></trkpt><trkpt lat="37.6069844362212" lon="12.992822467768562"><ele>160.0</ele><time>2026-04-18T10:39:24Z</time></trkpt><trkpt lat="37.60705562246808" lon="12.992504387920473"><ele>160.5</ele><time>2026-04-18T10:39:25Z</time></trkpt><trkpt lat="37.60713037265237" lon="12.992203403951265"><ele>161.0</ele><time>2026-04-18T10:39:26Z</time></trkpt><trkpt lat="37.60720907821" lon="12.991898184455364"><ele>160.0</ele><time>2026-04-18T10:39:27Z</time></trkpt><trkpt lat="37.60729101377664" lon="12.991587368102309"><ele>159.0</ele><time>2026-04-18T10:39:28Z</time></trkpt><trkpt lat="37.60737749456235" lon="12.991272150934316"><ele>159.0</ele><time>2026-04-18T10:39:29Z</time></trkpt><trkpt lat="37.60747068522637" lon="12.990957382394445"><ele>159.0</ele><time>2026-04-18T10:39:30Z</time></trkpt><trkpt lat="37.6075683943952" lon="12.990639666739945"><ele>159.0</ele><time>2026-04-18T10:39:31Z</time></trkpt><trkpt lat="37.607673194505686" lon="12.990321665418678"><ele>159.0</ele><time>2026-04-18T10:39:32Z</time></trkpt><trkpt lat="37.60778378566667" lon="12.990004935421439"><ele>159.0</ele><time>2026-04-18T10:39:33Z</time></trkpt><trkpt lat="37.607896572388285" lon="12.989688600562582"><ele>159.0</ele><time>2026-04-18T10:39:34Z</time></trkpt><trkpt lat="37.60801197165982" lon="12.989376101322222"><ele>159.5</ele><time>2026-04-18T10:39:35Z</time></trkpt><trkpt lat="37.6081289257064" lon="12.989071271953017"><ele>160.0</ele><time>2026-04-18T10:39:36Z</time></trkpt><trkpt lat="37.608249128012396" lon="12.988776148355589"><ele>160.0</ele><time>2026-04-18T10:39:37Z</time></trkpt><trkpt lat="37.60837753664582" lon="12.988484188807956"><ele>160.0</ele><time>2026-04-18T10:39:38Z</time></trkpt><trkpt lat="37.60851078632653" lon="12.988200031383915"><ele>160.0</ele><time>2026-04-18T10:39:39Z</time></trkpt><trkpt lat="37.60864406545297" lon="12.987917991445919"><ele>160.0</ele><time>2026-04-18T10:39:40Z</time></trkpt><trkpt lat="37.60878098502214" lon="12.987634010741697"><ele>162.5</ele><time>2026-04-18T10:39:41Z</time></trkpt><trkpt lat="37.6089226570507" lon="12.987356677683266"><ele>165.0</ele><time>2026-04-18T10:39:42Z</time></trkpt><trkpt lat="37.609069505035976" lon="12.987079279776193"><ele>165.0</ele><time>2026-04-18T10:39:43Z</time></trkpt><trkpt lat="37.60921681077701" lon="12.986803747620938"><ele>165.0</ele><time>2026-04-18T10:39:44Z</time></trkpt><trkpt lat="37.60936898715379" lon="12.986535746628194"><ele>165.5</ele><time>2026-04-18T10:39:45Z</time></trkpt><trkpt lat="37.60952458256334" lon="12.98626779777841"><ele>166.0</ele><time>2026-04-18T10:39:46Z</time></trkpt><trkpt lat="37.609683489974344" lon="12.98600746243697"><ele>164.0</ele><time>2026-04-18T10:39:47Z</time></trkpt><trkpt lat="37.609846291567095" lon="12.985746560179873"><ele>162.0</ele><time>2026-04-18T10:39:48Z</time></trkpt><trkpt lat="37.61001628422412" lon="12.985485520590114"><ele>162.0</ele><time>2026-04-18T10:39:49Z</time></trkpt><trkpt lat="37.61018842747655" lon="12.98522544736355"><ele>162.0</ele><time>2026-04-18T10:39:50Z</time></trkpt><trkpt lat="37.61036682639773" lon="12.984973550751898"><ele>162.5</ele><time>2026-04-18T10:39:51Z</time></trkpt><trkpt lat="37.610548530675196" lon="12.984724376365655"><ele>163.0</ele><time>2026-04-18T10:39:52Z</time></trkpt><trkpt lat="37.6107299759663" lon="12.984472758007259"><ele>163.0</ele><time>2026-04-18T10:39:53Z</time></trkpt><trkpt lat="37.61091153099816" lon="12.984220497834636"><ele>163.0</ele><time>2026-04-18T10:39:54Z</time></trkpt><trkpt lat="37.6110933098051" lon="12.983967409364743"><ele>164.5</ele><time>2026-04-18T10:39:55Z</time></trkpt><trkpt lat="37.61127407124439" lon="12.983721362261804"><ele>166.0</ele><time>2026-04-18T10:39:56Z</time></trkpt><trkpt lat="37.61145465074152" lon="12.983484253824471"><ele>165.0</ele><time>2026-04-18T10:39:57Z</time></trkpt><trkpt lat="37.61162712050805" lon="12.983245216803423"><ele>164.0</ele><time>2026-04-18T10:39:58Z</time></trkpt><trkpt lat="37.61179754293156" lon="12.98300105672961"><ele>164.0</ele><time>2026-04-18T10:39:59Z</time></trkpt><trkpt lat="37.61197197360518" lon="12.982760852837925"><ele>164.0</ele><time>2026-04-18T10:40:00Z</time></trkpt><trkpt lat="37.61214508868953" lon="12.982514408761405"><ele>164.5</ele><time>2026-04-18T10:40:01Z</time></trkpt><trkpt lat="37.61232102189554" lon="12.982269943667584"><ele>165.0</ele><time>2026-04-18T10:40:02Z</time></trkpt><trkpt lat="37.61248958702167" lon="12.982020387759114"><ele>165.0</ele><time>2026-04-18T10:40:03Z</time></trkpt><trkpt lat="37.612659110801694" lon="12.981767653959112"><ele>165.0</ele><time>2026-04-18T10:40:04Z</time></trkpt><trkpt lat="37.612824675842084" lon="12.981518069794554"><ele>167.0</ele><time>2026-04-18T10:40:05Z</time></trkpt><trkpt lat="37.61298682902803" lon="12.981267138307425"><ele>169.0</ele><time>2026-04-18T10:40:06Z</time></trkpt><trkpt lat="37.61314538595895" lon="12.98101514634414"><ele>167.0</ele><time>2026-04-18T10:40:07Z</time></trkpt><trkpt lat="37.613302979223846" lon="12.980758876332068"><ele>165.0</ele><time>2026-04-18T10:40:07.999Z</time></trkpt><trkpt lat="37.613460386341195" lon="12.980509174295072"><ele>165.0</ele><time>2026-04-18T10:40:08.999Z</time></trkpt><trkpt lat="37.61361344877798" lon="12.980255920931793"><ele>165.0</ele><time>2026-04-18T10:40:09.999Z</time></trkpt><trkpt lat="37.613765046799095" lon="12.979998778577034"><ele>167.0</ele><time>2026-04-18T10:40:10.999Z</time></trkpt><trkpt lat="37.613910174572936" lon="12.979740398274998"><ele>169.0</ele><time>2026-04-18T10:40:11.999Z</time></trkpt><trkpt lat="37.61406000558462" lon="12.979479609468004"><ele>169.0</ele><time>2026-04-18T10:40:12.999Z</time></trkpt><trkpt lat="37.61420719346628" lon="12.979215747994257"><ele>169.0</ele><time>2026-04-18T10:40:13.999Z</time></trkpt><trkpt lat="37.61435294822946" lon="12.978952005156382"><ele>167.0</ele><time>2026-04-18T10:40:14.999Z</time></trkpt><trkpt lat="37.614495934736155" lon="12.978686997776983"><ele>165.0</ele><time>2026-04-18T10:40:15.999Z</time></trkpt><trkpt lat="37.61463851221498" lon="12.978423861610477"><ele>161.0</ele><time>2026-04-18T10:40:16.999Z</time></trkpt><trkpt lat="37.61477522903829" lon="12.978166043940996"><ele>157.0</ele><time>2026-04-18T10:40:17.999Z</time></trkpt><trkpt lat="37.614908752463506" lon="12.977912642222096"><ele>157.0</ele><time>2026-04-18T10:40:18.999Z</time></trkpt><trkpt lat="37.615038145705725" lon="12.977667566936283"><ele>157.0</ele><time>2026-04-18T10:40:19.999Z</time></trkpt><trkpt lat="37.615161904630845" lon="12.97743019748184"><ele>156.0</ele><time>2026-04-18T10:40:20.999Z</time></trkpt><trkpt lat="37.61528067587112" lon="12.977203721179864"><ele>155.0</ele><time>2026-04-18T10:40:21.999Z</time></trkpt><trkpt lat="37.61539444284963" lon="12.976986752503063"><ele>154.0</ele><time>2026-04-18T10:40:22.999Z</time></trkpt><trkpt lat="37.61550641342508" lon="12.97677275889146"><ele>158.0</ele><time>2026-04-18T10:40:23.999Z</time></trkpt><trkpt lat="37.615616469494505" lon="12.976569362817743"><ele>162.0</ele><time>2026-04-18T10:40:24.999Z</time></trkpt><trkpt lat="37.61572094962625" lon="12.976381784344165"><ele>166.0</ele><time>2026-04-18T10:40:25.999Z</time></trkpt><trkpt lat="37.61581780260676" lon="12.976202358876563"><ele>166.0</ele><time>2026-04-18T10:40:26.999Z</time></trkpt><trkpt lat="37.61590945342506" lon="12.97604219141063"><ele>166.0</ele><time>2026-04-18T10:40:27.999Z</time></trkpt><trkpt lat="37.61601317873113" lon="12.97588599490861"><ele>166.0</ele><time>2026-04-18T10:40:28.999Z</time></trkpt><trkpt lat="37.616127756576546" lon="12.97574282755354"><ele>168.75</ele><time>2026-04-18T10:40:29.999Z</time></trkpt><trkpt lat="37.61625217292549" lon="12.975629609437675"><ele>171.5</ele><time>2026-04-18T10:40:30.999Z</time></trkpt><trkpt lat="37.6163809537865" lon="12.975539688340266"><ele>174.25</ele><time>2026-04-18T10:40:31.999Z</time></trkpt><trkpt lat="37.616512533601885" lon="12.975468878050133"><ele>177.0</ele><time>2026-04-18T10:40:32.999Z</time></trkpt><trkpt lat="37.61662701406201" lon="12.975422444240957"><ele>177.0</ele><time>2026-04-18T10:40:33.999Z</time></trkpt><trkpt lat="37.61672581766406" lon="12.975383194584918"><ele>177.0</ele><time>2026-04-18T10:40:34.999Z</time></trkpt><trkpt lat="37.6167968669578" lon="12.975333321079185"><ele>177.0</ele><time>2026-04-18T10:40:35.999Z</time></trkpt><trkpt lat="37.616843473063874" lon="12.975265626286697"><ele>177.0</ele><time>2026-04-18T10:40:36.999Z</time></trkpt><trkpt lat="37.61686641451108" lon="12.975134473264195"><ele>177.0</ele><time>2026-04-18T10:40:38.999Z</time></trkpt><trkpt lat="37.61684503736787" lon="12.975055692400106"><ele>177.0</ele><time>2026-04-18T10:40:41.999Z</time></trkpt><trkpt lat="37.616797163447764" lon="12.974948530453469"><ele>176.0</ele><time>2026-04-18T10:40:47.999Z</time></trkpt><trkpt lat="37.61671301962008" lon="12.974870097625262"><ele>175.0</ele><time>2026-04-18T10:40:48.999Z</time></trkpt><trkpt lat="37.616605764946634" lon="12.97478211821188"><ele>174.0</ele><time>2026-04-18T10:40:49.999Z</time></trkpt><trkpt lat="37.616458078718445" lon="12.974666613068058"><ele>173.0</ele><time>2026-04-18T10:40:50.999Z</time></trkpt><trkpt lat="37.61631407034972" lon="12.974544115508039"><ele>173.0</ele><time>2026-04-18T10:40:51.999Z</time></trkpt><trkpt lat="37.61618003279082" lon="12.974432161421534"><ele>173.0</ele><time>2026-04-18T10:40:52.999Z</time></trkpt><trkpt lat="37.61605190600379" lon="12.974326533548322"><ele>173.0</ele><time>2026-04-18T10:40:53.999Z</time></trkpt><trkpt lat="37.61592768809995" lon="12.974227000197025"><ele>170.66666666666666</ele><time>2026-04-18T10:40:54.999Z</time></trkpt><trkpt lat="37.61580374036761" lon="12.974126653010774"><ele>168.33333333333334</ele><time>2026-04-18T10:40:55.999Z</time></trkpt><trkpt lat="37.61566791125165" lon="12.974015623434655"><ele>166.0</ele><time>2026-04-18T10:40:56.999Z</time></trkpt><trkpt lat="37.61552832524913" lon="12.973894048348354"><ele>166.0</ele><time>2026-04-18T10:40:57.999Z</time></trkpt><trkpt lat="37.615384798484925" lon="12.973768758594133"><ele>166.0</ele><time>2026-04-18T10:40:58.999Z</time></trkpt><trkpt lat="37.61524115520798" lon="12.973645442280874"><ele>166.0</ele><time>2026-04-18T10:40:59.999Z</time></trkpt><trkpt lat="37.61510581856932" lon="12.973531884022789"><ele>165.25</ele><time>2026-04-18T10:41:00.999Z</time></trkpt><trkpt lat="37.61498360915682" lon="12.973435081687484"><ele>164.5</ele><time>2026-04-18T10:41:01.999Z</time></trkpt><trkpt lat="37.61487103731909" lon="12.973342459579827"><ele>163.75</ele><time>2026-04-18T10:41:02.999Z</time></trkpt><trkpt lat="37.61476788274263" lon="12.973257560292364"><ele>163.0</ele><time>2026-04-18T10:41:03.999Z</time></trkpt><trkpt lat="37.61466632102304" lon="12.97317399709378"><ele>162.20000000000002</ele><time>2026-04-18T10:41:04.999Z</time></trkpt><trkpt lat="37.61457220304915" lon="12.973098387285818"><ele>161.4</ele><time>2026-04-18T10:41:05.999Z</time></trkpt><trkpt lat="37.61449050885698" lon="12.97302904286517"><ele>160.60000000000002</ele><time>2026-04-18T10:41:06.999Z</time></trkpt><trkpt lat="37.61441967392149" lon="12.972956726936308"><ele>159.8</ele><time>2026-04-18T10:41:07.999Z</time></trkpt><trkpt lat="37.61437118873581" lon="12.972870962259803"><ele>159.0</ele><time>2026-04-18T10:41:08.999Z</time></trkpt><trkpt lat="37.61434074450529" lon="12.972773856472578"><ele>158.6</ele><time>2026-04-18T10:41:10Z</time></trkpt><trkpt lat="37.61432915263455" lon="12.972692621658412"><ele>158.2</ele><time>2026-04-18T10:41:11Z</time></trkpt><trkpt lat="37.614329715759084" lon="12.972569407499606"><ele>157.79999999999998</ele><time>2026-04-18T10:41:13Z</time></trkpt><trkpt lat="37.614278702200906" lon="12.972506895991602"><ele>157.4</ele><time>2026-04-18T10:41:33Z</time></trkpt><trkpt lat="37.61419620840719" lon="12.972480219825188"><ele>157.0</ele><time>2026-04-18T10:41:35Z</time></trkpt><trkpt lat="37.61405969649468" lon="12.972523778723238"><ele>156.83333333333334</ele><time>2026-04-18T10:41:37Z</time></trkpt><trkpt lat="37.61400084506763" lon="12.97257934853394"><ele>156.66666666666669</ele><time>2026-04-18T10:41:38Z</time></trkpt><trkpt lat="37.61395995860525" lon="12.9726526042608"><ele>156.5</ele><time>2026-04-18T10:41:39Z</time></trkpt><trkpt lat="37.613936563539845" lon="12.97274177646635"><ele>156.33333333333334</ele><time>2026-04-18T10:41:40Z</time></trkpt><trkpt lat="37.613913404204446" lon="12.972834178271587"><ele>156.16666666666666</ele><time>2026-04-18T10:41:41Z</time></trkpt><trkpt lat="37.61387943127518" lon="12.972907824605626"><ele>156.0</ele><time>2026-04-18T10:41:42Z</time></trkpt><trkpt lat="37.61376854957952" lon="12.972987168096354"><ele>156.0</ele><time>2026-04-18T10:41:44Z</time></trkpt><trkpt lat="37.61369619213978" lon="12.972998377925354"><ele>156.0</ele><time>2026-04-18T10:41:45Z</time></trkpt><trkpt lat="37.61359545136824" lon="12.973104412942288"><ele>156.0</ele><time>2026-04-18T10:41:47Z</time></trkpt><trkpt lat="37.61355478236733" lon="12.973189364733885"><ele>156.0</ele><time>2026-04-18T10:41:48Z</time></trkpt><trkpt lat="37.61350572005623" lon="12.973302538527085"><ele>156.0</ele><time>2026-04-18T10:41:49Z</time></trkpt><trkpt lat="37.61345545310663" lon="12.97342135679678"><ele>156.0</ele><time>2026-04-18T10:41:50Z</time></trkpt><trkpt lat="37.61340334200688" lon="12.973546901612956"><ele>156.0</ele><time>2026-04-18T10:41:51Z</time></trkpt><trkpt lat="37.61336033131791" lon="12.973642975783797"><ele>156.0</ele><time>2026-04-18T10:41:52Z</time></trkpt><trkpt lat="37.6133122140834" lon="12.97375135821425"><ele>156.0</ele><time>2026-04-18T10:41:54Z</time></trkpt><trkpt lat="37.613270874653765" lon="12.973864181718035"><ele>156.0</ele><time>2026-04-18T10:41:57Z</time></trkpt><trkpt lat="37.61323595762594" lon="12.973952096092201"><ele>156.0</ele><time>2026-04-18T10:41:58Z</time></trkpt><trkpt lat="37.61318452644482" lon="12.974083938054772"><ele>156.0</ele><time>2026-04-18T10:41:59Z</time></trkpt><trkpt lat="37.61312503114101" lon="12.97423098441308"><ele>156.0</ele><time>2026-04-18T10:42:00Z</time></trkpt><trkpt lat="37.61305599404354" lon="12.97440671590646"><ele>156.0</ele><time>2026-04-18T10:42:01Z</time></trkpt><trkpt lat="37.61298115659736" lon="12.974572591856829"><ele>156.2</ele><time>2026-04-18T10:42:02Z</time></trkpt><trkpt lat="37.61291768517695" lon="12.97471301957429"><ele>156.39999999999998</ele><time>2026-04-18T10:42:03Z</time></trkpt><trkpt lat="37.61286496889084" lon="12.974829501761977"><ele>156.6</ele><time>2026-04-18T10:42:04Z</time></trkpt><trkpt lat="37.61282127987382" lon="12.974912078983937"><ele>156.79999999999998</ele><time>2026-04-18T10:42:05Z</time></trkpt><trkpt lat="37.61281897350232" lon="12.975008747271708"><ele>157.0</ele><time>2026-04-18T10:42:08Z</time></trkpt><trkpt lat="37.61293180465967" lon="12.975085775527946"><ele>157.0</ele><time>2026-04-18T10:42:11Z</time></trkpt><trkpt lat="37.61302226710165" lon="12.975130724197788"><ele>157.0</ele><time>2026-04-18T10:42:12Z</time></trkpt><trkpt lat="37.61314356955783" lon="12.975195184615249"><ele>157.0</ele><time>2026-04-18T10:42:12.999Z</time></trkpt><trkpt lat="37.61323071507124" lon="12.975246219178052"><ele>157.0</ele><time>2026-04-18T10:42:13.999Z</time></trkpt><trkpt lat="37.613295244508976" lon="12.975294897602744"><ele>157.0</ele><time>2026-04-18T10:42:14.999Z</time></trkpt><trkpt lat="37.6133518240566" lon="12.975331402741098"><ele>157.0</ele><time>2026-04-18T10:42:16.999Z</time></trkpt><trkpt lat="37.61338187765917" lon="12.975251918321797"><ele>157.0</ele><time>2026-04-18T10:42:55.999Z</time></trkpt></trkseg></trk></gpx>